<?xml version="1.0" encoding="UTF-8" standalone="no" ?>
<gpx xmlns="http://www.topografix.com/GPX/1/1" xmlns:xsi="http://www.w3.org/2001/XMLSchema-instance" xsi:schemaLocation="http://www.topografix.com/GPX/1/1 http://www.topografix.com/GPX/1/1/gpx.xsd" version="1.1" creator="VisuGPX - https://www.visugpx.com">
  <metadata>
    <name>Vienne en val Orléans bord de loire</name>
    <desc><![CDATA[68 kms
bords de Loire
Vienne en Val
Orléans
AR]]></desc>
  </metadata>
  <trk>
    <name><![CDATA[Vienne en val Orléans bord de loire_1]]></name>
    <trkseg>
      <trkpt lat="47.80111" lon="2.13535">
        <ele>156</ele>
        <time>2013-09-29T06:35:37.000Z</time>
      </trkpt>
      <trkpt lat="47.80115" lon="2.13529">
        <ele>156</ele>
        <time>2013-09-29T06:36:18.000Z</time>
      </trkpt>
      <trkpt lat="47.80115" lon="2.13529">
        <ele>156</ele>
        <time>2013-09-29T06:36:20.000Z</time>
      </trkpt>
      <trkpt lat="47.80115" lon="2.13529">
        <ele>156</ele>
        <time>2013-09-29T06:36:22.000Z</time>
      </trkpt>
      <trkpt lat="47.80115" lon="2.13529">
        <ele>156</ele>
        <time>2013-09-29T06:36:24.000Z</time>
      </trkpt>
      <trkpt lat="47.80115" lon="2.13529">
        <ele>156</ele>
        <time>2013-09-29T06:36:38.000Z</time>
      </trkpt>
      <trkpt lat="47.80115" lon="2.13529">
        <ele>156</ele>
        <time>2013-09-29T06:36:40.000Z</time>
      </trkpt>
      <trkpt lat="47.80125" lon="2.1351">
        <ele>159</ele>
        <time>2013-09-29T06:36:59.000Z</time>
      </trkpt>
      <trkpt lat="47.80135" lon="2.13497">
        <ele>160</ele>
        <time>2013-09-29T06:37:03.000Z</time>
      </trkpt>
      <trkpt lat="47.80145" lon="2.13482">
        <ele>160</ele>
        <time>2013-09-29T06:37:07.000Z</time>
      </trkpt>
      <trkpt lat="47.80156" lon="2.13466">
        <ele>159</ele>
        <time>2013-09-29T06:37:11.000Z</time>
      </trkpt>
      <trkpt lat="47.80166" lon="2.13446">
        <ele>159</ele>
        <time>2013-09-29T06:37:15.000Z</time>
      </trkpt>
      <trkpt lat="47.80178" lon="2.13427">
        <ele>158</ele>
        <time>2013-09-29T06:37:19.000Z</time>
      </trkpt>
      <trkpt lat="47.80183" lon="2.13417">
        <ele>158</ele>
        <time>2013-09-29T06:37:21.000Z</time>
      </trkpt>
      <trkpt lat="47.80189" lon="2.13406">
        <ele>159</ele>
        <time>2013-09-29T06:37:23.000Z</time>
      </trkpt>
      <trkpt lat="47.802" lon="2.13388">
        <ele>159</ele>
        <time>2013-09-29T06:37:27.000Z</time>
      </trkpt>
      <trkpt lat="47.802" lon="2.13388">
        <ele>159</ele>
        <time>2013-09-29T06:37:29.000Z</time>
      </trkpt>
      <trkpt lat="47.802" lon="2.13388">
        <ele>159</ele>
        <time>2013-09-29T06:37:31.000Z</time>
      </trkpt>
      <trkpt lat="47.802" lon="2.13388">
        <ele>159</ele>
        <time>2013-09-29T06:37:33.000Z</time>
      </trkpt>
      <trkpt lat="47.802" lon="2.13388">
        <ele>159</ele>
        <time>2013-09-29T06:37:35.000Z</time>
      </trkpt>
      <trkpt lat="47.802" lon="2.13388">
        <ele>159</ele>
        <time>2013-09-29T06:37:37.000Z</time>
      </trkpt>
      <trkpt lat="47.802" lon="2.13388">
        <ele>159</ele>
        <time>2013-09-29T06:37:39.000Z</time>
      </trkpt>
      <trkpt lat="47.80255" lon="2.13388">
        <ele>161</ele>
        <time>2013-09-29T06:37:43.000Z</time>
      </trkpt>
      <trkpt lat="47.80271" lon="2.134">
        <ele>161</ele>
        <time>2013-09-29T06:37:47.000Z</time>
      </trkpt>
      <trkpt lat="47.8028" lon="2.13407">
        <ele>161</ele>
        <time>2013-09-29T06:37:49.000Z</time>
      </trkpt>
      <trkpt lat="47.80297" lon="2.13419">
        <ele>161</ele>
        <time>2013-09-29T06:37:53.000Z</time>
      </trkpt>
      <trkpt lat="47.80305" lon="2.13427">
        <ele>161</ele>
        <time>2013-09-29T06:37:55.000Z</time>
      </trkpt>
      <trkpt lat="47.80313" lon="2.13433">
        <ele>161</ele>
        <time>2013-09-29T06:37:57.000Z</time>
      </trkpt>
      <trkpt lat="47.8033" lon="2.13446">
        <ele>160</ele>
        <time>2013-09-29T06:38:00.000Z</time>
      </trkpt>
      <trkpt lat="47.8034" lon="2.13453">
        <ele>160</ele>
        <time>2013-09-29T06:38:03.000Z</time>
      </trkpt>
      <trkpt lat="47.80348" lon="2.1346">
        <ele>160</ele>
        <time>2013-09-29T06:38:05.000Z</time>
      </trkpt>
      <trkpt lat="47.80357" lon="2.13466">
        <ele>162</ele>
        <time>2013-09-29T06:38:07.000Z</time>
      </trkpt>
      <trkpt lat="47.80357" lon="2.13466">
        <ele>162</ele>
        <time>2013-09-29T06:38:09.000Z</time>
      </trkpt>
      <trkpt lat="47.80357" lon="2.13466">
        <ele>162</ele>
        <time>2013-09-29T06:38:11.000Z</time>
      </trkpt>
      <trkpt lat="47.80357" lon="2.13466">
        <ele>162</ele>
        <time>2013-09-29T06:38:13.000Z</time>
      </trkpt>
      <trkpt lat="47.80357" lon="2.13466">
        <ele>162</ele>
        <time>2013-09-29T06:38:15.000Z</time>
      </trkpt>
      <trkpt lat="47.80419" lon="2.13491">
        <ele>162</ele>
        <time>2013-09-29T06:38:21.000Z</time>
      </trkpt>
      <trkpt lat="47.80436" lon="2.13493">
        <ele>162</ele>
        <time>2013-09-29T06:38:25.000Z</time>
      </trkpt>
      <trkpt lat="47.80446" lon="2.13493">
        <ele>163</ele>
        <time>2013-09-29T06:38:27.000Z</time>
      </trkpt>
      <trkpt lat="47.80446" lon="2.13493">
        <ele>163</ele>
        <time>2013-09-29T06:38:29.000Z</time>
      </trkpt>
      <trkpt lat="47.80464" lon="2.13493">
        <ele>163</ele>
        <time>2013-09-29T06:38:31.000Z</time>
      </trkpt>
      <trkpt lat="47.80475" lon="2.13494">
        <ele>163</ele>
        <time>2013-09-29T06:38:33.000Z</time>
      </trkpt>
      <trkpt lat="47.80475" lon="2.13494">
        <ele>163</ele>
        <time>2013-09-29T06:38:35.000Z</time>
      </trkpt>
      <trkpt lat="47.80475" lon="2.13494">
        <ele>163</ele>
        <time>2013-09-29T06:38:37.000Z</time>
      </trkpt>
      <trkpt lat="47.80475" lon="2.13494">
        <ele>163</ele>
        <time>2013-09-29T06:38:39.000Z</time>
      </trkpt>
      <trkpt lat="47.80475" lon="2.13494">
        <ele>163</ele>
        <time>2013-09-29T06:38:41.000Z</time>
      </trkpt>
      <trkpt lat="47.80503" lon="2.13513">
        <ele>160</ele>
        <time>2013-09-29T06:38:47.000Z</time>
      </trkpt>
      <trkpt lat="47.80523" lon="2.13528">
        <ele>159</ele>
        <time>2013-09-29T06:38:49.000Z</time>
      </trkpt>
      <trkpt lat="47.80539" lon="2.13541">
        <ele>158</ele>
        <time>2013-09-29T06:38:51.000Z</time>
      </trkpt>
      <trkpt lat="47.80547" lon="2.13556">
        <ele>153</ele>
        <time>2013-09-29T06:38:54.000Z</time>
      </trkpt>
      <trkpt lat="47.80547" lon="2.13556">
        <ele>153</ele>
        <time>2013-09-29T06:38:56.000Z</time>
      </trkpt>
      <trkpt lat="47.80547" lon="2.13556">
        <ele>153</ele>
        <time>2013-09-29T06:38:58.000Z</time>
      </trkpt>
      <trkpt lat="47.80547" lon="2.13556">
        <ele>153</ele>
        <time>2013-09-29T06:39:00.000Z</time>
      </trkpt>
      <trkpt lat="47.80547" lon="2.13556">
        <ele>153</ele>
        <time>2013-09-29T06:39:02.000Z</time>
      </trkpt>
      <trkpt lat="47.80547" lon="2.13556">
        <ele>153</ele>
        <time>2013-09-29T06:39:04.000Z</time>
      </trkpt>
      <trkpt lat="47.80547" lon="2.13556">
        <ele>153</ele>
        <time>2013-09-29T06:39:06.000Z</time>
      </trkpt>
      <trkpt lat="47.80547" lon="2.13556">
        <ele>153</ele>
        <time>2013-09-29T06:39:08.000Z</time>
      </trkpt>
      <trkpt lat="47.80541" lon="2.1362">
        <ele>150</ele>
        <time>2013-09-29T06:39:12.000Z</time>
      </trkpt>
      <trkpt lat="47.80537" lon="2.13659">
        <ele>150</ele>
        <time>2013-09-29T06:39:14.000Z</time>
      </trkpt>
      <trkpt lat="47.80536" lon="2.13686">
        <ele>149</ele>
        <time>2013-09-29T06:39:16.000Z</time>
      </trkpt>
      <trkpt lat="47.80534" lon="2.13706">
        <ele>149</ele>
        <time>2013-09-29T06:39:18.000Z</time>
      </trkpt>
      <trkpt lat="47.80532" lon="2.13721">
        <ele>149</ele>
        <time>2013-09-29T06:39:20.000Z</time>
      </trkpt>
      <trkpt lat="47.80532" lon="2.13721">
        <ele>149</ele>
        <time>2013-09-29T06:39:22.000Z</time>
      </trkpt>
      <trkpt lat="47.80532" lon="2.13721">
        <ele>149</ele>
        <time>2013-09-29T06:39:24.000Z</time>
      </trkpt>
      <trkpt lat="47.80526" lon="2.1379">
        <ele>148</ele>
        <time>2013-09-29T06:39:28.000Z</time>
      </trkpt>
      <trkpt lat="47.80525" lon="2.13804">
        <ele>147</ele>
        <time>2013-09-29T06:39:30.000Z</time>
      </trkpt>
      <trkpt lat="47.80525" lon="2.13804">
        <ele>147</ele>
        <time>2013-09-29T06:39:32.000Z</time>
      </trkpt>
      <trkpt lat="47.80525" lon="2.13804">
        <ele>147</ele>
        <time>2013-09-29T06:39:34.000Z</time>
      </trkpt>
      <trkpt lat="47.80525" lon="2.13804">
        <ele>147</ele>
        <time>2013-09-29T06:39:36.000Z</time>
      </trkpt>
      <trkpt lat="47.80525" lon="2.13804">
        <ele>147</ele>
        <time>2013-09-29T06:39:38.000Z</time>
      </trkpt>
      <trkpt lat="47.80525" lon="2.13804">
        <ele>147</ele>
        <time>2013-09-29T06:39:40.000Z</time>
      </trkpt>
      <trkpt lat="47.80525" lon="2.13804">
        <ele>147</ele>
        <time>2013-09-29T06:39:42.000Z</time>
      </trkpt>
      <trkpt lat="47.80525" lon="2.13804">
        <ele>147</ele>
        <time>2013-09-29T06:39:44.000Z</time>
      </trkpt>
      <trkpt lat="47.80523" lon="2.13924">
        <ele>148</ele>
        <time>2013-09-29T06:39:50.000Z</time>
      </trkpt>
      <trkpt lat="47.80523" lon="2.13924">
        <ele>148</ele>
        <time>2013-09-29T06:39:52.000Z</time>
      </trkpt>
      <trkpt lat="47.80526" lon="2.13971">
        <ele>147</ele>
        <time>2013-09-29T06:39:58.000Z</time>
      </trkpt>
      <trkpt lat="47.80527" lon="2.13997">
        <ele>147</ele>
        <time>2013-09-29T06:40:02.000Z</time>
      </trkpt>
      <trkpt lat="47.80529" lon="2.14021">
        <ele>147</ele>
        <time>2013-09-29T06:40:06.000Z</time>
      </trkpt>
      <trkpt lat="47.80531" lon="2.14047">
        <ele>147</ele>
        <time>2013-09-29T06:40:10.000Z</time>
      </trkpt>
      <trkpt lat="47.80531" lon="2.14047">
        <ele>147</ele>
        <time>2013-09-29T06:40:12.000Z</time>
      </trkpt>
      <trkpt lat="47.80534" lon="2.14071">
        <ele>146</ele>
        <time>2013-09-29T06:40:14.000Z</time>
      </trkpt>
      <trkpt lat="47.80534" lon="2.14071">
        <ele>146</ele>
        <time>2013-09-29T06:40:16.000Z</time>
      </trkpt>
      <trkpt lat="47.80534" lon="2.14071">
        <ele>146</ele>
        <time>2013-09-29T06:40:18.000Z</time>
      </trkpt>
      <trkpt lat="47.80534" lon="2.14071">
        <ele>146</ele>
        <time>2013-09-29T06:40:20.000Z</time>
      </trkpt>
      <trkpt lat="47.80534" lon="2.14071">
        <ele>146</ele>
        <time>2013-09-29T06:40:22.000Z</time>
      </trkpt>
      <trkpt lat="47.80534" lon="2.14071">
        <ele>146</ele>
        <time>2013-09-29T06:40:24.000Z</time>
      </trkpt>
      <trkpt lat="47.80534" lon="2.14071">
        <ele>146</ele>
        <time>2013-09-29T06:40:26.000Z</time>
      </trkpt>
      <trkpt lat="47.80534" lon="2.14071">
        <ele>146</ele>
        <time>2013-09-29T06:40:28.000Z</time>
      </trkpt>
      <trkpt lat="47.80534" lon="2.14071">
        <ele>146</ele>
        <time>2013-09-29T06:40:30.000Z</time>
      </trkpt>
      <trkpt lat="47.8054" lon="2.14178">
        <ele>146</ele>
        <time>2013-09-29T06:40:32.000Z</time>
      </trkpt>
      <trkpt lat="47.80542" lon="2.14203">
        <ele>146</ele>
        <time>2013-09-29T06:40:36.000Z</time>
      </trkpt>
      <trkpt lat="47.80542" lon="2.14203">
        <ele>146</ele>
        <time>2013-09-29T06:40:38.000Z</time>
      </trkpt>
      <trkpt lat="47.80544" lon="2.14228">
        <ele>147</ele>
        <time>2013-09-29T06:40:40.000Z</time>
      </trkpt>
      <trkpt lat="47.80544" lon="2.14228">
        <ele>147</ele>
        <time>2013-09-29T06:40:42.000Z</time>
      </trkpt>
      <trkpt lat="47.80544" lon="2.14228">
        <ele>147</ele>
        <time>2013-09-29T06:40:44.000Z</time>
      </trkpt>
      <trkpt lat="47.80544" lon="2.14228">
        <ele>147</ele>
        <time>2013-09-29T06:40:46.000Z</time>
      </trkpt>
      <trkpt lat="47.80544" lon="2.14228">
        <ele>147</ele>
        <time>2013-09-29T06:40:48.000Z</time>
      </trkpt>
      <trkpt lat="47.80544" lon="2.14228">
        <ele>147</ele>
        <time>2013-09-29T06:40:50.000Z</time>
      </trkpt>
      <trkpt lat="47.80544" lon="2.14228">
        <ele>147</ele>
        <time>2013-09-29T06:40:52.000Z</time>
      </trkpt>
      <trkpt lat="47.80544" lon="2.14228">
        <ele>147</ele>
        <time>2013-09-29T06:40:54.000Z</time>
      </trkpt>
      <trkpt lat="47.80544" lon="2.14228">
        <ele>147</ele>
        <time>2013-09-29T06:40:56.000Z</time>
      </trkpt>
      <trkpt lat="47.80544" lon="2.14228">
        <ele>147</ele>
        <time>2013-09-29T06:40:58.000Z</time>
      </trkpt>
      <trkpt lat="47.80544" lon="2.14228">
        <ele>147</ele>
        <time>2013-09-29T06:41:00.000Z</time>
      </trkpt>
      <trkpt lat="47.80544" lon="2.14228">
        <ele>147</ele>
        <time>2013-09-29T06:41:02.000Z</time>
      </trkpt>
      <trkpt lat="47.80544" lon="2.14228">
        <ele>147</ele>
        <time>2013-09-29T06:41:04.000Z</time>
      </trkpt>
      <trkpt lat="47.80566" lon="2.14289">
        <ele>149</ele>
        <time>2013-09-29T06:41:08.000Z</time>
      </trkpt>
      <trkpt lat="47.8058" lon="2.14322">
        <ele>149</ele>
        <time>2013-09-29T06:41:10.000Z</time>
      </trkpt>
      <trkpt lat="47.8059" lon="2.14342">
        <ele>150</ele>
        <time>2013-09-29T06:41:12.000Z</time>
      </trkpt>
      <trkpt lat="47.80599" lon="2.14356">
        <ele>150</ele>
        <time>2013-09-29T06:41:14.000Z</time>
      </trkpt>
      <trkpt lat="47.80606" lon="2.14366">
        <ele>149</ele>
        <time>2013-09-29T06:41:16.000Z</time>
      </trkpt>
      <trkpt lat="47.80629" lon="2.14386">
        <ele>150</ele>
        <time>2013-09-29T06:41:19.000Z</time>
      </trkpt>
      <trkpt lat="47.80645" lon="2.144">
        <ele>150</ele>
        <time>2013-09-29T06:41:23.000Z</time>
      </trkpt>
      <trkpt lat="47.80657" lon="2.14418">
        <ele>152</ele>
        <time>2013-09-29T06:41:27.000Z</time>
      </trkpt>
      <trkpt lat="47.80657" lon="2.14418">
        <ele>152</ele>
        <time>2013-09-29T06:41:29.000Z</time>
      </trkpt>
      <trkpt lat="47.80657" lon="2.14418">
        <ele>152</ele>
        <time>2013-09-29T06:41:31.000Z</time>
      </trkpt>
      <trkpt lat="47.80657" lon="2.14418">
        <ele>152</ele>
        <time>2013-09-29T06:41:33.000Z</time>
      </trkpt>
      <trkpt lat="47.80657" lon="2.14418">
        <ele>152</ele>
        <time>2013-09-29T06:41:35.000Z</time>
      </trkpt>
      <trkpt lat="47.8069" lon="2.14469">
        <ele>153</ele>
        <time>2013-09-29T06:41:39.000Z</time>
      </trkpt>
      <trkpt lat="47.80701" lon="2.14485">
        <ele>153</ele>
        <time>2013-09-29T06:41:43.000Z</time>
      </trkpt>
      <trkpt lat="47.80701" lon="2.14485">
        <ele>153</ele>
        <time>2013-09-29T06:41:45.000Z</time>
      </trkpt>
      <trkpt lat="47.80717" lon="2.14503">
        <ele>153</ele>
        <time>2013-09-29T06:41:47.000Z</time>
      </trkpt>
      <trkpt lat="47.80717" lon="2.14503">
        <ele>153</ele>
        <time>2013-09-29T06:41:51.000Z</time>
      </trkpt>
      <trkpt lat="47.80717" lon="2.14503">
        <ele>153</ele>
        <time>2013-09-29T06:41:53.000Z</time>
      </trkpt>
      <trkpt lat="47.80757" lon="2.14536">
        <ele>153</ele>
        <time>2013-09-29T06:41:57.000Z</time>
      </trkpt>
      <trkpt lat="47.80776" lon="2.14548">
        <ele>152</ele>
        <time>2013-09-29T06:42:01.000Z</time>
      </trkpt>
      <trkpt lat="47.80776" lon="2.14548">
        <ele>152</ele>
        <time>2013-09-29T06:42:03.000Z</time>
      </trkpt>
      <trkpt lat="47.80795" lon="2.14554">
        <ele>152</ele>
        <time>2013-09-29T06:42:05.000Z</time>
      </trkpt>
      <trkpt lat="47.8081" lon="2.14562">
        <ele>152</ele>
        <time>2013-09-29T06:42:09.000Z</time>
      </trkpt>
      <trkpt lat="47.8082" lon="2.14568">
        <ele>153</ele>
        <time>2013-09-29T06:42:11.000Z</time>
      </trkpt>
      <trkpt lat="47.80831" lon="2.14573">
        <ele>152</ele>
        <time>2013-09-29T06:42:13.000Z</time>
      </trkpt>
      <trkpt lat="47.80841" lon="2.14576">
        <ele>153</ele>
        <time>2013-09-29T06:42:15.000Z</time>
      </trkpt>
      <trkpt lat="47.8085" lon="2.1458">
        <ele>153</ele>
        <time>2013-09-29T06:42:17.000Z</time>
      </trkpt>
      <trkpt lat="47.80859" lon="2.14584">
        <ele>153</ele>
        <time>2013-09-29T06:42:19.000Z</time>
      </trkpt>
      <trkpt lat="47.80877" lon="2.14594">
        <ele>155</ele>
        <time>2013-09-29T06:42:23.000Z</time>
      </trkpt>
      <trkpt lat="47.80885" lon="2.14599">
        <ele>155</ele>
        <time>2013-09-29T06:42:25.000Z</time>
      </trkpt>
      <trkpt lat="47.80895" lon="2.14603">
        <ele>155</ele>
        <time>2013-09-29T06:42:27.000Z</time>
      </trkpt>
      <trkpt lat="47.80904" lon="2.14606">
        <ele>155</ele>
        <time>2013-09-29T06:42:29.000Z</time>
      </trkpt>
      <trkpt lat="47.80915" lon="2.1461">
        <ele>155</ele>
        <time>2013-09-29T06:42:31.000Z</time>
      </trkpt>
      <trkpt lat="47.80926" lon="2.14616">
        <ele>155</ele>
        <time>2013-09-29T06:42:33.000Z</time>
      </trkpt>
      <trkpt lat="47.80936" lon="2.1462">
        <ele>155</ele>
        <time>2013-09-29T06:42:35.000Z</time>
      </trkpt>
      <trkpt lat="47.80946" lon="2.14625">
        <ele>155</ele>
        <time>2013-09-29T06:42:37.000Z</time>
      </trkpt>
      <trkpt lat="47.80946" lon="2.14625">
        <ele>155</ele>
        <time>2013-09-29T06:42:39.000Z</time>
      </trkpt>
      <trkpt lat="47.80946" lon="2.14625">
        <ele>155</ele>
        <time>2013-09-29T06:42:41.000Z</time>
      </trkpt>
      <trkpt lat="47.80946" lon="2.14625">
        <ele>155</ele>
        <time>2013-09-29T06:42:43.000Z</time>
      </trkpt>
      <trkpt lat="47.80946" lon="2.14625">
        <ele>155</ele>
        <time>2013-09-29T06:42:45.000Z</time>
      </trkpt>
      <trkpt lat="47.80946" lon="2.14625">
        <ele>155</ele>
        <time>2013-09-29T06:42:47.000Z</time>
      </trkpt>
      <trkpt lat="47.81017" lon="2.14655">
        <ele>155</ele>
        <time>2013-09-29T06:42:51.000Z</time>
      </trkpt>
      <trkpt lat="47.81027" lon="2.14659">
        <ele>155</ele>
        <time>2013-09-29T06:42:53.000Z</time>
      </trkpt>
      <trkpt lat="47.81027" lon="2.14659">
        <ele>155</ele>
        <time>2013-09-29T06:42:55.000Z</time>
      </trkpt>
      <trkpt lat="47.81027" lon="2.14659">
        <ele>155</ele>
        <time>2013-09-29T06:42:57.000Z</time>
      </trkpt>
      <trkpt lat="47.81027" lon="2.14659">
        <ele>155</ele>
        <time>2013-09-29T06:42:59.000Z</time>
      </trkpt>
      <trkpt lat="47.81027" lon="2.14659">
        <ele>155</ele>
        <time>2013-09-29T06:43:00.000Z</time>
      </trkpt>
      <trkpt lat="47.81027" lon="2.14659">
        <ele>155</ele>
        <time>2013-09-29T06:43:03.000Z</time>
      </trkpt>
      <trkpt lat="47.81027" lon="2.14659">
        <ele>155</ele>
        <time>2013-09-29T06:43:05.000Z</time>
      </trkpt>
      <trkpt lat="47.81027" lon="2.14659">
        <ele>155</ele>
        <time>2013-09-29T06:43:07.000Z</time>
      </trkpt>
      <trkpt lat="47.81027" lon="2.14659">
        <ele>155</ele>
        <time>2013-09-29T06:43:09.000Z</time>
      </trkpt>
      <trkpt lat="47.81027" lon="2.14659">
        <ele>155</ele>
        <time>2013-09-29T06:43:11.000Z</time>
      </trkpt>
      <trkpt lat="47.81027" lon="2.14659">
        <ele>155</ele>
        <time>2013-09-29T06:43:13.000Z</time>
      </trkpt>
      <trkpt lat="47.81027" lon="2.14659">
        <ele>155</ele>
        <time>2013-09-29T06:43:15.000Z</time>
      </trkpt>
      <trkpt lat="47.81027" lon="2.14659">
        <ele>155</ele>
        <time>2013-09-29T06:43:17.000Z</time>
      </trkpt>
      <trkpt lat="47.81027" lon="2.14659">
        <ele>155</ele>
        <time>2013-09-29T06:43:19.000Z</time>
      </trkpt>
      <trkpt lat="47.81027" lon="2.14659">
        <ele>155</ele>
        <time>2013-09-29T06:43:21.000Z</time>
      </trkpt>
      <trkpt lat="47.81027" lon="2.14659">
        <ele>155</ele>
        <time>2013-09-29T06:43:23.000Z</time>
      </trkpt>
      <trkpt lat="47.81027" lon="2.14659">
        <ele>155</ele>
        <time>2013-09-29T06:43:25.000Z</time>
      </trkpt>
      <trkpt lat="47.81027" lon="2.14659">
        <ele>155</ele>
        <time>2013-09-29T06:43:27.000Z</time>
      </trkpt>
      <trkpt lat="47.81027" lon="2.14659">
        <ele>155</ele>
        <time>2013-09-29T06:43:29.000Z</time>
      </trkpt>
      <trkpt lat="47.8111" lon="2.1467">
        <ele>154</ele>
        <time>2013-09-29T06:43:33.000Z</time>
      </trkpt>
      <trkpt lat="47.81154" lon="2.14668">
        <ele>154</ele>
        <time>2013-09-29T06:43:35.000Z</time>
      </trkpt>
      <trkpt lat="47.81177" lon="2.1466">
        <ele>154</ele>
        <time>2013-09-29T06:43:37.000Z</time>
      </trkpt>
      <trkpt lat="47.81191" lon="2.14649">
        <ele>154</ele>
        <time>2013-09-29T06:43:39.000Z</time>
      </trkpt>
      <trkpt lat="47.81199" lon="2.14636">
        <ele>154</ele>
        <time>2013-09-29T06:43:41.000Z</time>
      </trkpt>
      <trkpt lat="47.81211" lon="2.1461">
        <ele>154</ele>
        <time>2013-09-29T06:43:43.000Z</time>
      </trkpt>
      <trkpt lat="47.81215" lon="2.14595">
        <ele>153</ele>
        <time>2013-09-29T06:43:45.000Z</time>
      </trkpt>
      <trkpt lat="47.81218" lon="2.14581">
        <ele>154</ele>
        <time>2013-09-29T06:43:47.000Z</time>
      </trkpt>
      <trkpt lat="47.81222" lon="2.14566">
        <ele>154</ele>
        <time>2013-09-29T06:43:49.000Z</time>
      </trkpt>
      <trkpt lat="47.81225" lon="2.14551">
        <ele>154</ele>
        <time>2013-09-29T06:43:51.000Z</time>
      </trkpt>
      <trkpt lat="47.81229" lon="2.14537">
        <ele>154</ele>
        <time>2013-09-29T06:43:53.000Z</time>
      </trkpt>
      <trkpt lat="47.81234" lon="2.14522">
        <ele>154</ele>
        <time>2013-09-29T06:43:55.000Z</time>
      </trkpt>
      <trkpt lat="47.81237" lon="2.14507">
        <ele>155</ele>
        <time>2013-09-29T06:43:57.000Z</time>
      </trkpt>
      <trkpt lat="47.8124" lon="2.14492">
        <ele>155</ele>
        <time>2013-09-29T06:43:59.000Z</time>
      </trkpt>
      <trkpt lat="47.81244" lon="2.14476">
        <ele>155</ele>
        <time>2013-09-29T06:44:00.000Z</time>
      </trkpt>
      <trkpt lat="47.81248" lon="2.14458">
        <ele>155</ele>
        <time>2013-09-29T06:44:03.000Z</time>
      </trkpt>
      <trkpt lat="47.81252" lon="2.1444">
        <ele>155</ele>
        <time>2013-09-29T06:44:05.000Z</time>
      </trkpt>
      <trkpt lat="47.81256" lon="2.14422">
        <ele>155</ele>
        <time>2013-09-29T06:44:07.000Z</time>
      </trkpt>
      <trkpt lat="47.81261" lon="2.14404">
        <ele>155</ele>
        <time>2013-09-29T06:44:09.000Z</time>
      </trkpt>
      <trkpt lat="47.81266" lon="2.14387">
        <ele>156</ele>
        <time>2013-09-29T06:44:11.000Z</time>
      </trkpt>
      <trkpt lat="47.8127" lon="2.14368">
        <ele>156</ele>
        <time>2013-09-29T06:44:13.000Z</time>
      </trkpt>
      <trkpt lat="47.81275" lon="2.14349">
        <ele>155</ele>
        <time>2013-09-29T06:44:15.000Z</time>
      </trkpt>
      <trkpt lat="47.8128" lon="2.1433">
        <ele>155</ele>
        <time>2013-09-29T06:44:17.000Z</time>
      </trkpt>
      <trkpt lat="47.81285" lon="2.14311">
        <ele>155</ele>
        <time>2013-09-29T06:44:19.000Z</time>
      </trkpt>
      <trkpt lat="47.8129" lon="2.14292">
        <ele>155</ele>
        <time>2013-09-29T06:44:21.000Z</time>
      </trkpt>
      <trkpt lat="47.81295" lon="2.14273">
        <ele>155</ele>
        <time>2013-09-29T06:44:23.000Z</time>
      </trkpt>
      <trkpt lat="47.81299" lon="2.14256">
        <ele>155</ele>
        <time>2013-09-29T06:44:25.000Z</time>
      </trkpt>
      <trkpt lat="47.81304" lon="2.14239">
        <ele>155</ele>
        <time>2013-09-29T06:44:27.000Z</time>
      </trkpt>
      <trkpt lat="47.81308" lon="2.14221">
        <ele>155</ele>
        <time>2013-09-29T06:44:29.000Z</time>
      </trkpt>
      <trkpt lat="47.81313" lon="2.14205">
        <ele>154</ele>
        <time>2013-09-29T06:44:31.000Z</time>
      </trkpt>
      <trkpt lat="47.81317" lon="2.14187">
        <ele>155</ele>
        <time>2013-09-29T06:44:33.000Z</time>
      </trkpt>
      <trkpt lat="47.81321" lon="2.1417">
        <ele>154</ele>
        <time>2013-09-29T06:44:35.000Z</time>
      </trkpt>
      <trkpt lat="47.81325" lon="2.14152">
        <ele>154</ele>
        <time>2013-09-29T06:44:37.000Z</time>
      </trkpt>
      <trkpt lat="47.8133" lon="2.14135">
        <ele>154</ele>
        <time>2013-09-29T06:44:39.000Z</time>
      </trkpt>
      <trkpt lat="47.81334" lon="2.14117">
        <ele>154</ele>
        <time>2013-09-29T06:44:41.000Z</time>
      </trkpt>
      <trkpt lat="47.81339" lon="2.141">
        <ele>154</ele>
        <time>2013-09-29T06:44:43.000Z</time>
      </trkpt>
      <trkpt lat="47.81343" lon="2.14082">
        <ele>154</ele>
        <time>2013-09-29T06:44:45.000Z</time>
      </trkpt>
      <trkpt lat="47.81347" lon="2.14065">
        <ele>154</ele>
        <time>2013-09-29T06:44:47.000Z</time>
      </trkpt>
      <trkpt lat="47.81351" lon="2.14049">
        <ele>154</ele>
        <time>2013-09-29T06:44:49.000Z</time>
      </trkpt>
      <trkpt lat="47.81354" lon="2.14035">
        <ele>154</ele>
        <time>2013-09-29T06:44:51.000Z</time>
      </trkpt>
      <trkpt lat="47.81358" lon="2.1402">
        <ele>154</ele>
        <time>2013-09-29T06:44:53.000Z</time>
      </trkpt>
      <trkpt lat="47.81361" lon="2.14005">
        <ele>154</ele>
        <time>2013-09-29T06:44:55.000Z</time>
      </trkpt>
      <trkpt lat="47.81361" lon="2.14005">
        <ele>154</ele>
        <time>2013-09-29T06:44:57.000Z</time>
      </trkpt>
      <trkpt lat="47.81361" lon="2.14005">
        <ele>154</ele>
        <time>2013-09-29T06:44:59.000Z</time>
      </trkpt>
      <trkpt lat="47.81361" lon="2.14005">
        <ele>154</ele>
        <time>2013-09-29T06:45:00.000Z</time>
      </trkpt>
      <trkpt lat="47.81361" lon="2.14005">
        <ele>154</ele>
        <time>2013-09-29T06:45:03.000Z</time>
      </trkpt>
      <trkpt lat="47.81361" lon="2.14005">
        <ele>154</ele>
        <time>2013-09-29T06:45:05.000Z</time>
      </trkpt>
      <trkpt lat="47.81361" lon="2.14005">
        <ele>154</ele>
        <time>2013-09-29T06:45:07.000Z</time>
      </trkpt>
      <trkpt lat="47.81361" lon="2.14005">
        <ele>154</ele>
        <time>2013-09-29T06:45:09.000Z</time>
      </trkpt>
      <trkpt lat="47.81391" lon="2.13889">
        <ele>154</ele>
        <time>2013-09-29T06:45:11.000Z</time>
      </trkpt>
      <trkpt lat="47.81395" lon="2.13874">
        <ele>154</ele>
        <time>2013-09-29T06:45:13.000Z</time>
      </trkpt>
      <trkpt lat="47.81399" lon="2.13859">
        <ele>154</ele>
        <time>2013-09-29T06:45:15.000Z</time>
      </trkpt>
      <trkpt lat="47.81402" lon="2.13845">
        <ele>154</ele>
        <time>2013-09-29T06:45:17.000Z</time>
      </trkpt>
      <trkpt lat="47.81402" lon="2.13845">
        <ele>154</ele>
        <time>2013-09-29T06:45:19.000Z</time>
      </trkpt>
      <trkpt lat="47.81402" lon="2.13845">
        <ele>154</ele>
        <time>2013-09-29T06:45:21.000Z</time>
      </trkpt>
      <trkpt lat="47.81402" lon="2.13845">
        <ele>154</ele>
        <time>2013-09-29T06:45:23.000Z</time>
      </trkpt>
      <trkpt lat="47.81402" lon="2.13845">
        <ele>154</ele>
        <time>2013-09-29T06:45:25.000Z</time>
      </trkpt>
      <trkpt lat="47.81402" lon="2.13845">
        <ele>154</ele>
        <time>2013-09-29T06:45:27.000Z</time>
      </trkpt>
      <trkpt lat="47.81402" lon="2.13845">
        <ele>154</ele>
        <time>2013-09-29T06:45:29.000Z</time>
      </trkpt>
      <trkpt lat="47.81402" lon="2.13845">
        <ele>154</ele>
        <time>2013-09-29T06:45:31.000Z</time>
      </trkpt>
      <trkpt lat="47.81402" lon="2.13845">
        <ele>154</ele>
        <time>2013-09-29T06:45:33.000Z</time>
      </trkpt>
      <trkpt lat="47.81462" lon="2.13817">
        <ele>150</ele>
        <time>2013-09-29T06:45:38.000Z</time>
      </trkpt>
      <trkpt lat="47.81462" lon="2.13817">
        <ele>150</ele>
        <time>2013-09-29T06:45:40.000Z</time>
      </trkpt>
      <trkpt lat="47.81462" lon="2.13817">
        <ele>150</ele>
        <time>2013-09-29T06:45:42.000Z</time>
      </trkpt>
      <trkpt lat="47.81462" lon="2.13817">
        <ele>150</ele>
        <time>2013-09-29T06:45:44.000Z</time>
      </trkpt>
      <trkpt lat="47.81462" lon="2.13817">
        <ele>150</ele>
        <time>2013-09-29T06:45:46.000Z</time>
      </trkpt>
      <trkpt lat="47.81462" lon="2.13817">
        <ele>150</ele>
        <time>2013-09-29T06:45:48.000Z</time>
      </trkpt>
      <trkpt lat="47.81503" lon="2.13844">
        <ele>150</ele>
        <time>2013-09-29T06:45:52.000Z</time>
      </trkpt>
      <trkpt lat="47.81516" lon="2.13854">
        <ele>150</ele>
        <time>2013-09-29T06:45:56.000Z</time>
      </trkpt>
      <trkpt lat="47.8153" lon="2.13864">
        <ele>152</ele>
        <time>2013-09-29T06:46:00.000Z</time>
      </trkpt>
      <trkpt lat="47.81546" lon="2.13873">
        <ele>152</ele>
        <time>2013-09-29T06:46:04.000Z</time>
      </trkpt>
      <trkpt lat="47.81561" lon="2.13884">
        <ele>151</ele>
        <time>2013-09-29T06:46:08.000Z</time>
      </trkpt>
      <trkpt lat="47.8157" lon="2.13889">
        <ele>151</ele>
        <time>2013-09-29T06:46:10.000Z</time>
      </trkpt>
      <trkpt lat="47.81588" lon="2.13899">
        <ele>151</ele>
        <time>2013-09-29T06:46:14.000Z</time>
      </trkpt>
      <trkpt lat="47.81602" lon="2.13909">
        <ele>152</ele>
        <time>2013-09-29T06:46:18.000Z</time>
      </trkpt>
      <trkpt lat="47.81602" lon="2.13909">
        <ele>152</ele>
        <time>2013-09-29T06:46:20.000Z</time>
      </trkpt>
      <trkpt lat="47.81617" lon="2.13919">
        <ele>153</ele>
        <time>2013-09-29T06:46:22.000Z</time>
      </trkpt>
      <trkpt lat="47.81617" lon="2.13919">
        <ele>153</ele>
        <time>2013-09-29T06:46:24.000Z</time>
      </trkpt>
      <trkpt lat="47.81625" lon="2.13923">
        <ele>152</ele>
        <time>2013-09-29T06:46:26.000Z</time>
      </trkpt>
      <trkpt lat="47.81633" lon="2.13928">
        <ele>151</ele>
        <time>2013-09-29T06:46:28.000Z</time>
      </trkpt>
      <trkpt lat="47.8164" lon="2.13933">
        <ele>152</ele>
        <time>2013-09-29T06:46:30.000Z</time>
      </trkpt>
      <trkpt lat="47.8164" lon="2.13933">
        <ele>152</ele>
        <time>2013-09-29T06:46:32.000Z</time>
      </trkpt>
      <trkpt lat="47.8164" lon="2.13933">
        <ele>152</ele>
        <time>2013-09-29T06:46:34.000Z</time>
      </trkpt>
      <trkpt lat="47.8164" lon="2.13933">
        <ele>152</ele>
        <time>2013-09-29T06:46:36.000Z</time>
      </trkpt>
      <trkpt lat="47.81666" lon="2.13949">
        <ele>153</ele>
        <time>2013-09-29T06:46:42.000Z</time>
      </trkpt>
      <trkpt lat="47.81683" lon="2.1396">
        <ele>153</ele>
        <time>2013-09-29T06:46:44.000Z</time>
      </trkpt>
      <trkpt lat="47.81695" lon="2.1397">
        <ele>154</ele>
        <time>2013-09-29T06:46:46.000Z</time>
      </trkpt>
      <trkpt lat="47.81705" lon="2.13978">
        <ele>154</ele>
        <time>2013-09-29T06:46:48.000Z</time>
      </trkpt>
      <trkpt lat="47.81715" lon="2.13985">
        <ele>154</ele>
        <time>2013-09-29T06:46:50.000Z</time>
      </trkpt>
      <trkpt lat="47.81734" lon="2.13994">
        <ele>154</ele>
        <time>2013-09-29T06:46:52.000Z</time>
      </trkpt>
      <trkpt lat="47.81749" lon="2.14005">
        <ele>154</ele>
        <time>2013-09-29T06:46:56.000Z</time>
      </trkpt>
      <trkpt lat="47.81757" lon="2.1401">
        <ele>154</ele>
        <time>2013-09-29T06:46:58.000Z</time>
      </trkpt>
      <trkpt lat="47.81757" lon="2.1401">
        <ele>154</ele>
        <time>2013-09-29T06:47:00.000Z</time>
      </trkpt>
      <trkpt lat="47.81757" lon="2.1401">
        <ele>154</ele>
        <time>2013-09-29T06:47:02.000Z</time>
      </trkpt>
      <trkpt lat="47.81757" lon="2.1401">
        <ele>154</ele>
        <time>2013-09-29T06:47:04.000Z</time>
      </trkpt>
      <trkpt lat="47.81757" lon="2.1401">
        <ele>154</ele>
        <time>2013-09-29T06:47:06.000Z</time>
      </trkpt>
      <trkpt lat="47.81804" lon="2.14041">
        <ele>155</ele>
        <time>2013-09-29T06:47:10.000Z</time>
      </trkpt>
      <trkpt lat="47.8182" lon="2.1405">
        <ele>155</ele>
        <time>2013-09-29T06:47:14.000Z</time>
      </trkpt>
      <trkpt lat="47.8182" lon="2.1405">
        <ele>155</ele>
        <time>2013-09-29T06:47:16.000Z</time>
      </trkpt>
      <trkpt lat="47.8182" lon="2.1405">
        <ele>155</ele>
        <time>2013-09-29T06:47:18.000Z</time>
      </trkpt>
      <trkpt lat="47.81846" lon="2.14067">
        <ele>154</ele>
        <time>2013-09-29T06:47:20.000Z</time>
      </trkpt>
      <trkpt lat="47.81846" lon="2.14067">
        <ele>154</ele>
        <time>2013-09-29T06:47:24.000Z</time>
      </trkpt>
      <trkpt lat="47.81846" lon="2.14067">
        <ele>154</ele>
        <time>2013-09-29T06:47:26.000Z</time>
      </trkpt>
      <trkpt lat="47.81888" lon="2.14092">
        <ele>155</ele>
        <time>2013-09-29T06:47:30.000Z</time>
      </trkpt>
      <trkpt lat="47.81888" lon="2.14092">
        <ele>155</ele>
        <time>2013-09-29T06:47:32.000Z</time>
      </trkpt>
      <trkpt lat="47.81888" lon="2.14092">
        <ele>155</ele>
        <time>2013-09-29T06:47:34.000Z</time>
      </trkpt>
      <trkpt lat="47.81888" lon="2.14092">
        <ele>155</ele>
        <time>2013-09-29T06:47:36.000Z</time>
      </trkpt>
      <trkpt lat="47.81888" lon="2.14092">
        <ele>155</ele>
        <time>2013-09-29T06:47:38.000Z</time>
      </trkpt>
      <trkpt lat="47.81933" lon="2.14121">
        <ele>153</ele>
        <time>2013-09-29T06:47:42.000Z</time>
      </trkpt>
      <trkpt lat="47.81933" lon="2.14121">
        <ele>153</ele>
        <time>2013-09-29T06:47:46.000Z</time>
      </trkpt>
      <trkpt lat="47.81933" lon="2.14121">
        <ele>153</ele>
        <time>2013-09-29T06:47:48.000Z</time>
      </trkpt>
      <trkpt lat="47.81933" lon="2.14121">
        <ele>153</ele>
        <time>2013-09-29T06:47:50.000Z</time>
      </trkpt>
      <trkpt lat="47.8199" lon="2.14168">
        <ele>153</ele>
        <time>2013-09-29T06:47:56.000Z</time>
      </trkpt>
      <trkpt lat="47.82006" lon="2.14186">
        <ele>153</ele>
        <time>2013-09-29T06:48:00.000Z</time>
      </trkpt>
      <trkpt lat="47.82026" lon="2.14203">
        <ele>153</ele>
        <time>2013-09-29T06:48:04.000Z</time>
      </trkpt>
      <trkpt lat="47.82026" lon="2.14203">
        <ele>153</ele>
        <time>2013-09-29T06:48:08.000Z</time>
      </trkpt>
      <trkpt lat="47.82026" lon="2.14203">
        <ele>153</ele>
        <time>2013-09-29T06:48:10.000Z</time>
      </trkpt>
      <trkpt lat="47.82026" lon="2.14203">
        <ele>153</ele>
        <time>2013-09-29T06:48:12.000Z</time>
      </trkpt>
      <trkpt lat="47.82054" lon="2.14228">
        <ele>154</ele>
        <time>2013-09-29T06:48:18.000Z</time>
      </trkpt>
      <trkpt lat="47.82071" lon="2.14244">
        <ele>154</ele>
        <time>2013-09-29T06:48:20.000Z</time>
      </trkpt>
      <trkpt lat="47.82084" lon="2.14256">
        <ele>154</ele>
        <time>2013-09-29T06:48:22.000Z</time>
      </trkpt>
      <trkpt lat="47.82095" lon="2.14265">
        <ele>153</ele>
        <time>2013-09-29T06:48:24.000Z</time>
      </trkpt>
      <trkpt lat="47.82104" lon="2.14273">
        <ele>152</ele>
        <time>2013-09-29T06:48:26.000Z</time>
      </trkpt>
      <trkpt lat="47.82104" lon="2.14273">
        <ele>152</ele>
        <time>2013-09-29T06:48:28.000Z</time>
      </trkpt>
      <trkpt lat="47.82134" lon="2.14296">
        <ele>153</ele>
        <time>2013-09-29T06:48:31.000Z</time>
      </trkpt>
      <trkpt lat="47.82151" lon="2.14311">
        <ele>152</ele>
        <time>2013-09-29T06:48:35.000Z</time>
      </trkpt>
      <trkpt lat="47.82163" lon="2.14325">
        <ele>152</ele>
        <time>2013-09-29T06:48:37.000Z</time>
      </trkpt>
      <trkpt lat="47.82173" lon="2.14338">
        <ele>152</ele>
        <time>2013-09-29T06:48:40.000Z</time>
      </trkpt>
      <trkpt lat="47.82173" lon="2.14338">
        <ele>152</ele>
        <time>2013-09-29T06:48:42.000Z</time>
      </trkpt>
      <trkpt lat="47.82173" lon="2.14338">
        <ele>152</ele>
        <time>2013-09-29T06:48:44.000Z</time>
      </trkpt>
      <trkpt lat="47.82173" lon="2.14338">
        <ele>152</ele>
        <time>2013-09-29T06:48:46.000Z</time>
      </trkpt>
      <trkpt lat="47.82173" lon="2.14338">
        <ele>152</ele>
        <time>2013-09-29T06:48:48.000Z</time>
      </trkpt>
      <trkpt lat="47.82235" lon="2.14434">
        <ele>153</ele>
        <time>2013-09-29T06:49:02.000Z</time>
      </trkpt>
      <trkpt lat="47.82251" lon="2.14446">
        <ele>152</ele>
        <time>2013-09-29T06:49:06.000Z</time>
      </trkpt>
      <trkpt lat="47.82259" lon="2.14454">
        <ele>151</ele>
        <time>2013-09-29T06:49:08.000Z</time>
      </trkpt>
      <trkpt lat="47.82271" lon="2.14469">
        <ele>151</ele>
        <time>2013-09-29T06:49:12.000Z</time>
      </trkpt>
      <trkpt lat="47.82271" lon="2.14469">
        <ele>151</ele>
        <time>2013-09-29T06:49:14.000Z</time>
      </trkpt>
      <trkpt lat="47.82284" lon="2.14482">
        <ele>150</ele>
        <time>2013-09-29T06:49:16.000Z</time>
      </trkpt>
      <trkpt lat="47.82284" lon="2.14482">
        <ele>150</ele>
        <time>2013-09-29T06:49:18.000Z</time>
      </trkpt>
      <trkpt lat="47.82284" lon="2.14482">
        <ele>150</ele>
        <time>2013-09-29T06:49:20.000Z</time>
      </trkpt>
      <trkpt lat="47.8231" lon="2.14529">
        <ele>151</ele>
        <time>2013-09-29T06:49:26.000Z</time>
      </trkpt>
      <trkpt lat="47.82322" lon="2.14548">
        <ele>151</ele>
        <time>2013-09-29T06:49:30.000Z</time>
      </trkpt>
      <trkpt lat="47.82333" lon="2.14571">
        <ele>152</ele>
        <time>2013-09-29T06:49:34.000Z</time>
      </trkpt>
      <trkpt lat="47.82333" lon="2.14571">
        <ele>152</ele>
        <time>2013-09-29T06:49:36.000Z</time>
      </trkpt>
      <trkpt lat="47.82333" lon="2.14571">
        <ele>152</ele>
        <time>2013-09-29T06:49:38.000Z</time>
      </trkpt>
      <trkpt lat="47.82333" lon="2.14571">
        <ele>152</ele>
        <time>2013-09-29T06:49:40.000Z</time>
      </trkpt>
      <trkpt lat="47.82381" lon="2.14625">
        <ele>151</ele>
        <time>2013-09-29T06:49:46.000Z</time>
      </trkpt>
      <trkpt lat="47.82397" lon="2.1464">
        <ele>151</ele>
        <time>2013-09-29T06:49:50.000Z</time>
      </trkpt>
      <trkpt lat="47.82397" lon="2.1464">
        <ele>151</ele>
        <time>2013-09-29T06:49:52.000Z</time>
      </trkpt>
      <trkpt lat="47.82411" lon="2.14656">
        <ele>152</ele>
        <time>2013-09-29T06:49:54.000Z</time>
      </trkpt>
      <trkpt lat="47.82411" lon="2.14656">
        <ele>152</ele>
        <time>2013-09-29T06:49:58.000Z</time>
      </trkpt>
      <trkpt lat="47.82411" lon="2.14656">
        <ele>152</ele>
        <time>2013-09-29T06:50:00.000Z</time>
      </trkpt>
      <trkpt lat="47.82411" lon="2.14656">
        <ele>152</ele>
        <time>2013-09-29T06:50:02.000Z</time>
      </trkpt>
      <trkpt lat="47.82411" lon="2.14656">
        <ele>152</ele>
        <time>2013-09-29T06:50:04.000Z</time>
      </trkpt>
      <trkpt lat="47.82411" lon="2.14656">
        <ele>152</ele>
        <time>2013-09-29T06:50:06.000Z</time>
      </trkpt>
      <trkpt lat="47.82411" lon="2.14656">
        <ele>152</ele>
        <time>2013-09-29T06:50:08.000Z</time>
      </trkpt>
      <trkpt lat="47.82411" lon="2.14656">
        <ele>152</ele>
        <time>2013-09-29T06:50:11.000Z</time>
      </trkpt>
      <trkpt lat="47.82411" lon="2.14656">
        <ele>152</ele>
        <time>2013-09-29T06:50:13.000Z</time>
      </trkpt>
      <trkpt lat="47.82457" lon="2.14701">
        <ele>153</ele>
        <time>2013-09-29T06:50:21.000Z</time>
      </trkpt>
      <trkpt lat="47.82457" lon="2.14701">
        <ele>153</ele>
        <time>2013-09-29T06:50:23.000Z</time>
      </trkpt>
      <trkpt lat="47.82489" lon="2.1473">
        <ele>152</ele>
        <time>2013-09-29T06:50:25.000Z</time>
      </trkpt>
      <trkpt lat="47.82507" lon="2.14748">
        <ele>153</ele>
        <time>2013-09-29T06:50:27.000Z</time>
      </trkpt>
      <trkpt lat="47.82519" lon="2.14763">
        <ele>152</ele>
        <time>2013-09-29T06:50:29.000Z</time>
      </trkpt>
      <trkpt lat="47.82528" lon="2.14774">
        <ele>153</ele>
        <time>2013-09-29T06:50:31.000Z</time>
      </trkpt>
      <trkpt lat="47.82537" lon="2.14785">
        <ele>155</ele>
        <time>2013-09-29T06:50:33.000Z</time>
      </trkpt>
      <trkpt lat="47.82551" lon="2.14805">
        <ele>154</ele>
        <time>2013-09-29T06:50:35.000Z</time>
      </trkpt>
      <trkpt lat="47.82557" lon="2.14815">
        <ele>154</ele>
        <time>2013-09-29T06:50:37.000Z</time>
      </trkpt>
      <trkpt lat="47.82563" lon="2.14826">
        <ele>153</ele>
        <time>2013-09-29T06:50:39.000Z</time>
      </trkpt>
      <trkpt lat="47.82563" lon="2.14826">
        <ele>153</ele>
        <time>2013-09-29T06:50:41.000Z</time>
      </trkpt>
      <trkpt lat="47.8257" lon="2.14852">
        <ele>153</ele>
        <time>2013-09-29T06:50:43.000Z</time>
      </trkpt>
      <trkpt lat="47.82569" lon="2.14866">
        <ele>153</ele>
        <time>2013-09-29T06:50:45.000Z</time>
      </trkpt>
      <trkpt lat="47.82567" lon="2.14879">
        <ele>154</ele>
        <time>2013-09-29T06:50:47.000Z</time>
      </trkpt>
      <trkpt lat="47.82565" lon="2.14894">
        <ele>154</ele>
        <time>2013-09-29T06:50:49.000Z</time>
      </trkpt>
      <trkpt lat="47.82562" lon="2.14907">
        <ele>153</ele>
        <time>2013-09-29T06:50:51.000Z</time>
      </trkpt>
      <trkpt lat="47.8256" lon="2.14921">
        <ele>153</ele>
        <time>2013-09-29T06:50:53.000Z</time>
      </trkpt>
      <trkpt lat="47.82558" lon="2.14934">
        <ele>152</ele>
        <time>2013-09-29T06:50:55.000Z</time>
      </trkpt>
      <trkpt lat="47.82558" lon="2.14934">
        <ele>152</ele>
        <time>2013-09-29T06:50:57.000Z</time>
      </trkpt>
      <trkpt lat="47.82558" lon="2.14934">
        <ele>152</ele>
        <time>2013-09-29T06:50:59.000Z</time>
      </trkpt>
      <trkpt lat="47.82558" lon="2.14934">
        <ele>152</ele>
        <time>2013-09-29T06:51:01.000Z</time>
      </trkpt>
      <trkpt lat="47.82558" lon="2.14934">
        <ele>152</ele>
        <time>2013-09-29T06:51:03.000Z</time>
      </trkpt>
      <trkpt lat="47.82558" lon="2.14934">
        <ele>152</ele>
        <time>2013-09-29T06:51:05.000Z</time>
      </trkpt>
      <trkpt lat="47.82558" lon="2.14934">
        <ele>152</ele>
        <time>2013-09-29T06:51:07.000Z</time>
      </trkpt>
      <trkpt lat="47.82558" lon="2.14934">
        <ele>152</ele>
        <time>2013-09-29T06:51:09.000Z</time>
      </trkpt>
      <trkpt lat="47.82558" lon="2.14934">
        <ele>152</ele>
        <time>2013-09-29T06:51:11.000Z</time>
      </trkpt>
      <trkpt lat="47.82558" lon="2.14934">
        <ele>152</ele>
        <time>2013-09-29T06:51:13.000Z</time>
      </trkpt>
      <trkpt lat="47.8258" lon="2.14966">
        <ele>150</ele>
        <time>2013-09-29T06:51:19.000Z</time>
      </trkpt>
      <trkpt lat="47.82591" lon="2.14969">
        <ele>150</ele>
        <time>2013-09-29T06:51:23.000Z</time>
      </trkpt>
      <trkpt lat="47.826" lon="2.14977">
        <ele>152</ele>
        <time>2013-09-29T06:51:27.000Z</time>
      </trkpt>
      <trkpt lat="47.82609" lon="2.14987">
        <ele>151</ele>
        <time>2013-09-29T06:51:31.000Z</time>
      </trkpt>
      <trkpt lat="47.82609" lon="2.14987">
        <ele>151</ele>
        <time>2013-09-29T06:51:33.000Z</time>
      </trkpt>
      <trkpt lat="47.82609" lon="2.14987">
        <ele>151</ele>
        <time>2013-09-29T06:51:35.000Z</time>
      </trkpt>
      <trkpt lat="47.82609" lon="2.14987">
        <ele>151</ele>
        <time>2013-09-29T06:51:37.000Z</time>
      </trkpt>
      <trkpt lat="47.82621" lon="2.15012">
        <ele>149</ele>
        <time>2013-09-29T06:51:41.000Z</time>
      </trkpt>
      <trkpt lat="47.82631" lon="2.15022">
        <ele>149</ele>
        <time>2013-09-29T06:51:45.000Z</time>
      </trkpt>
      <trkpt lat="47.82642" lon="2.15029">
        <ele>149</ele>
        <time>2013-09-29T06:51:49.000Z</time>
      </trkpt>
      <trkpt lat="47.82651" lon="2.15032">
        <ele>152</ele>
        <time>2013-09-29T06:51:53.000Z</time>
      </trkpt>
      <trkpt lat="47.82651" lon="2.15032">
        <ele>152</ele>
        <time>2013-09-29T06:51:55.000Z</time>
      </trkpt>
      <trkpt lat="47.82651" lon="2.15032">
        <ele>152</ele>
        <time>2013-09-29T06:51:57.000Z</time>
      </trkpt>
      <trkpt lat="47.82651" lon="2.15032">
        <ele>152</ele>
        <time>2013-09-29T06:51:59.000Z</time>
      </trkpt>
      <trkpt lat="47.82679" lon="2.15041">
        <ele>155</ele>
        <time>2013-09-29T06:52:03.000Z</time>
      </trkpt>
      <trkpt lat="47.82692" lon="2.15048">
        <ele>154</ele>
        <time>2013-09-29T06:52:06.000Z</time>
      </trkpt>
      <trkpt lat="47.82705" lon="2.15053">
        <ele>154</ele>
        <time>2013-09-29T06:52:10.000Z</time>
      </trkpt>
      <trkpt lat="47.82718" lon="2.15057">
        <ele>154</ele>
        <time>2013-09-29T06:52:14.000Z</time>
      </trkpt>
      <trkpt lat="47.82732" lon="2.15064">
        <ele>155</ele>
        <time>2013-09-29T06:52:18.000Z</time>
      </trkpt>
      <trkpt lat="47.82738" lon="2.15066">
        <ele>155</ele>
        <time>2013-09-29T06:52:22.000Z</time>
      </trkpt>
      <trkpt lat="47.82746" lon="2.15069">
        <ele>156</ele>
        <time>2013-09-29T06:52:24.000Z</time>
      </trkpt>
      <trkpt lat="47.82753" lon="2.1507">
        <ele>155</ele>
        <time>2013-09-29T06:52:26.000Z</time>
      </trkpt>
      <trkpt lat="47.82753" lon="2.1507">
        <ele>155</ele>
        <time>2013-09-29T06:52:28.000Z</time>
      </trkpt>
      <trkpt lat="47.82753" lon="2.1507">
        <ele>155</ele>
        <time>2013-09-29T06:52:30.000Z</time>
      </trkpt>
      <trkpt lat="47.8277" lon="2.15077">
        <ele>157</ele>
        <time>2013-09-29T06:52:34.000Z</time>
      </trkpt>
      <trkpt lat="47.82781" lon="2.15083">
        <ele>157</ele>
        <time>2013-09-29T06:52:36.000Z</time>
      </trkpt>
      <trkpt lat="47.82781" lon="2.15083">
        <ele>157</ele>
        <time>2013-09-29T06:52:38.000Z</time>
      </trkpt>
      <trkpt lat="47.82781" lon="2.15083">
        <ele>157</ele>
        <time>2013-09-29T06:52:40.000Z</time>
      </trkpt>
      <trkpt lat="47.82781" lon="2.15083">
        <ele>157</ele>
        <time>2013-09-29T06:52:42.000Z</time>
      </trkpt>
      <trkpt lat="47.82781" lon="2.15083">
        <ele>157</ele>
        <time>2013-09-29T06:52:44.000Z</time>
      </trkpt>
      <trkpt lat="47.82781" lon="2.15083">
        <ele>157</ele>
        <time>2013-09-29T06:52:46.000Z</time>
      </trkpt>
      <trkpt lat="47.82781" lon="2.15083">
        <ele>157</ele>
        <time>2013-09-29T06:52:48.000Z</time>
      </trkpt>
      <trkpt lat="47.82781" lon="2.15083">
        <ele>157</ele>
        <time>2013-09-29T06:52:50.000Z</time>
      </trkpt>
      <trkpt lat="47.82781" lon="2.15083">
        <ele>157</ele>
        <time>2013-09-29T06:52:52.000Z</time>
      </trkpt>
      <trkpt lat="47.82781" lon="2.15083">
        <ele>157</ele>
        <time>2013-09-29T06:52:54.000Z</time>
      </trkpt>
      <trkpt lat="47.82781" lon="2.15083">
        <ele>157</ele>
        <time>2013-09-29T06:52:56.000Z</time>
      </trkpt>
      <trkpt lat="47.82781" lon="2.15083">
        <ele>157</ele>
        <time>2013-09-29T06:52:58.000Z</time>
      </trkpt>
      <trkpt lat="47.828" lon="2.15116">
        <ele>152</ele>
        <time>2013-09-29T06:53:04.000Z</time>
      </trkpt>
      <trkpt lat="47.82808" lon="2.15137">
        <ele>152</ele>
        <time>2013-09-29T06:53:06.000Z</time>
      </trkpt>
      <trkpt lat="47.82813" lon="2.15151">
        <ele>153</ele>
        <time>2013-09-29T06:53:08.000Z</time>
      </trkpt>
      <trkpt lat="47.82815" lon="2.15164">
        <ele>152</ele>
        <time>2013-09-29T06:53:10.000Z</time>
      </trkpt>
      <trkpt lat="47.82816" lon="2.15174">
        <ele>152</ele>
        <time>2013-09-29T06:53:12.000Z</time>
      </trkpt>
      <trkpt lat="47.82818" lon="2.15187">
        <ele>153</ele>
        <time>2013-09-29T06:53:14.000Z</time>
      </trkpt>
      <trkpt lat="47.82818" lon="2.15187">
        <ele>153</ele>
        <time>2013-09-29T06:53:16.000Z</time>
      </trkpt>
      <trkpt lat="47.82818" lon="2.15187">
        <ele>153</ele>
        <time>2013-09-29T06:53:18.000Z</time>
      </trkpt>
      <trkpt lat="47.82818" lon="2.15187">
        <ele>153</ele>
        <time>2013-09-29T06:53:20.000Z</time>
      </trkpt>
      <trkpt lat="47.82845" lon="2.15202">
        <ele>153</ele>
        <time>2013-09-29T06:53:24.000Z</time>
      </trkpt>
      <trkpt lat="47.82858" lon="2.15209">
        <ele>153</ele>
        <time>2013-09-29T06:53:28.000Z</time>
      </trkpt>
      <trkpt lat="47.8287" lon="2.15219">
        <ele>153</ele>
        <time>2013-09-29T06:53:32.000Z</time>
      </trkpt>
      <trkpt lat="47.82887" lon="2.15228">
        <ele>153</ele>
        <time>2013-09-29T06:53:36.000Z</time>
      </trkpt>
      <trkpt lat="47.82896" lon="2.15233">
        <ele>153</ele>
        <time>2013-09-29T06:53:38.000Z</time>
      </trkpt>
      <trkpt lat="47.82909" lon="2.1524">
        <ele>152</ele>
        <time>2013-09-29T06:53:42.000Z</time>
      </trkpt>
      <trkpt lat="47.82909" lon="2.1524">
        <ele>152</ele>
        <time>2013-09-29T06:53:44.000Z</time>
      </trkpt>
      <trkpt lat="47.82909" lon="2.1524">
        <ele>152</ele>
        <time>2013-09-29T06:53:46.000Z</time>
      </trkpt>
      <trkpt lat="47.82946" lon="2.15264">
        <ele>153</ele>
        <time>2013-09-29T06:53:52.000Z</time>
      </trkpt>
      <trkpt lat="47.82946" lon="2.15264">
        <ele>153</ele>
        <time>2013-09-29T06:53:54.000Z</time>
      </trkpt>
      <trkpt lat="47.82959" lon="2.15273">
        <ele>153</ele>
        <time>2013-09-29T06:53:56.000Z</time>
      </trkpt>
      <trkpt lat="47.82959" lon="2.15273">
        <ele>153</ele>
        <time>2013-09-29T06:53:58.000Z</time>
      </trkpt>
      <trkpt lat="47.82959" lon="2.15273">
        <ele>153</ele>
        <time>2013-09-29T06:54:00.000Z</time>
      </trkpt>
      <trkpt lat="47.82958" lon="2.15317">
        <ele>149</ele>
        <time>2013-09-29T06:54:04.000Z</time>
      </trkpt>
      <trkpt lat="47.82952" lon="2.1534">
        <ele>148</ele>
        <time>2013-09-29T06:54:08.000Z</time>
      </trkpt>
      <trkpt lat="47.82943" lon="2.15363">
        <ele>148</ele>
        <time>2013-09-29T06:54:12.000Z</time>
      </trkpt>
      <trkpt lat="47.82942" lon="2.1539">
        <ele>148</ele>
        <time>2013-09-29T06:54:16.000Z</time>
      </trkpt>
      <trkpt lat="47.82938" lon="2.15402">
        <ele>148</ele>
        <time>2013-09-29T06:54:18.000Z</time>
      </trkpt>
      <trkpt lat="47.82934" lon="2.15426">
        <ele>148</ele>
        <time>2013-09-29T06:54:22.000Z</time>
      </trkpt>
      <trkpt lat="47.82932" lon="2.15439">
        <ele>148</ele>
        <time>2013-09-29T06:54:24.000Z</time>
      </trkpt>
      <trkpt lat="47.82924" lon="2.15464">
        <ele>147</ele>
        <time>2013-09-29T06:54:28.000Z</time>
      </trkpt>
      <trkpt lat="47.82919" lon="2.15477">
        <ele>147</ele>
        <time>2013-09-29T06:54:30.000Z</time>
      </trkpt>
      <trkpt lat="47.82916" lon="2.15491">
        <ele>147</ele>
        <time>2013-09-29T06:54:32.000Z</time>
      </trkpt>
      <trkpt lat="47.82916" lon="2.15491">
        <ele>147</ele>
        <time>2013-09-29T06:54:34.000Z</time>
      </trkpt>
      <trkpt lat="47.82913" lon="2.15519">
        <ele>148</ele>
        <time>2013-09-29T06:54:36.000Z</time>
      </trkpt>
      <trkpt lat="47.82913" lon="2.15519">
        <ele>148</ele>
        <time>2013-09-29T06:54:38.000Z</time>
      </trkpt>
      <trkpt lat="47.82913" lon="2.15545">
        <ele>147</ele>
        <time>2013-09-29T06:54:40.000Z</time>
      </trkpt>
      <trkpt lat="47.82914" lon="2.15559">
        <ele>147</ele>
        <time>2013-09-29T06:54:42.000Z</time>
      </trkpt>
      <trkpt lat="47.82915" lon="2.15573">
        <ele>147</ele>
        <time>2013-09-29T06:54:44.000Z</time>
      </trkpt>
      <trkpt lat="47.82915" lon="2.15587">
        <ele>147</ele>
        <time>2013-09-29T06:54:46.000Z</time>
      </trkpt>
      <trkpt lat="47.82916" lon="2.15601">
        <ele>148</ele>
        <time>2013-09-29T06:54:48.000Z</time>
      </trkpt>
      <trkpt lat="47.82916" lon="2.15616">
        <ele>148</ele>
        <time>2013-09-29T06:54:50.000Z</time>
      </trkpt>
      <trkpt lat="47.82918" lon="2.15631">
        <ele>148</ele>
        <time>2013-09-29T06:54:52.000Z</time>
      </trkpt>
      <trkpt lat="47.82919" lon="2.15646">
        <ele>148</ele>
        <time>2013-09-29T06:54:54.000Z</time>
      </trkpt>
      <trkpt lat="47.82919" lon="2.1566">
        <ele>148</ele>
        <time>2013-09-29T06:54:56.000Z</time>
      </trkpt>
      <trkpt lat="47.8292" lon="2.15675">
        <ele>148</ele>
        <time>2013-09-29T06:54:58.000Z</time>
      </trkpt>
      <trkpt lat="47.8292" lon="2.15689">
        <ele>147</ele>
        <time>2013-09-29T06:55:00.000Z</time>
      </trkpt>
      <trkpt lat="47.82918" lon="2.15703">
        <ele>147</ele>
        <time>2013-09-29T06:55:02.000Z</time>
      </trkpt>
      <trkpt lat="47.82918" lon="2.15703">
        <ele>147</ele>
        <time>2013-09-29T06:55:04.000Z</time>
      </trkpt>
      <trkpt lat="47.82918" lon="2.15703">
        <ele>147</ele>
        <time>2013-09-29T06:55:08.000Z</time>
      </trkpt>
      <trkpt lat="47.82918" lon="2.15703">
        <ele>147</ele>
        <time>2013-09-29T06:55:10.000Z</time>
      </trkpt>
      <trkpt lat="47.82918" lon="2.15703">
        <ele>147</ele>
        <time>2013-09-29T06:55:12.000Z</time>
      </trkpt>
      <trkpt lat="47.82918" lon="2.15703">
        <ele>147</ele>
        <time>2013-09-29T06:55:14.000Z</time>
      </trkpt>
      <trkpt lat="47.82918" lon="2.15703">
        <ele>147</ele>
        <time>2013-09-29T06:55:16.000Z</time>
      </trkpt>
      <trkpt lat="47.82918" lon="2.15703">
        <ele>147</ele>
        <time>2013-09-29T06:55:18.000Z</time>
      </trkpt>
      <trkpt lat="47.82918" lon="2.15703">
        <ele>147</ele>
        <time>2013-09-29T06:55:20.000Z</time>
      </trkpt>
      <trkpt lat="47.82918" lon="2.15703">
        <ele>147</ele>
        <time>2013-09-29T06:55:22.000Z</time>
      </trkpt>
      <trkpt lat="47.82918" lon="2.15703">
        <ele>147</ele>
        <time>2013-09-29T06:55:24.000Z</time>
      </trkpt>
      <trkpt lat="47.82918" lon="2.15703">
        <ele>147</ele>
        <time>2013-09-29T06:55:26.000Z</time>
      </trkpt>
      <trkpt lat="47.82907" lon="2.15791">
        <ele>148</ele>
        <time>2013-09-29T06:55:30.000Z</time>
      </trkpt>
      <trkpt lat="47.82902" lon="2.15842">
        <ele>148</ele>
        <time>2013-09-29T06:55:32.000Z</time>
      </trkpt>
      <trkpt lat="47.82902" lon="2.15842">
        <ele>148</ele>
        <time>2013-09-29T06:55:34.000Z</time>
      </trkpt>
      <trkpt lat="47.82902" lon="2.15842">
        <ele>148</ele>
        <time>2013-09-29T06:55:36.000Z</time>
      </trkpt>
      <trkpt lat="47.82902" lon="2.15842">
        <ele>148</ele>
        <time>2013-09-29T06:55:38.000Z</time>
      </trkpt>
      <trkpt lat="47.82902" lon="2.15842">
        <ele>148</ele>
        <time>2013-09-29T06:55:40.000Z</time>
      </trkpt>
      <trkpt lat="47.82902" lon="2.15842">
        <ele>148</ele>
        <time>2013-09-29T06:55:42.000Z</time>
      </trkpt>
      <trkpt lat="47.82902" lon="2.15842">
        <ele>148</ele>
        <time>2013-09-29T06:55:44.000Z</time>
      </trkpt>
      <trkpt lat="47.82902" lon="2.15842">
        <ele>148</ele>
        <time>2013-09-29T06:55:46.000Z</time>
      </trkpt>
      <trkpt lat="47.82902" lon="2.15842">
        <ele>148</ele>
        <time>2013-09-29T06:55:48.000Z</time>
      </trkpt>
      <trkpt lat="47.82902" lon="2.15842">
        <ele>148</ele>
        <time>2013-09-29T06:55:50.000Z</time>
      </trkpt>
      <trkpt lat="47.82902" lon="2.15842">
        <ele>148</ele>
        <time>2013-09-29T06:55:52.000Z</time>
      </trkpt>
      <trkpt lat="47.82902" lon="2.15842">
        <ele>148</ele>
        <time>2013-09-29T06:55:54.000Z</time>
      </trkpt>
      <trkpt lat="47.82919" lon="2.15933">
        <ele>148</ele>
        <time>2013-09-29T06:55:56.000Z</time>
      </trkpt>
      <trkpt lat="47.8293" lon="2.15984">
        <ele>149</ele>
        <time>2013-09-29T06:55:58.000Z</time>
      </trkpt>
      <trkpt lat="47.82936" lon="2.16016">
        <ele>149</ele>
        <time>2013-09-29T06:56:00.000Z</time>
      </trkpt>
      <trkpt lat="47.82941" lon="2.16037">
        <ele>149</ele>
        <time>2013-09-29T06:56:02.000Z</time>
      </trkpt>
      <trkpt lat="47.82946" lon="2.16053">
        <ele>149</ele>
        <time>2013-09-29T06:56:04.000Z</time>
      </trkpt>
      <trkpt lat="47.82953" lon="2.16079">
        <ele>150</ele>
        <time>2013-09-29T06:56:06.000Z</time>
      </trkpt>
      <trkpt lat="47.8296" lon="2.16102">
        <ele>148</ele>
        <time>2013-09-29T06:56:10.000Z</time>
      </trkpt>
      <trkpt lat="47.82967" lon="2.16125">
        <ele>149</ele>
        <time>2013-09-29T06:56:14.000Z</time>
      </trkpt>
      <trkpt lat="47.82976" lon="2.16148">
        <ele>149</ele>
        <time>2013-09-29T06:56:18.000Z</time>
      </trkpt>
      <trkpt lat="47.82984" lon="2.16171">
        <ele>149</ele>
        <time>2013-09-29T06:56:22.000Z</time>
      </trkpt>
      <trkpt lat="47.82984" lon="2.16171">
        <ele>149</ele>
        <time>2013-09-29T06:56:24.000Z</time>
      </trkpt>
      <trkpt lat="47.82984" lon="2.16171">
        <ele>149</ele>
        <time>2013-09-29T06:56:26.000Z</time>
      </trkpt>
      <trkpt lat="47.82984" lon="2.16171">
        <ele>149</ele>
        <time>2013-09-29T06:56:28.000Z</time>
      </trkpt>
      <trkpt lat="47.82984" lon="2.16171">
        <ele>149</ele>
        <time>2013-09-29T06:56:30.000Z</time>
      </trkpt>
      <trkpt lat="47.82999" lon="2.16239">
        <ele>149</ele>
        <time>2013-09-29T06:56:34.000Z</time>
      </trkpt>
      <trkpt lat="47.83004" lon="2.16264">
        <ele>149</ele>
        <time>2013-09-29T06:56:38.000Z</time>
      </trkpt>
      <trkpt lat="47.8301" lon="2.1629">
        <ele>149</ele>
        <time>2013-09-29T06:56:42.000Z</time>
      </trkpt>
      <trkpt lat="47.83012" lon="2.16303">
        <ele>149</ele>
        <time>2013-09-29T06:56:44.000Z</time>
      </trkpt>
      <trkpt lat="47.83015" lon="2.16316">
        <ele>149</ele>
        <time>2013-09-29T06:56:46.000Z</time>
      </trkpt>
      <trkpt lat="47.83019" lon="2.16329">
        <ele>149</ele>
        <time>2013-09-29T06:56:48.000Z</time>
      </trkpt>
      <trkpt lat="47.83024" lon="2.16341">
        <ele>148</ele>
        <time>2013-09-29T06:56:50.000Z</time>
      </trkpt>
      <trkpt lat="47.83028" lon="2.16353">
        <ele>148</ele>
        <time>2013-09-29T06:56:52.000Z</time>
      </trkpt>
      <trkpt lat="47.83028" lon="2.16353">
        <ele>148</ele>
        <time>2013-09-29T06:56:54.000Z</time>
      </trkpt>
      <trkpt lat="47.83028" lon="2.16353">
        <ele>148</ele>
        <time>2013-09-29T06:56:56.000Z</time>
      </trkpt>
      <trkpt lat="47.83042" lon="2.16388">
        <ele>148</ele>
        <time>2013-09-29T06:56:58.000Z</time>
      </trkpt>
      <trkpt lat="47.83046" lon="2.16401">
        <ele>148</ele>
        <time>2013-09-29T06:57:00.000Z</time>
      </trkpt>
      <trkpt lat="47.83049" lon="2.16416">
        <ele>148</ele>
        <time>2013-09-29T06:57:02.000Z</time>
      </trkpt>
      <trkpt lat="47.83051" lon="2.16431">
        <ele>147</ele>
        <time>2013-09-29T06:57:04.000Z</time>
      </trkpt>
      <trkpt lat="47.83053" lon="2.16445">
        <ele>147</ele>
        <time>2013-09-29T06:57:06.000Z</time>
      </trkpt>
      <trkpt lat="47.83054" lon="2.1646">
        <ele>147</ele>
        <time>2013-09-29T06:57:08.000Z</time>
      </trkpt>
      <trkpt lat="47.83054" lon="2.16474">
        <ele>147</ele>
        <time>2013-09-29T06:57:10.000Z</time>
      </trkpt>
      <trkpt lat="47.83054" lon="2.16474">
        <ele>147</ele>
        <time>2013-09-29T06:57:12.000Z</time>
      </trkpt>
      <trkpt lat="47.83058" lon="2.16518">
        <ele>147</ele>
        <time>2013-09-29T06:57:16.000Z</time>
      </trkpt>
      <trkpt lat="47.83059" lon="2.16533">
        <ele>147</ele>
        <time>2013-09-29T06:57:18.000Z</time>
      </trkpt>
      <trkpt lat="47.83058" lon="2.16549">
        <ele>147</ele>
        <time>2013-09-29T06:57:20.000Z</time>
      </trkpt>
      <trkpt lat="47.83056" lon="2.16563">
        <ele>147</ele>
        <time>2013-09-29T06:57:22.000Z</time>
      </trkpt>
      <trkpt lat="47.83054" lon="2.16577">
        <ele>148</ele>
        <time>2013-09-29T06:57:24.000Z</time>
      </trkpt>
      <trkpt lat="47.83054" lon="2.16577">
        <ele>148</ele>
        <time>2013-09-29T06:57:26.000Z</time>
      </trkpt>
      <trkpt lat="47.83054" lon="2.16577">
        <ele>148</ele>
        <time>2013-09-29T06:57:28.000Z</time>
      </trkpt>
      <trkpt lat="47.83054" lon="2.16577">
        <ele>148</ele>
        <time>2013-09-29T06:57:34.000Z</time>
      </trkpt>
      <trkpt lat="47.83054" lon="2.16577">
        <ele>148</ele>
        <time>2013-09-29T06:57:36.000Z</time>
      </trkpt>
      <trkpt lat="47.83066" lon="2.16695">
        <ele>147</ele>
        <time>2013-09-29T06:57:40.000Z</time>
      </trkpt>
      <trkpt lat="47.83068" lon="2.16708">
        <ele>147</ele>
        <time>2013-09-29T06:57:42.000Z</time>
      </trkpt>
      <trkpt lat="47.83068" lon="2.16708">
        <ele>147</ele>
        <time>2013-09-29T06:57:44.000Z</time>
      </trkpt>
      <trkpt lat="47.83068" lon="2.16708">
        <ele>147</ele>
        <time>2013-09-29T06:57:46.000Z</time>
      </trkpt>
      <trkpt lat="47.83068" lon="2.16708">
        <ele>147</ele>
        <time>2013-09-29T06:57:48.000Z</time>
      </trkpt>
      <trkpt lat="47.83068" lon="2.16708">
        <ele>147</ele>
        <time>2013-09-29T06:57:50.000Z</time>
      </trkpt>
      <trkpt lat="47.83068" lon="2.16708">
        <ele>147</ele>
        <time>2013-09-29T06:57:52.000Z</time>
      </trkpt>
      <trkpt lat="47.83068" lon="2.16708">
        <ele>147</ele>
        <time>2013-09-29T06:57:54.000Z</time>
      </trkpt>
      <trkpt lat="47.83081" lon="2.16809">
        <ele>148</ele>
        <time>2013-09-29T06:57:58.000Z</time>
      </trkpt>
      <trkpt lat="47.83081" lon="2.16809">
        <ele>148</ele>
        <time>2013-09-29T06:58:02.000Z</time>
      </trkpt>
      <trkpt lat="47.83081" lon="2.16809">
        <ele>148</ele>
        <time>2013-09-29T06:58:04.000Z</time>
      </trkpt>
      <trkpt lat="47.83081" lon="2.16809">
        <ele>148</ele>
        <time>2013-09-29T06:58:06.000Z</time>
      </trkpt>
      <trkpt lat="47.83081" lon="2.16809">
        <ele>148</ele>
        <time>2013-09-29T06:58:13.000Z</time>
      </trkpt>
      <trkpt lat="47.83081" lon="2.16809">
        <ele>148</ele>
        <time>2013-09-29T06:58:15.000Z</time>
      </trkpt>
      <trkpt lat="47.83089" lon="2.16882">
        <ele>150</ele>
        <time>2013-09-29T06:58:19.000Z</time>
      </trkpt>
      <trkpt lat="47.83094" lon="2.16925">
        <ele>149</ele>
        <time>2013-09-29T06:58:21.000Z</time>
      </trkpt>
      <trkpt lat="47.83097" lon="2.16954">
        <ele>149</ele>
        <time>2013-09-29T06:58:23.000Z</time>
      </trkpt>
      <trkpt lat="47.83098" lon="2.16976">
        <ele>149</ele>
        <time>2013-09-29T06:58:24.000Z</time>
      </trkpt>
      <trkpt lat="47.83098" lon="2.16976">
        <ele>149</ele>
        <time>2013-09-29T06:58:27.000Z</time>
      </trkpt>
      <trkpt lat="47.83098" lon="2.16976">
        <ele>149</ele>
        <time>2013-09-29T06:58:29.000Z</time>
      </trkpt>
      <trkpt lat="47.83098" lon="2.16976">
        <ele>149</ele>
        <time>2013-09-29T06:58:31.000Z</time>
      </trkpt>
      <trkpt lat="47.83098" lon="2.16976">
        <ele>149</ele>
        <time>2013-09-29T06:58:33.000Z</time>
      </trkpt>
      <trkpt lat="47.83098" lon="2.16976">
        <ele>149</ele>
        <time>2013-09-29T06:58:35.000Z</time>
      </trkpt>
      <trkpt lat="47.83098" lon="2.16976">
        <ele>149</ele>
        <time>2013-09-29T06:58:43.000Z</time>
      </trkpt>
      <trkpt lat="47.83098" lon="2.16976">
        <ele>149</ele>
        <time>2013-09-29T06:58:45.000Z</time>
      </trkpt>
      <trkpt lat="47.83098" lon="2.16976">
        <ele>149</ele>
        <time>2013-09-29T06:58:47.000Z</time>
      </trkpt>
      <trkpt lat="47.83098" lon="2.16976">
        <ele>149</ele>
        <time>2013-09-29T06:58:49.000Z</time>
      </trkpt>
      <trkpt lat="47.83098" lon="2.16976">
        <ele>149</ele>
        <time>2013-09-29T06:58:51.000Z</time>
      </trkpt>
      <trkpt lat="47.83098" lon="2.16976">
        <ele>149</ele>
        <time>2013-09-29T06:58:53.000Z</time>
      </trkpt>
      <trkpt lat="47.83098" lon="2.16976">
        <ele>149</ele>
        <time>2013-09-29T06:58:55.000Z</time>
      </trkpt>
      <trkpt lat="47.83098" lon="2.16976">
        <ele>149</ele>
        <time>2013-09-29T06:58:57.000Z</time>
      </trkpt>
      <trkpt lat="47.83098" lon="2.16976">
        <ele>149</ele>
        <time>2013-09-29T06:58:59.000Z</time>
      </trkpt>
      <trkpt lat="47.83111" lon="2.17088">
        <ele>149</ele>
        <time>2013-09-29T06:59:03.000Z</time>
      </trkpt>
      <trkpt lat="47.83118" lon="2.17149">
        <ele>149</ele>
        <time>2013-09-29T06:59:05.000Z</time>
      </trkpt>
      <trkpt lat="47.83123" lon="2.17185">
        <ele>149</ele>
        <time>2013-09-29T06:59:06.000Z</time>
      </trkpt>
      <trkpt lat="47.83126" lon="2.1721">
        <ele>149</ele>
        <time>2013-09-29T06:59:09.000Z</time>
      </trkpt>
      <trkpt lat="47.83128" lon="2.17228">
        <ele>149</ele>
        <time>2013-09-29T06:59:11.000Z</time>
      </trkpt>
      <trkpt lat="47.83131" lon="2.17258">
        <ele>149</ele>
        <time>2013-09-29T06:59:13.000Z</time>
      </trkpt>
      <trkpt lat="47.83134" lon="2.17283">
        <ele>149</ele>
        <time>2013-09-29T06:59:17.000Z</time>
      </trkpt>
      <trkpt lat="47.83138" lon="2.17308">
        <ele>149</ele>
        <time>2013-09-29T06:59:21.000Z</time>
      </trkpt>
      <trkpt lat="47.8314" lon="2.17333">
        <ele>149</ele>
        <time>2013-09-29T06:59:25.000Z</time>
      </trkpt>
      <trkpt lat="47.8314" lon="2.17333">
        <ele>149</ele>
        <time>2013-09-29T06:59:27.000Z</time>
      </trkpt>
      <trkpt lat="47.8314" lon="2.17333">
        <ele>149</ele>
        <time>2013-09-29T06:59:29.000Z</time>
      </trkpt>
      <trkpt lat="47.8314" lon="2.17333">
        <ele>149</ele>
        <time>2013-09-29T06:59:31.000Z</time>
      </trkpt>
      <trkpt lat="47.8314" lon="2.17333">
        <ele>149</ele>
        <time>2013-09-29T06:59:39.000Z</time>
      </trkpt>
      <trkpt lat="47.8314" lon="2.17333">
        <ele>149</ele>
        <time>2013-09-29T06:59:41.000Z</time>
      </trkpt>
      <trkpt lat="47.8314" lon="2.17333">
        <ele>149</ele>
        <time>2013-09-29T06:59:43.000Z</time>
      </trkpt>
      <trkpt lat="47.8314" lon="2.17333">
        <ele>149</ele>
        <time>2013-09-29T06:59:45.000Z</time>
      </trkpt>
      <trkpt lat="47.83158" lon="2.17477">
        <ele>149</ele>
        <time>2013-09-29T06:59:49.000Z</time>
      </trkpt>
      <trkpt lat="47.83162" lon="2.17502">
        <ele>149</ele>
        <time>2013-09-29T06:59:53.000Z</time>
      </trkpt>
      <trkpt lat="47.83165" lon="2.17527">
        <ele>149</ele>
        <time>2013-09-29T06:59:57.000Z</time>
      </trkpt>
      <trkpt lat="47.83168" lon="2.17553">
        <ele>149</ele>
        <time>2013-09-29T07:00:00.000Z</time>
      </trkpt>
      <trkpt lat="47.83171" lon="2.17579">
        <ele>149</ele>
        <time>2013-09-29T07:00:05.000Z</time>
      </trkpt>
      <trkpt lat="47.83174" lon="2.17605">
        <ele>149</ele>
        <time>2013-09-29T07:00:09.000Z</time>
      </trkpt>
      <trkpt lat="47.83178" lon="2.17631">
        <ele>149</ele>
        <time>2013-09-29T07:00:13.000Z</time>
      </trkpt>
      <trkpt lat="47.83179" lon="2.17645">
        <ele>149</ele>
        <time>2013-09-29T07:00:15.000Z</time>
      </trkpt>
      <trkpt lat="47.83181" lon="2.17659">
        <ele>148</ele>
        <time>2013-09-29T07:00:17.000Z</time>
      </trkpt>
      <trkpt lat="47.83184" lon="2.17674">
        <ele>148</ele>
        <time>2013-09-29T07:00:19.000Z</time>
      </trkpt>
      <trkpt lat="47.83186" lon="2.17688">
        <ele>148</ele>
        <time>2013-09-29T07:00:21.000Z</time>
      </trkpt>
      <trkpt lat="47.8319" lon="2.17701">
        <ele>148</ele>
        <time>2013-09-29T07:00:23.000Z</time>
      </trkpt>
      <trkpt lat="47.83193" lon="2.17714">
        <ele>148</ele>
        <time>2013-09-29T07:00:25.000Z</time>
      </trkpt>
      <trkpt lat="47.83193" lon="2.17714">
        <ele>148</ele>
        <time>2013-09-29T07:00:26.000Z</time>
      </trkpt>
      <trkpt lat="47.83193" lon="2.17714">
        <ele>148</ele>
        <time>2013-09-29T07:00:29.000Z</time>
      </trkpt>
      <trkpt lat="47.83193" lon="2.17714">
        <ele>148</ele>
        <time>2013-09-29T07:00:31.000Z</time>
      </trkpt>
      <trkpt lat="47.83193" lon="2.17714">
        <ele>148</ele>
        <time>2013-09-29T07:00:33.000Z</time>
      </trkpt>
      <trkpt lat="47.83193" lon="2.17714">
        <ele>148</ele>
        <time>2013-09-29T07:00:35.000Z</time>
      </trkpt>
      <trkpt lat="47.83193" lon="2.17714">
        <ele>148</ele>
        <time>2013-09-29T07:00:37.000Z</time>
      </trkpt>
      <trkpt lat="47.83193" lon="2.17714">
        <ele>148</ele>
        <time>2013-09-29T07:00:39.000Z</time>
      </trkpt>
      <trkpt lat="47.83193" lon="2.17714">
        <ele>148</ele>
        <time>2013-09-29T07:00:41.000Z</time>
      </trkpt>
      <trkpt lat="47.83193" lon="2.17714">
        <ele>148</ele>
        <time>2013-09-29T07:00:43.000Z</time>
      </trkpt>
      <trkpt lat="47.83193" lon="2.17714">
        <ele>148</ele>
        <time>2013-09-29T07:00:45.000Z</time>
      </trkpt>
      <trkpt lat="47.83193" lon="2.17714">
        <ele>148</ele>
        <time>2013-09-29T07:00:47.000Z</time>
      </trkpt>
      <trkpt lat="47.83193" lon="2.17714">
        <ele>148</ele>
        <time>2013-09-29T07:00:49.000Z</time>
      </trkpt>
      <trkpt lat="47.83193" lon="2.17714">
        <ele>148</ele>
        <time>2013-09-29T07:00:51.000Z</time>
      </trkpt>
      <trkpt lat="47.83215" lon="2.1779">
        <ele>150</ele>
        <time>2013-09-29T07:00:57.000Z</time>
      </trkpt>
      <trkpt lat="47.83229" lon="2.17829">
        <ele>150</ele>
        <time>2013-09-29T07:00:59.000Z</time>
      </trkpt>
      <trkpt lat="47.83241" lon="2.17851">
        <ele>150</ele>
        <time>2013-09-29T07:01:01.000Z</time>
      </trkpt>
      <trkpt lat="47.8325" lon="2.17863">
        <ele>150</ele>
        <time>2013-09-29T07:01:03.000Z</time>
      </trkpt>
      <trkpt lat="47.83258" lon="2.17868">
        <ele>151</ele>
        <time>2013-09-29T07:01:05.000Z</time>
      </trkpt>
      <trkpt lat="47.83275" lon="2.17869">
        <ele>152</ele>
        <time>2013-09-29T07:01:07.000Z</time>
      </trkpt>
      <trkpt lat="47.83291" lon="2.1787">
        <ele>152</ele>
        <time>2013-09-29T07:01:11.000Z</time>
      </trkpt>
      <trkpt lat="47.83301" lon="2.1789">
        <ele>153</ele>
        <time>2013-09-29T07:01:15.000Z</time>
      </trkpt>
      <trkpt lat="47.83305" lon="2.17902">
        <ele>152</ele>
        <time>2013-09-29T07:01:17.000Z</time>
      </trkpt>
      <trkpt lat="47.83315" lon="2.17925">
        <ele>151</ele>
        <time>2013-09-29T07:01:21.000Z</time>
      </trkpt>
      <trkpt lat="47.83321" lon="2.17935">
        <ele>150</ele>
        <time>2013-09-29T07:01:23.000Z</time>
      </trkpt>
      <trkpt lat="47.83339" lon="2.17943">
        <ele>151</ele>
        <time>2013-09-29T07:01:27.000Z</time>
      </trkpt>
      <trkpt lat="47.83349" lon="2.17945">
        <ele>151</ele>
        <time>2013-09-29T07:01:29.000Z</time>
      </trkpt>
      <trkpt lat="47.83349" lon="2.17945">
        <ele>151</ele>
        <time>2013-09-29T07:01:31.000Z</time>
      </trkpt>
      <trkpt lat="47.83349" lon="2.17945">
        <ele>151</ele>
        <time>2013-09-29T07:01:33.000Z</time>
      </trkpt>
      <trkpt lat="47.83349" lon="2.17945">
        <ele>151</ele>
        <time>2013-09-29T07:01:35.000Z</time>
      </trkpt>
      <trkpt lat="47.83385" lon="2.17946">
        <ele>152</ele>
        <time>2013-09-29T07:01:37.000Z</time>
      </trkpt>
      <trkpt lat="47.83394" lon="2.17949">
        <ele>153</ele>
        <time>2013-09-29T07:01:39.000Z</time>
      </trkpt>
      <trkpt lat="47.83405" lon="2.17952">
        <ele>152</ele>
        <time>2013-09-29T07:01:41.000Z</time>
      </trkpt>
      <trkpt lat="47.83415" lon="2.17954">
        <ele>152</ele>
        <time>2013-09-29T07:01:43.000Z</time>
      </trkpt>
      <trkpt lat="47.83424" lon="2.17956">
        <ele>152</ele>
        <time>2013-09-29T07:01:45.000Z</time>
      </trkpt>
      <trkpt lat="47.83433" lon="2.17959">
        <ele>153</ele>
        <time>2013-09-29T07:01:47.000Z</time>
      </trkpt>
      <trkpt lat="47.83442" lon="2.17964">
        <ele>154</ele>
        <time>2013-09-29T07:01:49.000Z</time>
      </trkpt>
      <trkpt lat="47.83442" lon="2.17964">
        <ele>154</ele>
        <time>2013-09-29T07:01:51.000Z</time>
      </trkpt>
      <trkpt lat="47.83442" lon="2.17964">
        <ele>154</ele>
        <time>2013-09-29T07:01:53.000Z</time>
      </trkpt>
      <trkpt lat="47.83442" lon="2.17964">
        <ele>154</ele>
        <time>2013-09-29T07:01:55.000Z</time>
      </trkpt>
      <trkpt lat="47.83442" lon="2.17964">
        <ele>154</ele>
        <time>2013-09-29T07:01:57.000Z</time>
      </trkpt>
      <trkpt lat="47.83442" lon="2.17964">
        <ele>154</ele>
        <time>2013-09-29T07:01:59.000Z</time>
      </trkpt>
      <trkpt lat="47.83442" lon="2.17964">
        <ele>154</ele>
        <time>2013-09-29T07:02:01.000Z</time>
      </trkpt>
      <trkpt lat="47.83508" lon="2.17984">
        <ele>156</ele>
        <time>2013-09-29T07:02:05.000Z</time>
      </trkpt>
      <trkpt lat="47.83518" lon="2.17989">
        <ele>157</ele>
        <time>2013-09-29T07:02:07.000Z</time>
      </trkpt>
      <trkpt lat="47.83527" lon="2.17994">
        <ele>158</ele>
        <time>2013-09-29T07:02:09.000Z</time>
      </trkpt>
      <trkpt lat="47.83536" lon="2.17997">
        <ele>158</ele>
        <time>2013-09-29T07:02:11.000Z</time>
      </trkpt>
      <trkpt lat="47.83547" lon="2.18003">
        <ele>158</ele>
        <time>2013-09-29T07:02:13.000Z</time>
      </trkpt>
      <trkpt lat="47.83564" lon="2.18016">
        <ele>158</ele>
        <time>2013-09-29T07:02:17.000Z</time>
      </trkpt>
      <trkpt lat="47.83564" lon="2.18016">
        <ele>158</ele>
        <time>2013-09-29T07:02:19.000Z</time>
      </trkpt>
      <trkpt lat="47.83564" lon="2.18016">
        <ele>158</ele>
        <time>2013-09-29T07:02:21.000Z</time>
      </trkpt>
      <trkpt lat="47.83564" lon="2.18016">
        <ele>158</ele>
        <time>2013-09-29T07:02:23.000Z</time>
      </trkpt>
      <trkpt lat="47.83564" lon="2.18016">
        <ele>158</ele>
        <time>2013-09-29T07:02:25.000Z</time>
      </trkpt>
      <trkpt lat="47.83564" lon="2.18016">
        <ele>158</ele>
        <time>2013-09-29T07:02:37.000Z</time>
      </trkpt>
      <trkpt lat="47.83564" lon="2.18016">
        <ele>158</ele>
        <time>2013-09-29T07:02:39.000Z</time>
      </trkpt>
      <trkpt lat="47.83564" lon="2.18016">
        <ele>158</ele>
        <time>2013-09-29T07:02:41.000Z</time>
      </trkpt>
      <trkpt lat="47.83564" lon="2.18016">
        <ele>158</ele>
        <time>2013-09-29T07:02:43.000Z</time>
      </trkpt>
      <trkpt lat="47.83632" lon="2.18037">
        <ele>156</ele>
        <time>2013-09-29T07:02:49.000Z</time>
      </trkpt>
      <trkpt lat="47.83671" lon="2.18049">
        <ele>156</ele>
        <time>2013-09-29T07:02:51.000Z</time>
      </trkpt>
      <trkpt lat="47.83694" lon="2.18057">
        <ele>156</ele>
        <time>2013-09-29T07:02:53.000Z</time>
      </trkpt>
      <trkpt lat="47.8371" lon="2.18062">
        <ele>155</ele>
        <time>2013-09-29T07:02:55.000Z</time>
      </trkpt>
      <trkpt lat="47.83723" lon="2.18066">
        <ele>155</ele>
        <time>2013-09-29T07:02:57.000Z</time>
      </trkpt>
      <trkpt lat="47.83743" lon="2.1807">
        <ele>155</ele>
        <time>2013-09-29T07:02:59.000Z</time>
      </trkpt>
      <trkpt lat="47.83752" lon="2.18075">
        <ele>155</ele>
        <time>2013-09-29T07:03:01.000Z</time>
      </trkpt>
      <trkpt lat="47.83769" lon="2.18079">
        <ele>154</ele>
        <time>2013-09-29T07:03:05.000Z</time>
      </trkpt>
      <trkpt lat="47.8378" lon="2.18086">
        <ele>153</ele>
        <time>2013-09-29T07:03:07.000Z</time>
      </trkpt>
      <trkpt lat="47.83789" lon="2.18089">
        <ele>153</ele>
        <time>2013-09-29T07:03:09.000Z</time>
      </trkpt>
      <trkpt lat="47.83801" lon="2.18091">
        <ele>153</ele>
        <time>2013-09-29T07:03:11.000Z</time>
      </trkpt>
      <trkpt lat="47.83812" lon="2.18095">
        <ele>153</ele>
        <time>2013-09-29T07:03:13.000Z</time>
      </trkpt>
      <trkpt lat="47.83829" lon="2.18101">
        <ele>153</ele>
        <time>2013-09-29T07:03:17.000Z</time>
      </trkpt>
      <trkpt lat="47.83839" lon="2.18101">
        <ele>153</ele>
        <time>2013-09-29T07:03:19.000Z</time>
      </trkpt>
      <trkpt lat="47.83839" lon="2.18101">
        <ele>153</ele>
        <time>2013-09-29T07:03:21.000Z</time>
      </trkpt>
      <trkpt lat="47.83877" lon="2.18108">
        <ele>152</ele>
        <time>2013-09-29T07:03:27.000Z</time>
      </trkpt>
      <trkpt lat="47.83897" lon="2.18113">
        <ele>152</ele>
        <time>2013-09-29T07:03:31.000Z</time>
      </trkpt>
      <trkpt lat="47.83918" lon="2.18119">
        <ele>151</ele>
        <time>2013-09-29T07:03:35.000Z</time>
      </trkpt>
      <trkpt lat="47.83937" lon="2.18121">
        <ele>150</ele>
        <time>2013-09-29T07:03:39.000Z</time>
      </trkpt>
      <trkpt lat="47.83937" lon="2.18121">
        <ele>150</ele>
        <time>2013-09-29T07:03:41.000Z</time>
      </trkpt>
      <trkpt lat="47.83937" lon="2.18121">
        <ele>150</ele>
        <time>2013-09-29T07:03:43.000Z</time>
      </trkpt>
      <trkpt lat="47.83937" lon="2.18121">
        <ele>150</ele>
        <time>2013-09-29T07:03:45.000Z</time>
      </trkpt>
      <trkpt lat="47.84" lon="2.18138">
        <ele>148</ele>
        <time>2013-09-29T07:03:51.000Z</time>
      </trkpt>
      <trkpt lat="47.84022" lon="2.18138">
        <ele>148</ele>
        <time>2013-09-29T07:03:55.000Z</time>
      </trkpt>
      <trkpt lat="47.84022" lon="2.18138">
        <ele>148</ele>
        <time>2013-09-29T07:03:57.000Z</time>
      </trkpt>
      <trkpt lat="47.84046" lon="2.18133">
        <ele>149</ele>
        <time>2013-09-29T07:03:59.000Z</time>
      </trkpt>
      <trkpt lat="47.84065" lon="2.18125">
        <ele>152</ele>
        <time>2013-09-29T07:04:03.000Z</time>
      </trkpt>
      <trkpt lat="47.84065" lon="2.18125">
        <ele>152</ele>
        <time>2013-09-29T07:04:05.000Z</time>
      </trkpt>
      <trkpt lat="47.84065" lon="2.18125">
        <ele>152</ele>
        <time>2013-09-29T07:04:07.000Z</time>
      </trkpt>
      <trkpt lat="47.84065" lon="2.18125">
        <ele>152</ele>
        <time>2013-09-29T07:04:13.000Z</time>
      </trkpt>
      <trkpt lat="47.84065" lon="2.18125">
        <ele>152</ele>
        <time>2013-09-29T07:04:15.000Z</time>
      </trkpt>
      <trkpt lat="47.84065" lon="2.18125">
        <ele>152</ele>
        <time>2013-09-29T07:04:17.000Z</time>
      </trkpt>
      <trkpt lat="47.84065" lon="2.18125">
        <ele>152</ele>
        <time>2013-09-29T07:04:19.000Z</time>
      </trkpt>
      <trkpt lat="47.84065" lon="2.18125">
        <ele>152</ele>
        <time>2013-09-29T07:04:21.000Z</time>
      </trkpt>
      <trkpt lat="47.84065" lon="2.18125">
        <ele>152</ele>
        <time>2013-09-29T07:04:23.000Z</time>
      </trkpt>
      <trkpt lat="47.84065" lon="2.18125">
        <ele>152</ele>
        <time>2013-09-29T07:04:25.000Z</time>
      </trkpt>
      <trkpt lat="47.84065" lon="2.18125">
        <ele>152</ele>
        <time>2013-09-29T07:04:27.000Z</time>
      </trkpt>
      <trkpt lat="47.84177" lon="2.18176">
        <ele>148</ele>
        <time>2013-09-29T07:04:31.000Z</time>
      </trkpt>
      <trkpt lat="47.84181" lon="2.18188">
        <ele>148</ele>
        <time>2013-09-29T07:04:33.000Z</time>
      </trkpt>
      <trkpt lat="47.84185" lon="2.182">
        <ele>148</ele>
        <time>2013-09-29T07:04:35.000Z</time>
      </trkpt>
      <trkpt lat="47.84188" lon="2.18214">
        <ele>148</ele>
        <time>2013-09-29T07:04:37.000Z</time>
      </trkpt>
      <trkpt lat="47.84192" lon="2.18227">
        <ele>148</ele>
        <time>2013-09-29T07:04:39.000Z</time>
      </trkpt>
      <trkpt lat="47.84192" lon="2.18227">
        <ele>148</ele>
        <time>2013-09-29T07:04:41.000Z</time>
      </trkpt>
      <trkpt lat="47.84192" lon="2.18227">
        <ele>148</ele>
        <time>2013-09-29T07:04:43.000Z</time>
      </trkpt>
      <trkpt lat="47.84192" lon="2.18227">
        <ele>148</ele>
        <time>2013-09-29T07:04:45.000Z</time>
      </trkpt>
      <trkpt lat="47.842" lon="2.18258">
        <ele>149</ele>
        <time>2013-09-29T07:04:49.000Z</time>
      </trkpt>
      <trkpt lat="47.84205" lon="2.18281">
        <ele>149</ele>
        <time>2013-09-29T07:04:51.000Z</time>
      </trkpt>
      <trkpt lat="47.84209" lon="2.18299">
        <ele>150</ele>
        <time>2013-09-29T07:04:53.000Z</time>
      </trkpt>
      <trkpt lat="47.84211" lon="2.18315">
        <ele>150</ele>
        <time>2013-09-29T07:04:55.000Z</time>
      </trkpt>
      <trkpt lat="47.84215" lon="2.18328">
        <ele>149</ele>
        <time>2013-09-29T07:04:57.000Z</time>
      </trkpt>
      <trkpt lat="47.84215" lon="2.18328">
        <ele>149</ele>
        <time>2013-09-29T07:04:59.000Z</time>
      </trkpt>
      <trkpt lat="47.84215" lon="2.18328">
        <ele>149</ele>
        <time>2013-09-29T07:05:00.000Z</time>
      </trkpt>
      <trkpt lat="47.84215" lon="2.18328">
        <ele>149</ele>
        <time>2013-09-29T07:05:03.000Z</time>
      </trkpt>
      <trkpt lat="47.84215" lon="2.18328">
        <ele>149</ele>
        <time>2013-09-29T07:05:05.000Z</time>
      </trkpt>
      <trkpt lat="47.84275" lon="2.18353">
        <ele>151</ele>
        <time>2013-09-29T07:05:09.000Z</time>
      </trkpt>
      <trkpt lat="47.84295" lon="2.18358">
        <ele>151</ele>
        <time>2013-09-29T07:05:13.000Z</time>
      </trkpt>
      <trkpt lat="47.84307" lon="2.18367">
        <ele>150</ele>
        <time>2013-09-29T07:05:15.000Z</time>
      </trkpt>
      <trkpt lat="47.84307" lon="2.18367">
        <ele>150</ele>
        <time>2013-09-29T07:05:18.000Z</time>
      </trkpt>
      <trkpt lat="47.84307" lon="2.18367">
        <ele>150</ele>
        <time>2013-09-29T07:05:20.000Z</time>
      </trkpt>
      <trkpt lat="47.84363" lon="2.18369">
        <ele>151</ele>
        <time>2013-09-29T07:05:26.000Z</time>
      </trkpt>
      <trkpt lat="47.84375" lon="2.18369">
        <ele>151</ele>
        <time>2013-09-29T07:05:28.000Z</time>
      </trkpt>
      <trkpt lat="47.84393" lon="2.18368">
        <ele>154</ele>
        <time>2013-09-29T07:05:32.000Z</time>
      </trkpt>
      <trkpt lat="47.84404" lon="2.1837">
        <ele>154</ele>
        <time>2013-09-29T07:05:34.000Z</time>
      </trkpt>
      <trkpt lat="47.84404" lon="2.1837">
        <ele>154</ele>
        <time>2013-09-29T07:05:36.000Z</time>
      </trkpt>
      <trkpt lat="47.84426" lon="2.18372">
        <ele>153</ele>
        <time>2013-09-29T07:05:38.000Z</time>
      </trkpt>
      <trkpt lat="47.84448" lon="2.1838">
        <ele>152</ele>
        <time>2013-09-29T07:05:42.000Z</time>
      </trkpt>
      <trkpt lat="47.84448" lon="2.1838">
        <ele>152</ele>
        <time>2013-09-29T07:05:46.000Z</time>
      </trkpt>
      <trkpt lat="47.84448" lon="2.1838">
        <ele>152</ele>
        <time>2013-09-29T07:05:48.000Z</time>
      </trkpt>
      <trkpt lat="47.84448" lon="2.1838">
        <ele>152</ele>
        <time>2013-09-29T07:05:50.000Z</time>
      </trkpt>
      <trkpt lat="47.84521" lon="2.1839">
        <ele>149</ele>
        <time>2013-09-29T07:05:56.000Z</time>
      </trkpt>
      <trkpt lat="47.84521" lon="2.1839">
        <ele>149</ele>
        <time>2013-09-29T07:05:58.000Z</time>
      </trkpt>
      <trkpt lat="47.84521" lon="2.1839">
        <ele>149</ele>
        <time>2013-09-29T07:06:00.000Z</time>
      </trkpt>
      <trkpt lat="47.84563" lon="2.18395">
        <ele>148</ele>
        <time>2013-09-29T07:06:04.000Z</time>
      </trkpt>
      <trkpt lat="47.84583" lon="2.18394">
        <ele>148</ele>
        <time>2013-09-29T07:06:08.000Z</time>
      </trkpt>
      <trkpt lat="47.84583" lon="2.18394">
        <ele>148</ele>
        <time>2013-09-29T07:06:10.000Z</time>
      </trkpt>
      <trkpt lat="47.84583" lon="2.18394">
        <ele>148</ele>
        <time>2013-09-29T07:06:12.000Z</time>
      </trkpt>
      <trkpt lat="47.84583" lon="2.18394">
        <ele>148</ele>
        <time>2013-09-29T07:06:14.000Z</time>
      </trkpt>
      <trkpt lat="47.84583" lon="2.18394">
        <ele>148</ele>
        <time>2013-09-29T07:06:16.000Z</time>
      </trkpt>
      <trkpt lat="47.84583" lon="2.18394">
        <ele>148</ele>
        <time>2013-09-29T07:06:18.000Z</time>
      </trkpt>
      <trkpt lat="47.84583" lon="2.18394">
        <ele>148</ele>
        <time>2013-09-29T07:06:20.000Z</time>
      </trkpt>
      <trkpt lat="47.84583" lon="2.18394">
        <ele>148</ele>
        <time>2013-09-29T07:06:22.000Z</time>
      </trkpt>
      <trkpt lat="47.84583" lon="2.18394">
        <ele>148</ele>
        <time>2013-09-29T07:06:24.000Z</time>
      </trkpt>
      <trkpt lat="47.84594" lon="2.18372">
        <ele>154</ele>
        <time>2013-09-29T07:06:28.000Z</time>
      </trkpt>
      <trkpt lat="47.84601" lon="2.18356">
        <ele>154</ele>
        <time>2013-09-29T07:06:30.000Z</time>
      </trkpt>
      <trkpt lat="47.84604" lon="2.18344">
        <ele>154</ele>
        <time>2013-09-29T07:06:32.000Z</time>
      </trkpt>
      <trkpt lat="47.84607" lon="2.18334">
        <ele>155</ele>
        <time>2013-09-29T07:06:34.000Z</time>
      </trkpt>
      <trkpt lat="47.84608" lon="2.18324">
        <ele>155</ele>
        <time>2013-09-29T07:06:36.000Z</time>
      </trkpt>
      <trkpt lat="47.84611" lon="2.18305">
        <ele>155</ele>
        <time>2013-09-29T07:06:38.000Z</time>
      </trkpt>
      <trkpt lat="47.84613" lon="2.18286">
        <ele>156</ele>
        <time>2013-09-29T07:06:42.000Z</time>
      </trkpt>
      <trkpt lat="47.84616" lon="2.18265">
        <ele>157</ele>
        <time>2013-09-29T07:06:46.000Z</time>
      </trkpt>
      <trkpt lat="47.84619" lon="2.18244">
        <ele>158</ele>
        <time>2013-09-29T07:06:50.000Z</time>
      </trkpt>
      <trkpt lat="47.84619" lon="2.18244">
        <ele>158</ele>
        <time>2013-09-29T07:06:52.000Z</time>
      </trkpt>
      <trkpt lat="47.84619" lon="2.18244">
        <ele>158</ele>
        <time>2013-09-29T07:06:54.000Z</time>
      </trkpt>
      <trkpt lat="47.84632" lon="2.18205">
        <ele>156</ele>
        <time>2013-09-29T07:06:58.000Z</time>
      </trkpt>
      <trkpt lat="47.8464" lon="2.18193">
        <ele>155</ele>
        <time>2013-09-29T07:07:00.000Z</time>
      </trkpt>
      <trkpt lat="47.84648" lon="2.1818">
        <ele>154</ele>
        <time>2013-09-29T07:07:02.000Z</time>
      </trkpt>
      <trkpt lat="47.84652" lon="2.18168">
        <ele>155</ele>
        <time>2013-09-29T07:07:04.000Z</time>
      </trkpt>
      <trkpt lat="47.84657" lon="2.18152">
        <ele>155</ele>
        <time>2013-09-29T07:07:06.000Z</time>
      </trkpt>
      <trkpt lat="47.84657" lon="2.18152">
        <ele>155</ele>
        <time>2013-09-29T07:07:09.000Z</time>
      </trkpt>
      <trkpt lat="47.84657" lon="2.18152">
        <ele>155</ele>
        <time>2013-09-29T07:07:11.000Z</time>
      </trkpt>
      <trkpt lat="47.84657" lon="2.18152">
        <ele>155</ele>
        <time>2013-09-29T07:07:13.000Z</time>
      </trkpt>
      <trkpt lat="47.84657" lon="2.18152">
        <ele>155</ele>
        <time>2013-09-29T07:07:17.000Z</time>
      </trkpt>
      <trkpt lat="47.84657" lon="2.18152">
        <ele>155</ele>
        <time>2013-09-29T07:07:19.000Z</time>
      </trkpt>
      <trkpt lat="47.84657" lon="2.18152">
        <ele>155</ele>
        <time>2013-09-29T07:07:21.000Z</time>
      </trkpt>
      <trkpt lat="47.84707" lon="2.18021">
        <ele>157</ele>
        <time>2013-09-29T07:07:27.000Z</time>
      </trkpt>
      <trkpt lat="47.84713" lon="2.18006">
        <ele>158</ele>
        <time>2013-09-29T07:07:29.000Z</time>
      </trkpt>
      <trkpt lat="47.8472" lon="2.17983">
        <ele>158</ele>
        <time>2013-09-29T07:07:33.000Z</time>
      </trkpt>
      <trkpt lat="47.8472" lon="2.17983">
        <ele>158</ele>
        <time>2013-09-29T07:07:35.000Z</time>
      </trkpt>
      <trkpt lat="47.8472" lon="2.17983">
        <ele>158</ele>
        <time>2013-09-29T07:07:37.000Z</time>
      </trkpt>
      <trkpt lat="47.8472" lon="2.17983">
        <ele>158</ele>
        <time>2013-09-29T07:07:39.000Z</time>
      </trkpt>
      <trkpt lat="47.8472" lon="2.17983">
        <ele>158</ele>
        <time>2013-09-29T07:07:41.000Z</time>
      </trkpt>
      <trkpt lat="47.8472" lon="2.17983">
        <ele>158</ele>
        <time>2013-09-29T07:07:43.000Z</time>
      </trkpt>
      <trkpt lat="47.8472" lon="2.17983">
        <ele>158</ele>
        <time>2013-09-29T07:07:45.000Z</time>
      </trkpt>
      <trkpt lat="47.8472" lon="2.17983">
        <ele>158</ele>
        <time>2013-09-29T07:07:47.000Z</time>
      </trkpt>
      <trkpt lat="47.8472" lon="2.17983">
        <ele>158</ele>
        <time>2013-09-29T07:07:49.000Z</time>
      </trkpt>
      <trkpt lat="47.8472" lon="2.17983">
        <ele>158</ele>
        <time>2013-09-29T07:07:51.000Z</time>
      </trkpt>
      <trkpt lat="47.8472" lon="2.17983">
        <ele>158</ele>
        <time>2013-09-29T07:07:53.000Z</time>
      </trkpt>
      <trkpt lat="47.8472" lon="2.17983">
        <ele>158</ele>
        <time>2013-09-29T07:07:55.000Z</time>
      </trkpt>
      <trkpt lat="47.8472" lon="2.17983">
        <ele>158</ele>
        <time>2013-09-29T07:07:57.000Z</time>
      </trkpt>
      <trkpt lat="47.84764" lon="2.17887">
        <ele>160</ele>
        <time>2013-09-29T07:08:01.000Z</time>
      </trkpt>
      <trkpt lat="47.84767" lon="2.17881">
        <ele>160</ele>
        <time>2013-09-29T07:08:05.000Z</time>
      </trkpt>
      <trkpt lat="47.84771" lon="2.17875">
        <ele>160</ele>
        <time>2013-09-29T07:08:07.000Z</time>
      </trkpt>
      <trkpt lat="47.84774" lon="2.17869">
        <ele>159</ele>
        <time>2013-09-29T07:08:09.000Z</time>
      </trkpt>
      <trkpt lat="47.84778" lon="2.17862">
        <ele>159</ele>
        <time>2013-09-29T07:08:11.000Z</time>
      </trkpt>
      <trkpt lat="47.84782" lon="2.17854">
        <ele>159</ele>
        <time>2013-09-29T07:08:13.000Z</time>
      </trkpt>
      <trkpt lat="47.84789" lon="2.17837">
        <ele>159</ele>
        <time>2013-09-29T07:08:15.000Z</time>
      </trkpt>
      <trkpt lat="47.84789" lon="2.17837">
        <ele>159</ele>
        <time>2013-09-29T07:08:17.000Z</time>
      </trkpt>
      <trkpt lat="47.84789" lon="2.17837">
        <ele>159</ele>
        <time>2013-09-29T07:08:19.000Z</time>
      </trkpt>
      <trkpt lat="47.84789" lon="2.17837">
        <ele>159</ele>
        <time>2013-09-29T07:08:21.000Z</time>
      </trkpt>
      <trkpt lat="47.84798" lon="2.17789">
        <ele>159</ele>
        <time>2013-09-29T07:08:27.000Z</time>
      </trkpt>
      <trkpt lat="47.84798" lon="2.17789">
        <ele>159</ele>
        <time>2013-09-29T07:08:29.000Z</time>
      </trkpt>
      <trkpt lat="47.84798" lon="2.17789">
        <ele>159</ele>
        <time>2013-09-29T07:08:31.000Z</time>
      </trkpt>
      <trkpt lat="47.84798" lon="2.17789">
        <ele>159</ele>
        <time>2013-09-29T07:08:33.000Z</time>
      </trkpt>
      <trkpt lat="47.84798" lon="2.17789">
        <ele>159</ele>
        <time>2013-09-29T07:08:35.000Z</time>
      </trkpt>
      <trkpt lat="47.84795" lon="2.17814">
        <ele>157</ele>
        <time>2013-09-29T07:09:26.000Z</time>
      </trkpt>
      <trkpt lat="47.84782" lon="2.17854">
        <ele>158</ele>
        <time>2013-09-29T07:09:31.000Z</time>
      </trkpt>
      <trkpt lat="47.84774" lon="2.17868">
        <ele>157</ele>
        <time>2013-09-29T07:09:33.000Z</time>
      </trkpt>
      <trkpt lat="47.84767" lon="2.17882">
        <ele>157</ele>
        <time>2013-09-29T07:09:35.000Z</time>
      </trkpt>
      <trkpt lat="47.8476" lon="2.17896">
        <ele>157</ele>
        <time>2013-09-29T07:09:37.000Z</time>
      </trkpt>
      <trkpt lat="47.84752" lon="2.17907">
        <ele>157</ele>
        <time>2013-09-29T07:09:39.000Z</time>
      </trkpt>
      <trkpt lat="47.84752" lon="2.17907">
        <ele>157</ele>
        <time>2013-09-29T07:09:41.000Z</time>
      </trkpt>
      <trkpt lat="47.84752" lon="2.17907">
        <ele>157</ele>
        <time>2013-09-29T07:09:43.000Z</time>
      </trkpt>
      <trkpt lat="47.84752" lon="2.17907">
        <ele>157</ele>
        <time>2013-09-29T07:09:45.000Z</time>
      </trkpt>
      <trkpt lat="47.84752" lon="2.17907">
        <ele>157</ele>
        <time>2013-09-29T07:09:47.000Z</time>
      </trkpt>
      <trkpt lat="47.84752" lon="2.17907">
        <ele>157</ele>
        <time>2013-09-29T07:09:49.000Z</time>
      </trkpt>
      <trkpt lat="47.84752" lon="2.17907">
        <ele>157</ele>
        <time>2013-09-29T07:09:51.000Z</time>
      </trkpt>
      <trkpt lat="47.84743" lon="2.17915">
        <ele>159</ele>
        <time>2013-09-29T07:21:09.000Z</time>
      </trkpt>
      <trkpt lat="47.84753" lon="2.17904">
        <ele>160</ele>
        <time>2013-09-29T07:21:13.000Z</time>
      </trkpt>
      <trkpt lat="47.84763" lon="2.17889">
        <ele>160</ele>
        <time>2013-09-29T07:21:17.000Z</time>
      </trkpt>
      <trkpt lat="47.84774" lon="2.17871">
        <ele>160</ele>
        <time>2013-09-29T07:21:21.000Z</time>
      </trkpt>
      <trkpt lat="47.84784" lon="2.1785">
        <ele>160</ele>
        <time>2013-09-29T07:21:25.000Z</time>
      </trkpt>
      <trkpt lat="47.84789" lon="2.17839">
        <ele>160</ele>
        <time>2013-09-29T07:21:27.000Z</time>
      </trkpt>
      <trkpt lat="47.84795" lon="2.17815">
        <ele>160</ele>
        <time>2013-09-29T07:21:31.000Z</time>
      </trkpt>
      <trkpt lat="47.848" lon="2.17789">
        <ele>161</ele>
        <time>2013-09-29T07:21:35.000Z</time>
      </trkpt>
      <trkpt lat="47.84802" lon="2.17776">
        <ele>160</ele>
        <time>2013-09-29T07:21:37.000Z</time>
      </trkpt>
      <trkpt lat="47.84804" lon="2.17762">
        <ele>161</ele>
        <time>2013-09-29T07:21:39.000Z</time>
      </trkpt>
      <trkpt lat="47.84806" lon="2.17748">
        <ele>161</ele>
        <time>2013-09-29T07:21:41.000Z</time>
      </trkpt>
      <trkpt lat="47.84807" lon="2.17734">
        <ele>160</ele>
        <time>2013-09-29T07:21:43.000Z</time>
      </trkpt>
      <trkpt lat="47.84809" lon="2.1772">
        <ele>160</ele>
        <time>2013-09-29T07:21:45.000Z</time>
      </trkpt>
      <trkpt lat="47.84809" lon="2.17706">
        <ele>160</ele>
        <time>2013-09-29T07:21:46.000Z</time>
      </trkpt>
      <trkpt lat="47.84811" lon="2.17691">
        <ele>160</ele>
        <time>2013-09-29T07:21:49.000Z</time>
      </trkpt>
      <trkpt lat="47.84812" lon="2.17677">
        <ele>161</ele>
        <time>2013-09-29T07:21:51.000Z</time>
      </trkpt>
      <trkpt lat="47.84813" lon="2.17662">
        <ele>161</ele>
        <time>2013-09-29T07:21:53.000Z</time>
      </trkpt>
      <trkpt lat="47.84813" lon="2.17647">
        <ele>161</ele>
        <time>2013-09-29T07:21:55.000Z</time>
      </trkpt>
      <trkpt lat="47.84814" lon="2.17633">
        <ele>161</ele>
        <time>2013-09-29T07:21:57.000Z</time>
      </trkpt>
      <trkpt lat="47.84814" lon="2.17633">
        <ele>161</ele>
        <time>2013-09-29T07:21:59.000Z</time>
      </trkpt>
      <trkpt lat="47.84814" lon="2.17633">
        <ele>161</ele>
        <time>2013-09-29T07:22:00.000Z</time>
      </trkpt>
      <trkpt lat="47.84814" lon="2.17633">
        <ele>161</ele>
        <time>2013-09-29T07:22:02.000Z</time>
      </trkpt>
      <trkpt lat="47.84814" lon="2.17633">
        <ele>161</ele>
        <time>2013-09-29T07:22:05.000Z</time>
      </trkpt>
      <trkpt lat="47.84814" lon="2.17633">
        <ele>161</ele>
        <time>2013-09-29T07:22:07.000Z</time>
      </trkpt>
      <trkpt lat="47.84814" lon="2.17633">
        <ele>161</ele>
        <time>2013-09-29T07:22:09.000Z</time>
      </trkpt>
      <trkpt lat="47.84814" lon="2.17633">
        <ele>161</ele>
        <time>2013-09-29T07:22:11.000Z</time>
      </trkpt>
      <trkpt lat="47.84814" lon="2.17633">
        <ele>161</ele>
        <time>2013-09-29T07:22:13.000Z</time>
      </trkpt>
      <trkpt lat="47.84831" lon="2.17504">
        <ele>160</ele>
        <time>2013-09-29T07:22:17.000Z</time>
      </trkpt>
      <trkpt lat="47.84834" lon="2.17487">
        <ele>159</ele>
        <time>2013-09-29T07:22:19.000Z</time>
      </trkpt>
      <trkpt lat="47.84838" lon="2.17471">
        <ele>158</ele>
        <time>2013-09-29T07:22:21.000Z</time>
      </trkpt>
      <trkpt lat="47.84842" lon="2.17454">
        <ele>158</ele>
        <time>2013-09-29T07:22:23.000Z</time>
      </trkpt>
      <trkpt lat="47.84846" lon="2.17437">
        <ele>158</ele>
        <time>2013-09-29T07:22:25.000Z</time>
      </trkpt>
      <trkpt lat="47.84849" lon="2.1742">
        <ele>158</ele>
        <time>2013-09-29T07:22:27.000Z</time>
      </trkpt>
      <trkpt lat="47.84853" lon="2.17407">
        <ele>158</ele>
        <time>2013-09-29T07:22:29.000Z</time>
      </trkpt>
      <trkpt lat="47.84858" lon="2.17394">
        <ele>158</ele>
        <time>2013-09-29T07:22:31.000Z</time>
      </trkpt>
      <trkpt lat="47.84858" lon="2.17394">
        <ele>158</ele>
        <time>2013-09-29T07:22:33.000Z</time>
      </trkpt>
      <trkpt lat="47.84858" lon="2.17394">
        <ele>158</ele>
        <time>2013-09-29T07:22:35.000Z</time>
      </trkpt>
      <trkpt lat="47.84858" lon="2.17394">
        <ele>158</ele>
        <time>2013-09-29T07:22:37.000Z</time>
      </trkpt>
      <trkpt lat="47.84858" lon="2.17394">
        <ele>158</ele>
        <time>2013-09-29T07:22:39.000Z</time>
      </trkpt>
      <trkpt lat="47.84858" lon="2.17394">
        <ele>158</ele>
        <time>2013-09-29T07:22:41.000Z</time>
      </trkpt>
      <trkpt lat="47.84858" lon="2.17394">
        <ele>158</ele>
        <time>2013-09-29T07:22:43.000Z</time>
      </trkpt>
      <trkpt lat="47.84858" lon="2.17394">
        <ele>158</ele>
        <time>2013-09-29T07:22:45.000Z</time>
      </trkpt>
      <trkpt lat="47.84858" lon="2.17394">
        <ele>158</ele>
        <time>2013-09-29T07:22:47.000Z</time>
      </trkpt>
      <trkpt lat="47.84858" lon="2.17394">
        <ele>158</ele>
        <time>2013-09-29T07:22:49.000Z</time>
      </trkpt>
      <trkpt lat="47.84858" lon="2.17394">
        <ele>158</ele>
        <time>2013-09-29T07:22:51.000Z</time>
      </trkpt>
      <trkpt lat="47.8492" lon="2.17271">
        <ele>156</ele>
        <time>2013-09-29T07:22:55.000Z</time>
      </trkpt>
      <trkpt lat="47.84926" lon="2.1726">
        <ele>156</ele>
        <time>2013-09-29T07:22:57.000Z</time>
      </trkpt>
      <trkpt lat="47.84926" lon="2.1726">
        <ele>156</ele>
        <time>2013-09-29T07:22:59.000Z</time>
      </trkpt>
      <trkpt lat="47.84926" lon="2.1726">
        <ele>156</ele>
        <time>2013-09-29T07:23:01.000Z</time>
      </trkpt>
      <trkpt lat="47.84926" lon="2.1726">
        <ele>156</ele>
        <time>2013-09-29T07:23:03.000Z</time>
      </trkpt>
      <trkpt lat="47.84944" lon="2.17242">
        <ele>156</ele>
        <time>2013-09-29T07:23:07.000Z</time>
      </trkpt>
      <trkpt lat="47.84957" lon="2.17228">
        <ele>155</ele>
        <time>2013-09-29T07:23:09.000Z</time>
      </trkpt>
      <trkpt lat="47.84967" lon="2.17217">
        <ele>154</ele>
        <time>2013-09-29T07:23:11.000Z</time>
      </trkpt>
      <trkpt lat="47.84976" lon="2.17207">
        <ele>154</ele>
        <time>2013-09-29T07:23:12.000Z</time>
      </trkpt>
      <trkpt lat="47.84984" lon="2.17197">
        <ele>154</ele>
        <time>2013-09-29T07:23:15.000Z</time>
      </trkpt>
      <trkpt lat="47.84998" lon="2.17178">
        <ele>154</ele>
        <time>2013-09-29T07:23:17.000Z</time>
      </trkpt>
      <trkpt lat="47.85004" lon="2.17167">
        <ele>154</ele>
        <time>2013-09-29T07:23:19.000Z</time>
      </trkpt>
      <trkpt lat="47.85009" lon="2.17156">
        <ele>154</ele>
        <time>2013-09-29T07:23:21.000Z</time>
      </trkpt>
      <trkpt lat="47.85014" lon="2.17144">
        <ele>155</ele>
        <time>2013-09-29T07:23:23.000Z</time>
      </trkpt>
      <trkpt lat="47.85014" lon="2.17144">
        <ele>155</ele>
        <time>2013-09-29T07:23:25.000Z</time>
      </trkpt>
      <trkpt lat="47.85014" lon="2.17144">
        <ele>155</ele>
        <time>2013-09-29T07:23:27.000Z</time>
      </trkpt>
      <trkpt lat="47.85014" lon="2.17144">
        <ele>155</ele>
        <time>2013-09-29T07:23:29.000Z</time>
      </trkpt>
      <trkpt lat="47.85014" lon="2.17144">
        <ele>155</ele>
        <time>2013-09-29T07:23:31.000Z</time>
      </trkpt>
      <trkpt lat="47.85014" lon="2.17144">
        <ele>155</ele>
        <time>2013-09-29T07:23:33.000Z</time>
      </trkpt>
      <trkpt lat="47.85014" lon="2.17144">
        <ele>155</ele>
        <time>2013-09-29T07:23:35.000Z</time>
      </trkpt>
      <trkpt lat="47.85047" lon="2.17058">
        <ele>156</ele>
        <time>2013-09-29T07:23:39.000Z</time>
      </trkpt>
      <trkpt lat="47.85056" lon="2.17037">
        <ele>160</ele>
        <time>2013-09-29T07:23:43.000Z</time>
      </trkpt>
      <trkpt lat="47.85056" lon="2.17037">
        <ele>160</ele>
        <time>2013-09-29T07:23:45.000Z</time>
      </trkpt>
      <trkpt lat="47.85085" lon="2.16984">
        <ele>160</ele>
        <time>2013-09-29T07:23:53.000Z</time>
      </trkpt>
      <trkpt lat="47.85093" lon="2.16962">
        <ele>160</ele>
        <time>2013-09-29T07:23:57.000Z</time>
      </trkpt>
      <trkpt lat="47.85099" lon="2.16951">
        <ele>159</ele>
        <time>2013-09-29T07:23:59.000Z</time>
      </trkpt>
      <trkpt lat="47.85099" lon="2.16951">
        <ele>159</ele>
        <time>2013-09-29T07:24:01.000Z</time>
      </trkpt>
      <trkpt lat="47.85116" lon="2.16936">
        <ele>159</ele>
        <time>2013-09-29T07:24:03.000Z</time>
      </trkpt>
      <trkpt lat="47.85123" lon="2.16927">
        <ele>159</ele>
        <time>2013-09-29T07:24:05.000Z</time>
      </trkpt>
      <trkpt lat="47.85126" lon="2.16913">
        <ele>159</ele>
        <time>2013-09-29T07:24:07.000Z</time>
      </trkpt>
      <trkpt lat="47.85126" lon="2.16913">
        <ele>159</ele>
        <time>2013-09-29T07:24:11.000Z</time>
      </trkpt>
      <trkpt lat="47.85126" lon="2.16913">
        <ele>159</ele>
        <time>2013-09-29T07:24:14.000Z</time>
      </trkpt>
      <trkpt lat="47.85147" lon="2.16848">
        <ele>162</ele>
        <time>2013-09-29T07:24:18.000Z</time>
      </trkpt>
      <trkpt lat="47.85152" lon="2.16836">
        <ele>162</ele>
        <time>2013-09-29T07:24:20.000Z</time>
      </trkpt>
      <trkpt lat="47.85152" lon="2.16836">
        <ele>162</ele>
        <time>2013-09-29T07:24:22.000Z</time>
      </trkpt>
      <trkpt lat="47.85152" lon="2.16836">
        <ele>162</ele>
        <time>2013-09-29T07:24:24.000Z</time>
      </trkpt>
      <trkpt lat="47.85152" lon="2.16836">
        <ele>162</ele>
        <time>2013-09-29T07:24:26.000Z</time>
      </trkpt>
      <trkpt lat="47.85152" lon="2.16836">
        <ele>162</ele>
        <time>2013-09-29T07:24:28.000Z</time>
      </trkpt>
      <trkpt lat="47.85174" lon="2.16772">
        <ele>161</ele>
        <time>2013-09-29T07:24:30.000Z</time>
      </trkpt>
      <trkpt lat="47.85179" lon="2.16758">
        <ele>161</ele>
        <time>2013-09-29T07:24:32.000Z</time>
      </trkpt>
      <trkpt lat="47.85183" lon="2.16745">
        <ele>161</ele>
        <time>2013-09-29T07:24:34.000Z</time>
      </trkpt>
      <trkpt lat="47.8519" lon="2.16733">
        <ele>161</ele>
        <time>2013-09-29T07:24:36.000Z</time>
      </trkpt>
      <trkpt lat="47.85199" lon="2.16725">
        <ele>161</ele>
        <time>2013-09-29T07:24:38.000Z</time>
      </trkpt>
      <trkpt lat="47.85209" lon="2.16724">
        <ele>161</ele>
        <time>2013-09-29T07:24:40.000Z</time>
      </trkpt>
      <trkpt lat="47.85209" lon="2.16724">
        <ele>161</ele>
        <time>2013-09-29T07:24:42.000Z</time>
      </trkpt>
      <trkpt lat="47.85209" lon="2.16724">
        <ele>161</ele>
        <time>2013-09-29T07:24:44.000Z</time>
      </trkpt>
      <trkpt lat="47.85209" lon="2.16724">
        <ele>161</ele>
        <time>2013-09-29T07:24:46.000Z</time>
      </trkpt>
      <trkpt lat="47.85248" lon="2.16669">
        <ele>157</ele>
        <time>2013-09-29T07:24:50.000Z</time>
      </trkpt>
      <trkpt lat="47.85254" lon="2.16658">
        <ele>156</ele>
        <time>2013-09-29T07:24:52.000Z</time>
      </trkpt>
      <trkpt lat="47.85261" lon="2.16647">
        <ele>156</ele>
        <time>2013-09-29T07:24:54.000Z</time>
      </trkpt>
      <trkpt lat="47.85266" lon="2.16636">
        <ele>156</ele>
        <time>2013-09-29T07:24:56.000Z</time>
      </trkpt>
      <trkpt lat="47.85266" lon="2.16636">
        <ele>156</ele>
        <time>2013-09-29T07:24:58.000Z</time>
      </trkpt>
      <trkpt lat="47.85266" lon="2.16636">
        <ele>156</ele>
        <time>2013-09-29T07:25:00.000Z</time>
      </trkpt>
      <trkpt lat="47.85266" lon="2.16636">
        <ele>156</ele>
        <time>2013-09-29T07:25:02.000Z</time>
      </trkpt>
      <trkpt lat="47.85266" lon="2.16636">
        <ele>156</ele>
        <time>2013-09-29T07:25:04.000Z</time>
      </trkpt>
      <trkpt lat="47.85266" lon="2.16636">
        <ele>156</ele>
        <time>2013-09-29T07:25:06.000Z</time>
      </trkpt>
      <trkpt lat="47.85266" lon="2.16636">
        <ele>156</ele>
        <time>2013-09-29T07:25:08.000Z</time>
      </trkpt>
      <trkpt lat="47.85266" lon="2.16636">
        <ele>156</ele>
        <time>2013-09-29T07:25:10.000Z</time>
      </trkpt>
      <trkpt lat="47.85266" lon="2.16636">
        <ele>156</ele>
        <time>2013-09-29T07:25:12.000Z</time>
      </trkpt>
      <trkpt lat="47.85266" lon="2.16636">
        <ele>156</ele>
        <time>2013-09-29T07:25:14.000Z</time>
      </trkpt>
      <trkpt lat="47.85266" lon="2.16636">
        <ele>156</ele>
        <time>2013-09-29T07:25:16.000Z</time>
      </trkpt>
      <trkpt lat="47.85266" lon="2.16636">
        <ele>156</ele>
        <time>2013-09-29T07:25:18.000Z</time>
      </trkpt>
      <trkpt lat="47.85266" lon="2.16636">
        <ele>156</ele>
        <time>2013-09-29T07:25:20.000Z</time>
      </trkpt>
      <trkpt lat="47.85299" lon="2.16578">
        <ele>158</ele>
        <time>2013-09-29T07:25:26.000Z</time>
      </trkpt>
      <trkpt lat="47.85318" lon="2.16547">
        <ele>157</ele>
        <time>2013-09-29T07:25:28.000Z</time>
      </trkpt>
      <trkpt lat="47.8533" lon="2.16528">
        <ele>157</ele>
        <time>2013-09-29T07:25:30.000Z</time>
      </trkpt>
      <trkpt lat="47.85338" lon="2.16515">
        <ele>157</ele>
        <time>2013-09-29T07:25:32.000Z</time>
      </trkpt>
      <trkpt lat="47.85344" lon="2.16505">
        <ele>157</ele>
        <time>2013-09-29T07:25:34.000Z</time>
      </trkpt>
      <trkpt lat="47.85355" lon="2.16488">
        <ele>157</ele>
        <time>2013-09-29T07:25:36.000Z</time>
      </trkpt>
      <trkpt lat="47.85366" lon="2.16474">
        <ele>156</ele>
        <time>2013-09-29T07:25:40.000Z</time>
      </trkpt>
      <trkpt lat="47.85376" lon="2.16455">
        <ele>156</ele>
        <time>2013-09-29T07:25:44.000Z</time>
      </trkpt>
      <trkpt lat="47.85383" lon="2.16446">
        <ele>156</ele>
        <time>2013-09-29T07:25:46.000Z</time>
      </trkpt>
      <trkpt lat="47.8539" lon="2.16437">
        <ele>155</ele>
        <time>2013-09-29T07:25:48.000Z</time>
      </trkpt>
      <trkpt lat="47.85396" lon="2.16427">
        <ele>155</ele>
        <time>2013-09-29T07:25:50.000Z</time>
      </trkpt>
      <trkpt lat="47.85403" lon="2.16418">
        <ele>155</ele>
        <time>2013-09-29T07:25:52.000Z</time>
      </trkpt>
      <trkpt lat="47.85414" lon="2.16399">
        <ele>154</ele>
        <time>2013-09-29T07:25:56.000Z</time>
      </trkpt>
      <trkpt lat="47.85414" lon="2.16399">
        <ele>154</ele>
        <time>2013-09-29T07:25:58.000Z</time>
      </trkpt>
      <trkpt lat="47.85426" lon="2.16373">
        <ele>154</ele>
        <time>2013-09-29T07:26:00.000Z</time>
      </trkpt>
      <trkpt lat="47.85431" lon="2.16361">
        <ele>154</ele>
        <time>2013-09-29T07:26:03.000Z</time>
      </trkpt>
      <trkpt lat="47.85431" lon="2.16361">
        <ele>154</ele>
        <time>2013-09-29T07:26:05.000Z</time>
      </trkpt>
      <trkpt lat="47.85442" lon="2.16342">
        <ele>155</ele>
        <time>2013-09-29T07:26:07.000Z</time>
      </trkpt>
      <trkpt lat="47.85442" lon="2.16342">
        <ele>155</ele>
        <time>2013-09-29T07:26:09.000Z</time>
      </trkpt>
      <trkpt lat="47.85442" lon="2.16342">
        <ele>155</ele>
        <time>2013-09-29T07:26:11.000Z</time>
      </trkpt>
      <trkpt lat="47.85442" lon="2.16342">
        <ele>155</ele>
        <time>2013-09-29T07:26:13.000Z</time>
      </trkpt>
      <trkpt lat="47.85442" lon="2.16342">
        <ele>155</ele>
        <time>2013-09-29T07:26:15.000Z</time>
      </trkpt>
      <trkpt lat="47.85442" lon="2.16342">
        <ele>155</ele>
        <time>2013-09-29T07:26:17.000Z</time>
      </trkpt>
      <trkpt lat="47.85442" lon="2.16342">
        <ele>155</ele>
        <time>2013-09-29T07:26:19.000Z</time>
      </trkpt>
      <trkpt lat="47.85485" lon="2.16242">
        <ele>158</ele>
        <time>2013-09-29T07:26:27.000Z</time>
      </trkpt>
      <trkpt lat="47.85492" lon="2.1622">
        <ele>157</ele>
        <time>2013-09-29T07:26:31.000Z</time>
      </trkpt>
      <trkpt lat="47.85492" lon="2.1622">
        <ele>157</ele>
        <time>2013-09-29T07:26:33.000Z</time>
      </trkpt>
      <trkpt lat="47.85492" lon="2.1622">
        <ele>157</ele>
        <time>2013-09-29T07:26:35.000Z</time>
      </trkpt>
      <trkpt lat="47.85509" lon="2.16168">
        <ele>156</ele>
        <time>2013-09-29T07:26:39.000Z</time>
      </trkpt>
      <trkpt lat="47.85511" lon="2.16155">
        <ele>156</ele>
        <time>2013-09-29T07:26:41.000Z</time>
      </trkpt>
      <trkpt lat="47.85514" lon="2.16143">
        <ele>157</ele>
        <time>2013-09-29T07:26:43.000Z</time>
      </trkpt>
      <trkpt lat="47.85514" lon="2.16143">
        <ele>157</ele>
        <time>2013-09-29T07:26:45.000Z</time>
      </trkpt>
      <trkpt lat="47.85514" lon="2.16143">
        <ele>157</ele>
        <time>2013-09-29T07:26:47.000Z</time>
      </trkpt>
      <trkpt lat="47.85514" lon="2.16143">
        <ele>157</ele>
        <time>2013-09-29T07:26:49.000Z</time>
      </trkpt>
      <trkpt lat="47.85514" lon="2.16143">
        <ele>157</ele>
        <time>2013-09-29T07:26:51.000Z</time>
      </trkpt>
      <trkpt lat="47.85514" lon="2.16143">
        <ele>157</ele>
        <time>2013-09-29T07:26:53.000Z</time>
      </trkpt>
      <trkpt lat="47.85514" lon="2.16143">
        <ele>157</ele>
        <time>2013-09-29T07:26:55.000Z</time>
      </trkpt>
      <trkpt lat="47.85514" lon="2.16143">
        <ele>157</ele>
        <time>2013-09-29T07:26:57.000Z</time>
      </trkpt>
      <trkpt lat="47.85514" lon="2.16143">
        <ele>157</ele>
        <time>2013-09-29T07:26:59.000Z</time>
      </trkpt>
      <trkpt lat="47.85514" lon="2.16143">
        <ele>157</ele>
        <time>2013-09-29T07:27:01.000Z</time>
      </trkpt>
      <trkpt lat="47.85514" lon="2.16143">
        <ele>157</ele>
        <time>2013-09-29T07:27:03.000Z</time>
      </trkpt>
      <trkpt lat="47.85546" lon="2.16018">
        <ele>156</ele>
        <time>2013-09-29T07:27:07.000Z</time>
      </trkpt>
      <trkpt lat="47.85548" lon="2.16008">
        <ele>156</ele>
        <time>2013-09-29T07:27:11.000Z</time>
      </trkpt>
      <trkpt lat="47.85551" lon="2.15996">
        <ele>158</ele>
        <time>2013-09-29T07:27:13.000Z</time>
      </trkpt>
      <trkpt lat="47.85556" lon="2.15984">
        <ele>155</ele>
        <time>2013-09-29T07:27:15.000Z</time>
      </trkpt>
      <trkpt lat="47.8556" lon="2.15972">
        <ele>155</ele>
        <time>2013-09-29T07:27:17.000Z</time>
      </trkpt>
      <trkpt lat="47.85563" lon="2.1596">
        <ele>154</ele>
        <time>2013-09-29T07:27:19.000Z</time>
      </trkpt>
      <trkpt lat="47.85567" lon="2.15936">
        <ele>155</ele>
        <time>2013-09-29T07:27:21.000Z</time>
      </trkpt>
      <trkpt lat="47.85567" lon="2.15936">
        <ele>155</ele>
        <time>2013-09-29T07:27:23.000Z</time>
      </trkpt>
      <trkpt lat="47.85567" lon="2.15936">
        <ele>155</ele>
        <time>2013-09-29T07:27:25.000Z</time>
      </trkpt>
      <trkpt lat="47.85567" lon="2.15936">
        <ele>155</ele>
        <time>2013-09-29T07:27:27.000Z</time>
      </trkpt>
      <trkpt lat="47.85567" lon="2.15936">
        <ele>155</ele>
        <time>2013-09-29T07:27:29.000Z</time>
      </trkpt>
      <trkpt lat="47.85567" lon="2.15936">
        <ele>155</ele>
        <time>2013-09-29T07:27:31.000Z</time>
      </trkpt>
      <trkpt lat="47.85584" lon="2.15854">
        <ele>154</ele>
        <time>2013-09-29T07:27:35.000Z</time>
      </trkpt>
      <trkpt lat="47.85585" lon="2.1584">
        <ele>154</ele>
        <time>2013-09-29T07:27:37.000Z</time>
      </trkpt>
      <trkpt lat="47.85586" lon="2.15825">
        <ele>152</ele>
        <time>2013-09-29T07:27:39.000Z</time>
      </trkpt>
      <trkpt lat="47.85588" lon="2.15811">
        <ele>152</ele>
        <time>2013-09-29T07:27:41.000Z</time>
      </trkpt>
      <trkpt lat="47.85588" lon="2.1579">
        <ele>153</ele>
        <time>2013-09-29T07:27:45.000Z</time>
      </trkpt>
      <trkpt lat="47.85588" lon="2.1579">
        <ele>153</ele>
        <time>2013-09-29T07:27:47.000Z</time>
      </trkpt>
      <trkpt lat="47.85588" lon="2.1579">
        <ele>153</ele>
        <time>2013-09-29T07:27:49.000Z</time>
      </trkpt>
      <trkpt lat="47.85588" lon="2.1579">
        <ele>153</ele>
        <time>2013-09-29T07:27:51.000Z</time>
      </trkpt>
      <trkpt lat="47.85588" lon="2.1579">
        <ele>153</ele>
        <time>2013-09-29T07:27:53.000Z</time>
      </trkpt>
      <trkpt lat="47.856" lon="2.15711">
        <ele>150</ele>
        <time>2013-09-29T07:27:57.000Z</time>
      </trkpt>
      <trkpt lat="47.85602" lon="2.15696">
        <ele>150</ele>
        <time>2013-09-29T07:27:59.000Z</time>
      </trkpt>
      <trkpt lat="47.85604" lon="2.15681">
        <ele>150</ele>
        <time>2013-09-29T07:28:00.000Z</time>
      </trkpt>
      <trkpt lat="47.85607" lon="2.15669">
        <ele>150</ele>
        <time>2013-09-29T07:28:03.000Z</time>
      </trkpt>
      <trkpt lat="47.85611" lon="2.15655">
        <ele>151</ele>
        <time>2013-09-29T07:28:04.000Z</time>
      </trkpt>
      <trkpt lat="47.85611" lon="2.15655">
        <ele>151</ele>
        <time>2013-09-29T07:28:07.000Z</time>
      </trkpt>
      <trkpt lat="47.85611" lon="2.15655">
        <ele>151</ele>
        <time>2013-09-29T07:28:09.000Z</time>
      </trkpt>
      <trkpt lat="47.85611" lon="2.15655">
        <ele>151</ele>
        <time>2013-09-29T07:28:11.000Z</time>
      </trkpt>
      <trkpt lat="47.85611" lon="2.15655">
        <ele>151</ele>
        <time>2013-09-29T07:28:13.000Z</time>
      </trkpt>
      <trkpt lat="47.85611" lon="2.15655">
        <ele>151</ele>
        <time>2013-09-29T07:28:15.000Z</time>
      </trkpt>
      <trkpt lat="47.85627" lon="2.1556">
        <ele>153</ele>
        <time>2013-09-29T07:28:19.000Z</time>
      </trkpt>
      <trkpt lat="47.85627" lon="2.1556">
        <ele>153</ele>
        <time>2013-09-29T07:28:21.000Z</time>
      </trkpt>
      <trkpt lat="47.85627" lon="2.1556">
        <ele>153</ele>
        <time>2013-09-29T07:28:23.000Z</time>
      </trkpt>
      <trkpt lat="47.85627" lon="2.1556">
        <ele>153</ele>
        <time>2013-09-29T07:28:25.000Z</time>
      </trkpt>
      <trkpt lat="47.85627" lon="2.1556">
        <ele>153</ele>
        <time>2013-09-29T07:28:27.000Z</time>
      </trkpt>
      <trkpt lat="47.85627" lon="2.1556">
        <ele>153</ele>
        <time>2013-09-29T07:28:29.000Z</time>
      </trkpt>
      <trkpt lat="47.85627" lon="2.1556">
        <ele>153</ele>
        <time>2013-09-29T07:28:31.000Z</time>
      </trkpt>
      <trkpt lat="47.85627" lon="2.1556">
        <ele>153</ele>
        <time>2013-09-29T07:28:33.000Z</time>
      </trkpt>
      <trkpt lat="47.85627" lon="2.1556">
        <ele>153</ele>
        <time>2013-09-29T07:28:35.000Z</time>
      </trkpt>
      <trkpt lat="47.85635" lon="2.155">
        <ele>154</ele>
        <time>2013-09-29T07:30:23.000Z</time>
      </trkpt>
      <trkpt lat="47.85636" lon="2.15485">
        <ele>155</ele>
        <time>2013-09-29T07:30:26.000Z</time>
      </trkpt>
      <trkpt lat="47.85643" lon="2.15463">
        <ele>156</ele>
        <time>2013-09-29T07:30:30.000Z</time>
      </trkpt>
      <trkpt lat="47.85643" lon="2.15463">
        <ele>156</ele>
        <time>2013-09-29T07:30:32.000Z</time>
      </trkpt>
      <trkpt lat="47.85646" lon="2.1544">
        <ele>158</ele>
        <time>2013-09-29T07:30:34.000Z</time>
      </trkpt>
      <trkpt lat="47.85648" lon="2.15426">
        <ele>158</ele>
        <time>2013-09-29T07:30:36.000Z</time>
      </trkpt>
      <trkpt lat="47.85652" lon="2.15398">
        <ele>161</ele>
        <time>2013-09-29T07:30:40.000Z</time>
      </trkpt>
      <trkpt lat="47.85657" lon="2.15372">
        <ele>160</ele>
        <time>2013-09-29T07:30:44.000Z</time>
      </trkpt>
      <trkpt lat="47.85662" lon="2.15351">
        <ele>160</ele>
        <time>2013-09-29T07:30:48.000Z</time>
      </trkpt>
      <trkpt lat="47.85662" lon="2.15351">
        <ele>160</ele>
        <time>2013-09-29T07:30:50.000Z</time>
      </trkpt>
      <trkpt lat="47.85662" lon="2.15351">
        <ele>160</ele>
        <time>2013-09-29T07:30:52.000Z</time>
      </trkpt>
      <trkpt lat="47.85662" lon="2.15351">
        <ele>160</ele>
        <time>2013-09-29T07:30:54.000Z</time>
      </trkpt>
      <trkpt lat="47.85678" lon="2.15284">
        <ele>155</ele>
        <time>2013-09-29T07:30:59.000Z</time>
      </trkpt>
      <trkpt lat="47.85683" lon="2.15268">
        <ele>155</ele>
        <time>2013-09-29T07:31:00.000Z</time>
      </trkpt>
      <trkpt lat="47.85687" lon="2.15253">
        <ele>155</ele>
        <time>2013-09-29T07:31:03.000Z</time>
      </trkpt>
      <trkpt lat="47.85692" lon="2.15234">
        <ele>155</ele>
        <time>2013-09-29T07:31:05.000Z</time>
      </trkpt>
      <trkpt lat="47.85696" lon="2.15219">
        <ele>155</ele>
        <time>2013-09-29T07:31:07.000Z</time>
      </trkpt>
      <trkpt lat="47.85703" lon="2.15193">
        <ele>156</ele>
        <time>2013-09-29T07:31:11.000Z</time>
      </trkpt>
      <trkpt lat="47.85707" lon="2.15175">
        <ele>156</ele>
        <time>2013-09-29T07:31:12.000Z</time>
      </trkpt>
      <trkpt lat="47.85714" lon="2.15148">
        <ele>157</ele>
        <time>2013-09-29T07:31:17.000Z</time>
      </trkpt>
      <trkpt lat="47.85714" lon="2.15148">
        <ele>157</ele>
        <time>2013-09-29T07:31:19.000Z</time>
      </trkpt>
      <trkpt lat="47.85714" lon="2.15148">
        <ele>157</ele>
        <time>2013-09-29T07:31:21.000Z</time>
      </trkpt>
      <trkpt lat="47.85714" lon="2.15148">
        <ele>157</ele>
        <time>2013-09-29T07:31:23.000Z</time>
      </trkpt>
      <trkpt lat="47.85714" lon="2.15148">
        <ele>157</ele>
        <time>2013-09-29T07:31:25.000Z</time>
      </trkpt>
      <trkpt lat="47.85714" lon="2.15148">
        <ele>157</ele>
        <time>2013-09-29T07:31:27.000Z</time>
      </trkpt>
      <trkpt lat="47.85733" lon="2.15039">
        <ele>156</ele>
        <time>2013-09-29T07:31:35.000Z</time>
      </trkpt>
      <trkpt lat="47.85735" lon="2.15023">
        <ele>156</ele>
        <time>2013-09-29T07:31:37.000Z</time>
      </trkpt>
      <trkpt lat="47.85736" lon="2.15008">
        <ele>159</ele>
        <time>2013-09-29T07:31:39.000Z</time>
      </trkpt>
      <trkpt lat="47.85738" lon="2.14994">
        <ele>159</ele>
        <time>2013-09-29T07:31:41.000Z</time>
      </trkpt>
      <trkpt lat="47.8574" lon="2.14979">
        <ele>159</ele>
        <time>2013-09-29T07:31:43.000Z</time>
      </trkpt>
      <trkpt lat="47.85741" lon="2.14965">
        <ele>159</ele>
        <time>2013-09-29T07:31:45.000Z</time>
      </trkpt>
      <trkpt lat="47.85744" lon="2.14951">
        <ele>159</ele>
        <time>2013-09-29T07:31:47.000Z</time>
      </trkpt>
      <trkpt lat="47.85749" lon="2.14938">
        <ele>157</ele>
        <time>2013-09-29T07:31:49.000Z</time>
      </trkpt>
      <trkpt lat="47.85756" lon="2.14928">
        <ele>158</ele>
        <time>2013-09-29T07:31:51.000Z</time>
      </trkpt>
      <trkpt lat="47.85756" lon="2.14928">
        <ele>158</ele>
        <time>2013-09-29T07:31:53.000Z</time>
      </trkpt>
      <trkpt lat="47.85756" lon="2.14928">
        <ele>158</ele>
        <time>2013-09-29T07:31:55.000Z</time>
      </trkpt>
      <trkpt lat="47.85756" lon="2.14928">
        <ele>158</ele>
        <time>2013-09-29T07:31:57.000Z</time>
      </trkpt>
      <trkpt lat="47.85773" lon="2.14856">
        <ele>157</ele>
        <time>2013-09-29T07:32:03.000Z</time>
      </trkpt>
      <trkpt lat="47.85773" lon="2.14856">
        <ele>157</ele>
        <time>2013-09-29T07:32:05.000Z</time>
      </trkpt>
      <trkpt lat="47.85775" lon="2.14833">
        <ele>157</ele>
        <time>2013-09-29T07:32:07.000Z</time>
      </trkpt>
      <trkpt lat="47.85775" lon="2.14833">
        <ele>157</ele>
        <time>2013-09-29T07:32:09.000Z</time>
      </trkpt>
      <trkpt lat="47.85775" lon="2.14833">
        <ele>157</ele>
        <time>2013-09-29T07:32:11.000Z</time>
      </trkpt>
      <trkpt lat="47.85775" lon="2.14833">
        <ele>157</ele>
        <time>2013-09-29T07:32:12.000Z</time>
      </trkpt>
      <trkpt lat="47.85775" lon="2.14833">
        <ele>157</ele>
        <time>2013-09-29T07:32:15.000Z</time>
      </trkpt>
      <trkpt lat="47.85775" lon="2.14833">
        <ele>157</ele>
        <time>2013-09-29T07:32:17.000Z</time>
      </trkpt>
      <trkpt lat="47.85775" lon="2.14833">
        <ele>157</ele>
        <time>2013-09-29T07:32:19.000Z</time>
      </trkpt>
      <trkpt lat="47.85788" lon="2.14792">
        <ele>161</ele>
        <time>2013-09-29T07:32:23.000Z</time>
      </trkpt>
      <trkpt lat="47.85797" lon="2.14763">
        <ele>162</ele>
        <time>2013-09-29T07:32:25.000Z</time>
      </trkpt>
      <trkpt lat="47.85804" lon="2.1474">
        <ele>162</ele>
        <time>2013-09-29T07:32:27.000Z</time>
      </trkpt>
      <trkpt lat="47.85809" lon="2.1472">
        <ele>163</ele>
        <time>2013-09-29T07:32:28.000Z</time>
      </trkpt>
      <trkpt lat="47.85812" lon="2.14703">
        <ele>162</ele>
        <time>2013-09-29T07:32:31.000Z</time>
      </trkpt>
      <trkpt lat="47.85819" lon="2.14667">
        <ele>162</ele>
        <time>2013-09-29T07:32:33.000Z</time>
      </trkpt>
      <trkpt lat="47.85819" lon="2.14667">
        <ele>162</ele>
        <time>2013-09-29T07:32:35.000Z</time>
      </trkpt>
      <trkpt lat="47.85825" lon="2.14637">
        <ele>161</ele>
        <time>2013-09-29T07:32:37.000Z</time>
      </trkpt>
      <trkpt lat="47.85825" lon="2.14637">
        <ele>161</ele>
        <time>2013-09-29T07:32:39.000Z</time>
      </trkpt>
      <trkpt lat="47.85825" lon="2.14637">
        <ele>161</ele>
        <time>2013-09-29T07:32:41.000Z</time>
      </trkpt>
      <trkpt lat="47.85839" lon="2.14578">
        <ele>160</ele>
        <time>2013-09-29T07:32:45.000Z</time>
      </trkpt>
      <trkpt lat="47.85843" lon="2.14564">
        <ele>159</ele>
        <time>2013-09-29T07:32:47.000Z</time>
      </trkpt>
      <trkpt lat="47.85843" lon="2.14564">
        <ele>159</ele>
        <time>2013-09-29T07:32:49.000Z</time>
      </trkpt>
      <trkpt lat="47.85843" lon="2.14564">
        <ele>159</ele>
        <time>2013-09-29T07:32:51.000Z</time>
      </trkpt>
      <trkpt lat="47.85843" lon="2.14564">
        <ele>159</ele>
        <time>2013-09-29T07:32:53.000Z</time>
      </trkpt>
      <trkpt lat="47.85843" lon="2.14564">
        <ele>159</ele>
        <time>2013-09-29T07:32:55.000Z</time>
      </trkpt>
      <trkpt lat="47.85843" lon="2.14564">
        <ele>159</ele>
        <time>2013-09-29T07:32:57.000Z</time>
      </trkpt>
      <trkpt lat="47.85843" lon="2.14564">
        <ele>159</ele>
        <time>2013-09-29T07:33:03.000Z</time>
      </trkpt>
      <trkpt lat="47.85883" lon="2.14417">
        <ele>160</ele>
        <time>2013-09-29T07:33:10.000Z</time>
      </trkpt>
      <trkpt lat="47.85888" lon="2.14393">
        <ele>160</ele>
        <time>2013-09-29T07:33:14.000Z</time>
      </trkpt>
      <trkpt lat="47.85892" lon="2.14368">
        <ele>159</ele>
        <time>2013-09-29T07:33:18.000Z</time>
      </trkpt>
      <trkpt lat="47.85892" lon="2.14368">
        <ele>159</ele>
        <time>2013-09-29T07:33:20.000Z</time>
      </trkpt>
      <trkpt lat="47.85905" lon="2.14348">
        <ele>159</ele>
        <time>2013-09-29T07:33:22.000Z</time>
      </trkpt>
      <trkpt lat="47.85905" lon="2.14348">
        <ele>159</ele>
        <time>2013-09-29T07:33:24.000Z</time>
      </trkpt>
      <trkpt lat="47.85905" lon="2.14348">
        <ele>159</ele>
        <time>2013-09-29T07:33:26.000Z</time>
      </trkpt>
      <trkpt lat="47.8593" lon="2.14291">
        <ele>156</ele>
        <time>2013-09-29T07:33:32.000Z</time>
      </trkpt>
      <trkpt lat="47.8593" lon="2.14291">
        <ele>156</ele>
        <time>2013-09-29T07:33:34.000Z</time>
      </trkpt>
      <trkpt lat="47.8593" lon="2.14291">
        <ele>156</ele>
        <time>2013-09-29T07:33:36.000Z</time>
      </trkpt>
      <trkpt lat="47.8593" lon="2.14291">
        <ele>156</ele>
        <time>2013-09-29T07:33:38.000Z</time>
      </trkpt>
      <trkpt lat="47.8593" lon="2.14291">
        <ele>156</ele>
        <time>2013-09-29T07:33:40.000Z</time>
      </trkpt>
      <trkpt lat="47.8593" lon="2.14291">
        <ele>156</ele>
        <time>2013-09-29T07:33:42.000Z</time>
      </trkpt>
      <trkpt lat="47.85958" lon="2.14209">
        <ele>155</ele>
        <time>2013-09-29T07:33:46.000Z</time>
      </trkpt>
      <trkpt lat="47.85966" lon="2.14183">
        <ele>154</ele>
        <time>2013-09-29T07:33:50.000Z</time>
      </trkpt>
      <trkpt lat="47.85971" lon="2.14168">
        <ele>154</ele>
        <time>2013-09-29T07:33:52.000Z</time>
      </trkpt>
      <trkpt lat="47.85978" lon="2.1415">
        <ele>157</ele>
        <time>2013-09-29T07:33:54.000Z</time>
      </trkpt>
      <trkpt lat="47.85981" lon="2.14137">
        <ele>158</ele>
        <time>2013-09-29T07:33:56.000Z</time>
      </trkpt>
      <trkpt lat="47.85986" lon="2.14124">
        <ele>159</ele>
        <time>2013-09-29T07:33:58.000Z</time>
      </trkpt>
      <trkpt lat="47.85986" lon="2.14124">
        <ele>159</ele>
        <time>2013-09-29T07:34:00.000Z</time>
      </trkpt>
      <trkpt lat="47.85986" lon="2.14124">
        <ele>159</ele>
        <time>2013-09-29T07:34:02.000Z</time>
      </trkpt>
      <trkpt lat="47.85986" lon="2.14124">
        <ele>159</ele>
        <time>2013-09-29T07:34:04.000Z</time>
      </trkpt>
      <trkpt lat="47.85986" lon="2.14124">
        <ele>159</ele>
        <time>2013-09-29T07:34:06.000Z</time>
      </trkpt>
      <trkpt lat="47.85986" lon="2.14124">
        <ele>159</ele>
        <time>2013-09-29T07:34:08.000Z</time>
      </trkpt>
      <trkpt lat="47.86002" lon="2.1408">
        <ele>160</ele>
        <time>2013-09-29T07:34:12.000Z</time>
      </trkpt>
      <trkpt lat="47.86011" lon="2.1405">
        <ele>160</ele>
        <time>2013-09-29T07:34:14.000Z</time>
      </trkpt>
      <trkpt lat="47.86018" lon="2.14027">
        <ele>161</ele>
        <time>2013-09-29T07:34:16.000Z</time>
      </trkpt>
      <trkpt lat="47.86023" lon="2.14011">
        <ele>161</ele>
        <time>2013-09-29T07:34:18.000Z</time>
      </trkpt>
      <trkpt lat="47.86028" lon="2.13996">
        <ele>161</ele>
        <time>2013-09-29T07:34:20.000Z</time>
      </trkpt>
      <trkpt lat="47.86028" lon="2.13996">
        <ele>161</ele>
        <time>2013-09-29T07:34:22.000Z</time>
      </trkpt>
      <trkpt lat="47.86028" lon="2.13996">
        <ele>161</ele>
        <time>2013-09-29T07:34:24.000Z</time>
      </trkpt>
      <trkpt lat="47.86028" lon="2.13996">
        <ele>161</ele>
        <time>2013-09-29T07:34:26.000Z</time>
      </trkpt>
      <trkpt lat="47.86028" lon="2.13996">
        <ele>161</ele>
        <time>2013-09-29T07:34:28.000Z</time>
      </trkpt>
      <trkpt lat="47.86028" lon="2.13996">
        <ele>161</ele>
        <time>2013-09-29T07:34:30.000Z</time>
      </trkpt>
      <trkpt lat="47.8607" lon="2.13889">
        <ele>158</ele>
        <time>2013-09-29T07:34:34.000Z</time>
      </trkpt>
      <trkpt lat="47.86076" lon="2.13874">
        <ele>159</ele>
        <time>2013-09-29T07:34:36.000Z</time>
      </trkpt>
      <trkpt lat="47.86084" lon="2.13859">
        <ele>159</ele>
        <time>2013-09-29T07:34:38.000Z</time>
      </trkpt>
      <trkpt lat="47.86091" lon="2.13846">
        <ele>158</ele>
        <time>2013-09-29T07:34:40.000Z</time>
      </trkpt>
      <trkpt lat="47.86098" lon="2.13833">
        <ele>157</ele>
        <time>2013-09-29T07:34:42.000Z</time>
      </trkpt>
      <trkpt lat="47.86105" lon="2.13819">
        <ele>158</ele>
        <time>2013-09-29T07:34:44.000Z</time>
      </trkpt>
      <trkpt lat="47.8611" lon="2.13804">
        <ele>158</ele>
        <time>2013-09-29T07:34:46.000Z</time>
      </trkpt>
      <trkpt lat="47.86116" lon="2.13791">
        <ele>158</ele>
        <time>2013-09-29T07:34:48.000Z</time>
      </trkpt>
      <trkpt lat="47.86124" lon="2.1378">
        <ele>157</ele>
        <time>2013-09-29T07:34:50.000Z</time>
      </trkpt>
      <trkpt lat="47.86124" lon="2.1378">
        <ele>157</ele>
        <time>2013-09-29T07:34:52.000Z</time>
      </trkpt>
      <trkpt lat="47.86124" lon="2.1378">
        <ele>157</ele>
        <time>2013-09-29T07:34:54.000Z</time>
      </trkpt>
      <trkpt lat="47.86124" lon="2.1378">
        <ele>157</ele>
        <time>2013-09-29T07:34:56.000Z</time>
      </trkpt>
      <trkpt lat="47.86124" lon="2.1378">
        <ele>157</ele>
        <time>2013-09-29T07:34:58.000Z</time>
      </trkpt>
      <trkpt lat="47.86124" lon="2.1378">
        <ele>157</ele>
        <time>2013-09-29T07:35:00.000Z</time>
      </trkpt>
      <trkpt lat="47.86124" lon="2.1378">
        <ele>157</ele>
        <time>2013-09-29T07:35:02.000Z</time>
      </trkpt>
      <trkpt lat="47.86184" lon="2.13707">
        <ele>155</ele>
        <time>2013-09-29T07:35:06.000Z</time>
      </trkpt>
      <trkpt lat="47.8619" lon="2.13696">
        <ele>156</ele>
        <time>2013-09-29T07:35:08.000Z</time>
      </trkpt>
      <trkpt lat="47.8619" lon="2.13696">
        <ele>156</ele>
        <time>2013-09-29T07:35:10.000Z</time>
      </trkpt>
      <trkpt lat="47.8619" lon="2.13696">
        <ele>156</ele>
        <time>2013-09-29T07:35:12.000Z</time>
      </trkpt>
      <trkpt lat="47.8619" lon="2.13696">
        <ele>156</ele>
        <time>2013-09-29T07:35:14.000Z</time>
      </trkpt>
      <trkpt lat="47.8619" lon="2.13696">
        <ele>156</ele>
        <time>2013-09-29T07:35:16.000Z</time>
      </trkpt>
      <trkpt lat="47.86223" lon="2.1363">
        <ele>156</ele>
        <time>2013-09-29T07:35:20.000Z</time>
      </trkpt>
      <trkpt lat="47.86229" lon="2.13617">
        <ele>156</ele>
        <time>2013-09-29T07:35:22.000Z</time>
      </trkpt>
      <trkpt lat="47.86235" lon="2.13603">
        <ele>156</ele>
        <time>2013-09-29T07:35:24.000Z</time>
      </trkpt>
      <trkpt lat="47.86235" lon="2.13603">
        <ele>156</ele>
        <time>2013-09-29T07:35:26.000Z</time>
      </trkpt>
      <trkpt lat="47.86246" lon="2.13578">
        <ele>156</ele>
        <time>2013-09-29T07:35:28.000Z</time>
      </trkpt>
      <trkpt lat="47.86246" lon="2.13578">
        <ele>156</ele>
        <time>2013-09-29T07:35:30.000Z</time>
      </trkpt>
      <trkpt lat="47.86258" lon="2.13555">
        <ele>155</ele>
        <time>2013-09-29T07:35:32.000Z</time>
      </trkpt>
      <trkpt lat="47.86266" lon="2.13538">
        <ele>155</ele>
        <time>2013-09-29T07:35:34.000Z</time>
      </trkpt>
      <trkpt lat="47.86271" lon="2.13522">
        <ele>156</ele>
        <time>2013-09-29T07:35:36.000Z</time>
      </trkpt>
      <trkpt lat="47.86277" lon="2.13509">
        <ele>155</ele>
        <time>2013-09-29T07:35:38.000Z</time>
      </trkpt>
      <trkpt lat="47.86283" lon="2.13496">
        <ele>156</ele>
        <time>2013-09-29T07:35:40.000Z</time>
      </trkpt>
      <trkpt lat="47.86283" lon="2.13496">
        <ele>156</ele>
        <time>2013-09-29T07:35:42.000Z</time>
      </trkpt>
      <trkpt lat="47.86283" lon="2.13496">
        <ele>156</ele>
        <time>2013-09-29T07:35:44.000Z</time>
      </trkpt>
      <trkpt lat="47.86283" lon="2.13496">
        <ele>156</ele>
        <time>2013-09-29T07:35:46.000Z</time>
      </trkpt>
      <trkpt lat="47.86283" lon="2.13496">
        <ele>156</ele>
        <time>2013-09-29T07:35:48.000Z</time>
      </trkpt>
      <trkpt lat="47.86316" lon="2.13416">
        <ele>157</ele>
        <time>2013-09-29T07:35:52.000Z</time>
      </trkpt>
      <trkpt lat="47.8632" lon="2.13403">
        <ele>157</ele>
        <time>2013-09-29T07:35:54.000Z</time>
      </trkpt>
      <trkpt lat="47.8632" lon="2.13403">
        <ele>157</ele>
        <time>2013-09-29T07:35:56.000Z</time>
      </trkpt>
      <trkpt lat="47.8632" lon="2.13403">
        <ele>157</ele>
        <time>2013-09-29T07:35:58.000Z</time>
      </trkpt>
      <trkpt lat="47.8632" lon="2.13403">
        <ele>157</ele>
        <time>2013-09-29T07:36:00.000Z</time>
      </trkpt>
      <trkpt lat="47.8632" lon="2.13403">
        <ele>157</ele>
        <time>2013-09-29T07:36:02.000Z</time>
      </trkpt>
      <trkpt lat="47.8632" lon="2.13403">
        <ele>157</ele>
        <time>2013-09-29T07:36:04.000Z</time>
      </trkpt>
      <trkpt lat="47.86337" lon="2.13368">
        <ele>157</ele>
        <time>2013-09-29T07:36:08.000Z</time>
      </trkpt>
      <trkpt lat="47.86347" lon="2.13344">
        <ele>157</ele>
        <time>2013-09-29T07:36:10.000Z</time>
      </trkpt>
      <trkpt lat="47.86356" lon="2.13326">
        <ele>158</ele>
        <time>2013-09-29T07:36:12.000Z</time>
      </trkpt>
      <trkpt lat="47.86363" lon="2.13311">
        <ele>158</ele>
        <time>2013-09-29T07:36:14.000Z</time>
      </trkpt>
      <trkpt lat="47.86369" lon="2.13297">
        <ele>158</ele>
        <time>2013-09-29T07:36:16.000Z</time>
      </trkpt>
      <trkpt lat="47.86382" lon="2.13271">
        <ele>158</ele>
        <time>2013-09-29T07:36:18.000Z</time>
      </trkpt>
      <trkpt lat="47.86388" lon="2.13259">
        <ele>158</ele>
        <time>2013-09-29T07:36:20.000Z</time>
      </trkpt>
      <trkpt lat="47.86388" lon="2.13259">
        <ele>158</ele>
        <time>2013-09-29T07:36:22.000Z</time>
      </trkpt>
      <trkpt lat="47.86388" lon="2.13259">
        <ele>158</ele>
        <time>2013-09-29T07:36:24.000Z</time>
      </trkpt>
      <trkpt lat="47.86388" lon="2.13259">
        <ele>158</ele>
        <time>2013-09-29T07:36:26.000Z</time>
      </trkpt>
      <trkpt lat="47.86388" lon="2.13259">
        <ele>158</ele>
        <time>2013-09-29T07:36:28.000Z</time>
      </trkpt>
      <trkpt lat="47.86388" lon="2.13259">
        <ele>158</ele>
        <time>2013-09-29T07:36:30.000Z</time>
      </trkpt>
      <trkpt lat="47.8643" lon="2.13186">
        <ele>158</ele>
        <time>2013-09-29T07:36:34.000Z</time>
      </trkpt>
      <trkpt lat="47.86434" lon="2.13174">
        <ele>158</ele>
        <time>2013-09-29T07:36:36.000Z</time>
      </trkpt>
      <trkpt lat="47.86443" lon="2.13164">
        <ele>157</ele>
        <time>2013-09-29T07:36:38.000Z</time>
      </trkpt>
      <trkpt lat="47.8645" lon="2.13152">
        <ele>157</ele>
        <time>2013-09-29T07:36:40.000Z</time>
      </trkpt>
      <trkpt lat="47.86456" lon="2.13139">
        <ele>157</ele>
        <time>2013-09-29T07:36:42.000Z</time>
      </trkpt>
      <trkpt lat="47.86462" lon="2.13127">
        <ele>157</ele>
        <time>2013-09-29T07:36:44.000Z</time>
      </trkpt>
      <trkpt lat="47.86462" lon="2.13127">
        <ele>157</ele>
        <time>2013-09-29T07:36:46.000Z</time>
      </trkpt>
      <trkpt lat="47.86473" lon="2.13106">
        <ele>158</ele>
        <time>2013-09-29T07:36:48.000Z</time>
      </trkpt>
      <trkpt lat="47.86473" lon="2.13106">
        <ele>158</ele>
        <time>2013-09-29T07:36:50.000Z</time>
      </trkpt>
      <trkpt lat="47.86473" lon="2.13106">
        <ele>158</ele>
        <time>2013-09-29T07:36:52.000Z</time>
      </trkpt>
      <trkpt lat="47.86473" lon="2.13106">
        <ele>158</ele>
        <time>2013-09-29T07:36:54.000Z</time>
      </trkpt>
      <trkpt lat="47.86473" lon="2.13106">
        <ele>158</ele>
        <time>2013-09-29T07:36:56.000Z</time>
      </trkpt>
      <trkpt lat="47.86473" lon="2.13106">
        <ele>158</ele>
        <time>2013-09-29T07:36:58.000Z</time>
      </trkpt>
      <trkpt lat="47.86473" lon="2.13106">
        <ele>158</ele>
        <time>2013-09-29T07:37:00.000Z</time>
      </trkpt>
      <trkpt lat="47.86473" lon="2.13106">
        <ele>158</ele>
        <time>2013-09-29T07:37:02.000Z</time>
      </trkpt>
      <trkpt lat="47.86529" lon="2.12982">
        <ele>156</ele>
        <time>2013-09-29T07:37:10.000Z</time>
      </trkpt>
      <trkpt lat="47.86541" lon="2.12964">
        <ele>157</ele>
        <time>2013-09-29T07:37:14.000Z</time>
      </trkpt>
      <trkpt lat="47.86541" lon="2.12964">
        <ele>157</ele>
        <time>2013-09-29T07:37:16.000Z</time>
      </trkpt>
      <trkpt lat="47.86541" lon="2.12964">
        <ele>157</ele>
        <time>2013-09-29T07:37:18.000Z</time>
      </trkpt>
      <trkpt lat="47.86541" lon="2.12964">
        <ele>157</ele>
        <time>2013-09-29T07:37:20.000Z</time>
      </trkpt>
      <trkpt lat="47.86541" lon="2.12964">
        <ele>157</ele>
        <time>2013-09-29T07:37:22.000Z</time>
      </trkpt>
      <trkpt lat="47.86541" lon="2.12964">
        <ele>157</ele>
        <time>2013-09-29T07:37:24.000Z</time>
      </trkpt>
      <trkpt lat="47.86541" lon="2.12964">
        <ele>157</ele>
        <time>2013-09-29T07:37:26.000Z</time>
      </trkpt>
      <trkpt lat="47.86541" lon="2.12964">
        <ele>157</ele>
        <time>2013-09-29T07:37:28.000Z</time>
      </trkpt>
      <trkpt lat="47.86541" lon="2.12964">
        <ele>157</ele>
        <time>2013-09-29T07:37:30.000Z</time>
      </trkpt>
      <trkpt lat="47.8656" lon="2.12927">
        <ele>159</ele>
        <time>2013-09-29T07:39:44.000Z</time>
      </trkpt>
      <trkpt lat="47.86569" lon="2.12921">
        <ele>158</ele>
        <time>2013-09-29T07:39:47.000Z</time>
      </trkpt>
      <trkpt lat="47.86581" lon="2.12907">
        <ele>157</ele>
        <time>2013-09-29T07:39:51.000Z</time>
      </trkpt>
      <trkpt lat="47.86594" lon="2.1289">
        <ele>158</ele>
        <time>2013-09-29T07:39:55.000Z</time>
      </trkpt>
      <trkpt lat="47.86606" lon="2.12872">
        <ele>159</ele>
        <time>2013-09-29T07:39:59.000Z</time>
      </trkpt>
      <trkpt lat="47.86618" lon="2.12855">
        <ele>159</ele>
        <time>2013-09-29T07:40:03.000Z</time>
      </trkpt>
      <trkpt lat="47.86618" lon="2.12855">
        <ele>159</ele>
        <time>2013-09-29T07:40:05.000Z</time>
      </trkpt>
      <trkpt lat="47.86618" lon="2.12855">
        <ele>159</ele>
        <time>2013-09-29T07:40:07.000Z</time>
      </trkpt>
      <trkpt lat="47.86618" lon="2.12855">
        <ele>159</ele>
        <time>2013-09-29T07:40:09.000Z</time>
      </trkpt>
      <trkpt lat="47.86649" lon="2.12801">
        <ele>159</ele>
        <time>2013-09-29T07:40:15.000Z</time>
      </trkpt>
      <trkpt lat="47.86659" lon="2.12782">
        <ele>159</ele>
        <time>2013-09-29T07:40:19.000Z</time>
      </trkpt>
      <trkpt lat="47.8667" lon="2.1276">
        <ele>159</ele>
        <time>2013-09-29T07:40:23.000Z</time>
      </trkpt>
      <trkpt lat="47.86679" lon="2.12739">
        <ele>159</ele>
        <time>2013-09-29T07:40:27.000Z</time>
      </trkpt>
      <trkpt lat="47.86687" lon="2.12717">
        <ele>159</ele>
        <time>2013-09-29T07:40:31.000Z</time>
      </trkpt>
      <trkpt lat="47.86693" lon="2.12691">
        <ele>159</ele>
        <time>2013-09-29T07:40:35.000Z</time>
      </trkpt>
      <trkpt lat="47.86694" lon="2.12676">
        <ele>159</ele>
        <time>2013-09-29T07:40:37.000Z</time>
      </trkpt>
      <trkpt lat="47.86697" lon="2.12661">
        <ele>159</ele>
        <time>2013-09-29T07:40:39.000Z</time>
      </trkpt>
      <trkpt lat="47.86699" lon="2.12638">
        <ele>158</ele>
        <time>2013-09-29T07:40:43.000Z</time>
      </trkpt>
      <trkpt lat="47.86699" lon="2.12638">
        <ele>158</ele>
        <time>2013-09-29T07:40:45.000Z</time>
      </trkpt>
      <trkpt lat="47.86699" lon="2.12638">
        <ele>158</ele>
        <time>2013-09-29T07:40:47.000Z</time>
      </trkpt>
      <trkpt lat="47.86699" lon="2.12638">
        <ele>158</ele>
        <time>2013-09-29T07:40:49.000Z</time>
      </trkpt>
      <trkpt lat="47.86699" lon="2.12638">
        <ele>158</ele>
        <time>2013-09-29T07:40:51.000Z</time>
      </trkpt>
      <trkpt lat="47.86699" lon="2.12638">
        <ele>158</ele>
        <time>2013-09-29T07:40:52.000Z</time>
      </trkpt>
      <trkpt lat="47.86699" lon="2.12638">
        <ele>158</ele>
        <time>2013-09-29T07:40:55.000Z</time>
      </trkpt>
      <trkpt lat="47.86699" lon="2.12638">
        <ele>158</ele>
        <time>2013-09-29T07:40:57.000Z</time>
      </trkpt>
      <trkpt lat="47.86699" lon="2.12638">
        <ele>158</ele>
        <time>2013-09-29T07:40:59.000Z</time>
      </trkpt>
      <trkpt lat="47.86699" lon="2.12638">
        <ele>158</ele>
        <time>2013-09-29T07:41:03.000Z</time>
      </trkpt>
      <trkpt lat="47.86699" lon="2.12638">
        <ele>158</ele>
        <time>2013-09-29T07:41:05.000Z</time>
      </trkpt>
      <trkpt lat="47.86699" lon="2.12638">
        <ele>158</ele>
        <time>2013-09-29T07:41:07.000Z</time>
      </trkpt>
      <trkpt lat="47.86739" lon="2.12571">
        <ele>153</ele>
        <time>2013-09-29T07:41:13.000Z</time>
      </trkpt>
      <trkpt lat="47.86742" lon="2.12564">
        <ele>154</ele>
        <time>2013-09-29T07:41:17.000Z</time>
      </trkpt>
      <trkpt lat="47.86744" lon="2.12556">
        <ele>153</ele>
        <time>2013-09-29T07:41:19.000Z</time>
      </trkpt>
      <trkpt lat="47.86745" lon="2.12548">
        <ele>154</ele>
        <time>2013-09-29T07:41:21.000Z</time>
      </trkpt>
      <trkpt lat="47.86747" lon="2.1254">
        <ele>154</ele>
        <time>2013-09-29T07:41:23.000Z</time>
      </trkpt>
      <trkpt lat="47.86748" lon="2.12532">
        <ele>155</ele>
        <time>2013-09-29T07:41:25.000Z</time>
      </trkpt>
      <trkpt lat="47.86748" lon="2.12532">
        <ele>155</ele>
        <time>2013-09-29T07:41:27.000Z</time>
      </trkpt>
      <trkpt lat="47.86748" lon="2.12532">
        <ele>155</ele>
        <time>2013-09-29T07:41:29.000Z</time>
      </trkpt>
      <trkpt lat="47.86748" lon="2.12532">
        <ele>155</ele>
        <time>2013-09-29T07:41:31.000Z</time>
      </trkpt>
      <trkpt lat="47.86755" lon="2.12489">
        <ele>158</ele>
        <time>2013-09-29T07:41:33.000Z</time>
      </trkpt>
      <trkpt lat="47.86758" lon="2.1247">
        <ele>157</ele>
        <time>2013-09-29T07:41:37.000Z</time>
      </trkpt>
      <trkpt lat="47.86761" lon="2.12449">
        <ele>157</ele>
        <time>2013-09-29T07:41:41.000Z</time>
      </trkpt>
      <trkpt lat="47.86763" lon="2.12428">
        <ele>152</ele>
        <time>2013-09-29T07:41:45.000Z</time>
      </trkpt>
      <trkpt lat="47.86763" lon="2.12428">
        <ele>152</ele>
        <time>2013-09-29T07:41:47.000Z</time>
      </trkpt>
      <trkpt lat="47.86763" lon="2.12428">
        <ele>152</ele>
        <time>2013-09-29T07:41:49.000Z</time>
      </trkpt>
      <trkpt lat="47.86763" lon="2.12428">
        <ele>152</ele>
        <time>2013-09-29T07:41:51.000Z</time>
      </trkpt>
      <trkpt lat="47.86763" lon="2.12428">
        <ele>152</ele>
        <time>2013-09-29T07:41:53.000Z</time>
      </trkpt>
      <trkpt lat="47.86769" lon="2.1237">
        <ele>151</ele>
        <time>2013-09-29T07:41:59.000Z</time>
      </trkpt>
      <trkpt lat="47.86772" lon="2.12346">
        <ele>151</ele>
        <time>2013-09-29T07:42:03.000Z</time>
      </trkpt>
      <trkpt lat="47.86778" lon="2.12322">
        <ele>151</ele>
        <time>2013-09-29T07:42:07.000Z</time>
      </trkpt>
      <trkpt lat="47.86787" lon="2.12301">
        <ele>152</ele>
        <time>2013-09-29T07:42:11.000Z</time>
      </trkpt>
      <trkpt lat="47.86787" lon="2.12301">
        <ele>152</ele>
        <time>2013-09-29T07:42:13.000Z</time>
      </trkpt>
      <trkpt lat="47.86795" lon="2.12281">
        <ele>154</ele>
        <time>2013-09-29T07:42:15.000Z</time>
      </trkpt>
      <trkpt lat="47.86803" lon="2.12261">
        <ele>153</ele>
        <time>2013-09-29T07:42:19.000Z</time>
      </trkpt>
      <trkpt lat="47.86803" lon="2.12261">
        <ele>153</ele>
        <time>2013-09-29T07:42:21.000Z</time>
      </trkpt>
      <trkpt lat="47.86803" lon="2.12261">
        <ele>153</ele>
        <time>2013-09-29T07:42:23.000Z</time>
      </trkpt>
      <trkpt lat="47.86803" lon="2.12261">
        <ele>153</ele>
        <time>2013-09-29T07:42:25.000Z</time>
      </trkpt>
      <trkpt lat="47.86803" lon="2.12261">
        <ele>153</ele>
        <time>2013-09-29T07:42:27.000Z</time>
      </trkpt>
      <trkpt lat="47.86803" lon="2.12261">
        <ele>153</ele>
        <time>2013-09-29T07:42:29.000Z</time>
      </trkpt>
      <trkpt lat="47.86803" lon="2.12261">
        <ele>153</ele>
        <time>2013-09-29T07:42:31.000Z</time>
      </trkpt>
      <trkpt lat="47.86803" lon="2.12261">
        <ele>153</ele>
        <time>2013-09-29T07:42:33.000Z</time>
      </trkpt>
      <trkpt lat="47.86803" lon="2.12261">
        <ele>153</ele>
        <time>2013-09-29T07:42:35.000Z</time>
      </trkpt>
      <trkpt lat="47.86803" lon="2.12261">
        <ele>153</ele>
        <time>2013-09-29T07:42:37.000Z</time>
      </trkpt>
      <trkpt lat="47.86803" lon="2.12261">
        <ele>153</ele>
        <time>2013-09-29T07:42:39.000Z</time>
      </trkpt>
      <trkpt lat="47.86803" lon="2.12261">
        <ele>153</ele>
        <time>2013-09-29T07:42:41.000Z</time>
      </trkpt>
      <trkpt lat="47.86803" lon="2.12261">
        <ele>153</ele>
        <time>2013-09-29T07:42:43.000Z</time>
      </trkpt>
      <trkpt lat="47.86803" lon="2.12261">
        <ele>153</ele>
        <time>2013-09-29T07:42:45.000Z</time>
      </trkpt>
      <trkpt lat="47.86803" lon="2.12261">
        <ele>153</ele>
        <time>2013-09-29T07:42:47.000Z</time>
      </trkpt>
      <trkpt lat="47.86803" lon="2.12261">
        <ele>153</ele>
        <time>2013-09-29T07:42:48.000Z</time>
      </trkpt>
      <trkpt lat="47.86803" lon="2.12261">
        <ele>153</ele>
        <time>2013-09-29T07:42:51.000Z</time>
      </trkpt>
      <trkpt lat="47.86803" lon="2.12261">
        <ele>153</ele>
        <time>2013-09-29T07:42:53.000Z</time>
      </trkpt>
      <trkpt lat="47.86804" lon="2.1221">
        <ele>154</ele>
        <time>2013-09-29T07:42:57.000Z</time>
      </trkpt>
      <trkpt lat="47.86806" lon="2.12187">
        <ele>155</ele>
        <time>2013-09-29T07:42:58.000Z</time>
      </trkpt>
      <trkpt lat="47.86808" lon="2.12177">
        <ele>155</ele>
        <time>2013-09-29T07:43:01.000Z</time>
      </trkpt>
      <trkpt lat="47.86808" lon="2.12177">
        <ele>155</ele>
        <time>2013-09-29T07:43:03.000Z</time>
      </trkpt>
      <trkpt lat="47.86804" lon="2.12186">
        <ele>156</ele>
        <time>2013-09-29T07:43:09.000Z</time>
      </trkpt>
      <trkpt lat="47.868" lon="2.12195">
        <ele>156</ele>
        <time>2013-09-29T07:43:11.000Z</time>
      </trkpt>
      <trkpt lat="47.86797" lon="2.12206">
        <ele>156</ele>
        <time>2013-09-29T07:43:13.000Z</time>
      </trkpt>
      <trkpt lat="47.86794" lon="2.12216">
        <ele>156</ele>
        <time>2013-09-29T07:43:15.000Z</time>
      </trkpt>
      <trkpt lat="47.86791" lon="2.12226">
        <ele>156</ele>
        <time>2013-09-29T07:43:16.000Z</time>
      </trkpt>
      <trkpt lat="47.86791" lon="2.12226">
        <ele>156</ele>
        <time>2013-09-29T07:43:19.000Z</time>
      </trkpt>
      <trkpt lat="47.86791" lon="2.12226">
        <ele>156</ele>
        <time>2013-09-29T07:43:20.000Z</time>
      </trkpt>
      <trkpt lat="47.86777" lon="2.12285">
        <ele>156</ele>
        <time>2013-09-29T07:43:27.000Z</time>
      </trkpt>
      <trkpt lat="47.86774" lon="2.12309">
        <ele>156</ele>
        <time>2013-09-29T07:43:31.000Z</time>
      </trkpt>
      <trkpt lat="47.86769" lon="2.12333">
        <ele>156</ele>
        <time>2013-09-29T07:43:35.000Z</time>
      </trkpt>
      <trkpt lat="47.86766" lon="2.12356">
        <ele>155</ele>
        <time>2013-09-29T07:43:39.000Z</time>
      </trkpt>
      <trkpt lat="47.86763" lon="2.1238">
        <ele>155</ele>
        <time>2013-09-29T07:43:43.000Z</time>
      </trkpt>
      <trkpt lat="47.86763" lon="2.1238">
        <ele>155</ele>
        <time>2013-09-29T07:43:45.000Z</time>
      </trkpt>
      <trkpt lat="47.86763" lon="2.1238">
        <ele>155</ele>
        <time>2013-09-29T07:43:47.000Z</time>
      </trkpt>
      <trkpt lat="47.86763" lon="2.1238">
        <ele>155</ele>
        <time>2013-09-29T07:43:49.000Z</time>
      </trkpt>
      <trkpt lat="47.86763" lon="2.1238">
        <ele>155</ele>
        <time>2013-09-29T07:43:51.000Z</time>
      </trkpt>
      <trkpt lat="47.86763" lon="2.1238">
        <ele>155</ele>
        <time>2013-09-29T07:43:53.000Z</time>
      </trkpt>
      <trkpt lat="47.86763" lon="2.1238">
        <ele>155</ele>
        <time>2013-09-29T07:43:55.000Z</time>
      </trkpt>
      <trkpt lat="47.86763" lon="2.1238">
        <ele>155</ele>
        <time>2013-09-29T07:43:57.000Z</time>
      </trkpt>
      <trkpt lat="47.86736" lon="2.12429">
        <ele>155</ele>
        <time>2013-09-29T07:44:03.000Z</time>
      </trkpt>
      <trkpt lat="47.86726" lon="2.12441">
        <ele>154</ele>
        <time>2013-09-29T07:44:07.000Z</time>
      </trkpt>
      <trkpt lat="47.86727" lon="2.12465">
        <ele>155</ele>
        <time>2013-09-29T07:44:11.000Z</time>
      </trkpt>
      <trkpt lat="47.86726" lon="2.12487">
        <ele>155</ele>
        <time>2013-09-29T07:44:15.000Z</time>
      </trkpt>
      <trkpt lat="47.86721" lon="2.12499">
        <ele>155</ele>
        <time>2013-09-29T07:44:17.000Z</time>
      </trkpt>
      <trkpt lat="47.86718" lon="2.12522">
        <ele>155</ele>
        <time>2013-09-29T07:44:21.000Z</time>
      </trkpt>
      <trkpt lat="47.86714" lon="2.12547">
        <ele>154</ele>
        <time>2013-09-29T07:44:25.000Z</time>
      </trkpt>
      <trkpt lat="47.86711" lon="2.1257">
        <ele>154</ele>
        <time>2013-09-29T07:44:29.000Z</time>
      </trkpt>
      <trkpt lat="47.86711" lon="2.1257">
        <ele>154</ele>
        <time>2013-09-29T07:44:31.000Z</time>
      </trkpt>
      <trkpt lat="47.86711" lon="2.1257">
        <ele>154</ele>
        <time>2013-09-29T07:44:33.000Z</time>
      </trkpt>
      <trkpt lat="47.86711" lon="2.1257">
        <ele>154</ele>
        <time>2013-09-29T07:44:35.000Z</time>
      </trkpt>
      <trkpt lat="47.86711" lon="2.1257">
        <ele>154</ele>
        <time>2013-09-29T07:44:37.000Z</time>
      </trkpt>
      <trkpt lat="47.86711" lon="2.1257">
        <ele>154</ele>
        <time>2013-09-29T07:44:39.000Z</time>
      </trkpt>
      <trkpt lat="47.86711" lon="2.1257">
        <ele>154</ele>
        <time>2013-09-29T07:44:41.000Z</time>
      </trkpt>
      <trkpt lat="47.86711" lon="2.1257">
        <ele>154</ele>
        <time>2013-09-29T07:44:43.000Z</time>
      </trkpt>
      <trkpt lat="47.86711" lon="2.1257">
        <ele>154</ele>
        <time>2013-09-29T07:44:45.000Z</time>
      </trkpt>
      <trkpt lat="47.86711" lon="2.1257">
        <ele>154</ele>
        <time>2013-09-29T07:44:47.000Z</time>
      </trkpt>
      <trkpt lat="47.86728" lon="2.12571">
        <ele>153</ele>
        <time>2013-09-29T07:44:49.000Z</time>
      </trkpt>
      <trkpt lat="47.86737" lon="2.12566">
        <ele>154</ele>
        <time>2013-09-29T07:44:51.000Z</time>
      </trkpt>
      <trkpt lat="47.86742" lon="2.12557">
        <ele>154</ele>
        <time>2013-09-29T07:44:53.000Z</time>
      </trkpt>
      <trkpt lat="47.86746" lon="2.12547">
        <ele>154</ele>
        <time>2013-09-29T07:44:54.000Z</time>
      </trkpt>
      <trkpt lat="47.86749" lon="2.12534">
        <ele>154</ele>
        <time>2013-09-29T07:44:57.000Z</time>
      </trkpt>
      <trkpt lat="47.86756" lon="2.12504">
        <ele>155</ele>
        <time>2013-09-29T07:44:59.000Z</time>
      </trkpt>
      <trkpt lat="47.86757" lon="2.12488">
        <ele>156</ele>
        <time>2013-09-29T07:45:01.000Z</time>
      </trkpt>
      <trkpt lat="47.86759" lon="2.12472">
        <ele>155</ele>
        <time>2013-09-29T07:45:03.000Z</time>
      </trkpt>
      <trkpt lat="47.86761" lon="2.12456">
        <ele>155</ele>
        <time>2013-09-29T07:45:05.000Z</time>
      </trkpt>
      <trkpt lat="47.86763" lon="2.12441">
        <ele>156</ele>
        <time>2013-09-29T07:45:07.000Z</time>
      </trkpt>
      <trkpt lat="47.86765" lon="2.12428">
        <ele>156</ele>
        <time>2013-09-29T07:45:09.000Z</time>
      </trkpt>
      <trkpt lat="47.86765" lon="2.12428">
        <ele>156</ele>
        <time>2013-09-29T07:45:11.000Z</time>
      </trkpt>
      <trkpt lat="47.86765" lon="2.12428">
        <ele>156</ele>
        <time>2013-09-29T07:45:13.000Z</time>
      </trkpt>
      <trkpt lat="47.86765" lon="2.12428">
        <ele>156</ele>
        <time>2013-09-29T07:45:16.000Z</time>
      </trkpt>
      <trkpt lat="47.86772" lon="2.12352">
        <ele>156</ele>
        <time>2013-09-29T07:45:20.000Z</time>
      </trkpt>
      <trkpt lat="47.86774" lon="2.12333">
        <ele>157</ele>
        <time>2013-09-29T07:45:22.000Z</time>
      </trkpt>
      <trkpt lat="47.86776" lon="2.12315">
        <ele>157</ele>
        <time>2013-09-29T07:45:24.000Z</time>
      </trkpt>
      <trkpt lat="47.86779" lon="2.12296">
        <ele>157</ele>
        <time>2013-09-29T07:45:26.000Z</time>
      </trkpt>
      <trkpt lat="47.86781" lon="2.12277">
        <ele>157</ele>
        <time>2013-09-29T07:45:29.000Z</time>
      </trkpt>
      <trkpt lat="47.86781" lon="2.12277">
        <ele>157</ele>
        <time>2013-09-29T07:45:31.000Z</time>
      </trkpt>
      <trkpt lat="47.86781" lon="2.12277">
        <ele>157</ele>
        <time>2013-09-29T07:45:33.000Z</time>
      </trkpt>
      <trkpt lat="47.86781" lon="2.12277">
        <ele>157</ele>
        <time>2013-09-29T07:45:35.000Z</time>
      </trkpt>
      <trkpt lat="47.86781" lon="2.12277">
        <ele>157</ele>
        <time>2013-09-29T07:45:37.000Z</time>
      </trkpt>
      <trkpt lat="47.86781" lon="2.12277">
        <ele>157</ele>
        <time>2013-09-29T07:45:40.000Z</time>
      </trkpt>
      <trkpt lat="47.86799" lon="2.12187">
        <ele>153</ele>
        <time>2013-09-29T07:45:44.000Z</time>
      </trkpt>
      <trkpt lat="47.86802" lon="2.12166">
        <ele>155</ele>
        <time>2013-09-29T07:45:46.000Z</time>
      </trkpt>
      <trkpt lat="47.86805" lon="2.12148">
        <ele>155</ele>
        <time>2013-09-29T07:45:47.000Z</time>
      </trkpt>
      <trkpt lat="47.8681" lon="2.1213">
        <ele>157</ele>
        <time>2013-09-29T07:45:50.000Z</time>
      </trkpt>
      <trkpt lat="47.86812" lon="2.12115">
        <ele>157</ele>
        <time>2013-09-29T07:45:52.000Z</time>
      </trkpt>
      <trkpt lat="47.86817" lon="2.12101">
        <ele>157</ele>
        <time>2013-09-29T07:45:54.000Z</time>
      </trkpt>
      <trkpt lat="47.86817" lon="2.12101">
        <ele>157</ele>
        <time>2013-09-29T07:45:57.000Z</time>
      </trkpt>
      <trkpt lat="47.86817" lon="2.12101">
        <ele>157</ele>
        <time>2013-09-29T07:45:59.000Z</time>
      </trkpt>
      <trkpt lat="47.86817" lon="2.12101">
        <ele>157</ele>
        <time>2013-09-29T07:46:01.000Z</time>
      </trkpt>
      <trkpt lat="47.86817" lon="2.12101">
        <ele>157</ele>
        <time>2013-09-29T07:46:03.000Z</time>
      </trkpt>
      <trkpt lat="47.86817" lon="2.12101">
        <ele>157</ele>
        <time>2013-09-29T07:46:05.000Z</time>
      </trkpt>
      <trkpt lat="47.86821" lon="2.12075">
        <ele>157</ele>
        <time>2013-09-29T07:46:11.000Z</time>
      </trkpt>
      <trkpt lat="47.8682" lon="2.12053">
        <ele>156</ele>
        <time>2013-09-29T07:46:15.000Z</time>
      </trkpt>
      <trkpt lat="47.8682" lon="2.12037">
        <ele>156</ele>
        <time>2013-09-29T07:46:17.000Z</time>
      </trkpt>
      <trkpt lat="47.86821" lon="2.12023">
        <ele>155</ele>
        <time>2013-09-29T07:46:19.000Z</time>
      </trkpt>
      <trkpt lat="47.86823" lon="2.12009">
        <ele>156</ele>
        <time>2013-09-29T07:46:21.000Z</time>
      </trkpt>
      <trkpt lat="47.86826" lon="2.11995">
        <ele>156</ele>
        <time>2013-09-29T07:46:23.000Z</time>
      </trkpt>
      <trkpt lat="47.86829" lon="2.11981">
        <ele>156</ele>
        <time>2013-09-29T07:46:24.000Z</time>
      </trkpt>
      <trkpt lat="47.86831" lon="2.11966">
        <ele>157</ele>
        <time>2013-09-29T07:46:27.000Z</time>
      </trkpt>
      <trkpt lat="47.86833" lon="2.11952">
        <ele>157</ele>
        <time>2013-09-29T07:46:29.000Z</time>
      </trkpt>
      <trkpt lat="47.86835" lon="2.11937">
        <ele>157</ele>
        <time>2013-09-29T07:46:31.000Z</time>
      </trkpt>
      <trkpt lat="47.86837" lon="2.11921">
        <ele>157</ele>
        <time>2013-09-29T07:46:33.000Z</time>
      </trkpt>
      <trkpt lat="47.86841" lon="2.11909">
        <ele>157</ele>
        <time>2013-09-29T07:46:35.000Z</time>
      </trkpt>
      <trkpt lat="47.86845" lon="2.11895">
        <ele>157</ele>
        <time>2013-09-29T07:46:37.000Z</time>
      </trkpt>
      <trkpt lat="47.86848" lon="2.1188">
        <ele>157</ele>
        <time>2013-09-29T07:46:39.000Z</time>
      </trkpt>
      <trkpt lat="47.86852" lon="2.11867">
        <ele>156</ele>
        <time>2013-09-29T07:46:41.000Z</time>
      </trkpt>
      <trkpt lat="47.86855" lon="2.11854">
        <ele>156</ele>
        <time>2013-09-29T07:46:43.000Z</time>
      </trkpt>
      <trkpt lat="47.86855" lon="2.11854">
        <ele>156</ele>
        <time>2013-09-29T07:46:45.000Z</time>
      </trkpt>
      <trkpt lat="47.86855" lon="2.11854">
        <ele>156</ele>
        <time>2013-09-29T07:46:47.000Z</time>
      </trkpt>
      <trkpt lat="47.86855" lon="2.11854">
        <ele>156</ele>
        <time>2013-09-29T07:46:53.000Z</time>
      </trkpt>
      <trkpt lat="47.86855" lon="2.11854">
        <ele>156</ele>
        <time>2013-09-29T07:46:55.000Z</time>
      </trkpt>
      <trkpt lat="47.86855" lon="2.11854">
        <ele>156</ele>
        <time>2013-09-29T07:46:57.000Z</time>
      </trkpt>
      <trkpt lat="47.86855" lon="2.11854">
        <ele>156</ele>
        <time>2013-09-29T07:46:59.000Z</time>
      </trkpt>
      <trkpt lat="47.86855" lon="2.11854">
        <ele>156</ele>
        <time>2013-09-29T07:47:01.000Z</time>
      </trkpt>
      <trkpt lat="47.86855" lon="2.11854">
        <ele>156</ele>
        <time>2013-09-29T07:47:03.000Z</time>
      </trkpt>
      <trkpt lat="47.8688" lon="2.11787">
        <ele>149</ele>
        <time>2013-09-29T07:47:09.000Z</time>
      </trkpt>
      <trkpt lat="47.86895" lon="2.11746">
        <ele>148</ele>
        <time>2013-09-29T07:47:11.000Z</time>
      </trkpt>
      <trkpt lat="47.86905" lon="2.11719">
        <ele>148</ele>
        <time>2013-09-29T07:47:13.000Z</time>
      </trkpt>
      <trkpt lat="47.86913" lon="2.11697">
        <ele>149</ele>
        <time>2013-09-29T07:47:15.000Z</time>
      </trkpt>
      <trkpt lat="47.86919" lon="2.1168">
        <ele>148</ele>
        <time>2013-09-29T07:47:16.000Z</time>
      </trkpt>
      <trkpt lat="47.86927" lon="2.11647">
        <ele>149</ele>
        <time>2013-09-29T07:47:19.000Z</time>
      </trkpt>
      <trkpt lat="47.86931" lon="2.11631">
        <ele>149</ele>
        <time>2013-09-29T07:47:21.000Z</time>
      </trkpt>
      <trkpt lat="47.86934" lon="2.11617">
        <ele>150</ele>
        <time>2013-09-29T07:47:22.000Z</time>
      </trkpt>
      <trkpt lat="47.8694" lon="2.11603">
        <ele>150</ele>
        <time>2013-09-29T07:47:25.000Z</time>
      </trkpt>
      <trkpt lat="47.8694" lon="2.11603">
        <ele>150</ele>
        <time>2013-09-29T07:47:27.000Z</time>
      </trkpt>
      <trkpt lat="47.8694" lon="2.11603">
        <ele>150</ele>
        <time>2013-09-29T07:47:28.000Z</time>
      </trkpt>
      <trkpt lat="47.8694" lon="2.11603">
        <ele>150</ele>
        <time>2013-09-29T07:47:31.000Z</time>
      </trkpt>
      <trkpt lat="47.86947" lon="2.11539">
        <ele>150</ele>
        <time>2013-09-29T07:47:33.000Z</time>
      </trkpt>
      <trkpt lat="47.86947" lon="2.11519">
        <ele>150</ele>
        <time>2013-09-29T07:47:35.000Z</time>
      </trkpt>
      <trkpt lat="47.86948" lon="2.11502">
        <ele>150</ele>
        <time>2013-09-29T07:47:37.000Z</time>
      </trkpt>
      <trkpt lat="47.86948" lon="2.11502">
        <ele>150</ele>
        <time>2013-09-29T07:47:39.000Z</time>
      </trkpt>
      <trkpt lat="47.86948" lon="2.11502">
        <ele>150</ele>
        <time>2013-09-29T07:47:41.000Z</time>
      </trkpt>
      <trkpt lat="47.86948" lon="2.11502">
        <ele>150</ele>
        <time>2013-09-29T07:47:43.000Z</time>
      </trkpt>
      <trkpt lat="47.86948" lon="2.11502">
        <ele>150</ele>
        <time>2013-09-29T07:47:45.000Z</time>
      </trkpt>
      <trkpt lat="47.86956" lon="2.11404">
        <ele>151</ele>
        <time>2013-09-29T07:47:49.000Z</time>
      </trkpt>
      <trkpt lat="47.86958" lon="2.11385">
        <ele>151</ele>
        <time>2013-09-29T07:47:51.000Z</time>
      </trkpt>
      <trkpt lat="47.86962" lon="2.11367">
        <ele>151</ele>
        <time>2013-09-29T07:47:53.000Z</time>
      </trkpt>
      <trkpt lat="47.86969" lon="2.11349">
        <ele>151</ele>
        <time>2013-09-29T07:47:55.000Z</time>
      </trkpt>
      <trkpt lat="47.86971" lon="2.1133">
        <ele>152</ele>
        <time>2013-09-29T07:47:57.000Z</time>
      </trkpt>
      <trkpt lat="47.86971" lon="2.1131">
        <ele>152</ele>
        <time>2013-09-29T07:47:59.000Z</time>
      </trkpt>
      <trkpt lat="47.86971" lon="2.11293">
        <ele>152</ele>
        <time>2013-09-29T07:48:00.000Z</time>
      </trkpt>
      <trkpt lat="47.86975" lon="2.11274">
        <ele>152</ele>
        <time>2013-09-29T07:48:03.000Z</time>
      </trkpt>
      <trkpt lat="47.86979" lon="2.11252">
        <ele>153</ele>
        <time>2013-09-29T07:48:05.000Z</time>
      </trkpt>
      <trkpt lat="47.86981" lon="2.11234">
        <ele>152</ele>
        <time>2013-09-29T07:48:07.000Z</time>
      </trkpt>
      <trkpt lat="47.86981" lon="2.11215">
        <ele>154</ele>
        <time>2013-09-29T07:48:09.000Z</time>
      </trkpt>
      <trkpt lat="47.86981" lon="2.11198">
        <ele>153</ele>
        <time>2013-09-29T07:48:11.000Z</time>
      </trkpt>
      <trkpt lat="47.86981" lon="2.11182">
        <ele>154</ele>
        <time>2013-09-29T07:48:13.000Z</time>
      </trkpt>
      <trkpt lat="47.86985" lon="2.11162">
        <ele>154</ele>
        <time>2013-09-29T07:48:15.000Z</time>
      </trkpt>
      <trkpt lat="47.86987" lon="2.11146">
        <ele>154</ele>
        <time>2013-09-29T07:48:17.000Z</time>
      </trkpt>
      <trkpt lat="47.86988" lon="2.1113">
        <ele>153</ele>
        <time>2013-09-29T07:48:19.000Z</time>
      </trkpt>
      <trkpt lat="47.86988" lon="2.1111">
        <ele>153</ele>
        <time>2013-09-29T07:48:21.000Z</time>
      </trkpt>
      <trkpt lat="47.8699" lon="2.11092">
        <ele>153</ele>
        <time>2013-09-29T07:48:23.000Z</time>
      </trkpt>
      <trkpt lat="47.86987" lon="2.11072">
        <ele>152</ele>
        <time>2013-09-29T07:48:25.000Z</time>
      </trkpt>
      <trkpt lat="47.86986" lon="2.11054">
        <ele>153</ele>
        <time>2013-09-29T07:48:27.000Z</time>
      </trkpt>
      <trkpt lat="47.86984" lon="2.11041">
        <ele>153</ele>
        <time>2013-09-29T07:48:29.000Z</time>
      </trkpt>
      <trkpt lat="47.86985" lon="2.11021">
        <ele>154</ele>
        <time>2013-09-29T07:48:31.000Z</time>
      </trkpt>
      <trkpt lat="47.86986" lon="2.11004">
        <ele>154</ele>
        <time>2013-09-29T07:48:33.000Z</time>
      </trkpt>
      <trkpt lat="47.8699" lon="2.10987">
        <ele>154</ele>
        <time>2013-09-29T07:48:35.000Z</time>
      </trkpt>
      <trkpt lat="47.86996" lon="2.10957">
        <ele>156</ele>
        <time>2013-09-29T07:48:38.000Z</time>
      </trkpt>
      <trkpt lat="47.86995" lon="2.10943">
        <ele>155</ele>
        <time>2013-09-29T07:48:40.000Z</time>
      </trkpt>
      <trkpt lat="47.86995" lon="2.10943">
        <ele>155</ele>
        <time>2013-09-29T07:48:42.000Z</time>
      </trkpt>
      <trkpt lat="47.86995" lon="2.10943">
        <ele>155</ele>
        <time>2013-09-29T07:48:44.000Z</time>
      </trkpt>
      <trkpt lat="47.86995" lon="2.10943">
        <ele>155</ele>
        <time>2013-09-29T07:48:46.000Z</time>
      </trkpt>
      <trkpt lat="47.86995" lon="2.10943">
        <ele>155</ele>
        <time>2013-09-29T07:48:52.000Z</time>
      </trkpt>
      <trkpt lat="47.86995" lon="2.10943">
        <ele>155</ele>
        <time>2013-09-29T07:48:54.000Z</time>
      </trkpt>
      <trkpt lat="47.86995" lon="2.10943">
        <ele>155</ele>
        <time>2013-09-29T07:48:56.000Z</time>
      </trkpt>
      <trkpt lat="47.86995" lon="2.10943">
        <ele>155</ele>
        <time>2013-09-29T07:48:58.000Z</time>
      </trkpt>
      <trkpt lat="47.86995" lon="2.10943">
        <ele>155</ele>
        <time>2013-09-29T07:49:00.000Z</time>
      </trkpt>
      <trkpt lat="47.87004" lon="2.10771">
        <ele>152</ele>
        <time>2013-09-29T07:49:04.000Z</time>
      </trkpt>
      <trkpt lat="47.87005" lon="2.10755">
        <ele>153</ele>
        <time>2013-09-29T07:49:06.000Z</time>
      </trkpt>
      <trkpt lat="47.87005" lon="2.10738">
        <ele>153</ele>
        <time>2013-09-29T07:49:08.000Z</time>
      </trkpt>
      <trkpt lat="47.87001" lon="2.10708">
        <ele>154</ele>
        <time>2013-09-29T07:49:12.000Z</time>
      </trkpt>
      <trkpt lat="47.87003" lon="2.10691">
        <ele>154</ele>
        <time>2013-09-29T07:49:14.000Z</time>
      </trkpt>
      <trkpt lat="47.87002" lon="2.10674">
        <ele>154</ele>
        <time>2013-09-29T07:49:16.000Z</time>
      </trkpt>
      <trkpt lat="47.87" lon="2.10652">
        <ele>155</ele>
        <time>2013-09-29T07:49:18.000Z</time>
      </trkpt>
      <trkpt lat="47.87" lon="2.10635">
        <ele>156</ele>
        <time>2013-09-29T07:49:20.000Z</time>
      </trkpt>
      <trkpt lat="47.86998" lon="2.10618">
        <ele>156</ele>
        <time>2013-09-29T07:49:22.000Z</time>
      </trkpt>
      <trkpt lat="47.86998" lon="2.10601">
        <ele>156</ele>
        <time>2013-09-29T07:49:24.000Z</time>
      </trkpt>
      <trkpt lat="47.87002" lon="2.10586">
        <ele>156</ele>
        <time>2013-09-29T07:49:26.000Z</time>
      </trkpt>
      <trkpt lat="47.87002" lon="2.10586">
        <ele>156</ele>
        <time>2013-09-29T07:49:28.000Z</time>
      </trkpt>
      <trkpt lat="47.87002" lon="2.10586">
        <ele>156</ele>
        <time>2013-09-29T07:49:30.000Z</time>
      </trkpt>
      <trkpt lat="47.87002" lon="2.1053">
        <ele>157</ele>
        <time>2013-09-29T07:49:32.000Z</time>
      </trkpt>
      <trkpt lat="47.87002" lon="2.1053">
        <ele>157</ele>
        <time>2013-09-29T07:49:34.000Z</time>
      </trkpt>
      <trkpt lat="47.87002" lon="2.1053">
        <ele>157</ele>
        <time>2013-09-29T07:49:36.000Z</time>
      </trkpt>
      <trkpt lat="47.87002" lon="2.1053">
        <ele>157</ele>
        <time>2013-09-29T07:49:38.000Z</time>
      </trkpt>
      <trkpt lat="47.87001" lon="2.10436">
        <ele>156</ele>
        <time>2013-09-29T07:49:42.000Z</time>
      </trkpt>
      <trkpt lat="47.87003" lon="2.10413">
        <ele>156</ele>
        <time>2013-09-29T07:49:44.000Z</time>
      </trkpt>
      <trkpt lat="47.87003" lon="2.10391">
        <ele>156</ele>
        <time>2013-09-29T07:49:47.000Z</time>
      </trkpt>
      <trkpt lat="47.87002" lon="2.10372">
        <ele>157</ele>
        <time>2013-09-29T07:49:49.000Z</time>
      </trkpt>
      <trkpt lat="47.87003" lon="2.10353">
        <ele>157</ele>
        <time>2013-09-29T07:49:51.000Z</time>
      </trkpt>
      <trkpt lat="47.87002" lon="2.10333">
        <ele>158</ele>
        <time>2013-09-29T07:49:53.000Z</time>
      </trkpt>
      <trkpt lat="47.87004" lon="2.1031">
        <ele>158</ele>
        <time>2013-09-29T07:49:55.000Z</time>
      </trkpt>
      <trkpt lat="47.87006" lon="2.10292">
        <ele>157</ele>
        <time>2013-09-29T07:49:57.000Z</time>
      </trkpt>
      <trkpt lat="47.87006" lon="2.10273">
        <ele>158</ele>
        <time>2013-09-29T07:49:58.000Z</time>
      </trkpt>
      <trkpt lat="47.87004" lon="2.10249">
        <ele>157</ele>
        <time>2013-09-29T07:50:01.000Z</time>
      </trkpt>
      <trkpt lat="47.87002" lon="2.1023">
        <ele>157</ele>
        <time>2013-09-29T07:50:03.000Z</time>
      </trkpt>
      <trkpt lat="47.87001" lon="2.10211">
        <ele>157</ele>
        <time>2013-09-29T07:50:05.000Z</time>
      </trkpt>
      <trkpt lat="47.8701" lon="2.10172">
        <ele>155</ele>
        <time>2013-09-29T07:50:08.000Z</time>
      </trkpt>
      <trkpt lat="47.87011" lon="2.1015">
        <ele>154</ele>
        <time>2013-09-29T07:50:10.000Z</time>
      </trkpt>
      <trkpt lat="47.87009" lon="2.10133">
        <ele>155</ele>
        <time>2013-09-29T07:50:12.000Z</time>
      </trkpt>
      <trkpt lat="47.87006" lon="2.10116">
        <ele>155</ele>
        <time>2013-09-29T07:50:14.000Z</time>
      </trkpt>
      <trkpt lat="47.87004" lon="2.101">
        <ele>156</ele>
        <time>2013-09-29T07:50:16.000Z</time>
      </trkpt>
      <trkpt lat="47.87004" lon="2.10065">
        <ele>154</ele>
        <time>2013-09-29T07:50:19.000Z</time>
      </trkpt>
      <trkpt lat="47.87003" lon="2.10044">
        <ele>154</ele>
        <time>2013-09-29T07:50:21.000Z</time>
      </trkpt>
      <trkpt lat="47.87003" lon="2.10024">
        <ele>155</ele>
        <time>2013-09-29T07:50:23.000Z</time>
      </trkpt>
      <trkpt lat="47.87001" lon="2.10005">
        <ele>155</ele>
        <time>2013-09-29T07:50:25.000Z</time>
      </trkpt>
      <trkpt lat="47.87" lon="2.09987">
        <ele>154</ele>
        <time>2013-09-29T07:50:27.000Z</time>
      </trkpt>
      <trkpt lat="47.87" lon="2.09968">
        <ele>154</ele>
        <time>2013-09-29T07:50:29.000Z</time>
      </trkpt>
      <trkpt lat="47.86998" lon="2.0995">
        <ele>154</ele>
        <time>2013-09-29T07:50:31.000Z</time>
      </trkpt>
      <trkpt lat="47.86995" lon="2.09933">
        <ele>154</ele>
        <time>2013-09-29T07:50:33.000Z</time>
      </trkpt>
      <trkpt lat="47.86991" lon="2.09921">
        <ele>155</ele>
        <time>2013-09-29T07:50:35.000Z</time>
      </trkpt>
      <trkpt lat="47.86991" lon="2.09921">
        <ele>155</ele>
        <time>2013-09-29T07:50:37.000Z</time>
      </trkpt>
      <trkpt lat="47.86991" lon="2.09921">
        <ele>155</ele>
        <time>2013-09-29T07:50:39.000Z</time>
      </trkpt>
      <trkpt lat="47.86991" lon="2.09921">
        <ele>155</ele>
        <time>2013-09-29T07:50:41.000Z</time>
      </trkpt>
      <trkpt lat="47.86991" lon="2.09921">
        <ele>155</ele>
        <time>2013-09-29T07:50:43.000Z</time>
      </trkpt>
      <trkpt lat="47.86991" lon="2.09921">
        <ele>155</ele>
        <time>2013-09-29T07:50:45.000Z</time>
      </trkpt>
      <trkpt lat="47.86987" lon="2.09899">
        <ele>156</ele>
        <time>2013-09-29T07:54:27.000Z</time>
      </trkpt>
      <trkpt lat="47.86988" lon="2.09885">
        <ele>156</ele>
        <time>2013-09-29T07:54:31.000Z</time>
      </trkpt>
      <trkpt lat="47.8699" lon="2.0987">
        <ele>157</ele>
        <time>2013-09-29T07:54:35.000Z</time>
      </trkpt>
      <trkpt lat="47.8699" lon="2.09853">
        <ele>157</ele>
        <time>2013-09-29T07:54:39.000Z</time>
      </trkpt>
      <trkpt lat="47.86989" lon="2.09832">
        <ele>156</ele>
        <time>2013-09-29T07:54:43.000Z</time>
      </trkpt>
      <trkpt lat="47.86988" lon="2.09811">
        <ele>156</ele>
        <time>2013-09-29T07:54:47.000Z</time>
      </trkpt>
      <trkpt lat="47.86988" lon="2.09791">
        <ele>156</ele>
        <time>2013-09-29T07:54:51.000Z</time>
      </trkpt>
      <trkpt lat="47.86988" lon="2.09791">
        <ele>156</ele>
        <time>2013-09-29T07:54:53.000Z</time>
      </trkpt>
      <trkpt lat="47.86988" lon="2.09791">
        <ele>156</ele>
        <time>2013-09-29T07:54:55.000Z</time>
      </trkpt>
      <trkpt lat="47.86988" lon="2.09791">
        <ele>156</ele>
        <time>2013-09-29T07:54:57.000Z</time>
      </trkpt>
      <trkpt lat="47.86988" lon="2.09791">
        <ele>156</ele>
        <time>2013-09-29T07:54:59.000Z</time>
      </trkpt>
      <trkpt lat="47.86988" lon="2.09791">
        <ele>156</ele>
        <time>2013-09-29T07:55:01.000Z</time>
      </trkpt>
      <trkpt lat="47.86983" lon="2.0972">
        <ele>156</ele>
        <time>2013-09-29T07:55:05.000Z</time>
      </trkpt>
      <trkpt lat="47.8698" lon="2.09699">
        <ele>156</ele>
        <time>2013-09-29T07:55:09.000Z</time>
      </trkpt>
      <trkpt lat="47.86979" lon="2.09676">
        <ele>155</ele>
        <time>2013-09-29T07:55:13.000Z</time>
      </trkpt>
      <trkpt lat="47.86977" lon="2.09658">
        <ele>155</ele>
        <time>2013-09-29T07:55:17.000Z</time>
      </trkpt>
      <trkpt lat="47.86977" lon="2.09658">
        <ele>155</ele>
        <time>2013-09-29T07:55:19.000Z</time>
      </trkpt>
      <trkpt lat="47.86977" lon="2.09658">
        <ele>155</ele>
        <time>2013-09-29T07:55:20.000Z</time>
      </trkpt>
      <trkpt lat="47.86977" lon="2.09658">
        <ele>155</ele>
        <time>2013-09-29T07:55:23.000Z</time>
      </trkpt>
      <trkpt lat="47.8697" lon="2.09601">
        <ele>155</ele>
        <time>2013-09-29T07:55:27.000Z</time>
      </trkpt>
      <trkpt lat="47.86973" lon="2.09579">
        <ele>154</ele>
        <time>2013-09-29T07:55:31.000Z</time>
      </trkpt>
      <trkpt lat="47.86973" lon="2.09579">
        <ele>154</ele>
        <time>2013-09-29T07:55:33.000Z</time>
      </trkpt>
      <trkpt lat="47.86973" lon="2.09579">
        <ele>154</ele>
        <time>2013-09-29T07:55:35.000Z</time>
      </trkpt>
      <trkpt lat="47.86973" lon="2.09579">
        <ele>154</ele>
        <time>2013-09-29T07:55:37.000Z</time>
      </trkpt>
      <trkpt lat="47.86975" lon="2.09518">
        <ele>153</ele>
        <time>2013-09-29T07:55:41.000Z</time>
      </trkpt>
      <trkpt lat="47.86978" lon="2.09504">
        <ele>154</ele>
        <time>2013-09-29T07:55:43.000Z</time>
      </trkpt>
      <trkpt lat="47.86976" lon="2.0948">
        <ele>157</ele>
        <time>2013-09-29T07:55:47.000Z</time>
      </trkpt>
      <trkpt lat="47.86976" lon="2.0948">
        <ele>157</ele>
        <time>2013-09-29T07:55:48.000Z</time>
      </trkpt>
      <trkpt lat="47.86974" lon="2.09456">
        <ele>157</ele>
        <time>2013-09-29T07:55:51.000Z</time>
      </trkpt>
      <trkpt lat="47.86974" lon="2.09456">
        <ele>157</ele>
        <time>2013-09-29T07:55:53.000Z</time>
      </trkpt>
      <trkpt lat="47.86974" lon="2.09456">
        <ele>157</ele>
        <time>2013-09-29T07:55:55.000Z</time>
      </trkpt>
      <trkpt lat="47.86974" lon="2.09456">
        <ele>157</ele>
        <time>2013-09-29T07:55:57.000Z</time>
      </trkpt>
      <trkpt lat="47.86974" lon="2.09456">
        <ele>157</ele>
        <time>2013-09-29T07:56:01.000Z</time>
      </trkpt>
      <trkpt lat="47.86974" lon="2.09456">
        <ele>157</ele>
        <time>2013-09-29T07:56:03.000Z</time>
      </trkpt>
      <trkpt lat="47.86974" lon="2.09456">
        <ele>157</ele>
        <time>2013-09-29T07:56:04.000Z</time>
      </trkpt>
      <trkpt lat="47.86974" lon="2.09456">
        <ele>157</ele>
        <time>2013-09-29T07:56:07.000Z</time>
      </trkpt>
      <trkpt lat="47.86974" lon="2.09456">
        <ele>157</ele>
        <time>2013-09-29T07:56:11.000Z</time>
      </trkpt>
      <trkpt lat="47.86969" lon="2.0939">
        <ele>153</ele>
        <time>2013-09-29T07:56:14.000Z</time>
      </trkpt>
      <trkpt lat="47.86967" lon="2.09351">
        <ele>152</ele>
        <time>2013-09-29T07:56:17.000Z</time>
      </trkpt>
      <trkpt lat="47.86966" lon="2.09325">
        <ele>152</ele>
        <time>2013-09-29T07:56:19.000Z</time>
      </trkpt>
      <trkpt lat="47.86966" lon="2.09325">
        <ele>152</ele>
        <time>2013-09-29T07:56:21.000Z</time>
      </trkpt>
      <trkpt lat="47.86966" lon="2.09325">
        <ele>152</ele>
        <time>2013-09-29T07:56:23.000Z</time>
      </trkpt>
      <trkpt lat="47.86966" lon="2.09325">
        <ele>152</ele>
        <time>2013-09-29T07:56:25.000Z</time>
      </trkpt>
      <trkpt lat="47.86966" lon="2.09325">
        <ele>152</ele>
        <time>2013-09-29T07:56:27.000Z</time>
      </trkpt>
      <trkpt lat="47.86966" lon="2.09325">
        <ele>152</ele>
        <time>2013-09-29T07:56:29.000Z</time>
      </trkpt>
      <trkpt lat="47.86966" lon="2.09325">
        <ele>152</ele>
        <time>2013-09-29T07:56:31.000Z</time>
      </trkpt>
      <trkpt lat="47.86966" lon="2.09325">
        <ele>152</ele>
        <time>2013-09-29T07:56:33.000Z</time>
      </trkpt>
      <trkpt lat="47.86966" lon="2.09325">
        <ele>152</ele>
        <time>2013-09-29T07:56:35.000Z</time>
      </trkpt>
      <trkpt lat="47.86967" lon="2.09268">
        <ele>152</ele>
        <time>2013-09-29T07:56:39.000Z</time>
      </trkpt>
      <trkpt lat="47.86966" lon="2.09232">
        <ele>152</ele>
        <time>2013-09-29T07:56:41.000Z</time>
      </trkpt>
      <trkpt lat="47.86965" lon="2.09208">
        <ele>151</ele>
        <time>2013-09-29T07:56:43.000Z</time>
      </trkpt>
      <trkpt lat="47.86964" lon="2.0919">
        <ele>152</ele>
        <time>2013-09-29T07:56:45.000Z</time>
      </trkpt>
      <trkpt lat="47.86962" lon="2.09175">
        <ele>152</ele>
        <time>2013-09-29T07:56:47.000Z</time>
      </trkpt>
      <trkpt lat="47.86956" lon="2.09148">
        <ele>152</ele>
        <time>2013-09-29T07:56:48.000Z</time>
      </trkpt>
      <trkpt lat="47.8696" lon="2.09126">
        <ele>153</ele>
        <time>2013-09-29T07:56:53.000Z</time>
      </trkpt>
      <trkpt lat="47.8696" lon="2.09126">
        <ele>153</ele>
        <time>2013-09-29T07:56:55.000Z</time>
      </trkpt>
      <trkpt lat="47.8696" lon="2.09126">
        <ele>153</ele>
        <time>2013-09-29T07:56:57.000Z</time>
      </trkpt>
      <trkpt lat="47.8696" lon="2.09126">
        <ele>153</ele>
        <time>2013-09-29T07:56:59.000Z</time>
      </trkpt>
      <trkpt lat="47.86969" lon="2.09079">
        <ele>153</ele>
        <time>2013-09-29T07:57:03.000Z</time>
      </trkpt>
      <trkpt lat="47.86969" lon="2.09055">
        <ele>153</ele>
        <time>2013-09-29T07:57:07.000Z</time>
      </trkpt>
      <trkpt lat="47.86974" lon="2.09031">
        <ele>153</ele>
        <time>2013-09-29T07:57:11.000Z</time>
      </trkpt>
      <trkpt lat="47.86976" lon="2.09008">
        <ele>153</ele>
        <time>2013-09-29T07:57:15.000Z</time>
      </trkpt>
      <trkpt lat="47.86976" lon="2.08982">
        <ele>152</ele>
        <time>2013-09-29T07:57:19.000Z</time>
      </trkpt>
      <trkpt lat="47.86976" lon="2.08982">
        <ele>152</ele>
        <time>2013-09-29T07:57:21.000Z</time>
      </trkpt>
      <trkpt lat="47.86976" lon="2.08982">
        <ele>152</ele>
        <time>2013-09-29T07:57:23.000Z</time>
      </trkpt>
      <trkpt lat="47.86976" lon="2.08982">
        <ele>152</ele>
        <time>2013-09-29T07:57:25.000Z</time>
      </trkpt>
      <trkpt lat="47.86976" lon="2.08982">
        <ele>152</ele>
        <time>2013-09-29T07:57:27.000Z</time>
      </trkpt>
      <trkpt lat="47.86976" lon="2.08982">
        <ele>152</ele>
        <time>2013-09-29T07:57:29.000Z</time>
      </trkpt>
      <trkpt lat="47.86976" lon="2.08982">
        <ele>152</ele>
        <time>2013-09-29T07:57:31.000Z</time>
      </trkpt>
      <trkpt lat="47.86926" lon="2.09007">
        <ele>157</ele>
        <time>2013-09-29T07:57:34.000Z</time>
      </trkpt>
      <trkpt lat="47.86917" lon="2.09014">
        <ele>158</ele>
        <time>2013-09-29T07:57:36.000Z</time>
      </trkpt>
      <trkpt lat="47.86909" lon="2.0902">
        <ele>158</ele>
        <time>2013-09-29T07:57:38.000Z</time>
      </trkpt>
      <trkpt lat="47.86901" lon="2.09027">
        <ele>159</ele>
        <time>2013-09-29T07:57:40.000Z</time>
      </trkpt>
      <trkpt lat="47.86892" lon="2.09024">
        <ele>159</ele>
        <time>2013-09-29T07:57:42.000Z</time>
      </trkpt>
      <trkpt lat="47.86884" lon="2.09">
        <ele>159</ele>
        <time>2013-09-29T07:57:46.000Z</time>
      </trkpt>
      <trkpt lat="47.86881" lon="2.08986">
        <ele>159</ele>
        <time>2013-09-29T07:57:48.000Z</time>
      </trkpt>
      <trkpt lat="47.86877" lon="2.0897">
        <ele>158</ele>
        <time>2013-09-29T07:57:50.000Z</time>
      </trkpt>
      <trkpt lat="47.86872" lon="2.08956">
        <ele>158</ele>
        <time>2013-09-29T07:57:52.000Z</time>
      </trkpt>
      <trkpt lat="47.86868" lon="2.08942">
        <ele>158</ele>
        <time>2013-09-29T07:57:54.000Z</time>
      </trkpt>
      <trkpt lat="47.86863" lon="2.08928">
        <ele>158</ele>
        <time>2013-09-29T07:57:56.000Z</time>
      </trkpt>
      <trkpt lat="47.86859" lon="2.08914">
        <ele>158</ele>
        <time>2013-09-29T07:57:58.000Z</time>
      </trkpt>
      <trkpt lat="47.86855" lon="2.089">
        <ele>158</ele>
        <time>2013-09-29T07:58:00.000Z</time>
      </trkpt>
      <trkpt lat="47.8685" lon="2.08886">
        <ele>157</ele>
        <time>2013-09-29T07:58:02.000Z</time>
      </trkpt>
      <trkpt lat="47.8685" lon="2.08886">
        <ele>157</ele>
        <time>2013-09-29T07:58:04.000Z</time>
      </trkpt>
      <trkpt lat="47.8685" lon="2.08886">
        <ele>157</ele>
        <time>2013-09-29T07:58:06.000Z</time>
      </trkpt>
      <trkpt lat="47.8685" lon="2.08886">
        <ele>157</ele>
        <time>2013-09-29T07:58:08.000Z</time>
      </trkpt>
      <trkpt lat="47.8685" lon="2.08886">
        <ele>157</ele>
        <time>2013-09-29T07:58:10.000Z</time>
      </trkpt>
      <trkpt lat="47.8685" lon="2.08886">
        <ele>157</ele>
        <time>2013-09-29T07:58:16.000Z</time>
      </trkpt>
      <trkpt lat="47.8685" lon="2.08886">
        <ele>157</ele>
        <time>2013-09-29T07:58:18.000Z</time>
      </trkpt>
      <trkpt lat="47.8685" lon="2.08886">
        <ele>157</ele>
        <time>2013-09-29T07:58:20.000Z</time>
      </trkpt>
      <trkpt lat="47.8685" lon="2.08886">
        <ele>157</ele>
        <time>2013-09-29T07:58:23.000Z</time>
      </trkpt>
      <trkpt lat="47.86867" lon="2.08758">
        <ele>157</ele>
        <time>2013-09-29T07:58:25.000Z</time>
      </trkpt>
      <trkpt lat="47.86859" lon="2.08747">
        <ele>157</ele>
        <time>2013-09-29T07:58:27.000Z</time>
      </trkpt>
      <trkpt lat="47.86853" lon="2.08735">
        <ele>157</ele>
        <time>2013-09-29T07:58:29.000Z</time>
      </trkpt>
      <trkpt lat="47.86853" lon="2.08735">
        <ele>157</ele>
        <time>2013-09-29T07:58:31.000Z</time>
      </trkpt>
      <trkpt lat="47.86853" lon="2.08735">
        <ele>157</ele>
        <time>2013-09-29T07:58:33.000Z</time>
      </trkpt>
      <trkpt lat="47.86853" lon="2.08735">
        <ele>157</ele>
        <time>2013-09-29T07:58:35.000Z</time>
      </trkpt>
      <trkpt lat="47.8686" lon="2.08697">
        <ele>157</ele>
        <time>2013-09-29T07:58:41.000Z</time>
      </trkpt>
      <trkpt lat="47.86866" lon="2.08672">
        <ele>157</ele>
        <time>2013-09-29T07:58:43.000Z</time>
      </trkpt>
      <trkpt lat="47.86872" lon="2.08653">
        <ele>157</ele>
        <time>2013-09-29T07:58:44.000Z</time>
      </trkpt>
      <trkpt lat="47.8688" lon="2.08638">
        <ele>157</ele>
        <time>2013-09-29T07:58:47.000Z</time>
      </trkpt>
      <trkpt lat="47.86887" lon="2.08625">
        <ele>157</ele>
        <time>2013-09-29T07:58:49.000Z</time>
      </trkpt>
      <trkpt lat="47.86902" lon="2.086">
        <ele>157</ele>
        <time>2013-09-29T07:58:51.000Z</time>
      </trkpt>
      <trkpt lat="47.8691" lon="2.08589">
        <ele>157</ele>
        <time>2013-09-29T07:58:53.000Z</time>
      </trkpt>
      <trkpt lat="47.86918" lon="2.08577">
        <ele>156</ele>
        <time>2013-09-29T07:58:55.000Z</time>
      </trkpt>
      <trkpt lat="47.86926" lon="2.08564">
        <ele>156</ele>
        <time>2013-09-29T07:58:57.000Z</time>
      </trkpt>
      <trkpt lat="47.86927" lon="2.08547">
        <ele>156</ele>
        <time>2013-09-29T07:58:59.000Z</time>
      </trkpt>
      <trkpt lat="47.8693" lon="2.08532">
        <ele>156</ele>
        <time>2013-09-29T07:59:01.000Z</time>
      </trkpt>
      <trkpt lat="47.8693" lon="2.08532">
        <ele>156</ele>
        <time>2013-09-29T07:59:03.000Z</time>
      </trkpt>
      <trkpt lat="47.8693" lon="2.08532">
        <ele>156</ele>
        <time>2013-09-29T07:59:05.000Z</time>
      </trkpt>
      <trkpt lat="47.8693" lon="2.08532">
        <ele>156</ele>
        <time>2013-09-29T07:59:07.000Z</time>
      </trkpt>
      <trkpt lat="47.8693" lon="2.08532">
        <ele>156</ele>
        <time>2013-09-29T07:59:09.000Z</time>
      </trkpt>
      <trkpt lat="47.8693" lon="2.08532">
        <ele>156</ele>
        <time>2013-09-29T07:59:11.000Z</time>
      </trkpt>
      <trkpt lat="47.8693" lon="2.08532">
        <ele>156</ele>
        <time>2013-09-29T07:59:13.000Z</time>
      </trkpt>
      <trkpt lat="47.8693" lon="2.08532">
        <ele>156</ele>
        <time>2013-09-29T07:59:15.000Z</time>
      </trkpt>
      <trkpt lat="47.8693" lon="2.08532">
        <ele>156</ele>
        <time>2013-09-29T07:59:17.000Z</time>
      </trkpt>
      <trkpt lat="47.8693" lon="2.08532">
        <ele>156</ele>
        <time>2013-09-29T07:59:19.000Z</time>
      </trkpt>
      <trkpt lat="47.8693" lon="2.08532">
        <ele>156</ele>
        <time>2013-09-29T07:59:21.000Z</time>
      </trkpt>
      <trkpt lat="47.8693" lon="2.08532">
        <ele>156</ele>
        <time>2013-09-29T07:59:23.000Z</time>
      </trkpt>
      <trkpt lat="47.8693" lon="2.08532">
        <ele>156</ele>
        <time>2013-09-29T07:59:25.000Z</time>
      </trkpt>
      <trkpt lat="47.86956" lon="2.08469">
        <ele>153</ele>
        <time>2013-09-29T08:01:11.000Z</time>
      </trkpt>
      <trkpt lat="47.86952" lon="2.08448">
        <ele>155</ele>
        <time>2013-09-29T08:01:17.000Z</time>
      </trkpt>
      <trkpt lat="47.86949" lon="2.08429">
        <ele>154</ele>
        <time>2013-09-29T08:01:21.000Z</time>
      </trkpt>
      <trkpt lat="47.86948" lon="2.08411">
        <ele>153</ele>
        <time>2013-09-29T08:01:25.000Z</time>
      </trkpt>
      <trkpt lat="47.86948" lon="2.08411">
        <ele>153</ele>
        <time>2013-09-29T08:01:27.000Z</time>
      </trkpt>
      <trkpt lat="47.86949" lon="2.08393">
        <ele>153</ele>
        <time>2013-09-29T08:01:29.000Z</time>
      </trkpt>
      <trkpt lat="47.86949" lon="2.08393">
        <ele>153</ele>
        <time>2013-09-29T08:01:31.000Z</time>
      </trkpt>
      <trkpt lat="47.86949" lon="2.08393">
        <ele>153</ele>
        <time>2013-09-29T08:01:33.000Z</time>
      </trkpt>
      <trkpt lat="47.86949" lon="2.08393">
        <ele>153</ele>
        <time>2013-09-29T08:01:35.000Z</time>
      </trkpt>
      <trkpt lat="47.86949" lon="2.08393">
        <ele>153</ele>
        <time>2013-09-29T08:01:37.000Z</time>
      </trkpt>
      <trkpt lat="47.8695" lon="2.08364">
        <ele>151</ele>
        <time>2013-09-29T08:02:06.000Z</time>
      </trkpt>
      <trkpt lat="47.86949" lon="2.0835">
        <ele>151</ele>
        <time>2013-09-29T08:02:10.000Z</time>
      </trkpt>
      <trkpt lat="47.86948" lon="2.08335">
        <ele>151</ele>
        <time>2013-09-29T08:02:14.000Z</time>
      </trkpt>
      <trkpt lat="47.86948" lon="2.08314">
        <ele>151</ele>
        <time>2013-09-29T08:02:18.000Z</time>
      </trkpt>
      <trkpt lat="47.86946" lon="2.08287">
        <ele>151</ele>
        <time>2013-09-29T08:02:22.000Z</time>
      </trkpt>
      <trkpt lat="47.86945" lon="2.08271">
        <ele>150</ele>
        <time>2013-09-29T08:02:24.000Z</time>
      </trkpt>
      <trkpt lat="47.86942" lon="2.08256">
        <ele>150</ele>
        <time>2013-09-29T08:02:26.000Z</time>
      </trkpt>
      <trkpt lat="47.86939" lon="2.0824">
        <ele>150</ele>
        <time>2013-09-29T08:02:28.000Z</time>
      </trkpt>
      <trkpt lat="47.8694" lon="2.08224">
        <ele>150</ele>
        <time>2013-09-29T08:02:30.000Z</time>
      </trkpt>
      <trkpt lat="47.8694" lon="2.08209">
        <ele>151</ele>
        <time>2013-09-29T08:02:32.000Z</time>
      </trkpt>
      <trkpt lat="47.86938" lon="2.08193">
        <ele>151</ele>
        <time>2013-09-29T08:02:34.000Z</time>
      </trkpt>
      <trkpt lat="47.86939" lon="2.08179">
        <ele>152</ele>
        <time>2013-09-29T08:02:36.000Z</time>
      </trkpt>
      <trkpt lat="47.86935" lon="2.08165">
        <ele>152</ele>
        <time>2013-09-29T08:02:38.000Z</time>
      </trkpt>
      <trkpt lat="47.86933" lon="2.0815">
        <ele>152</ele>
        <time>2013-09-29T08:02:40.000Z</time>
      </trkpt>
      <trkpt lat="47.86933" lon="2.0815">
        <ele>152</ele>
        <time>2013-09-29T08:02:42.000Z</time>
      </trkpt>
      <trkpt lat="47.86933" lon="2.0815">
        <ele>152</ele>
        <time>2013-09-29T08:02:44.000Z</time>
      </trkpt>
      <trkpt lat="47.86933" lon="2.0815">
        <ele>152</ele>
        <time>2013-09-29T08:02:46.000Z</time>
      </trkpt>
      <trkpt lat="47.86933" lon="2.0815">
        <ele>152</ele>
        <time>2013-09-29T08:02:48.000Z</time>
      </trkpt>
      <trkpt lat="47.86928" lon="2.08063">
        <ele>151</ele>
        <time>2013-09-29T08:02:52.000Z</time>
      </trkpt>
      <trkpt lat="47.86926" lon="2.08046">
        <ele>151</ele>
        <time>2013-09-29T08:02:54.000Z</time>
      </trkpt>
      <trkpt lat="47.86925" lon="2.08031">
        <ele>151</ele>
        <time>2013-09-29T08:02:56.000Z</time>
      </trkpt>
      <trkpt lat="47.86926" lon="2.08016">
        <ele>151</ele>
        <time>2013-09-29T08:02:58.000Z</time>
      </trkpt>
      <trkpt lat="47.86926" lon="2.08016">
        <ele>151</ele>
        <time>2013-09-29T08:03:00.000Z</time>
      </trkpt>
      <trkpt lat="47.86926" lon="2.08016">
        <ele>151</ele>
        <time>2013-09-29T08:03:02.000Z</time>
      </trkpt>
      <trkpt lat="47.86926" lon="2.08016">
        <ele>151</ele>
        <time>2013-09-29T08:03:04.000Z</time>
      </trkpt>
      <trkpt lat="47.86926" lon="2.08016">
        <ele>151</ele>
        <time>2013-09-29T08:03:06.000Z</time>
      </trkpt>
      <trkpt lat="47.86926" lon="2.08016">
        <ele>151</ele>
        <time>2013-09-29T08:03:12.000Z</time>
      </trkpt>
      <trkpt lat="47.86926" lon="2.08016">
        <ele>151</ele>
        <time>2013-09-29T08:03:14.000Z</time>
      </trkpt>
      <trkpt lat="47.86926" lon="2.08016">
        <ele>151</ele>
        <time>2013-09-29T08:03:16.000Z</time>
      </trkpt>
      <trkpt lat="47.86926" lon="2.08016">
        <ele>151</ele>
        <time>2013-09-29T08:03:18.000Z</time>
      </trkpt>
      <trkpt lat="47.86926" lon="2.08016">
        <ele>151</ele>
        <time>2013-09-29T08:03:20.000Z</time>
      </trkpt>
      <trkpt lat="47.86926" lon="2.08016">
        <ele>151</ele>
        <time>2013-09-29T08:03:22.000Z</time>
      </trkpt>
      <trkpt lat="47.86926" lon="2.08016">
        <ele>151</ele>
        <time>2013-09-29T08:03:24.000Z</time>
      </trkpt>
      <trkpt lat="47.86926" lon="2.08016">
        <ele>151</ele>
        <time>2013-09-29T08:03:26.000Z</time>
      </trkpt>
      <trkpt lat="47.86926" lon="2.08016">
        <ele>151</ele>
        <time>2013-09-29T08:03:28.000Z</time>
      </trkpt>
      <trkpt lat="47.86907" lon="2.07857">
        <ele>148</ele>
        <time>2013-09-29T08:03:57.000Z</time>
      </trkpt>
      <trkpt lat="47.86904" lon="2.07842">
        <ele>150</ele>
        <time>2013-09-29T08:04:00.000Z</time>
      </trkpt>
      <trkpt lat="47.86899" lon="2.07825">
        <ele>153</ele>
        <time>2013-09-29T08:04:04.000Z</time>
      </trkpt>
      <trkpt lat="47.86896" lon="2.07799">
        <ele>157</ele>
        <time>2013-09-29T08:04:08.000Z</time>
      </trkpt>
      <trkpt lat="47.86894" lon="2.07786">
        <ele>158</ele>
        <time>2013-09-29T08:04:10.000Z</time>
      </trkpt>
      <trkpt lat="47.86891" lon="2.07771">
        <ele>157</ele>
        <time>2013-09-29T08:04:12.000Z</time>
      </trkpt>
      <trkpt lat="47.86889" lon="2.07756">
        <ele>157</ele>
        <time>2013-09-29T08:04:14.000Z</time>
      </trkpt>
      <trkpt lat="47.86887" lon="2.07728">
        <ele>158</ele>
        <time>2013-09-29T08:04:18.000Z</time>
      </trkpt>
      <trkpt lat="47.86885" lon="2.07712">
        <ele>157</ele>
        <time>2013-09-29T08:04:20.000Z</time>
      </trkpt>
      <trkpt lat="47.86882" lon="2.07698">
        <ele>157</ele>
        <time>2013-09-29T08:04:22.000Z</time>
      </trkpt>
      <trkpt lat="47.86881" lon="2.07685">
        <ele>157</ele>
        <time>2013-09-29T08:04:24.000Z</time>
      </trkpt>
      <trkpt lat="47.86881" lon="2.07685">
        <ele>157</ele>
        <time>2013-09-29T08:04:26.000Z</time>
      </trkpt>
      <trkpt lat="47.86881" lon="2.07685">
        <ele>157</ele>
        <time>2013-09-29T08:04:28.000Z</time>
      </trkpt>
      <trkpt lat="47.86881" lon="2.07685">
        <ele>157</ele>
        <time>2013-09-29T08:04:30.000Z</time>
      </trkpt>
      <trkpt lat="47.86881" lon="2.07685">
        <ele>157</ele>
        <time>2013-09-29T08:04:32.000Z</time>
      </trkpt>
      <trkpt lat="47.86881" lon="2.07685">
        <ele>157</ele>
        <time>2013-09-29T08:04:34.000Z</time>
      </trkpt>
      <trkpt lat="47.86882" lon="2.07578">
        <ele>158</ele>
        <time>2013-09-29T08:04:38.000Z</time>
      </trkpt>
      <trkpt lat="47.8688" lon="2.07561">
        <ele>156</ele>
        <time>2013-09-29T08:04:40.000Z</time>
      </trkpt>
      <trkpt lat="47.86873" lon="2.07548">
        <ele>156</ele>
        <time>2013-09-29T08:04:42.000Z</time>
      </trkpt>
      <trkpt lat="47.86873" lon="2.07548">
        <ele>156</ele>
        <time>2013-09-29T08:04:44.000Z</time>
      </trkpt>
      <trkpt lat="47.8687" lon="2.07517">
        <ele>157</ele>
        <time>2013-09-29T08:04:46.000Z</time>
      </trkpt>
      <trkpt lat="47.8687" lon="2.07517">
        <ele>157</ele>
        <time>2013-09-29T08:04:48.000Z</time>
      </trkpt>
      <trkpt lat="47.8687" lon="2.07517">
        <ele>157</ele>
        <time>2013-09-29T08:04:52.000Z</time>
      </trkpt>
      <trkpt lat="47.8687" lon="2.07517">
        <ele>157</ele>
        <time>2013-09-29T08:04:54.000Z</time>
      </trkpt>
      <trkpt lat="47.8687" lon="2.07517">
        <ele>157</ele>
        <time>2013-09-29T08:04:56.000Z</time>
      </trkpt>
      <trkpt lat="47.8687" lon="2.07517">
        <ele>157</ele>
        <time>2013-09-29T08:04:58.000Z</time>
      </trkpt>
      <trkpt lat="47.8687" lon="2.07517">
        <ele>157</ele>
        <time>2013-09-29T08:05:00.000Z</time>
      </trkpt>
      <trkpt lat="47.8687" lon="2.07517">
        <ele>157</ele>
        <time>2013-09-29T08:05:02.000Z</time>
      </trkpt>
      <trkpt lat="47.8687" lon="2.07517">
        <ele>157</ele>
        <time>2013-09-29T08:05:04.000Z</time>
      </trkpt>
      <trkpt lat="47.86842" lon="2.07346">
        <ele>158</ele>
        <time>2013-09-29T08:05:10.000Z</time>
      </trkpt>
      <trkpt lat="47.86844" lon="2.07329">
        <ele>159</ele>
        <time>2013-09-29T08:05:12.000Z</time>
      </trkpt>
      <trkpt lat="47.86846" lon="2.07314">
        <ele>160</ele>
        <time>2013-09-29T08:05:13.000Z</time>
      </trkpt>
      <trkpt lat="47.86839" lon="2.073">
        <ele>160</ele>
        <time>2013-09-29T08:05:16.000Z</time>
      </trkpt>
      <trkpt lat="47.86837" lon="2.07287">
        <ele>161</ele>
        <time>2013-09-29T08:05:17.000Z</time>
      </trkpt>
      <trkpt lat="47.86837" lon="2.07287">
        <ele>161</ele>
        <time>2013-09-29T08:05:20.000Z</time>
      </trkpt>
      <trkpt lat="47.86837" lon="2.07287">
        <ele>161</ele>
        <time>2013-09-29T08:05:22.000Z</time>
      </trkpt>
      <trkpt lat="47.86837" lon="2.07287">
        <ele>161</ele>
        <time>2013-09-29T08:05:24.000Z</time>
      </trkpt>
      <trkpt lat="47.86837" lon="2.07287">
        <ele>161</ele>
        <time>2013-09-29T08:05:28.000Z</time>
      </trkpt>
      <trkpt lat="47.86837" lon="2.07287">
        <ele>161</ele>
        <time>2013-09-29T08:05:30.000Z</time>
      </trkpt>
      <trkpt lat="47.86831" lon="2.07148">
        <ele>159</ele>
        <time>2013-09-29T08:05:35.000Z</time>
      </trkpt>
      <trkpt lat="47.8683" lon="2.07127">
        <ele>159</ele>
        <time>2013-09-29T08:05:37.000Z</time>
      </trkpt>
      <trkpt lat="47.86824" lon="2.07092">
        <ele>157</ele>
        <time>2013-09-29T08:05:41.000Z</time>
      </trkpt>
      <trkpt lat="47.8682" lon="2.07075">
        <ele>155</ele>
        <time>2013-09-29T08:05:43.000Z</time>
      </trkpt>
      <trkpt lat="47.86818" lon="2.07059">
        <ele>156</ele>
        <time>2013-09-29T08:05:45.000Z</time>
      </trkpt>
      <trkpt lat="47.86817" lon="2.07044">
        <ele>156</ele>
        <time>2013-09-29T08:05:47.000Z</time>
      </trkpt>
      <trkpt lat="47.86816" lon="2.07023">
        <ele>155</ele>
        <time>2013-09-29T08:05:49.000Z</time>
      </trkpt>
      <trkpt lat="47.86808" lon="2.07006">
        <ele>154</ele>
        <time>2013-09-29T08:05:51.000Z</time>
      </trkpt>
      <trkpt lat="47.86806" lon="2.0699">
        <ele>153</ele>
        <time>2013-09-29T08:05:53.000Z</time>
      </trkpt>
      <trkpt lat="47.868" lon="2.06975">
        <ele>153</ele>
        <time>2013-09-29T08:05:55.000Z</time>
      </trkpt>
      <trkpt lat="47.86798" lon="2.06957">
        <ele>153</ele>
        <time>2013-09-29T08:05:57.000Z</time>
      </trkpt>
      <trkpt lat="47.86794" lon="2.0694">
        <ele>153</ele>
        <time>2013-09-29T08:05:59.000Z</time>
      </trkpt>
      <trkpt lat="47.86789" lon="2.06924">
        <ele>153</ele>
        <time>2013-09-29T08:06:01.000Z</time>
      </trkpt>
      <trkpt lat="47.86784" lon="2.06908">
        <ele>152</ele>
        <time>2013-09-29T08:06:03.000Z</time>
      </trkpt>
      <trkpt lat="47.86781" lon="2.06892">
        <ele>152</ele>
        <time>2013-09-29T08:06:05.000Z</time>
      </trkpt>
      <trkpt lat="47.86777" lon="2.06874">
        <ele>152</ele>
        <time>2013-09-29T08:06:07.000Z</time>
      </trkpt>
      <trkpt lat="47.86774" lon="2.06858">
        <ele>151</ele>
        <time>2013-09-29T08:06:09.000Z</time>
      </trkpt>
      <trkpt lat="47.86774" lon="2.06858">
        <ele>151</ele>
        <time>2013-09-29T08:06:11.000Z</time>
      </trkpt>
      <trkpt lat="47.86771" lon="2.06843">
        <ele>151</ele>
        <time>2013-09-29T08:06:13.000Z</time>
      </trkpt>
      <trkpt lat="47.86771" lon="2.06843">
        <ele>151</ele>
        <time>2013-09-29T08:06:15.000Z</time>
      </trkpt>
      <trkpt lat="47.86771" lon="2.06843">
        <ele>151</ele>
        <time>2013-09-29T08:06:17.000Z</time>
      </trkpt>
      <trkpt lat="47.86771" lon="2.06843">
        <ele>151</ele>
        <time>2013-09-29T08:06:19.000Z</time>
      </trkpt>
      <trkpt lat="47.86771" lon="2.06843">
        <ele>151</ele>
        <time>2013-09-29T08:06:21.000Z</time>
      </trkpt>
      <trkpt lat="47.86771" lon="2.06843">
        <ele>151</ele>
        <time>2013-09-29T08:06:23.000Z</time>
      </trkpt>
      <trkpt lat="47.86753" lon="2.06787">
        <ele>153</ele>
        <time>2013-09-29T08:06:27.000Z</time>
      </trkpt>
      <trkpt lat="47.8674" lon="2.06751">
        <ele>153</ele>
        <time>2013-09-29T08:06:29.000Z</time>
      </trkpt>
      <trkpt lat="47.86732" lon="2.06726">
        <ele>154</ele>
        <time>2013-09-29T08:06:31.000Z</time>
      </trkpt>
      <trkpt lat="47.86725" lon="2.06706">
        <ele>154</ele>
        <time>2013-09-29T08:06:33.000Z</time>
      </trkpt>
      <trkpt lat="47.8672" lon="2.06688">
        <ele>154</ele>
        <time>2013-09-29T08:06:35.000Z</time>
      </trkpt>
      <trkpt lat="47.86708" lon="2.06655">
        <ele>153</ele>
        <time>2013-09-29T08:06:37.000Z</time>
      </trkpt>
      <trkpt lat="47.86702" lon="2.06639">
        <ele>153</ele>
        <time>2013-09-29T08:06:39.000Z</time>
      </trkpt>
      <trkpt lat="47.86699" lon="2.06621">
        <ele>152</ele>
        <time>2013-09-29T08:06:41.000Z</time>
      </trkpt>
      <trkpt lat="47.86693" lon="2.06605">
        <ele>152</ele>
        <time>2013-09-29T08:06:43.000Z</time>
      </trkpt>
      <trkpt lat="47.86689" lon="2.0659">
        <ele>151</ele>
        <time>2013-09-29T08:06:45.000Z</time>
      </trkpt>
      <trkpt lat="47.86683" lon="2.06575">
        <ele>151</ele>
        <time>2013-09-29T08:06:47.000Z</time>
      </trkpt>
      <trkpt lat="47.86678" lon="2.0656">
        <ele>151</ele>
        <time>2013-09-29T08:06:49.000Z</time>
      </trkpt>
      <trkpt lat="47.86672" lon="2.06544">
        <ele>151</ele>
        <time>2013-09-29T08:06:51.000Z</time>
      </trkpt>
      <trkpt lat="47.86667" lon="2.06528">
        <ele>150</ele>
        <time>2013-09-29T08:06:53.000Z</time>
      </trkpt>
      <trkpt lat="47.86661" lon="2.06512">
        <ele>151</ele>
        <time>2013-09-29T08:06:55.000Z</time>
      </trkpt>
      <trkpt lat="47.86655" lon="2.06498">
        <ele>151</ele>
        <time>2013-09-29T08:06:57.000Z</time>
      </trkpt>
      <trkpt lat="47.86649" lon="2.06484">
        <ele>151</ele>
        <time>2013-09-29T08:06:59.000Z</time>
      </trkpt>
      <trkpt lat="47.86641" lon="2.06472">
        <ele>151</ele>
        <time>2013-09-29T08:07:01.000Z</time>
      </trkpt>
      <trkpt lat="47.86635" lon="2.06458">
        <ele>151</ele>
        <time>2013-09-29T08:07:03.000Z</time>
      </trkpt>
      <trkpt lat="47.86629" lon="2.06446">
        <ele>151</ele>
        <time>2013-09-29T08:07:05.000Z</time>
      </trkpt>
      <trkpt lat="47.86629" lon="2.06446">
        <ele>151</ele>
        <time>2013-09-29T08:07:07.000Z</time>
      </trkpt>
      <trkpt lat="47.86629" lon="2.06446">
        <ele>151</ele>
        <time>2013-09-29T08:07:09.000Z</time>
      </trkpt>
      <trkpt lat="47.86629" lon="2.06446">
        <ele>151</ele>
        <time>2013-09-29T08:07:11.000Z</time>
      </trkpt>
      <trkpt lat="47.86629" lon="2.06446">
        <ele>151</ele>
        <time>2013-09-29T08:07:13.000Z</time>
      </trkpt>
      <trkpt lat="47.86629" lon="2.06446">
        <ele>151</ele>
        <time>2013-09-29T08:07:15.000Z</time>
      </trkpt>
      <trkpt lat="47.86629" lon="2.06446">
        <ele>151</ele>
        <time>2013-09-29T08:07:17.000Z</time>
      </trkpt>
      <trkpt lat="47.86629" lon="2.06446">
        <ele>151</ele>
        <time>2013-09-29T08:07:19.000Z</time>
      </trkpt>
      <trkpt lat="47.86629" lon="2.06446">
        <ele>151</ele>
        <time>2013-09-29T08:07:21.000Z</time>
      </trkpt>
      <trkpt lat="47.86629" lon="2.06446">
        <ele>151</ele>
        <time>2013-09-29T08:07:23.000Z</time>
      </trkpt>
      <trkpt lat="47.86589" lon="2.06356">
        <ele>147</ele>
        <time>2013-09-29T08:07:25.000Z</time>
      </trkpt>
      <trkpt lat="47.86581" lon="2.06335">
        <ele>146</ele>
        <time>2013-09-29T08:07:29.000Z</time>
      </trkpt>
      <trkpt lat="47.86581" lon="2.06335">
        <ele>146</ele>
        <time>2013-09-29T08:07:31.000Z</time>
      </trkpt>
      <trkpt lat="47.86581" lon="2.06335">
        <ele>146</ele>
        <time>2013-09-29T08:07:33.000Z</time>
      </trkpt>
      <trkpt lat="47.86581" lon="2.06335">
        <ele>146</ele>
        <time>2013-09-29T08:07:35.000Z</time>
      </trkpt>
      <trkpt lat="47.86581" lon="2.06335">
        <ele>146</ele>
        <time>2013-09-29T08:07:37.000Z</time>
      </trkpt>
      <trkpt lat="47.86581" lon="2.06335">
        <ele>146</ele>
        <time>2013-09-29T08:07:38.000Z</time>
      </trkpt>
      <trkpt lat="47.86581" lon="2.06335">
        <ele>146</ele>
        <time>2013-09-29T08:07:41.000Z</time>
      </trkpt>
      <trkpt lat="47.86581" lon="2.06335">
        <ele>146</ele>
        <time>2013-09-29T08:07:43.000Z</time>
      </trkpt>
      <trkpt lat="47.86581" lon="2.06335">
        <ele>146</ele>
        <time>2013-09-29T08:07:45.000Z</time>
      </trkpt>
      <trkpt lat="47.86581" lon="2.06335">
        <ele>146</ele>
        <time>2013-09-29T08:07:47.000Z</time>
      </trkpt>
      <trkpt lat="47.86552" lon="2.063">
        <ele>148</ele>
        <time>2013-09-29T08:07:51.000Z</time>
      </trkpt>
      <trkpt lat="47.86552" lon="2.063">
        <ele>148</ele>
        <time>2013-09-29T08:07:53.000Z</time>
      </trkpt>
      <trkpt lat="47.86552" lon="2.063">
        <ele>148</ele>
        <time>2013-09-29T08:07:55.000Z</time>
      </trkpt>
      <trkpt lat="47.86552" lon="2.063">
        <ele>148</ele>
        <time>2013-09-29T08:07:57.000Z</time>
      </trkpt>
      <trkpt lat="47.86552" lon="2.063">
        <ele>148</ele>
        <time>2013-09-29T08:07:59.000Z</time>
      </trkpt>
      <trkpt lat="47.86557" lon="2.06285">
        <ele>150</ele>
        <time>2013-09-29T08:08:57.000Z</time>
      </trkpt>
      <trkpt lat="47.86544" lon="2.06283">
        <ele>149</ele>
        <time>2013-09-29T08:09:02.000Z</time>
      </trkpt>
      <trkpt lat="47.86544" lon="2.06283">
        <ele>149</ele>
        <time>2013-09-29T08:09:08.000Z</time>
      </trkpt>
      <trkpt lat="47.86544" lon="2.06283">
        <ele>149</ele>
        <time>2013-09-29T08:09:10.000Z</time>
      </trkpt>
      <trkpt lat="47.8654" lon="2.0625">
        <ele>150</ele>
        <time>2013-09-29T08:09:14.000Z</time>
      </trkpt>
      <trkpt lat="47.86533" lon="2.06239">
        <ele>149</ele>
        <time>2013-09-29T08:09:18.000Z</time>
      </trkpt>
      <trkpt lat="47.86528" lon="2.06228">
        <ele>150</ele>
        <time>2013-09-29T08:09:22.000Z</time>
      </trkpt>
      <trkpt lat="47.86522" lon="2.06214">
        <ele>150</ele>
        <time>2013-09-29T08:09:26.000Z</time>
      </trkpt>
      <trkpt lat="47.86515" lon="2.06199">
        <ele>150</ele>
        <time>2013-09-29T08:09:30.000Z</time>
      </trkpt>
      <trkpt lat="47.86507" lon="2.06181">
        <ele>150</ele>
        <time>2013-09-29T08:09:34.000Z</time>
      </trkpt>
      <trkpt lat="47.86497" lon="2.06167">
        <ele>150</ele>
        <time>2013-09-29T08:09:38.000Z</time>
      </trkpt>
      <trkpt lat="47.86493" lon="2.06146">
        <ele>149</ele>
        <time>2013-09-29T08:09:42.000Z</time>
      </trkpt>
      <trkpt lat="47.86485" lon="2.06129">
        <ele>149</ele>
        <time>2013-09-29T08:09:46.000Z</time>
      </trkpt>
      <trkpt lat="47.86485" lon="2.06129">
        <ele>149</ele>
        <time>2013-09-29T08:09:48.000Z</time>
      </trkpt>
      <trkpt lat="47.86485" lon="2.06129">
        <ele>149</ele>
        <time>2013-09-29T08:09:50.000Z</time>
      </trkpt>
      <trkpt lat="47.86485" lon="2.06129">
        <ele>149</ele>
        <time>2013-09-29T08:09:52.000Z</time>
      </trkpt>
      <trkpt lat="47.86485" lon="2.06129">
        <ele>149</ele>
        <time>2013-09-29T08:09:54.000Z</time>
      </trkpt>
      <trkpt lat="47.86485" lon="2.06129">
        <ele>149</ele>
        <time>2013-09-29T08:09:56.000Z</time>
      </trkpt>
      <trkpt lat="47.86485" lon="2.06129">
        <ele>149</ele>
        <time>2013-09-29T08:09:58.000Z</time>
      </trkpt>
      <trkpt lat="47.86456" lon="2.06062">
        <ele>148</ele>
        <time>2013-09-29T08:10:02.000Z</time>
      </trkpt>
      <trkpt lat="47.86446" lon="2.06044">
        <ele>148</ele>
        <time>2013-09-29T08:10:06.000Z</time>
      </trkpt>
      <trkpt lat="47.86437" lon="2.06027">
        <ele>148</ele>
        <time>2013-09-29T08:10:10.000Z</time>
      </trkpt>
      <trkpt lat="47.86437" lon="2.06027">
        <ele>148</ele>
        <time>2013-09-29T08:10:12.000Z</time>
      </trkpt>
      <trkpt lat="47.86427" lon="2.0601">
        <ele>148</ele>
        <time>2013-09-29T08:10:14.000Z</time>
      </trkpt>
      <trkpt lat="47.86417" lon="2.05992">
        <ele>148</ele>
        <time>2013-09-29T08:10:18.000Z</time>
      </trkpt>
      <trkpt lat="47.86406" lon="2.05975">
        <ele>148</ele>
        <time>2013-09-29T08:10:22.000Z</time>
      </trkpt>
      <trkpt lat="47.86395" lon="2.05958">
        <ele>148</ele>
        <time>2013-09-29T08:10:26.000Z</time>
      </trkpt>
      <trkpt lat="47.86383" lon="2.05942">
        <ele>148</ele>
        <time>2013-09-29T08:10:30.000Z</time>
      </trkpt>
      <trkpt lat="47.86383" lon="2.05942">
        <ele>148</ele>
        <time>2013-09-29T08:10:32.000Z</time>
      </trkpt>
      <trkpt lat="47.86369" lon="2.05927">
        <ele>148</ele>
        <time>2013-09-29T08:10:34.000Z</time>
      </trkpt>
      <trkpt lat="47.86362" lon="2.0592">
        <ele>149</ele>
        <time>2013-09-29T08:10:38.000Z</time>
      </trkpt>
      <trkpt lat="47.86355" lon="2.05913">
        <ele>149</ele>
        <time>2013-09-29T08:10:40.000Z</time>
      </trkpt>
      <trkpt lat="47.86349" lon="2.05905">
        <ele>149</ele>
        <time>2013-09-29T08:10:42.000Z</time>
      </trkpt>
      <trkpt lat="47.86341" lon="2.05897">
        <ele>149</ele>
        <time>2013-09-29T08:10:44.000Z</time>
      </trkpt>
      <trkpt lat="47.86332" lon="2.0589">
        <ele>148</ele>
        <time>2013-09-29T08:10:46.000Z</time>
      </trkpt>
      <trkpt lat="47.86319" lon="2.05875">
        <ele>148</ele>
        <time>2013-09-29T08:10:48.000Z</time>
      </trkpt>
      <trkpt lat="47.86305" lon="2.05858">
        <ele>150</ele>
        <time>2013-09-29T08:10:52.000Z</time>
      </trkpt>
      <trkpt lat="47.86305" lon="2.05858">
        <ele>150</ele>
        <time>2013-09-29T08:10:54.000Z</time>
      </trkpt>
      <trkpt lat="47.86293" lon="2.05837">
        <ele>149</ele>
        <time>2013-09-29T08:10:56.000Z</time>
      </trkpt>
      <trkpt lat="47.86285" lon="2.05829">
        <ele>149</ele>
        <time>2013-09-29T08:10:58.000Z</time>
      </trkpt>
      <trkpt lat="47.86269" lon="2.05814">
        <ele>151</ele>
        <time>2013-09-29T08:11:02.000Z</time>
      </trkpt>
      <trkpt lat="47.8626" lon="2.05804">
        <ele>151</ele>
        <time>2013-09-29T08:11:04.000Z</time>
      </trkpt>
      <trkpt lat="47.86244" lon="2.05789">
        <ele>153</ele>
        <time>2013-09-29T08:11:08.000Z</time>
      </trkpt>
      <trkpt lat="47.86234" lon="2.05782">
        <ele>154</ele>
        <time>2013-09-29T08:11:10.000Z</time>
      </trkpt>
      <trkpt lat="47.86226" lon="2.05775">
        <ele>153</ele>
        <time>2013-09-29T08:11:12.000Z</time>
      </trkpt>
      <trkpt lat="47.86226" lon="2.05775">
        <ele>153</ele>
        <time>2013-09-29T08:11:14.000Z</time>
      </trkpt>
      <trkpt lat="47.86226" lon="2.05775">
        <ele>153</ele>
        <time>2013-09-29T08:11:16.000Z</time>
      </trkpt>
      <trkpt lat="47.86226" lon="2.05775">
        <ele>153</ele>
        <time>2013-09-29T08:11:18.000Z</time>
      </trkpt>
      <trkpt lat="47.86226" lon="2.05775">
        <ele>153</ele>
        <time>2013-09-29T08:11:20.000Z</time>
      </trkpt>
      <trkpt lat="47.86226" lon="2.05775">
        <ele>153</ele>
        <time>2013-09-29T08:11:22.000Z</time>
      </trkpt>
      <trkpt lat="47.86226" lon="2.05775">
        <ele>153</ele>
        <time>2013-09-29T08:11:24.000Z</time>
      </trkpt>
      <trkpt lat="47.86226" lon="2.05775">
        <ele>153</ele>
        <time>2013-09-29T08:11:26.000Z</time>
      </trkpt>
      <trkpt lat="47.86158" lon="2.05724">
        <ele>162</ele>
        <time>2013-09-29T08:11:30.000Z</time>
      </trkpt>
      <trkpt lat="47.8615" lon="2.05719">
        <ele>163</ele>
        <time>2013-09-29T08:11:31.000Z</time>
      </trkpt>
      <trkpt lat="47.86135" lon="2.05707">
        <ele>163</ele>
        <time>2013-09-29T08:11:36.000Z</time>
      </trkpt>
      <trkpt lat="47.86135" lon="2.05707">
        <ele>163</ele>
        <time>2013-09-29T08:11:38.000Z</time>
      </trkpt>
      <trkpt lat="47.86135" lon="2.05707">
        <ele>163</ele>
        <time>2013-09-29T08:11:40.000Z</time>
      </trkpt>
      <trkpt lat="47.86135" lon="2.05707">
        <ele>163</ele>
        <time>2013-09-29T08:11:42.000Z</time>
      </trkpt>
      <trkpt lat="47.86135" lon="2.05707">
        <ele>163</ele>
        <time>2013-09-29T08:11:44.000Z</time>
      </trkpt>
      <trkpt lat="47.86135" lon="2.05707">
        <ele>163</ele>
        <time>2013-09-29T08:11:46.000Z</time>
      </trkpt>
      <trkpt lat="47.86135" lon="2.05707">
        <ele>163</ele>
        <time>2013-09-29T08:11:48.000Z</time>
      </trkpt>
      <trkpt lat="47.86086" lon="2.05644">
        <ele>158</ele>
        <time>2013-09-29T08:11:52.000Z</time>
      </trkpt>
      <trkpt lat="47.86069" lon="2.05635">
        <ele>159</ele>
        <time>2013-09-29T08:11:56.000Z</time>
      </trkpt>
      <trkpt lat="47.8606" lon="2.05632">
        <ele>160</ele>
        <time>2013-09-29T08:11:58.000Z</time>
      </trkpt>
      <trkpt lat="47.86054" lon="2.05618">
        <ele>158</ele>
        <time>2013-09-29T08:12:00.000Z</time>
      </trkpt>
      <trkpt lat="47.86047" lon="2.05606">
        <ele>157</ele>
        <time>2013-09-29T08:12:02.000Z</time>
      </trkpt>
      <trkpt lat="47.86035" lon="2.05588">
        <ele>157</ele>
        <time>2013-09-29T08:12:06.000Z</time>
      </trkpt>
      <trkpt lat="47.86029" lon="2.05578">
        <ele>158</ele>
        <time>2013-09-29T08:12:08.000Z</time>
      </trkpt>
      <trkpt lat="47.86029" lon="2.05578">
        <ele>158</ele>
        <time>2013-09-29T08:12:10.000Z</time>
      </trkpt>
      <trkpt lat="47.8601" lon="2.0556">
        <ele>157</ele>
        <time>2013-09-29T08:12:12.000Z</time>
      </trkpt>
      <trkpt lat="47.86001" lon="2.0555">
        <ele>156</ele>
        <time>2013-09-29T08:12:14.000Z</time>
      </trkpt>
      <trkpt lat="47.85994" lon="2.05542">
        <ele>156</ele>
        <time>2013-09-29T08:12:16.000Z</time>
      </trkpt>
      <trkpt lat="47.85994" lon="2.05542">
        <ele>156</ele>
        <time>2013-09-29T08:12:18.000Z</time>
      </trkpt>
      <trkpt lat="47.85994" lon="2.05542">
        <ele>156</ele>
        <time>2013-09-29T08:12:20.000Z</time>
      </trkpt>
      <trkpt lat="47.85954" lon="2.05497">
        <ele>157</ele>
        <time>2013-09-29T08:12:26.000Z</time>
      </trkpt>
      <trkpt lat="47.85946" lon="2.0549">
        <ele>157</ele>
        <time>2013-09-29T08:12:28.000Z</time>
      </trkpt>
      <trkpt lat="47.85937" lon="2.05483">
        <ele>158</ele>
        <time>2013-09-29T08:12:30.000Z</time>
      </trkpt>
      <trkpt lat="47.85937" lon="2.05483">
        <ele>158</ele>
        <time>2013-09-29T08:12:32.000Z</time>
      </trkpt>
      <trkpt lat="47.85937" lon="2.05483">
        <ele>158</ele>
        <time>2013-09-29T08:12:34.000Z</time>
      </trkpt>
      <trkpt lat="47.85937" lon="2.05483">
        <ele>158</ele>
        <time>2013-09-29T08:12:36.000Z</time>
      </trkpt>
      <trkpt lat="47.85937" lon="2.05483">
        <ele>158</ele>
        <time>2013-09-29T08:12:38.000Z</time>
      </trkpt>
      <trkpt lat="47.85937" lon="2.05483">
        <ele>158</ele>
        <time>2013-09-29T08:12:40.000Z</time>
      </trkpt>
      <trkpt lat="47.85905" lon="2.0546">
        <ele>163</ele>
        <time>2013-09-29T08:12:44.000Z</time>
      </trkpt>
      <trkpt lat="47.85884" lon="2.05445">
        <ele>161</ele>
        <time>2013-09-29T08:12:46.000Z</time>
      </trkpt>
      <trkpt lat="47.8587" lon="2.05433">
        <ele>162</ele>
        <time>2013-09-29T08:12:48.000Z</time>
      </trkpt>
      <trkpt lat="47.85857" lon="2.05423">
        <ele>162</ele>
        <time>2013-09-29T08:12:50.000Z</time>
      </trkpt>
      <trkpt lat="47.85847" lon="2.0541">
        <ele>160</ele>
        <time>2013-09-29T08:12:52.000Z</time>
      </trkpt>
      <trkpt lat="47.85828" lon="2.05383">
        <ele>160</ele>
        <time>2013-09-29T08:12:54.000Z</time>
      </trkpt>
      <trkpt lat="47.8582" lon="2.05371">
        <ele>159</ele>
        <time>2013-09-29T08:12:56.000Z</time>
      </trkpt>
      <trkpt lat="47.85815" lon="2.05357">
        <ele>159</ele>
        <time>2013-09-29T08:12:58.000Z</time>
      </trkpt>
      <trkpt lat="47.85807" lon="2.05345">
        <ele>158</ele>
        <time>2013-09-29T08:13:00.000Z</time>
      </trkpt>
      <trkpt lat="47.85801" lon="2.05335">
        <ele>159</ele>
        <time>2013-09-29T08:13:02.000Z</time>
      </trkpt>
      <trkpt lat="47.85801" lon="2.05335">
        <ele>159</ele>
        <time>2013-09-29T08:13:04.000Z</time>
      </trkpt>
      <trkpt lat="47.85801" lon="2.05335">
        <ele>159</ele>
        <time>2013-09-29T08:13:06.000Z</time>
      </trkpt>
      <trkpt lat="47.8577" lon="2.05283">
        <ele>157</ele>
        <time>2013-09-29T08:13:10.000Z</time>
      </trkpt>
      <trkpt lat="47.85764" lon="2.0527">
        <ele>156</ele>
        <time>2013-09-29T08:13:12.000Z</time>
      </trkpt>
      <trkpt lat="47.85756" lon="2.05259">
        <ele>156</ele>
        <time>2013-09-29T08:13:14.000Z</time>
      </trkpt>
      <trkpt lat="47.85751" lon="2.05246">
        <ele>156</ele>
        <time>2013-09-29T08:13:16.000Z</time>
      </trkpt>
      <trkpt lat="47.85745" lon="2.05233">
        <ele>155</ele>
        <time>2013-09-29T08:13:18.000Z</time>
      </trkpt>
      <trkpt lat="47.85739" lon="2.05221">
        <ele>155</ele>
        <time>2013-09-29T08:13:20.000Z</time>
      </trkpt>
      <trkpt lat="47.85732" lon="2.05208">
        <ele>155</ele>
        <time>2013-09-29T08:13:22.000Z</time>
      </trkpt>
      <trkpt lat="47.85732" lon="2.05208">
        <ele>155</ele>
        <time>2013-09-29T08:13:24.000Z</time>
      </trkpt>
      <trkpt lat="47.85732" lon="2.05208">
        <ele>155</ele>
        <time>2013-09-29T08:13:26.000Z</time>
      </trkpt>
      <trkpt lat="47.85732" lon="2.05208">
        <ele>155</ele>
        <time>2013-09-29T08:13:28.000Z</time>
      </trkpt>
      <trkpt lat="47.85732" lon="2.05208">
        <ele>155</ele>
        <time>2013-09-29T08:13:30.000Z</time>
      </trkpt>
      <trkpt lat="47.85732" lon="2.05208">
        <ele>155</ele>
        <time>2013-09-29T08:13:32.000Z</time>
      </trkpt>
      <trkpt lat="47.85732" lon="2.05208">
        <ele>155</ele>
        <time>2013-09-29T08:13:34.000Z</time>
      </trkpt>
      <trkpt lat="47.85732" lon="2.05208">
        <ele>155</ele>
        <time>2013-09-29T08:13:36.000Z</time>
      </trkpt>
      <trkpt lat="47.8567" lon="2.0518">
        <ele>153</ele>
        <time>2013-09-29T08:13:40.000Z</time>
      </trkpt>
      <trkpt lat="47.85663" lon="2.05189">
        <ele>153</ele>
        <time>2013-09-29T08:13:42.000Z</time>
      </trkpt>
      <trkpt lat="47.85655" lon="2.05197">
        <ele>153</ele>
        <time>2013-09-29T08:13:44.000Z</time>
      </trkpt>
      <trkpt lat="47.85645" lon="2.05204">
        <ele>153</ele>
        <time>2013-09-29T08:13:46.000Z</time>
      </trkpt>
      <trkpt lat="47.85637" lon="2.05212">
        <ele>153</ele>
        <time>2013-09-29T08:13:48.000Z</time>
      </trkpt>
      <trkpt lat="47.85627" lon="2.05218">
        <ele>153</ele>
        <time>2013-09-29T08:13:50.000Z</time>
      </trkpt>
      <trkpt lat="47.85617" lon="2.05223">
        <ele>152</ele>
        <time>2013-09-29T08:13:52.000Z</time>
      </trkpt>
      <trkpt lat="47.85607" lon="2.05228">
        <ele>152</ele>
        <time>2013-09-29T08:13:54.000Z</time>
      </trkpt>
      <trkpt lat="47.85597" lon="2.05233">
        <ele>152</ele>
        <time>2013-09-29T08:13:56.000Z</time>
      </trkpt>
      <trkpt lat="47.85587" lon="2.05238">
        <ele>151</ele>
        <time>2013-09-29T08:13:58.000Z</time>
      </trkpt>
      <trkpt lat="47.85577" lon="2.05242">
        <ele>152</ele>
        <time>2013-09-29T08:14:00.000Z</time>
      </trkpt>
      <trkpt lat="47.85566" lon="2.05247">
        <ele>152</ele>
        <time>2013-09-29T08:14:02.000Z</time>
      </trkpt>
      <trkpt lat="47.85554" lon="2.05252">
        <ele>151</ele>
        <time>2013-09-29T08:14:04.000Z</time>
      </trkpt>
      <trkpt lat="47.85539" lon="2.05257">
        <ele>151</ele>
        <time>2013-09-29T08:14:06.000Z</time>
      </trkpt>
      <trkpt lat="47.85524" lon="2.05261">
        <ele>151</ele>
        <time>2013-09-29T08:14:08.000Z</time>
      </trkpt>
      <trkpt lat="47.85509" lon="2.05263">
        <ele>151</ele>
        <time>2013-09-29T08:14:10.000Z</time>
      </trkpt>
      <trkpt lat="47.85495" lon="2.05264">
        <ele>151</ele>
        <time>2013-09-29T08:14:12.000Z</time>
      </trkpt>
      <trkpt lat="47.85482" lon="2.05262">
        <ele>151</ele>
        <time>2013-09-29T08:14:14.000Z</time>
      </trkpt>
      <trkpt lat="47.85471" lon="2.05256">
        <ele>152</ele>
        <time>2013-09-29T08:14:16.000Z</time>
      </trkpt>
      <trkpt lat="47.85458" lon="2.05248">
        <ele>152</ele>
        <time>2013-09-29T08:14:18.000Z</time>
      </trkpt>
      <trkpt lat="47.85452" lon="2.05232">
        <ele>152</ele>
        <time>2013-09-29T08:14:20.000Z</time>
      </trkpt>
      <trkpt lat="47.85445" lon="2.05218">
        <ele>153</ele>
        <time>2013-09-29T08:14:22.000Z</time>
      </trkpt>
      <trkpt lat="47.85439" lon="2.05206">
        <ele>154</ele>
        <time>2013-09-29T08:14:24.000Z</time>
      </trkpt>
      <trkpt lat="47.85439" lon="2.05206">
        <ele>154</ele>
        <time>2013-09-29T08:14:26.000Z</time>
      </trkpt>
      <trkpt lat="47.85439" lon="2.05206">
        <ele>154</ele>
        <time>2013-09-29T08:14:28.000Z</time>
      </trkpt>
      <trkpt lat="47.85439" lon="2.05206">
        <ele>154</ele>
        <time>2013-09-29T08:14:30.000Z</time>
      </trkpt>
      <trkpt lat="47.85439" lon="2.05206">
        <ele>154</ele>
        <time>2013-09-29T08:14:32.000Z</time>
      </trkpt>
      <trkpt lat="47.85439" lon="2.05206">
        <ele>154</ele>
        <time>2013-09-29T08:14:34.000Z</time>
      </trkpt>
      <trkpt lat="47.85416" lon="2.05152">
        <ele>153</ele>
        <time>2013-09-29T08:14:40.000Z</time>
      </trkpt>
      <trkpt lat="47.85411" lon="2.05135">
        <ele>151</ele>
        <time>2013-09-29T08:14:44.000Z</time>
      </trkpt>
      <trkpt lat="47.85404" lon="2.05116">
        <ele>148</ele>
        <time>2013-09-29T08:14:48.000Z</time>
      </trkpt>
      <trkpt lat="47.85398" lon="2.051">
        <ele>147</ele>
        <time>2013-09-29T08:14:52.000Z</time>
      </trkpt>
      <trkpt lat="47.85398" lon="2.051">
        <ele>147</ele>
        <time>2013-09-29T08:14:54.000Z</time>
      </trkpt>
      <trkpt lat="47.85395" lon="2.05081">
        <ele>148</ele>
        <time>2013-09-29T08:14:56.000Z</time>
      </trkpt>
      <trkpt lat="47.85389" lon="2.05059">
        <ele>148</ele>
        <time>2013-09-29T08:15:00.000Z</time>
      </trkpt>
      <trkpt lat="47.85383" lon="2.05038">
        <ele>148</ele>
        <time>2013-09-29T08:15:04.000Z</time>
      </trkpt>
      <trkpt lat="47.85378" lon="2.05016">
        <ele>147</ele>
        <time>2013-09-29T08:15:08.000Z</time>
      </trkpt>
      <trkpt lat="47.85374" lon="2.04994">
        <ele>146</ele>
        <time>2013-09-29T08:15:12.000Z</time>
      </trkpt>
      <trkpt lat="47.85374" lon="2.04994">
        <ele>146</ele>
        <time>2013-09-29T08:15:14.000Z</time>
      </trkpt>
      <trkpt lat="47.85374" lon="2.04994">
        <ele>146</ele>
        <time>2013-09-29T08:15:16.000Z</time>
      </trkpt>
      <trkpt lat="47.85374" lon="2.04994">
        <ele>146</ele>
        <time>2013-09-29T08:15:18.000Z</time>
      </trkpt>
      <trkpt lat="47.85374" lon="2.04994">
        <ele>146</ele>
        <time>2013-09-29T08:15:20.000Z</time>
      </trkpt>
      <trkpt lat="47.85369" lon="2.04962">
        <ele>146</ele>
        <time>2013-09-29T08:15:24.000Z</time>
      </trkpt>
      <trkpt lat="47.85365" lon="2.0494">
        <ele>147</ele>
        <time>2013-09-29T08:15:26.000Z</time>
      </trkpt>
      <trkpt lat="47.85362" lon="2.04924">
        <ele>147</ele>
        <time>2013-09-29T08:15:28.000Z</time>
      </trkpt>
      <trkpt lat="47.85359" lon="2.04909">
        <ele>148</ele>
        <time>2013-09-29T08:15:30.000Z</time>
      </trkpt>
      <trkpt lat="47.85357" lon="2.04896">
        <ele>148</ele>
        <time>2013-09-29T08:15:32.000Z</time>
      </trkpt>
      <trkpt lat="47.85352" lon="2.04871">
        <ele>149</ele>
        <time>2013-09-29T08:15:34.000Z</time>
      </trkpt>
      <trkpt lat="47.85349" lon="2.04845">
        <ele>149</ele>
        <time>2013-09-29T08:15:38.000Z</time>
      </trkpt>
      <trkpt lat="47.85348" lon="2.04831">
        <ele>149</ele>
        <time>2013-09-29T08:15:40.000Z</time>
      </trkpt>
      <trkpt lat="47.85346" lon="2.04817">
        <ele>149</ele>
        <time>2013-09-29T08:15:42.000Z</time>
      </trkpt>
      <trkpt lat="47.85344" lon="2.0479">
        <ele>149</ele>
        <time>2013-09-29T08:15:46.000Z</time>
      </trkpt>
      <trkpt lat="47.85344" lon="2.0479">
        <ele>149</ele>
        <time>2013-09-29T08:15:48.000Z</time>
      </trkpt>
      <trkpt lat="47.85344" lon="2.0479">
        <ele>149</ele>
        <time>2013-09-29T08:15:50.000Z</time>
      </trkpt>
      <trkpt lat="47.85344" lon="2.0479">
        <ele>149</ele>
        <time>2013-09-29T08:15:52.000Z</time>
      </trkpt>
      <trkpt lat="47.85344" lon="2.0479">
        <ele>149</ele>
        <time>2013-09-29T08:15:54.000Z</time>
      </trkpt>
      <trkpt lat="47.85344" lon="2.0479">
        <ele>149</ele>
        <time>2013-09-29T08:15:56.000Z</time>
      </trkpt>
      <trkpt lat="47.85332" lon="2.04689">
        <ele>152</ele>
        <time>2013-09-29T08:16:02.000Z</time>
      </trkpt>
      <trkpt lat="47.85328" lon="2.04663">
        <ele>153</ele>
        <time>2013-09-29T08:16:06.000Z</time>
      </trkpt>
      <trkpt lat="47.85329" lon="2.04647">
        <ele>153</ele>
        <time>2013-09-29T08:16:08.000Z</time>
      </trkpt>
      <trkpt lat="47.85326" lon="2.04633">
        <ele>154</ele>
        <time>2013-09-29T08:16:10.000Z</time>
      </trkpt>
      <trkpt lat="47.85324" lon="2.04619">
        <ele>155</ele>
        <time>2013-09-29T08:16:12.000Z</time>
      </trkpt>
      <trkpt lat="47.85322" lon="2.04605">
        <ele>156</ele>
        <time>2013-09-29T08:16:14.000Z</time>
      </trkpt>
      <trkpt lat="47.85318" lon="2.0459">
        <ele>155</ele>
        <time>2013-09-29T08:16:16.000Z</time>
      </trkpt>
      <trkpt lat="47.85314" lon="2.04576">
        <ele>155</ele>
        <time>2013-09-29T08:16:18.000Z</time>
      </trkpt>
      <trkpt lat="47.8531" lon="2.04541">
        <ele>154</ele>
        <time>2013-09-29T08:16:22.000Z</time>
      </trkpt>
      <trkpt lat="47.85305" lon="2.04508">
        <ele>154</ele>
        <time>2013-09-29T08:16:26.000Z</time>
      </trkpt>
      <trkpt lat="47.85303" lon="2.04493">
        <ele>154</ele>
        <time>2013-09-29T08:16:28.000Z</time>
      </trkpt>
      <trkpt lat="47.85302" lon="2.04475">
        <ele>155</ele>
        <time>2013-09-29T08:16:30.000Z</time>
      </trkpt>
      <trkpt lat="47.85299" lon="2.04459">
        <ele>155</ele>
        <time>2013-09-29T08:16:32.000Z</time>
      </trkpt>
      <trkpt lat="47.85296" lon="2.04444">
        <ele>155</ele>
        <time>2013-09-29T08:16:34.000Z</time>
      </trkpt>
      <trkpt lat="47.85296" lon="2.04444">
        <ele>155</ele>
        <time>2013-09-29T08:16:36.000Z</time>
      </trkpt>
      <trkpt lat="47.85296" lon="2.04444">
        <ele>155</ele>
        <time>2013-09-29T08:16:38.000Z</time>
      </trkpt>
      <trkpt lat="47.85296" lon="2.04444">
        <ele>155</ele>
        <time>2013-09-29T08:16:40.000Z</time>
      </trkpt>
      <trkpt lat="47.85282" lon="2.04348">
        <ele>153</ele>
        <time>2013-09-29T08:16:46.000Z</time>
      </trkpt>
      <trkpt lat="47.8528" lon="2.0433">
        <ele>153</ele>
        <time>2013-09-29T08:16:48.000Z</time>
      </trkpt>
      <trkpt lat="47.85278" lon="2.04315">
        <ele>153</ele>
        <time>2013-09-29T08:16:50.000Z</time>
      </trkpt>
      <trkpt lat="47.8528" lon="2.04298">
        <ele>153</ele>
        <time>2013-09-29T08:16:52.000Z</time>
      </trkpt>
      <trkpt lat="47.85286" lon="2.04284">
        <ele>150</ele>
        <time>2013-09-29T08:16:54.000Z</time>
      </trkpt>
      <trkpt lat="47.85289" lon="2.04268">
        <ele>150</ele>
        <time>2013-09-29T08:16:56.000Z</time>
      </trkpt>
      <trkpt lat="47.85289" lon="2.04268">
        <ele>150</ele>
        <time>2013-09-29T08:16:58.000Z</time>
      </trkpt>
      <trkpt lat="47.85289" lon="2.04268">
        <ele>150</ele>
        <time>2013-09-29T08:17:00.000Z</time>
      </trkpt>
      <trkpt lat="47.85289" lon="2.04268">
        <ele>150</ele>
        <time>2013-09-29T08:17:04.000Z</time>
      </trkpt>
      <trkpt lat="47.85289" lon="2.04268">
        <ele>150</ele>
        <time>2013-09-29T08:17:06.000Z</time>
      </trkpt>
      <trkpt lat="47.85289" lon="2.04268">
        <ele>150</ele>
        <time>2013-09-29T08:17:12.000Z</time>
      </trkpt>
      <trkpt lat="47.85296" lon="2.04228">
        <ele>151</ele>
        <time>2013-09-29T08:18:23.000Z</time>
      </trkpt>
      <trkpt lat="47.85297" lon="2.04206">
        <ele>152</ele>
        <time>2013-09-29T08:18:28.000Z</time>
      </trkpt>
      <trkpt lat="47.85299" lon="2.04183">
        <ele>152</ele>
        <time>2013-09-29T08:18:32.000Z</time>
      </trkpt>
      <trkpt lat="47.85299" lon="2.04158">
        <ele>151</ele>
        <time>2013-09-29T08:18:36.000Z</time>
      </trkpt>
      <trkpt lat="47.85298" lon="2.04133">
        <ele>152</ele>
        <time>2013-09-29T08:18:40.000Z</time>
      </trkpt>
      <trkpt lat="47.85299" lon="2.04119">
        <ele>152</ele>
        <time>2013-09-29T08:18:41.000Z</time>
      </trkpt>
      <trkpt lat="47.85299" lon="2.04119">
        <ele>152</ele>
        <time>2013-09-29T08:18:44.000Z</time>
      </trkpt>
      <trkpt lat="47.853" lon="2.04093">
        <ele>154</ele>
        <time>2013-09-29T08:18:46.000Z</time>
      </trkpt>
      <trkpt lat="47.853" lon="2.04064">
        <ele>152</ele>
        <time>2013-09-29T08:18:50.000Z</time>
      </trkpt>
      <trkpt lat="47.85299" lon="2.04047">
        <ele>152</ele>
        <time>2013-09-29T08:18:52.000Z</time>
      </trkpt>
      <trkpt lat="47.85299" lon="2.04033">
        <ele>152</ele>
        <time>2013-09-29T08:18:54.000Z</time>
      </trkpt>
      <trkpt lat="47.85299" lon="2.04019">
        <ele>153</ele>
        <time>2013-09-29T08:18:56.000Z</time>
      </trkpt>
      <trkpt lat="47.85299" lon="2.04002">
        <ele>152</ele>
        <time>2013-09-29T08:18:58.000Z</time>
      </trkpt>
      <trkpt lat="47.85299" lon="2.03987">
        <ele>151</ele>
        <time>2013-09-29T08:19:00.000Z</time>
      </trkpt>
      <trkpt lat="47.853" lon="2.0397">
        <ele>151</ele>
        <time>2013-09-29T08:19:02.000Z</time>
      </trkpt>
      <trkpt lat="47.853" lon="2.03954">
        <ele>151</ele>
        <time>2013-09-29T08:19:04.000Z</time>
      </trkpt>
      <trkpt lat="47.85301" lon="2.03937">
        <ele>151</ele>
        <time>2013-09-29T08:19:06.000Z</time>
      </trkpt>
      <trkpt lat="47.85302" lon="2.0392">
        <ele>151</ele>
        <time>2013-09-29T08:19:08.000Z</time>
      </trkpt>
      <trkpt lat="47.85307" lon="2.039">
        <ele>151</ele>
        <time>2013-09-29T08:19:10.000Z</time>
      </trkpt>
      <trkpt lat="47.85306" lon="2.03884">
        <ele>150</ele>
        <time>2013-09-29T08:19:12.000Z</time>
      </trkpt>
      <trkpt lat="47.85309" lon="2.03867">
        <ele>150</ele>
        <time>2013-09-29T08:19:14.000Z</time>
      </trkpt>
      <trkpt lat="47.85313" lon="2.03849">
        <ele>150</ele>
        <time>2013-09-29T08:19:16.000Z</time>
      </trkpt>
      <trkpt lat="47.85317" lon="2.03832">
        <ele>151</ele>
        <time>2013-09-29T08:19:18.000Z</time>
      </trkpt>
      <trkpt lat="47.8532" lon="2.03817">
        <ele>152</ele>
        <time>2013-09-29T08:19:20.000Z</time>
      </trkpt>
      <trkpt lat="47.8532" lon="2.03817">
        <ele>152</ele>
        <time>2013-09-29T08:19:22.000Z</time>
      </trkpt>
      <trkpt lat="47.8532" lon="2.03817">
        <ele>152</ele>
        <time>2013-09-29T08:19:24.000Z</time>
      </trkpt>
      <trkpt lat="47.8532" lon="2.03817">
        <ele>152</ele>
        <time>2013-09-29T08:19:26.000Z</time>
      </trkpt>
      <trkpt lat="47.8532" lon="2.03817">
        <ele>152</ele>
        <time>2013-09-29T08:19:28.000Z</time>
      </trkpt>
      <trkpt lat="47.8532" lon="2.03817">
        <ele>152</ele>
        <time>2013-09-29T08:19:30.000Z</time>
      </trkpt>
      <trkpt lat="47.8532" lon="2.03817">
        <ele>152</ele>
        <time>2013-09-29T08:19:32.000Z</time>
      </trkpt>
      <trkpt lat="47.8532" lon="2.03817">
        <ele>152</ele>
        <time>2013-09-29T08:19:34.000Z</time>
      </trkpt>
      <trkpt lat="47.8532" lon="2.03817">
        <ele>152</ele>
        <time>2013-09-29T08:19:36.000Z</time>
      </trkpt>
      <trkpt lat="47.85339" lon="2.03724">
        <ele>151</ele>
        <time>2013-09-29T08:19:42.000Z</time>
      </trkpt>
      <trkpt lat="47.85343" lon="2.03704">
        <ele>151</ele>
        <time>2013-09-29T08:19:46.000Z</time>
      </trkpt>
      <trkpt lat="47.8535" lon="2.03683">
        <ele>153</ele>
        <time>2013-09-29T08:19:50.000Z</time>
      </trkpt>
      <trkpt lat="47.85356" lon="2.03665">
        <ele>153</ele>
        <time>2013-09-29T08:19:54.000Z</time>
      </trkpt>
      <trkpt lat="47.85363" lon="2.03643">
        <ele>151</ele>
        <time>2013-09-29T08:19:58.000Z</time>
      </trkpt>
      <trkpt lat="47.85363" lon="2.03643">
        <ele>151</ele>
        <time>2013-09-29T08:20:00.000Z</time>
      </trkpt>
      <trkpt lat="47.85363" lon="2.03643">
        <ele>151</ele>
        <time>2013-09-29T08:20:02.000Z</time>
      </trkpt>
      <trkpt lat="47.85363" lon="2.03643">
        <ele>151</ele>
        <time>2013-09-29T08:20:04.000Z</time>
      </trkpt>
      <trkpt lat="47.85377" lon="2.03593">
        <ele>150</ele>
        <time>2013-09-29T08:20:08.000Z</time>
      </trkpt>
      <trkpt lat="47.85383" lon="2.03572">
        <ele>150</ele>
        <time>2013-09-29T08:20:12.000Z</time>
      </trkpt>
      <trkpt lat="47.8539" lon="2.03552">
        <ele>150</ele>
        <time>2013-09-29T08:20:16.000Z</time>
      </trkpt>
      <trkpt lat="47.8539" lon="2.03552">
        <ele>150</ele>
        <time>2013-09-29T08:20:18.000Z</time>
      </trkpt>
      <trkpt lat="47.854" lon="2.03535">
        <ele>151</ele>
        <time>2013-09-29T08:20:20.000Z</time>
      </trkpt>
      <trkpt lat="47.8541" lon="2.03514">
        <ele>151</ele>
        <time>2013-09-29T08:20:24.000Z</time>
      </trkpt>
      <trkpt lat="47.85416" lon="2.03503">
        <ele>150</ele>
        <time>2013-09-29T08:20:26.000Z</time>
      </trkpt>
      <trkpt lat="47.85421" lon="2.03492">
        <ele>150</ele>
        <time>2013-09-29T08:20:28.000Z</time>
      </trkpt>
      <trkpt lat="47.85425" lon="2.03478">
        <ele>150</ele>
        <time>2013-09-29T08:20:30.000Z</time>
      </trkpt>
      <trkpt lat="47.85431" lon="2.03466">
        <ele>149</ele>
        <time>2013-09-29T08:20:32.000Z</time>
      </trkpt>
      <trkpt lat="47.85437" lon="2.03455">
        <ele>149</ele>
        <time>2013-09-29T08:20:34.000Z</time>
      </trkpt>
      <trkpt lat="47.85442" lon="2.03444">
        <ele>148</ele>
        <time>2013-09-29T08:20:36.000Z</time>
      </trkpt>
      <trkpt lat="47.85448" lon="2.03433">
        <ele>149</ele>
        <time>2013-09-29T08:20:38.000Z</time>
      </trkpt>
      <trkpt lat="47.85448" lon="2.03433">
        <ele>149</ele>
        <time>2013-09-29T08:20:40.000Z</time>
      </trkpt>
      <trkpt lat="47.8546" lon="2.03411">
        <ele>149</ele>
        <time>2013-09-29T08:20:42.000Z</time>
      </trkpt>
      <trkpt lat="47.85465" lon="2.034">
        <ele>149</ele>
        <time>2013-09-29T08:20:44.000Z</time>
      </trkpt>
      <trkpt lat="47.85471" lon="2.03389">
        <ele>149</ele>
        <time>2013-09-29T08:20:46.000Z</time>
      </trkpt>
      <trkpt lat="47.85477" lon="2.03379">
        <ele>149</ele>
        <time>2013-09-29T08:20:48.000Z</time>
      </trkpt>
      <trkpt lat="47.85484" lon="2.03367">
        <ele>149</ele>
        <time>2013-09-29T08:20:50.000Z</time>
      </trkpt>
      <trkpt lat="47.85491" lon="2.03357">
        <ele>150</ele>
        <time>2013-09-29T08:20:52.000Z</time>
      </trkpt>
      <trkpt lat="47.85498" lon="2.03347">
        <ele>150</ele>
        <time>2013-09-29T08:20:54.000Z</time>
      </trkpt>
      <trkpt lat="47.85505" lon="2.03339">
        <ele>150</ele>
        <time>2013-09-29T08:20:56.000Z</time>
      </trkpt>
      <trkpt lat="47.85511" lon="2.0333">
        <ele>150</ele>
        <time>2013-09-29T08:20:58.000Z</time>
      </trkpt>
      <trkpt lat="47.85519" lon="2.03322">
        <ele>150</ele>
        <time>2013-09-29T08:21:00.000Z</time>
      </trkpt>
      <trkpt lat="47.85527" lon="2.03313">
        <ele>150</ele>
        <time>2013-09-29T08:21:01.000Z</time>
      </trkpt>
      <trkpt lat="47.85535" lon="2.03305">
        <ele>150</ele>
        <time>2013-09-29T08:21:04.000Z</time>
      </trkpt>
      <trkpt lat="47.85544" lon="2.03297">
        <ele>151</ele>
        <time>2013-09-29T08:21:06.000Z</time>
      </trkpt>
      <trkpt lat="47.85553" lon="2.03288">
        <ele>150</ele>
        <time>2013-09-29T08:21:08.000Z</time>
      </trkpt>
      <trkpt lat="47.85563" lon="2.0328">
        <ele>150</ele>
        <time>2013-09-29T08:21:10.000Z</time>
      </trkpt>
      <trkpt lat="47.85572" lon="2.03272">
        <ele>150</ele>
        <time>2013-09-29T08:21:12.000Z</time>
      </trkpt>
      <trkpt lat="47.85581" lon="2.03265">
        <ele>150</ele>
        <time>2013-09-29T08:21:14.000Z</time>
      </trkpt>
      <trkpt lat="47.8559" lon="2.03258">
        <ele>150</ele>
        <time>2013-09-29T08:21:16.000Z</time>
      </trkpt>
      <trkpt lat="47.8559" lon="2.03258">
        <ele>150</ele>
        <time>2013-09-29T08:21:18.000Z</time>
      </trkpt>
      <trkpt lat="47.8559" lon="2.03258">
        <ele>150</ele>
        <time>2013-09-29T08:21:20.000Z</time>
      </trkpt>
      <trkpt lat="47.8559" lon="2.03258">
        <ele>150</ele>
        <time>2013-09-29T08:21:22.000Z</time>
      </trkpt>
      <trkpt lat="47.8559" lon="2.03258">
        <ele>150</ele>
        <time>2013-09-29T08:21:24.000Z</time>
      </trkpt>
      <trkpt lat="47.8559" lon="2.03258">
        <ele>150</ele>
        <time>2013-09-29T08:21:26.000Z</time>
      </trkpt>
      <trkpt lat="47.85624" lon="2.03231">
        <ele>151</ele>
        <time>2013-09-29T08:21:32.000Z</time>
      </trkpt>
      <trkpt lat="47.85646" lon="2.03215">
        <ele>150</ele>
        <time>2013-09-29T08:21:34.000Z</time>
      </trkpt>
      <trkpt lat="47.85662" lon="2.03204">
        <ele>151</ele>
        <time>2013-09-29T08:21:36.000Z</time>
      </trkpt>
      <trkpt lat="47.85674" lon="2.03195">
        <ele>151</ele>
        <time>2013-09-29T08:21:38.000Z</time>
      </trkpt>
      <trkpt lat="47.85674" lon="2.03195">
        <ele>151</ele>
        <time>2013-09-29T08:21:40.000Z</time>
      </trkpt>
      <trkpt lat="47.85693" lon="2.0318">
        <ele>151</ele>
        <time>2013-09-29T08:21:44.000Z</time>
      </trkpt>
      <trkpt lat="47.85707" lon="2.03168">
        <ele>151</ele>
        <time>2013-09-29T08:21:46.000Z</time>
      </trkpt>
      <trkpt lat="47.85718" lon="2.03157">
        <ele>151</ele>
        <time>2013-09-29T08:21:48.000Z</time>
      </trkpt>
      <trkpt lat="47.85728" lon="2.03147">
        <ele>151</ele>
        <time>2013-09-29T08:21:50.000Z</time>
      </trkpt>
      <trkpt lat="47.85728" lon="2.03147">
        <ele>151</ele>
        <time>2013-09-29T08:21:52.000Z</time>
      </trkpt>
      <trkpt lat="47.85728" lon="2.03147">
        <ele>151</ele>
        <time>2013-09-29T08:21:54.000Z</time>
      </trkpt>
      <trkpt lat="47.85749" lon="2.03127">
        <ele>151</ele>
        <time>2013-09-29T08:21:58.000Z</time>
      </trkpt>
      <trkpt lat="47.85765" lon="2.03114">
        <ele>151</ele>
        <time>2013-09-29T08:22:00.000Z</time>
      </trkpt>
      <trkpt lat="47.85778" lon="2.03104">
        <ele>151</ele>
        <time>2013-09-29T08:22:02.000Z</time>
      </trkpt>
      <trkpt lat="47.85789" lon="2.03095">
        <ele>152</ele>
        <time>2013-09-29T08:22:04.000Z</time>
      </trkpt>
      <trkpt lat="47.85799" lon="2.03088">
        <ele>152</ele>
        <time>2013-09-29T08:22:06.000Z</time>
      </trkpt>
      <trkpt lat="47.85818" lon="2.03074">
        <ele>152</ele>
        <time>2013-09-29T08:22:08.000Z</time>
      </trkpt>
      <trkpt lat="47.85828" lon="2.03068">
        <ele>152</ele>
        <time>2013-09-29T08:22:10.000Z</time>
      </trkpt>
      <trkpt lat="47.85838" lon="2.03063">
        <ele>152</ele>
        <time>2013-09-29T08:22:12.000Z</time>
      </trkpt>
      <trkpt lat="47.85848" lon="2.03058">
        <ele>152</ele>
        <time>2013-09-29T08:22:14.000Z</time>
      </trkpt>
      <trkpt lat="47.85859" lon="2.03053">
        <ele>152</ele>
        <time>2013-09-29T08:22:16.000Z</time>
      </trkpt>
      <trkpt lat="47.8587" lon="2.03049">
        <ele>152</ele>
        <time>2013-09-29T08:22:18.000Z</time>
      </trkpt>
      <trkpt lat="47.8588" lon="2.03046">
        <ele>152</ele>
        <time>2013-09-29T08:22:20.000Z</time>
      </trkpt>
      <trkpt lat="47.85892" lon="2.03041">
        <ele>152</ele>
        <time>2013-09-29T08:22:22.000Z</time>
      </trkpt>
      <trkpt lat="47.85903" lon="2.03038">
        <ele>152</ele>
        <time>2013-09-29T08:22:24.000Z</time>
      </trkpt>
      <trkpt lat="47.85914" lon="2.03033">
        <ele>153</ele>
        <time>2013-09-29T08:22:26.000Z</time>
      </trkpt>
      <trkpt lat="47.85925" lon="2.0303">
        <ele>153</ele>
        <time>2013-09-29T08:22:28.000Z</time>
      </trkpt>
      <trkpt lat="47.85936" lon="2.03026">
        <ele>153</ele>
        <time>2013-09-29T08:22:30.000Z</time>
      </trkpt>
      <trkpt lat="47.85947" lon="2.03023">
        <ele>153</ele>
        <time>2013-09-29T08:22:32.000Z</time>
      </trkpt>
      <trkpt lat="47.85957" lon="2.0302">
        <ele>153</ele>
        <time>2013-09-29T08:22:34.000Z</time>
      </trkpt>
      <trkpt lat="47.85968" lon="2.03017">
        <ele>153</ele>
        <time>2013-09-29T08:22:36.000Z</time>
      </trkpt>
      <trkpt lat="47.85979" lon="2.03012">
        <ele>153</ele>
        <time>2013-09-29T08:22:38.000Z</time>
      </trkpt>
      <trkpt lat="47.85991" lon="2.03008">
        <ele>153</ele>
        <time>2013-09-29T08:22:40.000Z</time>
      </trkpt>
      <trkpt lat="47.86002" lon="2.03005">
        <ele>154</ele>
        <time>2013-09-29T08:22:42.000Z</time>
      </trkpt>
      <trkpt lat="47.86014" lon="2.03">
        <ele>154</ele>
        <time>2013-09-29T08:22:44.000Z</time>
      </trkpt>
      <trkpt lat="47.86023" lon="2.02997">
        <ele>154</ele>
        <time>2013-09-29T08:22:46.000Z</time>
      </trkpt>
      <trkpt lat="47.86033" lon="2.02991">
        <ele>154</ele>
        <time>2013-09-29T08:22:48.000Z</time>
      </trkpt>
      <trkpt lat="47.86044" lon="2.02986">
        <ele>155</ele>
        <time>2013-09-29T08:22:50.000Z</time>
      </trkpt>
      <trkpt lat="47.86054" lon="2.02981">
        <ele>156</ele>
        <time>2013-09-29T08:22:52.000Z</time>
      </trkpt>
      <trkpt lat="47.86064" lon="2.02979">
        <ele>155</ele>
        <time>2013-09-29T08:22:54.000Z</time>
      </trkpt>
      <trkpt lat="47.86074" lon="2.02976">
        <ele>155</ele>
        <time>2013-09-29T08:22:56.000Z</time>
      </trkpt>
      <trkpt lat="47.86086" lon="2.02972">
        <ele>155</ele>
        <time>2013-09-29T08:22:58.000Z</time>
      </trkpt>
      <trkpt lat="47.86097" lon="2.02968">
        <ele>155</ele>
        <time>2013-09-29T08:23:00.000Z</time>
      </trkpt>
      <trkpt lat="47.86108" lon="2.02965">
        <ele>155</ele>
        <time>2013-09-29T08:23:02.000Z</time>
      </trkpt>
      <trkpt lat="47.86118" lon="2.02962">
        <ele>155</ele>
        <time>2013-09-29T08:23:04.000Z</time>
      </trkpt>
      <trkpt lat="47.86128" lon="2.02959">
        <ele>155</ele>
        <time>2013-09-29T08:23:06.000Z</time>
      </trkpt>
      <trkpt lat="47.86139" lon="2.02954">
        <ele>155</ele>
        <time>2013-09-29T08:23:08.000Z</time>
      </trkpt>
      <trkpt lat="47.86149" lon="2.0295">
        <ele>154</ele>
        <time>2013-09-29T08:23:10.000Z</time>
      </trkpt>
      <trkpt lat="47.8616" lon="2.02947">
        <ele>154</ele>
        <time>2013-09-29T08:23:12.000Z</time>
      </trkpt>
      <trkpt lat="47.8617" lon="2.02944">
        <ele>154</ele>
        <time>2013-09-29T08:23:14.000Z</time>
      </trkpt>
      <trkpt lat="47.8618" lon="2.0294">
        <ele>153</ele>
        <time>2013-09-29T08:23:16.000Z</time>
      </trkpt>
      <trkpt lat="47.86191" lon="2.02935">
        <ele>153</ele>
        <time>2013-09-29T08:23:18.000Z</time>
      </trkpt>
      <trkpt lat="47.86201" lon="2.02931">
        <ele>152</ele>
        <time>2013-09-29T08:23:20.000Z</time>
      </trkpt>
      <trkpt lat="47.86213" lon="2.02927">
        <ele>152</ele>
        <time>2013-09-29T08:23:22.000Z</time>
      </trkpt>
      <trkpt lat="47.86223" lon="2.02922">
        <ele>152</ele>
        <time>2013-09-29T08:23:24.000Z</time>
      </trkpt>
      <trkpt lat="47.86234" lon="2.02915">
        <ele>152</ele>
        <time>2013-09-29T08:23:26.000Z</time>
      </trkpt>
      <trkpt lat="47.86245" lon="2.02909">
        <ele>152</ele>
        <time>2013-09-29T08:23:28.000Z</time>
      </trkpt>
      <trkpt lat="47.86256" lon="2.02903">
        <ele>152</ele>
        <time>2013-09-29T08:23:30.000Z</time>
      </trkpt>
      <trkpt lat="47.86266" lon="2.02896">
        <ele>152</ele>
        <time>2013-09-29T08:23:32.000Z</time>
      </trkpt>
      <trkpt lat="47.86277" lon="2.02891">
        <ele>153</ele>
        <time>2013-09-29T08:23:34.000Z</time>
      </trkpt>
      <trkpt lat="47.86287" lon="2.02885">
        <ele>153</ele>
        <time>2013-09-29T08:23:36.000Z</time>
      </trkpt>
      <trkpt lat="47.86298" lon="2.0288">
        <ele>153</ele>
        <time>2013-09-29T08:23:38.000Z</time>
      </trkpt>
      <trkpt lat="47.86309" lon="2.02875">
        <ele>152</ele>
        <time>2013-09-29T08:23:40.000Z</time>
      </trkpt>
      <trkpt lat="47.8632" lon="2.0287">
        <ele>152</ele>
        <time>2013-09-29T08:23:42.000Z</time>
      </trkpt>
      <trkpt lat="47.86332" lon="2.02866">
        <ele>153</ele>
        <time>2013-09-29T08:23:44.000Z</time>
      </trkpt>
      <trkpt lat="47.86343" lon="2.02861">
        <ele>153</ele>
        <time>2013-09-29T08:23:46.000Z</time>
      </trkpt>
      <trkpt lat="47.86354" lon="2.02857">
        <ele>152</ele>
        <time>2013-09-29T08:23:48.000Z</time>
      </trkpt>
      <trkpt lat="47.86366" lon="2.02852">
        <ele>152</ele>
        <time>2013-09-29T08:23:50.000Z</time>
      </trkpt>
      <trkpt lat="47.86377" lon="2.02849">
        <ele>152</ele>
        <time>2013-09-29T08:23:52.000Z</time>
      </trkpt>
      <trkpt lat="47.86388" lon="2.02847">
        <ele>152</ele>
        <time>2013-09-29T08:23:54.000Z</time>
      </trkpt>
      <trkpt lat="47.864" lon="2.02845">
        <ele>153</ele>
        <time>2013-09-29T08:23:56.000Z</time>
      </trkpt>
      <trkpt lat="47.86412" lon="2.02842">
        <ele>153</ele>
        <time>2013-09-29T08:23:58.000Z</time>
      </trkpt>
      <trkpt lat="47.86423" lon="2.0284">
        <ele>153</ele>
        <time>2013-09-29T08:24:00.000Z</time>
      </trkpt>
      <trkpt lat="47.86436" lon="2.02837">
        <ele>153</ele>
        <time>2013-09-29T08:24:02.000Z</time>
      </trkpt>
      <trkpt lat="47.86447" lon="2.02834">
        <ele>152</ele>
        <time>2013-09-29T08:24:04.000Z</time>
      </trkpt>
      <trkpt lat="47.86458" lon="2.02831">
        <ele>153</ele>
        <time>2013-09-29T08:24:06.000Z</time>
      </trkpt>
      <trkpt lat="47.8647" lon="2.02828">
        <ele>153</ele>
        <time>2013-09-29T08:24:08.000Z</time>
      </trkpt>
      <trkpt lat="47.86481" lon="2.02824">
        <ele>152</ele>
        <time>2013-09-29T08:24:10.000Z</time>
      </trkpt>
      <trkpt lat="47.86493" lon="2.02819">
        <ele>152</ele>
        <time>2013-09-29T08:24:12.000Z</time>
      </trkpt>
      <trkpt lat="47.86503" lon="2.02813">
        <ele>152</ele>
        <time>2013-09-29T08:24:14.000Z</time>
      </trkpt>
      <trkpt lat="47.86514" lon="2.02808">
        <ele>152</ele>
        <time>2013-09-29T08:24:16.000Z</time>
      </trkpt>
      <trkpt lat="47.86525" lon="2.02804">
        <ele>152</ele>
        <time>2013-09-29T08:24:17.000Z</time>
      </trkpt>
      <trkpt lat="47.86536" lon="2.028">
        <ele>152</ele>
        <time>2013-09-29T08:24:20.000Z</time>
      </trkpt>
      <trkpt lat="47.86547" lon="2.02796">
        <ele>151</ele>
        <time>2013-09-29T08:24:22.000Z</time>
      </trkpt>
      <trkpt lat="47.86558" lon="2.02791">
        <ele>151</ele>
        <time>2013-09-29T08:24:24.000Z</time>
      </trkpt>
      <trkpt lat="47.86568" lon="2.02786">
        <ele>151</ele>
        <time>2013-09-29T08:24:26.000Z</time>
      </trkpt>
      <trkpt lat="47.86579" lon="2.02782">
        <ele>152</ele>
        <time>2013-09-29T08:24:28.000Z</time>
      </trkpt>
      <trkpt lat="47.86589" lon="2.02777">
        <ele>152</ele>
        <time>2013-09-29T08:24:30.000Z</time>
      </trkpt>
      <trkpt lat="47.86589" lon="2.02777">
        <ele>152</ele>
        <time>2013-09-29T08:24:32.000Z</time>
      </trkpt>
      <trkpt lat="47.86589" lon="2.02777">
        <ele>152</ele>
        <time>2013-09-29T08:24:34.000Z</time>
      </trkpt>
      <trkpt lat="47.86589" lon="2.02777">
        <ele>152</ele>
        <time>2013-09-29T08:24:36.000Z</time>
      </trkpt>
      <trkpt lat="47.86589" lon="2.02777">
        <ele>152</ele>
        <time>2013-09-29T08:24:38.000Z</time>
      </trkpt>
      <trkpt lat="47.86589" lon="2.02777">
        <ele>152</ele>
        <time>2013-09-29T08:24:39.000Z</time>
      </trkpt>
      <trkpt lat="47.86589" lon="2.02777">
        <ele>152</ele>
        <time>2013-09-29T08:24:42.000Z</time>
      </trkpt>
      <trkpt lat="47.86589" lon="2.02777">
        <ele>152</ele>
        <time>2013-09-29T08:24:44.000Z</time>
      </trkpt>
      <trkpt lat="47.86589" lon="2.02777">
        <ele>152</ele>
        <time>2013-09-29T08:24:46.000Z</time>
      </trkpt>
      <trkpt lat="47.86589" lon="2.02777">
        <ele>152</ele>
        <time>2013-09-29T08:24:48.000Z</time>
      </trkpt>
      <trkpt lat="47.86691" lon="2.02762">
        <ele>147</ele>
        <time>2013-09-29T08:24:52.000Z</time>
      </trkpt>
      <trkpt lat="47.867" lon="2.02765">
        <ele>146</ele>
        <time>2013-09-29T08:24:54.000Z</time>
      </trkpt>
      <trkpt lat="47.8671" lon="2.02768">
        <ele>146</ele>
        <time>2013-09-29T08:24:56.000Z</time>
      </trkpt>
      <trkpt lat="47.86727" lon="2.02768">
        <ele>148</ele>
        <time>2013-09-29T08:25:00.000Z</time>
      </trkpt>
      <trkpt lat="47.86737" lon="2.02771">
        <ele>148</ele>
        <time>2013-09-29T08:25:02.000Z</time>
      </trkpt>
      <trkpt lat="47.86747" lon="2.02776">
        <ele>147</ele>
        <time>2013-09-29T08:25:04.000Z</time>
      </trkpt>
      <trkpt lat="47.86757" lon="2.02782">
        <ele>146</ele>
        <time>2013-09-29T08:25:06.000Z</time>
      </trkpt>
      <trkpt lat="47.86766" lon="2.02788">
        <ele>146</ele>
        <time>2013-09-29T08:25:08.000Z</time>
      </trkpt>
      <trkpt lat="47.86776" lon="2.02793">
        <ele>146</ele>
        <time>2013-09-29T08:25:10.000Z</time>
      </trkpt>
      <trkpt lat="47.86787" lon="2.02797">
        <ele>146</ele>
        <time>2013-09-29T08:25:12.000Z</time>
      </trkpt>
      <trkpt lat="47.86798" lon="2.028">
        <ele>146</ele>
        <time>2013-09-29T08:25:14.000Z</time>
      </trkpt>
      <trkpt lat="47.86809" lon="2.02803">
        <ele>146</ele>
        <time>2013-09-29T08:25:16.000Z</time>
      </trkpt>
      <trkpt lat="47.8682" lon="2.02807">
        <ele>146</ele>
        <time>2013-09-29T08:25:18.000Z</time>
      </trkpt>
      <trkpt lat="47.86831" lon="2.0281">
        <ele>148</ele>
        <time>2013-09-29T08:25:20.000Z</time>
      </trkpt>
      <trkpt lat="47.86843" lon="2.02814">
        <ele>148</ele>
        <time>2013-09-29T08:25:22.000Z</time>
      </trkpt>
      <trkpt lat="47.86854" lon="2.02816">
        <ele>149</ele>
        <time>2013-09-29T08:25:24.000Z</time>
      </trkpt>
      <trkpt lat="47.86866" lon="2.02816">
        <ele>150</ele>
        <time>2013-09-29T08:25:26.000Z</time>
      </trkpt>
      <trkpt lat="47.86879" lon="2.02821">
        <ele>150</ele>
        <time>2013-09-29T08:25:28.000Z</time>
      </trkpt>
      <trkpt lat="47.86892" lon="2.02826">
        <ele>149</ele>
        <time>2013-09-29T08:25:30.000Z</time>
      </trkpt>
      <trkpt lat="47.86903" lon="2.02831">
        <ele>151</ele>
        <time>2013-09-29T08:25:32.000Z</time>
      </trkpt>
      <trkpt lat="47.86915" lon="2.02835">
        <ele>151</ele>
        <time>2013-09-29T08:25:34.000Z</time>
      </trkpt>
      <trkpt lat="47.86926" lon="2.02839">
        <ele>151</ele>
        <time>2013-09-29T08:25:36.000Z</time>
      </trkpt>
      <trkpt lat="47.86937" lon="2.02843">
        <ele>151</ele>
        <time>2013-09-29T08:25:37.000Z</time>
      </trkpt>
      <trkpt lat="47.86951" lon="2.02845">
        <ele>152</ele>
        <time>2013-09-29T08:25:40.000Z</time>
      </trkpt>
      <trkpt lat="47.86963" lon="2.0285">
        <ele>153</ele>
        <time>2013-09-29T08:25:42.000Z</time>
      </trkpt>
      <trkpt lat="47.86976" lon="2.02852">
        <ele>153</ele>
        <time>2013-09-29T08:25:44.000Z</time>
      </trkpt>
      <trkpt lat="47.86989" lon="2.02858">
        <ele>152</ele>
        <time>2013-09-29T08:25:46.000Z</time>
      </trkpt>
      <trkpt lat="47.87002" lon="2.02863">
        <ele>152</ele>
        <time>2013-09-29T08:25:48.000Z</time>
      </trkpt>
      <trkpt lat="47.87013" lon="2.02871">
        <ele>153</ele>
        <time>2013-09-29T08:25:50.000Z</time>
      </trkpt>
      <trkpt lat="47.87029" lon="2.02878">
        <ele>152</ele>
        <time>2013-09-29T08:25:52.000Z</time>
      </trkpt>
      <trkpt lat="47.87041" lon="2.02885">
        <ele>153</ele>
        <time>2013-09-29T08:25:54.000Z</time>
      </trkpt>
      <trkpt lat="47.87053" lon="2.0289">
        <ele>154</ele>
        <time>2013-09-29T08:25:56.000Z</time>
      </trkpt>
      <trkpt lat="47.87066" lon="2.02896">
        <ele>155</ele>
        <time>2013-09-29T08:25:58.000Z</time>
      </trkpt>
      <trkpt lat="47.87079" lon="2.02901">
        <ele>155</ele>
        <time>2013-09-29T08:26:00.000Z</time>
      </trkpt>
      <trkpt lat="47.87093" lon="2.02908">
        <ele>155</ele>
        <time>2013-09-29T08:26:02.000Z</time>
      </trkpt>
      <trkpt lat="47.87104" lon="2.02914">
        <ele>155</ele>
        <time>2013-09-29T08:26:04.000Z</time>
      </trkpt>
      <trkpt lat="47.87117" lon="2.02921">
        <ele>154</ele>
        <time>2013-09-29T08:26:06.000Z</time>
      </trkpt>
      <trkpt lat="47.8713" lon="2.02928">
        <ele>155</ele>
        <time>2013-09-29T08:26:08.000Z</time>
      </trkpt>
      <trkpt lat="47.87145" lon="2.02934">
        <ele>154</ele>
        <time>2013-09-29T08:26:10.000Z</time>
      </trkpt>
      <trkpt lat="47.87157" lon="2.0294">
        <ele>153</ele>
        <time>2013-09-29T08:26:12.000Z</time>
      </trkpt>
      <trkpt lat="47.87171" lon="2.02947">
        <ele>154</ele>
        <time>2013-09-29T08:26:14.000Z</time>
      </trkpt>
      <trkpt lat="47.87184" lon="2.02951">
        <ele>154</ele>
        <time>2013-09-29T08:26:16.000Z</time>
      </trkpt>
      <trkpt lat="47.87197" lon="2.02955">
        <ele>154</ele>
        <time>2013-09-29T08:26:18.000Z</time>
      </trkpt>
      <trkpt lat="47.8721" lon="2.02964">
        <ele>154</ele>
        <time>2013-09-29T08:26:20.000Z</time>
      </trkpt>
      <trkpt lat="47.87225" lon="2.02973">
        <ele>153</ele>
        <time>2013-09-29T08:26:22.000Z</time>
      </trkpt>
      <trkpt lat="47.87239" lon="2.02979">
        <ele>153</ele>
        <time>2013-09-29T08:26:23.000Z</time>
      </trkpt>
      <trkpt lat="47.8725" lon="2.02987">
        <ele>153</ele>
        <time>2013-09-29T08:26:26.000Z</time>
      </trkpt>
      <trkpt lat="47.87261" lon="2.02994">
        <ele>154</ele>
        <time>2013-09-29T08:26:28.000Z</time>
      </trkpt>
      <trkpt lat="47.87273" lon="2.03001">
        <ele>153</ele>
        <time>2013-09-29T08:26:30.000Z</time>
      </trkpt>
      <trkpt lat="47.87287" lon="2.03008">
        <ele>154</ele>
        <time>2013-09-29T08:26:32.000Z</time>
      </trkpt>
      <trkpt lat="47.873" lon="2.03015">
        <ele>153</ele>
        <time>2013-09-29T08:26:34.000Z</time>
      </trkpt>
      <trkpt lat="47.87313" lon="2.0302">
        <ele>153</ele>
        <time>2013-09-29T08:26:36.000Z</time>
      </trkpt>
      <trkpt lat="47.87327" lon="2.03024">
        <ele>153</ele>
        <time>2013-09-29T08:26:38.000Z</time>
      </trkpt>
      <trkpt lat="47.8734" lon="2.03025">
        <ele>153</ele>
        <time>2013-09-29T08:26:40.000Z</time>
      </trkpt>
      <trkpt lat="47.87352" lon="2.03027">
        <ele>154</ele>
        <time>2013-09-29T08:26:42.000Z</time>
      </trkpt>
      <trkpt lat="47.87367" lon="2.03028">
        <ele>154</ele>
        <time>2013-09-29T08:26:44.000Z</time>
      </trkpt>
      <trkpt lat="47.8738" lon="2.0303">
        <ele>154</ele>
        <time>2013-09-29T08:26:46.000Z</time>
      </trkpt>
      <trkpt lat="47.87393" lon="2.0303">
        <ele>153</ele>
        <time>2013-09-29T08:26:48.000Z</time>
      </trkpt>
      <trkpt lat="47.87405" lon="2.03033">
        <ele>154</ele>
        <time>2013-09-29T08:26:50.000Z</time>
      </trkpt>
      <trkpt lat="47.87419" lon="2.03033">
        <ele>154</ele>
        <time>2013-09-29T08:26:52.000Z</time>
      </trkpt>
      <trkpt lat="47.87433" lon="2.03036">
        <ele>153</ele>
        <time>2013-09-29T08:26:54.000Z</time>
      </trkpt>
      <trkpt lat="47.87446" lon="2.03038">
        <ele>153</ele>
        <time>2013-09-29T08:26:56.000Z</time>
      </trkpt>
      <trkpt lat="47.8746" lon="2.03039">
        <ele>153</ele>
        <time>2013-09-29T08:26:58.000Z</time>
      </trkpt>
      <trkpt lat="47.87474" lon="2.0304">
        <ele>153</ele>
        <time>2013-09-29T08:27:00.000Z</time>
      </trkpt>
      <trkpt lat="47.87488" lon="2.03042">
        <ele>153</ele>
        <time>2013-09-29T08:27:02.000Z</time>
      </trkpt>
      <trkpt lat="47.87501" lon="2.03044">
        <ele>154</ele>
        <time>2013-09-29T08:27:04.000Z</time>
      </trkpt>
      <trkpt lat="47.87516" lon="2.03049">
        <ele>153</ele>
        <time>2013-09-29T08:27:06.000Z</time>
      </trkpt>
      <trkpt lat="47.87529" lon="2.03052">
        <ele>153</ele>
        <time>2013-09-29T08:27:08.000Z</time>
      </trkpt>
      <trkpt lat="47.87543" lon="2.03052">
        <ele>153</ele>
        <time>2013-09-29T08:27:10.000Z</time>
      </trkpt>
      <trkpt lat="47.87556" lon="2.03052">
        <ele>152</ele>
        <time>2013-09-29T08:27:12.000Z</time>
      </trkpt>
      <trkpt lat="47.8757" lon="2.03051">
        <ele>153</ele>
        <time>2013-09-29T08:27:14.000Z</time>
      </trkpt>
      <trkpt lat="47.87584" lon="2.0305">
        <ele>153</ele>
        <time>2013-09-29T08:27:16.000Z</time>
      </trkpt>
      <trkpt lat="47.87597" lon="2.0305">
        <ele>153</ele>
        <time>2013-09-29T08:27:18.000Z</time>
      </trkpt>
      <trkpt lat="47.87612" lon="2.03052">
        <ele>152</ele>
        <time>2013-09-29T08:27:20.000Z</time>
      </trkpt>
      <trkpt lat="47.87626" lon="2.03055">
        <ele>152</ele>
        <time>2013-09-29T08:27:22.000Z</time>
      </trkpt>
      <trkpt lat="47.87639" lon="2.03055">
        <ele>151</ele>
        <time>2013-09-29T08:27:24.000Z</time>
      </trkpt>
      <trkpt lat="47.87653" lon="2.03057">
        <ele>151</ele>
        <time>2013-09-29T08:27:26.000Z</time>
      </trkpt>
      <trkpt lat="47.87665" lon="2.03059">
        <ele>151</ele>
        <time>2013-09-29T08:27:28.000Z</time>
      </trkpt>
      <trkpt lat="47.87678" lon="2.03058">
        <ele>151</ele>
        <time>2013-09-29T08:27:30.000Z</time>
      </trkpt>
      <trkpt lat="47.87692" lon="2.03058">
        <ele>151</ele>
        <time>2013-09-29T08:27:32.000Z</time>
      </trkpt>
      <trkpt lat="47.87705" lon="2.03056">
        <ele>151</ele>
        <time>2013-09-29T08:27:34.000Z</time>
      </trkpt>
      <trkpt lat="47.8772" lon="2.03054">
        <ele>151</ele>
        <time>2013-09-29T08:27:36.000Z</time>
      </trkpt>
      <trkpt lat="47.87733" lon="2.0305">
        <ele>151</ele>
        <time>2013-09-29T08:27:38.000Z</time>
      </trkpt>
      <trkpt lat="47.87745" lon="2.03049">
        <ele>151</ele>
        <time>2013-09-29T08:27:40.000Z</time>
      </trkpt>
      <trkpt lat="47.87757" lon="2.0305">
        <ele>151</ele>
        <time>2013-09-29T08:27:42.000Z</time>
      </trkpt>
      <trkpt lat="47.8777" lon="2.03048">
        <ele>150</ele>
        <time>2013-09-29T08:27:44.000Z</time>
      </trkpt>
      <trkpt lat="47.87785" lon="2.03045">
        <ele>150</ele>
        <time>2013-09-29T08:27:46.000Z</time>
      </trkpt>
      <trkpt lat="47.87797" lon="2.0304">
        <ele>149</ele>
        <time>2013-09-29T08:27:48.000Z</time>
      </trkpt>
      <trkpt lat="47.87809" lon="2.03036">
        <ele>149</ele>
        <time>2013-09-29T08:27:50.000Z</time>
      </trkpt>
      <trkpt lat="47.87819" lon="2.03027">
        <ele>148</ele>
        <time>2013-09-29T08:27:52.000Z</time>
      </trkpt>
      <trkpt lat="47.8783" lon="2.0302">
        <ele>148</ele>
        <time>2013-09-29T08:27:54.000Z</time>
      </trkpt>
      <trkpt lat="47.87842" lon="2.0301">
        <ele>147</ele>
        <time>2013-09-29T08:27:56.000Z</time>
      </trkpt>
      <trkpt lat="47.87853" lon="2.03">
        <ele>147</ele>
        <time>2013-09-29T08:27:58.000Z</time>
      </trkpt>
      <trkpt lat="47.87864" lon="2.0299">
        <ele>147</ele>
        <time>2013-09-29T08:28:00.000Z</time>
      </trkpt>
      <trkpt lat="47.87876" lon="2.0298">
        <ele>147</ele>
        <time>2013-09-29T08:28:02.000Z</time>
      </trkpt>
      <trkpt lat="47.87886" lon="2.0297">
        <ele>147</ele>
        <time>2013-09-29T08:28:04.000Z</time>
      </trkpt>
      <trkpt lat="47.87899" lon="2.02961">
        <ele>147</ele>
        <time>2013-09-29T08:28:06.000Z</time>
      </trkpt>
      <trkpt lat="47.87909" lon="2.02949">
        <ele>147</ele>
        <time>2013-09-29T08:28:08.000Z</time>
      </trkpt>
      <trkpt lat="47.87921" lon="2.02937">
        <ele>147</ele>
        <time>2013-09-29T08:28:10.000Z</time>
      </trkpt>
      <trkpt lat="47.87932" lon="2.02929">
        <ele>147</ele>
        <time>2013-09-29T08:28:12.000Z</time>
      </trkpt>
      <trkpt lat="47.87944" lon="2.02921">
        <ele>148</ele>
        <time>2013-09-29T08:28:13.000Z</time>
      </trkpt>
      <trkpt lat="47.87955" lon="2.02911">
        <ele>147</ele>
        <time>2013-09-29T08:28:16.000Z</time>
      </trkpt>
      <trkpt lat="47.87965" lon="2.02901">
        <ele>147</ele>
        <time>2013-09-29T08:28:18.000Z</time>
      </trkpt>
      <trkpt lat="47.87976" lon="2.02893">
        <ele>147</ele>
        <time>2013-09-29T08:28:20.000Z</time>
      </trkpt>
      <trkpt lat="47.87987" lon="2.02885">
        <ele>146</ele>
        <time>2013-09-29T08:28:22.000Z</time>
      </trkpt>
      <trkpt lat="47.87996" lon="2.02873">
        <ele>147</ele>
        <time>2013-09-29T08:28:24.000Z</time>
      </trkpt>
      <trkpt lat="47.88006" lon="2.02864">
        <ele>147</ele>
        <time>2013-09-29T08:28:26.000Z</time>
      </trkpt>
      <trkpt lat="47.88017" lon="2.02853">
        <ele>148</ele>
        <time>2013-09-29T08:28:28.000Z</time>
      </trkpt>
      <trkpt lat="47.88027" lon="2.02848">
        <ele>148</ele>
        <time>2013-09-29T08:28:29.000Z</time>
      </trkpt>
      <trkpt lat="47.8804" lon="2.02839">
        <ele>147</ele>
        <time>2013-09-29T08:28:32.000Z</time>
      </trkpt>
      <trkpt lat="47.8805" lon="2.02832">
        <ele>147</ele>
        <time>2013-09-29T08:28:34.000Z</time>
      </trkpt>
      <trkpt lat="47.88061" lon="2.02824">
        <ele>147</ele>
        <time>2013-09-29T08:28:36.000Z</time>
      </trkpt>
      <trkpt lat="47.88071" lon="2.02816">
        <ele>147</ele>
        <time>2013-09-29T08:28:38.000Z</time>
      </trkpt>
      <trkpt lat="47.88081" lon="2.02807">
        <ele>147</ele>
        <time>2013-09-29T08:28:39.000Z</time>
      </trkpt>
      <trkpt lat="47.88092" lon="2.02799">
        <ele>147</ele>
        <time>2013-09-29T08:28:42.000Z</time>
      </trkpt>
      <trkpt lat="47.88102" lon="2.0279">
        <ele>147</ele>
        <time>2013-09-29T08:28:44.000Z</time>
      </trkpt>
      <trkpt lat="47.88111" lon="2.02778">
        <ele>147</ele>
        <time>2013-09-29T08:28:46.000Z</time>
      </trkpt>
      <trkpt lat="47.88119" lon="2.02764">
        <ele>147</ele>
        <time>2013-09-29T08:28:48.000Z</time>
      </trkpt>
      <trkpt lat="47.88128" lon="2.02753">
        <ele>147</ele>
        <time>2013-09-29T08:28:50.000Z</time>
      </trkpt>
      <trkpt lat="47.88139" lon="2.02741">
        <ele>146</ele>
        <time>2013-09-29T08:28:52.000Z</time>
      </trkpt>
      <trkpt lat="47.88148" lon="2.02727">
        <ele>146</ele>
        <time>2013-09-29T08:28:54.000Z</time>
      </trkpt>
      <trkpt lat="47.88158" lon="2.02712">
        <ele>147</ele>
        <time>2013-09-29T08:28:56.000Z</time>
      </trkpt>
      <trkpt lat="47.88167" lon="2.02698">
        <ele>146</ele>
        <time>2013-09-29T08:28:58.000Z</time>
      </trkpt>
      <trkpt lat="47.88175" lon="2.02683">
        <ele>146</ele>
        <time>2013-09-29T08:29:00.000Z</time>
      </trkpt>
      <trkpt lat="47.88184" lon="2.02667">
        <ele>146</ele>
        <time>2013-09-29T08:29:02.000Z</time>
      </trkpt>
      <trkpt lat="47.88192" lon="2.02653">
        <ele>146</ele>
        <time>2013-09-29T08:29:04.000Z</time>
      </trkpt>
      <trkpt lat="47.88202" lon="2.02641">
        <ele>146</ele>
        <time>2013-09-29T08:29:06.000Z</time>
      </trkpt>
      <trkpt lat="47.88213" lon="2.02629">
        <ele>145</ele>
        <time>2013-09-29T08:29:08.000Z</time>
      </trkpt>
      <trkpt lat="47.88223" lon="2.02617">
        <ele>145</ele>
        <time>2013-09-29T08:29:10.000Z</time>
      </trkpt>
      <trkpt lat="47.88234" lon="2.02603">
        <ele>144</ele>
        <time>2013-09-29T08:29:12.000Z</time>
      </trkpt>
      <trkpt lat="47.88243" lon="2.02589">
        <ele>144</ele>
        <time>2013-09-29T08:29:14.000Z</time>
      </trkpt>
      <trkpt lat="47.88252" lon="2.02577">
        <ele>144</ele>
        <time>2013-09-29T08:29:16.000Z</time>
      </trkpt>
      <trkpt lat="47.88262" lon="2.0256">
        <ele>144</ele>
        <time>2013-09-29T08:29:18.000Z</time>
      </trkpt>
      <trkpt lat="47.88272" lon="2.02544">
        <ele>144</ele>
        <time>2013-09-29T08:29:20.000Z</time>
      </trkpt>
      <trkpt lat="47.8828" lon="2.02527">
        <ele>144</ele>
        <time>2013-09-29T08:29:22.000Z</time>
      </trkpt>
      <trkpt lat="47.8829" lon="2.0251">
        <ele>144</ele>
        <time>2013-09-29T08:29:24.000Z</time>
      </trkpt>
      <trkpt lat="47.88297" lon="2.02492">
        <ele>144</ele>
        <time>2013-09-29T08:29:26.000Z</time>
      </trkpt>
      <trkpt lat="47.88305" lon="2.02475">
        <ele>144</ele>
        <time>2013-09-29T08:29:28.000Z</time>
      </trkpt>
      <trkpt lat="47.88313" lon="2.02457">
        <ele>145</ele>
        <time>2013-09-29T08:29:30.000Z</time>
      </trkpt>
      <trkpt lat="47.8832" lon="2.02443">
        <ele>144</ele>
        <time>2013-09-29T08:29:32.000Z</time>
      </trkpt>
      <trkpt lat="47.88327" lon="2.02426">
        <ele>144</ele>
        <time>2013-09-29T08:29:34.000Z</time>
      </trkpt>
      <trkpt lat="47.88333" lon="2.02409">
        <ele>144</ele>
        <time>2013-09-29T08:29:36.000Z</time>
      </trkpt>
      <trkpt lat="47.88337" lon="2.02394">
        <ele>144</ele>
        <time>2013-09-29T08:29:38.000Z</time>
      </trkpt>
      <trkpt lat="47.8834" lon="2.02378">
        <ele>144</ele>
        <time>2013-09-29T08:29:40.000Z</time>
      </trkpt>
      <trkpt lat="47.88343" lon="2.02364">
        <ele>144</ele>
        <time>2013-09-29T08:29:42.000Z</time>
      </trkpt>
      <trkpt lat="47.88346" lon="2.02351">
        <ele>145</ele>
        <time>2013-09-29T08:29:44.000Z</time>
      </trkpt>
      <trkpt lat="47.88346" lon="2.02351">
        <ele>145</ele>
        <time>2013-09-29T08:29:46.000Z</time>
      </trkpt>
      <trkpt lat="47.88346" lon="2.02351">
        <ele>145</ele>
        <time>2013-09-29T08:29:48.000Z</time>
      </trkpt>
      <trkpt lat="47.8837" lon="2.02278">
        <ele>144</ele>
        <time>2013-09-29T08:29:54.000Z</time>
      </trkpt>
      <trkpt lat="47.88376" lon="2.02262">
        <ele>145</ele>
        <time>2013-09-29T08:29:56.000Z</time>
      </trkpt>
      <trkpt lat="47.88381" lon="2.02245">
        <ele>144</ele>
        <time>2013-09-29T08:29:58.000Z</time>
      </trkpt>
      <trkpt lat="47.88387" lon="2.02228">
        <ele>145</ele>
        <time>2013-09-29T08:30:00.000Z</time>
      </trkpt>
      <trkpt lat="47.88391" lon="2.02212">
        <ele>144</ele>
        <time>2013-09-29T08:30:02.000Z</time>
      </trkpt>
      <trkpt lat="47.88396" lon="2.02195">
        <ele>144</ele>
        <time>2013-09-29T08:30:04.000Z</time>
      </trkpt>
      <trkpt lat="47.88401" lon="2.02178">
        <ele>143</ele>
        <time>2013-09-29T08:30:06.000Z</time>
      </trkpt>
      <trkpt lat="47.88405" lon="2.02161">
        <ele>144</ele>
        <time>2013-09-29T08:30:08.000Z</time>
      </trkpt>
      <trkpt lat="47.88409" lon="2.02142">
        <ele>144</ele>
        <time>2013-09-29T08:30:10.000Z</time>
      </trkpt>
      <trkpt lat="47.88414" lon="2.0213">
        <ele>143</ele>
        <time>2013-09-29T08:30:11.000Z</time>
      </trkpt>
      <trkpt lat="47.88417" lon="2.02115">
        <ele>143</ele>
        <time>2013-09-29T08:30:14.000Z</time>
      </trkpt>
      <trkpt lat="47.88419" lon="2.02096">
        <ele>143</ele>
        <time>2013-09-29T08:30:16.000Z</time>
      </trkpt>
      <trkpt lat="47.88421" lon="2.02076">
        <ele>143</ele>
        <time>2013-09-29T08:30:18.000Z</time>
      </trkpt>
      <trkpt lat="47.88424" lon="2.02057">
        <ele>143</ele>
        <time>2013-09-29T08:30:20.000Z</time>
      </trkpt>
      <trkpt lat="47.88427" lon="2.0204">
        <ele>142</ele>
        <time>2013-09-29T08:30:22.000Z</time>
      </trkpt>
      <trkpt lat="47.8843" lon="2.02021">
        <ele>142</ele>
        <time>2013-09-29T08:30:24.000Z</time>
      </trkpt>
      <trkpt lat="47.88433" lon="2.02003">
        <ele>143</ele>
        <time>2013-09-29T08:30:25.000Z</time>
      </trkpt>
      <trkpt lat="47.88436" lon="2.01986">
        <ele>143</ele>
        <time>2013-09-29T08:30:28.000Z</time>
      </trkpt>
      <trkpt lat="47.88438" lon="2.01968">
        <ele>142</ele>
        <time>2013-09-29T08:30:30.000Z</time>
      </trkpt>
      <trkpt lat="47.88441" lon="2.01947">
        <ele>142</ele>
        <time>2013-09-29T08:30:32.000Z</time>
      </trkpt>
      <trkpt lat="47.88442" lon="2.01927">
        <ele>142</ele>
        <time>2013-09-29T08:30:34.000Z</time>
      </trkpt>
      <trkpt lat="47.88442" lon="2.01906">
        <ele>142</ele>
        <time>2013-09-29T08:30:36.000Z</time>
      </trkpt>
      <trkpt lat="47.88443" lon="2.01884">
        <ele>142</ele>
        <time>2013-09-29T08:30:37.000Z</time>
      </trkpt>
      <trkpt lat="47.88445" lon="2.01866">
        <ele>142</ele>
        <time>2013-09-29T08:30:40.000Z</time>
      </trkpt>
      <trkpt lat="47.88446" lon="2.01846">
        <ele>142</ele>
        <time>2013-09-29T08:30:42.000Z</time>
      </trkpt>
      <trkpt lat="47.88448" lon="2.01826">
        <ele>142</ele>
        <time>2013-09-29T08:30:44.000Z</time>
      </trkpt>
      <trkpt lat="47.88448" lon="2.01804">
        <ele>143</ele>
        <time>2013-09-29T08:30:46.000Z</time>
      </trkpt>
      <trkpt lat="47.88447" lon="2.01782">
        <ele>144</ele>
        <time>2013-09-29T08:30:48.000Z</time>
      </trkpt>
      <trkpt lat="47.88446" lon="2.01762">
        <ele>145</ele>
        <time>2013-09-29T08:30:50.000Z</time>
      </trkpt>
      <trkpt lat="47.88447" lon="2.01743">
        <ele>145</ele>
        <time>2013-09-29T08:30:52.000Z</time>
      </trkpt>
      <trkpt lat="47.88447" lon="2.01724">
        <ele>145</ele>
        <time>2013-09-29T08:30:54.000Z</time>
      </trkpt>
      <trkpt lat="47.88448" lon="2.01704">
        <ele>145</ele>
        <time>2013-09-29T08:30:56.000Z</time>
      </trkpt>
      <trkpt lat="47.8845" lon="2.01688">
        <ele>144</ele>
        <time>2013-09-29T08:30:58.000Z</time>
      </trkpt>
      <trkpt lat="47.88451" lon="2.0167">
        <ele>145</ele>
        <time>2013-09-29T08:31:00.000Z</time>
      </trkpt>
      <trkpt lat="47.88453" lon="2.0165">
        <ele>145</ele>
        <time>2013-09-29T08:31:01.000Z</time>
      </trkpt>
      <trkpt lat="47.8845" lon="2.01627">
        <ele>144</ele>
        <time>2013-09-29T08:31:04.000Z</time>
      </trkpt>
      <trkpt lat="47.88452" lon="2.01609">
        <ele>144</ele>
        <time>2013-09-29T08:31:06.000Z</time>
      </trkpt>
      <trkpt lat="47.88453" lon="2.0159">
        <ele>144</ele>
        <time>2013-09-29T08:31:08.000Z</time>
      </trkpt>
      <trkpt lat="47.88453" lon="2.0157">
        <ele>144</ele>
        <time>2013-09-29T08:31:10.000Z</time>
      </trkpt>
      <trkpt lat="47.88453" lon="2.01551">
        <ele>144</ele>
        <time>2013-09-29T08:31:12.000Z</time>
      </trkpt>
      <trkpt lat="47.88451" lon="2.01531">
        <ele>144</ele>
        <time>2013-09-29T08:31:14.000Z</time>
      </trkpt>
      <trkpt lat="47.88451" lon="2.01531">
        <ele>144</ele>
        <time>2013-09-29T08:31:16.000Z</time>
      </trkpt>
      <trkpt lat="47.8845" lon="2.01494">
        <ele>145</ele>
        <time>2013-09-29T08:31:18.000Z</time>
      </trkpt>
      <trkpt lat="47.88446" lon="2.01475">
        <ele>144</ele>
        <time>2013-09-29T08:31:20.000Z</time>
      </trkpt>
      <trkpt lat="47.8845" lon="2.01457">
        <ele>144</ele>
        <time>2013-09-29T08:31:22.000Z</time>
      </trkpt>
      <trkpt lat="47.88449" lon="2.01437">
        <ele>144</ele>
        <time>2013-09-29T08:31:24.000Z</time>
      </trkpt>
      <trkpt lat="47.88446" lon="2.01418">
        <ele>144</ele>
        <time>2013-09-29T08:31:26.000Z</time>
      </trkpt>
      <trkpt lat="47.8844" lon="2.01396">
        <ele>145</ele>
        <time>2013-09-29T08:31:28.000Z</time>
      </trkpt>
      <trkpt lat="47.8844" lon="2.01377">
        <ele>144</ele>
        <time>2013-09-29T08:31:30.000Z</time>
      </trkpt>
      <trkpt lat="47.8844" lon="2.01377">
        <ele>144</ele>
        <time>2013-09-29T08:31:32.000Z</time>
      </trkpt>
      <trkpt lat="47.88441" lon="2.01341">
        <ele>144</ele>
        <time>2013-09-29T08:31:34.000Z</time>
      </trkpt>
      <trkpt lat="47.88441" lon="2.01341">
        <ele>144</ele>
        <time>2013-09-29T08:31:36.000Z</time>
      </trkpt>
      <trkpt lat="47.88442" lon="2.01311">
        <ele>144</ele>
        <time>2013-09-29T08:31:38.000Z</time>
      </trkpt>
      <trkpt lat="47.88442" lon="2.01311">
        <ele>144</ele>
        <time>2013-09-29T08:31:40.000Z</time>
      </trkpt>
      <trkpt lat="47.88442" lon="2.01311">
        <ele>144</ele>
        <time>2013-09-29T08:31:42.000Z</time>
      </trkpt>
      <trkpt lat="47.88442" lon="2.01311">
        <ele>144</ele>
        <time>2013-09-29T08:31:44.000Z</time>
      </trkpt>
      <trkpt lat="47.88432" lon="2.01237">
        <ele>144</ele>
        <time>2013-09-29T08:31:48.000Z</time>
      </trkpt>
      <trkpt lat="47.88431" lon="2.01219">
        <ele>143</ele>
        <time>2013-09-29T08:31:50.000Z</time>
      </trkpt>
      <trkpt lat="47.88428" lon="2.01203">
        <ele>143</ele>
        <time>2013-09-29T08:31:52.000Z</time>
      </trkpt>
      <trkpt lat="47.88426" lon="2.01184">
        <ele>144</ele>
        <time>2013-09-29T08:31:54.000Z</time>
      </trkpt>
      <trkpt lat="47.88426" lon="2.01167">
        <ele>144</ele>
        <time>2013-09-29T08:31:56.000Z</time>
      </trkpt>
      <trkpt lat="47.88424" lon="2.0115">
        <ele>144</ele>
        <time>2013-09-29T08:31:58.000Z</time>
      </trkpt>
      <trkpt lat="47.88421" lon="2.01132">
        <ele>144</ele>
        <time>2013-09-29T08:32:00.000Z</time>
      </trkpt>
      <trkpt lat="47.8842" lon="2.01116">
        <ele>144</ele>
        <time>2013-09-29T08:32:02.000Z</time>
      </trkpt>
      <trkpt lat="47.88418" lon="2.01098">
        <ele>145</ele>
        <time>2013-09-29T08:32:04.000Z</time>
      </trkpt>
      <trkpt lat="47.88415" lon="2.01081">
        <ele>144</ele>
        <time>2013-09-29T08:32:06.000Z</time>
      </trkpt>
      <trkpt lat="47.88414" lon="2.01063">
        <ele>144</ele>
        <time>2013-09-29T08:32:08.000Z</time>
      </trkpt>
      <trkpt lat="47.8841" lon="2.01044">
        <ele>144</ele>
        <time>2013-09-29T08:32:10.000Z</time>
      </trkpt>
      <trkpt lat="47.8841" lon="2.01023">
        <ele>144</ele>
        <time>2013-09-29T08:32:13.000Z</time>
      </trkpt>
      <trkpt lat="47.88405" lon="2.01005">
        <ele>143</ele>
        <time>2013-09-29T08:32:15.000Z</time>
      </trkpt>
      <trkpt lat="47.884" lon="2.0097">
        <ele>142</ele>
        <time>2013-09-29T08:32:19.000Z</time>
      </trkpt>
      <trkpt lat="47.884" lon="2.0097">
        <ele>142</ele>
        <time>2013-09-29T08:32:20.000Z</time>
      </trkpt>
      <trkpt lat="47.884" lon="2.0097">
        <ele>142</ele>
        <time>2013-09-29T08:32:23.000Z</time>
      </trkpt>
      <trkpt lat="47.884" lon="2.0097">
        <ele>142</ele>
        <time>2013-09-29T08:32:24.000Z</time>
      </trkpt>
      <trkpt lat="47.884" lon="2.0097">
        <ele>142</ele>
        <time>2013-09-29T08:32:27.000Z</time>
      </trkpt>
      <trkpt lat="47.884" lon="2.0097">
        <ele>142</ele>
        <time>2013-09-29T08:32:31.000Z</time>
      </trkpt>
      <trkpt lat="47.884" lon="2.0097">
        <ele>142</ele>
        <time>2013-09-29T08:32:33.000Z</time>
      </trkpt>
      <trkpt lat="47.884" lon="2.0097">
        <ele>142</ele>
        <time>2013-09-29T08:32:35.000Z</time>
      </trkpt>
      <trkpt lat="47.884" lon="2.0097">
        <ele>142</ele>
        <time>2013-09-29T08:32:37.000Z</time>
      </trkpt>
      <trkpt lat="47.88397" lon="2.00916">
        <ele>149</ele>
        <time>2013-09-29T08:37:44.000Z</time>
      </trkpt>
      <trkpt lat="47.88398" lon="2.00901">
        <ele>149</ele>
        <time>2013-09-29T08:37:48.000Z</time>
      </trkpt>
      <trkpt lat="47.884" lon="2.00885">
        <ele>150</ele>
        <time>2013-09-29T08:37:52.000Z</time>
      </trkpt>
      <trkpt lat="47.88403" lon="2.00866">
        <ele>149</ele>
        <time>2013-09-29T08:37:56.000Z</time>
      </trkpt>
      <trkpt lat="47.88405" lon="2.00847">
        <ele>149</ele>
        <time>2013-09-29T08:38:00.000Z</time>
      </trkpt>
      <trkpt lat="47.88405" lon="2.00847">
        <ele>149</ele>
        <time>2013-09-29T08:38:02.000Z</time>
      </trkpt>
      <trkpt lat="47.88409" lon="2.00829">
        <ele>149</ele>
        <time>2013-09-29T08:38:04.000Z</time>
      </trkpt>
      <trkpt lat="47.88409" lon="2.00829">
        <ele>149</ele>
        <time>2013-09-29T08:38:06.000Z</time>
      </trkpt>
      <trkpt lat="47.88409" lon="2.00829">
        <ele>149</ele>
        <time>2013-09-29T08:38:08.000Z</time>
      </trkpt>
      <trkpt lat="47.88409" lon="2.00829">
        <ele>149</ele>
        <time>2013-09-29T08:38:10.000Z</time>
      </trkpt>
      <trkpt lat="47.88409" lon="2.00829">
        <ele>149</ele>
        <time>2013-09-29T08:38:12.000Z</time>
      </trkpt>
      <trkpt lat="47.88409" lon="2.00829">
        <ele>149</ele>
        <time>2013-09-29T08:38:14.000Z</time>
      </trkpt>
      <trkpt lat="47.88409" lon="2.00829">
        <ele>149</ele>
        <time>2013-09-29T08:38:16.000Z</time>
      </trkpt>
      <trkpt lat="47.88409" lon="2.00829">
        <ele>149</ele>
        <time>2013-09-29T08:38:18.000Z</time>
      </trkpt>
      <trkpt lat="47.88409" lon="2.00829">
        <ele>149</ele>
        <time>2013-09-29T08:38:20.000Z</time>
      </trkpt>
      <trkpt lat="47.88422" lon="2.00751">
        <ele>149</ele>
        <time>2013-09-29T08:38:22.000Z</time>
      </trkpt>
      <trkpt lat="47.88426" lon="2.00733">
        <ele>149</ele>
        <time>2013-09-29T08:38:26.000Z</time>
      </trkpt>
      <trkpt lat="47.88431" lon="2.00715">
        <ele>149</ele>
        <time>2013-09-29T08:38:30.000Z</time>
      </trkpt>
      <trkpt lat="47.88434" lon="2.00695">
        <ele>149</ele>
        <time>2013-09-29T08:38:34.000Z</time>
      </trkpt>
      <trkpt lat="47.88438" lon="2.00674">
        <ele>149</ele>
        <time>2013-09-29T08:38:38.000Z</time>
      </trkpt>
      <trkpt lat="47.88444" lon="2.00658">
        <ele>150</ele>
        <time>2013-09-29T08:38:42.000Z</time>
      </trkpt>
      <trkpt lat="47.88444" lon="2.00658">
        <ele>150</ele>
        <time>2013-09-29T08:38:44.000Z</time>
      </trkpt>
      <trkpt lat="47.88444" lon="2.00658">
        <ele>150</ele>
        <time>2013-09-29T08:38:46.000Z</time>
      </trkpt>
      <trkpt lat="47.88444" lon="2.00658">
        <ele>150</ele>
        <time>2013-09-29T08:38:48.000Z</time>
      </trkpt>
      <trkpt lat="47.88455" lon="2.00604">
        <ele>149</ele>
        <time>2013-09-29T08:38:54.000Z</time>
      </trkpt>
      <trkpt lat="47.88455" lon="2.00604">
        <ele>149</ele>
        <time>2013-09-29T08:38:56.000Z</time>
      </trkpt>
      <trkpt lat="47.88455" lon="2.00604">
        <ele>149</ele>
        <time>2013-09-29T08:38:58.000Z</time>
      </trkpt>
      <trkpt lat="47.88455" lon="2.00604">
        <ele>149</ele>
        <time>2013-09-29T08:39:00.000Z</time>
      </trkpt>
      <trkpt lat="47.88455" lon="2.00604">
        <ele>149</ele>
        <time>2013-09-29T08:39:02.000Z</time>
      </trkpt>
      <trkpt lat="47.88455" lon="2.00604">
        <ele>149</ele>
        <time>2013-09-29T08:39:04.000Z</time>
      </trkpt>
      <trkpt lat="47.88467" lon="2.0055">
        <ele>148</ele>
        <time>2013-09-29T08:39:06.000Z</time>
      </trkpt>
      <trkpt lat="47.88471" lon="2.00533">
        <ele>149</ele>
        <time>2013-09-29T08:39:10.000Z</time>
      </trkpt>
      <trkpt lat="47.88471" lon="2.00533">
        <ele>149</ele>
        <time>2013-09-29T08:39:12.000Z</time>
      </trkpt>
      <trkpt lat="47.88471" lon="2.00533">
        <ele>149</ele>
        <time>2013-09-29T08:39:14.000Z</time>
      </trkpt>
      <trkpt lat="47.88471" lon="2.00533">
        <ele>149</ele>
        <time>2013-09-29T08:39:16.000Z</time>
      </trkpt>
      <trkpt lat="47.88471" lon="2.00533">
        <ele>149</ele>
        <time>2013-09-29T08:39:18.000Z</time>
      </trkpt>
      <trkpt lat="47.88471" lon="2.00533">
        <ele>149</ele>
        <time>2013-09-29T08:39:20.000Z</time>
      </trkpt>
      <trkpt lat="47.88471" lon="2.00533">
        <ele>149</ele>
        <time>2013-09-29T08:39:22.000Z</time>
      </trkpt>
      <trkpt lat="47.88478" lon="2.00497">
        <ele>149</ele>
        <time>2013-09-29T08:39:26.000Z</time>
      </trkpt>
      <trkpt lat="47.88483" lon="2.00475">
        <ele>149</ele>
        <time>2013-09-29T08:39:28.000Z</time>
      </trkpt>
      <trkpt lat="47.88487" lon="2.00459">
        <ele>149</ele>
        <time>2013-09-29T08:39:30.000Z</time>
      </trkpt>
      <trkpt lat="47.8849" lon="2.00446">
        <ele>149</ele>
        <time>2013-09-29T08:39:32.000Z</time>
      </trkpt>
      <trkpt lat="47.88493" lon="2.00434">
        <ele>149</ele>
        <time>2013-09-29T08:39:34.000Z</time>
      </trkpt>
      <trkpt lat="47.88498" lon="2.00412">
        <ele>149</ele>
        <time>2013-09-29T08:39:36.000Z</time>
      </trkpt>
      <trkpt lat="47.88503" lon="2.00391">
        <ele>149</ele>
        <time>2013-09-29T08:39:40.000Z</time>
      </trkpt>
      <trkpt lat="47.88503" lon="2.00391">
        <ele>149</ele>
        <time>2013-09-29T08:39:42.000Z</time>
      </trkpt>
      <trkpt lat="47.88508" lon="2.00371">
        <ele>149</ele>
        <time>2013-09-29T08:39:44.000Z</time>
      </trkpt>
      <trkpt lat="47.88514" lon="2.00349">
        <ele>149</ele>
        <time>2013-09-29T08:39:48.000Z</time>
      </trkpt>
      <trkpt lat="47.88519" lon="2.00326">
        <ele>149</ele>
        <time>2013-09-29T08:39:52.000Z</time>
      </trkpt>
      <trkpt lat="47.88524" lon="2.00306">
        <ele>149</ele>
        <time>2013-09-29T08:39:56.000Z</time>
      </trkpt>
      <trkpt lat="47.88524" lon="2.00306">
        <ele>149</ele>
        <time>2013-09-29T08:39:58.000Z</time>
      </trkpt>
      <trkpt lat="47.88524" lon="2.00306">
        <ele>149</ele>
        <time>2013-09-29T08:40:00.000Z</time>
      </trkpt>
      <trkpt lat="47.88533" lon="2.00274">
        <ele>149</ele>
        <time>2013-09-29T08:40:02.000Z</time>
      </trkpt>
      <trkpt lat="47.8854" lon="2.00252">
        <ele>149</ele>
        <time>2013-09-29T08:40:06.000Z</time>
      </trkpt>
      <trkpt lat="47.88546" lon="2.0023">
        <ele>149</ele>
        <time>2013-09-29T08:40:10.000Z</time>
      </trkpt>
      <trkpt lat="47.88553" lon="2.00207">
        <ele>150</ele>
        <time>2013-09-29T08:40:14.000Z</time>
      </trkpt>
      <trkpt lat="47.8856" lon="2.00183">
        <ele>150</ele>
        <time>2013-09-29T08:40:18.000Z</time>
      </trkpt>
      <trkpt lat="47.88567" lon="2.0016">
        <ele>150</ele>
        <time>2013-09-29T08:40:22.000Z</time>
      </trkpt>
      <trkpt lat="47.88572" lon="2.00148">
        <ele>150</ele>
        <time>2013-09-29T08:40:24.000Z</time>
      </trkpt>
      <trkpt lat="47.88577" lon="2.00136">
        <ele>150</ele>
        <time>2013-09-29T08:40:26.000Z</time>
      </trkpt>
      <trkpt lat="47.88582" lon="2.00125">
        <ele>150</ele>
        <time>2013-09-29T08:40:28.000Z</time>
      </trkpt>
      <trkpt lat="47.88586" lon="2.00113">
        <ele>150</ele>
        <time>2013-09-29T08:40:30.000Z</time>
      </trkpt>
      <trkpt lat="47.88591" lon="2.00102">
        <ele>150</ele>
        <time>2013-09-29T08:40:32.000Z</time>
      </trkpt>
      <trkpt lat="47.88595" lon="2.0009">
        <ele>150</ele>
        <time>2013-09-29T08:40:34.000Z</time>
      </trkpt>
      <trkpt lat="47.88599" lon="2.00078">
        <ele>150</ele>
        <time>2013-09-29T08:40:36.000Z</time>
      </trkpt>
      <trkpt lat="47.88599" lon="2.00078">
        <ele>150</ele>
        <time>2013-09-29T08:40:38.000Z</time>
      </trkpt>
      <trkpt lat="47.88599" lon="2.00078">
        <ele>150</ele>
        <time>2013-09-29T08:40:40.000Z</time>
      </trkpt>
      <trkpt lat="47.88599" lon="2.00078">
        <ele>150</ele>
        <time>2013-09-29T08:40:42.000Z</time>
      </trkpt>
      <trkpt lat="47.88623" lon="2.00021">
        <ele>150</ele>
        <time>2013-09-29T08:40:46.000Z</time>
      </trkpt>
      <trkpt lat="47.88628" lon="2.0001">
        <ele>150</ele>
        <time>2013-09-29T08:40:48.000Z</time>
      </trkpt>
      <trkpt lat="47.88633" lon="1.99999">
        <ele>150</ele>
        <time>2013-09-29T08:40:50.000Z</time>
      </trkpt>
      <trkpt lat="47.88641" lon="1.99976">
        <ele>149</ele>
        <time>2013-09-29T08:40:54.000Z</time>
      </trkpt>
      <trkpt lat="47.88647" lon="1.99965">
        <ele>149</ele>
        <time>2013-09-29T08:40:56.000Z</time>
      </trkpt>
      <trkpt lat="47.88657" lon="1.99944">
        <ele>149</ele>
        <time>2013-09-29T08:41:00.000Z</time>
      </trkpt>
      <trkpt lat="47.88662" lon="1.99933">
        <ele>149</ele>
        <time>2013-09-29T08:41:02.000Z</time>
      </trkpt>
      <trkpt lat="47.88667" lon="1.99921">
        <ele>150</ele>
        <time>2013-09-29T08:41:04.000Z</time>
      </trkpt>
      <trkpt lat="47.88673" lon="1.9991">
        <ele>150</ele>
        <time>2013-09-29T08:41:06.000Z</time>
      </trkpt>
      <trkpt lat="47.88678" lon="1.99899">
        <ele>150</ele>
        <time>2013-09-29T08:41:08.000Z</time>
      </trkpt>
      <trkpt lat="47.88683" lon="1.99887">
        <ele>150</ele>
        <time>2013-09-29T08:41:10.000Z</time>
      </trkpt>
      <trkpt lat="47.88689" lon="1.99875">
        <ele>150</ele>
        <time>2013-09-29T08:41:12.000Z</time>
      </trkpt>
      <trkpt lat="47.88695" lon="1.99863">
        <ele>150</ele>
        <time>2013-09-29T08:41:14.000Z</time>
      </trkpt>
      <trkpt lat="47.88701" lon="1.99852">
        <ele>150</ele>
        <time>2013-09-29T08:41:16.000Z</time>
      </trkpt>
      <trkpt lat="47.88707" lon="1.99842">
        <ele>150</ele>
        <time>2013-09-29T08:41:18.000Z</time>
      </trkpt>
      <trkpt lat="47.88714" lon="1.99831">
        <ele>150</ele>
        <time>2013-09-29T08:41:19.000Z</time>
      </trkpt>
      <trkpt lat="47.8872" lon="1.99819">
        <ele>150</ele>
        <time>2013-09-29T08:41:22.000Z</time>
      </trkpt>
      <trkpt lat="47.88727" lon="1.99809">
        <ele>150</ele>
        <time>2013-09-29T08:41:24.000Z</time>
      </trkpt>
      <trkpt lat="47.88734" lon="1.99799">
        <ele>150</ele>
        <time>2013-09-29T08:41:26.000Z</time>
      </trkpt>
      <trkpt lat="47.88741" lon="1.99789">
        <ele>150</ele>
        <time>2013-09-29T08:41:28.000Z</time>
      </trkpt>
      <trkpt lat="47.88748" lon="1.99779">
        <ele>150</ele>
        <time>2013-09-29T08:41:30.000Z</time>
      </trkpt>
      <trkpt lat="47.88748" lon="1.99779">
        <ele>150</ele>
        <time>2013-09-29T08:41:32.000Z</time>
      </trkpt>
      <trkpt lat="47.88748" lon="1.99779">
        <ele>150</ele>
        <time>2013-09-29T08:41:34.000Z</time>
      </trkpt>
      <trkpt lat="47.88778" lon="1.99742">
        <ele>150</ele>
        <time>2013-09-29T08:41:38.000Z</time>
      </trkpt>
      <trkpt lat="47.88786" lon="1.99732">
        <ele>150</ele>
        <time>2013-09-29T08:41:40.000Z</time>
      </trkpt>
      <trkpt lat="47.88794" lon="1.99723">
        <ele>151</ele>
        <time>2013-09-29T08:41:42.000Z</time>
      </trkpt>
      <trkpt lat="47.88802" lon="1.99714">
        <ele>150</ele>
        <time>2013-09-29T08:41:44.000Z</time>
      </trkpt>
      <trkpt lat="47.8881" lon="1.99706">
        <ele>151</ele>
        <time>2013-09-29T08:41:46.000Z</time>
      </trkpt>
      <trkpt lat="47.88818" lon="1.99696">
        <ele>151</ele>
        <time>2013-09-29T08:41:48.000Z</time>
      </trkpt>
      <trkpt lat="47.88826" lon="1.99686">
        <ele>151</ele>
        <time>2013-09-29T08:41:50.000Z</time>
      </trkpt>
      <trkpt lat="47.88834" lon="1.99676">
        <ele>151</ele>
        <time>2013-09-29T08:41:52.000Z</time>
      </trkpt>
      <trkpt lat="47.88842" lon="1.99666">
        <ele>151</ele>
        <time>2013-09-29T08:41:54.000Z</time>
      </trkpt>
      <trkpt lat="47.8885" lon="1.99656">
        <ele>151</ele>
        <time>2013-09-29T08:41:56.000Z</time>
      </trkpt>
      <trkpt lat="47.88857" lon="1.99645">
        <ele>151</ele>
        <time>2013-09-29T08:41:58.000Z</time>
      </trkpt>
      <trkpt lat="47.88865" lon="1.99635">
        <ele>151</ele>
        <time>2013-09-29T08:41:59.000Z</time>
      </trkpt>
      <trkpt lat="47.88874" lon="1.99626">
        <ele>151</ele>
        <time>2013-09-29T08:42:02.000Z</time>
      </trkpt>
      <trkpt lat="47.88881" lon="1.99616">
        <ele>151</ele>
        <time>2013-09-29T08:42:04.000Z</time>
      </trkpt>
      <trkpt lat="47.88889" lon="1.99606">
        <ele>151</ele>
        <time>2013-09-29T08:42:06.000Z</time>
      </trkpt>
      <trkpt lat="47.88897" lon="1.99596">
        <ele>151</ele>
        <time>2013-09-29T08:42:08.000Z</time>
      </trkpt>
      <trkpt lat="47.88905" lon="1.99586">
        <ele>152</ele>
        <time>2013-09-29T08:42:10.000Z</time>
      </trkpt>
      <trkpt lat="47.88912" lon="1.99577">
        <ele>152</ele>
        <time>2013-09-29T08:42:12.000Z</time>
      </trkpt>
      <trkpt lat="47.8892" lon="1.99567">
        <ele>151</ele>
        <time>2013-09-29T08:42:14.000Z</time>
      </trkpt>
      <trkpt lat="47.88928" lon="1.99557">
        <ele>152</ele>
        <time>2013-09-29T08:42:16.000Z</time>
      </trkpt>
      <trkpt lat="47.88936" lon="1.99548">
        <ele>152</ele>
        <time>2013-09-29T08:42:18.000Z</time>
      </trkpt>
      <trkpt lat="47.88944" lon="1.99538">
        <ele>152</ele>
        <time>2013-09-29T08:42:20.000Z</time>
      </trkpt>
      <trkpt lat="47.88953" lon="1.99528">
        <ele>152</ele>
        <time>2013-09-29T08:42:22.000Z</time>
      </trkpt>
      <trkpt lat="47.88961" lon="1.99518">
        <ele>152</ele>
        <time>2013-09-29T08:42:23.000Z</time>
      </trkpt>
      <trkpt lat="47.8897" lon="1.99509">
        <ele>152</ele>
        <time>2013-09-29T08:42:26.000Z</time>
      </trkpt>
      <trkpt lat="47.88979" lon="1.995">
        <ele>152</ele>
        <time>2013-09-29T08:42:28.000Z</time>
      </trkpt>
      <trkpt lat="47.88987" lon="1.99491">
        <ele>151</ele>
        <time>2013-09-29T08:42:30.000Z</time>
      </trkpt>
      <trkpt lat="47.88987" lon="1.99491">
        <ele>151</ele>
        <time>2013-09-29T08:42:32.000Z</time>
      </trkpt>
      <trkpt lat="47.88987" lon="1.99491">
        <ele>151</ele>
        <time>2013-09-29T08:42:34.000Z</time>
      </trkpt>
      <trkpt lat="47.88987" lon="1.99491">
        <ele>151</ele>
        <time>2013-09-29T08:42:36.000Z</time>
      </trkpt>
      <trkpt lat="47.88987" lon="1.99491">
        <ele>151</ele>
        <time>2013-09-29T08:42:38.000Z</time>
      </trkpt>
      <trkpt lat="47.88987" lon="1.99491">
        <ele>151</ele>
        <time>2013-09-29T08:42:40.000Z</time>
      </trkpt>
      <trkpt lat="47.88987" lon="1.99491">
        <ele>151</ele>
        <time>2013-09-29T08:42:42.000Z</time>
      </trkpt>
      <trkpt lat="47.88987" lon="1.99491">
        <ele>151</ele>
        <time>2013-09-29T08:42:44.000Z</time>
      </trkpt>
      <trkpt lat="47.88987" lon="1.99491">
        <ele>151</ele>
        <time>2013-09-29T08:42:46.000Z</time>
      </trkpt>
      <trkpt lat="47.89022" lon="1.99429">
        <ele>151</ele>
        <time>2013-09-29T08:42:52.000Z</time>
      </trkpt>
      <trkpt lat="47.89038" lon="1.9939">
        <ele>151</ele>
        <time>2013-09-29T08:42:54.000Z</time>
      </trkpt>
      <trkpt lat="47.89046" lon="1.99363">
        <ele>151</ele>
        <time>2013-09-29T08:42:56.000Z</time>
      </trkpt>
      <trkpt lat="47.89046" lon="1.99363">
        <ele>151</ele>
        <time>2013-09-29T08:42:58.000Z</time>
      </trkpt>
      <trkpt lat="47.89046" lon="1.99363">
        <ele>151</ele>
        <time>2013-09-29T08:43:00.000Z</time>
      </trkpt>
      <trkpt lat="47.89046" lon="1.99363">
        <ele>151</ele>
        <time>2013-09-29T08:43:02.000Z</time>
      </trkpt>
      <trkpt lat="47.89046" lon="1.99363">
        <ele>151</ele>
        <time>2013-09-29T08:43:04.000Z</time>
      </trkpt>
      <trkpt lat="47.89046" lon="1.99363">
        <ele>151</ele>
        <time>2013-09-29T08:43:06.000Z</time>
      </trkpt>
      <trkpt lat="47.89046" lon="1.99363">
        <ele>151</ele>
        <time>2013-09-29T08:43:14.000Z</time>
      </trkpt>
      <trkpt lat="47.89046" lon="1.99363">
        <ele>151</ele>
        <time>2013-09-29T08:43:16.000Z</time>
      </trkpt>
      <trkpt lat="47.89057" lon="1.99352">
        <ele>147</ele>
        <time>2013-09-29T08:43:22.000Z</time>
      </trkpt>
      <trkpt lat="47.89061" lon="1.99348">
        <ele>148</ele>
        <time>2013-09-29T08:43:24.000Z</time>
      </trkpt>
      <trkpt lat="47.89061" lon="1.99348">
        <ele>148</ele>
        <time>2013-09-29T08:43:26.000Z</time>
      </trkpt>
      <trkpt lat="47.89066" lon="1.99343">
        <ele>146</ele>
        <time>2013-09-29T08:43:28.000Z</time>
      </trkpt>
      <trkpt lat="47.89072" lon="1.99338">
        <ele>147</ele>
        <time>2013-09-29T08:43:30.000Z</time>
      </trkpt>
      <trkpt lat="47.89077" lon="1.99331">
        <ele>148</ele>
        <time>2013-09-29T08:43:32.000Z</time>
      </trkpt>
      <trkpt lat="47.89082" lon="1.99323">
        <ele>148</ele>
        <time>2013-09-29T08:43:34.000Z</time>
      </trkpt>
      <trkpt lat="47.89085" lon="1.99314">
        <ele>148</ele>
        <time>2013-09-29T08:43:36.000Z</time>
      </trkpt>
      <trkpt lat="47.89092" lon="1.99295">
        <ele>148</ele>
        <time>2013-09-29T08:43:38.000Z</time>
      </trkpt>
      <trkpt lat="47.89096" lon="1.9927">
        <ele>149</ele>
        <time>2013-09-29T08:43:42.000Z</time>
      </trkpt>
      <trkpt lat="47.89103" lon="1.99254">
        <ele>148</ele>
        <time>2013-09-29T08:43:46.000Z</time>
      </trkpt>
      <trkpt lat="47.89103" lon="1.99254">
        <ele>148</ele>
        <time>2013-09-29T08:43:49.000Z</time>
      </trkpt>
      <trkpt lat="47.89111" lon="1.99225">
        <ele>151</ele>
        <time>2013-09-29T08:43:51.000Z</time>
      </trkpt>
      <trkpt lat="47.89116" lon="1.99213">
        <ele>149</ele>
        <time>2013-09-29T08:43:53.000Z</time>
      </trkpt>
      <trkpt lat="47.8912" lon="1.99202">
        <ele>149</ele>
        <time>2013-09-29T08:43:55.000Z</time>
      </trkpt>
      <trkpt lat="47.89126" lon="1.99192">
        <ele>150</ele>
        <time>2013-09-29T08:43:57.000Z</time>
      </trkpt>
      <trkpt lat="47.8913" lon="1.99179">
        <ele>149</ele>
        <time>2013-09-29T08:43:59.000Z</time>
      </trkpt>
      <trkpt lat="47.89137" lon="1.99158">
        <ele>150</ele>
        <time>2013-09-29T08:44:03.000Z</time>
      </trkpt>
      <trkpt lat="47.89137" lon="1.99158">
        <ele>150</ele>
        <time>2013-09-29T08:44:05.000Z</time>
      </trkpt>
      <trkpt lat="47.89137" lon="1.99158">
        <ele>150</ele>
        <time>2013-09-29T08:44:06.000Z</time>
      </trkpt>
      <trkpt lat="47.89137" lon="1.99158">
        <ele>150</ele>
        <time>2013-09-29T08:44:09.000Z</time>
      </trkpt>
      <trkpt lat="47.89137" lon="1.99158">
        <ele>150</ele>
        <time>2013-09-29T08:44:11.000Z</time>
      </trkpt>
      <trkpt lat="47.89162" lon="1.99087">
        <ele>147</ele>
        <time>2013-09-29T08:44:15.000Z</time>
      </trkpt>
      <trkpt lat="47.89165" lon="1.99074">
        <ele>147</ele>
        <time>2013-09-29T08:44:17.000Z</time>
      </trkpt>
      <trkpt lat="47.89171" lon="1.9905">
        <ele>147</ele>
        <time>2013-09-29T08:44:21.000Z</time>
      </trkpt>
      <trkpt lat="47.89175" lon="1.99037">
        <ele>145</ele>
        <time>2013-09-29T08:44:23.000Z</time>
      </trkpt>
      <trkpt lat="47.89175" lon="1.99037">
        <ele>145</ele>
        <time>2013-09-29T08:44:25.000Z</time>
      </trkpt>
      <trkpt lat="47.89175" lon="1.99037">
        <ele>145</ele>
        <time>2013-09-29T08:44:27.000Z</time>
      </trkpt>
      <trkpt lat="47.89175" lon="1.99037">
        <ele>145</ele>
        <time>2013-09-29T08:44:29.000Z</time>
      </trkpt>
      <trkpt lat="47.89175" lon="1.99037">
        <ele>145</ele>
        <time>2013-09-29T08:44:31.000Z</time>
      </trkpt>
      <trkpt lat="47.89175" lon="1.99037">
        <ele>145</ele>
        <time>2013-09-29T08:44:33.000Z</time>
      </trkpt>
      <trkpt lat="47.89175" lon="1.99037">
        <ele>145</ele>
        <time>2013-09-29T08:44:34.000Z</time>
      </trkpt>
      <trkpt lat="47.89175" lon="1.99037">
        <ele>145</ele>
        <time>2013-09-29T08:44:37.000Z</time>
      </trkpt>
      <trkpt lat="47.89175" lon="1.99037">
        <ele>145</ele>
        <time>2013-09-29T08:44:38.000Z</time>
      </trkpt>
      <trkpt lat="47.89216" lon="1.98956">
        <ele>146</ele>
        <time>2013-09-29T08:44:45.000Z</time>
      </trkpt>
      <trkpt lat="47.89227" lon="1.98943">
        <ele>145</ele>
        <time>2013-09-29T08:44:49.000Z</time>
      </trkpt>
      <trkpt lat="47.89236" lon="1.98927">
        <ele>144</ele>
        <time>2013-09-29T08:44:53.000Z</time>
      </trkpt>
      <trkpt lat="47.89247" lon="1.9891">
        <ele>146</ele>
        <time>2013-09-29T08:44:56.000Z</time>
      </trkpt>
      <trkpt lat="47.89254" lon="1.98901">
        <ele>148</ele>
        <time>2013-09-29T08:44:58.000Z</time>
      </trkpt>
      <trkpt lat="47.89266" lon="1.98881">
        <ele>150</ele>
        <time>2013-09-29T08:45:02.000Z</time>
      </trkpt>
      <trkpt lat="47.89273" lon="1.98872">
        <ele>149</ele>
        <time>2013-09-29T08:45:04.000Z</time>
      </trkpt>
      <trkpt lat="47.89279" lon="1.9886">
        <ele>149</ele>
        <time>2013-09-29T08:45:06.000Z</time>
      </trkpt>
      <trkpt lat="47.89285" lon="1.98847">
        <ele>148</ele>
        <time>2013-09-29T08:45:08.000Z</time>
      </trkpt>
      <trkpt lat="47.89291" lon="1.98836">
        <ele>148</ele>
        <time>2013-09-29T08:45:10.000Z</time>
      </trkpt>
      <trkpt lat="47.89291" lon="1.98836">
        <ele>148</ele>
        <time>2013-09-29T08:45:12.000Z</time>
      </trkpt>
      <trkpt lat="47.89304" lon="1.98819">
        <ele>147</ele>
        <time>2013-09-29T08:45:14.000Z</time>
      </trkpt>
      <trkpt lat="47.89304" lon="1.98819">
        <ele>147</ele>
        <time>2013-09-29T08:45:16.000Z</time>
      </trkpt>
      <trkpt lat="47.89304" lon="1.98819">
        <ele>147</ele>
        <time>2013-09-29T08:45:18.000Z</time>
      </trkpt>
      <trkpt lat="47.8933" lon="1.98778">
        <ele>148</ele>
        <time>2013-09-29T08:45:22.000Z</time>
      </trkpt>
      <trkpt lat="47.89336" lon="1.98768">
        <ele>147</ele>
        <time>2013-09-29T08:45:23.000Z</time>
      </trkpt>
      <trkpt lat="47.89343" lon="1.98757">
        <ele>147</ele>
        <time>2013-09-29T08:45:26.000Z</time>
      </trkpt>
      <trkpt lat="47.89343" lon="1.98757">
        <ele>147</ele>
        <time>2013-09-29T08:45:28.000Z</time>
      </trkpt>
      <trkpt lat="47.89343" lon="1.98757">
        <ele>147</ele>
        <time>2013-09-29T08:45:30.000Z</time>
      </trkpt>
      <trkpt lat="47.89343" lon="1.98757">
        <ele>147</ele>
        <time>2013-09-29T08:45:32.000Z</time>
      </trkpt>
      <trkpt lat="47.89359" lon="1.9873">
        <ele>144</ele>
        <time>2013-09-29T08:45:36.000Z</time>
      </trkpt>
      <trkpt lat="47.89368" lon="1.9871">
        <ele>144</ele>
        <time>2013-09-29T08:45:38.000Z</time>
      </trkpt>
      <trkpt lat="47.89374" lon="1.98693">
        <ele>146</ele>
        <time>2013-09-29T08:45:39.000Z</time>
      </trkpt>
      <trkpt lat="47.8938" lon="1.98678">
        <ele>146</ele>
        <time>2013-09-29T08:45:42.000Z</time>
      </trkpt>
      <trkpt lat="47.89384" lon="1.98665">
        <ele>146</ele>
        <time>2013-09-29T08:45:44.000Z</time>
      </trkpt>
      <trkpt lat="47.89384" lon="1.98665">
        <ele>146</ele>
        <time>2013-09-29T08:45:46.000Z</time>
      </trkpt>
      <trkpt lat="47.89384" lon="1.98665">
        <ele>146</ele>
        <time>2013-09-29T08:45:47.000Z</time>
      </trkpt>
      <trkpt lat="47.89384" lon="1.98665">
        <ele>146</ele>
        <time>2013-09-29T08:45:50.000Z</time>
      </trkpt>
      <trkpt lat="47.89384" lon="1.98665">
        <ele>146</ele>
        <time>2013-09-29T08:45:52.000Z</time>
      </trkpt>
      <trkpt lat="47.89384" lon="1.98665">
        <ele>146</ele>
        <time>2013-09-29T08:45:54.000Z</time>
      </trkpt>
      <trkpt lat="47.89384" lon="1.98665">
        <ele>146</ele>
        <time>2013-09-29T08:45:56.000Z</time>
      </trkpt>
      <trkpt lat="47.89384" lon="1.98665">
        <ele>146</ele>
        <time>2013-09-29T08:45:58.000Z</time>
      </trkpt>
      <trkpt lat="47.89384" lon="1.98665">
        <ele>146</ele>
        <time>2013-09-29T08:46:00.000Z</time>
      </trkpt>
      <trkpt lat="47.89384" lon="1.98665">
        <ele>146</ele>
        <time>2013-09-29T08:46:04.000Z</time>
      </trkpt>
      <trkpt lat="47.8941" lon="1.98618">
        <ele>148</ele>
        <time>2013-09-29T08:46:08.000Z</time>
      </trkpt>
      <trkpt lat="47.89415" lon="1.98603">
        <ele>148</ele>
        <time>2013-09-29T08:46:12.000Z</time>
      </trkpt>
      <trkpt lat="47.89425" lon="1.98583">
        <ele>149</ele>
        <time>2013-09-29T08:46:16.000Z</time>
      </trkpt>
      <trkpt lat="47.89433" lon="1.98572">
        <ele>149</ele>
        <time>2013-09-29T08:46:18.000Z</time>
      </trkpt>
      <trkpt lat="47.8944" lon="1.98554">
        <ele>149</ele>
        <time>2013-09-29T08:46:22.000Z</time>
      </trkpt>
      <trkpt lat="47.8944" lon="1.98554">
        <ele>149</ele>
        <time>2013-09-29T08:46:24.000Z</time>
      </trkpt>
      <trkpt lat="47.89452" lon="1.98526">
        <ele>147</ele>
        <time>2013-09-29T08:46:26.000Z</time>
      </trkpt>
      <trkpt lat="47.89456" lon="1.98513">
        <ele>148</ele>
        <time>2013-09-29T08:46:28.000Z</time>
      </trkpt>
      <trkpt lat="47.89468" lon="1.98491">
        <ele>148</ele>
        <time>2013-09-29T08:46:32.000Z</time>
      </trkpt>
      <trkpt lat="47.89473" lon="1.98478">
        <ele>148</ele>
        <time>2013-09-29T08:46:34.000Z</time>
      </trkpt>
      <trkpt lat="47.89478" lon="1.98461">
        <ele>147</ele>
        <time>2013-09-29T08:46:35.000Z</time>
      </trkpt>
      <trkpt lat="47.89484" lon="1.98449">
        <ele>147</ele>
        <time>2013-09-29T08:46:38.000Z</time>
      </trkpt>
      <trkpt lat="47.89491" lon="1.98437">
        <ele>146</ele>
        <time>2013-09-29T08:46:39.000Z</time>
      </trkpt>
      <trkpt lat="47.89498" lon="1.98426">
        <ele>146</ele>
        <time>2013-09-29T08:46:42.000Z</time>
      </trkpt>
      <trkpt lat="47.89505" lon="1.98411">
        <ele>145</ele>
        <time>2013-09-29T08:46:44.000Z</time>
      </trkpt>
      <trkpt lat="47.89512" lon="1.98404">
        <ele>146</ele>
        <time>2013-09-29T08:46:46.000Z</time>
      </trkpt>
      <trkpt lat="47.89518" lon="1.98393">
        <ele>146</ele>
        <time>2013-09-29T08:46:48.000Z</time>
      </trkpt>
      <trkpt lat="47.89518" lon="1.98393">
        <ele>146</ele>
        <time>2013-09-29T08:46:50.000Z</time>
      </trkpt>
      <trkpt lat="47.89518" lon="1.98393">
        <ele>146</ele>
        <time>2013-09-29T08:46:52.000Z</time>
      </trkpt>
      <trkpt lat="47.89518" lon="1.98393">
        <ele>146</ele>
        <time>2013-09-29T08:46:54.000Z</time>
      </trkpt>
      <trkpt lat="47.8955" lon="1.98342">
        <ele>147</ele>
        <time>2013-09-29T08:46:58.000Z</time>
      </trkpt>
      <trkpt lat="47.89556" lon="1.98332">
        <ele>147</ele>
        <time>2013-09-29T08:47:00.000Z</time>
      </trkpt>
      <trkpt lat="47.89565" lon="1.9832">
        <ele>146</ele>
        <time>2013-09-29T08:47:02.000Z</time>
      </trkpt>
      <trkpt lat="47.89571" lon="1.9831">
        <ele>146</ele>
        <time>2013-09-29T08:47:04.000Z</time>
      </trkpt>
      <trkpt lat="47.89571" lon="1.9831">
        <ele>146</ele>
        <time>2013-09-29T08:47:06.000Z</time>
      </trkpt>
      <trkpt lat="47.89571" lon="1.9831">
        <ele>146</ele>
        <time>2013-09-29T08:47:08.000Z</time>
      </trkpt>
      <trkpt lat="47.89571" lon="1.9831">
        <ele>146</ele>
        <time>2013-09-29T08:47:10.000Z</time>
      </trkpt>
      <trkpt lat="47.89571" lon="1.9831">
        <ele>146</ele>
        <time>2013-09-29T08:47:14.000Z</time>
      </trkpt>
      <trkpt lat="47.89571" lon="1.9831">
        <ele>146</ele>
        <time>2013-09-29T08:47:16.000Z</time>
      </trkpt>
      <trkpt lat="47.89571" lon="1.9831">
        <ele>146</ele>
        <time>2013-09-29T08:47:18.000Z</time>
      </trkpt>
      <trkpt lat="47.89571" lon="1.9831">
        <ele>146</ele>
        <time>2013-09-29T08:47:20.000Z</time>
      </trkpt>
      <trkpt lat="47.89571" lon="1.9831">
        <ele>146</ele>
        <time>2013-09-29T08:47:22.000Z</time>
      </trkpt>
      <trkpt lat="47.89571" lon="1.9831">
        <ele>146</ele>
        <time>2013-09-29T08:47:24.000Z</time>
      </trkpt>
      <trkpt lat="47.89571" lon="1.9831">
        <ele>146</ele>
        <time>2013-09-29T08:47:26.000Z</time>
      </trkpt>
      <trkpt lat="47.89571" lon="1.9831">
        <ele>146</ele>
        <time>2013-09-29T08:47:28.000Z</time>
      </trkpt>
      <trkpt lat="47.89571" lon="1.9831">
        <ele>146</ele>
        <time>2013-09-29T08:47:30.000Z</time>
      </trkpt>
      <trkpt lat="47.89571" lon="1.9831">
        <ele>146</ele>
        <time>2013-09-29T08:47:32.000Z</time>
      </trkpt>
      <trkpt lat="47.89571" lon="1.9831">
        <ele>146</ele>
        <time>2013-09-29T08:47:34.000Z</time>
      </trkpt>
      <trkpt lat="47.89617" lon="1.9825">
        <ele>146</ele>
        <time>2013-09-29T08:47:38.000Z</time>
      </trkpt>
      <trkpt lat="47.89643" lon="1.98215">
        <ele>145</ele>
        <time>2013-09-29T08:47:39.000Z</time>
      </trkpt>
      <trkpt lat="47.89661" lon="1.98194">
        <ele>146</ele>
        <time>2013-09-29T08:47:42.000Z</time>
      </trkpt>
      <trkpt lat="47.89672" lon="1.98177">
        <ele>147</ele>
        <time>2013-09-29T08:47:44.000Z</time>
      </trkpt>
      <trkpt lat="47.89681" lon="1.98164">
        <ele>146</ele>
        <time>2013-09-29T08:47:46.000Z</time>
      </trkpt>
      <trkpt lat="47.89696" lon="1.98143">
        <ele>145</ele>
        <time>2013-09-29T08:47:47.000Z</time>
      </trkpt>
      <trkpt lat="47.89702" lon="1.98134">
        <ele>145</ele>
        <time>2013-09-29T08:47:50.000Z</time>
      </trkpt>
      <trkpt lat="47.89711" lon="1.98116">
        <ele>145</ele>
        <time>2013-09-29T08:47:54.000Z</time>
      </trkpt>
      <trkpt lat="47.89716" lon="1.98105">
        <ele>145</ele>
        <time>2013-09-29T08:47:56.000Z</time>
      </trkpt>
      <trkpt lat="47.89716" lon="1.98105">
        <ele>145</ele>
        <time>2013-09-29T08:47:58.000Z</time>
      </trkpt>
      <trkpt lat="47.89716" lon="1.98105">
        <ele>145</ele>
        <time>2013-09-29T08:48:00.000Z</time>
      </trkpt>
      <trkpt lat="47.89716" lon="1.98105">
        <ele>145</ele>
        <time>2013-09-29T08:48:02.000Z</time>
      </trkpt>
      <trkpt lat="47.89716" lon="1.98105">
        <ele>145</ele>
        <time>2013-09-29T08:48:04.000Z</time>
      </trkpt>
      <trkpt lat="47.89746" lon="1.98039">
        <ele>146</ele>
        <time>2013-09-29T08:48:08.000Z</time>
      </trkpt>
      <trkpt lat="47.89751" lon="1.98027">
        <ele>146</ele>
        <time>2013-09-29T08:48:10.000Z</time>
      </trkpt>
      <trkpt lat="47.89762" lon="1.9801">
        <ele>147</ele>
        <time>2013-09-29T08:48:14.000Z</time>
      </trkpt>
      <trkpt lat="47.89762" lon="1.9801">
        <ele>147</ele>
        <time>2013-09-29T08:48:16.000Z</time>
      </trkpt>
      <trkpt lat="47.89762" lon="1.9801">
        <ele>147</ele>
        <time>2013-09-29T08:48:18.000Z</time>
      </trkpt>
      <trkpt lat="47.89789" lon="1.97946">
        <ele>147</ele>
        <time>2013-09-29T08:48:24.000Z</time>
      </trkpt>
      <trkpt lat="47.89795" lon="1.97934">
        <ele>147</ele>
        <time>2013-09-29T08:48:26.000Z</time>
      </trkpt>
      <trkpt lat="47.89805" lon="1.9791">
        <ele>147</ele>
        <time>2013-09-29T08:48:30.000Z</time>
      </trkpt>
      <trkpt lat="47.89807" lon="1.97897">
        <ele>147</ele>
        <time>2013-09-29T08:48:32.000Z</time>
      </trkpt>
      <trkpt lat="47.89807" lon="1.97897">
        <ele>147</ele>
        <time>2013-09-29T08:48:34.000Z</time>
      </trkpt>
      <trkpt lat="47.89807" lon="1.97897">
        <ele>147</ele>
        <time>2013-09-29T08:48:35.000Z</time>
      </trkpt>
      <trkpt lat="47.89807" lon="1.97897">
        <ele>147</ele>
        <time>2013-09-29T08:48:38.000Z</time>
      </trkpt>
      <trkpt lat="47.89807" lon="1.97897">
        <ele>147</ele>
        <time>2013-09-29T08:48:39.000Z</time>
      </trkpt>
      <trkpt lat="47.89807" lon="1.97897">
        <ele>147</ele>
        <time>2013-09-29T08:48:42.000Z</time>
      </trkpt>
      <trkpt lat="47.89833" lon="1.97804">
        <ele>146</ele>
        <time>2013-09-29T08:48:46.000Z</time>
      </trkpt>
      <trkpt lat="47.8984" lon="1.97792">
        <ele>147</ele>
        <time>2013-09-29T08:48:48.000Z</time>
      </trkpt>
      <trkpt lat="47.89846" lon="1.97779">
        <ele>146</ele>
        <time>2013-09-29T08:48:50.000Z</time>
      </trkpt>
      <trkpt lat="47.89846" lon="1.97779">
        <ele>146</ele>
        <time>2013-09-29T08:48:54.000Z</time>
      </trkpt>
      <trkpt lat="47.89846" lon="1.97779">
        <ele>146</ele>
        <time>2013-09-29T08:48:56.000Z</time>
      </trkpt>
      <trkpt lat="47.89846" lon="1.97779">
        <ele>146</ele>
        <time>2013-09-29T08:48:58.000Z</time>
      </trkpt>
      <trkpt lat="47.89846" lon="1.97779">
        <ele>146</ele>
        <time>2013-09-29T08:48:59.000Z</time>
      </trkpt>
      <trkpt lat="47.89846" lon="1.97779">
        <ele>146</ele>
        <time>2013-09-29T08:49:02.000Z</time>
      </trkpt>
      <trkpt lat="47.89852" lon="1.97762">
        <ele>151</ele>
        <time>2013-09-29T08:49:14.000Z</time>
      </trkpt>
      <trkpt lat="47.8986" lon="1.97734">
        <ele>152</ele>
        <time>2013-09-29T08:49:19.000Z</time>
      </trkpt>
      <trkpt lat="47.89867" lon="1.97723">
        <ele>149</ele>
        <time>2013-09-29T08:49:22.000Z</time>
      </trkpt>
      <trkpt lat="47.89867" lon="1.97723">
        <ele>149</ele>
        <time>2013-09-29T08:49:23.000Z</time>
      </trkpt>
      <trkpt lat="47.89867" lon="1.97723">
        <ele>149</ele>
        <time>2013-09-29T08:49:26.000Z</time>
      </trkpt>
      <trkpt lat="47.89867" lon="1.97723">
        <ele>149</ele>
        <time>2013-09-29T08:49:30.000Z</time>
      </trkpt>
      <trkpt lat="47.89867" lon="1.97723">
        <ele>149</ele>
        <time>2013-09-29T08:49:32.000Z</time>
      </trkpt>
      <trkpt lat="47.89867" lon="1.97723">
        <ele>149</ele>
        <time>2013-09-29T08:49:34.000Z</time>
      </trkpt>
      <trkpt lat="47.89867" lon="1.97723">
        <ele>149</ele>
        <time>2013-09-29T08:49:36.000Z</time>
      </trkpt>
      <trkpt lat="47.89879" lon="1.97688">
        <ele>152</ele>
        <time>2013-09-29T08:49:40.000Z</time>
      </trkpt>
      <trkpt lat="47.89884" lon="1.97677">
        <ele>151</ele>
        <time>2013-09-29T08:49:42.000Z</time>
      </trkpt>
      <trkpt lat="47.8989" lon="1.97653">
        <ele>153</ele>
        <time>2013-09-29T08:49:46.000Z</time>
      </trkpt>
      <trkpt lat="47.89893" lon="1.97637">
        <ele>152</ele>
        <time>2013-09-29T08:49:48.000Z</time>
      </trkpt>
      <trkpt lat="47.89897" lon="1.9762">
        <ele>151</ele>
        <time>2013-09-29T08:49:49.000Z</time>
      </trkpt>
      <trkpt lat="47.899" lon="1.97604">
        <ele>150</ele>
        <time>2013-09-29T08:49:52.000Z</time>
      </trkpt>
      <trkpt lat="47.89902" lon="1.97589">
        <ele>150</ele>
        <time>2013-09-29T08:49:54.000Z</time>
      </trkpt>
      <trkpt lat="47.89903" lon="1.97575">
        <ele>149</ele>
        <time>2013-09-29T08:49:56.000Z</time>
      </trkpt>
      <trkpt lat="47.89904" lon="1.9756">
        <ele>148</ele>
        <time>2013-09-29T08:49:58.000Z</time>
      </trkpt>
      <trkpt lat="47.89906" lon="1.97543">
        <ele>147</ele>
        <time>2013-09-29T08:50:00.000Z</time>
      </trkpt>
      <trkpt lat="47.89907" lon="1.97529">
        <ele>146</ele>
        <time>2013-09-29T08:50:02.000Z</time>
      </trkpt>
      <trkpt lat="47.89915" lon="1.975">
        <ele>144</ele>
        <time>2013-09-29T08:50:06.000Z</time>
      </trkpt>
      <trkpt lat="47.89918" lon="1.97485">
        <ele>143</ele>
        <time>2013-09-29T08:50:08.000Z</time>
      </trkpt>
      <trkpt lat="47.89921" lon="1.97472">
        <ele>145</ele>
        <time>2013-09-29T08:50:10.000Z</time>
      </trkpt>
      <trkpt lat="47.89924" lon="1.97458">
        <ele>146</ele>
        <time>2013-09-29T08:50:12.000Z</time>
      </trkpt>
      <trkpt lat="47.89924" lon="1.97458">
        <ele>146</ele>
        <time>2013-09-29T08:50:14.000Z</time>
      </trkpt>
      <trkpt lat="47.89924" lon="1.97458">
        <ele>146</ele>
        <time>2013-09-29T08:50:16.000Z</time>
      </trkpt>
      <trkpt lat="47.89924" lon="1.97458">
        <ele>146</ele>
        <time>2013-09-29T08:50:18.000Z</time>
      </trkpt>
      <trkpt lat="47.89924" lon="1.97458">
        <ele>146</ele>
        <time>2013-09-29T08:50:20.000Z</time>
      </trkpt>
      <trkpt lat="47.89924" lon="1.97458">
        <ele>146</ele>
        <time>2013-09-29T08:50:28.000Z</time>
      </trkpt>
      <trkpt lat="47.89924" lon="1.97458">
        <ele>146</ele>
        <time>2013-09-29T08:50:30.000Z</time>
      </trkpt>
      <trkpt lat="47.89924" lon="1.97458">
        <ele>146</ele>
        <time>2013-09-29T08:50:32.000Z</time>
      </trkpt>
      <trkpt lat="47.89924" lon="1.97458">
        <ele>146</ele>
        <time>2013-09-29T08:50:34.000Z</time>
      </trkpt>
      <trkpt lat="47.89924" lon="1.97458">
        <ele>146</ele>
        <time>2013-09-29T08:50:35.000Z</time>
      </trkpt>
      <trkpt lat="47.89924" lon="1.97458">
        <ele>146</ele>
        <time>2013-09-29T08:50:38.000Z</time>
      </trkpt>
      <trkpt lat="47.89924" lon="1.97458">
        <ele>146</ele>
        <time>2013-09-29T08:50:40.000Z</time>
      </trkpt>
      <trkpt lat="47.89924" lon="1.97458">
        <ele>146</ele>
        <time>2013-09-29T08:50:42.000Z</time>
      </trkpt>
      <trkpt lat="47.89943" lon="1.97267">
        <ele>148</ele>
        <time>2013-09-29T08:50:46.000Z</time>
      </trkpt>
      <trkpt lat="47.89943" lon="1.97246">
        <ele>149</ele>
        <time>2013-09-29T08:50:50.000Z</time>
      </trkpt>
      <trkpt lat="47.89943" lon="1.97246">
        <ele>149</ele>
        <time>2013-09-29T08:50:52.000Z</time>
      </trkpt>
      <trkpt lat="47.89943" lon="1.97246">
        <ele>149</ele>
        <time>2013-09-29T08:50:54.000Z</time>
      </trkpt>
      <trkpt lat="47.89943" lon="1.97246">
        <ele>149</ele>
        <time>2013-09-29T08:50:56.000Z</time>
      </trkpt>
      <trkpt lat="47.89947" lon="1.97238">
        <ele>151</ele>
        <time>2013-09-29T08:52:52.000Z</time>
      </trkpt>
      <trkpt lat="47.89948" lon="1.97215">
        <ele>149</ele>
        <time>2013-09-29T08:52:58.000Z</time>
      </trkpt>
      <trkpt lat="47.89952" lon="1.97195">
        <ele>149</ele>
        <time>2013-09-29T08:53:02.000Z</time>
      </trkpt>
      <trkpt lat="47.89955" lon="1.97172">
        <ele>149</ele>
        <time>2013-09-29T08:53:06.000Z</time>
      </trkpt>
      <trkpt lat="47.89957" lon="1.9715">
        <ele>149</ele>
        <time>2013-09-29T08:53:10.000Z</time>
      </trkpt>
      <trkpt lat="47.89959" lon="1.97135">
        <ele>147</ele>
        <time>2013-09-29T08:53:12.000Z</time>
      </trkpt>
      <trkpt lat="47.89957" lon="1.97121">
        <ele>147</ele>
        <time>2013-09-29T08:53:13.000Z</time>
      </trkpt>
      <trkpt lat="47.89957" lon="1.97094">
        <ele>148</ele>
        <time>2013-09-29T08:53:18.000Z</time>
      </trkpt>
      <trkpt lat="47.89961" lon="1.97075">
        <ele>149</ele>
        <time>2013-09-29T08:53:19.000Z</time>
      </trkpt>
      <trkpt lat="47.89963" lon="1.97058">
        <ele>149</ele>
        <time>2013-09-29T08:53:22.000Z</time>
      </trkpt>
      <trkpt lat="47.89964" lon="1.97043">
        <ele>148</ele>
        <time>2013-09-29T08:53:24.000Z</time>
      </trkpt>
      <trkpt lat="47.89964" lon="1.97028">
        <ele>148</ele>
        <time>2013-09-29T08:53:26.000Z</time>
      </trkpt>
      <trkpt lat="47.89964" lon="1.97028">
        <ele>148</ele>
        <time>2013-09-29T08:53:28.000Z</time>
      </trkpt>
      <trkpt lat="47.89964" lon="1.97028">
        <ele>148</ele>
        <time>2013-09-29T08:53:30.000Z</time>
      </trkpt>
      <trkpt lat="47.89964" lon="1.97028">
        <ele>148</ele>
        <time>2013-09-29T08:53:31.000Z</time>
      </trkpt>
      <trkpt lat="47.89967" lon="1.96946">
        <ele>146</ele>
        <time>2013-09-29T08:53:36.000Z</time>
      </trkpt>
      <trkpt lat="47.89968" lon="1.96929">
        <ele>144</ele>
        <time>2013-09-29T08:53:38.000Z</time>
      </trkpt>
      <trkpt lat="47.8997" lon="1.96914">
        <ele>145</ele>
        <time>2013-09-29T08:53:40.000Z</time>
      </trkpt>
      <trkpt lat="47.89972" lon="1.96898">
        <ele>145</ele>
        <time>2013-09-29T08:53:42.000Z</time>
      </trkpt>
      <trkpt lat="47.89972" lon="1.96885">
        <ele>145</ele>
        <time>2013-09-29T08:53:44.000Z</time>
      </trkpt>
      <trkpt lat="47.89978" lon="1.96865">
        <ele>140</ele>
        <time>2013-09-29T08:53:46.000Z</time>
      </trkpt>
      <trkpt lat="47.89978" lon="1.96848">
        <ele>140</ele>
        <time>2013-09-29T08:53:48.000Z</time>
      </trkpt>
      <trkpt lat="47.89978" lon="1.96848">
        <ele>140</ele>
        <time>2013-09-29T08:53:52.000Z</time>
      </trkpt>
      <trkpt lat="47.89978" lon="1.96848">
        <ele>140</ele>
        <time>2013-09-29T08:53:53.000Z</time>
      </trkpt>
      <trkpt lat="47.89978" lon="1.96848">
        <ele>140</ele>
        <time>2013-09-29T08:53:56.000Z</time>
      </trkpt>
      <trkpt lat="47.89978" lon="1.96848">
        <ele>140</ele>
        <time>2013-09-29T08:53:57.000Z</time>
      </trkpt>
      <trkpt lat="47.89988" lon="1.96745">
        <ele>140</ele>
        <time>2013-09-29T08:54:02.000Z</time>
      </trkpt>
      <trkpt lat="47.89985" lon="1.96724">
        <ele>141</ele>
        <time>2013-09-29T08:54:04.000Z</time>
      </trkpt>
      <trkpt lat="47.89983" lon="1.96706">
        <ele>141</ele>
        <time>2013-09-29T08:54:06.000Z</time>
      </trkpt>
      <trkpt lat="47.89984" lon="1.96688">
        <ele>141</ele>
        <time>2013-09-29T08:54:08.000Z</time>
      </trkpt>
      <trkpt lat="47.89984" lon="1.9667">
        <ele>142</ele>
        <time>2013-09-29T08:54:10.000Z</time>
      </trkpt>
      <trkpt lat="47.89984" lon="1.96652">
        <ele>143</ele>
        <time>2013-09-29T08:54:12.000Z</time>
      </trkpt>
      <trkpt lat="47.89985" lon="1.96637">
        <ele>143</ele>
        <time>2013-09-29T08:54:14.000Z</time>
      </trkpt>
      <trkpt lat="47.89983" lon="1.96621">
        <ele>143</ele>
        <time>2013-09-29T08:54:16.000Z</time>
      </trkpt>
      <trkpt lat="47.89982" lon="1.96604">
        <ele>143</ele>
        <time>2013-09-29T08:54:18.000Z</time>
      </trkpt>
      <trkpt lat="47.89982" lon="1.96604">
        <ele>143</ele>
        <time>2013-09-29T08:54:19.000Z</time>
      </trkpt>
      <trkpt lat="47.89982" lon="1.96604">
        <ele>143</ele>
        <time>2013-09-29T08:54:22.000Z</time>
      </trkpt>
      <trkpt lat="47.89982" lon="1.96604">
        <ele>143</ele>
        <time>2013-09-29T08:54:24.000Z</time>
      </trkpt>
      <trkpt lat="47.89977" lon="1.96516">
        <ele>143</ele>
        <time>2013-09-29T08:54:28.000Z</time>
      </trkpt>
      <trkpt lat="47.89976" lon="1.96499">
        <ele>142</ele>
        <time>2013-09-29T08:54:30.000Z</time>
      </trkpt>
      <trkpt lat="47.89973" lon="1.96483">
        <ele>142</ele>
        <time>2013-09-29T08:54:32.000Z</time>
      </trkpt>
      <trkpt lat="47.89973" lon="1.96464">
        <ele>139</ele>
        <time>2013-09-29T08:54:34.000Z</time>
      </trkpt>
      <trkpt lat="47.89973" lon="1.96447">
        <ele>139</ele>
        <time>2013-09-29T08:54:36.000Z</time>
      </trkpt>
      <trkpt lat="47.89973" lon="1.96432">
        <ele>139</ele>
        <time>2013-09-29T08:54:37.000Z</time>
      </trkpt>
      <trkpt lat="47.89973" lon="1.96432">
        <ele>139</ele>
        <time>2013-09-29T08:54:40.000Z</time>
      </trkpt>
      <trkpt lat="47.89973" lon="1.96432">
        <ele>139</ele>
        <time>2013-09-29T08:54:42.000Z</time>
      </trkpt>
      <trkpt lat="47.89973" lon="1.96432">
        <ele>139</ele>
        <time>2013-09-29T08:54:44.000Z</time>
      </trkpt>
      <trkpt lat="47.89973" lon="1.96432">
        <ele>139</ele>
        <time>2013-09-29T08:54:46.000Z</time>
      </trkpt>
      <trkpt lat="47.89973" lon="1.96432">
        <ele>139</ele>
        <time>2013-09-29T08:54:48.000Z</time>
      </trkpt>
      <trkpt lat="47.89958" lon="1.96325">
        <ele>140</ele>
        <time>2013-09-29T08:54:53.000Z</time>
      </trkpt>
      <trkpt lat="47.89959" lon="1.96311">
        <ele>139</ele>
        <time>2013-09-29T08:54:55.000Z</time>
      </trkpt>
      <trkpt lat="47.8996" lon="1.96295">
        <ele>138</ele>
        <time>2013-09-29T08:54:57.000Z</time>
      </trkpt>
      <trkpt lat="47.8996" lon="1.96295">
        <ele>138</ele>
        <time>2013-09-29T08:54:58.000Z</time>
      </trkpt>
      <trkpt lat="47.89961" lon="1.96266">
        <ele>138</ele>
        <time>2013-09-29T08:55:01.000Z</time>
      </trkpt>
      <trkpt lat="47.89962" lon="1.9625">
        <ele>138</ele>
        <time>2013-09-29T08:55:03.000Z</time>
      </trkpt>
      <trkpt lat="47.89962" lon="1.9625">
        <ele>138</ele>
        <time>2013-09-29T08:55:05.000Z</time>
      </trkpt>
      <trkpt lat="47.89962" lon="1.9625">
        <ele>138</ele>
        <time>2013-09-29T08:55:07.000Z</time>
      </trkpt>
      <trkpt lat="47.89962" lon="1.9625">
        <ele>138</ele>
        <time>2013-09-29T08:55:09.000Z</time>
      </trkpt>
      <trkpt lat="47.89962" lon="1.9625">
        <ele>138</ele>
        <time>2013-09-29T08:55:11.000Z</time>
      </trkpt>
      <trkpt lat="47.89962" lon="1.9625">
        <ele>138</ele>
        <time>2013-09-29T08:55:13.000Z</time>
      </trkpt>
      <trkpt lat="47.89962" lon="1.9625">
        <ele>138</ele>
        <time>2013-09-29T08:55:15.000Z</time>
      </trkpt>
      <trkpt lat="47.89962" lon="1.9625">
        <ele>138</ele>
        <time>2013-09-29T08:55:17.000Z</time>
      </trkpt>
      <trkpt lat="47.89962" lon="1.96192">
        <ele>136</ele>
        <time>2013-09-29T08:55:21.000Z</time>
      </trkpt>
      <trkpt lat="47.89959" lon="1.96156">
        <ele>139</ele>
        <time>2013-09-29T08:55:22.000Z</time>
      </trkpt>
      <trkpt lat="47.89957" lon="1.96133">
        <ele>141</ele>
        <time>2013-09-29T08:55:25.000Z</time>
      </trkpt>
      <trkpt lat="47.89957" lon="1.96133">
        <ele>141</ele>
        <time>2013-09-29T08:55:27.000Z</time>
      </trkpt>
      <trkpt lat="47.89957" lon="1.96133">
        <ele>141</ele>
        <time>2013-09-29T08:55:29.000Z</time>
      </trkpt>
      <trkpt lat="47.89957" lon="1.96133">
        <ele>141</ele>
        <time>2013-09-29T08:55:31.000Z</time>
      </trkpt>
      <trkpt lat="47.89957" lon="1.96133">
        <ele>141</ele>
        <time>2013-09-29T08:55:33.000Z</time>
      </trkpt>
      <trkpt lat="47.89957" lon="1.96133">
        <ele>141</ele>
        <time>2013-09-29T08:55:34.000Z</time>
      </trkpt>
      <trkpt lat="47.89957" lon="1.96133">
        <ele>141</ele>
        <time>2013-09-29T08:55:37.000Z</time>
      </trkpt>
      <trkpt lat="47.89957" lon="1.96133">
        <ele>141</ele>
        <time>2013-09-29T08:55:39.000Z</time>
      </trkpt>
      <trkpt lat="47.89957" lon="1.96133">
        <ele>141</ele>
        <time>2013-09-29T08:55:41.000Z</time>
      </trkpt>
      <trkpt lat="47.89957" lon="1.96133">
        <ele>141</ele>
        <time>2013-09-29T08:55:43.000Z</time>
      </trkpt>
      <trkpt lat="47.89962" lon="1.96057">
        <ele>150</ele>
        <time>2013-09-29T08:56:52.000Z</time>
      </trkpt>
      <trkpt lat="47.89965" lon="1.96041">
        <ele>149</ele>
        <time>2013-09-29T08:56:56.000Z</time>
      </trkpt>
      <trkpt lat="47.89965" lon="1.96023">
        <ele>149</ele>
        <time>2013-09-29T08:57:00.000Z</time>
      </trkpt>
      <trkpt lat="47.89965" lon="1.96023">
        <ele>149</ele>
        <time>2013-09-29T08:57:02.000Z</time>
      </trkpt>
      <trkpt lat="47.89965" lon="1.96023">
        <ele>149</ele>
        <time>2013-09-29T08:57:03.000Z</time>
      </trkpt>
      <trkpt lat="47.8997" lon="1.95991">
        <ele>148</ele>
        <time>2013-09-29T08:57:06.000Z</time>
      </trkpt>
      <trkpt lat="47.8997" lon="1.95976">
        <ele>147</ele>
        <time>2013-09-29T08:57:08.000Z</time>
      </trkpt>
      <trkpt lat="47.89974" lon="1.95964">
        <ele>148</ele>
        <time>2013-09-29T08:57:10.000Z</time>
      </trkpt>
      <trkpt lat="47.89979" lon="1.95935">
        <ele>152</ele>
        <time>2013-09-29T08:57:14.000Z</time>
      </trkpt>
      <trkpt lat="47.89983" lon="1.95923">
        <ele>151</ele>
        <time>2013-09-29T08:57:16.000Z</time>
      </trkpt>
      <trkpt lat="47.89985" lon="1.95909">
        <ele>152</ele>
        <time>2013-09-29T08:57:18.000Z</time>
      </trkpt>
      <trkpt lat="47.89986" lon="1.95895">
        <ele>151</ele>
        <time>2013-09-29T08:57:19.000Z</time>
      </trkpt>
      <trkpt lat="47.89989" lon="1.95882">
        <ele>152</ele>
        <time>2013-09-29T08:57:22.000Z</time>
      </trkpt>
      <trkpt lat="47.89992" lon="1.95867">
        <ele>151</ele>
        <time>2013-09-29T08:57:23.000Z</time>
      </trkpt>
      <trkpt lat="47.89994" lon="1.95852">
        <ele>150</ele>
        <time>2013-09-29T08:57:26.000Z</time>
      </trkpt>
      <trkpt lat="47.89997" lon="1.95838">
        <ele>150</ele>
        <time>2013-09-29T08:57:27.000Z</time>
      </trkpt>
      <trkpt lat="47.9" lon="1.95824">
        <ele>149</ele>
        <time>2013-09-29T08:57:30.000Z</time>
      </trkpt>
      <trkpt lat="47.90012" lon="1.958">
        <ele>148</ele>
        <time>2013-09-29T08:57:34.000Z</time>
      </trkpt>
      <trkpt lat="47.90017" lon="1.95787">
        <ele>149</ele>
        <time>2013-09-29T08:57:35.000Z</time>
      </trkpt>
      <trkpt lat="47.9002" lon="1.95772">
        <ele>148</ele>
        <time>2013-09-29T08:57:38.000Z</time>
      </trkpt>
      <trkpt lat="47.90025" lon="1.95754">
        <ele>148</ele>
        <time>2013-09-29T08:57:40.000Z</time>
      </trkpt>
      <trkpt lat="47.90028" lon="1.95737">
        <ele>147</ele>
        <time>2013-09-29T08:57:42.000Z</time>
      </trkpt>
      <trkpt lat="47.90032" lon="1.95724">
        <ele>148</ele>
        <time>2013-09-29T08:57:43.000Z</time>
      </trkpt>
      <trkpt lat="47.90035" lon="1.9571">
        <ele>148</ele>
        <time>2013-09-29T08:57:46.000Z</time>
      </trkpt>
      <trkpt lat="47.90039" lon="1.95694">
        <ele>147</ele>
        <time>2013-09-29T08:57:48.000Z</time>
      </trkpt>
      <trkpt lat="47.90041" lon="1.95676">
        <ele>147</ele>
        <time>2013-09-29T08:57:50.000Z</time>
      </trkpt>
      <trkpt lat="47.90043" lon="1.9566">
        <ele>147</ele>
        <time>2013-09-29T08:57:52.000Z</time>
      </trkpt>
      <trkpt lat="47.90046" lon="1.95643">
        <ele>146</ele>
        <time>2013-09-29T08:57:54.000Z</time>
      </trkpt>
      <trkpt lat="47.9005" lon="1.9563">
        <ele>146</ele>
        <time>2013-09-29T08:57:56.000Z</time>
      </trkpt>
      <trkpt lat="47.90054" lon="1.95616">
        <ele>147</ele>
        <time>2013-09-29T08:57:58.000Z</time>
      </trkpt>
      <trkpt lat="47.90054" lon="1.95616">
        <ele>147</ele>
        <time>2013-09-29T08:58:00.000Z</time>
      </trkpt>
      <trkpt lat="47.90054" lon="1.95616">
        <ele>147</ele>
        <time>2013-09-29T08:58:01.000Z</time>
      </trkpt>
      <trkpt lat="47.90054" lon="1.95616">
        <ele>147</ele>
        <time>2013-09-29T08:58:04.000Z</time>
      </trkpt>
      <trkpt lat="47.90054" lon="1.95616">
        <ele>147</ele>
        <time>2013-09-29T08:58:06.000Z</time>
      </trkpt>
      <trkpt lat="47.90054" lon="1.95616">
        <ele>147</ele>
        <time>2013-09-29T08:58:12.000Z</time>
      </trkpt>
      <trkpt lat="47.90054" lon="1.95616">
        <ele>147</ele>
        <time>2013-09-29T08:58:14.000Z</time>
      </trkpt>
      <trkpt lat="47.90054" lon="1.95616">
        <ele>147</ele>
        <time>2013-09-29T08:58:16.000Z</time>
      </trkpt>
      <trkpt lat="47.90054" lon="1.95616">
        <ele>147</ele>
        <time>2013-09-29T08:58:18.000Z</time>
      </trkpt>
      <trkpt lat="47.90054" lon="1.95616">
        <ele>147</ele>
        <time>2013-09-29T08:58:20.000Z</time>
      </trkpt>
      <trkpt lat="47.90054" lon="1.95616">
        <ele>147</ele>
        <time>2013-09-29T08:58:22.000Z</time>
      </trkpt>
      <trkpt lat="47.90086" lon="1.95487">
        <ele>146</ele>
        <time>2013-09-29T08:58:28.000Z</time>
      </trkpt>
      <trkpt lat="47.90086" lon="1.95487">
        <ele>146</ele>
        <time>2013-09-29T08:58:30.000Z</time>
      </trkpt>
      <trkpt lat="47.90098" lon="1.95466">
        <ele>145</ele>
        <time>2013-09-29T08:58:32.000Z</time>
      </trkpt>
      <trkpt lat="47.901" lon="1.95453">
        <ele>145</ele>
        <time>2013-09-29T08:58:34.000Z</time>
      </trkpt>
      <trkpt lat="47.90104" lon="1.9544">
        <ele>145</ele>
        <time>2013-09-29T08:58:36.000Z</time>
      </trkpt>
      <trkpt lat="47.90106" lon="1.95425">
        <ele>145</ele>
        <time>2013-09-29T08:58:38.000Z</time>
      </trkpt>
      <trkpt lat="47.90107" lon="1.95411">
        <ele>145</ele>
        <time>2013-09-29T08:58:40.000Z</time>
      </trkpt>
      <trkpt lat="47.90112" lon="1.9538">
        <ele>145</ele>
        <time>2013-09-29T08:58:44.000Z</time>
      </trkpt>
      <trkpt lat="47.90115" lon="1.95361">
        <ele>145</ele>
        <time>2013-09-29T08:58:46.000Z</time>
      </trkpt>
      <trkpt lat="47.90117" lon="1.95347">
        <ele>144</ele>
        <time>2013-09-29T08:58:48.000Z</time>
      </trkpt>
      <trkpt lat="47.90115" lon="1.95334">
        <ele>146</ele>
        <time>2013-09-29T08:58:50.000Z</time>
      </trkpt>
      <trkpt lat="47.90115" lon="1.95334">
        <ele>146</ele>
        <time>2013-09-29T08:58:52.000Z</time>
      </trkpt>
      <trkpt lat="47.90115" lon="1.95334">
        <ele>146</ele>
        <time>2013-09-29T08:58:54.000Z</time>
      </trkpt>
      <trkpt lat="47.90115" lon="1.95334">
        <ele>146</ele>
        <time>2013-09-29T08:58:56.000Z</time>
      </trkpt>
      <trkpt lat="47.90115" lon="1.95334">
        <ele>146</ele>
        <time>2013-09-29T08:58:58.000Z</time>
      </trkpt>
      <trkpt lat="47.90115" lon="1.95334">
        <ele>146</ele>
        <time>2013-09-29T08:59:00.000Z</time>
      </trkpt>
      <trkpt lat="47.90115" lon="1.95334">
        <ele>146</ele>
        <time>2013-09-29T08:59:06.000Z</time>
      </trkpt>
      <trkpt lat="47.90115" lon="1.95334">
        <ele>146</ele>
        <time>2013-09-29T08:59:08.000Z</time>
      </trkpt>
      <trkpt lat="47.90115" lon="1.95334">
        <ele>146</ele>
        <time>2013-09-29T08:59:09.000Z</time>
      </trkpt>
      <trkpt lat="47.9012" lon="1.9527">
        <ele>145</ele>
        <time>2013-09-29T08:59:16.000Z</time>
      </trkpt>
      <trkpt lat="47.90123" lon="1.95233">
        <ele>145</ele>
        <time>2013-09-29T08:59:18.000Z</time>
      </trkpt>
      <trkpt lat="47.90125" lon="1.9521">
        <ele>145</ele>
        <time>2013-09-29T08:59:20.000Z</time>
      </trkpt>
      <trkpt lat="47.90125" lon="1.9521">
        <ele>145</ele>
        <time>2013-09-29T08:59:22.000Z</time>
      </trkpt>
      <trkpt lat="47.90125" lon="1.9521">
        <ele>145</ele>
        <time>2013-09-29T08:59:24.000Z</time>
      </trkpt>
      <trkpt lat="47.90125" lon="1.9521">
        <ele>145</ele>
        <time>2013-09-29T08:59:26.000Z</time>
      </trkpt>
      <trkpt lat="47.90132" lon="1.95166">
        <ele>143</ele>
        <time>2013-09-29T09:02:54.000Z</time>
      </trkpt>
      <trkpt lat="47.90132" lon="1.95143">
        <ele>143</ele>
        <time>2013-09-29T09:02:59.000Z</time>
      </trkpt>
      <trkpt lat="47.90131" lon="1.95117">
        <ele>142</ele>
        <time>2013-09-29T09:03:03.000Z</time>
      </trkpt>
      <trkpt lat="47.90128" lon="1.95093">
        <ele>141</ele>
        <time>2013-09-29T09:03:07.000Z</time>
      </trkpt>
      <trkpt lat="47.90128" lon="1.9507">
        <ele>140</ele>
        <time>2013-09-29T09:03:11.000Z</time>
      </trkpt>
      <trkpt lat="47.90128" lon="1.9507">
        <ele>140</ele>
        <time>2013-09-29T09:03:13.000Z</time>
      </trkpt>
      <trkpt lat="47.90128" lon="1.9507">
        <ele>140</ele>
        <time>2013-09-29T09:03:15.000Z</time>
      </trkpt>
      <trkpt lat="47.90128" lon="1.9507">
        <ele>140</ele>
        <time>2013-09-29T09:03:17.000Z</time>
      </trkpt>
      <trkpt lat="47.90128" lon="1.9507">
        <ele>140</ele>
        <time>2013-09-29T09:03:19.000Z</time>
      </trkpt>
      <trkpt lat="47.90123" lon="1.94982">
        <ele>141</ele>
        <time>2013-09-29T09:03:25.000Z</time>
      </trkpt>
      <trkpt lat="47.9012" lon="1.94953">
        <ele>143</ele>
        <time>2013-09-29T09:03:29.000Z</time>
      </trkpt>
      <trkpt lat="47.90118" lon="1.94929">
        <ele>144</ele>
        <time>2013-09-29T09:03:33.000Z</time>
      </trkpt>
      <trkpt lat="47.90118" lon="1.94929">
        <ele>144</ele>
        <time>2013-09-29T09:03:34.000Z</time>
      </trkpt>
      <trkpt lat="47.90121" lon="1.94897">
        <ele>144</ele>
        <time>2013-09-29T09:03:37.000Z</time>
      </trkpt>
      <trkpt lat="47.90121" lon="1.94897">
        <ele>144</ele>
        <time>2013-09-29T09:03:39.000Z</time>
      </trkpt>
      <trkpt lat="47.9012" lon="1.94869">
        <ele>143</ele>
        <time>2013-09-29T09:03:41.000Z</time>
      </trkpt>
      <trkpt lat="47.9012" lon="1.94853">
        <ele>143</ele>
        <time>2013-09-29T09:03:43.000Z</time>
      </trkpt>
      <trkpt lat="47.90121" lon="1.94838">
        <ele>142</ele>
        <time>2013-09-29T09:03:45.000Z</time>
      </trkpt>
      <trkpt lat="47.9012" lon="1.94822">
        <ele>142</ele>
        <time>2013-09-29T09:03:47.000Z</time>
      </trkpt>
      <trkpt lat="47.90113" lon="1.94792">
        <ele>142</ele>
        <time>2013-09-29T09:03:51.000Z</time>
      </trkpt>
      <trkpt lat="47.90112" lon="1.94777">
        <ele>142</ele>
        <time>2013-09-29T09:03:53.000Z</time>
      </trkpt>
      <trkpt lat="47.90109" lon="1.94761">
        <ele>142</ele>
        <time>2013-09-29T09:03:55.000Z</time>
      </trkpt>
      <trkpt lat="47.90105" lon="1.94733">
        <ele>143</ele>
        <time>2013-09-29T09:03:59.000Z</time>
      </trkpt>
      <trkpt lat="47.901" lon="1.94698">
        <ele>144</ele>
        <time>2013-09-29T09:04:03.000Z</time>
      </trkpt>
      <trkpt lat="47.90096" lon="1.94663">
        <ele>144</ele>
        <time>2013-09-29T09:04:07.000Z</time>
      </trkpt>
      <trkpt lat="47.90093" lon="1.94645">
        <ele>142</ele>
        <time>2013-09-29T09:04:09.000Z</time>
      </trkpt>
      <trkpt lat="47.9009" lon="1.9463">
        <ele>141</ele>
        <time>2013-09-29T09:04:11.000Z</time>
      </trkpt>
      <trkpt lat="47.90088" lon="1.94614">
        <ele>141</ele>
        <time>2013-09-29T09:04:13.000Z</time>
      </trkpt>
      <trkpt lat="47.90085" lon="1.946">
        <ele>142</ele>
        <time>2013-09-29T09:04:14.000Z</time>
      </trkpt>
      <trkpt lat="47.90084" lon="1.94583">
        <ele>142</ele>
        <time>2013-09-29T09:04:17.000Z</time>
      </trkpt>
      <trkpt lat="47.90084" lon="1.94583">
        <ele>142</ele>
        <time>2013-09-29T09:04:18.000Z</time>
      </trkpt>
      <trkpt lat="47.9008" lon="1.94549">
        <ele>142</ele>
        <time>2013-09-29T09:04:20.000Z</time>
      </trkpt>
      <trkpt lat="47.90077" lon="1.94534">
        <ele>142</ele>
        <time>2013-09-29T09:04:23.000Z</time>
      </trkpt>
      <trkpt lat="47.90075" lon="1.94518">
        <ele>142</ele>
        <time>2013-09-29T09:04:25.000Z</time>
      </trkpt>
      <trkpt lat="47.90072" lon="1.94502">
        <ele>142</ele>
        <time>2013-09-29T09:04:27.000Z</time>
      </trkpt>
      <trkpt lat="47.90068" lon="1.94481">
        <ele>142</ele>
        <time>2013-09-29T09:04:29.000Z</time>
      </trkpt>
      <trkpt lat="47.90063" lon="1.94464">
        <ele>142</ele>
        <time>2013-09-29T09:04:31.000Z</time>
      </trkpt>
      <trkpt lat="47.90059" lon="1.94446">
        <ele>142</ele>
        <time>2013-09-29T09:04:33.000Z</time>
      </trkpt>
      <trkpt lat="47.90055" lon="1.94426">
        <ele>142</ele>
        <time>2013-09-29T09:04:35.000Z</time>
      </trkpt>
      <trkpt lat="47.90052" lon="1.94411">
        <ele>142</ele>
        <time>2013-09-29T09:04:37.000Z</time>
      </trkpt>
      <trkpt lat="47.90048" lon="1.94394">
        <ele>143</ele>
        <time>2013-09-29T09:04:39.000Z</time>
      </trkpt>
      <trkpt lat="47.90046" lon="1.94378">
        <ele>143</ele>
        <time>2013-09-29T09:04:41.000Z</time>
      </trkpt>
      <trkpt lat="47.90042" lon="1.94362">
        <ele>143</ele>
        <time>2013-09-29T09:04:42.000Z</time>
      </trkpt>
      <trkpt lat="47.9004" lon="1.94346">
        <ele>142</ele>
        <time>2013-09-29T09:04:45.000Z</time>
      </trkpt>
      <trkpt lat="47.90039" lon="1.94331">
        <ele>142</ele>
        <time>2013-09-29T09:04:47.000Z</time>
      </trkpt>
      <trkpt lat="47.90039" lon="1.94331">
        <ele>142</ele>
        <time>2013-09-29T09:04:49.000Z</time>
      </trkpt>
      <trkpt lat="47.90039" lon="1.94331">
        <ele>142</ele>
        <time>2013-09-29T09:04:50.000Z</time>
      </trkpt>
      <trkpt lat="47.90039" lon="1.94331">
        <ele>142</ele>
        <time>2013-09-29T09:04:53.000Z</time>
      </trkpt>
      <trkpt lat="47.90039" lon="1.94331">
        <ele>142</ele>
        <time>2013-09-29T09:04:54.000Z</time>
      </trkpt>
      <trkpt lat="47.90039" lon="1.94331">
        <ele>142</ele>
        <time>2013-09-29T09:04:57.000Z</time>
      </trkpt>
      <trkpt lat="47.90039" lon="1.94331">
        <ele>142</ele>
        <time>2013-09-29T09:04:59.000Z</time>
      </trkpt>
      <trkpt lat="47.90039" lon="1.94331">
        <ele>142</ele>
        <time>2013-09-29T09:05:01.000Z</time>
      </trkpt>
      <trkpt lat="47.90039" lon="1.94331">
        <ele>142</ele>
        <time>2013-09-29T09:05:02.000Z</time>
      </trkpt>
      <trkpt lat="47.90039" lon="1.94331">
        <ele>142</ele>
        <time>2013-09-29T09:05:05.000Z</time>
      </trkpt>
      <trkpt lat="47.90039" lon="1.94331">
        <ele>142</ele>
        <time>2013-09-29T09:05:06.000Z</time>
      </trkpt>
      <trkpt lat="47.90039" lon="1.94331">
        <ele>142</ele>
        <time>2013-09-29T09:05:09.000Z</time>
      </trkpt>
      <trkpt lat="47.9003" lon="1.9427">
        <ele>143</ele>
        <time>2013-09-29T09:05:13.000Z</time>
      </trkpt>
      <trkpt lat="47.90025" lon="1.94236">
        <ele>144</ele>
        <time>2013-09-29T09:05:15.000Z</time>
      </trkpt>
      <trkpt lat="47.9002" lon="1.94216">
        <ele>144</ele>
        <time>2013-09-29T09:05:17.000Z</time>
      </trkpt>
      <trkpt lat="47.9002" lon="1.94216">
        <ele>144</ele>
        <time>2013-09-29T09:05:19.000Z</time>
      </trkpt>
      <trkpt lat="47.9002" lon="1.94216">
        <ele>144</ele>
        <time>2013-09-29T09:05:21.000Z</time>
      </trkpt>
      <trkpt lat="47.90014" lon="1.94193">
        <ele>145</ele>
        <time>2013-09-29T09:05:22.000Z</time>
      </trkpt>
      <trkpt lat="47.90008" lon="1.94176">
        <ele>145</ele>
        <time>2013-09-29T09:05:25.000Z</time>
      </trkpt>
      <trkpt lat="47.90004" lon="1.94164">
        <ele>145</ele>
        <time>2013-09-29T09:05:27.000Z</time>
      </trkpt>
      <trkpt lat="47.9" lon="1.94154">
        <ele>145</ele>
        <time>2013-09-29T09:05:28.000Z</time>
      </trkpt>
      <trkpt lat="47.89997" lon="1.94146">
        <ele>145</ele>
        <time>2013-09-29T09:05:31.000Z</time>
      </trkpt>
      <trkpt lat="47.89997" lon="1.94146">
        <ele>145</ele>
        <time>2013-09-29T09:05:33.000Z</time>
      </trkpt>
      <trkpt lat="47.89997" lon="1.94146">
        <ele>145</ele>
        <time>2013-09-29T09:05:35.000Z</time>
      </trkpt>
      <trkpt lat="47.89997" lon="1.94146">
        <ele>145</ele>
        <time>2013-09-29T09:05:37.000Z</time>
      </trkpt>
      <trkpt lat="47.89997" lon="1.94146">
        <ele>145</ele>
        <time>2013-09-29T09:05:39.000Z</time>
      </trkpt>
      <trkpt lat="47.89997" lon="1.94146">
        <ele>145</ele>
        <time>2013-09-29T09:05:41.000Z</time>
      </trkpt>
      <trkpt lat="47.89969" lon="1.94092">
        <ele>147</ele>
        <time>2013-09-29T09:05:47.000Z</time>
      </trkpt>
      <trkpt lat="47.89961" lon="1.94074">
        <ele>146</ele>
        <time>2013-09-29T09:05:51.000Z</time>
      </trkpt>
      <trkpt lat="47.89954" lon="1.94058">
        <ele>146</ele>
        <time>2013-09-29T09:05:55.000Z</time>
      </trkpt>
      <trkpt lat="47.89947" lon="1.94043">
        <ele>146</ele>
        <time>2013-09-29T09:05:59.000Z</time>
      </trkpt>
      <trkpt lat="47.89947" lon="1.94043">
        <ele>146</ele>
        <time>2013-09-29T09:06:00.000Z</time>
      </trkpt>
      <trkpt lat="47.89947" lon="1.94043">
        <ele>146</ele>
        <time>2013-09-29T09:06:03.000Z</time>
      </trkpt>
      <trkpt lat="47.89947" lon="1.94043">
        <ele>146</ele>
        <time>2013-09-29T09:06:05.000Z</time>
      </trkpt>
      <trkpt lat="47.89947" lon="1.94043">
        <ele>146</ele>
        <time>2013-09-29T09:06:06.000Z</time>
      </trkpt>
      <trkpt lat="47.89947" lon="1.94043">
        <ele>146</ele>
        <time>2013-09-29T09:06:09.000Z</time>
      </trkpt>
      <trkpt lat="47.89947" lon="1.94043">
        <ele>146</ele>
        <time>2013-09-29T09:06:10.000Z</time>
      </trkpt>
      <trkpt lat="47.89947" lon="1.94043">
        <ele>146</ele>
        <time>2013-09-29T09:06:13.000Z</time>
      </trkpt>
      <trkpt lat="47.89947" lon="1.94043">
        <ele>146</ele>
        <time>2013-09-29T09:06:15.000Z</time>
      </trkpt>
      <trkpt lat="47.89919" lon="1.93951">
        <ele>143</ele>
        <time>2013-09-29T09:06:19.000Z</time>
      </trkpt>
      <trkpt lat="47.89913" lon="1.93937">
        <ele>144</ele>
        <time>2013-09-29T09:06:21.000Z</time>
      </trkpt>
      <trkpt lat="47.89907" lon="1.93918">
        <ele>143</ele>
        <time>2013-09-29T09:06:25.000Z</time>
      </trkpt>
      <trkpt lat="47.89901" lon="1.93897">
        <ele>142</ele>
        <time>2013-09-29T09:06:29.000Z</time>
      </trkpt>
      <trkpt lat="47.89893" lon="1.93876">
        <ele>141</ele>
        <time>2013-09-29T09:06:33.000Z</time>
      </trkpt>
      <trkpt lat="47.89893" lon="1.93876">
        <ele>141</ele>
        <time>2013-09-29T09:06:34.000Z</time>
      </trkpt>
      <trkpt lat="47.89888" lon="1.93853">
        <ele>141</ele>
        <time>2013-09-29T09:06:37.000Z</time>
      </trkpt>
      <trkpt lat="47.89888" lon="1.93853">
        <ele>141</ele>
        <time>2013-09-29T09:06:38.000Z</time>
      </trkpt>
      <trkpt lat="47.89877" lon="1.93816">
        <ele>141</ele>
        <time>2013-09-29T09:06:43.000Z</time>
      </trkpt>
      <trkpt lat="47.89871" lon="1.93805">
        <ele>143</ele>
        <time>2013-09-29T09:06:45.000Z</time>
      </trkpt>
      <trkpt lat="47.89863" lon="1.93781">
        <ele>143</ele>
        <time>2013-09-29T09:06:49.000Z</time>
      </trkpt>
      <trkpt lat="47.89857" lon="1.93757">
        <ele>141</ele>
        <time>2013-09-29T09:06:53.000Z</time>
      </trkpt>
      <trkpt lat="47.89857" lon="1.93757">
        <ele>141</ele>
        <time>2013-09-29T09:06:54.000Z</time>
      </trkpt>
      <trkpt lat="47.89857" lon="1.93757">
        <ele>141</ele>
        <time>2013-09-29T09:06:57.000Z</time>
      </trkpt>
      <trkpt lat="47.89857" lon="1.93757">
        <ele>141</ele>
        <time>2013-09-29T09:06:59.000Z</time>
      </trkpt>
      <trkpt lat="47.89857" lon="1.93757">
        <ele>141</ele>
        <time>2013-09-29T09:07:01.000Z</time>
      </trkpt>
      <trkpt lat="47.89849" lon="1.93726">
        <ele>142</ele>
        <time>2013-09-29T09:07:03.000Z</time>
      </trkpt>
      <trkpt lat="47.89845" lon="1.93703">
        <ele>142</ele>
        <time>2013-09-29T09:07:05.000Z</time>
      </trkpt>
      <trkpt lat="47.89841" lon="1.93686">
        <ele>143</ele>
        <time>2013-09-29T09:07:06.000Z</time>
      </trkpt>
      <trkpt lat="47.89839" lon="1.9367">
        <ele>143</ele>
        <time>2013-09-29T09:07:09.000Z</time>
      </trkpt>
      <trkpt lat="47.89837" lon="1.93654">
        <ele>143</ele>
        <time>2013-09-29T09:07:11.000Z</time>
      </trkpt>
      <trkpt lat="47.89833" lon="1.93623">
        <ele>141</ele>
        <time>2013-09-29T09:07:13.000Z</time>
      </trkpt>
      <trkpt lat="47.89833" lon="1.9361">
        <ele>141</ele>
        <time>2013-09-29T09:07:14.000Z</time>
      </trkpt>
      <trkpt lat="47.89833" lon="1.9361">
        <ele>141</ele>
        <time>2013-09-29T09:07:17.000Z</time>
      </trkpt>
      <trkpt lat="47.89833" lon="1.9361">
        <ele>141</ele>
        <time>2013-09-29T09:07:18.000Z</time>
      </trkpt>
      <trkpt lat="47.89833" lon="1.9361">
        <ele>141</ele>
        <time>2013-09-29T09:07:21.000Z</time>
      </trkpt>
      <trkpt lat="47.89833" lon="1.9361">
        <ele>141</ele>
        <time>2013-09-29T09:07:23.000Z</time>
      </trkpt>
      <trkpt lat="47.89833" lon="1.9361">
        <ele>141</ele>
        <time>2013-09-29T09:07:25.000Z</time>
      </trkpt>
      <trkpt lat="47.89833" lon="1.9361">
        <ele>141</ele>
        <time>2013-09-29T09:07:27.000Z</time>
      </trkpt>
      <trkpt lat="47.89833" lon="1.9361">
        <ele>141</ele>
        <time>2013-09-29T09:07:29.000Z</time>
      </trkpt>
      <trkpt lat="47.89833" lon="1.9361">
        <ele>141</ele>
        <time>2013-09-29T09:07:31.000Z</time>
      </trkpt>
      <trkpt lat="47.89833" lon="1.9361">
        <ele>141</ele>
        <time>2013-09-29T09:07:32.000Z</time>
      </trkpt>
      <trkpt lat="47.89833" lon="1.9361">
        <ele>141</ele>
        <time>2013-09-29T09:07:35.000Z</time>
      </trkpt>
      <trkpt lat="47.89833" lon="1.9361">
        <ele>141</ele>
        <time>2013-09-29T09:07:37.000Z</time>
      </trkpt>
      <trkpt lat="47.89828" lon="1.93432">
        <ele>144</ele>
        <time>2013-09-29T09:07:43.000Z</time>
      </trkpt>
      <trkpt lat="47.89828" lon="1.9341">
        <ele>142</ele>
        <time>2013-09-29T09:07:47.000Z</time>
      </trkpt>
      <trkpt lat="47.89828" lon="1.93395">
        <ele>142</ele>
        <time>2013-09-29T09:07:49.000Z</time>
      </trkpt>
      <trkpt lat="47.89827" lon="1.9338">
        <ele>142</ele>
        <time>2013-09-29T09:07:51.000Z</time>
      </trkpt>
      <trkpt lat="47.89822" lon="1.93354">
        <ele>142</ele>
        <time>2013-09-29T09:07:55.000Z</time>
      </trkpt>
      <trkpt lat="47.89816" lon="1.9334">
        <ele>141</ele>
        <time>2013-09-29T09:07:57.000Z</time>
      </trkpt>
      <trkpt lat="47.89816" lon="1.9334">
        <ele>141</ele>
        <time>2013-09-29T09:07:59.000Z</time>
      </trkpt>
      <trkpt lat="47.89806" lon="1.93315">
        <ele>140</ele>
        <time>2013-09-29T09:08:01.000Z</time>
      </trkpt>
      <trkpt lat="47.89801" lon="1.93301">
        <ele>140</ele>
        <time>2013-09-29T09:08:03.000Z</time>
      </trkpt>
      <trkpt lat="47.89797" lon="1.93287">
        <ele>141</ele>
        <time>2013-09-29T09:08:04.000Z</time>
      </trkpt>
      <trkpt lat="47.89793" lon="1.93272">
        <ele>141</ele>
        <time>2013-09-29T09:08:07.000Z</time>
      </trkpt>
      <trkpt lat="47.89787" lon="1.9326">
        <ele>142</ele>
        <time>2013-09-29T09:08:09.000Z</time>
      </trkpt>
      <trkpt lat="47.89787" lon="1.9326">
        <ele>142</ele>
        <time>2013-09-29T09:08:10.000Z</time>
      </trkpt>
      <trkpt lat="47.89779" lon="1.93235">
        <ele>143</ele>
        <time>2013-09-29T09:08:13.000Z</time>
      </trkpt>
      <trkpt lat="47.89779" lon="1.93235">
        <ele>143</ele>
        <time>2013-09-29T09:08:15.000Z</time>
      </trkpt>
      <trkpt lat="47.89766" lon="1.93193">
        <ele>143</ele>
        <time>2013-09-29T09:08:19.000Z</time>
      </trkpt>
      <trkpt lat="47.89759" lon="1.93169">
        <ele>143</ele>
        <time>2013-09-29T09:08:23.000Z</time>
      </trkpt>
      <trkpt lat="47.89759" lon="1.93169">
        <ele>143</ele>
        <time>2013-09-29T09:08:25.000Z</time>
      </trkpt>
      <trkpt lat="47.89748" lon="1.93122">
        <ele>144</ele>
        <time>2013-09-29T09:08:29.000Z</time>
      </trkpt>
      <trkpt lat="47.89742" lon="1.93107">
        <ele>143</ele>
        <time>2013-09-29T09:08:31.000Z</time>
      </trkpt>
      <trkpt lat="47.89735" lon="1.9308">
        <ele>144</ele>
        <time>2013-09-29T09:08:35.000Z</time>
      </trkpt>
      <trkpt lat="47.89735" lon="1.9308">
        <ele>144</ele>
        <time>2013-09-29T09:08:37.000Z</time>
      </trkpt>
      <trkpt lat="47.89735" lon="1.9308">
        <ele>144</ele>
        <time>2013-09-29T09:08:39.000Z</time>
      </trkpt>
      <trkpt lat="47.89721" lon="1.93022">
        <ele>146</ele>
        <time>2013-09-29T09:08:43.000Z</time>
      </trkpt>
      <trkpt lat="47.89716" lon="1.93006">
        <ele>146</ele>
        <time>2013-09-29T09:08:45.000Z</time>
      </trkpt>
      <trkpt lat="47.89711" lon="1.92991">
        <ele>147</ele>
        <time>2013-09-29T09:08:47.000Z</time>
      </trkpt>
      <trkpt lat="47.89707" lon="1.92976">
        <ele>146</ele>
        <time>2013-09-29T09:08:49.000Z</time>
      </trkpt>
      <trkpt lat="47.89701" lon="1.92961">
        <ele>146</ele>
        <time>2013-09-29T09:08:51.000Z</time>
      </trkpt>
      <trkpt lat="47.89696" lon="1.92948">
        <ele>147</ele>
        <time>2013-09-29T09:08:53.000Z</time>
      </trkpt>
      <trkpt lat="47.8969" lon="1.92935">
        <ele>147</ele>
        <time>2013-09-29T09:08:55.000Z</time>
      </trkpt>
      <trkpt lat="47.89684" lon="1.92922">
        <ele>147</ele>
        <time>2013-09-29T09:08:57.000Z</time>
      </trkpt>
      <trkpt lat="47.89679" lon="1.92909">
        <ele>145</ele>
        <time>2013-09-29T09:08:59.000Z</time>
      </trkpt>
      <trkpt lat="47.89672" lon="1.92896">
        <ele>145</ele>
        <time>2013-09-29T09:09:01.000Z</time>
      </trkpt>
      <trkpt lat="47.89672" lon="1.92896">
        <ele>145</ele>
        <time>2013-09-29T09:09:03.000Z</time>
      </trkpt>
      <trkpt lat="47.89672" lon="1.92896">
        <ele>145</ele>
        <time>2013-09-29T09:09:05.000Z</time>
      </trkpt>
      <trkpt lat="47.89672" lon="1.92896">
        <ele>145</ele>
        <time>2013-09-29T09:09:07.000Z</time>
      </trkpt>
      <trkpt lat="47.89672" lon="1.92896">
        <ele>145</ele>
        <time>2013-09-29T09:09:09.000Z</time>
      </trkpt>
      <trkpt lat="47.89672" lon="1.92896">
        <ele>145</ele>
        <time>2013-09-29T09:09:11.000Z</time>
      </trkpt>
      <trkpt lat="47.89672" lon="1.92896">
        <ele>145</ele>
        <time>2013-09-29T09:09:13.000Z</time>
      </trkpt>
      <trkpt lat="47.89672" lon="1.92896">
        <ele>145</ele>
        <time>2013-09-29T09:09:15.000Z</time>
      </trkpt>
      <trkpt lat="47.89672" lon="1.92896">
        <ele>145</ele>
        <time>2013-09-29T09:09:17.000Z</time>
      </trkpt>
      <trkpt lat="47.89672" lon="1.92896">
        <ele>145</ele>
        <time>2013-09-29T09:09:19.000Z</time>
      </trkpt>
      <trkpt lat="47.89644" lon="1.92833">
        <ele>143</ele>
        <time>2013-09-29T09:09:23.000Z</time>
      </trkpt>
      <trkpt lat="47.89627" lon="1.92794">
        <ele>143</ele>
        <time>2013-09-29T09:09:24.000Z</time>
      </trkpt>
      <trkpt lat="47.89616" lon="1.92768">
        <ele>143</ele>
        <time>2013-09-29T09:09:27.000Z</time>
      </trkpt>
      <trkpt lat="47.89607" lon="1.9275">
        <ele>143</ele>
        <time>2013-09-29T09:09:29.000Z</time>
      </trkpt>
      <trkpt lat="47.89599" lon="1.92734">
        <ele>144</ele>
        <time>2013-09-29T09:09:31.000Z</time>
      </trkpt>
      <trkpt lat="47.89583" lon="1.92703">
        <ele>143</ele>
        <time>2013-09-29T09:09:33.000Z</time>
      </trkpt>
      <trkpt lat="47.89575" lon="1.92691">
        <ele>142</ele>
        <time>2013-09-29T09:09:35.000Z</time>
      </trkpt>
      <trkpt lat="47.89569" lon="1.92679">
        <ele>143</ele>
        <time>2013-09-29T09:09:37.000Z</time>
      </trkpt>
      <trkpt lat="47.89569" lon="1.92679">
        <ele>143</ele>
        <time>2013-09-29T09:09:38.000Z</time>
      </trkpt>
      <trkpt lat="47.89569" lon="1.92679">
        <ele>143</ele>
        <time>2013-09-29T09:09:41.000Z</time>
      </trkpt>
      <trkpt lat="47.89569" lon="1.92679">
        <ele>143</ele>
        <time>2013-09-29T09:09:43.000Z</time>
      </trkpt>
      <trkpt lat="47.89569" lon="1.92679">
        <ele>143</ele>
        <time>2013-09-29T09:09:45.000Z</time>
      </trkpt>
      <trkpt lat="47.89569" lon="1.92679">
        <ele>143</ele>
        <time>2013-09-29T09:09:47.000Z</time>
      </trkpt>
      <trkpt lat="47.89526" lon="1.92689">
        <ele>147</ele>
        <time>2013-09-29T09:09:53.000Z</time>
      </trkpt>
      <trkpt lat="47.89526" lon="1.92689">
        <ele>147</ele>
        <time>2013-09-29T09:09:54.000Z</time>
      </trkpt>
      <trkpt lat="47.89523" lon="1.92708">
        <ele>147</ele>
        <time>2013-09-29T09:09:57.000Z</time>
      </trkpt>
      <trkpt lat="47.89523" lon="1.92708">
        <ele>147</ele>
        <time>2013-09-29T09:10:00.000Z</time>
      </trkpt>
      <trkpt lat="47.8952" lon="1.92748">
        <ele>149</ele>
        <time>2013-09-29T09:10:02.000Z</time>
      </trkpt>
      <trkpt lat="47.8952" lon="1.92766">
        <ele>148</ele>
        <time>2013-09-29T09:10:04.000Z</time>
      </trkpt>
      <trkpt lat="47.89511" lon="1.92779">
        <ele>145</ele>
        <time>2013-09-29T09:10:06.000Z</time>
      </trkpt>
      <trkpt lat="47.89511" lon="1.92794">
        <ele>145</ele>
        <time>2013-09-29T09:10:08.000Z</time>
      </trkpt>
      <trkpt lat="47.8951" lon="1.92809">
        <ele>147</ele>
        <time>2013-09-29T09:10:10.000Z</time>
      </trkpt>
      <trkpt lat="47.89509" lon="1.92827">
        <ele>147</ele>
        <time>2013-09-29T09:10:11.000Z</time>
      </trkpt>
      <trkpt lat="47.89508" lon="1.92841">
        <ele>147</ele>
        <time>2013-09-29T09:10:14.000Z</time>
      </trkpt>
      <trkpt lat="47.89508" lon="1.92841">
        <ele>147</ele>
        <time>2013-09-29T09:10:16.000Z</time>
      </trkpt>
      <trkpt lat="47.89508" lon="1.92841">
        <ele>147</ele>
        <time>2013-09-29T09:10:18.000Z</time>
      </trkpt>
      <trkpt lat="47.89508" lon="1.92841">
        <ele>147</ele>
        <time>2013-09-29T09:10:20.000Z</time>
      </trkpt>
      <trkpt lat="47.89508" lon="1.92841">
        <ele>147</ele>
        <time>2013-09-29T09:10:22.000Z</time>
      </trkpt>
      <trkpt lat="47.89508" lon="1.92841">
        <ele>147</ele>
        <time>2013-09-29T09:10:24.000Z</time>
      </trkpt>
      <trkpt lat="47.89508" lon="1.92841">
        <ele>147</ele>
        <time>2013-09-29T09:10:27.000Z</time>
      </trkpt>
      <trkpt lat="47.89566" lon="1.92886">
        <ele>153</ele>
        <time>2013-09-29T09:10:31.000Z</time>
      </trkpt>
      <trkpt lat="47.89566" lon="1.92886">
        <ele>153</ele>
        <time>2013-09-29T09:10:33.000Z</time>
      </trkpt>
      <trkpt lat="47.89566" lon="1.92886">
        <ele>153</ele>
        <time>2013-09-29T09:10:35.000Z</time>
      </trkpt>
      <trkpt lat="47.89566" lon="1.92886">
        <ele>153</ele>
        <time>2013-09-29T09:10:37.000Z</time>
      </trkpt>
      <trkpt lat="47.89566" lon="1.92886">
        <ele>153</ele>
        <time>2013-09-29T09:10:39.000Z</time>
      </trkpt>
      <trkpt lat="47.89566" lon="1.92886">
        <ele>153</ele>
        <time>2013-09-29T09:10:40.000Z</time>
      </trkpt>
      <trkpt lat="47.89566" lon="1.92886">
        <ele>153</ele>
        <time>2013-09-29T09:10:43.000Z</time>
      </trkpt>
      <trkpt lat="47.89566" lon="1.92886">
        <ele>153</ele>
        <time>2013-09-29T09:10:45.000Z</time>
      </trkpt>
      <trkpt lat="47.89566" lon="1.92886">
        <ele>153</ele>
        <time>2013-09-29T09:10:47.000Z</time>
      </trkpt>
      <trkpt lat="47.89566" lon="1.92886">
        <ele>153</ele>
        <time>2013-09-29T09:10:49.000Z</time>
      </trkpt>
      <trkpt lat="47.89566" lon="1.92886">
        <ele>153</ele>
        <time>2013-09-29T09:10:51.000Z</time>
      </trkpt>
      <trkpt lat="47.89566" lon="1.92886">
        <ele>153</ele>
        <time>2013-09-29T09:10:53.000Z</time>
      </trkpt>
      <trkpt lat="47.89566" lon="1.92886">
        <ele>153</ele>
        <time>2013-09-29T09:10:55.000Z</time>
      </trkpt>
      <trkpt lat="47.89566" lon="1.92886">
        <ele>153</ele>
        <time>2013-09-29T09:10:57.000Z</time>
      </trkpt>
      <trkpt lat="47.89599" lon="1.92885">
        <ele>146</ele>
        <time>2013-09-29T09:11:04.000Z</time>
      </trkpt>
      <trkpt lat="47.89612" lon="1.92888">
        <ele>146</ele>
        <time>2013-09-29T09:11:06.000Z</time>
      </trkpt>
      <trkpt lat="47.89617" lon="1.92891">
        <ele>147</ele>
        <time>2013-09-29T09:11:08.000Z</time>
      </trkpt>
      <trkpt lat="47.89617" lon="1.92891">
        <ele>147</ele>
        <time>2013-09-29T09:11:10.000Z</time>
      </trkpt>
      <trkpt lat="47.89614" lon="1.92899">
        <ele>149</ele>
        <time>2013-09-29T09:11:12.000Z</time>
      </trkpt>
      <trkpt lat="47.89613" lon="1.92911">
        <ele>147</ele>
        <time>2013-09-29T09:11:13.000Z</time>
      </trkpt>
      <trkpt lat="47.89612" lon="1.92922">
        <ele>148</ele>
        <time>2013-09-29T09:11:16.000Z</time>
      </trkpt>
      <trkpt lat="47.89611" lon="1.92933">
        <ele>148</ele>
        <time>2013-09-29T09:11:17.000Z</time>
      </trkpt>
      <trkpt lat="47.89611" lon="1.92946">
        <ele>149</ele>
        <time>2013-09-29T09:11:20.000Z</time>
      </trkpt>
      <trkpt lat="47.89606" lon="1.92974">
        <ele>147</ele>
        <time>2013-09-29T09:11:22.000Z</time>
      </trkpt>
      <trkpt lat="47.89603" lon="1.92989">
        <ele>147</ele>
        <time>2013-09-29T09:11:24.000Z</time>
      </trkpt>
      <trkpt lat="47.896" lon="1.93003">
        <ele>147</ele>
        <time>2013-09-29T09:11:26.000Z</time>
      </trkpt>
      <trkpt lat="47.89597" lon="1.93016">
        <ele>147</ele>
        <time>2013-09-29T09:11:28.000Z</time>
      </trkpt>
      <trkpt lat="47.89597" lon="1.93016">
        <ele>147</ele>
        <time>2013-09-29T09:11:30.000Z</time>
      </trkpt>
      <trkpt lat="47.89597" lon="1.93016">
        <ele>147</ele>
        <time>2013-09-29T09:11:32.000Z</time>
      </trkpt>
      <trkpt lat="47.89597" lon="1.93016">
        <ele>147</ele>
        <time>2013-09-29T09:11:34.000Z</time>
      </trkpt>
      <trkpt lat="47.89597" lon="1.93016">
        <ele>147</ele>
        <time>2013-09-29T09:11:36.000Z</time>
      </trkpt>
      <trkpt lat="47.89597" lon="1.93016">
        <ele>147</ele>
        <time>2013-09-29T09:11:38.000Z</time>
      </trkpt>
      <trkpt lat="47.89597" lon="1.93016">
        <ele>147</ele>
        <time>2013-09-29T09:11:41.000Z</time>
      </trkpt>
      <trkpt lat="47.89597" lon="1.93016">
        <ele>147</ele>
        <time>2013-09-29T09:11:44.000Z</time>
      </trkpt>
      <trkpt lat="47.89597" lon="1.93016">
        <ele>147</ele>
        <time>2013-09-29T09:11:46.000Z</time>
      </trkpt>
      <trkpt lat="47.89597" lon="1.93016">
        <ele>147</ele>
        <time>2013-09-29T09:11:48.000Z</time>
      </trkpt>
      <trkpt lat="47.89597" lon="1.93016">
        <ele>147</ele>
        <time>2013-09-29T09:11:50.000Z</time>
      </trkpt>
      <trkpt lat="47.89597" lon="1.93016">
        <ele>147</ele>
        <time>2013-09-29T09:11:52.000Z</time>
      </trkpt>
      <trkpt lat="47.89597" lon="1.93016">
        <ele>147</ele>
        <time>2013-09-29T09:11:54.000Z</time>
      </trkpt>
      <trkpt lat="47.89532" lon="1.93123">
        <ele>148</ele>
        <time>2013-09-29T09:11:58.000Z</time>
      </trkpt>
      <trkpt lat="47.89523" lon="1.93131">
        <ele>147</ele>
        <time>2013-09-29T09:12:02.000Z</time>
      </trkpt>
      <trkpt lat="47.89513" lon="1.93117">
        <ele>144</ele>
        <time>2013-09-29T09:12:05.000Z</time>
      </trkpt>
      <trkpt lat="47.89502" lon="1.93101">
        <ele>145</ele>
        <time>2013-09-29T09:12:09.000Z</time>
      </trkpt>
      <trkpt lat="47.89492" lon="1.93086">
        <ele>144</ele>
        <time>2013-09-29T09:12:13.000Z</time>
      </trkpt>
      <trkpt lat="47.89482" lon="1.93068">
        <ele>145</ele>
        <time>2013-09-29T09:12:17.000Z</time>
      </trkpt>
      <trkpt lat="47.89474" lon="1.93046">
        <ele>144</ele>
        <time>2013-09-29T09:12:21.000Z</time>
      </trkpt>
      <trkpt lat="47.89468" lon="1.93021">
        <ele>144</ele>
        <time>2013-09-29T09:12:25.000Z</time>
      </trkpt>
      <trkpt lat="47.89463" lon="1.92996">
        <ele>144</ele>
        <time>2013-09-29T09:12:29.000Z</time>
      </trkpt>
      <trkpt lat="47.89463" lon="1.9298">
        <ele>144</ele>
        <time>2013-09-29T09:12:31.000Z</time>
      </trkpt>
      <trkpt lat="47.89465" lon="1.92966">
        <ele>143</ele>
        <time>2013-09-29T09:12:32.000Z</time>
      </trkpt>
      <trkpt lat="47.89466" lon="1.92951">
        <ele>144</ele>
        <time>2013-09-29T09:12:35.000Z</time>
      </trkpt>
      <trkpt lat="47.89466" lon="1.92935">
        <ele>144</ele>
        <time>2013-09-29T09:12:37.000Z</time>
      </trkpt>
      <trkpt lat="47.89466" lon="1.92921">
        <ele>145</ele>
        <time>2013-09-29T09:12:39.000Z</time>
      </trkpt>
      <trkpt lat="47.89468" lon="1.92905">
        <ele>145</ele>
        <time>2013-09-29T09:12:41.000Z</time>
      </trkpt>
      <trkpt lat="47.8947" lon="1.92891">
        <ele>145</ele>
        <time>2013-09-29T09:12:43.000Z</time>
      </trkpt>
      <trkpt lat="47.89471" lon="1.92875">
        <ele>144</ele>
        <time>2013-09-29T09:12:45.000Z</time>
      </trkpt>
      <trkpt lat="47.89473" lon="1.9286">
        <ele>144</ele>
        <time>2013-09-29T09:12:47.000Z</time>
      </trkpt>
      <trkpt lat="47.89475" lon="1.92845">
        <ele>144</ele>
        <time>2013-09-29T09:12:48.000Z</time>
      </trkpt>
      <trkpt lat="47.89476" lon="1.9283">
        <ele>145</ele>
        <time>2013-09-29T09:12:51.000Z</time>
      </trkpt>
      <trkpt lat="47.89476" lon="1.9283">
        <ele>145</ele>
        <time>2013-09-29T09:12:52.000Z</time>
      </trkpt>
      <trkpt lat="47.89476" lon="1.9283">
        <ele>145</ele>
        <time>2013-09-29T09:12:55.000Z</time>
      </trkpt>
      <trkpt lat="47.89476" lon="1.9283">
        <ele>145</ele>
        <time>2013-09-29T09:12:57.000Z</time>
      </trkpt>
      <trkpt lat="47.89476" lon="1.9283">
        <ele>145</ele>
        <time>2013-09-29T09:12:58.000Z</time>
      </trkpt>
      <trkpt lat="47.89476" lon="1.9283">
        <ele>145</ele>
        <time>2013-09-29T09:13:01.000Z</time>
      </trkpt>
      <trkpt lat="47.89476" lon="1.9283">
        <ele>145</ele>
        <time>2013-09-29T09:13:03.000Z</time>
      </trkpt>
      <trkpt lat="47.89476" lon="1.9283">
        <ele>145</ele>
        <time>2013-09-29T09:13:05.000Z</time>
      </trkpt>
      <trkpt lat="47.89476" lon="1.9283">
        <ele>145</ele>
        <time>2013-09-29T09:13:07.000Z</time>
      </trkpt>
      <trkpt lat="47.89476" lon="1.9283">
        <ele>145</ele>
        <time>2013-09-29T09:13:09.000Z</time>
      </trkpt>
      <trkpt lat="47.89486" lon="1.9275">
        <ele>144</ele>
        <time>2013-09-29T09:13:13.000Z</time>
      </trkpt>
      <trkpt lat="47.89491" lon="1.92702">
        <ele>146</ele>
        <time>2013-09-29T09:13:15.000Z</time>
      </trkpt>
      <trkpt lat="47.89494" lon="1.92671">
        <ele>146</ele>
        <time>2013-09-29T09:13:17.000Z</time>
      </trkpt>
      <trkpt lat="47.89496" lon="1.92647">
        <ele>147</ele>
        <time>2013-09-29T09:13:19.000Z</time>
      </trkpt>
      <trkpt lat="47.895" lon="1.92626">
        <ele>146</ele>
        <time>2013-09-29T09:13:21.000Z</time>
      </trkpt>
      <trkpt lat="47.89505" lon="1.92589">
        <ele>145</ele>
        <time>2013-09-29T09:13:23.000Z</time>
      </trkpt>
      <trkpt lat="47.89508" lon="1.92572">
        <ele>144</ele>
        <time>2013-09-29T09:13:25.000Z</time>
      </trkpt>
      <trkpt lat="47.8951" lon="1.92556">
        <ele>144</ele>
        <time>2013-09-29T09:13:27.000Z</time>
      </trkpt>
      <trkpt lat="47.89512" lon="1.92539">
        <ele>144</ele>
        <time>2013-09-29T09:13:29.000Z</time>
      </trkpt>
      <trkpt lat="47.89514" lon="1.92523">
        <ele>144</ele>
        <time>2013-09-29T09:13:31.000Z</time>
      </trkpt>
      <trkpt lat="47.89515" lon="1.92507">
        <ele>144</ele>
        <time>2013-09-29T09:13:32.000Z</time>
      </trkpt>
      <trkpt lat="47.89517" lon="1.92491">
        <ele>144</ele>
        <time>2013-09-29T09:13:35.000Z</time>
      </trkpt>
      <trkpt lat="47.89519" lon="1.92475">
        <ele>144</ele>
        <time>2013-09-29T09:13:37.000Z</time>
      </trkpt>
      <trkpt lat="47.89521" lon="1.9246">
        <ele>144</ele>
        <time>2013-09-29T09:13:39.000Z</time>
      </trkpt>
      <trkpt lat="47.89521" lon="1.9246">
        <ele>144</ele>
        <time>2013-09-29T09:13:41.000Z</time>
      </trkpt>
      <trkpt lat="47.89521" lon="1.9246">
        <ele>144</ele>
        <time>2013-09-29T09:13:43.000Z</time>
      </trkpt>
      <trkpt lat="47.89521" lon="1.9246">
        <ele>144</ele>
        <time>2013-09-29T09:13:45.000Z</time>
      </trkpt>
      <trkpt lat="47.89521" lon="1.9246">
        <ele>144</ele>
        <time>2013-09-29T09:13:47.000Z</time>
      </trkpt>
      <trkpt lat="47.89521" lon="1.9246">
        <ele>144</ele>
        <time>2013-09-29T09:13:49.000Z</time>
      </trkpt>
      <trkpt lat="47.89521" lon="1.9246">
        <ele>144</ele>
        <time>2013-09-29T09:13:51.000Z</time>
      </trkpt>
      <trkpt lat="47.89521" lon="1.9246">
        <ele>144</ele>
        <time>2013-09-29T09:13:53.000Z</time>
      </trkpt>
      <trkpt lat="47.89521" lon="1.9246">
        <ele>144</ele>
        <time>2013-09-29T09:13:54.000Z</time>
      </trkpt>
      <trkpt lat="47.89521" lon="1.9246">
        <ele>144</ele>
        <time>2013-09-29T09:13:57.000Z</time>
      </trkpt>
      <trkpt lat="47.89521" lon="1.9246">
        <ele>144</ele>
        <time>2013-09-29T09:13:59.000Z</time>
      </trkpt>
      <trkpt lat="47.89521" lon="1.9246">
        <ele>144</ele>
        <time>2013-09-29T09:14:00.000Z</time>
      </trkpt>
      <trkpt lat="47.89521" lon="1.9246">
        <ele>144</ele>
        <time>2013-09-29T09:14:03.000Z</time>
      </trkpt>
      <trkpt lat="47.89521" lon="1.9246">
        <ele>144</ele>
        <time>2013-09-29T09:14:04.000Z</time>
      </trkpt>
      <trkpt lat="47.89521" lon="1.9246">
        <ele>144</ele>
        <time>2013-09-29T09:14:06.000Z</time>
      </trkpt>
      <trkpt lat="47.89521" lon="1.9246">
        <ele>144</ele>
        <time>2013-09-29T09:14:09.000Z</time>
      </trkpt>
      <trkpt lat="47.89521" lon="1.9246">
        <ele>144</ele>
        <time>2013-09-29T09:14:11.000Z</time>
      </trkpt>
      <trkpt lat="47.89521" lon="1.9246">
        <ele>144</ele>
        <time>2013-09-29T09:14:13.000Z</time>
      </trkpt>
      <trkpt lat="47.89521" lon="1.9246">
        <ele>144</ele>
        <time>2013-09-29T09:14:15.000Z</time>
      </trkpt>
      <trkpt lat="47.89521" lon="1.9246">
        <ele>144</ele>
        <time>2013-09-29T09:14:17.000Z</time>
      </trkpt>
      <trkpt lat="47.89521" lon="1.9246">
        <ele>144</ele>
        <time>2013-09-29T09:14:19.000Z</time>
      </trkpt>
      <trkpt lat="47.89521" lon="1.9246">
        <ele>144</ele>
        <time>2013-09-29T09:14:20.000Z</time>
      </trkpt>
      <trkpt lat="47.89521" lon="1.9246">
        <ele>144</ele>
        <time>2013-09-29T09:14:23.000Z</time>
      </trkpt>
      <trkpt lat="47.89512" lon="1.92192">
        <ele>143</ele>
        <time>2013-09-29T09:14:27.000Z</time>
      </trkpt>
      <trkpt lat="47.89502" lon="1.92175">
        <ele>143</ele>
        <time>2013-09-29T09:14:31.000Z</time>
      </trkpt>
      <trkpt lat="47.89494" lon="1.92155">
        <ele>144</ele>
        <time>2013-09-29T09:14:35.000Z</time>
      </trkpt>
      <trkpt lat="47.8949" lon="1.92137">
        <ele>145</ele>
        <time>2013-09-29T09:14:39.000Z</time>
      </trkpt>
      <trkpt lat="47.8949" lon="1.92137">
        <ele>145</ele>
        <time>2013-09-29T09:14:41.000Z</time>
      </trkpt>
      <trkpt lat="47.89489" lon="1.921">
        <ele>149</ele>
        <time>2013-09-29T09:14:45.000Z</time>
      </trkpt>
      <trkpt lat="47.89488" lon="1.92077">
        <ele>147</ele>
        <time>2013-09-29T09:14:49.000Z</time>
      </trkpt>
      <trkpt lat="47.89488" lon="1.92063">
        <ele>144</ele>
        <time>2013-09-29T09:14:50.000Z</time>
      </trkpt>
      <trkpt lat="47.89488" lon="1.92063">
        <ele>144</ele>
        <time>2013-09-29T09:14:53.000Z</time>
      </trkpt>
      <trkpt lat="47.89485" lon="1.9205">
        <ele>144</ele>
        <time>2013-09-29T09:14:55.000Z</time>
      </trkpt>
      <trkpt lat="47.89483" lon="1.92037">
        <ele>145</ele>
        <time>2013-09-29T09:14:57.000Z</time>
      </trkpt>
      <trkpt lat="47.89481" lon="1.92022">
        <ele>147</ele>
        <time>2013-09-29T09:14:59.000Z</time>
      </trkpt>
      <trkpt lat="47.8948" lon="1.92006">
        <ele>147</ele>
        <time>2013-09-29T09:15:01.000Z</time>
      </trkpt>
      <trkpt lat="47.89479" lon="1.91992">
        <ele>146</ele>
        <time>2013-09-29T09:15:03.000Z</time>
      </trkpt>
      <trkpt lat="47.89478" lon="1.9196">
        <ele>146</ele>
        <time>2013-09-29T09:15:05.000Z</time>
      </trkpt>
      <trkpt lat="47.89476" lon="1.91944">
        <ele>145</ele>
        <time>2013-09-29T09:15:07.000Z</time>
      </trkpt>
      <trkpt lat="47.89476" lon="1.91927">
        <ele>147</ele>
        <time>2013-09-29T09:15:08.000Z</time>
      </trkpt>
      <trkpt lat="47.89473" lon="1.91907">
        <ele>146</ele>
        <time>2013-09-29T09:15:11.000Z</time>
      </trkpt>
      <trkpt lat="47.89473" lon="1.91887">
        <ele>147</ele>
        <time>2013-09-29T09:15:13.000Z</time>
      </trkpt>
      <trkpt lat="47.89472" lon="1.91867">
        <ele>147</ele>
        <time>2013-09-29T09:15:15.000Z</time>
      </trkpt>
      <trkpt lat="47.89472" lon="1.9185">
        <ele>147</ele>
        <time>2013-09-29T09:15:16.000Z</time>
      </trkpt>
      <trkpt lat="47.89468" lon="1.91833">
        <ele>147</ele>
        <time>2013-09-29T09:15:19.000Z</time>
      </trkpt>
      <trkpt lat="47.89467" lon="1.91817">
        <ele>147</ele>
        <time>2013-09-29T09:15:20.000Z</time>
      </trkpt>
      <trkpt lat="47.89466" lon="1.918">
        <ele>147</ele>
        <time>2013-09-29T09:15:23.000Z</time>
      </trkpt>
      <trkpt lat="47.89466" lon="1.918">
        <ele>147</ele>
        <time>2013-09-29T09:15:25.000Z</time>
      </trkpt>
      <trkpt lat="47.89466" lon="1.918">
        <ele>147</ele>
        <time>2013-09-29T09:15:27.000Z</time>
      </trkpt>
      <trkpt lat="47.89466" lon="1.918">
        <ele>147</ele>
        <time>2013-09-29T09:15:29.000Z</time>
      </trkpt>
      <trkpt lat="47.89466" lon="1.918">
        <ele>147</ele>
        <time>2013-09-29T09:15:31.000Z</time>
      </trkpt>
      <trkpt lat="47.89466" lon="1.918">
        <ele>147</ele>
        <time>2013-09-29T09:15:33.000Z</time>
      </trkpt>
      <trkpt lat="47.89434" lon="1.91704">
        <ele>147</ele>
        <time>2013-09-29T09:15:39.000Z</time>
      </trkpt>
      <trkpt lat="47.89434" lon="1.91704">
        <ele>147</ele>
        <time>2013-09-29T09:15:40.000Z</time>
      </trkpt>
      <trkpt lat="47.89434" lon="1.91704">
        <ele>147</ele>
        <time>2013-09-29T09:15:43.000Z</time>
      </trkpt>
      <trkpt lat="47.89434" lon="1.91704">
        <ele>147</ele>
        <time>2013-09-29T09:15:45.000Z</time>
      </trkpt>
      <trkpt lat="47.89434" lon="1.91704">
        <ele>147</ele>
        <time>2013-09-29T09:15:46.000Z</time>
      </trkpt>
      <trkpt lat="47.89434" lon="1.91704">
        <ele>147</ele>
        <time>2013-09-29T09:15:48.000Z</time>
      </trkpt>
      <trkpt lat="47.89444" lon="1.9163">
        <ele>151</ele>
        <time>2013-09-29T09:15:51.000Z</time>
      </trkpt>
      <trkpt lat="47.89445" lon="1.91614">
        <ele>151</ele>
        <time>2013-09-29T09:15:53.000Z</time>
      </trkpt>
      <trkpt lat="47.89446" lon="1.91591">
        <ele>151</ele>
        <time>2013-09-29T09:15:57.000Z</time>
      </trkpt>
      <trkpt lat="47.89446" lon="1.91591">
        <ele>151</ele>
        <time>2013-09-29T09:15:59.000Z</time>
      </trkpt>
      <trkpt lat="47.89446" lon="1.91591">
        <ele>151</ele>
        <time>2013-09-29T09:16:00.000Z</time>
      </trkpt>
      <trkpt lat="47.89446" lon="1.91591">
        <ele>151</ele>
        <time>2013-09-29T09:16:03.000Z</time>
      </trkpt>
      <trkpt lat="47.89446" lon="1.91591">
        <ele>151</ele>
        <time>2013-09-29T09:16:05.000Z</time>
      </trkpt>
      <trkpt lat="47.89446" lon="1.91591">
        <ele>151</ele>
        <time>2013-09-29T09:16:07.000Z</time>
      </trkpt>
      <trkpt lat="47.89446" lon="1.91591">
        <ele>151</ele>
        <time>2013-09-29T09:16:09.000Z</time>
      </trkpt>
      <trkpt lat="47.89446" lon="1.91591">
        <ele>151</ele>
        <time>2013-09-29T09:16:11.000Z</time>
      </trkpt>
      <trkpt lat="47.89446" lon="1.91591">
        <ele>151</ele>
        <time>2013-09-29T09:16:13.000Z</time>
      </trkpt>
      <trkpt lat="47.89446" lon="1.91591">
        <ele>151</ele>
        <time>2013-09-29T09:16:15.000Z</time>
      </trkpt>
      <trkpt lat="47.89446" lon="1.91591">
        <ele>151</ele>
        <time>2013-09-29T09:16:17.000Z</time>
      </trkpt>
      <trkpt lat="47.89446" lon="1.91591">
        <ele>151</ele>
        <time>2013-09-29T09:16:18.000Z</time>
      </trkpt>
      <trkpt lat="47.89446" lon="1.91591">
        <ele>151</ele>
        <time>2013-09-29T09:16:21.000Z</time>
      </trkpt>
      <trkpt lat="47.89449" lon="1.9146">
        <ele>147</ele>
        <time>2013-09-29T09:16:25.000Z</time>
      </trkpt>
      <trkpt lat="47.89453" lon="1.91443">
        <ele>146</ele>
        <time>2013-09-29T09:16:29.000Z</time>
      </trkpt>
      <trkpt lat="47.8946" lon="1.91406">
        <ele>143</ele>
        <time>2013-09-29T09:16:34.000Z</time>
      </trkpt>
      <trkpt lat="47.89461" lon="1.91391">
        <ele>143</ele>
        <time>2013-09-29T09:16:36.000Z</time>
      </trkpt>
      <trkpt lat="47.8946" lon="1.91377">
        <ele>143</ele>
        <time>2013-09-29T09:16:38.000Z</time>
      </trkpt>
      <trkpt lat="47.89461" lon="1.91363">
        <ele>143</ele>
        <time>2013-09-29T09:16:40.000Z</time>
      </trkpt>
      <trkpt lat="47.89461" lon="1.91363">
        <ele>143</ele>
        <time>2013-09-29T09:16:42.000Z</time>
      </trkpt>
      <trkpt lat="47.89465" lon="1.91337">
        <ele>142</ele>
        <time>2013-09-29T09:16:44.000Z</time>
      </trkpt>
      <trkpt lat="47.89465" lon="1.91337">
        <ele>142</ele>
        <time>2013-09-29T09:16:45.000Z</time>
      </trkpt>
      <trkpt lat="47.89465" lon="1.91337">
        <ele>142</ele>
        <time>2013-09-29T09:16:48.000Z</time>
      </trkpt>
      <trkpt lat="47.89465" lon="1.91337">
        <ele>142</ele>
        <time>2013-09-29T09:16:50.000Z</time>
      </trkpt>
      <trkpt lat="47.89465" lon="1.91337">
        <ele>142</ele>
        <time>2013-09-29T09:16:52.000Z</time>
      </trkpt>
      <trkpt lat="47.89465" lon="1.91337">
        <ele>142</ele>
        <time>2013-09-29T09:16:54.000Z</time>
      </trkpt>
      <trkpt lat="47.89465" lon="1.91337">
        <ele>142</ele>
        <time>2013-09-29T09:16:56.000Z</time>
      </trkpt>
      <trkpt lat="47.89465" lon="1.91337">
        <ele>142</ele>
        <time>2013-09-29T09:16:58.000Z</time>
      </trkpt>
      <trkpt lat="47.89465" lon="1.91337">
        <ele>142</ele>
        <time>2013-09-29T09:17:00.000Z</time>
      </trkpt>
      <trkpt lat="47.89465" lon="1.91337">
        <ele>142</ele>
        <time>2013-09-29T09:17:02.000Z</time>
      </trkpt>
      <trkpt lat="47.89465" lon="1.91337">
        <ele>142</ele>
        <time>2013-09-29T09:17:04.000Z</time>
      </trkpt>
      <trkpt lat="47.89474" lon="1.91258">
        <ele>141</ele>
        <time>2013-09-29T09:17:15.000Z</time>
      </trkpt>
      <trkpt lat="47.89473" lon="1.91237">
        <ele>141</ele>
        <time>2013-09-29T09:17:19.000Z</time>
      </trkpt>
      <trkpt lat="47.89473" lon="1.91223">
        <ele>142</ele>
        <time>2013-09-29T09:17:20.000Z</time>
      </trkpt>
      <trkpt lat="47.89469" lon="1.91205">
        <ele>140</ele>
        <time>2013-09-29T09:17:23.000Z</time>
      </trkpt>
      <trkpt lat="47.8947" lon="1.9119">
        <ele>140</ele>
        <time>2013-09-29T09:17:24.000Z</time>
      </trkpt>
      <trkpt lat="47.8947" lon="1.91165">
        <ele>141</ele>
        <time>2013-09-29T09:17:29.000Z</time>
      </trkpt>
      <trkpt lat="47.89472" lon="1.91151">
        <ele>141</ele>
        <time>2013-09-29T09:17:30.000Z</time>
      </trkpt>
      <trkpt lat="47.89474" lon="1.91137">
        <ele>141</ele>
        <time>2013-09-29T09:17:33.000Z</time>
      </trkpt>
      <trkpt lat="47.89474" lon="1.91137">
        <ele>141</ele>
        <time>2013-09-29T09:17:35.000Z</time>
      </trkpt>
      <trkpt lat="47.89474" lon="1.91137">
        <ele>141</ele>
        <time>2013-09-29T09:17:37.000Z</time>
      </trkpt>
      <trkpt lat="47.89474" lon="1.91137">
        <ele>141</ele>
        <time>2013-09-29T09:17:40.000Z</time>
      </trkpt>
      <trkpt lat="47.89474" lon="1.91137">
        <ele>141</ele>
        <time>2013-09-29T09:17:42.000Z</time>
      </trkpt>
      <trkpt lat="47.89474" lon="1.91137">
        <ele>141</ele>
        <time>2013-09-29T09:17:44.000Z</time>
      </trkpt>
      <trkpt lat="47.89474" lon="1.91137">
        <ele>141</ele>
        <time>2013-09-29T09:17:52.000Z</time>
      </trkpt>
      <trkpt lat="47.89474" lon="1.91137">
        <ele>141</ele>
        <time>2013-09-29T09:17:53.000Z</time>
      </trkpt>
      <trkpt lat="47.89474" lon="1.91137">
        <ele>141</ele>
        <time>2013-09-29T09:18:04.000Z</time>
      </trkpt>
      <trkpt lat="47.89474" lon="1.91137">
        <ele>141</ele>
        <time>2013-09-29T09:18:06.000Z</time>
      </trkpt>
      <trkpt lat="47.89474" lon="1.91137">
        <ele>141</ele>
        <time>2013-09-29T09:18:08.000Z</time>
      </trkpt>
      <trkpt lat="47.8946" lon="1.91102">
        <ele>143</ele>
        <time>2013-09-29T09:18:20.000Z</time>
      </trkpt>
      <trkpt lat="47.8946" lon="1.91102">
        <ele>143</ele>
        <time>2013-09-29T09:18:22.000Z</time>
      </trkpt>
      <trkpt lat="47.8946" lon="1.91102">
        <ele>143</ele>
        <time>2013-09-29T09:18:26.000Z</time>
      </trkpt>
      <trkpt lat="47.8946" lon="1.91102">
        <ele>143</ele>
        <time>2013-09-29T09:18:27.000Z</time>
      </trkpt>
      <trkpt lat="47.89458" lon="1.91117">
        <ele>141</ele>
        <time>2013-09-29T09:18:52.000Z</time>
      </trkpt>
      <trkpt lat="47.89458" lon="1.91117">
        <ele>141</ele>
        <time>2013-09-29T09:18:54.000Z</time>
      </trkpt>
      <trkpt lat="47.89458" lon="1.91117">
        <ele>141</ele>
        <time>2013-09-29T09:18:56.000Z</time>
      </trkpt>
      <trkpt lat="47.89458" lon="1.91117">
        <ele>141</ele>
        <time>2013-09-29T09:18:58.000Z</time>
      </trkpt>
      <trkpt lat="47.89458" lon="1.91117">
        <ele>141</ele>
        <time>2013-09-29T09:18:59.000Z</time>
      </trkpt>
      <trkpt lat="47.89458" lon="1.91117">
        <ele>141</ele>
        <time>2013-09-29T09:19:02.000Z</time>
      </trkpt>
      <trkpt lat="47.89458" lon="1.91117">
        <ele>141</ele>
        <time>2013-09-29T09:19:04.000Z</time>
      </trkpt>
      <trkpt lat="47.8946" lon="1.91151">
        <ele>137</ele>
        <time>2013-09-29T09:19:08.000Z</time>
      </trkpt>
      <trkpt lat="47.8946" lon="1.91151">
        <ele>137</ele>
        <time>2013-09-29T09:19:20.000Z</time>
      </trkpt>
      <trkpt lat="47.89456" lon="1.91133">
        <ele>147</ele>
        <time>2013-09-29T09:19:45.000Z</time>
      </trkpt>
      <trkpt lat="47.89457" lon="1.91114">
        <ele>147</ele>
        <time>2013-09-29T09:19:52.000Z</time>
      </trkpt>
      <trkpt lat="47.89456" lon="1.91098">
        <ele>147</ele>
        <time>2013-09-29T09:19:56.000Z</time>
      </trkpt>
      <trkpt lat="47.89457" lon="1.91079">
        <ele>147</ele>
        <time>2013-09-29T09:20:00.000Z</time>
      </trkpt>
      <trkpt lat="47.89457" lon="1.91061">
        <ele>149</ele>
        <time>2013-09-29T09:20:04.000Z</time>
      </trkpt>
      <trkpt lat="47.89457" lon="1.91043">
        <ele>149</ele>
        <time>2013-09-29T09:20:08.000Z</time>
      </trkpt>
      <trkpt lat="47.8946" lon="1.91023">
        <ele>149</ele>
        <time>2013-09-29T09:20:12.000Z</time>
      </trkpt>
      <trkpt lat="47.89462" lon="1.91003">
        <ele>151</ele>
        <time>2013-09-29T09:20:16.000Z</time>
      </trkpt>
      <trkpt lat="47.89464" lon="1.90979">
        <ele>150</ele>
        <time>2013-09-29T09:20:20.000Z</time>
      </trkpt>
      <trkpt lat="47.89465" lon="1.90956">
        <ele>150</ele>
        <time>2013-09-29T09:20:24.000Z</time>
      </trkpt>
      <trkpt lat="47.89467" lon="1.90931">
        <ele>151</ele>
        <time>2013-09-29T09:20:28.000Z</time>
      </trkpt>
      <trkpt lat="47.89467" lon="1.90931">
        <ele>151</ele>
        <time>2013-09-29T09:20:32.000Z</time>
      </trkpt>
      <trkpt lat="47.89467" lon="1.90931">
        <ele>151</ele>
        <time>2013-09-29T09:20:33.000Z</time>
      </trkpt>
      <trkpt lat="47.8947" lon="1.90859">
        <ele>151</ele>
        <time>2013-09-29T09:20:40.000Z</time>
      </trkpt>
      <trkpt lat="47.89471" lon="1.90834">
        <ele>150</ele>
        <time>2013-09-29T09:20:44.000Z</time>
      </trkpt>
      <trkpt lat="47.89472" lon="1.9081">
        <ele>149</ele>
        <time>2013-09-29T09:20:48.000Z</time>
      </trkpt>
      <trkpt lat="47.89473" lon="1.90785">
        <ele>149</ele>
        <time>2013-09-29T09:20:52.000Z</time>
      </trkpt>
      <trkpt lat="47.89473" lon="1.90785">
        <ele>149</ele>
        <time>2013-09-29T09:20:54.000Z</time>
      </trkpt>
      <trkpt lat="47.89473" lon="1.90785">
        <ele>149</ele>
        <time>2013-09-29T09:20:56.000Z</time>
      </trkpt>
      <trkpt lat="47.89473" lon="1.90785">
        <ele>149</ele>
        <time>2013-09-29T09:20:58.000Z</time>
      </trkpt>
      <trkpt lat="47.89473" lon="1.90785">
        <ele>149</ele>
        <time>2013-09-29T09:20:59.000Z</time>
      </trkpt>
      <trkpt lat="47.89476" lon="1.90712">
        <ele>149</ele>
        <time>2013-09-29T09:21:04.000Z</time>
      </trkpt>
      <trkpt lat="47.89478" lon="1.90686">
        <ele>149</ele>
        <time>2013-09-29T09:21:08.000Z</time>
      </trkpt>
      <trkpt lat="47.89478" lon="1.90686">
        <ele>149</ele>
        <time>2013-09-29T09:21:10.000Z</time>
      </trkpt>
      <trkpt lat="47.89478" lon="1.90686">
        <ele>149</ele>
        <time>2013-09-29T09:21:12.000Z</time>
      </trkpt>
      <trkpt lat="47.89478" lon="1.90686">
        <ele>149</ele>
        <time>2013-09-29T09:21:14.000Z</time>
      </trkpt>
      <trkpt lat="47.8948" lon="1.90649">
        <ele>151</ele>
        <time>2013-09-29T09:21:20.000Z</time>
      </trkpt>
      <trkpt lat="47.89481" lon="1.90624">
        <ele>151</ele>
        <time>2013-09-29T09:21:21.000Z</time>
      </trkpt>
      <trkpt lat="47.89482" lon="1.90605">
        <ele>151</ele>
        <time>2013-09-29T09:21:24.000Z</time>
      </trkpt>
      <trkpt lat="47.89484" lon="1.90588">
        <ele>152</ele>
        <time>2013-09-29T09:21:26.000Z</time>
      </trkpt>
      <trkpt lat="47.89484" lon="1.90573">
        <ele>152</ele>
        <time>2013-09-29T09:21:28.000Z</time>
      </trkpt>
      <trkpt lat="47.89486" lon="1.90545">
        <ele>153</ele>
        <time>2013-09-29T09:21:30.000Z</time>
      </trkpt>
      <trkpt lat="47.89487" lon="1.90531">
        <ele>153</ele>
        <time>2013-09-29T09:21:31.000Z</time>
      </trkpt>
      <trkpt lat="47.89487" lon="1.90531">
        <ele>153</ele>
        <time>2013-09-29T09:21:34.000Z</time>
      </trkpt>
      <trkpt lat="47.89487" lon="1.90531">
        <ele>153</ele>
        <time>2013-09-29T09:21:35.000Z</time>
      </trkpt>
      <trkpt lat="47.89487" lon="1.90531">
        <ele>153</ele>
        <time>2013-09-29T09:21:38.000Z</time>
      </trkpt>
      <trkpt lat="47.89487" lon="1.90531">
        <ele>153</ele>
        <time>2013-09-29T09:21:40.000Z</time>
      </trkpt>
      <trkpt lat="47.89487" lon="1.90531">
        <ele>153</ele>
        <time>2013-09-29T09:21:41.000Z</time>
      </trkpt>
      <trkpt lat="47.89487" lon="1.90531">
        <ele>153</ele>
        <time>2013-09-29T09:21:44.000Z</time>
      </trkpt>
      <trkpt lat="47.89487" lon="1.90531">
        <ele>153</ele>
        <time>2013-09-29T09:21:46.000Z</time>
      </trkpt>
      <trkpt lat="47.89487" lon="1.90531">
        <ele>153</ele>
        <time>2013-09-29T09:21:48.000Z</time>
      </trkpt>
      <trkpt lat="47.89487" lon="1.90531">
        <ele>153</ele>
        <time>2013-09-29T09:21:50.000Z</time>
      </trkpt>
      <trkpt lat="47.89487" lon="1.90531">
        <ele>153</ele>
        <time>2013-09-29T09:21:52.000Z</time>
      </trkpt>
      <trkpt lat="47.89503" lon="1.90454">
        <ele>154</ele>
        <time>2013-09-29T09:21:56.000Z</time>
      </trkpt>
      <trkpt lat="47.89524" lon="1.90452">
        <ele>154</ele>
        <time>2013-09-29T09:22:00.000Z</time>
      </trkpt>
      <trkpt lat="47.8954" lon="1.90451">
        <ele>155</ele>
        <time>2013-09-29T09:22:05.000Z</time>
      </trkpt>
      <trkpt lat="47.89557" lon="1.90448">
        <ele>156</ele>
        <time>2013-09-29T09:22:09.000Z</time>
      </trkpt>
      <trkpt lat="47.89573" lon="1.90447">
        <ele>155</ele>
        <time>2013-09-29T09:22:13.000Z</time>
      </trkpt>
      <trkpt lat="47.89589" lon="1.90445">
        <ele>156</ele>
        <time>2013-09-29T09:22:17.000Z</time>
      </trkpt>
      <trkpt lat="47.89606" lon="1.90444">
        <ele>155</ele>
        <time>2013-09-29T09:22:21.000Z</time>
      </trkpt>
      <trkpt lat="47.89623" lon="1.90443">
        <ele>155</ele>
        <time>2013-09-29T09:22:25.000Z</time>
      </trkpt>
      <trkpt lat="47.89623" lon="1.90443">
        <ele>155</ele>
        <time>2013-09-29T09:22:29.000Z</time>
      </trkpt>
      <trkpt lat="47.89623" lon="1.90443">
        <ele>155</ele>
        <time>2013-09-29T09:22:31.000Z</time>
      </trkpt>
      <trkpt lat="47.89623" lon="1.90443">
        <ele>155</ele>
        <time>2013-09-29T09:22:33.000Z</time>
      </trkpt>
      <trkpt lat="47.89623" lon="1.90443">
        <ele>155</ele>
        <time>2013-09-29T09:22:35.000Z</time>
      </trkpt>
      <trkpt lat="47.89682" lon="1.90438">
        <ele>153</ele>
        <time>2013-09-29T09:22:39.000Z</time>
      </trkpt>
      <trkpt lat="47.89699" lon="1.90436">
        <ele>153</ele>
        <time>2013-09-29T09:22:43.000Z</time>
      </trkpt>
      <trkpt lat="47.89708" lon="1.90435">
        <ele>153</ele>
        <time>2013-09-29T09:22:45.000Z</time>
      </trkpt>
      <trkpt lat="47.89725" lon="1.90434">
        <ele>152</ele>
        <time>2013-09-29T09:22:49.000Z</time>
      </trkpt>
      <trkpt lat="47.89725" lon="1.90434">
        <ele>152</ele>
        <time>2013-09-29T09:22:51.000Z</time>
      </trkpt>
      <trkpt lat="47.89725" lon="1.90434">
        <ele>152</ele>
        <time>2013-09-29T09:22:53.000Z</time>
      </trkpt>
      <trkpt lat="47.89725" lon="1.90434">
        <ele>152</ele>
        <time>2013-09-29T09:22:55.000Z</time>
      </trkpt>
      <trkpt lat="47.89725" lon="1.90434">
        <ele>152</ele>
        <time>2013-09-29T09:22:57.000Z</time>
      </trkpt>
      <trkpt lat="47.89725" lon="1.90434">
        <ele>152</ele>
        <time>2013-09-29T09:22:59.000Z</time>
      </trkpt>
      <trkpt lat="47.89725" lon="1.90434">
        <ele>152</ele>
        <time>2013-09-29T09:23:01.000Z</time>
      </trkpt>
      <trkpt lat="47.89725" lon="1.90434">
        <ele>152</ele>
        <time>2013-09-29T09:23:03.000Z</time>
      </trkpt>
      <trkpt lat="47.89725" lon="1.90434">
        <ele>152</ele>
        <time>2013-09-29T09:23:05.000Z</time>
      </trkpt>
      <trkpt lat="47.89725" lon="1.90434">
        <ele>152</ele>
        <time>2013-09-29T09:23:07.000Z</time>
      </trkpt>
      <trkpt lat="47.89725" lon="1.90434">
        <ele>152</ele>
        <time>2013-09-29T09:23:15.000Z</time>
      </trkpt>
      <trkpt lat="47.89725" lon="1.90434">
        <ele>152</ele>
        <time>2013-09-29T09:23:17.000Z</time>
      </trkpt>
      <trkpt lat="47.89725" lon="1.90434">
        <ele>152</ele>
        <time>2013-09-29T09:23:18.000Z</time>
      </trkpt>
      <trkpt lat="47.89725" lon="1.90434">
        <ele>152</ele>
        <time>2013-09-29T09:23:20.000Z</time>
      </trkpt>
      <trkpt lat="47.89725" lon="1.90434">
        <ele>152</ele>
        <time>2013-09-29T09:23:23.000Z</time>
      </trkpt>
      <trkpt lat="47.89725" lon="1.90434">
        <ele>152</ele>
        <time>2013-09-29T09:23:25.000Z</time>
      </trkpt>
      <trkpt lat="47.89796" lon="1.90471">
        <ele>151</ele>
        <time>2013-09-29T09:23:46.000Z</time>
      </trkpt>
      <trkpt lat="47.89796" lon="1.90489">
        <ele>150</ele>
        <time>2013-09-29T09:23:49.000Z</time>
      </trkpt>
      <trkpt lat="47.89793" lon="1.90512">
        <ele>150</ele>
        <time>2013-09-29T09:23:53.000Z</time>
      </trkpt>
      <trkpt lat="47.89793" lon="1.90512">
        <ele>150</ele>
        <time>2013-09-29T09:23:54.000Z</time>
      </trkpt>
      <trkpt lat="47.89793" lon="1.90536">
        <ele>149</ele>
        <time>2013-09-29T09:23:57.000Z</time>
      </trkpt>
      <trkpt lat="47.8979" lon="1.90549">
        <ele>149</ele>
        <time>2013-09-29T09:23:58.000Z</time>
      </trkpt>
      <trkpt lat="47.89788" lon="1.90564">
        <ele>149</ele>
        <time>2013-09-29T09:24:01.000Z</time>
      </trkpt>
      <trkpt lat="47.89786" lon="1.90579">
        <ele>149</ele>
        <time>2013-09-29T09:24:03.000Z</time>
      </trkpt>
      <trkpt lat="47.89783" lon="1.90607">
        <ele>151</ele>
        <time>2013-09-29T09:24:07.000Z</time>
      </trkpt>
      <trkpt lat="47.89783" lon="1.90621">
        <ele>150</ele>
        <time>2013-09-29T09:24:08.000Z</time>
      </trkpt>
      <trkpt lat="47.89782" lon="1.90637">
        <ele>149</ele>
        <time>2013-09-29T09:24:11.000Z</time>
      </trkpt>
      <trkpt lat="47.89782" lon="1.90651">
        <ele>150</ele>
        <time>2013-09-29T09:24:13.000Z</time>
      </trkpt>
      <trkpt lat="47.8978" lon="1.90666">
        <ele>150</ele>
        <time>2013-09-29T09:24:14.000Z</time>
      </trkpt>
      <trkpt lat="47.8978" lon="1.90666">
        <ele>150</ele>
        <time>2013-09-29T09:24:17.000Z</time>
      </trkpt>
      <trkpt lat="47.8978" lon="1.90666">
        <ele>150</ele>
        <time>2013-09-29T09:24:19.000Z</time>
      </trkpt>
      <trkpt lat="47.8978" lon="1.90666">
        <ele>150</ele>
        <time>2013-09-29T09:24:21.000Z</time>
      </trkpt>
      <trkpt lat="47.8978" lon="1.90666">
        <ele>150</ele>
        <time>2013-09-29T09:24:23.000Z</time>
      </trkpt>
      <trkpt lat="47.8978" lon="1.90666">
        <ele>150</ele>
        <time>2013-09-29T09:24:25.000Z</time>
      </trkpt>
      <trkpt lat="47.8978" lon="1.90666">
        <ele>150</ele>
        <time>2013-09-29T09:24:26.000Z</time>
      </trkpt>
      <trkpt lat="47.8978" lon="1.90666">
        <ele>150</ele>
        <time>2013-09-29T09:24:29.000Z</time>
      </trkpt>
      <trkpt lat="47.8978" lon="1.90666">
        <ele>150</ele>
        <time>2013-09-29T09:24:31.000Z</time>
      </trkpt>
      <trkpt lat="47.8978" lon="1.90666">
        <ele>150</ele>
        <time>2013-09-29T09:24:33.000Z</time>
      </trkpt>
      <trkpt lat="47.8978" lon="1.90666">
        <ele>150</ele>
        <time>2013-09-29T09:24:35.000Z</time>
      </trkpt>
      <trkpt lat="47.89777" lon="1.90803">
        <ele>155</ele>
        <time>2013-09-29T09:24:39.000Z</time>
      </trkpt>
      <trkpt lat="47.89777" lon="1.90818">
        <ele>155</ele>
        <time>2013-09-29T09:24:41.000Z</time>
      </trkpt>
      <trkpt lat="47.89779" lon="1.90844">
        <ele>155</ele>
        <time>2013-09-29T09:24:45.000Z</time>
      </trkpt>
      <trkpt lat="47.89779" lon="1.90844">
        <ele>155</ele>
        <time>2013-09-29T09:24:47.000Z</time>
      </trkpt>
      <trkpt lat="47.89779" lon="1.90844">
        <ele>155</ele>
        <time>2013-09-29T09:24:49.000Z</time>
      </trkpt>
      <trkpt lat="47.89779" lon="1.90844">
        <ele>155</ele>
        <time>2013-09-29T09:24:50.000Z</time>
      </trkpt>
      <trkpt lat="47.89779" lon="1.90844">
        <ele>155</ele>
        <time>2013-09-29T09:24:53.000Z</time>
      </trkpt>
      <trkpt lat="47.89779" lon="1.90844">
        <ele>155</ele>
        <time>2013-09-29T09:24:55.000Z</time>
      </trkpt>
      <trkpt lat="47.89781" lon="1.90926">
        <ele>149</ele>
        <time>2013-09-29T09:24:59.000Z</time>
      </trkpt>
      <trkpt lat="47.89782" lon="1.90947">
        <ele>148</ele>
        <time>2013-09-29T09:25:03.000Z</time>
      </trkpt>
      <trkpt lat="47.89783" lon="1.90971">
        <ele>149</ele>
        <time>2013-09-29T09:25:07.000Z</time>
      </trkpt>
      <trkpt lat="47.89783" lon="1.90971">
        <ele>149</ele>
        <time>2013-09-29T09:25:11.000Z</time>
      </trkpt>
      <trkpt lat="47.89783" lon="1.90971">
        <ele>149</ele>
        <time>2013-09-29T09:25:13.000Z</time>
      </trkpt>
      <trkpt lat="47.89783" lon="1.90971">
        <ele>149</ele>
        <time>2013-09-29T09:25:15.000Z</time>
      </trkpt>
      <trkpt lat="47.89783" lon="1.90971">
        <ele>149</ele>
        <time>2013-09-29T09:25:17.000Z</time>
      </trkpt>
      <trkpt lat="47.89785" lon="1.91014">
        <ele>148</ele>
        <time>2013-09-29T09:25:23.000Z</time>
      </trkpt>
      <trkpt lat="47.89786" lon="1.91041">
        <ele>148</ele>
        <time>2013-09-29T09:25:25.000Z</time>
      </trkpt>
      <trkpt lat="47.89787" lon="1.91061">
        <ele>146</ele>
        <time>2013-09-29T09:25:27.000Z</time>
      </trkpt>
      <trkpt lat="47.89787" lon="1.91077">
        <ele>145</ele>
        <time>2013-09-29T09:25:29.000Z</time>
      </trkpt>
      <trkpt lat="47.89787" lon="1.9109">
        <ele>144</ele>
        <time>2013-09-29T09:25:30.000Z</time>
      </trkpt>
      <trkpt lat="47.89788" lon="1.91115">
        <ele>143</ele>
        <time>2013-09-29T09:25:32.000Z</time>
      </trkpt>
      <trkpt lat="47.89788" lon="1.91115">
        <ele>143</ele>
        <time>2013-09-29T09:25:35.000Z</time>
      </trkpt>
      <trkpt lat="47.89789" lon="1.91139">
        <ele>143</ele>
        <time>2013-09-29T09:25:37.000Z</time>
      </trkpt>
      <trkpt lat="47.89789" lon="1.91139">
        <ele>143</ele>
        <time>2013-09-29T09:25:41.000Z</time>
      </trkpt>
      <trkpt lat="47.89789" lon="1.91139">
        <ele>143</ele>
        <time>2013-09-29T09:25:43.000Z</time>
      </trkpt>
      <trkpt lat="47.89789" lon="1.91139">
        <ele>143</ele>
        <time>2013-09-29T09:25:44.000Z</time>
      </trkpt>
      <trkpt lat="47.89789" lon="1.91139">
        <ele>143</ele>
        <time>2013-09-29T09:25:47.000Z</time>
      </trkpt>
      <trkpt lat="47.89789" lon="1.91139">
        <ele>143</ele>
        <time>2013-09-29T09:25:49.000Z</time>
      </trkpt>
      <trkpt lat="47.89789" lon="1.91139">
        <ele>143</ele>
        <time>2013-09-29T09:25:51.000Z</time>
      </trkpt>
      <trkpt lat="47.89788" lon="1.91232">
        <ele>142</ele>
        <time>2013-09-29T09:25:54.000Z</time>
      </trkpt>
      <trkpt lat="47.89788" lon="1.91248">
        <ele>143</ele>
        <time>2013-09-29T09:25:57.000Z</time>
      </trkpt>
      <trkpt lat="47.89791" lon="1.91264">
        <ele>143</ele>
        <time>2013-09-29T09:25:59.000Z</time>
      </trkpt>
      <trkpt lat="47.89792" lon="1.91287">
        <ele>144</ele>
        <time>2013-09-29T09:26:03.000Z</time>
      </trkpt>
      <trkpt lat="47.89793" lon="1.91301">
        <ele>145</ele>
        <time>2013-09-29T09:26:05.000Z</time>
      </trkpt>
      <trkpt lat="47.89795" lon="1.91325">
        <ele>141</ele>
        <time>2013-09-29T09:26:09.000Z</time>
      </trkpt>
      <trkpt lat="47.89795" lon="1.91338">
        <ele>143</ele>
        <time>2013-09-29T09:26:11.000Z</time>
      </trkpt>
      <trkpt lat="47.89796" lon="1.91365">
        <ele>143</ele>
        <time>2013-09-29T09:26:15.000Z</time>
      </trkpt>
      <trkpt lat="47.89798" lon="1.91379">
        <ele>144</ele>
        <time>2013-09-29T09:26:17.000Z</time>
      </trkpt>
      <trkpt lat="47.89798" lon="1.91392">
        <ele>144</ele>
        <time>2013-09-29T09:26:19.000Z</time>
      </trkpt>
      <trkpt lat="47.89799" lon="1.91406">
        <ele>143</ele>
        <time>2013-09-29T09:26:21.000Z</time>
      </trkpt>
      <trkpt lat="47.89801" lon="1.91431">
        <ele>144</ele>
        <time>2013-09-29T09:26:25.000Z</time>
      </trkpt>
      <trkpt lat="47.89801" lon="1.91431">
        <ele>144</ele>
        <time>2013-09-29T09:26:27.000Z</time>
      </trkpt>
      <trkpt lat="47.89801" lon="1.91431">
        <ele>144</ele>
        <time>2013-09-29T09:26:29.000Z</time>
      </trkpt>
      <trkpt lat="47.89801" lon="1.91431">
        <ele>144</ele>
        <time>2013-09-29T09:26:31.000Z</time>
      </trkpt>
      <trkpt lat="47.89801" lon="1.91431">
        <ele>144</ele>
        <time>2013-09-29T09:26:33.000Z</time>
      </trkpt>
      <trkpt lat="47.89801" lon="1.91431">
        <ele>144</ele>
        <time>2013-09-29T09:26:35.000Z</time>
      </trkpt>
      <trkpt lat="47.89801" lon="1.91431">
        <ele>144</ele>
        <time>2013-09-29T09:26:37.000Z</time>
      </trkpt>
      <trkpt lat="47.89803" lon="1.91513">
        <ele>142</ele>
        <time>2013-09-29T09:26:43.000Z</time>
      </trkpt>
      <trkpt lat="47.89805" lon="1.91535">
        <ele>143</ele>
        <time>2013-09-29T09:26:47.000Z</time>
      </trkpt>
      <trkpt lat="47.89806" lon="1.91557">
        <ele>144</ele>
        <time>2013-09-29T09:26:51.000Z</time>
      </trkpt>
      <trkpt lat="47.89806" lon="1.91557">
        <ele>144</ele>
        <time>2013-09-29T09:26:53.000Z</time>
      </trkpt>
      <trkpt lat="47.89806" lon="1.91557">
        <ele>144</ele>
        <time>2013-09-29T09:26:55.000Z</time>
      </trkpt>
      <trkpt lat="47.89806" lon="1.91557">
        <ele>144</ele>
        <time>2013-09-29T09:26:57.000Z</time>
      </trkpt>
      <trkpt lat="47.89806" lon="1.91557">
        <ele>144</ele>
        <time>2013-09-29T09:26:58.000Z</time>
      </trkpt>
      <trkpt lat="47.89812" lon="1.91616">
        <ele>143</ele>
        <time>2013-09-29T09:27:05.000Z</time>
      </trkpt>
      <trkpt lat="47.89808" lon="1.91631">
        <ele>143</ele>
        <time>2013-09-29T09:27:09.000Z</time>
      </trkpt>
      <trkpt lat="47.89808" lon="1.91631">
        <ele>143</ele>
        <time>2013-09-29T09:27:11.000Z</time>
      </trkpt>
      <trkpt lat="47.89808" lon="1.91631">
        <ele>143</ele>
        <time>2013-09-29T09:27:12.000Z</time>
      </trkpt>
      <trkpt lat="47.89808" lon="1.91631">
        <ele>143</ele>
        <time>2013-09-29T09:27:15.000Z</time>
      </trkpt>
      <trkpt lat="47.89808" lon="1.91631">
        <ele>143</ele>
        <time>2013-09-29T09:27:17.000Z</time>
      </trkpt>
      <trkpt lat="47.89808" lon="1.91631">
        <ele>143</ele>
        <time>2013-09-29T09:27:18.000Z</time>
      </trkpt>
      <trkpt lat="47.89808" lon="1.91631">
        <ele>143</ele>
        <time>2013-09-29T09:27:21.000Z</time>
      </trkpt>
      <trkpt lat="47.89808" lon="1.91631">
        <ele>143</ele>
        <time>2013-09-29T09:27:22.000Z</time>
      </trkpt>
      <trkpt lat="47.89814" lon="1.91673">
        <ele>145</ele>
        <time>2013-09-29T09:27:27.000Z</time>
      </trkpt>
      <trkpt lat="47.89817" lon="1.917">
        <ele>144</ele>
        <time>2013-09-29T09:27:28.000Z</time>
      </trkpt>
      <trkpt lat="47.89819" lon="1.9172">
        <ele>144</ele>
        <time>2013-09-29T09:27:31.000Z</time>
      </trkpt>
      <trkpt lat="47.89822" lon="1.91736">
        <ele>146</ele>
        <time>2013-09-29T09:27:32.000Z</time>
      </trkpt>
      <trkpt lat="47.89824" lon="1.9175">
        <ele>149</ele>
        <time>2013-09-29T09:27:35.000Z</time>
      </trkpt>
      <trkpt lat="47.89828" lon="1.91773">
        <ele>149</ele>
        <time>2013-09-29T09:27:36.000Z</time>
      </trkpt>
      <trkpt lat="47.89828" lon="1.91773">
        <ele>149</ele>
        <time>2013-09-29T09:27:39.000Z</time>
      </trkpt>
      <trkpt lat="47.89828" lon="1.91773">
        <ele>149</ele>
        <time>2013-09-29T09:27:40.000Z</time>
      </trkpt>
      <trkpt lat="47.89828" lon="1.91773">
        <ele>149</ele>
        <time>2013-09-29T09:27:47.000Z</time>
      </trkpt>
      <trkpt lat="47.89828" lon="1.91773">
        <ele>149</ele>
        <time>2013-09-29T09:27:48.000Z</time>
      </trkpt>
      <trkpt lat="47.89828" lon="1.91773">
        <ele>149</ele>
        <time>2013-09-29T09:27:51.000Z</time>
      </trkpt>
      <trkpt lat="47.89828" lon="1.91773">
        <ele>149</ele>
        <time>2013-09-29T09:27:53.000Z</time>
      </trkpt>
      <trkpt lat="47.89828" lon="1.91773">
        <ele>149</ele>
        <time>2013-09-29T09:27:55.000Z</time>
      </trkpt>
      <trkpt lat="47.89847" lon="1.91875">
        <ele>156</ele>
        <time>2013-09-29T09:27:57.000Z</time>
      </trkpt>
      <trkpt lat="47.8985" lon="1.91888">
        <ele>155</ele>
        <time>2013-09-29T09:27:58.000Z</time>
      </trkpt>
      <trkpt lat="47.89854" lon="1.91911">
        <ele>153</ele>
        <time>2013-09-29T09:28:03.000Z</time>
      </trkpt>
      <trkpt lat="47.8986" lon="1.91932">
        <ele>151</ele>
        <time>2013-09-29T09:28:07.000Z</time>
      </trkpt>
      <trkpt lat="47.8986" lon="1.91932">
        <ele>151</ele>
        <time>2013-09-29T09:28:09.000Z</time>
      </trkpt>
      <trkpt lat="47.89862" lon="1.91955">
        <ele>150</ele>
        <time>2013-09-29T09:28:10.000Z</time>
      </trkpt>
      <trkpt lat="47.89868" lon="1.91978">
        <ele>148</ele>
        <time>2013-09-29T09:28:15.000Z</time>
      </trkpt>
      <trkpt lat="47.89867" lon="1.92002">
        <ele>148</ele>
        <time>2013-09-29T09:28:19.000Z</time>
      </trkpt>
      <trkpt lat="47.89867" lon="1.92022">
        <ele>146</ele>
        <time>2013-09-29T09:28:23.000Z</time>
      </trkpt>
      <trkpt lat="47.89867" lon="1.92022">
        <ele>146</ele>
        <time>2013-09-29T09:28:25.000Z</time>
      </trkpt>
      <trkpt lat="47.89867" lon="1.92022">
        <ele>146</ele>
        <time>2013-09-29T09:28:27.000Z</time>
      </trkpt>
      <trkpt lat="47.89867" lon="1.92022">
        <ele>146</ele>
        <time>2013-09-29T09:28:29.000Z</time>
      </trkpt>
      <trkpt lat="47.89867" lon="1.92022">
        <ele>146</ele>
        <time>2013-09-29T09:28:31.000Z</time>
      </trkpt>
      <trkpt lat="47.89867" lon="1.92022">
        <ele>146</ele>
        <time>2013-09-29T09:28:35.000Z</time>
      </trkpt>
      <trkpt lat="47.89867" lon="1.92022">
        <ele>146</ele>
        <time>2013-09-29T09:28:37.000Z</time>
      </trkpt>
      <trkpt lat="47.89867" lon="1.92022">
        <ele>146</ele>
        <time>2013-09-29T09:28:39.000Z</time>
      </trkpt>
      <trkpt lat="47.89867" lon="1.92022">
        <ele>146</ele>
        <time>2013-09-29T09:28:41.000Z</time>
      </trkpt>
      <trkpt lat="47.89882" lon="1.92125">
        <ele>150</ele>
        <time>2013-09-29T09:28:45.000Z</time>
      </trkpt>
      <trkpt lat="47.89886" lon="1.92147">
        <ele>149</ele>
        <time>2013-09-29T09:28:49.000Z</time>
      </trkpt>
      <trkpt lat="47.89891" lon="1.92171">
        <ele>150</ele>
        <time>2013-09-29T09:28:53.000Z</time>
      </trkpt>
      <trkpt lat="47.89896" lon="1.92193">
        <ele>150</ele>
        <time>2013-09-29T09:28:57.000Z</time>
      </trkpt>
      <trkpt lat="47.899" lon="1.92216">
        <ele>149</ele>
        <time>2013-09-29T09:29:01.000Z</time>
      </trkpt>
      <trkpt lat="47.899" lon="1.92216">
        <ele>149</ele>
        <time>2013-09-29T09:29:03.000Z</time>
      </trkpt>
      <trkpt lat="47.89901" lon="1.92228">
        <ele>146</ele>
        <time>2013-09-29T09:29:04.000Z</time>
      </trkpt>
      <trkpt lat="47.89902" lon="1.92242">
        <ele>147</ele>
        <time>2013-09-29T09:29:07.000Z</time>
      </trkpt>
      <trkpt lat="47.89904" lon="1.92255">
        <ele>147</ele>
        <time>2013-09-29T09:29:08.000Z</time>
      </trkpt>
      <trkpt lat="47.89906" lon="1.92268">
        <ele>146</ele>
        <time>2013-09-29T09:29:11.000Z</time>
      </trkpt>
      <trkpt lat="47.89909" lon="1.92281">
        <ele>146</ele>
        <time>2013-09-29T09:29:13.000Z</time>
      </trkpt>
      <trkpt lat="47.89913" lon="1.92309">
        <ele>146</ele>
        <time>2013-09-29T09:29:15.000Z</time>
      </trkpt>
      <trkpt lat="47.89915" lon="1.92322">
        <ele>147</ele>
        <time>2013-09-29T09:29:17.000Z</time>
      </trkpt>
      <trkpt lat="47.8992" lon="1.92347">
        <ele>147</ele>
        <time>2013-09-29T09:29:21.000Z</time>
      </trkpt>
      <trkpt lat="47.8992" lon="1.92347">
        <ele>147</ele>
        <time>2013-09-29T09:29:23.000Z</time>
      </trkpt>
      <trkpt lat="47.8992" lon="1.92347">
        <ele>147</ele>
        <time>2013-09-29T09:29:24.000Z</time>
      </trkpt>
      <trkpt lat="47.8993" lon="1.92402">
        <ele>143</ele>
        <time>2013-09-29T09:29:29.000Z</time>
      </trkpt>
      <trkpt lat="47.89932" lon="1.92416">
        <ele>143</ele>
        <time>2013-09-29T09:29:31.000Z</time>
      </trkpt>
      <trkpt lat="47.89935" lon="1.9243">
        <ele>144</ele>
        <time>2013-09-29T09:29:32.000Z</time>
      </trkpt>
      <trkpt lat="47.89937" lon="1.92444">
        <ele>144</ele>
        <time>2013-09-29T09:29:35.000Z</time>
      </trkpt>
      <trkpt lat="47.89939" lon="1.92458">
        <ele>144</ele>
        <time>2013-09-29T09:29:36.000Z</time>
      </trkpt>
      <trkpt lat="47.89941" lon="1.92472">
        <ele>144</ele>
        <time>2013-09-29T09:29:39.000Z</time>
      </trkpt>
      <trkpt lat="47.89943" lon="1.92486">
        <ele>144</ele>
        <time>2013-09-29T09:29:40.000Z</time>
      </trkpt>
      <trkpt lat="47.89945" lon="1.925">
        <ele>144</ele>
        <time>2013-09-29T09:29:43.000Z</time>
      </trkpt>
      <trkpt lat="47.89948" lon="1.92514">
        <ele>144</ele>
        <time>2013-09-29T09:29:45.000Z</time>
      </trkpt>
      <trkpt lat="47.89948" lon="1.92514">
        <ele>144</ele>
        <time>2013-09-29T09:29:47.000Z</time>
      </trkpt>
      <trkpt lat="47.89952" lon="1.92544">
        <ele>144</ele>
        <time>2013-09-29T09:29:49.000Z</time>
      </trkpt>
      <trkpt lat="47.89956" lon="1.92557">
        <ele>145</ele>
        <time>2013-09-29T09:29:51.000Z</time>
      </trkpt>
      <trkpt lat="47.89957" lon="1.92571">
        <ele>145</ele>
        <time>2013-09-29T09:29:53.000Z</time>
      </trkpt>
      <trkpt lat="47.89959" lon="1.92586">
        <ele>144</ele>
        <time>2013-09-29T09:29:55.000Z</time>
      </trkpt>
      <trkpt lat="47.89962" lon="1.926">
        <ele>144</ele>
        <time>2013-09-29T09:29:57.000Z</time>
      </trkpt>
      <trkpt lat="47.89964" lon="1.92614">
        <ele>144</ele>
        <time>2013-09-29T09:29:59.000Z</time>
      </trkpt>
      <trkpt lat="47.89967" lon="1.92629">
        <ele>144</ele>
        <time>2013-09-29T09:30:00.000Z</time>
      </trkpt>
      <trkpt lat="47.8997" lon="1.92643">
        <ele>144</ele>
        <time>2013-09-29T09:30:03.000Z</time>
      </trkpt>
      <trkpt lat="47.89973" lon="1.92657">
        <ele>144</ele>
        <time>2013-09-29T09:30:04.000Z</time>
      </trkpt>
      <trkpt lat="47.89975" lon="1.92672">
        <ele>144</ele>
        <time>2013-09-29T09:30:07.000Z</time>
      </trkpt>
      <trkpt lat="47.89975" lon="1.92672">
        <ele>144</ele>
        <time>2013-09-29T09:30:09.000Z</time>
      </trkpt>
      <trkpt lat="47.89975" lon="1.92672">
        <ele>144</ele>
        <time>2013-09-29T09:30:11.000Z</time>
      </trkpt>
      <trkpt lat="47.89975" lon="1.92672">
        <ele>144</ele>
        <time>2013-09-29T09:30:13.000Z</time>
      </trkpt>
      <trkpt lat="47.89975" lon="1.92672">
        <ele>144</ele>
        <time>2013-09-29T09:30:15.000Z</time>
      </trkpt>
      <trkpt lat="47.89988" lon="1.92742">
        <ele>145</ele>
        <time>2013-09-29T09:30:25.000Z</time>
      </trkpt>
      <trkpt lat="47.8999" lon="1.92767">
        <ele>145</ele>
        <time>2013-09-29T09:30:29.000Z</time>
      </trkpt>
      <trkpt lat="47.89995" lon="1.92793">
        <ele>144</ele>
        <time>2013-09-29T09:30:33.000Z</time>
      </trkpt>
      <trkpt lat="47.89998" lon="1.92817">
        <ele>144</ele>
        <time>2013-09-29T09:30:37.000Z</time>
      </trkpt>
      <trkpt lat="47.89998" lon="1.92817">
        <ele>144</ele>
        <time>2013-09-29T09:30:39.000Z</time>
      </trkpt>
      <trkpt lat="47.89998" lon="1.92817">
        <ele>144</ele>
        <time>2013-09-29T09:30:40.000Z</time>
      </trkpt>
      <trkpt lat="47.89998" lon="1.92817">
        <ele>144</ele>
        <time>2013-09-29T09:30:42.000Z</time>
      </trkpt>
      <trkpt lat="47.89998" lon="1.92817">
        <ele>144</ele>
        <time>2013-09-29T09:30:45.000Z</time>
      </trkpt>
      <trkpt lat="47.89998" lon="1.92817">
        <ele>144</ele>
        <time>2013-09-29T09:30:51.000Z</time>
      </trkpt>
      <trkpt lat="47.89998" lon="1.92817">
        <ele>144</ele>
        <time>2013-09-29T09:30:52.000Z</time>
      </trkpt>
      <trkpt lat="47.89998" lon="1.92817">
        <ele>144</ele>
        <time>2013-09-29T09:30:55.000Z</time>
      </trkpt>
      <trkpt lat="47.89998" lon="1.92817">
        <ele>144</ele>
        <time>2013-09-29T09:30:57.000Z</time>
      </trkpt>
      <trkpt lat="47.89998" lon="1.92817">
        <ele>144</ele>
        <time>2013-09-29T09:30:59.000Z</time>
      </trkpt>
      <trkpt lat="47.89998" lon="1.92817">
        <ele>144</ele>
        <time>2013-09-29T09:31:01.000Z</time>
      </trkpt>
      <trkpt lat="47.89998" lon="1.92817">
        <ele>144</ele>
        <time>2013-09-29T09:31:03.000Z</time>
      </trkpt>
      <trkpt lat="47.90025" lon="1.92962">
        <ele>144</ele>
        <time>2013-09-29T09:31:04.000Z</time>
      </trkpt>
      <trkpt lat="47.90026" lon="1.92973">
        <ele>144</ele>
        <time>2013-09-29T09:31:09.000Z</time>
      </trkpt>
      <trkpt lat="47.90028" lon="1.92984">
        <ele>144</ele>
        <time>2013-09-29T09:31:11.000Z</time>
      </trkpt>
      <trkpt lat="47.9003" lon="1.92995">
        <ele>144</ele>
        <time>2013-09-29T09:31:12.000Z</time>
      </trkpt>
      <trkpt lat="47.9003" lon="1.92995">
        <ele>144</ele>
        <time>2013-09-29T09:31:15.000Z</time>
      </trkpt>
      <trkpt lat="47.9003" lon="1.92995">
        <ele>144</ele>
        <time>2013-09-29T09:31:17.000Z</time>
      </trkpt>
      <trkpt lat="47.9003" lon="1.92995">
        <ele>144</ele>
        <time>2013-09-29T09:31:18.000Z</time>
      </trkpt>
      <trkpt lat="47.9003" lon="1.92995">
        <ele>144</ele>
        <time>2013-09-29T09:31:21.000Z</time>
      </trkpt>
      <trkpt lat="47.9003" lon="1.92995">
        <ele>144</ele>
        <time>2013-09-29T09:31:22.000Z</time>
      </trkpt>
      <trkpt lat="47.9003" lon="1.92995">
        <ele>144</ele>
        <time>2013-09-29T09:31:25.000Z</time>
      </trkpt>
      <trkpt lat="47.9003" lon="1.92995">
        <ele>144</ele>
        <time>2013-09-29T09:31:27.000Z</time>
      </trkpt>
      <trkpt lat="47.9003" lon="1.92995">
        <ele>144</ele>
        <time>2013-09-29T09:31:29.000Z</time>
      </trkpt>
      <trkpt lat="47.9003" lon="1.92995">
        <ele>144</ele>
        <time>2013-09-29T09:31:31.000Z</time>
      </trkpt>
      <trkpt lat="47.9004" lon="1.93062">
        <ele>144</ele>
        <time>2013-09-29T09:31:35.000Z</time>
      </trkpt>
      <trkpt lat="47.90046" lon="1.93102">
        <ele>144</ele>
        <time>2013-09-29T09:31:36.000Z</time>
      </trkpt>
      <trkpt lat="47.90051" lon="1.93128">
        <ele>144</ele>
        <time>2013-09-29T09:31:38.000Z</time>
      </trkpt>
      <trkpt lat="47.90053" lon="1.93147">
        <ele>144</ele>
        <time>2013-09-29T09:31:40.000Z</time>
      </trkpt>
      <trkpt lat="47.90055" lon="1.93163">
        <ele>145</ele>
        <time>2013-09-29T09:31:43.000Z</time>
      </trkpt>
      <trkpt lat="47.90058" lon="1.93192">
        <ele>145</ele>
        <time>2013-09-29T09:31:45.000Z</time>
      </trkpt>
      <trkpt lat="47.90059" lon="1.93207">
        <ele>145</ele>
        <time>2013-09-29T09:31:47.000Z</time>
      </trkpt>
      <trkpt lat="47.90061" lon="1.93222">
        <ele>145</ele>
        <time>2013-09-29T09:31:49.000Z</time>
      </trkpt>
      <trkpt lat="47.90062" lon="1.93237">
        <ele>144</ele>
        <time>2013-09-29T09:31:51.000Z</time>
      </trkpt>
      <trkpt lat="47.90063" lon="1.93253">
        <ele>144</ele>
        <time>2013-09-29T09:31:52.000Z</time>
      </trkpt>
      <trkpt lat="47.90064" lon="1.93269">
        <ele>144</ele>
        <time>2013-09-29T09:31:55.000Z</time>
      </trkpt>
      <trkpt lat="47.90065" lon="1.93285">
        <ele>144</ele>
        <time>2013-09-29T09:31:57.000Z</time>
      </trkpt>
      <trkpt lat="47.90067" lon="1.93301">
        <ele>144</ele>
        <time>2013-09-29T09:31:58.000Z</time>
      </trkpt>
      <trkpt lat="47.90069" lon="1.93317">
        <ele>145</ele>
        <time>2013-09-29T09:32:01.000Z</time>
      </trkpt>
      <trkpt lat="47.9007" lon="1.93333">
        <ele>145</ele>
        <time>2013-09-29T09:32:03.000Z</time>
      </trkpt>
      <trkpt lat="47.90071" lon="1.93348">
        <ele>145</ele>
        <time>2013-09-29T09:32:05.000Z</time>
      </trkpt>
      <trkpt lat="47.90071" lon="1.93348">
        <ele>145</ele>
        <time>2013-09-29T09:32:07.000Z</time>
      </trkpt>
      <trkpt lat="47.90071" lon="1.93348">
        <ele>145</ele>
        <time>2013-09-29T09:32:09.000Z</time>
      </trkpt>
      <trkpt lat="47.90077" lon="1.93412">
        <ele>146</ele>
        <time>2013-09-29T09:32:13.000Z</time>
      </trkpt>
      <trkpt lat="47.9008" lon="1.93429">
        <ele>146</ele>
        <time>2013-09-29T09:32:15.000Z</time>
      </trkpt>
      <trkpt lat="47.9008" lon="1.93446">
        <ele>145</ele>
        <time>2013-09-29T09:32:17.000Z</time>
      </trkpt>
      <trkpt lat="47.9008" lon="1.93446">
        <ele>145</ele>
        <time>2013-09-29T09:32:19.000Z</time>
      </trkpt>
      <trkpt lat="47.9008" lon="1.93446">
        <ele>145</ele>
        <time>2013-09-29T09:32:20.000Z</time>
      </trkpt>
      <trkpt lat="47.9008" lon="1.93446">
        <ele>145</ele>
        <time>2013-09-29T09:32:23.000Z</time>
      </trkpt>
      <trkpt lat="47.9008" lon="1.93446">
        <ele>145</ele>
        <time>2013-09-29T09:32:25.000Z</time>
      </trkpt>
      <trkpt lat="47.9008" lon="1.93446">
        <ele>145</ele>
        <time>2013-09-29T09:32:27.000Z</time>
      </trkpt>
      <trkpt lat="47.9008" lon="1.93446">
        <ele>145</ele>
        <time>2013-09-29T09:32:29.000Z</time>
      </trkpt>
      <trkpt lat="47.9008" lon="1.93446">
        <ele>145</ele>
        <time>2013-09-29T09:32:35.000Z</time>
      </trkpt>
      <trkpt lat="47.9008" lon="1.93446">
        <ele>145</ele>
        <time>2013-09-29T09:32:37.000Z</time>
      </trkpt>
      <trkpt lat="47.90112" lon="1.93602">
        <ele>142</ele>
        <time>2013-09-29T09:32:41.000Z</time>
      </trkpt>
      <trkpt lat="47.90115" lon="1.93617">
        <ele>143</ele>
        <time>2013-09-29T09:32:42.000Z</time>
      </trkpt>
      <trkpt lat="47.9012" lon="1.9363">
        <ele>143</ele>
        <time>2013-09-29T09:32:45.000Z</time>
      </trkpt>
      <trkpt lat="47.90124" lon="1.93643">
        <ele>144</ele>
        <time>2013-09-29T09:32:47.000Z</time>
      </trkpt>
      <trkpt lat="47.90129" lon="1.93657">
        <ele>144</ele>
        <time>2013-09-29T09:32:49.000Z</time>
      </trkpt>
      <trkpt lat="47.90134" lon="1.93671">
        <ele>144</ele>
        <time>2013-09-29T09:32:51.000Z</time>
      </trkpt>
      <trkpt lat="47.90138" lon="1.93685">
        <ele>144</ele>
        <time>2013-09-29T09:32:52.000Z</time>
      </trkpt>
      <trkpt lat="47.90142" lon="1.93699">
        <ele>144</ele>
        <time>2013-09-29T09:32:55.000Z</time>
      </trkpt>
      <trkpt lat="47.90148" lon="1.93714">
        <ele>144</ele>
        <time>2013-09-29T09:32:57.000Z</time>
      </trkpt>
      <trkpt lat="47.90155" lon="1.93729">
        <ele>144</ele>
        <time>2013-09-29T09:32:58.000Z</time>
      </trkpt>
      <trkpt lat="47.90159" lon="1.93743">
        <ele>144</ele>
        <time>2013-09-29T09:33:01.000Z</time>
      </trkpt>
      <trkpt lat="47.90165" lon="1.93758">
        <ele>144</ele>
        <time>2013-09-29T09:33:03.000Z</time>
      </trkpt>
      <trkpt lat="47.90165" lon="1.93758">
        <ele>144</ele>
        <time>2013-09-29T09:33:05.000Z</time>
      </trkpt>
      <trkpt lat="47.90165" lon="1.93758">
        <ele>144</ele>
        <time>2013-09-29T09:33:07.000Z</time>
      </trkpt>
      <trkpt lat="47.90165" lon="1.93758">
        <ele>144</ele>
        <time>2013-09-29T09:33:09.000Z</time>
      </trkpt>
      <trkpt lat="47.90193" lon="1.93853">
        <ele>144</ele>
        <time>2013-09-29T09:33:17.000Z</time>
      </trkpt>
      <trkpt lat="47.90197" lon="1.93864">
        <ele>144</ele>
        <time>2013-09-29T09:33:19.000Z</time>
      </trkpt>
      <trkpt lat="47.90202" lon="1.93877">
        <ele>145</ele>
        <time>2013-09-29T09:33:21.000Z</time>
      </trkpt>
      <trkpt lat="47.90206" lon="1.93891">
        <ele>146</ele>
        <time>2013-09-29T09:33:23.000Z</time>
      </trkpt>
      <trkpt lat="47.90211" lon="1.93903">
        <ele>145</ele>
        <time>2013-09-29T09:33:25.000Z</time>
      </trkpt>
      <trkpt lat="47.90215" lon="1.93918">
        <ele>146</ele>
        <time>2013-09-29T09:33:27.000Z</time>
      </trkpt>
      <trkpt lat="47.90219" lon="1.93931">
        <ele>147</ele>
        <time>2013-09-29T09:33:29.000Z</time>
      </trkpt>
      <trkpt lat="47.90219" lon="1.93931">
        <ele>147</ele>
        <time>2013-09-29T09:33:30.000Z</time>
      </trkpt>
      <trkpt lat="47.90219" lon="1.93931">
        <ele>147</ele>
        <time>2013-09-29T09:33:32.000Z</time>
      </trkpt>
      <trkpt lat="47.90219" lon="1.93931">
        <ele>147</ele>
        <time>2013-09-29T09:33:35.000Z</time>
      </trkpt>
      <trkpt lat="47.90219" lon="1.93931">
        <ele>147</ele>
        <time>2013-09-29T09:33:37.000Z</time>
      </trkpt>
      <trkpt lat="47.90219" lon="1.93931">
        <ele>147</ele>
        <time>2013-09-29T09:33:38.000Z</time>
      </trkpt>
      <trkpt lat="47.90219" lon="1.93931">
        <ele>147</ele>
        <time>2013-09-29T09:33:41.000Z</time>
      </trkpt>
      <trkpt lat="47.90219" lon="1.93931">
        <ele>147</ele>
        <time>2013-09-29T09:33:43.000Z</time>
      </trkpt>
      <trkpt lat="47.90219" lon="1.93931">
        <ele>147</ele>
        <time>2013-09-29T09:33:45.000Z</time>
      </trkpt>
      <trkpt lat="47.90219" lon="1.93931">
        <ele>147</ele>
        <time>2013-09-29T09:33:46.000Z</time>
      </trkpt>
      <trkpt lat="47.90219" lon="1.93931">
        <ele>147</ele>
        <time>2013-09-29T09:33:49.000Z</time>
      </trkpt>
      <trkpt lat="47.90219" lon="1.93931">
        <ele>147</ele>
        <time>2013-09-29T09:33:51.000Z</time>
      </trkpt>
      <trkpt lat="47.9024" lon="1.94003">
        <ele>150</ele>
        <time>2013-09-29T09:33:57.000Z</time>
      </trkpt>
      <trkpt lat="47.90252" lon="1.94044">
        <ele>149</ele>
        <time>2013-09-29T09:33:59.000Z</time>
      </trkpt>
      <trkpt lat="47.90258" lon="1.94068">
        <ele>150</ele>
        <time>2013-09-29T09:34:01.000Z</time>
      </trkpt>
      <trkpt lat="47.90258" lon="1.94068">
        <ele>150</ele>
        <time>2013-09-29T09:34:02.000Z</time>
      </trkpt>
      <trkpt lat="47.90258" lon="1.94068">
        <ele>150</ele>
        <time>2013-09-29T09:34:05.000Z</time>
      </trkpt>
      <trkpt lat="47.90258" lon="1.94068">
        <ele>150</ele>
        <time>2013-09-29T09:34:06.000Z</time>
      </trkpt>
      <trkpt lat="47.90265" lon="1.94114">
        <ele>149</ele>
        <time>2013-09-29T09:34:15.000Z</time>
      </trkpt>
      <trkpt lat="47.90268" lon="1.94144">
        <ele>150</ele>
        <time>2013-09-29T09:34:16.000Z</time>
      </trkpt>
      <trkpt lat="47.9027" lon="1.94166">
        <ele>152</ele>
        <time>2013-09-29T09:34:19.000Z</time>
      </trkpt>
      <trkpt lat="47.90271" lon="1.94184">
        <ele>151</ele>
        <time>2013-09-29T09:34:21.000Z</time>
      </trkpt>
      <trkpt lat="47.90271" lon="1.942">
        <ele>151</ele>
        <time>2013-09-29T09:34:23.000Z</time>
      </trkpt>
      <trkpt lat="47.90273" lon="1.94232">
        <ele>151</ele>
        <time>2013-09-29T09:34:25.000Z</time>
      </trkpt>
      <trkpt lat="47.90273" lon="1.94248">
        <ele>151</ele>
        <time>2013-09-29T09:34:27.000Z</time>
      </trkpt>
      <trkpt lat="47.90273" lon="1.94265">
        <ele>151</ele>
        <time>2013-09-29T09:34:28.000Z</time>
      </trkpt>
      <trkpt lat="47.90272" lon="1.94281">
        <ele>150</ele>
        <time>2013-09-29T09:34:31.000Z</time>
      </trkpt>
      <trkpt lat="47.9027" lon="1.94297">
        <ele>150</ele>
        <time>2013-09-29T09:34:32.000Z</time>
      </trkpt>
      <trkpt lat="47.90269" lon="1.94314">
        <ele>150</ele>
        <time>2013-09-29T09:34:35.000Z</time>
      </trkpt>
      <trkpt lat="47.90272" lon="1.94331">
        <ele>150</ele>
        <time>2013-09-29T09:34:37.000Z</time>
      </trkpt>
      <trkpt lat="47.90274" lon="1.94347">
        <ele>150</ele>
        <time>2013-09-29T09:34:38.000Z</time>
      </trkpt>
      <trkpt lat="47.90278" lon="1.94363">
        <ele>150</ele>
        <time>2013-09-29T09:34:41.000Z</time>
      </trkpt>
      <trkpt lat="47.90281" lon="1.94379">
        <ele>150</ele>
        <time>2013-09-29T09:34:42.000Z</time>
      </trkpt>
      <trkpt lat="47.90285" lon="1.94395">
        <ele>150</ele>
        <time>2013-09-29T09:34:45.000Z</time>
      </trkpt>
      <trkpt lat="47.90289" lon="1.9441">
        <ele>150</ele>
        <time>2013-09-29T09:34:46.000Z</time>
      </trkpt>
      <trkpt lat="47.90294" lon="1.94426">
        <ele>150</ele>
        <time>2013-09-29T09:34:49.000Z</time>
      </trkpt>
      <trkpt lat="47.90297" lon="1.9444">
        <ele>150</ele>
        <time>2013-09-29T09:34:51.000Z</time>
      </trkpt>
      <trkpt lat="47.90301" lon="1.94455">
        <ele>150</ele>
        <time>2013-09-29T09:34:53.000Z</time>
      </trkpt>
      <trkpt lat="47.90306" lon="1.94474">
        <ele>150</ele>
        <time>2013-09-29T09:34:55.000Z</time>
      </trkpt>
      <trkpt lat="47.90309" lon="1.94493">
        <ele>150</ele>
        <time>2013-09-29T09:34:57.000Z</time>
      </trkpt>
      <trkpt lat="47.90312" lon="1.94509">
        <ele>150</ele>
        <time>2013-09-29T09:34:59.000Z</time>
      </trkpt>
      <trkpt lat="47.90316" lon="1.94526">
        <ele>149</ele>
        <time>2013-09-29T09:35:01.000Z</time>
      </trkpt>
      <trkpt lat="47.90321" lon="1.94542">
        <ele>148</ele>
        <time>2013-09-29T09:35:03.000Z</time>
      </trkpt>
      <trkpt lat="47.90325" lon="1.94559">
        <ele>147</ele>
        <time>2013-09-29T09:35:04.000Z</time>
      </trkpt>
      <trkpt lat="47.90329" lon="1.94577">
        <ele>147</ele>
        <time>2013-09-29T09:35:07.000Z</time>
      </trkpt>
      <trkpt lat="47.90333" lon="1.94594">
        <ele>147</ele>
        <time>2013-09-29T09:35:09.000Z</time>
      </trkpt>
      <trkpt lat="47.90336" lon="1.9461">
        <ele>147</ele>
        <time>2013-09-29T09:35:11.000Z</time>
      </trkpt>
      <trkpt lat="47.90339" lon="1.94627">
        <ele>148</ele>
        <time>2013-09-29T09:35:13.000Z</time>
      </trkpt>
      <trkpt lat="47.90342" lon="1.94645">
        <ele>148</ele>
        <time>2013-09-29T09:35:14.000Z</time>
      </trkpt>
      <trkpt lat="47.90344" lon="1.94663">
        <ele>147</ele>
        <time>2013-09-29T09:35:17.000Z</time>
      </trkpt>
      <trkpt lat="47.90347" lon="1.94679">
        <ele>147</ele>
        <time>2013-09-29T09:35:19.000Z</time>
      </trkpt>
      <trkpt lat="47.90349" lon="1.94696">
        <ele>147</ele>
        <time>2013-09-29T09:35:21.000Z</time>
      </trkpt>
      <trkpt lat="47.90351" lon="1.94712">
        <ele>147</ele>
        <time>2013-09-29T09:35:23.000Z</time>
      </trkpt>
      <trkpt lat="47.90355" lon="1.94728">
        <ele>147</ele>
        <time>2013-09-29T09:35:25.000Z</time>
      </trkpt>
      <trkpt lat="47.90357" lon="1.94743">
        <ele>147</ele>
        <time>2013-09-29T09:35:27.000Z</time>
      </trkpt>
      <trkpt lat="47.9036" lon="1.94759">
        <ele>148</ele>
        <time>2013-09-29T09:35:28.000Z</time>
      </trkpt>
      <trkpt lat="47.90362" lon="1.94776">
        <ele>147</ele>
        <time>2013-09-29T09:35:31.000Z</time>
      </trkpt>
      <trkpt lat="47.90364" lon="1.94792">
        <ele>147</ele>
        <time>2013-09-29T09:35:32.000Z</time>
      </trkpt>
      <trkpt lat="47.90367" lon="1.9481">
        <ele>147</ele>
        <time>2013-09-29T09:35:34.000Z</time>
      </trkpt>
      <trkpt lat="47.90369" lon="1.94827">
        <ele>146</ele>
        <time>2013-09-29T09:35:37.000Z</time>
      </trkpt>
      <trkpt lat="47.90372" lon="1.94843">
        <ele>146</ele>
        <time>2013-09-29T09:35:39.000Z</time>
      </trkpt>
      <trkpt lat="47.90376" lon="1.94861">
        <ele>147</ele>
        <time>2013-09-29T09:35:41.000Z</time>
      </trkpt>
      <trkpt lat="47.90379" lon="1.94879">
        <ele>147</ele>
        <time>2013-09-29T09:35:43.000Z</time>
      </trkpt>
      <trkpt lat="47.9038" lon="1.94897">
        <ele>148</ele>
        <time>2013-09-29T09:35:45.000Z</time>
      </trkpt>
      <trkpt lat="47.90382" lon="1.94915">
        <ele>147</ele>
        <time>2013-09-29T09:35:47.000Z</time>
      </trkpt>
      <trkpt lat="47.90383" lon="1.94933">
        <ele>146</ele>
        <time>2013-09-29T09:35:49.000Z</time>
      </trkpt>
      <trkpt lat="47.90384" lon="1.94951">
        <ele>145</ele>
        <time>2013-09-29T09:35:51.000Z</time>
      </trkpt>
      <trkpt lat="47.90386" lon="1.94969">
        <ele>144</ele>
        <time>2013-09-29T09:35:53.000Z</time>
      </trkpt>
      <trkpt lat="47.90388" lon="1.94986">
        <ele>144</ele>
        <time>2013-09-29T09:35:55.000Z</time>
      </trkpt>
      <trkpt lat="47.90389" lon="1.95004">
        <ele>145</ele>
        <time>2013-09-29T09:35:56.000Z</time>
      </trkpt>
      <trkpt lat="47.9039" lon="1.95022">
        <ele>145</ele>
        <time>2013-09-29T09:35:59.000Z</time>
      </trkpt>
      <trkpt lat="47.90392" lon="1.9504">
        <ele>144</ele>
        <time>2013-09-29T09:36:00.000Z</time>
      </trkpt>
      <trkpt lat="47.90394" lon="1.95057">
        <ele>145</ele>
        <time>2013-09-29T09:36:02.000Z</time>
      </trkpt>
      <trkpt lat="47.90396" lon="1.95073">
        <ele>145</ele>
        <time>2013-09-29T09:36:05.000Z</time>
      </trkpt>
      <trkpt lat="47.90398" lon="1.95088">
        <ele>144</ele>
        <time>2013-09-29T09:36:07.000Z</time>
      </trkpt>
      <trkpt lat="47.90399" lon="1.95106">
        <ele>144</ele>
        <time>2013-09-29T09:36:09.000Z</time>
      </trkpt>
      <trkpt lat="47.904" lon="1.95122">
        <ele>144</ele>
        <time>2013-09-29T09:36:11.000Z</time>
      </trkpt>
      <trkpt lat="47.90403" lon="1.95141">
        <ele>143</ele>
        <time>2013-09-29T09:36:13.000Z</time>
      </trkpt>
      <trkpt lat="47.90404" lon="1.95158">
        <ele>144</ele>
        <time>2013-09-29T09:36:15.000Z</time>
      </trkpt>
      <trkpt lat="47.90405" lon="1.95174">
        <ele>144</ele>
        <time>2013-09-29T09:36:17.000Z</time>
      </trkpt>
      <trkpt lat="47.90407" lon="1.95191">
        <ele>144</ele>
        <time>2013-09-29T09:36:18.000Z</time>
      </trkpt>
      <trkpt lat="47.90407" lon="1.95209">
        <ele>144</ele>
        <time>2013-09-29T09:36:21.000Z</time>
      </trkpt>
      <trkpt lat="47.90408" lon="1.95228">
        <ele>144</ele>
        <time>2013-09-29T09:36:23.000Z</time>
      </trkpt>
      <trkpt lat="47.90409" lon="1.95246">
        <ele>144</ele>
        <time>2013-09-29T09:36:25.000Z</time>
      </trkpt>
      <trkpt lat="47.90409" lon="1.95265">
        <ele>144</ele>
        <time>2013-09-29T09:36:27.000Z</time>
      </trkpt>
      <trkpt lat="47.90409" lon="1.95284">
        <ele>144</ele>
        <time>2013-09-29T09:36:29.000Z</time>
      </trkpt>
      <trkpt lat="47.90409" lon="1.95302">
        <ele>144</ele>
        <time>2013-09-29T09:36:31.000Z</time>
      </trkpt>
      <trkpt lat="47.90409" lon="1.95321">
        <ele>145</ele>
        <time>2013-09-29T09:36:33.000Z</time>
      </trkpt>
      <trkpt lat="47.9041" lon="1.95341">
        <ele>146</ele>
        <time>2013-09-29T09:36:35.000Z</time>
      </trkpt>
      <trkpt lat="47.90409" lon="1.95362">
        <ele>146</ele>
        <time>2013-09-29T09:36:36.000Z</time>
      </trkpt>
      <trkpt lat="47.9041" lon="1.9538">
        <ele>146</ele>
        <time>2013-09-29T09:36:39.000Z</time>
      </trkpt>
      <trkpt lat="47.9041" lon="1.95398">
        <ele>146</ele>
        <time>2013-09-29T09:36:41.000Z</time>
      </trkpt>
      <trkpt lat="47.90409" lon="1.95416">
        <ele>146</ele>
        <time>2013-09-29T09:36:43.000Z</time>
      </trkpt>
      <trkpt lat="47.90409" lon="1.95434">
        <ele>146</ele>
        <time>2013-09-29T09:36:45.000Z</time>
      </trkpt>
      <trkpt lat="47.90409" lon="1.95452">
        <ele>146</ele>
        <time>2013-09-29T09:36:47.000Z</time>
      </trkpt>
      <trkpt lat="47.90407" lon="1.9547">
        <ele>146</ele>
        <time>2013-09-29T09:36:49.000Z</time>
      </trkpt>
      <trkpt lat="47.90406" lon="1.95489">
        <ele>146</ele>
        <time>2013-09-29T09:36:51.000Z</time>
      </trkpt>
      <trkpt lat="47.90406" lon="1.95508">
        <ele>146</ele>
        <time>2013-09-29T09:36:53.000Z</time>
      </trkpt>
      <trkpt lat="47.90404" lon="1.95526">
        <ele>146</ele>
        <time>2013-09-29T09:36:55.000Z</time>
      </trkpt>
      <trkpt lat="47.90404" lon="1.95544">
        <ele>146</ele>
        <time>2013-09-29T09:36:57.000Z</time>
      </trkpt>
      <trkpt lat="47.90403" lon="1.95562">
        <ele>145</ele>
        <time>2013-09-29T09:36:59.000Z</time>
      </trkpt>
      <trkpt lat="47.90402" lon="1.95581">
        <ele>145</ele>
        <time>2013-09-29T09:37:01.000Z</time>
      </trkpt>
      <trkpt lat="47.90401" lon="1.956">
        <ele>146</ele>
        <time>2013-09-29T09:37:03.000Z</time>
      </trkpt>
      <trkpt lat="47.90401" lon="1.95618">
        <ele>146</ele>
        <time>2013-09-29T09:37:05.000Z</time>
      </trkpt>
      <trkpt lat="47.904" lon="1.95637">
        <ele>146</ele>
        <time>2013-09-29T09:37:07.000Z</time>
      </trkpt>
      <trkpt lat="47.90399" lon="1.95655">
        <ele>146</ele>
        <time>2013-09-29T09:37:09.000Z</time>
      </trkpt>
      <trkpt lat="47.90398" lon="1.95675">
        <ele>145</ele>
        <time>2013-09-29T09:37:11.000Z</time>
      </trkpt>
      <trkpt lat="47.90398" lon="1.95694">
        <ele>145</ele>
        <time>2013-09-29T09:37:13.000Z</time>
      </trkpt>
      <trkpt lat="47.90396" lon="1.95713">
        <ele>145</ele>
        <time>2013-09-29T09:37:14.000Z</time>
      </trkpt>
      <trkpt lat="47.90395" lon="1.95733">
        <ele>145</ele>
        <time>2013-09-29T09:37:17.000Z</time>
      </trkpt>
      <trkpt lat="47.90395" lon="1.95751">
        <ele>145</ele>
        <time>2013-09-29T09:37:18.000Z</time>
      </trkpt>
      <trkpt lat="47.90393" lon="1.95771">
        <ele>146</ele>
        <time>2013-09-29T09:37:21.000Z</time>
      </trkpt>
      <trkpt lat="47.90392" lon="1.9579">
        <ele>146</ele>
        <time>2013-09-29T09:37:22.000Z</time>
      </trkpt>
      <trkpt lat="47.90391" lon="1.95809">
        <ele>146</ele>
        <time>2013-09-29T09:37:25.000Z</time>
      </trkpt>
      <trkpt lat="47.9039" lon="1.95828">
        <ele>146</ele>
        <time>2013-09-29T09:37:27.000Z</time>
      </trkpt>
      <trkpt lat="47.90389" lon="1.95847">
        <ele>146</ele>
        <time>2013-09-29T09:37:29.000Z</time>
      </trkpt>
      <trkpt lat="47.90387" lon="1.95866">
        <ele>146</ele>
        <time>2013-09-29T09:37:31.000Z</time>
      </trkpt>
      <trkpt lat="47.90386" lon="1.95882">
        <ele>147</ele>
        <time>2013-09-29T09:37:32.000Z</time>
      </trkpt>
      <trkpt lat="47.90385" lon="1.95901">
        <ele>147</ele>
        <time>2013-09-29T09:37:35.000Z</time>
      </trkpt>
      <trkpt lat="47.90383" lon="1.95918">
        <ele>146</ele>
        <time>2013-09-29T09:37:37.000Z</time>
      </trkpt>
      <trkpt lat="47.9038" lon="1.95936">
        <ele>146</ele>
        <time>2013-09-29T09:37:39.000Z</time>
      </trkpt>
      <trkpt lat="47.90379" lon="1.95954">
        <ele>146</ele>
        <time>2013-09-29T09:37:41.000Z</time>
      </trkpt>
      <trkpt lat="47.90378" lon="1.95972">
        <ele>146</ele>
        <time>2013-09-29T09:37:42.000Z</time>
      </trkpt>
      <trkpt lat="47.90376" lon="1.9599">
        <ele>147</ele>
        <time>2013-09-29T09:37:45.000Z</time>
      </trkpt>
      <trkpt lat="47.90376" lon="1.96006">
        <ele>146</ele>
        <time>2013-09-29T09:37:47.000Z</time>
      </trkpt>
      <trkpt lat="47.90374" lon="1.96026">
        <ele>147</ele>
        <time>2013-09-29T09:37:48.000Z</time>
      </trkpt>
      <trkpt lat="47.90372" lon="1.96044">
        <ele>147</ele>
        <time>2013-09-29T09:37:51.000Z</time>
      </trkpt>
      <trkpt lat="47.90372" lon="1.96062">
        <ele>147</ele>
        <time>2013-09-29T09:37:53.000Z</time>
      </trkpt>
      <trkpt lat="47.90373" lon="1.96077">
        <ele>148</ele>
        <time>2013-09-29T09:37:55.000Z</time>
      </trkpt>
      <trkpt lat="47.90376" lon="1.96091">
        <ele>148</ele>
        <time>2013-09-29T09:37:57.000Z</time>
      </trkpt>
      <trkpt lat="47.90376" lon="1.96091">
        <ele>148</ele>
        <time>2013-09-29T09:37:59.000Z</time>
      </trkpt>
      <trkpt lat="47.90376" lon="1.96091">
        <ele>148</ele>
        <time>2013-09-29T09:38:01.000Z</time>
      </trkpt>
      <trkpt lat="47.90376" lon="1.96091">
        <ele>148</ele>
        <time>2013-09-29T09:38:02.000Z</time>
      </trkpt>
      <trkpt lat="47.90376" lon="1.96091">
        <ele>148</ele>
        <time>2013-09-29T09:38:05.000Z</time>
      </trkpt>
      <trkpt lat="47.90375" lon="1.96179">
        <ele>148</ele>
        <time>2013-09-29T09:38:09.000Z</time>
      </trkpt>
      <trkpt lat="47.90376" lon="1.96196">
        <ele>147</ele>
        <time>2013-09-29T09:38:11.000Z</time>
      </trkpt>
      <trkpt lat="47.90376" lon="1.96223">
        <ele>147</ele>
        <time>2013-09-29T09:38:15.000Z</time>
      </trkpt>
      <trkpt lat="47.90376" lon="1.9624">
        <ele>145</ele>
        <time>2013-09-29T09:38:17.000Z</time>
      </trkpt>
      <trkpt lat="47.90376" lon="1.9624">
        <ele>145</ele>
        <time>2013-09-29T09:38:18.000Z</time>
      </trkpt>
      <trkpt lat="47.90376" lon="1.9624">
        <ele>145</ele>
        <time>2013-09-29T09:38:21.000Z</time>
      </trkpt>
      <trkpt lat="47.90376" lon="1.9624">
        <ele>145</ele>
        <time>2013-09-29T09:38:22.000Z</time>
      </trkpt>
      <trkpt lat="47.90376" lon="1.9624">
        <ele>145</ele>
        <time>2013-09-29T09:38:25.000Z</time>
      </trkpt>
      <trkpt lat="47.90376" lon="1.9624">
        <ele>145</ele>
        <time>2013-09-29T09:38:28.000Z</time>
      </trkpt>
      <trkpt lat="47.90376" lon="1.9624">
        <ele>145</ele>
        <time>2013-09-29T09:38:30.000Z</time>
      </trkpt>
      <trkpt lat="47.90376" lon="1.9624">
        <ele>145</ele>
        <time>2013-09-29T09:38:32.000Z</time>
      </trkpt>
      <trkpt lat="47.90376" lon="1.9624">
        <ele>145</ele>
        <time>2013-09-29T09:38:34.000Z</time>
      </trkpt>
      <trkpt lat="47.90376" lon="1.9624">
        <ele>145</ele>
        <time>2013-09-29T09:38:38.000Z</time>
      </trkpt>
      <trkpt lat="47.90376" lon="1.9624">
        <ele>145</ele>
        <time>2013-09-29T09:38:40.000Z</time>
      </trkpt>
      <trkpt lat="47.90359" lon="1.96295">
        <ele>147</ele>
        <time>2013-09-29T09:41:26.000Z</time>
      </trkpt>
      <trkpt lat="47.90354" lon="1.96317">
        <ele>147</ele>
        <time>2013-09-29T09:41:30.000Z</time>
      </trkpt>
      <trkpt lat="47.90354" lon="1.96317">
        <ele>147</ele>
        <time>2013-09-29T09:41:32.000Z</time>
      </trkpt>
      <trkpt lat="47.90354" lon="1.96317">
        <ele>147</ele>
        <time>2013-09-29T09:41:34.000Z</time>
      </trkpt>
      <trkpt lat="47.90354" lon="1.96317">
        <ele>147</ele>
        <time>2013-09-29T09:41:35.000Z</time>
      </trkpt>
      <trkpt lat="47.90354" lon="1.96317">
        <ele>147</ele>
        <time>2013-09-29T09:41:38.000Z</time>
      </trkpt>
      <trkpt lat="47.90354" lon="1.96317">
        <ele>147</ele>
        <time>2013-09-29T09:41:40.000Z</time>
      </trkpt>
      <trkpt lat="47.90348" lon="1.96369">
        <ele>147</ele>
        <time>2013-09-29T09:41:44.000Z</time>
      </trkpt>
      <trkpt lat="47.90347" lon="1.96397">
        <ele>146</ele>
        <time>2013-09-29T09:41:48.000Z</time>
      </trkpt>
      <trkpt lat="47.90347" lon="1.96417">
        <ele>146</ele>
        <time>2013-09-29T09:41:50.000Z</time>
      </trkpt>
      <trkpt lat="47.90346" lon="1.96436">
        <ele>147</ele>
        <time>2013-09-29T09:41:52.000Z</time>
      </trkpt>
      <trkpt lat="47.90346" lon="1.96455">
        <ele>147</ele>
        <time>2013-09-29T09:41:54.000Z</time>
      </trkpt>
      <trkpt lat="47.90346" lon="1.96473">
        <ele>147</ele>
        <time>2013-09-29T09:41:56.000Z</time>
      </trkpt>
      <trkpt lat="47.90346" lon="1.9649">
        <ele>148</ele>
        <time>2013-09-29T09:41:58.000Z</time>
      </trkpt>
      <trkpt lat="47.90345" lon="1.96509">
        <ele>149</ele>
        <time>2013-09-29T09:42:00.000Z</time>
      </trkpt>
      <trkpt lat="47.90345" lon="1.96527">
        <ele>148</ele>
        <time>2013-09-29T09:42:01.000Z</time>
      </trkpt>
      <trkpt lat="47.90345" lon="1.96547">
        <ele>148</ele>
        <time>2013-09-29T09:42:04.000Z</time>
      </trkpt>
      <trkpt lat="47.90345" lon="1.96566">
        <ele>148</ele>
        <time>2013-09-29T09:42:06.000Z</time>
      </trkpt>
      <trkpt lat="47.90344" lon="1.96583">
        <ele>148</ele>
        <time>2013-09-29T09:42:07.000Z</time>
      </trkpt>
      <trkpt lat="47.90344" lon="1.966">
        <ele>148</ele>
        <time>2013-09-29T09:42:10.000Z</time>
      </trkpt>
      <trkpt lat="47.90344" lon="1.96617">
        <ele>148</ele>
        <time>2013-09-29T09:42:12.000Z</time>
      </trkpt>
      <trkpt lat="47.90343" lon="1.96634">
        <ele>148</ele>
        <time>2013-09-29T09:42:14.000Z</time>
      </trkpt>
      <trkpt lat="47.90343" lon="1.96652">
        <ele>148</ele>
        <time>2013-09-29T09:42:16.000Z</time>
      </trkpt>
      <trkpt lat="47.90343" lon="1.9667">
        <ele>148</ele>
        <time>2013-09-29T09:42:17.000Z</time>
      </trkpt>
      <trkpt lat="47.90343" lon="1.96687">
        <ele>147</ele>
        <time>2013-09-29T09:42:20.000Z</time>
      </trkpt>
      <trkpt lat="47.90343" lon="1.96705">
        <ele>147</ele>
        <time>2013-09-29T09:42:22.000Z</time>
      </trkpt>
      <trkpt lat="47.90342" lon="1.96723">
        <ele>148</ele>
        <time>2013-09-29T09:42:24.000Z</time>
      </trkpt>
      <trkpt lat="47.90342" lon="1.9674">
        <ele>148</ele>
        <time>2013-09-29T09:42:25.000Z</time>
      </trkpt>
      <trkpt lat="47.90343" lon="1.96758">
        <ele>148</ele>
        <time>2013-09-29T09:42:28.000Z</time>
      </trkpt>
      <trkpt lat="47.90343" lon="1.96777">
        <ele>148</ele>
        <time>2013-09-29T09:42:30.000Z</time>
      </trkpt>
      <trkpt lat="47.90342" lon="1.96796">
        <ele>148</ele>
        <time>2013-09-29T09:42:32.000Z</time>
      </trkpt>
      <trkpt lat="47.90342" lon="1.96814">
        <ele>148</ele>
        <time>2013-09-29T09:42:34.000Z</time>
      </trkpt>
      <trkpt lat="47.90343" lon="1.96833">
        <ele>148</ele>
        <time>2013-09-29T09:42:36.000Z</time>
      </trkpt>
      <trkpt lat="47.90343" lon="1.96852">
        <ele>148</ele>
        <time>2013-09-29T09:42:38.000Z</time>
      </trkpt>
      <trkpt lat="47.90343" lon="1.96871">
        <ele>148</ele>
        <time>2013-09-29T09:42:40.000Z</time>
      </trkpt>
      <trkpt lat="47.90342" lon="1.9689">
        <ele>148</ele>
        <time>2013-09-29T09:42:42.000Z</time>
      </trkpt>
      <trkpt lat="47.90342" lon="1.96908">
        <ele>148</ele>
        <time>2013-09-29T09:42:44.000Z</time>
      </trkpt>
      <trkpt lat="47.90342" lon="1.96926">
        <ele>148</ele>
        <time>2013-09-29T09:42:46.000Z</time>
      </trkpt>
      <trkpt lat="47.90342" lon="1.96945">
        <ele>148</ele>
        <time>2013-09-29T09:42:47.000Z</time>
      </trkpt>
      <trkpt lat="47.90342" lon="1.96963">
        <ele>148</ele>
        <time>2013-09-29T09:42:50.000Z</time>
      </trkpt>
      <trkpt lat="47.90342" lon="1.96981">
        <ele>149</ele>
        <time>2013-09-29T09:42:52.000Z</time>
      </trkpt>
      <trkpt lat="47.90342" lon="1.97">
        <ele>148</ele>
        <time>2013-09-29T09:42:54.000Z</time>
      </trkpt>
      <trkpt lat="47.90342" lon="1.9702">
        <ele>148</ele>
        <time>2013-09-29T09:42:56.000Z</time>
      </trkpt>
      <trkpt lat="47.90342" lon="1.97039">
        <ele>148</ele>
        <time>2013-09-29T09:42:57.000Z</time>
      </trkpt>
      <trkpt lat="47.90342" lon="1.97058">
        <ele>148</ele>
        <time>2013-09-29T09:43:00.000Z</time>
      </trkpt>
      <trkpt lat="47.90341" lon="1.97077">
        <ele>148</ele>
        <time>2013-09-29T09:43:02.000Z</time>
      </trkpt>
      <trkpt lat="47.90341" lon="1.97096">
        <ele>147</ele>
        <time>2013-09-29T09:43:04.000Z</time>
      </trkpt>
      <trkpt lat="47.9034" lon="1.97114">
        <ele>147</ele>
        <time>2013-09-29T09:43:06.000Z</time>
      </trkpt>
      <trkpt lat="47.90341" lon="1.97133">
        <ele>147</ele>
        <time>2013-09-29T09:43:08.000Z</time>
      </trkpt>
      <trkpt lat="47.90341" lon="1.97152">
        <ele>147</ele>
        <time>2013-09-29T09:43:10.000Z</time>
      </trkpt>
      <trkpt lat="47.90341" lon="1.97171">
        <ele>147</ele>
        <time>2013-09-29T09:43:12.000Z</time>
      </trkpt>
      <trkpt lat="47.9034" lon="1.9719">
        <ele>146</ele>
        <time>2013-09-29T09:43:13.000Z</time>
      </trkpt>
      <trkpt lat="47.9034" lon="1.9721">
        <ele>146</ele>
        <time>2013-09-29T09:43:16.000Z</time>
      </trkpt>
      <trkpt lat="47.90339" lon="1.97229">
        <ele>146</ele>
        <time>2013-09-29T09:43:17.000Z</time>
      </trkpt>
      <trkpt lat="47.90337" lon="1.97249">
        <ele>145</ele>
        <time>2013-09-29T09:43:20.000Z</time>
      </trkpt>
      <trkpt lat="47.90336" lon="1.97268">
        <ele>145</ele>
        <time>2013-09-29T09:43:22.000Z</time>
      </trkpt>
      <trkpt lat="47.90334" lon="1.97289">
        <ele>145</ele>
        <time>2013-09-29T09:43:24.000Z</time>
      </trkpt>
      <trkpt lat="47.90331" lon="1.97309">
        <ele>145</ele>
        <time>2013-09-29T09:43:26.000Z</time>
      </trkpt>
      <trkpt lat="47.90328" lon="1.97328">
        <ele>145</ele>
        <time>2013-09-29T09:43:28.000Z</time>
      </trkpt>
      <trkpt lat="47.90325" lon="1.97348">
        <ele>146</ele>
        <time>2013-09-29T09:43:30.000Z</time>
      </trkpt>
      <trkpt lat="47.90321" lon="1.97367">
        <ele>146</ele>
        <time>2013-09-29T09:43:32.000Z</time>
      </trkpt>
      <trkpt lat="47.90318" lon="1.97385">
        <ele>146</ele>
        <time>2013-09-29T09:43:33.000Z</time>
      </trkpt>
      <trkpt lat="47.90316" lon="1.97405">
        <ele>145</ele>
        <time>2013-09-29T09:43:36.000Z</time>
      </trkpt>
      <trkpt lat="47.90314" lon="1.97423">
        <ele>145</ele>
        <time>2013-09-29T09:43:38.000Z</time>
      </trkpt>
      <trkpt lat="47.90311" lon="1.97442">
        <ele>145</ele>
        <time>2013-09-29T09:43:40.000Z</time>
      </trkpt>
      <trkpt lat="47.90309" lon="1.9746">
        <ele>146</ele>
        <time>2013-09-29T09:43:42.000Z</time>
      </trkpt>
      <trkpt lat="47.90306" lon="1.97478">
        <ele>146</ele>
        <time>2013-09-29T09:43:44.000Z</time>
      </trkpt>
      <trkpt lat="47.90303" lon="1.97495">
        <ele>145</ele>
        <time>2013-09-29T09:43:46.000Z</time>
      </trkpt>
      <trkpt lat="47.903" lon="1.97512">
        <ele>146</ele>
        <time>2013-09-29T09:43:48.000Z</time>
      </trkpt>
      <trkpt lat="47.90298" lon="1.97529">
        <ele>146</ele>
        <time>2013-09-29T09:43:49.000Z</time>
      </trkpt>
      <trkpt lat="47.90297" lon="1.97544">
        <ele>146</ele>
        <time>2013-09-29T09:43:52.000Z</time>
      </trkpt>
      <trkpt lat="47.90295" lon="1.97559">
        <ele>146</ele>
        <time>2013-09-29T09:43:54.000Z</time>
      </trkpt>
      <trkpt lat="47.90295" lon="1.97559">
        <ele>146</ele>
        <time>2013-09-29T09:43:55.000Z</time>
      </trkpt>
      <trkpt lat="47.90295" lon="1.97559">
        <ele>146</ele>
        <time>2013-09-29T09:43:58.000Z</time>
      </trkpt>
      <trkpt lat="47.90295" lon="1.97559">
        <ele>146</ele>
        <time>2013-09-29T09:44:00.000Z</time>
      </trkpt>
      <trkpt lat="47.90283" lon="1.97635">
        <ele>147</ele>
        <time>2013-09-29T09:44:04.000Z</time>
      </trkpt>
      <trkpt lat="47.9028" lon="1.9765">
        <ele>146</ele>
        <time>2013-09-29T09:44:06.000Z</time>
      </trkpt>
      <trkpt lat="47.90277" lon="1.97667">
        <ele>147</ele>
        <time>2013-09-29T09:44:08.000Z</time>
      </trkpt>
      <trkpt lat="47.90274" lon="1.97684">
        <ele>146</ele>
        <time>2013-09-29T09:44:09.000Z</time>
      </trkpt>
      <trkpt lat="47.90271" lon="1.97701">
        <ele>146</ele>
        <time>2013-09-29T09:44:11.000Z</time>
      </trkpt>
      <trkpt lat="47.90268" lon="1.97719">
        <ele>145</ele>
        <time>2013-09-29T09:44:14.000Z</time>
      </trkpt>
      <trkpt lat="47.90265" lon="1.97737">
        <ele>145</ele>
        <time>2013-09-29T09:44:16.000Z</time>
      </trkpt>
      <trkpt lat="47.90262" lon="1.97755">
        <ele>145</ele>
        <time>2013-09-29T09:44:17.000Z</time>
      </trkpt>
      <trkpt lat="47.90259" lon="1.97774">
        <ele>145</ele>
        <time>2013-09-29T09:44:20.000Z</time>
      </trkpt>
      <trkpt lat="47.90256" lon="1.97793">
        <ele>145</ele>
        <time>2013-09-29T09:44:22.000Z</time>
      </trkpt>
      <trkpt lat="47.90253" lon="1.97812">
        <ele>145</ele>
        <time>2013-09-29T09:44:24.000Z</time>
      </trkpt>
      <trkpt lat="47.90252" lon="1.97832">
        <ele>144</ele>
        <time>2013-09-29T09:44:26.000Z</time>
      </trkpt>
      <trkpt lat="47.90248" lon="1.97851">
        <ele>144</ele>
        <time>2013-09-29T09:44:28.000Z</time>
      </trkpt>
      <trkpt lat="47.90245" lon="1.97869">
        <ele>144</ele>
        <time>2013-09-29T09:44:30.000Z</time>
      </trkpt>
      <trkpt lat="47.90242" lon="1.97887">
        <ele>144</ele>
        <time>2013-09-29T09:44:32.000Z</time>
      </trkpt>
      <trkpt lat="47.90241" lon="1.97904">
        <ele>144</ele>
        <time>2013-09-29T09:44:34.000Z</time>
      </trkpt>
      <trkpt lat="47.90238" lon="1.97924">
        <ele>144</ele>
        <time>2013-09-29T09:44:36.000Z</time>
      </trkpt>
      <trkpt lat="47.90234" lon="1.97941">
        <ele>144</ele>
        <time>2013-09-29T09:44:37.000Z</time>
      </trkpt>
      <trkpt lat="47.9023" lon="1.9796">
        <ele>144</ele>
        <time>2013-09-29T09:44:40.000Z</time>
      </trkpt>
      <trkpt lat="47.90224" lon="1.97981">
        <ele>144</ele>
        <time>2013-09-29T09:44:42.000Z</time>
      </trkpt>
      <trkpt lat="47.90221" lon="1.98">
        <ele>144</ele>
        <time>2013-09-29T09:44:44.000Z</time>
      </trkpt>
      <trkpt lat="47.90216" lon="1.98018">
        <ele>144</ele>
        <time>2013-09-29T09:44:46.000Z</time>
      </trkpt>
      <trkpt lat="47.90213" lon="1.98038">
        <ele>144</ele>
        <time>2013-09-29T09:44:48.000Z</time>
      </trkpt>
      <trkpt lat="47.90205" lon="1.98055">
        <ele>145</ele>
        <time>2013-09-29T09:44:50.000Z</time>
      </trkpt>
      <trkpt lat="47.90199" lon="1.98074">
        <ele>146</ele>
        <time>2013-09-29T09:44:52.000Z</time>
      </trkpt>
      <trkpt lat="47.90194" lon="1.9809">
        <ele>146</ele>
        <time>2013-09-29T09:44:54.000Z</time>
      </trkpt>
      <trkpt lat="47.90188" lon="1.98107">
        <ele>146</ele>
        <time>2013-09-29T09:44:56.000Z</time>
      </trkpt>
      <trkpt lat="47.90182" lon="1.98124">
        <ele>146</ele>
        <time>2013-09-29T09:44:57.000Z</time>
      </trkpt>
      <trkpt lat="47.90176" lon="1.9814">
        <ele>146</ele>
        <time>2013-09-29T09:45:00.000Z</time>
      </trkpt>
      <trkpt lat="47.9017" lon="1.98156">
        <ele>146</ele>
        <time>2013-09-29T09:45:02.000Z</time>
      </trkpt>
      <trkpt lat="47.90164" lon="1.9817">
        <ele>146</ele>
        <time>2013-09-29T09:45:04.000Z</time>
      </trkpt>
      <trkpt lat="47.90158" lon="1.98183">
        <ele>147</ele>
        <time>2013-09-29T09:45:06.000Z</time>
      </trkpt>
      <trkpt lat="47.90153" lon="1.98196">
        <ele>147</ele>
        <time>2013-09-29T09:45:08.000Z</time>
      </trkpt>
      <trkpt lat="47.90153" lon="1.98196">
        <ele>147</ele>
        <time>2013-09-29T09:45:10.000Z</time>
      </trkpt>
      <trkpt lat="47.90153" lon="1.98196">
        <ele>147</ele>
        <time>2013-09-29T09:45:12.000Z</time>
      </trkpt>
      <trkpt lat="47.90153" lon="1.98196">
        <ele>147</ele>
        <time>2013-09-29T09:45:14.000Z</time>
      </trkpt>
      <trkpt lat="47.90153" lon="1.98196">
        <ele>147</ele>
        <time>2013-09-29T09:45:16.000Z</time>
      </trkpt>
      <trkpt lat="47.90153" lon="1.98196">
        <ele>147</ele>
        <time>2013-09-29T09:45:18.000Z</time>
      </trkpt>
      <trkpt lat="47.90153" lon="1.98196">
        <ele>147</ele>
        <time>2013-09-29T09:45:20.000Z</time>
      </trkpt>
      <trkpt lat="47.90153" lon="1.98196">
        <ele>147</ele>
        <time>2013-09-29T09:45:22.000Z</time>
      </trkpt>
      <trkpt lat="47.90153" lon="1.98196">
        <ele>147</ele>
        <time>2013-09-29T09:45:24.000Z</time>
      </trkpt>
      <trkpt lat="47.90153" lon="1.98196">
        <ele>147</ele>
        <time>2013-09-29T09:45:26.000Z</time>
      </trkpt>
      <trkpt lat="47.90153" lon="1.98196">
        <ele>147</ele>
        <time>2013-09-29T09:45:28.000Z</time>
      </trkpt>
      <trkpt lat="47.90153" lon="1.98196">
        <ele>147</ele>
        <time>2013-09-29T09:45:30.000Z</time>
      </trkpt>
      <trkpt lat="47.90153" lon="1.98196">
        <ele>147</ele>
        <time>2013-09-29T09:45:32.000Z</time>
      </trkpt>
      <trkpt lat="47.90153" lon="1.98196">
        <ele>147</ele>
        <time>2013-09-29T09:45:34.000Z</time>
      </trkpt>
      <trkpt lat="47.90153" lon="1.98196">
        <ele>147</ele>
        <time>2013-09-29T09:45:36.000Z</time>
      </trkpt>
      <trkpt lat="47.90072" lon="1.98389">
        <ele>151</ele>
        <time>2013-09-29T09:45:42.000Z</time>
      </trkpt>
      <trkpt lat="47.90072" lon="1.98389">
        <ele>151</ele>
        <time>2013-09-29T09:45:43.000Z</time>
      </trkpt>
      <trkpt lat="47.90072" lon="1.98389">
        <ele>151</ele>
        <time>2013-09-29T09:45:46.000Z</time>
      </trkpt>
      <trkpt lat="47.90072" lon="1.98389">
        <ele>151</ele>
        <time>2013-09-29T09:45:48.000Z</time>
      </trkpt>
      <trkpt lat="47.90072" lon="1.98389">
        <ele>151</ele>
        <time>2013-09-29T09:45:50.000Z</time>
      </trkpt>
      <trkpt lat="47.90072" lon="1.98389">
        <ele>151</ele>
        <time>2013-09-29T09:45:52.000Z</time>
      </trkpt>
      <trkpt lat="47.90051" lon="1.9838">
        <ele>147</ele>
        <time>2013-09-29T09:45:58.000Z</time>
      </trkpt>
      <trkpt lat="47.90038" lon="1.98377">
        <ele>147</ele>
        <time>2013-09-29T09:46:00.000Z</time>
      </trkpt>
      <trkpt lat="47.90028" lon="1.98378">
        <ele>147</ele>
        <time>2013-09-29T09:46:01.000Z</time>
      </trkpt>
      <trkpt lat="47.90028" lon="1.98378">
        <ele>147</ele>
        <time>2013-09-29T09:46:04.000Z</time>
      </trkpt>
      <trkpt lat="47.90028" lon="1.98378">
        <ele>147</ele>
        <time>2013-09-29T09:46:06.000Z</time>
      </trkpt>
      <trkpt lat="47.90028" lon="1.98378">
        <ele>147</ele>
        <time>2013-09-29T09:46:08.000Z</time>
      </trkpt>
      <trkpt lat="47.90028" lon="1.98378">
        <ele>147</ele>
        <time>2013-09-29T09:46:10.000Z</time>
      </trkpt>
      <trkpt lat="47.90028" lon="1.98378">
        <ele>147</ele>
        <time>2013-09-29T09:46:12.000Z</time>
      </trkpt>
      <trkpt lat="47.90028" lon="1.98378">
        <ele>147</ele>
        <time>2013-09-29T09:46:13.000Z</time>
      </trkpt>
      <trkpt lat="47.90028" lon="1.98378">
        <ele>147</ele>
        <time>2013-09-29T09:46:15.000Z</time>
      </trkpt>
      <trkpt lat="47.90008" lon="1.98393">
        <ele>150</ele>
        <time>2013-09-29T09:46:22.000Z</time>
      </trkpt>
      <trkpt lat="47.90008" lon="1.98393">
        <ele>150</ele>
        <time>2013-09-29T09:46:23.000Z</time>
      </trkpt>
      <trkpt lat="47.90008" lon="1.98393">
        <ele>150</ele>
        <time>2013-09-29T09:46:26.000Z</time>
      </trkpt>
      <trkpt lat="47.90008" lon="1.98393">
        <ele>150</ele>
        <time>2013-09-29T09:46:28.000Z</time>
      </trkpt>
      <trkpt lat="47.90008" lon="1.98393">
        <ele>150</ele>
        <time>2013-09-29T09:46:30.000Z</time>
      </trkpt>
      <trkpt lat="47.90008" lon="1.98393">
        <ele>150</ele>
        <time>2013-09-29T09:46:32.000Z</time>
      </trkpt>
      <trkpt lat="47.90008" lon="1.98393">
        <ele>150</ele>
        <time>2013-09-29T09:46:34.000Z</time>
      </trkpt>
      <trkpt lat="47.90008" lon="1.98393">
        <ele>150</ele>
        <time>2013-09-29T09:46:36.000Z</time>
      </trkpt>
      <trkpt lat="47.90008" lon="1.98393">
        <ele>150</ele>
        <time>2013-09-29T09:46:38.000Z</time>
      </trkpt>
      <trkpt lat="47.90008" lon="1.98393">
        <ele>150</ele>
        <time>2013-09-29T09:46:40.000Z</time>
      </trkpt>
      <trkpt lat="47.89983" lon="1.98416">
        <ele>150</ele>
        <time>2013-09-29T09:46:42.000Z</time>
      </trkpt>
      <trkpt lat="47.89968" lon="1.98429">
        <ele>150</ele>
        <time>2013-09-29T09:46:44.000Z</time>
      </trkpt>
      <trkpt lat="47.8996" lon="1.98437">
        <ele>150</ele>
        <time>2013-09-29T09:46:46.000Z</time>
      </trkpt>
      <trkpt lat="47.89953" lon="1.98442">
        <ele>150</ele>
        <time>2013-09-29T09:46:48.000Z</time>
      </trkpt>
      <trkpt lat="47.89948" lon="1.98447">
        <ele>150</ele>
        <time>2013-09-29T09:46:50.000Z</time>
      </trkpt>
      <trkpt lat="47.89939" lon="1.98456">
        <ele>150</ele>
        <time>2013-09-29T09:46:52.000Z</time>
      </trkpt>
      <trkpt lat="47.89933" lon="1.98467">
        <ele>150</ele>
        <time>2013-09-29T09:46:56.000Z</time>
      </trkpt>
      <trkpt lat="47.89927" lon="1.9848">
        <ele>150</ele>
        <time>2013-09-29T09:47:00.000Z</time>
      </trkpt>
      <trkpt lat="47.89921" lon="1.98492">
        <ele>151</ele>
        <time>2013-09-29T09:47:04.000Z</time>
      </trkpt>
      <trkpt lat="47.89921" lon="1.98492">
        <ele>151</ele>
        <time>2013-09-29T09:47:06.000Z</time>
      </trkpt>
      <trkpt lat="47.89921" lon="1.98492">
        <ele>151</ele>
        <time>2013-09-29T09:47:08.000Z</time>
      </trkpt>
      <trkpt lat="47.89921" lon="1.98492">
        <ele>151</ele>
        <time>2013-09-29T09:47:09.000Z</time>
      </trkpt>
      <trkpt lat="47.89921" lon="1.98492">
        <ele>151</ele>
        <time>2013-09-29T09:47:12.000Z</time>
      </trkpt>
      <trkpt lat="47.89907" lon="1.98538">
        <ele>152</ele>
        <time>2013-09-29T09:47:18.000Z</time>
      </trkpt>
      <trkpt lat="47.89898" lon="1.9854">
        <ele>153</ele>
        <time>2013-09-29T09:47:22.000Z</time>
      </trkpt>
      <trkpt lat="47.89898" lon="1.9854">
        <ele>153</ele>
        <time>2013-09-29T09:47:23.000Z</time>
      </trkpt>
      <trkpt lat="47.89886" lon="1.98541">
        <ele>152</ele>
        <time>2013-09-29T09:47:26.000Z</time>
      </trkpt>
      <trkpt lat="47.89872" lon="1.9854">
        <ele>151</ele>
        <time>2013-09-29T09:47:30.000Z</time>
      </trkpt>
      <trkpt lat="47.89858" lon="1.98545">
        <ele>151</ele>
        <time>2013-09-29T09:47:34.000Z</time>
      </trkpt>
      <trkpt lat="47.89851" lon="1.98566">
        <ele>151</ele>
        <time>2013-09-29T09:47:38.000Z</time>
      </trkpt>
      <trkpt lat="47.89843" lon="1.98584">
        <ele>151</ele>
        <time>2013-09-29T09:47:42.000Z</time>
      </trkpt>
      <trkpt lat="47.89837" lon="1.98604">
        <ele>151</ele>
        <time>2013-09-29T09:47:46.000Z</time>
      </trkpt>
      <trkpt lat="47.8983" lon="1.98624">
        <ele>151</ele>
        <time>2013-09-29T09:47:50.000Z</time>
      </trkpt>
      <trkpt lat="47.89825" lon="1.98648">
        <ele>150</ele>
        <time>2013-09-29T09:47:54.000Z</time>
      </trkpt>
      <trkpt lat="47.89822" lon="1.98662">
        <ele>150</ele>
        <time>2013-09-29T09:47:56.000Z</time>
      </trkpt>
      <trkpt lat="47.8982" lon="1.98676">
        <ele>150</ele>
        <time>2013-09-29T09:47:58.000Z</time>
      </trkpt>
      <trkpt lat="47.89818" lon="1.98691">
        <ele>150</ele>
        <time>2013-09-29T09:48:00.000Z</time>
      </trkpt>
      <trkpt lat="47.89817" lon="1.98706">
        <ele>150</ele>
        <time>2013-09-29T09:48:01.000Z</time>
      </trkpt>
      <trkpt lat="47.89816" lon="1.98721">
        <ele>151</ele>
        <time>2013-09-29T09:48:03.000Z</time>
      </trkpt>
      <trkpt lat="47.89811" lon="1.98735">
        <ele>149</ele>
        <time>2013-09-29T09:48:06.000Z</time>
      </trkpt>
      <trkpt lat="47.89807" lon="1.9875">
        <ele>149</ele>
        <time>2013-09-29T09:48:08.000Z</time>
      </trkpt>
      <trkpt lat="47.89803" lon="1.98764">
        <ele>149</ele>
        <time>2013-09-29T09:48:10.000Z</time>
      </trkpt>
      <trkpt lat="47.89798" lon="1.98779">
        <ele>149</ele>
        <time>2013-09-29T09:48:12.000Z</time>
      </trkpt>
      <trkpt lat="47.89795" lon="1.98794">
        <ele>149</ele>
        <time>2013-09-29T09:48:14.000Z</time>
      </trkpt>
      <trkpt lat="47.89791" lon="1.98808">
        <ele>148</ele>
        <time>2013-09-29T09:48:16.000Z</time>
      </trkpt>
      <trkpt lat="47.89788" lon="1.98823">
        <ele>149</ele>
        <time>2013-09-29T09:48:17.000Z</time>
      </trkpt>
      <trkpt lat="47.89788" lon="1.98823">
        <ele>149</ele>
        <time>2013-09-29T09:48:20.000Z</time>
      </trkpt>
      <trkpt lat="47.89788" lon="1.98823">
        <ele>149</ele>
        <time>2013-09-29T09:48:22.000Z</time>
      </trkpt>
      <trkpt lat="47.89788" lon="1.98823">
        <ele>149</ele>
        <time>2013-09-29T09:48:24.000Z</time>
      </trkpt>
      <trkpt lat="47.89788" lon="1.98823">
        <ele>149</ele>
        <time>2013-09-29T09:48:26.000Z</time>
      </trkpt>
      <trkpt lat="47.89772" lon="1.98901">
        <ele>148</ele>
        <time>2013-09-29T09:48:28.000Z</time>
      </trkpt>
      <trkpt lat="47.89769" lon="1.98916">
        <ele>148</ele>
        <time>2013-09-29T09:48:30.000Z</time>
      </trkpt>
      <trkpt lat="47.89764" lon="1.98932">
        <ele>148</ele>
        <time>2013-09-29T09:48:32.000Z</time>
      </trkpt>
      <trkpt lat="47.89761" lon="1.98947">
        <ele>147</ele>
        <time>2013-09-29T09:48:34.000Z</time>
      </trkpt>
      <trkpt lat="47.89756" lon="1.98963">
        <ele>148</ele>
        <time>2013-09-29T09:48:35.000Z</time>
      </trkpt>
      <trkpt lat="47.89752" lon="1.98978">
        <ele>147</ele>
        <time>2013-09-29T09:48:38.000Z</time>
      </trkpt>
      <trkpt lat="47.89747" lon="1.98992">
        <ele>146</ele>
        <time>2013-09-29T09:48:39.000Z</time>
      </trkpt>
      <trkpt lat="47.89742" lon="1.99005">
        <ele>146</ele>
        <time>2013-09-29T09:48:42.000Z</time>
      </trkpt>
      <trkpt lat="47.89742" lon="1.99005">
        <ele>146</ele>
        <time>2013-09-29T09:48:44.000Z</time>
      </trkpt>
      <trkpt lat="47.89742" lon="1.99005">
        <ele>146</ele>
        <time>2013-09-29T09:48:46.000Z</time>
      </trkpt>
      <trkpt lat="47.89742" lon="1.99005">
        <ele>146</ele>
        <time>2013-09-29T09:48:48.000Z</time>
      </trkpt>
      <trkpt lat="47.89742" lon="1.99005">
        <ele>146</ele>
        <time>2013-09-29T09:48:50.000Z</time>
      </trkpt>
      <trkpt lat="47.89742" lon="1.99005">
        <ele>146</ele>
        <time>2013-09-29T09:48:52.000Z</time>
      </trkpt>
      <trkpt lat="47.89742" lon="1.99005">
        <ele>146</ele>
        <time>2013-09-29T09:48:53.000Z</time>
      </trkpt>
      <trkpt lat="47.89788" lon="1.99052">
        <ele>150</ele>
        <time>2013-09-29T09:48:58.000Z</time>
      </trkpt>
      <trkpt lat="47.89795" lon="1.99055">
        <ele>150</ele>
        <time>2013-09-29T09:49:02.000Z</time>
      </trkpt>
      <trkpt lat="47.89795" lon="1.99055">
        <ele>150</ele>
        <time>2013-09-29T09:49:04.000Z</time>
      </trkpt>
      <trkpt lat="47.89795" lon="1.99055">
        <ele>150</ele>
        <time>2013-09-29T09:49:06.000Z</time>
      </trkpt>
      <trkpt lat="47.89795" lon="1.99055">
        <ele>150</ele>
        <time>2013-09-29T09:49:08.000Z</time>
      </trkpt>
      <trkpt lat="47.89795" lon="1.99055">
        <ele>150</ele>
        <time>2013-09-29T09:49:10.000Z</time>
      </trkpt>
      <trkpt lat="47.89795" lon="1.99055">
        <ele>150</ele>
        <time>2013-09-29T09:49:12.000Z</time>
      </trkpt>
      <trkpt lat="47.89795" lon="1.99055">
        <ele>150</ele>
        <time>2013-09-29T09:49:14.000Z</time>
      </trkpt>
      <trkpt lat="47.89801" lon="1.99076">
        <ele>148</ele>
        <time>2013-09-29T09:49:20.000Z</time>
      </trkpt>
      <trkpt lat="47.89804" lon="1.99087">
        <ele>146</ele>
        <time>2013-09-29T09:49:21.000Z</time>
      </trkpt>
      <trkpt lat="47.89804" lon="1.99087">
        <ele>146</ele>
        <time>2013-09-29T09:49:24.000Z</time>
      </trkpt>
      <trkpt lat="47.89804" lon="1.99087">
        <ele>146</ele>
        <time>2013-09-29T09:49:26.000Z</time>
      </trkpt>
      <trkpt lat="47.89804" lon="1.99087">
        <ele>146</ele>
        <time>2013-09-29T09:49:28.000Z</time>
      </trkpt>
      <trkpt lat="47.89804" lon="1.99087">
        <ele>146</ele>
        <time>2013-09-29T09:49:30.000Z</time>
      </trkpt>
      <trkpt lat="47.89787" lon="1.99093">
        <ele>144</ele>
        <time>2013-09-29T09:51:51.000Z</time>
      </trkpt>
      <trkpt lat="47.89778" lon="1.99086">
        <ele>145</ele>
        <time>2013-09-29T09:51:55.000Z</time>
      </trkpt>
      <trkpt lat="47.89778" lon="1.99086">
        <ele>145</ele>
        <time>2013-09-29T09:51:57.000Z</time>
      </trkpt>
      <trkpt lat="47.89778" lon="1.99086">
        <ele>145</ele>
        <time>2013-09-29T09:51:59.000Z</time>
      </trkpt>
      <trkpt lat="47.89778" lon="1.99086">
        <ele>145</ele>
        <time>2013-09-29T09:52:01.000Z</time>
      </trkpt>
      <trkpt lat="47.89751" lon="1.99077">
        <ele>147</ele>
        <time>2013-09-29T09:52:05.000Z</time>
      </trkpt>
      <trkpt lat="47.89742" lon="1.99075">
        <ele>148</ele>
        <time>2013-09-29T09:52:06.000Z</time>
      </trkpt>
      <trkpt lat="47.89725" lon="1.99085">
        <ele>149</ele>
        <time>2013-09-29T09:52:11.000Z</time>
      </trkpt>
      <trkpt lat="47.89717" lon="1.99095">
        <ele>149</ele>
        <time>2013-09-29T09:52:15.000Z</time>
      </trkpt>
      <trkpt lat="47.89717" lon="1.99095">
        <ele>149</ele>
        <time>2013-09-29T09:52:16.000Z</time>
      </trkpt>
      <trkpt lat="47.89701" lon="1.9912">
        <ele>153</ele>
        <time>2013-09-29T09:52:21.000Z</time>
      </trkpt>
      <trkpt lat="47.89689" lon="1.99132">
        <ele>153</ele>
        <time>2013-09-29T09:52:25.000Z</time>
      </trkpt>
      <trkpt lat="47.89689" lon="1.99132">
        <ele>153</ele>
        <time>2013-09-29T09:52:27.000Z</time>
      </trkpt>
      <trkpt lat="47.89689" lon="1.99132">
        <ele>153</ele>
        <time>2013-09-29T09:52:29.000Z</time>
      </trkpt>
      <trkpt lat="47.89689" lon="1.99132">
        <ele>153</ele>
        <time>2013-09-29T09:52:31.000Z</time>
      </trkpt>
      <trkpt lat="47.89665" lon="1.9917">
        <ele>158</ele>
        <time>2013-09-29T09:52:35.000Z</time>
      </trkpt>
      <trkpt lat="47.89665" lon="1.9917">
        <ele>158</ele>
        <time>2013-09-29T09:52:37.000Z</time>
      </trkpt>
      <trkpt lat="47.89665" lon="1.9917">
        <ele>158</ele>
        <time>2013-09-29T09:52:39.000Z</time>
      </trkpt>
      <trkpt lat="47.89665" lon="1.9917">
        <ele>158</ele>
        <time>2013-09-29T09:52:41.000Z</time>
      </trkpt>
      <trkpt lat="47.89637" lon="1.9922">
        <ele>151</ele>
        <time>2013-09-29T09:52:44.000Z</time>
      </trkpt>
      <trkpt lat="47.89628" lon="1.99235">
        <ele>150</ele>
        <time>2013-09-29T09:52:46.000Z</time>
      </trkpt>
      <trkpt lat="47.8962" lon="1.99248">
        <ele>150</ele>
        <time>2013-09-29T09:52:48.000Z</time>
      </trkpt>
      <trkpt lat="47.89613" lon="1.99259">
        <ele>148</ele>
        <time>2013-09-29T09:52:50.000Z</time>
      </trkpt>
      <trkpt lat="47.89606" lon="1.99269">
        <ele>148</ele>
        <time>2013-09-29T09:52:52.000Z</time>
      </trkpt>
      <trkpt lat="47.89597" lon="1.99278">
        <ele>148</ele>
        <time>2013-09-29T09:52:54.000Z</time>
      </trkpt>
      <trkpt lat="47.89587" lon="1.99287">
        <ele>145</ele>
        <time>2013-09-29T09:52:56.000Z</time>
      </trkpt>
      <trkpt lat="47.89581" lon="1.99298">
        <ele>145</ele>
        <time>2013-09-29T09:52:57.000Z</time>
      </trkpt>
      <trkpt lat="47.89575" lon="1.99311">
        <ele>145</ele>
        <time>2013-09-29T09:53:00.000Z</time>
      </trkpt>
      <trkpt lat="47.8957" lon="1.99329">
        <ele>147</ele>
        <time>2013-09-29T09:53:01.000Z</time>
      </trkpt>
      <trkpt lat="47.89568" lon="1.99344">
        <ele>148</ele>
        <time>2013-09-29T09:53:04.000Z</time>
      </trkpt>
      <trkpt lat="47.89562" lon="1.99358">
        <ele>149</ele>
        <time>2013-09-29T09:53:06.000Z</time>
      </trkpt>
      <trkpt lat="47.89558" lon="1.99373">
        <ele>149</ele>
        <time>2013-09-29T09:53:08.000Z</time>
      </trkpt>
      <trkpt lat="47.89555" lon="1.99386">
        <ele>150</ele>
        <time>2013-09-29T09:53:10.000Z</time>
      </trkpt>
      <trkpt lat="47.89555" lon="1.99386">
        <ele>150</ele>
        <time>2013-09-29T09:53:12.000Z</time>
      </trkpt>
      <trkpt lat="47.89555" lon="1.99386">
        <ele>150</ele>
        <time>2013-09-29T09:53:14.000Z</time>
      </trkpt>
      <trkpt lat="47.89555" lon="1.99386">
        <ele>150</ele>
        <time>2013-09-29T09:53:16.000Z</time>
      </trkpt>
      <trkpt lat="47.89555" lon="1.99386">
        <ele>150</ele>
        <time>2013-09-29T09:53:18.000Z</time>
      </trkpt>
      <trkpt lat="47.89555" lon="1.99386">
        <ele>150</ele>
        <time>2013-09-29T09:53:20.000Z</time>
      </trkpt>
      <trkpt lat="47.89538" lon="1.99479">
        <ele>155</ele>
        <time>2013-09-29T09:53:24.000Z</time>
      </trkpt>
      <trkpt lat="47.89537" lon="1.99493">
        <ele>155</ele>
        <time>2013-09-29T09:53:26.000Z</time>
      </trkpt>
      <trkpt lat="47.89537" lon="1.99508">
        <ele>155</ele>
        <time>2013-09-29T09:53:28.000Z</time>
      </trkpt>
      <trkpt lat="47.89539" lon="1.99522">
        <ele>155</ele>
        <time>2013-09-29T09:53:30.000Z</time>
      </trkpt>
      <trkpt lat="47.89542" lon="1.99537">
        <ele>155</ele>
        <time>2013-09-29T09:53:32.000Z</time>
      </trkpt>
      <trkpt lat="47.89545" lon="1.99552">
        <ele>155</ele>
        <time>2013-09-29T09:53:34.000Z</time>
      </trkpt>
      <trkpt lat="47.89548" lon="1.99565">
        <ele>155</ele>
        <time>2013-09-29T09:53:36.000Z</time>
      </trkpt>
      <trkpt lat="47.89551" lon="1.99579">
        <ele>156</ele>
        <time>2013-09-29T09:53:38.000Z</time>
      </trkpt>
      <trkpt lat="47.89551" lon="1.99579">
        <ele>156</ele>
        <time>2013-09-29T09:53:40.000Z</time>
      </trkpt>
      <trkpt lat="47.89551" lon="1.99579">
        <ele>156</ele>
        <time>2013-09-29T09:53:42.000Z</time>
      </trkpt>
      <trkpt lat="47.89551" lon="1.99579">
        <ele>156</ele>
        <time>2013-09-29T09:53:44.000Z</time>
      </trkpt>
      <trkpt lat="47.89551" lon="1.99579">
        <ele>156</ele>
        <time>2013-09-29T09:53:50.000Z</time>
      </trkpt>
      <trkpt lat="47.89551" lon="1.99579">
        <ele>156</ele>
        <time>2013-09-29T09:53:52.000Z</time>
      </trkpt>
      <trkpt lat="47.89551" lon="1.99579">
        <ele>156</ele>
        <time>2013-09-29T09:53:54.000Z</time>
      </trkpt>
      <trkpt lat="47.89551" lon="1.99579">
        <ele>156</ele>
        <time>2013-09-29T09:53:58.000Z</time>
      </trkpt>
      <trkpt lat="47.89551" lon="1.99579">
        <ele>156</ele>
        <time>2013-09-29T09:54:00.000Z</time>
      </trkpt>
      <trkpt lat="47.89551" lon="1.99579">
        <ele>156</ele>
        <time>2013-09-29T09:54:01.000Z</time>
      </trkpt>
      <trkpt lat="47.89551" lon="1.99579">
        <ele>156</ele>
        <time>2013-09-29T09:54:04.000Z</time>
      </trkpt>
      <trkpt lat="47.89551" lon="1.99579">
        <ele>156</ele>
        <time>2013-09-29T09:54:06.000Z</time>
      </trkpt>
      <trkpt lat="47.89551" lon="1.99579">
        <ele>156</ele>
        <time>2013-09-29T09:54:08.000Z</time>
      </trkpt>
      <trkpt lat="47.89551" lon="1.99579">
        <ele>156</ele>
        <time>2013-09-29T09:54:10.000Z</time>
      </trkpt>
      <trkpt lat="47.89531" lon="1.99686">
        <ele>144</ele>
        <time>2013-09-29T09:54:14.000Z</time>
      </trkpt>
      <trkpt lat="47.89519" lon="1.99745">
        <ele>145</ele>
        <time>2013-09-29T09:54:16.000Z</time>
      </trkpt>
      <trkpt lat="47.89513" lon="1.99779">
        <ele>146</ele>
        <time>2013-09-29T09:54:18.000Z</time>
      </trkpt>
      <trkpt lat="47.8951" lon="1.99803">
        <ele>148</ele>
        <time>2013-09-29T09:54:20.000Z</time>
      </trkpt>
      <trkpt lat="47.89504" lon="1.99824">
        <ele>147</ele>
        <time>2013-09-29T09:54:22.000Z</time>
      </trkpt>
      <trkpt lat="47.89495" lon="1.99861">
        <ele>147</ele>
        <time>2013-09-29T09:54:24.000Z</time>
      </trkpt>
      <trkpt lat="47.89487" lon="1.99876">
        <ele>145</ele>
        <time>2013-09-29T09:54:26.000Z</time>
      </trkpt>
      <trkpt lat="47.89482" lon="1.99891">
        <ele>144</ele>
        <time>2013-09-29T09:54:28.000Z</time>
      </trkpt>
      <trkpt lat="47.89477" lon="1.99903">
        <ele>144</ele>
        <time>2013-09-29T09:54:30.000Z</time>
      </trkpt>
      <trkpt lat="47.89471" lon="1.9992">
        <ele>145</ele>
        <time>2013-09-29T09:54:32.000Z</time>
      </trkpt>
      <trkpt lat="47.89469" lon="1.99934">
        <ele>145</ele>
        <time>2013-09-29T09:54:34.000Z</time>
      </trkpt>
      <trkpt lat="47.89462" lon="1.99948">
        <ele>146</ele>
        <time>2013-09-29T09:54:36.000Z</time>
      </trkpt>
      <trkpt lat="47.89458" lon="1.99964">
        <ele>146</ele>
        <time>2013-09-29T09:54:37.000Z</time>
      </trkpt>
      <trkpt lat="47.89453" lon="1.99977">
        <ele>147</ele>
        <time>2013-09-29T09:54:40.000Z</time>
      </trkpt>
      <trkpt lat="47.8945" lon="1.99991">
        <ele>148</ele>
        <time>2013-09-29T09:54:42.000Z</time>
      </trkpt>
      <trkpt lat="47.89449" lon="2.00006">
        <ele>148</ele>
        <time>2013-09-29T09:54:44.000Z</time>
      </trkpt>
      <trkpt lat="47.89447" lon="2.00022">
        <ele>148</ele>
        <time>2013-09-29T09:54:46.000Z</time>
      </trkpt>
      <trkpt lat="47.89445" lon="2.00038">
        <ele>149</ele>
        <time>2013-09-29T09:54:48.000Z</time>
      </trkpt>
      <trkpt lat="47.89442" lon="2.00054">
        <ele>149</ele>
        <time>2013-09-29T09:54:50.000Z</time>
      </trkpt>
      <trkpt lat="47.89438" lon="2.00069">
        <ele>149</ele>
        <time>2013-09-29T09:54:52.000Z</time>
      </trkpt>
      <trkpt lat="47.89439" lon="2.00085">
        <ele>150</ele>
        <time>2013-09-29T09:54:54.000Z</time>
      </trkpt>
      <trkpt lat="47.89437" lon="2.001">
        <ele>149</ele>
        <time>2013-09-29T09:54:56.000Z</time>
      </trkpt>
      <trkpt lat="47.89437" lon="2.001">
        <ele>149</ele>
        <time>2013-09-29T09:54:58.000Z</time>
      </trkpt>
      <trkpt lat="47.89437" lon="2.001">
        <ele>149</ele>
        <time>2013-09-29T09:55:00.000Z</time>
      </trkpt>
      <trkpt lat="47.89437" lon="2.001">
        <ele>149</ele>
        <time>2013-09-29T09:55:01.000Z</time>
      </trkpt>
      <trkpt lat="47.89437" lon="2.001">
        <ele>149</ele>
        <time>2013-09-29T09:55:04.000Z</time>
      </trkpt>
      <trkpt lat="47.89405" lon="2.00193">
        <ele>149</ele>
        <time>2013-09-29T09:55:10.000Z</time>
      </trkpt>
      <trkpt lat="47.89401" lon="2.00209">
        <ele>148</ele>
        <time>2013-09-29T09:55:12.000Z</time>
      </trkpt>
      <trkpt lat="47.89397" lon="2.00226">
        <ele>146</ele>
        <time>2013-09-29T09:55:14.000Z</time>
      </trkpt>
      <trkpt lat="47.89392" lon="2.00244">
        <ele>147</ele>
        <time>2013-09-29T09:55:16.000Z</time>
      </trkpt>
      <trkpt lat="47.8939" lon="2.00265">
        <ele>147</ele>
        <time>2013-09-29T09:55:18.000Z</time>
      </trkpt>
      <trkpt lat="47.89386" lon="2.00284">
        <ele>146</ele>
        <time>2013-09-29T09:55:20.000Z</time>
      </trkpt>
      <trkpt lat="47.89382" lon="2.00305">
        <ele>146</ele>
        <time>2013-09-29T09:55:22.000Z</time>
      </trkpt>
      <trkpt lat="47.8938" lon="2.00326">
        <ele>146</ele>
        <time>2013-09-29T09:55:24.000Z</time>
      </trkpt>
      <trkpt lat="47.89378" lon="2.00345">
        <ele>147</ele>
        <time>2013-09-29T09:55:26.000Z</time>
      </trkpt>
      <trkpt lat="47.89376" lon="2.00364">
        <ele>147</ele>
        <time>2013-09-29T09:55:28.000Z</time>
      </trkpt>
      <trkpt lat="47.89374" lon="2.00382">
        <ele>147</ele>
        <time>2013-09-29T09:55:29.000Z</time>
      </trkpt>
      <trkpt lat="47.8937" lon="2.004">
        <ele>147</ele>
        <time>2013-09-29T09:55:32.000Z</time>
      </trkpt>
      <trkpt lat="47.89369" lon="2.00419">
        <ele>148</ele>
        <time>2013-09-29T09:55:34.000Z</time>
      </trkpt>
      <trkpt lat="47.89367" lon="2.00439">
        <ele>148</ele>
        <time>2013-09-29T09:55:36.000Z</time>
      </trkpt>
      <trkpt lat="47.89367" lon="2.00459">
        <ele>147</ele>
        <time>2013-09-29T09:55:37.000Z</time>
      </trkpt>
      <trkpt lat="47.89368" lon="2.00479">
        <ele>148</ele>
        <time>2013-09-29T09:55:40.000Z</time>
      </trkpt>
      <trkpt lat="47.89369" lon="2.00495">
        <ele>148</ele>
        <time>2013-09-29T09:55:42.000Z</time>
      </trkpt>
      <trkpt lat="47.89369" lon="2.0051">
        <ele>149</ele>
        <time>2013-09-29T09:55:44.000Z</time>
      </trkpt>
      <trkpt lat="47.89367" lon="2.00527">
        <ele>149</ele>
        <time>2013-09-29T09:55:46.000Z</time>
      </trkpt>
      <trkpt lat="47.89363" lon="2.00545">
        <ele>148</ele>
        <time>2013-09-29T09:55:48.000Z</time>
      </trkpt>
      <trkpt lat="47.89359" lon="2.0056">
        <ele>148</ele>
        <time>2013-09-29T09:55:50.000Z</time>
      </trkpt>
      <trkpt lat="47.89354" lon="2.00575">
        <ele>147</ele>
        <time>2013-09-29T09:55:52.000Z</time>
      </trkpt>
      <trkpt lat="47.89354" lon="2.00575">
        <ele>147</ele>
        <time>2013-09-29T09:55:54.000Z</time>
      </trkpt>
      <trkpt lat="47.89354" lon="2.00575">
        <ele>147</ele>
        <time>2013-09-29T09:55:56.000Z</time>
      </trkpt>
      <trkpt lat="47.89354" lon="2.00575">
        <ele>147</ele>
        <time>2013-09-29T09:55:57.000Z</time>
      </trkpt>
      <trkpt lat="47.89354" lon="2.00575">
        <ele>147</ele>
        <time>2013-09-29T09:56:00.000Z</time>
      </trkpt>
      <trkpt lat="47.89354" lon="2.00575">
        <ele>147</ele>
        <time>2013-09-29T09:56:06.000Z</time>
      </trkpt>
      <trkpt lat="47.89282" lon="2.00631">
        <ele>152</ele>
        <time>2013-09-29T09:56:10.000Z</time>
      </trkpt>
      <trkpt lat="47.89272" lon="2.00625">
        <ele>151</ele>
        <time>2013-09-29T09:56:11.000Z</time>
      </trkpt>
      <trkpt lat="47.89263" lon="2.0062">
        <ele>150</ele>
        <time>2013-09-29T09:56:14.000Z</time>
      </trkpt>
      <trkpt lat="47.89254" lon="2.00615">
        <ele>149</ele>
        <time>2013-09-29T09:56:16.000Z</time>
      </trkpt>
      <trkpt lat="47.89245" lon="2.00607">
        <ele>149</ele>
        <time>2013-09-29T09:56:18.000Z</time>
      </trkpt>
      <trkpt lat="47.89235" lon="2.00603">
        <ele>150</ele>
        <time>2013-09-29T09:56:20.000Z</time>
      </trkpt>
      <trkpt lat="47.89224" lon="2.00596">
        <ele>149</ele>
        <time>2013-09-29T09:56:22.000Z</time>
      </trkpt>
      <trkpt lat="47.89214" lon="2.00589">
        <ele>149</ele>
        <time>2013-09-29T09:56:24.000Z</time>
      </trkpt>
      <trkpt lat="47.89204" lon="2.00584">
        <ele>149</ele>
        <time>2013-09-29T09:56:26.000Z</time>
      </trkpt>
      <trkpt lat="47.89193" lon="2.00578">
        <ele>149</ele>
        <time>2013-09-29T09:56:28.000Z</time>
      </trkpt>
      <trkpt lat="47.89184" lon="2.00571">
        <ele>149</ele>
        <time>2013-09-29T09:56:30.000Z</time>
      </trkpt>
      <trkpt lat="47.89173" lon="2.00565">
        <ele>148</ele>
        <time>2013-09-29T09:56:32.000Z</time>
      </trkpt>
      <trkpt lat="47.89162" lon="2.0056">
        <ele>148</ele>
        <time>2013-09-29T09:56:34.000Z</time>
      </trkpt>
      <trkpt lat="47.89153" lon="2.00553">
        <ele>149</ele>
        <time>2013-09-29T09:56:36.000Z</time>
      </trkpt>
      <trkpt lat="47.89143" lon="2.00546">
        <ele>148</ele>
        <time>2013-09-29T09:56:37.000Z</time>
      </trkpt>
      <trkpt lat="47.89133" lon="2.00539">
        <ele>148</ele>
        <time>2013-09-29T09:56:40.000Z</time>
      </trkpt>
      <trkpt lat="47.89124" lon="2.00531">
        <ele>149</ele>
        <time>2013-09-29T09:56:42.000Z</time>
      </trkpt>
      <trkpt lat="47.89115" lon="2.00524">
        <ele>149</ele>
        <time>2013-09-29T09:56:44.000Z</time>
      </trkpt>
      <trkpt lat="47.89115" lon="2.00524">
        <ele>149</ele>
        <time>2013-09-29T09:56:46.000Z</time>
      </trkpt>
      <trkpt lat="47.89115" lon="2.00524">
        <ele>149</ele>
        <time>2013-09-29T09:56:47.000Z</time>
      </trkpt>
      <trkpt lat="47.89115" lon="2.00524">
        <ele>149</ele>
        <time>2013-09-29T09:56:50.000Z</time>
      </trkpt>
      <trkpt lat="47.89059" lon="2.00482">
        <ele>149</ele>
        <time>2013-09-29T09:56:56.000Z</time>
      </trkpt>
      <trkpt lat="47.89051" lon="2.00474">
        <ele>149</ele>
        <time>2013-09-29T09:56:57.000Z</time>
      </trkpt>
      <trkpt lat="47.89051" lon="2.00474">
        <ele>149</ele>
        <time>2013-09-29T09:57:00.000Z</time>
      </trkpt>
      <trkpt lat="47.89051" lon="2.00474">
        <ele>149</ele>
        <time>2013-09-29T09:57:01.000Z</time>
      </trkpt>
      <trkpt lat="47.89051" lon="2.00474">
        <ele>149</ele>
        <time>2013-09-29T09:57:04.000Z</time>
      </trkpt>
      <trkpt lat="47.89051" lon="2.00474">
        <ele>149</ele>
        <time>2013-09-29T09:57:06.000Z</time>
      </trkpt>
      <trkpt lat="47.89051" lon="2.00474">
        <ele>149</ele>
        <time>2013-09-29T09:57:08.000Z</time>
      </trkpt>
      <trkpt lat="47.89051" lon="2.00474">
        <ele>149</ele>
        <time>2013-09-29T09:57:10.000Z</time>
      </trkpt>
      <trkpt lat="47.89016" lon="2.00453">
        <ele>147</ele>
        <time>2013-09-29T09:57:14.000Z</time>
      </trkpt>
      <trkpt lat="47.88999" lon="2.00441">
        <ele>147</ele>
        <time>2013-09-29T09:57:18.000Z</time>
      </trkpt>
      <trkpt lat="47.88991" lon="2.00433">
        <ele>147</ele>
        <time>2013-09-29T09:57:20.000Z</time>
      </trkpt>
      <trkpt lat="47.88983" lon="2.00424">
        <ele>147</ele>
        <time>2013-09-29T09:57:22.000Z</time>
      </trkpt>
      <trkpt lat="47.88975" lon="2.00415">
        <ele>147</ele>
        <time>2013-09-29T09:57:24.000Z</time>
      </trkpt>
      <trkpt lat="47.88975" lon="2.00415">
        <ele>147</ele>
        <time>2013-09-29T09:57:26.000Z</time>
      </trkpt>
      <trkpt lat="47.88961" lon="2.004">
        <ele>147</ele>
        <time>2013-09-29T09:57:28.000Z</time>
      </trkpt>
      <trkpt lat="47.88961" lon="2.004">
        <ele>147</ele>
        <time>2013-09-29T09:57:30.000Z</time>
      </trkpt>
      <trkpt lat="47.88961" lon="2.004">
        <ele>147</ele>
        <time>2013-09-29T09:57:32.000Z</time>
      </trkpt>
      <trkpt lat="47.88961" lon="2.004">
        <ele>147</ele>
        <time>2013-09-29T09:57:34.000Z</time>
      </trkpt>
      <trkpt lat="47.88961" lon="2.004">
        <ele>147</ele>
        <time>2013-09-29T09:57:36.000Z</time>
      </trkpt>
      <trkpt lat="47.88961" lon="2.004">
        <ele>147</ele>
        <time>2013-09-29T09:57:38.000Z</time>
      </trkpt>
      <trkpt lat="47.88961" lon="2.004">
        <ele>147</ele>
        <time>2013-09-29T09:57:40.000Z</time>
      </trkpt>
      <trkpt lat="47.88961" lon="2.004">
        <ele>147</ele>
        <time>2013-09-29T09:57:42.000Z</time>
      </trkpt>
      <trkpt lat="47.88941" lon="2.00417">
        <ele>148</ele>
        <time>2013-09-29T09:57:48.000Z</time>
      </trkpt>
      <trkpt lat="47.88929" lon="2.0043">
        <ele>147</ele>
        <time>2013-09-29T09:57:50.000Z</time>
      </trkpt>
      <trkpt lat="47.88921" lon="2.0044">
        <ele>147</ele>
        <time>2013-09-29T09:57:52.000Z</time>
      </trkpt>
      <trkpt lat="47.88914" lon="2.0045">
        <ele>149</ele>
        <time>2013-09-29T09:57:54.000Z</time>
      </trkpt>
      <trkpt lat="47.88911" lon="2.00461">
        <ele>148</ele>
        <time>2013-09-29T09:57:56.000Z</time>
      </trkpt>
      <trkpt lat="47.88907" lon="2.00482">
        <ele>144</ele>
        <time>2013-09-29T09:57:57.000Z</time>
      </trkpt>
      <trkpt lat="47.88906" lon="2.005">
        <ele>142</ele>
        <time>2013-09-29T09:58:02.000Z</time>
      </trkpt>
      <trkpt lat="47.88906" lon="2.005">
        <ele>142</ele>
        <time>2013-09-29T09:58:04.000Z</time>
      </trkpt>
      <trkpt lat="47.88906" lon="2.005">
        <ele>142</ele>
        <time>2013-09-29T09:58:06.000Z</time>
      </trkpt>
      <trkpt lat="47.88906" lon="2.005">
        <ele>142</ele>
        <time>2013-09-29T09:58:08.000Z</time>
      </trkpt>
      <trkpt lat="47.88913" lon="2.00562">
        <ele>147</ele>
        <time>2013-09-29T09:58:12.000Z</time>
      </trkpt>
      <trkpt lat="47.8891" lon="2.00582">
        <ele>147</ele>
        <time>2013-09-29T09:58:14.000Z</time>
      </trkpt>
      <trkpt lat="47.88909" lon="2.00597">
        <ele>147</ele>
        <time>2013-09-29T09:58:16.000Z</time>
      </trkpt>
      <trkpt lat="47.8891" lon="2.00623">
        <ele>147</ele>
        <time>2013-09-29T09:58:20.000Z</time>
      </trkpt>
      <trkpt lat="47.88905" lon="2.00633">
        <ele>149</ele>
        <time>2013-09-29T09:58:22.000Z</time>
      </trkpt>
      <trkpt lat="47.88901" lon="2.00646">
        <ele>148</ele>
        <time>2013-09-29T09:58:23.000Z</time>
      </trkpt>
      <trkpt lat="47.88901" lon="2.00646">
        <ele>148</ele>
        <time>2013-09-29T09:58:26.000Z</time>
      </trkpt>
      <trkpt lat="47.88901" lon="2.00646">
        <ele>148</ele>
        <time>2013-09-29T09:58:28.000Z</time>
      </trkpt>
      <trkpt lat="47.88901" lon="2.00646">
        <ele>148</ele>
        <time>2013-09-29T09:58:30.000Z</time>
      </trkpt>
      <trkpt lat="47.88901" lon="2.00646">
        <ele>148</ele>
        <time>2013-09-29T09:58:32.000Z</time>
      </trkpt>
      <trkpt lat="47.88901" lon="2.00646">
        <ele>148</ele>
        <time>2013-09-29T09:58:34.000Z</time>
      </trkpt>
      <trkpt lat="47.88901" lon="2.00646">
        <ele>148</ele>
        <time>2013-09-29T09:58:36.000Z</time>
      </trkpt>
      <trkpt lat="47.88901" lon="2.00646">
        <ele>148</ele>
        <time>2013-09-29T09:58:37.000Z</time>
      </trkpt>
      <trkpt lat="47.88901" lon="2.00646">
        <ele>148</ele>
        <time>2013-09-29T09:58:39.000Z</time>
      </trkpt>
      <trkpt lat="47.88901" lon="2.00646">
        <ele>148</ele>
        <time>2013-09-29T09:58:42.000Z</time>
      </trkpt>
      <trkpt lat="47.88901" lon="2.00646">
        <ele>148</ele>
        <time>2013-09-29T09:58:44.000Z</time>
      </trkpt>
      <trkpt lat="47.88901" lon="2.00646">
        <ele>148</ele>
        <time>2013-09-29T09:58:46.000Z</time>
      </trkpt>
      <trkpt lat="47.88901" lon="2.00646">
        <ele>148</ele>
        <time>2013-09-29T09:58:48.000Z</time>
      </trkpt>
      <trkpt lat="47.88901" lon="2.00646">
        <ele>148</ele>
        <time>2013-09-29T09:58:50.000Z</time>
      </trkpt>
      <trkpt lat="47.88902" lon="2.00779">
        <ele>161</ele>
        <time>2013-09-29T09:58:54.000Z</time>
      </trkpt>
      <trkpt lat="47.88907" lon="2.00793">
        <ele>163</ele>
        <time>2013-09-29T09:58:58.000Z</time>
      </trkpt>
      <trkpt lat="47.88907" lon="2.00793">
        <ele>163</ele>
        <time>2013-09-29T09:59:00.000Z</time>
      </trkpt>
      <trkpt lat="47.88907" lon="2.00793">
        <ele>163</ele>
        <time>2013-09-29T09:59:01.000Z</time>
      </trkpt>
      <trkpt lat="47.88907" lon="2.00793">
        <ele>163</ele>
        <time>2013-09-29T09:59:04.000Z</time>
      </trkpt>
      <trkpt lat="47.88907" lon="2.00793">
        <ele>163</ele>
        <time>2013-09-29T09:59:06.000Z</time>
      </trkpt>
      <trkpt lat="47.88907" lon="2.00793">
        <ele>163</ele>
        <time>2013-09-29T09:59:08.000Z</time>
      </trkpt>
      <trkpt lat="47.88907" lon="2.00793">
        <ele>163</ele>
        <time>2013-09-29T09:59:16.000Z</time>
      </trkpt>
      <trkpt lat="47.88907" lon="2.00793">
        <ele>163</ele>
        <time>2013-09-29T09:59:17.000Z</time>
      </trkpt>
      <trkpt lat="47.88907" lon="2.00793">
        <ele>163</ele>
        <time>2013-09-29T09:59:20.000Z</time>
      </trkpt>
      <trkpt lat="47.88907" lon="2.00793">
        <ele>163</ele>
        <time>2013-09-29T09:59:22.000Z</time>
      </trkpt>
      <trkpt lat="47.88907" lon="2.00793">
        <ele>163</ele>
        <time>2013-09-29T09:59:24.000Z</time>
      </trkpt>
      <trkpt lat="47.8891" lon="2.00842">
        <ele>160</ele>
        <time>2013-09-29T09:59:28.000Z</time>
      </trkpt>
      <trkpt lat="47.88912" lon="2.00871">
        <ele>159</ele>
        <time>2013-09-29T09:59:29.000Z</time>
      </trkpt>
      <trkpt lat="47.88913" lon="2.00889">
        <ele>158</ele>
        <time>2013-09-29T09:59:32.000Z</time>
      </trkpt>
      <trkpt lat="47.88913" lon="2.00902">
        <ele>159</ele>
        <time>2013-09-29T09:59:34.000Z</time>
      </trkpt>
      <trkpt lat="47.88913" lon="2.00913">
        <ele>159</ele>
        <time>2013-09-29T09:59:36.000Z</time>
      </trkpt>
      <trkpt lat="47.88912" lon="2.00933">
        <ele>160</ele>
        <time>2013-09-29T09:59:37.000Z</time>
      </trkpt>
      <trkpt lat="47.88917" lon="2.00952">
        <ele>160</ele>
        <time>2013-09-29T09:59:42.000Z</time>
      </trkpt>
      <trkpt lat="47.8892" lon="2.00973">
        <ele>157</ele>
        <time>2013-09-29T09:59:46.000Z</time>
      </trkpt>
      <trkpt lat="47.88919" lon="2.0099">
        <ele>157</ele>
        <time>2013-09-29T09:59:50.000Z</time>
      </trkpt>
      <trkpt lat="47.88919" lon="2.0099">
        <ele>157</ele>
        <time>2013-09-29T09:59:52.000Z</time>
      </trkpt>
      <trkpt lat="47.88919" lon="2.0099">
        <ele>157</ele>
        <time>2013-09-29T09:59:53.000Z</time>
      </trkpt>
      <trkpt lat="47.88916" lon="2.01041">
        <ele>158</ele>
        <time>2013-09-29T09:59:58.000Z</time>
      </trkpt>
      <trkpt lat="47.88913" lon="2.01067">
        <ele>157</ele>
        <time>2013-09-29T10:00:02.000Z</time>
      </trkpt>
      <trkpt lat="47.88913" lon="2.01067">
        <ele>157</ele>
        <time>2013-09-29T10:00:03.000Z</time>
      </trkpt>
      <trkpt lat="47.88914" lon="2.01094">
        <ele>159</ele>
        <time>2013-09-29T10:00:06.000Z</time>
      </trkpt>
      <trkpt lat="47.88914" lon="2.01094">
        <ele>159</ele>
        <time>2013-09-29T10:00:08.000Z</time>
      </trkpt>
      <trkpt lat="47.88914" lon="2.01094">
        <ele>159</ele>
        <time>2013-09-29T10:00:10.000Z</time>
      </trkpt>
      <trkpt lat="47.88916" lon="2.01141">
        <ele>166</ele>
        <time>2013-09-29T10:00:12.000Z</time>
      </trkpt>
      <trkpt lat="47.88915" lon="2.01156">
        <ele>166</ele>
        <time>2013-09-29T10:00:13.000Z</time>
      </trkpt>
      <trkpt lat="47.88917" lon="2.01184">
        <ele>167</ele>
        <time>2013-09-29T10:00:18.000Z</time>
      </trkpt>
      <trkpt lat="47.88918" lon="2.01203">
        <ele>168</ele>
        <time>2013-09-29T10:00:20.000Z</time>
      </trkpt>
      <trkpt lat="47.88913" lon="2.01218">
        <ele>169</ele>
        <time>2013-09-29T10:00:22.000Z</time>
      </trkpt>
      <trkpt lat="47.88912" lon="2.01234">
        <ele>169</ele>
        <time>2013-09-29T10:00:24.000Z</time>
      </trkpt>
      <trkpt lat="47.88911" lon="2.0125">
        <ele>169</ele>
        <time>2013-09-29T10:00:26.000Z</time>
      </trkpt>
      <trkpt lat="47.88908" lon="2.01264">
        <ele>167</ele>
        <time>2013-09-29T10:00:28.000Z</time>
      </trkpt>
      <trkpt lat="47.88907" lon="2.01278">
        <ele>168</ele>
        <time>2013-09-29T10:00:30.000Z</time>
      </trkpt>
      <trkpt lat="47.88905" lon="2.01292">
        <ele>168</ele>
        <time>2013-09-29T10:00:32.000Z</time>
      </trkpt>
      <trkpt lat="47.88904" lon="2.01307">
        <ele>167</ele>
        <time>2013-09-29T10:00:34.000Z</time>
      </trkpt>
      <trkpt lat="47.88901" lon="2.01322">
        <ele>167</ele>
        <time>2013-09-29T10:00:36.000Z</time>
      </trkpt>
      <trkpt lat="47.88903" lon="2.0134">
        <ele>166</ele>
        <time>2013-09-29T10:00:37.000Z</time>
      </trkpt>
      <trkpt lat="47.88903" lon="2.01354">
        <ele>167</ele>
        <time>2013-09-29T10:00:40.000Z</time>
      </trkpt>
      <trkpt lat="47.88904" lon="2.01369">
        <ele>166</ele>
        <time>2013-09-29T10:00:42.000Z</time>
      </trkpt>
      <trkpt lat="47.88905" lon="2.01383">
        <ele>166</ele>
        <time>2013-09-29T10:00:44.000Z</time>
      </trkpt>
      <trkpt lat="47.88901" lon="2.01396">
        <ele>166</ele>
        <time>2013-09-29T10:00:46.000Z</time>
      </trkpt>
      <trkpt lat="47.88901" lon="2.01396">
        <ele>166</ele>
        <time>2013-09-29T10:00:48.000Z</time>
      </trkpt>
      <trkpt lat="47.88901" lon="2.01396">
        <ele>166</ele>
        <time>2013-09-29T10:00:50.000Z</time>
      </trkpt>
      <trkpt lat="47.88901" lon="2.01396">
        <ele>166</ele>
        <time>2013-09-29T10:00:52.000Z</time>
      </trkpt>
      <trkpt lat="47.88905" lon="2.01473">
        <ele>168</ele>
        <time>2013-09-29T10:00:56.000Z</time>
      </trkpt>
      <trkpt lat="47.88905" lon="2.01487">
        <ele>168</ele>
        <time>2013-09-29T10:00:57.000Z</time>
      </trkpt>
      <trkpt lat="47.88904" lon="2.01501">
        <ele>163</ele>
        <time>2013-09-29T10:01:00.000Z</time>
      </trkpt>
      <trkpt lat="47.88903" lon="2.01515">
        <ele>163</ele>
        <time>2013-09-29T10:01:01.000Z</time>
      </trkpt>
      <trkpt lat="47.88903" lon="2.01515">
        <ele>163</ele>
        <time>2013-09-29T10:01:04.000Z</time>
      </trkpt>
      <trkpt lat="47.88903" lon="2.01515">
        <ele>163</ele>
        <time>2013-09-29T10:01:06.000Z</time>
      </trkpt>
      <trkpt lat="47.88903" lon="2.01515">
        <ele>163</ele>
        <time>2013-09-29T10:01:07.000Z</time>
      </trkpt>
      <trkpt lat="47.88903" lon="2.01515">
        <ele>163</ele>
        <time>2013-09-29T10:01:10.000Z</time>
      </trkpt>
      <trkpt lat="47.88903" lon="2.01515">
        <ele>163</ele>
        <time>2013-09-29T10:01:12.000Z</time>
      </trkpt>
      <trkpt lat="47.88903" lon="2.01515">
        <ele>163</ele>
        <time>2013-09-29T10:01:13.000Z</time>
      </trkpt>
      <trkpt lat="47.88903" lon="2.01515">
        <ele>163</ele>
        <time>2013-09-29T10:01:16.000Z</time>
      </trkpt>
      <trkpt lat="47.88903" lon="2.01515">
        <ele>163</ele>
        <time>2013-09-29T10:01:18.000Z</time>
      </trkpt>
      <trkpt lat="47.88903" lon="2.01515">
        <ele>163</ele>
        <time>2013-09-29T10:01:20.000Z</time>
      </trkpt>
      <trkpt lat="47.88903" lon="2.01515">
        <ele>163</ele>
        <time>2013-09-29T10:01:22.000Z</time>
      </trkpt>
      <trkpt lat="47.88886" lon="2.01589">
        <ele>149</ele>
        <time>2013-09-29T10:02:22.000Z</time>
      </trkpt>
      <trkpt lat="47.88876" lon="2.01625">
        <ele>149</ele>
        <time>2013-09-29T10:02:27.000Z</time>
      </trkpt>
      <trkpt lat="47.88877" lon="2.01642">
        <ele>149</ele>
        <time>2013-09-29T10:02:29.000Z</time>
      </trkpt>
      <trkpt lat="47.88877" lon="2.01657">
        <ele>149</ele>
        <time>2013-09-29T10:02:31.000Z</time>
      </trkpt>
      <trkpt lat="47.88877" lon="2.01657">
        <ele>149</ele>
        <time>2013-09-29T10:02:33.000Z</time>
      </trkpt>
      <trkpt lat="47.88877" lon="2.01657">
        <ele>149</ele>
        <time>2013-09-29T10:02:35.000Z</time>
      </trkpt>
      <trkpt lat="47.88877" lon="2.01657">
        <ele>149</ele>
        <time>2013-09-29T10:02:36.000Z</time>
      </trkpt>
      <trkpt lat="47.88877" lon="2.01657">
        <ele>149</ele>
        <time>2013-09-29T10:02:39.000Z</time>
      </trkpt>
      <trkpt lat="47.88877" lon="2.01657">
        <ele>149</ele>
        <time>2013-09-29T10:02:41.000Z</time>
      </trkpt>
      <trkpt lat="47.88877" lon="2.01657">
        <ele>149</ele>
        <time>2013-09-29T10:02:42.000Z</time>
      </trkpt>
      <trkpt lat="47.88836" lon="2.01764">
        <ele>147</ele>
        <time>2013-09-29T10:02:47.000Z</time>
      </trkpt>
      <trkpt lat="47.88832" lon="2.0178">
        <ele>147</ele>
        <time>2013-09-29T10:02:49.000Z</time>
      </trkpt>
      <trkpt lat="47.88832" lon="2.0178">
        <ele>147</ele>
        <time>2013-09-29T10:02:51.000Z</time>
      </trkpt>
      <trkpt lat="47.88832" lon="2.0178">
        <ele>147</ele>
        <time>2013-09-29T10:02:54.000Z</time>
      </trkpt>
      <trkpt lat="47.88804" lon="2.01828">
        <ele>148</ele>
        <time>2013-09-29T10:02:58.000Z</time>
      </trkpt>
      <trkpt lat="47.888" lon="2.01841">
        <ele>148</ele>
        <time>2013-09-29T10:03:00.000Z</time>
      </trkpt>
      <trkpt lat="47.88794" lon="2.01855">
        <ele>147</ele>
        <time>2013-09-29T10:03:01.000Z</time>
      </trkpt>
      <trkpt lat="47.88794" lon="2.01855">
        <ele>147</ele>
        <time>2013-09-29T10:03:04.000Z</time>
      </trkpt>
      <trkpt lat="47.88785" lon="2.01871">
        <ele>147</ele>
        <time>2013-09-29T10:03:06.000Z</time>
      </trkpt>
      <trkpt lat="47.88785" lon="2.01871">
        <ele>147</ele>
        <time>2013-09-29T10:03:08.000Z</time>
      </trkpt>
      <trkpt lat="47.88785" lon="2.01871">
        <ele>147</ele>
        <time>2013-09-29T10:03:10.000Z</time>
      </trkpt>
      <trkpt lat="47.88785" lon="2.01871">
        <ele>147</ele>
        <time>2013-09-29T10:03:14.000Z</time>
      </trkpt>
      <trkpt lat="47.88785" lon="2.01871">
        <ele>147</ele>
        <time>2013-09-29T10:03:16.000Z</time>
      </trkpt>
      <trkpt lat="47.88785" lon="2.01871">
        <ele>147</ele>
        <time>2013-09-29T10:03:17.000Z</time>
      </trkpt>
      <trkpt lat="47.88785" lon="2.01871">
        <ele>147</ele>
        <time>2013-09-29T10:03:22.000Z</time>
      </trkpt>
      <trkpt lat="47.88785" lon="2.01871">
        <ele>147</ele>
        <time>2013-09-29T10:03:24.000Z</time>
      </trkpt>
      <trkpt lat="47.88785" lon="2.01871">
        <ele>147</ele>
        <time>2013-09-29T10:03:26.000Z</time>
      </trkpt>
      <trkpt lat="47.88729" lon="2.0202">
        <ele>152</ele>
        <time>2013-09-29T10:03:34.000Z</time>
      </trkpt>
      <trkpt lat="47.88726" lon="2.02043">
        <ele>154</ele>
        <time>2013-09-29T10:03:38.000Z</time>
      </trkpt>
      <trkpt lat="47.88726" lon="2.02043">
        <ele>154</ele>
        <time>2013-09-29T10:03:40.000Z</time>
      </trkpt>
      <trkpt lat="47.88726" lon="2.02043">
        <ele>154</ele>
        <time>2013-09-29T10:03:41.000Z</time>
      </trkpt>
      <trkpt lat="47.88726" lon="2.02043">
        <ele>154</ele>
        <time>2013-09-29T10:03:44.000Z</time>
      </trkpt>
      <trkpt lat="47.88726" lon="2.02043">
        <ele>154</ele>
        <time>2013-09-29T10:03:46.000Z</time>
      </trkpt>
      <trkpt lat="47.88726" lon="2.02043">
        <ele>154</ele>
        <time>2013-09-29T10:03:47.000Z</time>
      </trkpt>
      <trkpt lat="47.88726" lon="2.02043">
        <ele>154</ele>
        <time>2013-09-29T10:03:50.000Z</time>
      </trkpt>
      <trkpt lat="47.88726" lon="2.02043">
        <ele>154</ele>
        <time>2013-09-29T10:03:52.000Z</time>
      </trkpt>
      <trkpt lat="47.88726" lon="2.02043">
        <ele>154</ele>
        <time>2013-09-29T10:03:54.000Z</time>
      </trkpt>
      <trkpt lat="47.88726" lon="2.02043">
        <ele>154</ele>
        <time>2013-09-29T10:03:56.000Z</time>
      </trkpt>
      <trkpt lat="47.88726" lon="2.02043">
        <ele>154</ele>
        <time>2013-09-29T10:03:57.000Z</time>
      </trkpt>
      <trkpt lat="47.88726" lon="2.02043">
        <ele>154</ele>
        <time>2013-09-29T10:04:00.000Z</time>
      </trkpt>
      <trkpt lat="47.88713" lon="2.02107">
        <ele>156</ele>
        <time>2013-09-29T10:04:06.000Z</time>
      </trkpt>
      <trkpt lat="47.88706" lon="2.02145">
        <ele>153</ele>
        <time>2013-09-29T10:04:07.000Z</time>
      </trkpt>
      <trkpt lat="47.88702" lon="2.02167">
        <ele>153</ele>
        <time>2013-09-29T10:04:10.000Z</time>
      </trkpt>
      <trkpt lat="47.887" lon="2.02183">
        <ele>154</ele>
        <time>2013-09-29T10:04:12.000Z</time>
      </trkpt>
      <trkpt lat="47.887" lon="2.02183">
        <ele>154</ele>
        <time>2013-09-29T10:04:14.000Z</time>
      </trkpt>
      <trkpt lat="47.887" lon="2.02183">
        <ele>154</ele>
        <time>2013-09-29T10:04:16.000Z</time>
      </trkpt>
      <trkpt lat="47.88697" lon="2.02215">
        <ele>155</ele>
        <time>2013-09-29T10:04:22.000Z</time>
      </trkpt>
      <trkpt lat="47.88694" lon="2.02237">
        <ele>154</ele>
        <time>2013-09-29T10:04:24.000Z</time>
      </trkpt>
      <trkpt lat="47.88691" lon="2.02253">
        <ele>154</ele>
        <time>2013-09-29T10:04:26.000Z</time>
      </trkpt>
      <trkpt lat="47.8869" lon="2.02266">
        <ele>155</ele>
        <time>2013-09-29T10:04:28.000Z</time>
      </trkpt>
      <trkpt lat="47.88689" lon="2.02277">
        <ele>156</ele>
        <time>2013-09-29T10:04:30.000Z</time>
      </trkpt>
      <trkpt lat="47.88689" lon="2.02277">
        <ele>156</ele>
        <time>2013-09-29T10:04:32.000Z</time>
      </trkpt>
      <trkpt lat="47.88689" lon="2.02277">
        <ele>156</ele>
        <time>2013-09-29T10:04:34.000Z</time>
      </trkpt>
      <trkpt lat="47.88688" lon="2.02332">
        <ele>158</ele>
        <time>2013-09-29T10:04:38.000Z</time>
      </trkpt>
      <trkpt lat="47.88688" lon="2.02352">
        <ele>160</ele>
        <time>2013-09-29T10:04:42.000Z</time>
      </trkpt>
      <trkpt lat="47.88688" lon="2.02352">
        <ele>160</ele>
        <time>2013-09-29T10:04:43.000Z</time>
      </trkpt>
      <trkpt lat="47.88688" lon="2.02352">
        <ele>160</ele>
        <time>2013-09-29T10:04:46.000Z</time>
      </trkpt>
      <trkpt lat="47.88688" lon="2.02352">
        <ele>160</ele>
        <time>2013-09-29T10:04:48.000Z</time>
      </trkpt>
      <trkpt lat="47.88688" lon="2.02352">
        <ele>160</ele>
        <time>2013-09-29T10:04:50.000Z</time>
      </trkpt>
      <trkpt lat="47.8868" lon="2.02414">
        <ele>158</ele>
        <time>2013-09-29T10:04:54.000Z</time>
      </trkpt>
      <trkpt lat="47.88677" lon="2.02436">
        <ele>158</ele>
        <time>2013-09-29T10:04:58.000Z</time>
      </trkpt>
      <trkpt lat="47.88675" lon="2.02458">
        <ele>159</ele>
        <time>2013-09-29T10:05:02.000Z</time>
      </trkpt>
      <trkpt lat="47.8867" lon="2.0248">
        <ele>159</ele>
        <time>2013-09-29T10:05:06.000Z</time>
      </trkpt>
      <trkpt lat="47.88666" lon="2.02501">
        <ele>159</ele>
        <time>2013-09-29T10:05:10.000Z</time>
      </trkpt>
      <trkpt lat="47.8866" lon="2.02523">
        <ele>159</ele>
        <time>2013-09-29T10:05:14.000Z</time>
      </trkpt>
      <trkpt lat="47.8866" lon="2.02523">
        <ele>159</ele>
        <time>2013-09-29T10:05:15.000Z</time>
      </trkpt>
      <trkpt lat="47.8866" lon="2.02523">
        <ele>159</ele>
        <time>2013-09-29T10:05:17.000Z</time>
      </trkpt>
      <trkpt lat="47.8866" lon="2.02523">
        <ele>159</ele>
        <time>2013-09-29T10:05:20.000Z</time>
      </trkpt>
      <trkpt lat="47.8866" lon="2.02523">
        <ele>159</ele>
        <time>2013-09-29T10:05:22.000Z</time>
      </trkpt>
      <trkpt lat="47.88644" lon="2.02594">
        <ele>162</ele>
        <time>2013-09-29T10:05:28.000Z</time>
      </trkpt>
      <trkpt lat="47.88644" lon="2.02594">
        <ele>162</ele>
        <time>2013-09-29T10:05:30.000Z</time>
      </trkpt>
      <trkpt lat="47.88644" lon="2.02594">
        <ele>162</ele>
        <time>2013-09-29T10:05:32.000Z</time>
      </trkpt>
      <trkpt lat="47.88644" lon="2.02594">
        <ele>162</ele>
        <time>2013-09-29T10:05:34.000Z</time>
      </trkpt>
      <trkpt lat="47.88644" lon="2.02594">
        <ele>162</ele>
        <time>2013-09-29T10:05:35.000Z</time>
      </trkpt>
      <trkpt lat="47.88628" lon="2.02653">
        <ele>164</ele>
        <time>2013-09-29T10:05:40.000Z</time>
      </trkpt>
      <trkpt lat="47.8862" lon="2.02673">
        <ele>164</ele>
        <time>2013-09-29T10:05:44.000Z</time>
      </trkpt>
      <trkpt lat="47.88607" lon="2.02694">
        <ele>161</ele>
        <time>2013-09-29T10:05:48.000Z</time>
      </trkpt>
      <trkpt lat="47.88601" lon="2.02706">
        <ele>160</ele>
        <time>2013-09-29T10:05:50.000Z</time>
      </trkpt>
      <trkpt lat="47.88597" lon="2.02718">
        <ele>160</ele>
        <time>2013-09-29T10:05:52.000Z</time>
      </trkpt>
      <trkpt lat="47.88588" lon="2.0274">
        <ele>160</ele>
        <time>2013-09-29T10:05:56.000Z</time>
      </trkpt>
      <trkpt lat="47.88588" lon="2.0274">
        <ele>160</ele>
        <time>2013-09-29T10:05:57.000Z</time>
      </trkpt>
      <trkpt lat="47.88588" lon="2.0274">
        <ele>160</ele>
        <time>2013-09-29T10:06:00.000Z</time>
      </trkpt>
      <trkpt lat="47.88588" lon="2.0274">
        <ele>160</ele>
        <time>2013-09-29T10:06:01.000Z</time>
      </trkpt>
      <trkpt lat="47.88588" lon="2.0274">
        <ele>160</ele>
        <time>2013-09-29T10:06:04.000Z</time>
      </trkpt>
      <trkpt lat="47.88588" lon="2.0274">
        <ele>160</ele>
        <time>2013-09-29T10:06:06.000Z</time>
      </trkpt>
      <trkpt lat="47.88588" lon="2.0274">
        <ele>160</ele>
        <time>2013-09-29T10:06:08.000Z</time>
      </trkpt>
      <trkpt lat="47.88588" lon="2.0274">
        <ele>160</ele>
        <time>2013-09-29T10:06:10.000Z</time>
      </trkpt>
      <trkpt lat="47.88588" lon="2.0274">
        <ele>160</ele>
        <time>2013-09-29T10:06:12.000Z</time>
      </trkpt>
      <trkpt lat="47.88588" lon="2.0274">
        <ele>160</ele>
        <time>2013-09-29T10:06:14.000Z</time>
      </trkpt>
      <trkpt lat="47.88588" lon="2.0274">
        <ele>160</ele>
        <time>2013-09-29T10:06:16.000Z</time>
      </trkpt>
      <trkpt lat="47.88588" lon="2.0274">
        <ele>160</ele>
        <time>2013-09-29T10:06:17.000Z</time>
      </trkpt>
      <trkpt lat="47.88588" lon="2.0274">
        <ele>160</ele>
        <time>2013-09-29T10:06:20.000Z</time>
      </trkpt>
      <trkpt lat="47.88588" lon="2.0274">
        <ele>160</ele>
        <time>2013-09-29T10:06:22.000Z</time>
      </trkpt>
      <trkpt lat="47.88572" lon="2.02795">
        <ele>167</ele>
        <time>2013-09-29T10:06:26.000Z</time>
      </trkpt>
      <trkpt lat="47.88562" lon="2.02827">
        <ele>164</ele>
        <time>2013-09-29T10:06:27.000Z</time>
      </trkpt>
      <trkpt lat="47.88556" lon="2.02848">
        <ele>163</ele>
        <time>2013-09-29T10:06:30.000Z</time>
      </trkpt>
      <trkpt lat="47.88551" lon="2.02862">
        <ele>160</ele>
        <time>2013-09-29T10:06:32.000Z</time>
      </trkpt>
      <trkpt lat="47.88548" lon="2.02874">
        <ele>159</ele>
        <time>2013-09-29T10:06:33.000Z</time>
      </trkpt>
      <trkpt lat="47.88544" lon="2.02896">
        <ele>161</ele>
        <time>2013-09-29T10:06:36.000Z</time>
      </trkpt>
      <trkpt lat="47.88554" lon="2.02916">
        <ele>166</ele>
        <time>2013-09-29T10:06:40.000Z</time>
      </trkpt>
      <trkpt lat="47.88564" lon="2.02932">
        <ele>162</ele>
        <time>2013-09-29T10:06:44.000Z</time>
      </trkpt>
      <trkpt lat="47.88579" lon="2.02932">
        <ele>161</ele>
        <time>2013-09-29T10:06:48.000Z</time>
      </trkpt>
      <trkpt lat="47.88593" lon="2.02932">
        <ele>160</ele>
        <time>2013-09-29T10:06:52.000Z</time>
      </trkpt>
      <trkpt lat="47.88593" lon="2.02932">
        <ele>160</ele>
        <time>2013-09-29T10:06:53.000Z</time>
      </trkpt>
      <trkpt lat="47.88593" lon="2.02932">
        <ele>160</ele>
        <time>2013-09-29T10:06:56.000Z</time>
      </trkpt>
      <trkpt lat="47.88593" lon="2.02932">
        <ele>160</ele>
        <time>2013-09-29T10:06:57.000Z</time>
      </trkpt>
      <trkpt lat="47.88593" lon="2.02932">
        <ele>160</ele>
        <time>2013-09-29T10:06:59.000Z</time>
      </trkpt>
      <trkpt lat="47.88572" lon="2.02947">
        <ele>157</ele>
        <time>2013-09-29T10:07:06.000Z</time>
      </trkpt>
      <trkpt lat="47.88562" lon="2.02948">
        <ele>156</ele>
        <time>2013-09-29T10:07:10.000Z</time>
      </trkpt>
      <trkpt lat="47.8855" lon="2.02951">
        <ele>154</ele>
        <time>2013-09-29T10:07:14.000Z</time>
      </trkpt>
      <trkpt lat="47.88538" lon="2.02951">
        <ele>153</ele>
        <time>2013-09-29T10:07:18.000Z</time>
      </trkpt>
      <trkpt lat="47.88523" lon="2.02955">
        <ele>154</ele>
        <time>2013-09-29T10:07:22.000Z</time>
      </trkpt>
      <trkpt lat="47.88509" lon="2.0296">
        <ele>153</ele>
        <time>2013-09-29T10:07:26.000Z</time>
      </trkpt>
      <trkpt lat="47.88492" lon="2.02964">
        <ele>153</ele>
        <time>2013-09-29T10:07:30.000Z</time>
      </trkpt>
      <trkpt lat="47.88475" lon="2.02969">
        <ele>153</ele>
        <time>2013-09-29T10:07:34.000Z</time>
      </trkpt>
      <trkpt lat="47.88458" lon="2.02973">
        <ele>152</ele>
        <time>2013-09-29T10:07:38.000Z</time>
      </trkpt>
      <trkpt lat="47.88441" lon="2.02979">
        <ele>152</ele>
        <time>2013-09-29T10:07:42.000Z</time>
      </trkpt>
      <trkpt lat="47.88425" lon="2.02986">
        <ele>152</ele>
        <time>2013-09-29T10:07:46.000Z</time>
      </trkpt>
      <trkpt lat="47.88407" lon="2.02991">
        <ele>152</ele>
        <time>2013-09-29T10:07:50.000Z</time>
      </trkpt>
      <trkpt lat="47.8839" lon="2.02999">
        <ele>152</ele>
        <time>2013-09-29T10:07:54.000Z</time>
      </trkpt>
      <trkpt lat="47.88381" lon="2.03003">
        <ele>152</ele>
        <time>2013-09-29T10:07:56.000Z</time>
      </trkpt>
      <trkpt lat="47.88381" lon="2.03003">
        <ele>152</ele>
        <time>2013-09-29T10:07:57.000Z</time>
      </trkpt>
      <trkpt lat="47.88381" lon="2.03003">
        <ele>152</ele>
        <time>2013-09-29T10:08:00.000Z</time>
      </trkpt>
      <trkpt lat="47.88381" lon="2.03003">
        <ele>152</ele>
        <time>2013-09-29T10:08:01.000Z</time>
      </trkpt>
      <trkpt lat="47.88381" lon="2.03003">
        <ele>152</ele>
        <time>2013-09-29T10:08:04.000Z</time>
      </trkpt>
      <trkpt lat="47.88381" lon="2.03003">
        <ele>152</ele>
        <time>2013-09-29T10:08:06.000Z</time>
      </trkpt>
      <trkpt lat="47.88332" lon="2.03052">
        <ele>154</ele>
        <time>2013-09-29T10:08:10.000Z</time>
      </trkpt>
      <trkpt lat="47.88325" lon="2.03064">
        <ele>153</ele>
        <time>2013-09-29T10:08:11.000Z</time>
      </trkpt>
      <trkpt lat="47.88318" lon="2.03073">
        <ele>152</ele>
        <time>2013-09-29T10:08:14.000Z</time>
      </trkpt>
      <trkpt lat="47.88311" lon="2.03083">
        <ele>153</ele>
        <time>2013-09-29T10:08:16.000Z</time>
      </trkpt>
      <trkpt lat="47.88304" lon="2.03093">
        <ele>153</ele>
        <time>2013-09-29T10:08:17.000Z</time>
      </trkpt>
      <trkpt lat="47.88297" lon="2.03103">
        <ele>153</ele>
        <time>2013-09-29T10:08:20.000Z</time>
      </trkpt>
      <trkpt lat="47.8829" lon="2.03113">
        <ele>152</ele>
        <time>2013-09-29T10:08:22.000Z</time>
      </trkpt>
      <trkpt lat="47.88283" lon="2.03122">
        <ele>152</ele>
        <time>2013-09-29T10:08:24.000Z</time>
      </trkpt>
      <trkpt lat="47.88275" lon="2.03132">
        <ele>152</ele>
        <time>2013-09-29T10:08:26.000Z</time>
      </trkpt>
      <trkpt lat="47.88267" lon="2.03142">
        <ele>152</ele>
        <time>2013-09-29T10:08:28.000Z</time>
      </trkpt>
      <trkpt lat="47.88261" lon="2.03152">
        <ele>152</ele>
        <time>2013-09-29T10:08:30.000Z</time>
      </trkpt>
      <trkpt lat="47.88255" lon="2.03163">
        <ele>152</ele>
        <time>2013-09-29T10:08:32.000Z</time>
      </trkpt>
      <trkpt lat="47.88247" lon="2.03174">
        <ele>152</ele>
        <time>2013-09-29T10:08:34.000Z</time>
      </trkpt>
      <trkpt lat="47.8824" lon="2.03184">
        <ele>152</ele>
        <time>2013-09-29T10:08:36.000Z</time>
      </trkpt>
      <trkpt lat="47.8824" lon="2.03184">
        <ele>152</ele>
        <time>2013-09-29T10:08:37.000Z</time>
      </trkpt>
      <trkpt lat="47.8824" lon="2.03184">
        <ele>152</ele>
        <time>2013-09-29T10:08:40.000Z</time>
      </trkpt>
      <trkpt lat="47.8824" lon="2.03184">
        <ele>152</ele>
        <time>2013-09-29T10:08:42.000Z</time>
      </trkpt>
      <trkpt lat="47.8824" lon="2.03184">
        <ele>152</ele>
        <time>2013-09-29T10:08:43.000Z</time>
      </trkpt>
      <trkpt lat="47.8824" lon="2.03184">
        <ele>152</ele>
        <time>2013-09-29T10:08:45.000Z</time>
      </trkpt>
      <trkpt lat="47.8824" lon="2.03184">
        <ele>152</ele>
        <time>2013-09-29T10:08:48.000Z</time>
      </trkpt>
      <trkpt lat="47.88215" lon="2.03218">
        <ele>153</ele>
        <time>2013-09-29T10:08:52.000Z</time>
      </trkpt>
      <trkpt lat="47.88198" lon="2.0324">
        <ele>153</ele>
        <time>2013-09-29T10:08:53.000Z</time>
      </trkpt>
      <trkpt lat="47.88186" lon="2.03256">
        <ele>154</ele>
        <time>2013-09-29T10:08:56.000Z</time>
      </trkpt>
      <trkpt lat="47.88176" lon="2.03267">
        <ele>153</ele>
        <time>2013-09-29T10:08:57.000Z</time>
      </trkpt>
      <trkpt lat="47.88168" lon="2.03277">
        <ele>153</ele>
        <time>2013-09-29T10:08:59.000Z</time>
      </trkpt>
      <trkpt lat="47.88152" lon="2.03295">
        <ele>153</ele>
        <time>2013-09-29T10:09:01.000Z</time>
      </trkpt>
      <trkpt lat="47.88136" lon="2.03312">
        <ele>153</ele>
        <time>2013-09-29T10:09:06.000Z</time>
      </trkpt>
      <trkpt lat="47.88129" lon="2.03322">
        <ele>152</ele>
        <time>2013-09-29T10:09:08.000Z</time>
      </trkpt>
      <trkpt lat="47.8812" lon="2.03329">
        <ele>152</ele>
        <time>2013-09-29T10:09:10.000Z</time>
      </trkpt>
      <trkpt lat="47.88111" lon="2.03336">
        <ele>152</ele>
        <time>2013-09-29T10:09:12.000Z</time>
      </trkpt>
      <trkpt lat="47.88102" lon="2.03345">
        <ele>152</ele>
        <time>2013-09-29T10:09:14.000Z</time>
      </trkpt>
      <trkpt lat="47.88102" lon="2.03345">
        <ele>152</ele>
        <time>2013-09-29T10:09:16.000Z</time>
      </trkpt>
      <trkpt lat="47.88102" lon="2.03345">
        <ele>152</ele>
        <time>2013-09-29T10:09:17.000Z</time>
      </trkpt>
      <trkpt lat="47.88102" lon="2.03345">
        <ele>152</ele>
        <time>2013-09-29T10:09:19.000Z</time>
      </trkpt>
      <trkpt lat="47.88102" lon="2.03345">
        <ele>152</ele>
        <time>2013-09-29T10:09:22.000Z</time>
      </trkpt>
      <trkpt lat="47.88102" lon="2.03345">
        <ele>152</ele>
        <time>2013-09-29T10:09:23.000Z</time>
      </trkpt>
      <trkpt lat="47.88102" lon="2.03345">
        <ele>152</ele>
        <time>2013-09-29T10:09:25.000Z</time>
      </trkpt>
      <trkpt lat="47.88045" lon="2.03396">
        <ele>152</ele>
        <time>2013-09-29T10:09:30.000Z</time>
      </trkpt>
      <trkpt lat="47.88036" lon="2.03403">
        <ele>151</ele>
        <time>2013-09-29T10:09:31.000Z</time>
      </trkpt>
      <trkpt lat="47.88028" lon="2.0341">
        <ele>151</ele>
        <time>2013-09-29T10:09:34.000Z</time>
      </trkpt>
      <trkpt lat="47.88013" lon="2.03422">
        <ele>151</ele>
        <time>2013-09-29T10:09:38.000Z</time>
      </trkpt>
      <trkpt lat="47.88013" lon="2.03422">
        <ele>151</ele>
        <time>2013-09-29T10:09:39.000Z</time>
      </trkpt>
      <trkpt lat="47.88013" lon="2.03422">
        <ele>151</ele>
        <time>2013-09-29T10:09:42.000Z</time>
      </trkpt>
      <trkpt lat="47.87983" lon="2.03453">
        <ele>151</ele>
        <time>2013-09-29T10:09:46.000Z</time>
      </trkpt>
      <trkpt lat="47.87975" lon="2.03463">
        <ele>150</ele>
        <time>2013-09-29T10:09:47.000Z</time>
      </trkpt>
      <trkpt lat="47.87967" lon="2.03469">
        <ele>149</ele>
        <time>2013-09-29T10:09:50.000Z</time>
      </trkpt>
      <trkpt lat="47.87958" lon="2.03476">
        <ele>149</ele>
        <time>2013-09-29T10:09:52.000Z</time>
      </trkpt>
      <trkpt lat="47.8795" lon="2.03483">
        <ele>149</ele>
        <time>2013-09-29T10:09:54.000Z</time>
      </trkpt>
      <trkpt lat="47.8795" lon="2.03483">
        <ele>149</ele>
        <time>2013-09-29T10:09:56.000Z</time>
      </trkpt>
      <trkpt lat="47.8795" lon="2.03483">
        <ele>149</ele>
        <time>2013-09-29T10:09:57.000Z</time>
      </trkpt>
      <trkpt lat="47.8795" lon="2.03483">
        <ele>149</ele>
        <time>2013-09-29T10:09:59.000Z</time>
      </trkpt>
      <trkpt lat="47.8795" lon="2.03483">
        <ele>149</ele>
        <time>2013-09-29T10:10:02.000Z</time>
      </trkpt>
      <trkpt lat="47.87902" lon="2.0352">
        <ele>149</ele>
        <time>2013-09-29T10:10:06.000Z</time>
      </trkpt>
      <trkpt lat="47.87892" lon="2.03524">
        <ele>148</ele>
        <time>2013-09-29T10:10:07.000Z</time>
      </trkpt>
      <trkpt lat="47.87875" lon="2.03535">
        <ele>148</ele>
        <time>2013-09-29T10:10:12.000Z</time>
      </trkpt>
      <trkpt lat="47.87865" lon="2.03539">
        <ele>148</ele>
        <time>2013-09-29T10:10:13.000Z</time>
      </trkpt>
      <trkpt lat="47.87855" lon="2.03543">
        <ele>148</ele>
        <time>2013-09-29T10:10:16.000Z</time>
      </trkpt>
      <trkpt lat="47.87845" lon="2.03548">
        <ele>148</ele>
        <time>2013-09-29T10:10:18.000Z</time>
      </trkpt>
      <trkpt lat="47.87836" lon="2.03552">
        <ele>149</ele>
        <time>2013-09-29T10:10:19.000Z</time>
      </trkpt>
      <trkpt lat="47.87827" lon="2.03556">
        <ele>149</ele>
        <time>2013-09-29T10:10:21.000Z</time>
      </trkpt>
      <trkpt lat="47.87817" lon="2.0356">
        <ele>150</ele>
        <time>2013-09-29T10:10:24.000Z</time>
      </trkpt>
      <trkpt lat="47.87807" lon="2.03564">
        <ele>149</ele>
        <time>2013-09-29T10:10:25.000Z</time>
      </trkpt>
      <trkpt lat="47.87796" lon="2.03567">
        <ele>150</ele>
        <time>2013-09-29T10:10:28.000Z</time>
      </trkpt>
      <trkpt lat="47.87786" lon="2.03571">
        <ele>150</ele>
        <time>2013-09-29T10:10:30.000Z</time>
      </trkpt>
      <trkpt lat="47.87775" lon="2.03574">
        <ele>150</ele>
        <time>2013-09-29T10:10:31.000Z</time>
      </trkpt>
      <trkpt lat="47.87765" lon="2.03576">
        <ele>150</ele>
        <time>2013-09-29T10:10:34.000Z</time>
      </trkpt>
      <trkpt lat="47.87754" lon="2.03577">
        <ele>150</ele>
        <time>2013-09-29T10:10:36.000Z</time>
      </trkpt>
      <trkpt lat="47.87744" lon="2.03579">
        <ele>150</ele>
        <time>2013-09-29T10:10:37.000Z</time>
      </trkpt>
      <trkpt lat="47.87733" lon="2.03579">
        <ele>150</ele>
        <time>2013-09-29T10:10:40.000Z</time>
      </trkpt>
      <trkpt lat="47.87733" lon="2.03579">
        <ele>150</ele>
        <time>2013-09-29T10:10:42.000Z</time>
      </trkpt>
      <trkpt lat="47.87733" lon="2.03579">
        <ele>150</ele>
        <time>2013-09-29T10:10:43.000Z</time>
      </trkpt>
      <trkpt lat="47.87733" lon="2.03579">
        <ele>150</ele>
        <time>2013-09-29T10:10:46.000Z</time>
      </trkpt>
      <trkpt lat="47.87733" lon="2.03579">
        <ele>150</ele>
        <time>2013-09-29T10:10:48.000Z</time>
      </trkpt>
      <trkpt lat="47.87733" lon="2.03579">
        <ele>150</ele>
        <time>2013-09-29T10:10:50.000Z</time>
      </trkpt>
      <trkpt lat="47.87733" lon="2.03579">
        <ele>150</ele>
        <time>2013-09-29T10:10:52.000Z</time>
      </trkpt>
      <trkpt lat="47.87733" lon="2.03579">
        <ele>150</ele>
        <time>2013-09-29T10:10:54.000Z</time>
      </trkpt>
      <trkpt lat="47.87733" lon="2.03579">
        <ele>150</ele>
        <time>2013-09-29T10:10:55.000Z</time>
      </trkpt>
      <trkpt lat="47.87733" lon="2.03579">
        <ele>150</ele>
        <time>2013-09-29T10:10:58.000Z</time>
      </trkpt>
      <trkpt lat="47.87733" lon="2.03579">
        <ele>150</ele>
        <time>2013-09-29T10:11:00.000Z</time>
      </trkpt>
      <trkpt lat="47.87733" lon="2.03579">
        <ele>150</ele>
        <time>2013-09-29T10:11:01.000Z</time>
      </trkpt>
      <trkpt lat="47.87733" lon="2.03579">
        <ele>150</ele>
        <time>2013-09-29T10:11:04.000Z</time>
      </trkpt>
      <trkpt lat="47.87733" lon="2.03579">
        <ele>150</ele>
        <time>2013-09-29T10:11:06.000Z</time>
      </trkpt>
      <trkpt lat="47.87733" lon="2.03579">
        <ele>150</ele>
        <time>2013-09-29T10:11:08.000Z</time>
      </trkpt>
      <trkpt lat="47.87733" lon="2.03579">
        <ele>150</ele>
        <time>2013-09-29T10:11:10.000Z</time>
      </trkpt>
      <trkpt lat="47.87733" lon="2.03579">
        <ele>150</ele>
        <time>2013-09-29T10:11:12.000Z</time>
      </trkpt>
      <trkpt lat="47.87733" lon="2.03579">
        <ele>150</ele>
        <time>2013-09-29T10:11:18.000Z</time>
      </trkpt>
      <trkpt lat="47.8765" lon="2.03583">
        <ele>152</ele>
        <time>2013-09-29T10:11:22.000Z</time>
      </trkpt>
      <trkpt lat="47.87605" lon="2.03587">
        <ele>151</ele>
        <time>2013-09-29T10:11:24.000Z</time>
      </trkpt>
      <trkpt lat="47.87579" lon="2.0359">
        <ele>151</ele>
        <time>2013-09-29T10:11:25.000Z</time>
      </trkpt>
      <trkpt lat="47.87563" lon="2.03593">
        <ele>151</ele>
        <time>2013-09-29T10:11:28.000Z</time>
      </trkpt>
      <trkpt lat="47.87563" lon="2.03593">
        <ele>151</ele>
        <time>2013-09-29T10:11:29.000Z</time>
      </trkpt>
      <trkpt lat="47.87563" lon="2.03593">
        <ele>151</ele>
        <time>2013-09-29T10:11:32.000Z</time>
      </trkpt>
      <trkpt lat="47.87563" lon="2.03593">
        <ele>151</ele>
        <time>2013-09-29T10:11:34.000Z</time>
      </trkpt>
      <trkpt lat="47.87563" lon="2.03593">
        <ele>151</ele>
        <time>2013-09-29T10:11:36.000Z</time>
      </trkpt>
      <trkpt lat="47.87563" lon="2.03593">
        <ele>151</ele>
        <time>2013-09-29T10:11:37.000Z</time>
      </trkpt>
      <trkpt lat="47.87563" lon="2.03593">
        <ele>151</ele>
        <time>2013-09-29T10:11:40.000Z</time>
      </trkpt>
      <trkpt lat="47.87531" lon="2.03593">
        <ele>154</ele>
        <time>2013-09-29T10:12:31.000Z</time>
      </trkpt>
      <trkpt lat="47.87521" lon="2.03593">
        <ele>152</ele>
        <time>2013-09-29T10:12:34.000Z</time>
      </trkpt>
      <trkpt lat="47.87504" lon="2.03592">
        <ele>152</ele>
        <time>2013-09-29T10:12:38.000Z</time>
      </trkpt>
      <trkpt lat="47.87494" lon="2.03582">
        <ele>150</ele>
        <time>2013-09-29T10:12:39.000Z</time>
      </trkpt>
      <trkpt lat="47.87476" lon="2.03573">
        <ele>148</ele>
        <time>2013-09-29T10:12:44.000Z</time>
      </trkpt>
      <trkpt lat="47.87466" lon="2.03566">
        <ele>147</ele>
        <time>2013-09-29T10:12:46.000Z</time>
      </trkpt>
      <trkpt lat="47.87455" lon="2.03565">
        <ele>148</ele>
        <time>2013-09-29T10:12:47.000Z</time>
      </trkpt>
      <trkpt lat="47.87445" lon="2.03562">
        <ele>148</ele>
        <time>2013-09-29T10:12:50.000Z</time>
      </trkpt>
      <trkpt lat="47.87434" lon="2.03563">
        <ele>148</ele>
        <time>2013-09-29T10:12:52.000Z</time>
      </trkpt>
      <trkpt lat="47.87422" lon="2.03562">
        <ele>148</ele>
        <time>2013-09-29T10:12:54.000Z</time>
      </trkpt>
      <trkpt lat="47.87411" lon="2.03565">
        <ele>148</ele>
        <time>2013-09-29T10:12:56.000Z</time>
      </trkpt>
      <trkpt lat="47.874" lon="2.03565">
        <ele>148</ele>
        <time>2013-09-29T10:12:57.000Z</time>
      </trkpt>
      <trkpt lat="47.87391" lon="2.0356">
        <ele>147</ele>
        <time>2013-09-29T10:12:59.000Z</time>
      </trkpt>
      <trkpt lat="47.87391" lon="2.0356">
        <ele>147</ele>
        <time>2013-09-29T10:13:01.000Z</time>
      </trkpt>
      <trkpt lat="47.87391" lon="2.0356">
        <ele>147</ele>
        <time>2013-09-29T10:13:04.000Z</time>
      </trkpt>
      <trkpt lat="47.87391" lon="2.0356">
        <ele>147</ele>
        <time>2013-09-29T10:13:05.000Z</time>
      </trkpt>
      <trkpt lat="47.87333" lon="2.03559">
        <ele>149</ele>
        <time>2013-09-29T10:13:14.000Z</time>
      </trkpt>
      <trkpt lat="47.87312" lon="2.03575">
        <ele>151</ele>
        <time>2013-09-29T10:13:17.000Z</time>
      </trkpt>
      <trkpt lat="47.87299" lon="2.0358">
        <ele>152</ele>
        <time>2013-09-29T10:13:18.000Z</time>
      </trkpt>
      <trkpt lat="47.87288" lon="2.03583">
        <ele>152</ele>
        <time>2013-09-29T10:13:20.000Z</time>
      </trkpt>
      <trkpt lat="47.87284" lon="2.03564">
        <ele>150</ele>
        <time>2013-09-29T10:13:22.000Z</time>
      </trkpt>
      <trkpt lat="47.87284" lon="2.03564">
        <ele>150</ele>
        <time>2013-09-29T10:13:26.000Z</time>
      </trkpt>
      <trkpt lat="47.87284" lon="2.03564">
        <ele>150</ele>
        <time>2013-09-29T10:13:28.000Z</time>
      </trkpt>
      <trkpt lat="47.87284" lon="2.03564">
        <ele>150</ele>
        <time>2013-09-29T10:13:30.000Z</time>
      </trkpt>
      <trkpt lat="47.87284" lon="2.03564">
        <ele>150</ele>
        <time>2013-09-29T10:13:32.000Z</time>
      </trkpt>
      <trkpt lat="47.87284" lon="2.03564">
        <ele>150</ele>
        <time>2013-09-29T10:13:33.000Z</time>
      </trkpt>
      <trkpt lat="47.87222" lon="2.03558">
        <ele>149</ele>
        <time>2013-09-29T10:13:38.000Z</time>
      </trkpt>
      <trkpt lat="47.87222" lon="2.03558">
        <ele>149</ele>
        <time>2013-09-29T10:13:40.000Z</time>
      </trkpt>
      <trkpt lat="47.87222" lon="2.03558">
        <ele>149</ele>
        <time>2013-09-29T10:13:42.000Z</time>
      </trkpt>
      <trkpt lat="47.87222" lon="2.03558">
        <ele>149</ele>
        <time>2013-09-29T10:13:43.000Z</time>
      </trkpt>
      <trkpt lat="47.87222" lon="2.03558">
        <ele>149</ele>
        <time>2013-09-29T10:13:46.000Z</time>
      </trkpt>
      <trkpt lat="47.87222" lon="2.03558">
        <ele>149</ele>
        <time>2013-09-29T10:13:47.000Z</time>
      </trkpt>
      <trkpt lat="47.87222" lon="2.03558">
        <ele>149</ele>
        <time>2013-09-29T10:13:50.000Z</time>
      </trkpt>
      <trkpt lat="47.87222" lon="2.03558">
        <ele>149</ele>
        <time>2013-09-29T10:13:52.000Z</time>
      </trkpt>
      <trkpt lat="47.87222" lon="2.03558">
        <ele>149</ele>
        <time>2013-09-29T10:13:54.000Z</time>
      </trkpt>
      <trkpt lat="47.87144" lon="2.03531">
        <ele>153</ele>
        <time>2013-09-29T10:14:00.000Z</time>
      </trkpt>
      <trkpt lat="47.87144" lon="2.03531">
        <ele>153</ele>
        <time>2013-09-29T10:14:01.000Z</time>
      </trkpt>
      <trkpt lat="47.87144" lon="2.03531">
        <ele>153</ele>
        <time>2013-09-29T10:14:04.000Z</time>
      </trkpt>
      <trkpt lat="47.87112" lon="2.03524">
        <ele>151</ele>
        <time>2013-09-29T10:14:08.000Z</time>
      </trkpt>
      <trkpt lat="47.87103" lon="2.03522">
        <ele>153</ele>
        <time>2013-09-29T10:14:09.000Z</time>
      </trkpt>
      <trkpt lat="47.87086" lon="2.03522">
        <ele>154</ele>
        <time>2013-09-29T10:14:14.000Z</time>
      </trkpt>
      <trkpt lat="47.87086" lon="2.03522">
        <ele>154</ele>
        <time>2013-09-29T10:14:15.000Z</time>
      </trkpt>
      <trkpt lat="47.87072" lon="2.03513">
        <ele>152</ele>
        <time>2013-09-29T10:14:18.000Z</time>
      </trkpt>
      <trkpt lat="47.87072" lon="2.03513">
        <ele>152</ele>
        <time>2013-09-29T10:14:19.000Z</time>
      </trkpt>
      <trkpt lat="47.87072" lon="2.03513">
        <ele>152</ele>
        <time>2013-09-29T10:14:22.000Z</time>
      </trkpt>
      <trkpt lat="47.87062" lon="2.03505">
        <ele>147</ele>
        <time>2013-09-29T10:14:24.000Z</time>
      </trkpt>
      <trkpt lat="47.87053" lon="2.03498">
        <ele>146</ele>
        <time>2013-09-29T10:14:25.000Z</time>
      </trkpt>
      <trkpt lat="47.87044" lon="2.03493">
        <ele>146</ele>
        <time>2013-09-29T10:14:28.000Z</time>
      </trkpt>
      <trkpt lat="47.87035" lon="2.0349">
        <ele>146</ele>
        <time>2013-09-29T10:14:30.000Z</time>
      </trkpt>
      <trkpt lat="47.87027" lon="2.03487">
        <ele>146</ele>
        <time>2013-09-29T10:14:31.000Z</time>
      </trkpt>
      <trkpt lat="47.87014" lon="2.03479">
        <ele>147</ele>
        <time>2013-09-29T10:14:34.000Z</time>
      </trkpt>
      <trkpt lat="47.87014" lon="2.03479">
        <ele>147</ele>
        <time>2013-09-29T10:14:35.000Z</time>
      </trkpt>
      <trkpt lat="47.87014" lon="2.03479">
        <ele>147</ele>
        <time>2013-09-29T10:14:42.000Z</time>
      </trkpt>
      <trkpt lat="47.87014" lon="2.03479">
        <ele>147</ele>
        <time>2013-09-29T10:14:43.000Z</time>
      </trkpt>
      <trkpt lat="47.87014" lon="2.03479">
        <ele>147</ele>
        <time>2013-09-29T10:14:47.000Z</time>
      </trkpt>
      <trkpt lat="47.87014" lon="2.03479">
        <ele>147</ele>
        <time>2013-09-29T10:14:48.000Z</time>
      </trkpt>
      <trkpt lat="47.87014" lon="2.03479">
        <ele>147</ele>
        <time>2013-09-29T10:14:51.000Z</time>
      </trkpt>
      <trkpt lat="47.87014" lon="2.03479">
        <ele>147</ele>
        <time>2013-09-29T10:14:53.000Z</time>
      </trkpt>
      <trkpt lat="47.87014" lon="2.03479">
        <ele>147</ele>
        <time>2013-09-29T10:14:55.000Z</time>
      </trkpt>
      <trkpt lat="47.87014" lon="2.03479">
        <ele>147</ele>
        <time>2013-09-29T10:14:57.000Z</time>
      </trkpt>
      <trkpt lat="47.86915" lon="2.03458">
        <ele>147</ele>
        <time>2013-09-29T10:15:02.000Z</time>
      </trkpt>
      <trkpt lat="47.86905" lon="2.03454">
        <ele>147</ele>
        <time>2013-09-29T10:15:04.000Z</time>
      </trkpt>
      <trkpt lat="47.86895" lon="2.03451">
        <ele>147</ele>
        <time>2013-09-29T10:15:05.000Z</time>
      </trkpt>
      <trkpt lat="47.86883" lon="2.03452">
        <ele>147</ele>
        <time>2013-09-29T10:15:08.000Z</time>
      </trkpt>
      <trkpt lat="47.86883" lon="2.03452">
        <ele>147</ele>
        <time>2013-09-29T10:15:10.000Z</time>
      </trkpt>
      <trkpt lat="47.86867" lon="2.03444">
        <ele>148</ele>
        <time>2013-09-29T10:15:11.000Z</time>
      </trkpt>
      <trkpt lat="47.86867" lon="2.03444">
        <ele>148</ele>
        <time>2013-09-29T10:15:14.000Z</time>
      </trkpt>
      <trkpt lat="47.86867" lon="2.03444">
        <ele>148</ele>
        <time>2013-09-29T10:15:16.000Z</time>
      </trkpt>
      <trkpt lat="47.86867" lon="2.03444">
        <ele>148</ele>
        <time>2013-09-29T10:15:17.000Z</time>
      </trkpt>
      <trkpt lat="47.86867" lon="2.03444">
        <ele>148</ele>
        <time>2013-09-29T10:15:19.000Z</time>
      </trkpt>
      <trkpt lat="47.86867" lon="2.03444">
        <ele>148</ele>
        <time>2013-09-29T10:15:22.000Z</time>
      </trkpt>
      <trkpt lat="47.86867" lon="2.03444">
        <ele>148</ele>
        <time>2013-09-29T10:15:23.000Z</time>
      </trkpt>
      <trkpt lat="47.86805" lon="2.03411">
        <ele>149</ele>
        <time>2013-09-29T10:15:28.000Z</time>
      </trkpt>
      <trkpt lat="47.86797" lon="2.03406">
        <ele>148</ele>
        <time>2013-09-29T10:15:30.000Z</time>
      </trkpt>
      <trkpt lat="47.86782" lon="2.03398">
        <ele>148</ele>
        <time>2013-09-29T10:15:34.000Z</time>
      </trkpt>
      <trkpt lat="47.86773" lon="2.03396">
        <ele>150</ele>
        <time>2013-09-29T10:15:35.000Z</time>
      </trkpt>
      <trkpt lat="47.86756" lon="2.03392">
        <ele>152</ele>
        <time>2013-09-29T10:15:40.000Z</time>
      </trkpt>
      <trkpt lat="47.86747" lon="2.03387">
        <ele>152</ele>
        <time>2013-09-29T10:15:41.000Z</time>
      </trkpt>
      <trkpt lat="47.86747" lon="2.03387">
        <ele>152</ele>
        <time>2013-09-29T10:15:44.000Z</time>
      </trkpt>
      <trkpt lat="47.86733" lon="2.03374">
        <ele>152</ele>
        <time>2013-09-29T10:15:46.000Z</time>
      </trkpt>
      <trkpt lat="47.86733" lon="2.03374">
        <ele>152</ele>
        <time>2013-09-29T10:15:47.000Z</time>
      </trkpt>
      <trkpt lat="47.86716" lon="2.03371">
        <ele>152</ele>
        <time>2013-09-29T10:15:50.000Z</time>
      </trkpt>
      <trkpt lat="47.86697" lon="2.03366">
        <ele>149</ele>
        <time>2013-09-29T10:15:54.000Z</time>
      </trkpt>
      <trkpt lat="47.86688" lon="2.03359">
        <ele>149</ele>
        <time>2013-09-29T10:15:55.000Z</time>
      </trkpt>
      <trkpt lat="47.8668" lon="2.03354">
        <ele>149</ele>
        <time>2013-09-29T10:15:58.000Z</time>
      </trkpt>
      <trkpt lat="47.86669" lon="2.03355">
        <ele>149</ele>
        <time>2013-09-29T10:15:59.000Z</time>
      </trkpt>
      <trkpt lat="47.86669" lon="2.03355">
        <ele>149</ele>
        <time>2013-09-29T10:16:01.000Z</time>
      </trkpt>
      <trkpt lat="47.86648" lon="2.0335">
        <ele>148</ele>
        <time>2013-09-29T10:16:04.000Z</time>
      </trkpt>
      <trkpt lat="47.86648" lon="2.0335">
        <ele>148</ele>
        <time>2013-09-29T10:16:06.000Z</time>
      </trkpt>
      <trkpt lat="47.86648" lon="2.0335">
        <ele>148</ele>
        <time>2013-09-29T10:16:07.000Z</time>
      </trkpt>
      <trkpt lat="47.86648" lon="2.0335">
        <ele>148</ele>
        <time>2013-09-29T10:16:10.000Z</time>
      </trkpt>
      <trkpt lat="47.86648" lon="2.0335">
        <ele>148</ele>
        <time>2013-09-29T10:16:12.000Z</time>
      </trkpt>
      <trkpt lat="47.86648" lon="2.0335">
        <ele>148</ele>
        <time>2013-09-29T10:16:13.000Z</time>
      </trkpt>
      <trkpt lat="47.86648" lon="2.0335">
        <ele>148</ele>
        <time>2013-09-29T10:16:16.000Z</time>
      </trkpt>
      <trkpt lat="47.86612" lon="2.03345">
        <ele>148</ele>
        <time>2013-09-29T10:16:20.000Z</time>
      </trkpt>
      <trkpt lat="47.86589" lon="2.03342">
        <ele>148</ele>
        <time>2013-09-29T10:16:21.000Z</time>
      </trkpt>
      <trkpt lat="47.86589" lon="2.03342">
        <ele>148</ele>
        <time>2013-09-29T10:16:24.000Z</time>
      </trkpt>
      <trkpt lat="47.86589" lon="2.03342">
        <ele>148</ele>
        <time>2013-09-29T10:16:27.000Z</time>
      </trkpt>
      <trkpt lat="47.86589" lon="2.03342">
        <ele>148</ele>
        <time>2013-09-29T10:16:29.000Z</time>
      </trkpt>
      <trkpt lat="47.86589" lon="2.03342">
        <ele>148</ele>
        <time>2013-09-29T10:16:31.000Z</time>
      </trkpt>
      <trkpt lat="47.86589" lon="2.03342">
        <ele>148</ele>
        <time>2013-09-29T10:16:33.000Z</time>
      </trkpt>
      <trkpt lat="47.86589" lon="2.03342">
        <ele>148</ele>
        <time>2013-09-29T10:16:34.000Z</time>
      </trkpt>
      <trkpt lat="47.86551" lon="2.03318">
        <ele>153</ele>
        <time>2013-09-29T10:18:16.000Z</time>
      </trkpt>
      <trkpt lat="47.86541" lon="2.03319">
        <ele>152</ele>
        <time>2013-09-29T10:18:20.000Z</time>
      </trkpt>
      <trkpt lat="47.86541" lon="2.03319">
        <ele>152</ele>
        <time>2013-09-29T10:18:20.000Z</time>
      </trkpt>
      <trkpt lat="47.86526" lon="2.03319">
        <ele>153</ele>
        <time>2013-09-29T10:18:25.000Z</time>
      </trkpt>
      <trkpt lat="47.86512" lon="2.03317">
        <ele>150</ele>
        <time>2013-09-29T10:18:29.000Z</time>
      </trkpt>
      <trkpt lat="47.86497" lon="2.03312">
        <ele>150</ele>
        <time>2013-09-29T10:18:33.000Z</time>
      </trkpt>
      <trkpt lat="47.86488" lon="2.03308">
        <ele>152</ele>
        <time>2013-09-29T10:18:34.000Z</time>
      </trkpt>
      <trkpt lat="47.86477" lon="2.03307">
        <ele>153</ele>
        <time>2013-09-29T10:18:37.000Z</time>
      </trkpt>
      <trkpt lat="47.86469" lon="2.03301">
        <ele>154</ele>
        <time>2013-09-29T10:18:38.000Z</time>
      </trkpt>
      <trkpt lat="47.86453" lon="2.03296">
        <ele>153</ele>
        <time>2013-09-29T10:18:43.000Z</time>
      </trkpt>
      <trkpt lat="47.86453" lon="2.03296">
        <ele>153</ele>
        <time>2013-09-29T10:18:45.000Z</time>
      </trkpt>
      <trkpt lat="47.86453" lon="2.03296">
        <ele>153</ele>
        <time>2013-09-29T10:18:48.000Z</time>
      </trkpt>
      <trkpt lat="47.86453" lon="2.03296">
        <ele>153</ele>
        <time>2013-09-29T10:18:49.000Z</time>
      </trkpt>
      <trkpt lat="47.86453" lon="2.03296">
        <ele>153</ele>
        <time>2013-09-29T10:18:52.000Z</time>
      </trkpt>
      <trkpt lat="47.86453" lon="2.03296">
        <ele>153</ele>
        <time>2013-09-29T10:18:53.000Z</time>
      </trkpt>
      <trkpt lat="47.86453" lon="2.03296">
        <ele>153</ele>
        <time>2013-09-29T10:19:02.000Z</time>
      </trkpt>
      <trkpt lat="47.86453" lon="2.03296">
        <ele>153</ele>
        <time>2013-09-29T10:19:04.000Z</time>
      </trkpt>
      <trkpt lat="47.86453" lon="2.03296">
        <ele>153</ele>
        <time>2013-09-29T10:19:05.000Z</time>
      </trkpt>
      <trkpt lat="47.86341" lon="2.03293">
        <ele>156</ele>
        <time>2013-09-29T10:19:10.000Z</time>
      </trkpt>
      <trkpt lat="47.86341" lon="2.03293">
        <ele>156</ele>
        <time>2013-09-29T10:19:11.000Z</time>
      </trkpt>
      <trkpt lat="47.86341" lon="2.03293">
        <ele>156</ele>
        <time>2013-09-29T10:19:14.000Z</time>
      </trkpt>
      <trkpt lat="47.86341" lon="2.03293">
        <ele>156</ele>
        <time>2013-09-29T10:19:15.000Z</time>
      </trkpt>
      <trkpt lat="47.86288" lon="2.03306">
        <ele>157</ele>
        <time>2013-09-29T10:19:22.000Z</time>
      </trkpt>
      <trkpt lat="47.86279" lon="2.03308">
        <ele>156</ele>
        <time>2013-09-29T10:19:24.000Z</time>
      </trkpt>
      <trkpt lat="47.8627" lon="2.03311">
        <ele>156</ele>
        <time>2013-09-29T10:19:25.000Z</time>
      </trkpt>
      <trkpt lat="47.86253" lon="2.03318">
        <ele>155</ele>
        <time>2013-09-29T10:19:30.000Z</time>
      </trkpt>
      <trkpt lat="47.86243" lon="2.03322">
        <ele>153</ele>
        <time>2013-09-29T10:19:31.000Z</time>
      </trkpt>
      <trkpt lat="47.86243" lon="2.03322">
        <ele>153</ele>
        <time>2013-09-29T10:19:34.000Z</time>
      </trkpt>
      <trkpt lat="47.86243" lon="2.03322">
        <ele>153</ele>
        <time>2013-09-29T10:19:36.000Z</time>
      </trkpt>
      <trkpt lat="47.86243" lon="2.03322">
        <ele>153</ele>
        <time>2013-09-29T10:19:37.000Z</time>
      </trkpt>
      <trkpt lat="47.86243" lon="2.03322">
        <ele>153</ele>
        <time>2013-09-29T10:19:40.000Z</time>
      </trkpt>
      <trkpt lat="47.86243" lon="2.03322">
        <ele>153</ele>
        <time>2013-09-29T10:19:42.000Z</time>
      </trkpt>
      <trkpt lat="47.86185" lon="2.03335">
        <ele>153</ele>
        <time>2013-09-29T10:19:46.000Z</time>
      </trkpt>
      <trkpt lat="47.86177" lon="2.03334">
        <ele>150</ele>
        <time>2013-09-29T10:19:50.000Z</time>
      </trkpt>
      <trkpt lat="47.86169" lon="2.03337">
        <ele>152</ele>
        <time>2013-09-29T10:19:52.000Z</time>
      </trkpt>
      <trkpt lat="47.86162" lon="2.03341">
        <ele>152</ele>
        <time>2013-09-29T10:19:54.000Z</time>
      </trkpt>
      <trkpt lat="47.86154" lon="2.03345">
        <ele>152</ele>
        <time>2013-09-29T10:19:55.000Z</time>
      </trkpt>
      <trkpt lat="47.86146" lon="2.0335">
        <ele>153</ele>
        <time>2013-09-29T10:19:58.000Z</time>
      </trkpt>
      <trkpt lat="47.86129" lon="2.03357">
        <ele>153</ele>
        <time>2013-09-29T10:20:00.000Z</time>
      </trkpt>
      <trkpt lat="47.8611" lon="2.0336">
        <ele>152</ele>
        <time>2013-09-29T10:20:04.000Z</time>
      </trkpt>
      <trkpt lat="47.86096" lon="2.03356">
        <ele>152</ele>
        <time>2013-09-29T10:20:08.000Z</time>
      </trkpt>
      <trkpt lat="47.86087" lon="2.03351">
        <ele>152</ele>
        <time>2013-09-29T10:20:10.000Z</time>
      </trkpt>
      <trkpt lat="47.86087" lon="2.03351">
        <ele>152</ele>
        <time>2013-09-29T10:20:11.000Z</time>
      </trkpt>
      <trkpt lat="47.86087" lon="2.03351">
        <ele>152</ele>
        <time>2013-09-29T10:20:14.000Z</time>
      </trkpt>
      <trkpt lat="47.86087" lon="2.03351">
        <ele>152</ele>
        <time>2013-09-29T10:20:16.000Z</time>
      </trkpt>
      <trkpt lat="47.86042" lon="2.0337">
        <ele>151</ele>
        <time>2013-09-29T10:20:20.000Z</time>
      </trkpt>
      <trkpt lat="47.86033" lon="2.03374">
        <ele>150</ele>
        <time>2013-09-29T10:20:21.000Z</time>
      </trkpt>
      <trkpt lat="47.86024" lon="2.0338">
        <ele>150</ele>
        <time>2013-09-29T10:20:24.000Z</time>
      </trkpt>
      <trkpt lat="47.86016" lon="2.03387">
        <ele>150</ele>
        <time>2013-09-29T10:20:25.000Z</time>
      </trkpt>
      <trkpt lat="47.86008" lon="2.03394">
        <ele>150</ele>
        <time>2013-09-29T10:20:28.000Z</time>
      </trkpt>
      <trkpt lat="47.85999" lon="2.03402">
        <ele>150</ele>
        <time>2013-09-29T10:20:30.000Z</time>
      </trkpt>
      <trkpt lat="47.85999" lon="2.03402">
        <ele>150</ele>
        <time>2013-09-29T10:20:33.000Z</time>
      </trkpt>
      <trkpt lat="47.85999" lon="2.03402">
        <ele>150</ele>
        <time>2013-09-29T10:20:34.000Z</time>
      </trkpt>
      <trkpt lat="47.85999" lon="2.03402">
        <ele>150</ele>
        <time>2013-09-29T10:20:37.000Z</time>
      </trkpt>
      <trkpt lat="47.85999" lon="2.03402">
        <ele>150</ele>
        <time>2013-09-29T10:20:38.000Z</time>
      </trkpt>
      <trkpt lat="47.85999" lon="2.03402">
        <ele>150</ele>
        <time>2013-09-29T10:20:41.000Z</time>
      </trkpt>
      <trkpt lat="47.85999" lon="2.03402">
        <ele>150</ele>
        <time>2013-09-29T10:20:43.000Z</time>
      </trkpt>
      <trkpt lat="47.85999" lon="2.03402">
        <ele>150</ele>
        <time>2013-09-29T10:20:44.000Z</time>
      </trkpt>
      <trkpt lat="47.85999" lon="2.03402">
        <ele>150</ele>
        <time>2013-09-29T10:20:47.000Z</time>
      </trkpt>
      <trkpt lat="47.85999" lon="2.03402">
        <ele>150</ele>
        <time>2013-09-29T10:20:53.000Z</time>
      </trkpt>
      <trkpt lat="47.85999" lon="2.03402">
        <ele>150</ele>
        <time>2013-09-29T10:20:54.000Z</time>
      </trkpt>
      <trkpt lat="47.85999" lon="2.03402">
        <ele>150</ele>
        <time>2013-09-29T10:20:57.000Z</time>
      </trkpt>
      <trkpt lat="47.85891" lon="2.03466">
        <ele>155</ele>
        <time>2013-09-29T10:21:01.000Z</time>
      </trkpt>
      <trkpt lat="47.85874" lon="2.03478">
        <ele>159</ele>
        <time>2013-09-29T10:21:05.000Z</time>
      </trkpt>
      <trkpt lat="47.85865" lon="2.03484">
        <ele>159</ele>
        <time>2013-09-29T10:21:06.000Z</time>
      </trkpt>
      <trkpt lat="47.85852" lon="2.03504">
        <ele>159</ele>
        <time>2013-09-29T10:21:11.000Z</time>
      </trkpt>
      <trkpt lat="47.85842" lon="2.03516">
        <ele>159</ele>
        <time>2013-09-29T10:21:12.000Z</time>
      </trkpt>
      <trkpt lat="47.85828" lon="2.03529">
        <ele>164</ele>
        <time>2013-09-29T10:21:17.000Z</time>
      </trkpt>
      <trkpt lat="47.85828" lon="2.03529">
        <ele>164</ele>
        <time>2013-09-29T10:21:18.000Z</time>
      </trkpt>
      <trkpt lat="47.85828" lon="2.03529">
        <ele>164</ele>
        <time>2013-09-29T10:21:21.000Z</time>
      </trkpt>
      <trkpt lat="47.85828" lon="2.03529">
        <ele>164</ele>
        <time>2013-09-29T10:21:23.000Z</time>
      </trkpt>
      <trkpt lat="47.85775" lon="2.03572">
        <ele>167</ele>
        <time>2013-09-29T10:21:29.000Z</time>
      </trkpt>
      <trkpt lat="47.85766" lon="2.03579">
        <ele>168</ele>
        <time>2013-09-29T10:21:30.000Z</time>
      </trkpt>
      <trkpt lat="47.85755" lon="2.03589">
        <ele>166</ele>
        <time>2013-09-29T10:21:33.000Z</time>
      </trkpt>
      <trkpt lat="47.85747" lon="2.03603">
        <ele>166</ele>
        <time>2013-09-29T10:21:34.000Z</time>
      </trkpt>
      <trkpt lat="47.85738" lon="2.03617">
        <ele>165</ele>
        <time>2013-09-29T10:21:37.000Z</time>
      </trkpt>
      <trkpt lat="47.85735" lon="2.03633">
        <ele>157</ele>
        <time>2013-09-29T10:21:38.000Z</time>
      </trkpt>
      <trkpt lat="47.85735" lon="2.03633">
        <ele>157</ele>
        <time>2013-09-29T10:21:41.000Z</time>
      </trkpt>
      <trkpt lat="47.85735" lon="2.03633">
        <ele>157</ele>
        <time>2013-09-29T10:21:42.000Z</time>
      </trkpt>
      <trkpt lat="47.85722" lon="2.03659">
        <ele>154</ele>
        <time>2013-09-29T10:21:47.000Z</time>
      </trkpt>
      <trkpt lat="47.85713" lon="2.03678">
        <ele>154</ele>
        <time>2013-09-29T10:21:48.000Z</time>
      </trkpt>
      <trkpt lat="47.85713" lon="2.03678">
        <ele>154</ele>
        <time>2013-09-29T10:21:51.000Z</time>
      </trkpt>
      <trkpt lat="47.85713" lon="2.03678">
        <ele>154</ele>
        <time>2013-09-29T10:21:52.000Z</time>
      </trkpt>
      <trkpt lat="47.85713" lon="2.03678">
        <ele>154</ele>
        <time>2013-09-29T10:21:54.000Z</time>
      </trkpt>
      <trkpt lat="47.85713" lon="2.03678">
        <ele>154</ele>
        <time>2013-09-29T10:21:57.000Z</time>
      </trkpt>
      <trkpt lat="47.85713" lon="2.03678">
        <ele>154</ele>
        <time>2013-09-29T10:21:58.000Z</time>
      </trkpt>
      <trkpt lat="47.85713" lon="2.03678">
        <ele>154</ele>
        <time>2013-09-29T10:22:00.000Z</time>
      </trkpt>
      <trkpt lat="47.85713" lon="2.03678">
        <ele>154</ele>
        <time>2013-09-29T10:22:02.000Z</time>
      </trkpt>
      <trkpt lat="47.85713" lon="2.03678">
        <ele>154</ele>
        <time>2013-09-29T10:22:04.000Z</time>
      </trkpt>
      <trkpt lat="47.85691" lon="2.03747">
        <ele>155</ele>
        <time>2013-09-29T10:22:09.000Z</time>
      </trkpt>
      <trkpt lat="47.85678" lon="2.0379">
        <ele>155</ele>
        <time>2013-09-29T10:22:10.000Z</time>
      </trkpt>
      <trkpt lat="47.85671" lon="2.03819">
        <ele>154</ele>
        <time>2013-09-29T10:22:13.000Z</time>
      </trkpt>
      <trkpt lat="47.85666" lon="2.03839">
        <ele>154</ele>
        <time>2013-09-29T10:22:15.000Z</time>
      </trkpt>
      <trkpt lat="47.85663" lon="2.03854">
        <ele>155</ele>
        <time>2013-09-29T10:22:17.000Z</time>
      </trkpt>
      <trkpt lat="47.85663" lon="2.03854">
        <ele>155</ele>
        <time>2013-09-29T10:22:19.000Z</time>
      </trkpt>
      <trkpt lat="47.85663" lon="2.03854">
        <ele>155</ele>
        <time>2013-09-29T10:22:21.000Z</time>
      </trkpt>
      <trkpt lat="47.85663" lon="2.03854">
        <ele>155</ele>
        <time>2013-09-29T10:22:23.000Z</time>
      </trkpt>
      <trkpt lat="47.85663" lon="2.03854">
        <ele>155</ele>
        <time>2013-09-29T10:22:24.000Z</time>
      </trkpt>
      <trkpt lat="47.85661" lon="2.03895">
        <ele>157</ele>
        <time>2013-09-29T10:22:31.000Z</time>
      </trkpt>
      <trkpt lat="47.8566" lon="2.03909">
        <ele>157</ele>
        <time>2013-09-29T10:22:35.000Z</time>
      </trkpt>
      <trkpt lat="47.8566" lon="2.03909">
        <ele>157</ele>
        <time>2013-09-29T10:22:37.000Z</time>
      </trkpt>
      <trkpt lat="47.8566" lon="2.03909">
        <ele>157</ele>
        <time>2013-09-29T10:22:39.000Z</time>
      </trkpt>
      <trkpt lat="47.8566" lon="2.03909">
        <ele>157</ele>
        <time>2013-09-29T10:22:40.000Z</time>
      </trkpt>
      <trkpt lat="47.8566" lon="2.03909">
        <ele>157</ele>
        <time>2013-09-29T10:22:45.000Z</time>
      </trkpt>
      <trkpt lat="47.8566" lon="2.03909">
        <ele>157</ele>
        <time>2013-09-29T10:22:46.000Z</time>
      </trkpt>
      <trkpt lat="47.8566" lon="2.03938">
        <ele>155</ele>
        <time>2013-09-29T10:22:57.000Z</time>
      </trkpt>
      <trkpt lat="47.85664" lon="2.03953">
        <ele>169</ele>
        <time>2013-09-29T10:23:01.000Z</time>
      </trkpt>
      <trkpt lat="47.85664" lon="2.03953">
        <ele>169</ele>
        <time>2013-09-29T10:23:02.000Z</time>
      </trkpt>
      <trkpt lat="47.85663" lon="2.0397">
        <ele>172</ele>
        <time>2013-09-29T10:23:05.000Z</time>
      </trkpt>
      <trkpt lat="47.85663" lon="2.0397">
        <ele>172</ele>
        <time>2013-09-29T10:23:06.000Z</time>
      </trkpt>
      <trkpt lat="47.85662" lon="2.04009">
        <ele>172</ele>
        <time>2013-09-29T10:23:11.000Z</time>
      </trkpt>
      <trkpt lat="47.85666" lon="2.04033">
        <ele>173</ele>
        <time>2013-09-29T10:23:15.000Z</time>
      </trkpt>
      <trkpt lat="47.85663" lon="2.04055">
        <ele>171</ele>
        <time>2013-09-29T10:23:19.000Z</time>
      </trkpt>
      <trkpt lat="47.85663" lon="2.04055">
        <ele>171</ele>
        <time>2013-09-29T10:23:21.000Z</time>
      </trkpt>
      <trkpt lat="47.85663" lon="2.04055">
        <ele>171</ele>
        <time>2013-09-29T10:23:22.000Z</time>
      </trkpt>
      <trkpt lat="47.85663" lon="2.04055">
        <ele>171</ele>
        <time>2013-09-29T10:23:25.000Z</time>
      </trkpt>
      <trkpt lat="47.85663" lon="2.04055">
        <ele>171</ele>
        <time>2013-09-29T10:23:28.000Z</time>
      </trkpt>
      <trkpt lat="47.85663" lon="2.04055">
        <ele>171</ele>
        <time>2013-09-29T10:23:29.000Z</time>
      </trkpt>
      <trkpt lat="47.85663" lon="2.04055">
        <ele>171</ele>
        <time>2013-09-29T10:23:32.000Z</time>
      </trkpt>
      <trkpt lat="47.85663" lon="2.04055">
        <ele>171</ele>
        <time>2013-09-29T10:23:34.000Z</time>
      </trkpt>
      <trkpt lat="47.85663" lon="2.04055">
        <ele>171</ele>
        <time>2013-09-29T10:23:36.000Z</time>
      </trkpt>
      <trkpt lat="47.85677" lon="2.04142">
        <ele>150</ele>
        <time>2013-09-29T10:24:22.000Z</time>
      </trkpt>
      <trkpt lat="47.85685" lon="2.04159">
        <ele>151</ele>
        <time>2013-09-29T10:24:26.000Z</time>
      </trkpt>
      <trkpt lat="47.85695" lon="2.04176">
        <ele>151</ele>
        <time>2013-09-29T10:24:30.000Z</time>
      </trkpt>
      <trkpt lat="47.85704" lon="2.04195">
        <ele>151</ele>
        <time>2013-09-29T10:24:34.000Z</time>
      </trkpt>
      <trkpt lat="47.85712" lon="2.04213">
        <ele>150</ele>
        <time>2013-09-29T10:24:38.000Z</time>
      </trkpt>
      <trkpt lat="47.85715" lon="2.04236">
        <ele>148</ele>
        <time>2013-09-29T10:24:42.000Z</time>
      </trkpt>
      <trkpt lat="47.85727" lon="2.04251">
        <ele>148</ele>
        <time>2013-09-29T10:24:46.000Z</time>
      </trkpt>
      <trkpt lat="47.8573" lon="2.04274">
        <ele>145</ele>
        <time>2013-09-29T10:24:50.000Z</time>
      </trkpt>
      <trkpt lat="47.85735" lon="2.04297">
        <ele>144</ele>
        <time>2013-09-29T10:24:54.000Z</time>
      </trkpt>
      <trkpt lat="47.85738" lon="2.0431">
        <ele>143</ele>
        <time>2013-09-29T10:24:56.000Z</time>
      </trkpt>
      <trkpt lat="47.85751" lon="2.04333">
        <ele>141</ele>
        <time>2013-09-29T10:25:00.000Z</time>
      </trkpt>
      <trkpt lat="47.85759" lon="2.04343">
        <ele>143</ele>
        <time>2013-09-29T10:25:03.000Z</time>
      </trkpt>
      <trkpt lat="47.85759" lon="2.04343">
        <ele>143</ele>
        <time>2013-09-29T10:25:04.000Z</time>
      </trkpt>
      <trkpt lat="47.85759" lon="2.04343">
        <ele>143</ele>
        <time>2013-09-29T10:25:07.000Z</time>
      </trkpt>
      <trkpt lat="47.85759" lon="2.04343">
        <ele>143</ele>
        <time>2013-09-29T10:25:08.000Z</time>
      </trkpt>
      <trkpt lat="47.85759" lon="2.04343">
        <ele>143</ele>
        <time>2013-09-29T10:25:11.000Z</time>
      </trkpt>
      <trkpt lat="47.85783" lon="2.04409">
        <ele>144</ele>
        <time>2013-09-29T10:25:15.000Z</time>
      </trkpt>
      <trkpt lat="47.85785" lon="2.04422">
        <ele>143</ele>
        <time>2013-09-29T10:25:16.000Z</time>
      </trkpt>
      <trkpt lat="47.85796" lon="2.04439">
        <ele>145</ele>
        <time>2013-09-29T10:25:21.000Z</time>
      </trkpt>
      <trkpt lat="47.85802" lon="2.04451">
        <ele>142</ele>
        <time>2013-09-29T10:25:23.000Z</time>
      </trkpt>
      <trkpt lat="47.85809" lon="2.04472">
        <ele>144</ele>
        <time>2013-09-29T10:25:27.000Z</time>
      </trkpt>
      <trkpt lat="47.85809" lon="2.04472">
        <ele>144</ele>
        <time>2013-09-29T10:25:28.000Z</time>
      </trkpt>
      <trkpt lat="47.85809" lon="2.04472">
        <ele>144</ele>
        <time>2013-09-29T10:25:31.000Z</time>
      </trkpt>
      <trkpt lat="47.85809" lon="2.04472">
        <ele>144</ele>
        <time>2013-09-29T10:25:32.000Z</time>
      </trkpt>
      <trkpt lat="47.85809" lon="2.04472">
        <ele>144</ele>
        <time>2013-09-29T10:25:35.000Z</time>
      </trkpt>
      <trkpt lat="47.8583" lon="2.04527">
        <ele>147</ele>
        <time>2013-09-29T10:25:39.000Z</time>
      </trkpt>
      <trkpt lat="47.85835" lon="2.04548">
        <ele>142</ele>
        <time>2013-09-29T10:25:43.000Z</time>
      </trkpt>
      <trkpt lat="47.85835" lon="2.04548">
        <ele>142</ele>
        <time>2013-09-29T10:25:45.000Z</time>
      </trkpt>
      <trkpt lat="47.85835" lon="2.04548">
        <ele>142</ele>
        <time>2013-09-29T10:25:46.000Z</time>
      </trkpt>
      <trkpt lat="47.85835" lon="2.04548">
        <ele>142</ele>
        <time>2013-09-29T10:25:48.000Z</time>
      </trkpt>
      <trkpt lat="47.85835" lon="2.04548">
        <ele>142</ele>
        <time>2013-09-29T10:25:50.000Z</time>
      </trkpt>
      <trkpt lat="47.85835" lon="2.04548">
        <ele>142</ele>
        <time>2013-09-29T10:25:53.000Z</time>
      </trkpt>
      <trkpt lat="47.85835" lon="2.04548">
        <ele>142</ele>
        <time>2013-09-29T10:25:54.000Z</time>
      </trkpt>
      <trkpt lat="47.85835" lon="2.04548">
        <ele>142</ele>
        <time>2013-09-29T10:25:57.000Z</time>
      </trkpt>
      <trkpt lat="47.85854" lon="2.04586">
        <ele>142</ele>
        <time>2013-09-29T10:26:01.000Z</time>
      </trkpt>
      <trkpt lat="47.85867" lon="2.04612">
        <ele>143</ele>
        <time>2013-09-29T10:26:02.000Z</time>
      </trkpt>
      <trkpt lat="47.85876" lon="2.04629">
        <ele>144</ele>
        <time>2013-09-29T10:26:06.000Z</time>
      </trkpt>
      <trkpt lat="47.85883" lon="2.04642">
        <ele>145</ele>
        <time>2013-09-29T10:26:08.000Z</time>
      </trkpt>
      <trkpt lat="47.85883" lon="2.04642">
        <ele>145</ele>
        <time>2013-09-29T10:26:09.000Z</time>
      </trkpt>
      <trkpt lat="47.85883" lon="2.04642">
        <ele>145</ele>
        <time>2013-09-29T10:26:11.000Z</time>
      </trkpt>
      <trkpt lat="47.85883" lon="2.04642">
        <ele>145</ele>
        <time>2013-09-29T10:26:14.000Z</time>
      </trkpt>
      <trkpt lat="47.85883" lon="2.04642">
        <ele>145</ele>
        <time>2013-09-29T10:26:15.000Z</time>
      </trkpt>
      <trkpt lat="47.85883" lon="2.04642">
        <ele>145</ele>
        <time>2013-09-29T10:26:17.000Z</time>
      </trkpt>
      <trkpt lat="47.85883" lon="2.04642">
        <ele>145</ele>
        <time>2013-09-29T10:26:20.000Z</time>
      </trkpt>
      <trkpt lat="47.85883" lon="2.04642">
        <ele>145</ele>
        <time>2013-09-29T10:26:22.000Z</time>
      </trkpt>
      <trkpt lat="47.85904" lon="2.04677">
        <ele>152</ele>
        <time>2013-09-29T10:26:26.000Z</time>
      </trkpt>
      <trkpt lat="47.85917" lon="2.04701">
        <ele>148</ele>
        <time>2013-09-29T10:26:27.000Z</time>
      </trkpt>
      <trkpt lat="47.85924" lon="2.04716">
        <ele>150</ele>
        <time>2013-09-29T10:26:31.000Z</time>
      </trkpt>
      <trkpt lat="47.8593" lon="2.04728">
        <ele>150</ele>
        <time>2013-09-29T10:26:32.000Z</time>
      </trkpt>
      <trkpt lat="47.85935" lon="2.04737">
        <ele>146</ele>
        <time>2013-09-29T10:26:35.000Z</time>
      </trkpt>
      <trkpt lat="47.85935" lon="2.04737">
        <ele>146</ele>
        <time>2013-09-29T10:26:37.000Z</time>
      </trkpt>
      <trkpt lat="47.85935" lon="2.04737">
        <ele>146</ele>
        <time>2013-09-29T10:26:39.000Z</time>
      </trkpt>
      <trkpt lat="47.85935" lon="2.04737">
        <ele>146</ele>
        <time>2013-09-29T10:26:40.000Z</time>
      </trkpt>
      <trkpt lat="47.85935" lon="2.04737">
        <ele>146</ele>
        <time>2013-09-29T10:26:43.000Z</time>
      </trkpt>
      <trkpt lat="47.85935" lon="2.04737">
        <ele>146</ele>
        <time>2013-09-29T10:26:44.000Z</time>
      </trkpt>
      <trkpt lat="47.85946" lon="2.0476">
        <ele>143</ele>
        <time>2013-09-29T10:27:32.000Z</time>
      </trkpt>
      <trkpt lat="47.85946" lon="2.0476">
        <ele>143</ele>
        <time>2013-09-29T10:27:34.000Z</time>
      </trkpt>
      <trkpt lat="47.85946" lon="2.0476">
        <ele>143</ele>
        <time>2013-09-29T10:27:36.000Z</time>
      </trkpt>
      <trkpt lat="47.85949" lon="2.04769">
        <ele>146</ele>
        <time>2013-09-29T10:28:11.000Z</time>
      </trkpt>
      <trkpt lat="47.85949" lon="2.04769">
        <ele>146</ele>
        <time>2013-09-29T10:28:12.000Z</time>
      </trkpt>
      <trkpt lat="47.85949" lon="2.04769">
        <ele>146</ele>
        <time>2013-09-29T10:28:15.000Z</time>
      </trkpt>
      <trkpt lat="47.85949" lon="2.04769">
        <ele>146</ele>
        <time>2013-09-29T10:28:16.000Z</time>
      </trkpt>
      <trkpt lat="47.85949" lon="2.04769">
        <ele>146</ele>
        <time>2013-09-29T10:28:19.000Z</time>
      </trkpt>
      <trkpt lat="47.85949" lon="2.04769">
        <ele>146</ele>
        <time>2013-09-29T10:28:20.000Z</time>
      </trkpt>
      <trkpt lat="47.85949" lon="2.04769">
        <ele>146</ele>
        <time>2013-09-29T10:28:23.000Z</time>
      </trkpt>
      <trkpt lat="47.85949" lon="2.04769">
        <ele>146</ele>
        <time>2013-09-29T10:28:25.000Z</time>
      </trkpt>
      <trkpt lat="47.85965" lon="2.04798">
        <ele>147</ele>
        <time>2013-09-29T10:28:43.000Z</time>
      </trkpt>
      <trkpt lat="47.85965" lon="2.04798">
        <ele>147</ele>
        <time>2013-09-29T10:28:46.000Z</time>
      </trkpt>
      <trkpt lat="47.85976" lon="2.04814">
        <ele>148</ele>
        <time>2013-09-29T10:28:50.000Z</time>
      </trkpt>
      <trkpt lat="47.85987" lon="2.04824">
        <ele>149</ele>
        <time>2013-09-29T10:28:54.000Z</time>
      </trkpt>
      <trkpt lat="47.85995" lon="2.04842">
        <ele>147</ele>
        <time>2013-09-29T10:28:58.000Z</time>
      </trkpt>
      <trkpt lat="47.86003" lon="2.04858">
        <ele>146</ele>
        <time>2013-09-29T10:29:02.000Z</time>
      </trkpt>
      <trkpt lat="47.86003" lon="2.04858">
        <ele>146</ele>
        <time>2013-09-29T10:29:03.000Z</time>
      </trkpt>
      <trkpt lat="47.86003" lon="2.04858">
        <ele>146</ele>
        <time>2013-09-29T10:29:06.000Z</time>
      </trkpt>
      <trkpt lat="47.86003" lon="2.04858">
        <ele>146</ele>
        <time>2013-09-29T10:29:08.000Z</time>
      </trkpt>
      <trkpt lat="47.86003" lon="2.04858">
        <ele>146</ele>
        <time>2013-09-29T10:29:09.000Z</time>
      </trkpt>
      <trkpt lat="47.86003" lon="2.04858">
        <ele>146</ele>
        <time>2013-09-29T10:29:14.000Z</time>
      </trkpt>
      <trkpt lat="47.86003" lon="2.04858">
        <ele>146</ele>
        <time>2013-09-29T10:29:18.000Z</time>
      </trkpt>
      <trkpt lat="47.86003" lon="2.04858">
        <ele>146</ele>
        <time>2013-09-29T10:29:19.000Z</time>
      </trkpt>
      <trkpt lat="47.86003" lon="2.04858">
        <ele>146</ele>
        <time>2013-09-29T10:29:22.000Z</time>
      </trkpt>
      <trkpt lat="47.86003" lon="2.04858">
        <ele>146</ele>
        <time>2013-09-29T10:29:24.000Z</time>
      </trkpt>
      <trkpt lat="47.86052" lon="2.04922">
        <ele>158</ele>
        <time>2013-09-29T10:29:28.000Z</time>
      </trkpt>
      <trkpt lat="47.86058" lon="2.04936">
        <ele>159</ele>
        <time>2013-09-29T10:29:32.000Z</time>
      </trkpt>
      <trkpt lat="47.86058" lon="2.04936">
        <ele>159</ele>
        <time>2013-09-29T10:29:34.000Z</time>
      </trkpt>
      <trkpt lat="47.86068" lon="2.04945">
        <ele>157</ele>
        <time>2013-09-29T10:29:35.000Z</time>
      </trkpt>
      <trkpt lat="47.86068" lon="2.04945">
        <ele>157</ele>
        <time>2013-09-29T10:29:38.000Z</time>
      </trkpt>
      <trkpt lat="47.8608" lon="2.04962">
        <ele>151</ele>
        <time>2013-09-29T10:29:41.000Z</time>
      </trkpt>
      <trkpt lat="47.8609" lon="2.04973">
        <ele>151</ele>
        <time>2013-09-29T10:29:46.000Z</time>
      </trkpt>
      <trkpt lat="47.861" lon="2.04989">
        <ele>151</ele>
        <time>2013-09-29T10:29:50.000Z</time>
      </trkpt>
      <trkpt lat="47.8611" lon="2.05004">
        <ele>152</ele>
        <time>2013-09-29T10:29:54.000Z</time>
      </trkpt>
      <trkpt lat="47.8612" lon="2.05018">
        <ele>151</ele>
        <time>2013-09-29T10:29:58.000Z</time>
      </trkpt>
      <trkpt lat="47.8612" lon="2.05018">
        <ele>151</ele>
        <time>2013-09-29T10:29:59.000Z</time>
      </trkpt>
      <trkpt lat="47.8612" lon="2.05018">
        <ele>151</ele>
        <time>2013-09-29T10:30:01.000Z</time>
      </trkpt>
      <trkpt lat="47.8612" lon="2.05018">
        <ele>151</ele>
        <time>2013-09-29T10:30:04.000Z</time>
      </trkpt>
      <trkpt lat="47.8612" lon="2.05018">
        <ele>151</ele>
        <time>2013-09-29T10:30:05.000Z</time>
      </trkpt>
      <trkpt lat="47.8612" lon="2.05018">
        <ele>151</ele>
        <time>2013-09-29T10:30:08.000Z</time>
      </trkpt>
      <trkpt lat="47.86137" lon="2.05045">
        <ele>152</ele>
        <time>2013-09-29T10:30:12.000Z</time>
      </trkpt>
      <trkpt lat="47.86149" lon="2.05064">
        <ele>150</ele>
        <time>2013-09-29T10:30:13.000Z</time>
      </trkpt>
      <trkpt lat="47.86158" lon="2.05078">
        <ele>152</ele>
        <time>2013-09-29T10:30:16.000Z</time>
      </trkpt>
      <trkpt lat="47.86166" lon="2.05088">
        <ele>153</ele>
        <time>2013-09-29T10:30:17.000Z</time>
      </trkpt>
      <trkpt lat="47.86172" lon="2.05097">
        <ele>154</ele>
        <time>2013-09-29T10:30:20.000Z</time>
      </trkpt>
      <trkpt lat="47.86185" lon="2.05113">
        <ele>153</ele>
        <time>2013-09-29T10:30:21.000Z</time>
      </trkpt>
      <trkpt lat="47.86185" lon="2.05113">
        <ele>153</ele>
        <time>2013-09-29T10:30:24.000Z</time>
      </trkpt>
      <trkpt lat="47.86185" lon="2.05113">
        <ele>153</ele>
        <time>2013-09-29T10:30:26.000Z</time>
      </trkpt>
      <trkpt lat="47.86185" lon="2.05113">
        <ele>153</ele>
        <time>2013-09-29T10:30:27.000Z</time>
      </trkpt>
      <trkpt lat="47.86185" lon="2.05113">
        <ele>153</ele>
        <time>2013-09-29T10:30:30.000Z</time>
      </trkpt>
      <trkpt lat="47.86185" lon="2.05113">
        <ele>153</ele>
        <time>2013-09-29T10:30:32.000Z</time>
      </trkpt>
      <trkpt lat="47.86185" lon="2.05113">
        <ele>153</ele>
        <time>2013-09-29T10:30:33.000Z</time>
      </trkpt>
      <trkpt lat="47.86229" lon="2.05172">
        <ele>154</ele>
        <time>2013-09-29T10:30:38.000Z</time>
      </trkpt>
      <trkpt lat="47.86235" lon="2.05182">
        <ele>154</ele>
        <time>2013-09-29T10:30:40.000Z</time>
      </trkpt>
      <trkpt lat="47.86245" lon="2.05194">
        <ele>157</ele>
        <time>2013-09-29T10:30:44.000Z</time>
      </trkpt>
      <trkpt lat="47.86245" lon="2.05194">
        <ele>157</ele>
        <time>2013-09-29T10:30:46.000Z</time>
      </trkpt>
      <trkpt lat="47.86245" lon="2.05194">
        <ele>157</ele>
        <time>2013-09-29T10:30:48.000Z</time>
      </trkpt>
      <trkpt lat="47.86245" lon="2.05194">
        <ele>157</ele>
        <time>2013-09-29T10:30:54.000Z</time>
      </trkpt>
      <trkpt lat="47.86245" lon="2.05194">
        <ele>157</ele>
        <time>2013-09-29T10:30:55.000Z</time>
      </trkpt>
      <trkpt lat="47.86245" lon="2.05194">
        <ele>157</ele>
        <time>2013-09-29T10:30:58.000Z</time>
      </trkpt>
      <trkpt lat="47.86282" lon="2.0527">
        <ele>151</ele>
        <time>2013-09-29T10:30:59.000Z</time>
      </trkpt>
      <trkpt lat="47.86285" lon="2.05295">
        <ele>155</ele>
        <time>2013-09-29T10:31:04.000Z</time>
      </trkpt>
      <trkpt lat="47.86285" lon="2.05295">
        <ele>155</ele>
        <time>2013-09-29T10:31:05.000Z</time>
      </trkpt>
      <trkpt lat="47.86285" lon="2.05295">
        <ele>155</ele>
        <time>2013-09-29T10:31:08.000Z</time>
      </trkpt>
      <trkpt lat="47.86285" lon="2.05295">
        <ele>155</ele>
        <time>2013-09-29T10:31:09.000Z</time>
      </trkpt>
      <trkpt lat="47.86285" lon="2.05295">
        <ele>155</ele>
        <time>2013-09-29T10:31:12.000Z</time>
      </trkpt>
      <trkpt lat="47.86285" lon="2.05295">
        <ele>155</ele>
        <time>2013-09-29T10:31:14.000Z</time>
      </trkpt>
      <trkpt lat="47.86285" lon="2.05295">
        <ele>155</ele>
        <time>2013-09-29T10:31:15.000Z</time>
      </trkpt>
      <trkpt lat="47.86285" lon="2.05295">
        <ele>155</ele>
        <time>2013-09-29T10:31:18.000Z</time>
      </trkpt>
      <trkpt lat="47.86292" lon="2.05334">
        <ele>157</ele>
        <time>2013-09-29T10:32:33.000Z</time>
      </trkpt>
      <trkpt lat="47.863" lon="2.05354">
        <ele>157</ele>
        <time>2013-09-29T10:32:39.000Z</time>
      </trkpt>
      <trkpt lat="47.86308" lon="2.05373">
        <ele>157</ele>
        <time>2013-09-29T10:32:43.000Z</time>
      </trkpt>
      <trkpt lat="47.86319" lon="2.0539">
        <ele>157</ele>
        <time>2013-09-29T10:32:47.000Z</time>
      </trkpt>
      <trkpt lat="47.8633" lon="2.05406">
        <ele>156</ele>
        <time>2013-09-29T10:32:51.000Z</time>
      </trkpt>
      <trkpt lat="47.8633" lon="2.05406">
        <ele>156</ele>
        <time>2013-09-29T10:32:52.000Z</time>
      </trkpt>
      <trkpt lat="47.8633" lon="2.05406">
        <ele>156</ele>
        <time>2013-09-29T10:32:55.000Z</time>
      </trkpt>
      <trkpt lat="47.86354" lon="2.05436">
        <ele>156</ele>
        <time>2013-09-29T10:32:59.000Z</time>
      </trkpt>
      <trkpt lat="47.8637" lon="2.05447">
        <ele>156</ele>
        <time>2013-09-29T10:33:03.000Z</time>
      </trkpt>
      <trkpt lat="47.86386" lon="2.05455">
        <ele>156</ele>
        <time>2013-09-29T10:33:07.000Z</time>
      </trkpt>
      <trkpt lat="47.86404" lon="2.05458">
        <ele>156</ele>
        <time>2013-09-29T10:33:11.000Z</time>
      </trkpt>
      <trkpt lat="47.86421" lon="2.05458">
        <ele>155</ele>
        <time>2013-09-29T10:33:15.000Z</time>
      </trkpt>
      <trkpt lat="47.86439" lon="2.05458">
        <ele>155</ele>
        <time>2013-09-29T10:33:19.000Z</time>
      </trkpt>
      <trkpt lat="47.86457" lon="2.05458">
        <ele>155</ele>
        <time>2013-09-29T10:33:23.000Z</time>
      </trkpt>
      <trkpt lat="47.86467" lon="2.05458">
        <ele>155</ele>
        <time>2013-09-29T10:33:24.000Z</time>
      </trkpt>
      <trkpt lat="47.86477" lon="2.05458">
        <ele>155</ele>
        <time>2013-09-29T10:33:27.000Z</time>
      </trkpt>
      <trkpt lat="47.86487" lon="2.0546">
        <ele>155</ele>
        <time>2013-09-29T10:33:29.000Z</time>
      </trkpt>
      <trkpt lat="47.86498" lon="2.05463">
        <ele>155</ele>
        <time>2013-09-29T10:33:30.000Z</time>
      </trkpt>
      <trkpt lat="47.86507" lon="2.05467">
        <ele>155</ele>
        <time>2013-09-29T10:33:33.000Z</time>
      </trkpt>
      <trkpt lat="47.86516" lon="2.05472">
        <ele>155</ele>
        <time>2013-09-29T10:33:35.000Z</time>
      </trkpt>
      <trkpt lat="47.86525" lon="2.05476">
        <ele>155</ele>
        <time>2013-09-29T10:33:37.000Z</time>
      </trkpt>
      <trkpt lat="47.86525" lon="2.05476">
        <ele>155</ele>
        <time>2013-09-29T10:33:38.000Z</time>
      </trkpt>
      <trkpt lat="47.86553" lon="2.05498">
        <ele>155</ele>
        <time>2013-09-29T10:33:43.000Z</time>
      </trkpt>
      <trkpt lat="47.86568" lon="2.05512">
        <ele>154</ele>
        <time>2013-09-29T10:33:46.000Z</time>
      </trkpt>
      <trkpt lat="47.86578" lon="2.05519">
        <ele>155</ele>
        <time>2013-09-29T10:33:48.000Z</time>
      </trkpt>
      <trkpt lat="47.86588" lon="2.05528">
        <ele>155</ele>
        <time>2013-09-29T10:33:49.000Z</time>
      </trkpt>
      <trkpt lat="47.86597" lon="2.05536">
        <ele>154</ele>
        <time>2013-09-29T10:33:52.000Z</time>
      </trkpt>
      <trkpt lat="47.86607" lon="2.05545">
        <ele>154</ele>
        <time>2013-09-29T10:33:54.000Z</time>
      </trkpt>
      <trkpt lat="47.86618" lon="2.05554">
        <ele>154</ele>
        <time>2013-09-29T10:33:55.000Z</time>
      </trkpt>
      <trkpt lat="47.86629" lon="2.05563">
        <ele>154</ele>
        <time>2013-09-29T10:33:58.000Z</time>
      </trkpt>
      <trkpt lat="47.8664" lon="2.05574">
        <ele>155</ele>
        <time>2013-09-29T10:34:00.000Z</time>
      </trkpt>
      <trkpt lat="47.86652" lon="2.05585">
        <ele>155</ele>
        <time>2013-09-29T10:34:01.000Z</time>
      </trkpt>
      <trkpt lat="47.86664" lon="2.05593">
        <ele>155</ele>
        <time>2013-09-29T10:34:04.000Z</time>
      </trkpt>
      <trkpt lat="47.86676" lon="2.05603">
        <ele>155</ele>
        <time>2013-09-29T10:34:05.000Z</time>
      </trkpt>
      <trkpt lat="47.86688" lon="2.05615">
        <ele>154</ele>
        <time>2013-09-29T10:34:08.000Z</time>
      </trkpt>
      <trkpt lat="47.867" lon="2.05627">
        <ele>154</ele>
        <time>2013-09-29T10:34:09.000Z</time>
      </trkpt>
      <trkpt lat="47.8671" lon="2.05636">
        <ele>154</ele>
        <time>2013-09-29T10:34:12.000Z</time>
      </trkpt>
      <trkpt lat="47.86721" lon="2.05648">
        <ele>154</ele>
        <time>2013-09-29T10:34:14.000Z</time>
      </trkpt>
      <trkpt lat="47.86734" lon="2.0566">
        <ele>154</ele>
        <time>2013-09-29T10:34:16.000Z</time>
      </trkpt>
      <trkpt lat="47.86745" lon="2.05674">
        <ele>153</ele>
        <time>2013-09-29T10:34:18.000Z</time>
      </trkpt>
      <trkpt lat="47.86757" lon="2.05686">
        <ele>153</ele>
        <time>2013-09-29T10:34:19.000Z</time>
      </trkpt>
      <trkpt lat="47.86768" lon="2.05697">
        <ele>153</ele>
        <time>2013-09-29T10:34:22.000Z</time>
      </trkpt>
      <trkpt lat="47.86779" lon="2.05711">
        <ele>153</ele>
        <time>2013-09-29T10:34:23.000Z</time>
      </trkpt>
      <trkpt lat="47.86788" lon="2.05725">
        <ele>154</ele>
        <time>2013-09-29T10:34:26.000Z</time>
      </trkpt>
      <trkpt lat="47.86794" lon="2.05742">
        <ele>153</ele>
        <time>2013-09-29T10:34:28.000Z</time>
      </trkpt>
      <trkpt lat="47.86801" lon="2.05759">
        <ele>153</ele>
        <time>2013-09-29T10:34:29.000Z</time>
      </trkpt>
      <trkpt lat="47.86805" lon="2.05778">
        <ele>154</ele>
        <time>2013-09-29T10:34:32.000Z</time>
      </trkpt>
      <trkpt lat="47.86808" lon="2.05797">
        <ele>153</ele>
        <time>2013-09-29T10:34:34.000Z</time>
      </trkpt>
      <trkpt lat="47.86812" lon="2.05816">
        <ele>153</ele>
        <time>2013-09-29T10:34:35.000Z</time>
      </trkpt>
      <trkpt lat="47.86815" lon="2.05835">
        <ele>154</ele>
        <time>2013-09-29T10:34:37.000Z</time>
      </trkpt>
      <trkpt lat="47.86818" lon="2.05855">
        <ele>155</ele>
        <time>2013-09-29T10:34:40.000Z</time>
      </trkpt>
      <trkpt lat="47.86821" lon="2.05875">
        <ele>156</ele>
        <time>2013-09-29T10:34:42.000Z</time>
      </trkpt>
      <trkpt lat="47.86824" lon="2.05896">
        <ele>156</ele>
        <time>2013-09-29T10:34:43.000Z</time>
      </trkpt>
      <trkpt lat="47.86826" lon="2.05919">
        <ele>155</ele>
        <time>2013-09-29T10:34:46.000Z</time>
      </trkpt>
      <trkpt lat="47.86831" lon="2.0594">
        <ele>156</ele>
        <time>2013-09-29T10:34:47.000Z</time>
      </trkpt>
      <trkpt lat="47.86837" lon="2.0596">
        <ele>156</ele>
        <time>2013-09-29T10:34:50.000Z</time>
      </trkpt>
      <trkpt lat="47.86844" lon="2.0598">
        <ele>156</ele>
        <time>2013-09-29T10:34:51.000Z</time>
      </trkpt>
      <trkpt lat="47.8685" lon="2.06">
        <ele>156</ele>
        <time>2013-09-29T10:34:54.000Z</time>
      </trkpt>
      <trkpt lat="47.86855" lon="2.0602">
        <ele>156</ele>
        <time>2013-09-29T10:34:55.000Z</time>
      </trkpt>
      <trkpt lat="47.86861" lon="2.06042">
        <ele>156</ele>
        <time>2013-09-29T10:34:57.000Z</time>
      </trkpt>
      <trkpt lat="47.86867" lon="2.06061">
        <ele>156</ele>
        <time>2013-09-29T10:35:00.000Z</time>
      </trkpt>
      <trkpt lat="47.86874" lon="2.06081">
        <ele>156</ele>
        <time>2013-09-29T10:35:01.000Z</time>
      </trkpt>
      <trkpt lat="47.86879" lon="2.06101">
        <ele>157</ele>
        <time>2013-09-29T10:35:04.000Z</time>
      </trkpt>
      <trkpt lat="47.86887" lon="2.06119">
        <ele>157</ele>
        <time>2013-09-29T10:35:05.000Z</time>
      </trkpt>
      <trkpt lat="47.86894" lon="2.06139">
        <ele>157</ele>
        <time>2013-09-29T10:35:08.000Z</time>
      </trkpt>
      <trkpt lat="47.86901" lon="2.06158">
        <ele>158</ele>
        <time>2013-09-29T10:35:09.000Z</time>
      </trkpt>
      <trkpt lat="47.86908" lon="2.06178">
        <ele>157</ele>
        <time>2013-09-29T10:35:12.000Z</time>
      </trkpt>
      <trkpt lat="47.86914" lon="2.06198">
        <ele>157</ele>
        <time>2013-09-29T10:35:14.000Z</time>
      </trkpt>
      <trkpt lat="47.86921" lon="2.06218">
        <ele>157</ele>
        <time>2013-09-29T10:35:15.000Z</time>
      </trkpt>
      <trkpt lat="47.86929" lon="2.06236">
        <ele>157</ele>
        <time>2013-09-29T10:35:18.000Z</time>
      </trkpt>
      <trkpt lat="47.86936" lon="2.06256">
        <ele>157</ele>
        <time>2013-09-29T10:35:20.000Z</time>
      </trkpt>
      <trkpt lat="47.86943" lon="2.06274">
        <ele>157</ele>
        <time>2013-09-29T10:35:22.000Z</time>
      </trkpt>
      <trkpt lat="47.86951" lon="2.06292">
        <ele>157</ele>
        <time>2013-09-29T10:35:23.000Z</time>
      </trkpt>
      <trkpt lat="47.86959" lon="2.0631">
        <ele>157</ele>
        <time>2013-09-29T10:35:26.000Z</time>
      </trkpt>
      <trkpt lat="47.86968" lon="2.06327">
        <ele>158</ele>
        <time>2013-09-29T10:35:28.000Z</time>
      </trkpt>
      <trkpt lat="47.86977" lon="2.06344">
        <ele>157</ele>
        <time>2013-09-29T10:35:29.000Z</time>
      </trkpt>
      <trkpt lat="47.86985" lon="2.06361">
        <ele>157</ele>
        <time>2013-09-29T10:35:32.000Z</time>
      </trkpt>
      <trkpt lat="47.86994" lon="2.06377">
        <ele>158</ele>
        <time>2013-09-29T10:35:34.000Z</time>
      </trkpt>
      <trkpt lat="47.87003" lon="2.06395">
        <ele>157</ele>
        <time>2013-09-29T10:35:35.000Z</time>
      </trkpt>
      <trkpt lat="47.87012" lon="2.06413">
        <ele>157</ele>
        <time>2013-09-29T10:35:37.000Z</time>
      </trkpt>
      <trkpt lat="47.87019" lon="2.06431">
        <ele>157</ele>
        <time>2013-09-29T10:35:40.000Z</time>
      </trkpt>
      <trkpt lat="47.87027" lon="2.0645">
        <ele>157</ele>
        <time>2013-09-29T10:35:42.000Z</time>
      </trkpt>
      <trkpt lat="47.87034" lon="2.0647">
        <ele>157</ele>
        <time>2013-09-29T10:35:43.000Z</time>
      </trkpt>
      <trkpt lat="47.87042" lon="2.06488">
        <ele>157</ele>
        <time>2013-09-29T10:35:46.000Z</time>
      </trkpt>
      <trkpt lat="47.8705" lon="2.06507">
        <ele>157</ele>
        <time>2013-09-29T10:35:48.000Z</time>
      </trkpt>
      <trkpt lat="47.87057" lon="2.06524">
        <ele>157</ele>
        <time>2013-09-29T10:35:49.000Z</time>
      </trkpt>
      <trkpt lat="47.87065" lon="2.0654">
        <ele>156</ele>
        <time>2013-09-29T10:35:52.000Z</time>
      </trkpt>
      <trkpt lat="47.87072" lon="2.06557">
        <ele>156</ele>
        <time>2013-09-29T10:35:53.000Z</time>
      </trkpt>
      <trkpt lat="47.8708" lon="2.06573">
        <ele>156</ele>
        <time>2013-09-29T10:35:56.000Z</time>
      </trkpt>
      <trkpt lat="47.87087" lon="2.06589">
        <ele>156</ele>
        <time>2013-09-29T10:35:57.000Z</time>
      </trkpt>
      <trkpt lat="47.87095" lon="2.06607">
        <ele>155</ele>
        <time>2013-09-29T10:36:00.000Z</time>
      </trkpt>
      <trkpt lat="47.87103" lon="2.06622">
        <ele>155</ele>
        <time>2013-09-29T10:36:01.000Z</time>
      </trkpt>
      <trkpt lat="47.8711" lon="2.06639">
        <ele>155</ele>
        <time>2013-09-29T10:36:04.000Z</time>
      </trkpt>
      <trkpt lat="47.87117" lon="2.06656">
        <ele>155</ele>
        <time>2013-09-29T10:36:05.000Z</time>
      </trkpt>
      <trkpt lat="47.87123" lon="2.06673">
        <ele>155</ele>
        <time>2013-09-29T10:36:08.000Z</time>
      </trkpt>
      <trkpt lat="47.8713" lon="2.0669">
        <ele>155</ele>
        <time>2013-09-29T10:36:09.000Z</time>
      </trkpt>
      <trkpt lat="47.87133" lon="2.06709">
        <ele>155</ele>
        <time>2013-09-29T10:36:12.000Z</time>
      </trkpt>
      <trkpt lat="47.87137" lon="2.06727">
        <ele>155</ele>
        <time>2013-09-29T10:36:13.000Z</time>
      </trkpt>
      <trkpt lat="47.87141" lon="2.06745">
        <ele>156</ele>
        <time>2013-09-29T10:36:16.000Z</time>
      </trkpt>
      <trkpt lat="47.87144" lon="2.06765">
        <ele>157</ele>
        <time>2013-09-29T10:36:17.000Z</time>
      </trkpt>
      <trkpt lat="47.87149" lon="2.06784">
        <ele>158</ele>
        <time>2013-09-29T10:36:20.000Z</time>
      </trkpt>
      <trkpt lat="47.87154" lon="2.06804">
        <ele>158</ele>
        <time>2013-09-29T10:36:21.000Z</time>
      </trkpt>
      <trkpt lat="47.87157" lon="2.06823">
        <ele>159</ele>
        <time>2013-09-29T10:36:24.000Z</time>
      </trkpt>
      <trkpt lat="47.87162" lon="2.06842">
        <ele>159</ele>
        <time>2013-09-29T10:36:25.000Z</time>
      </trkpt>
      <trkpt lat="47.87167" lon="2.06862">
        <ele>159</ele>
        <time>2013-09-29T10:36:27.000Z</time>
      </trkpt>
      <trkpt lat="47.87171" lon="2.06881">
        <ele>160</ele>
        <time>2013-09-29T10:36:29.000Z</time>
      </trkpt>
      <trkpt lat="47.87176" lon="2.069">
        <ele>159</ele>
        <time>2013-09-29T10:36:32.000Z</time>
      </trkpt>
      <trkpt lat="47.8718" lon="2.06919">
        <ele>160</ele>
        <time>2013-09-29T10:36:33.000Z</time>
      </trkpt>
      <trkpt lat="47.87184" lon="2.06938">
        <ele>160</ele>
        <time>2013-09-29T10:36:36.000Z</time>
      </trkpt>
      <trkpt lat="47.87188" lon="2.06957">
        <ele>160</ele>
        <time>2013-09-29T10:36:37.000Z</time>
      </trkpt>
      <trkpt lat="47.87192" lon="2.06975">
        <ele>159</ele>
        <time>2013-09-29T10:36:40.000Z</time>
      </trkpt>
      <trkpt lat="47.87196" lon="2.06995">
        <ele>159</ele>
        <time>2013-09-29T10:36:41.000Z</time>
      </trkpt>
      <trkpt lat="47.872" lon="2.07014">
        <ele>159</ele>
        <time>2013-09-29T10:36:44.000Z</time>
      </trkpt>
      <trkpt lat="47.87204" lon="2.07032">
        <ele>159</ele>
        <time>2013-09-29T10:36:45.000Z</time>
      </trkpt>
      <trkpt lat="47.87208" lon="2.07051">
        <ele>159</ele>
        <time>2013-09-29T10:36:48.000Z</time>
      </trkpt>
      <trkpt lat="47.87212" lon="2.0707">
        <ele>159</ele>
        <time>2013-09-29T10:36:49.000Z</time>
      </trkpt>
      <trkpt lat="47.87216" lon="2.07089">
        <ele>159</ele>
        <time>2013-09-29T10:36:52.000Z</time>
      </trkpt>
      <trkpt lat="47.8722" lon="2.07107">
        <ele>159</ele>
        <time>2013-09-29T10:36:54.000Z</time>
      </trkpt>
      <trkpt lat="47.87224" lon="2.07125">
        <ele>159</ele>
        <time>2013-09-29T10:36:55.000Z</time>
      </trkpt>
      <trkpt lat="47.87227" lon="2.07143">
        <ele>159</ele>
        <time>2013-09-29T10:36:58.000Z</time>
      </trkpt>
      <trkpt lat="47.87231" lon="2.07162">
        <ele>159</ele>
        <time>2013-09-29T10:36:59.000Z</time>
      </trkpt>
      <trkpt lat="47.87235" lon="2.07181">
        <ele>159</ele>
        <time>2013-09-29T10:37:02.000Z</time>
      </trkpt>
      <trkpt lat="47.87239" lon="2.072">
        <ele>159</ele>
        <time>2013-09-29T10:37:03.000Z</time>
      </trkpt>
      <trkpt lat="47.87243" lon="2.07219">
        <ele>159</ele>
        <time>2013-09-29T10:37:06.000Z</time>
      </trkpt>
      <trkpt lat="47.87246" lon="2.07237">
        <ele>159</ele>
        <time>2013-09-29T10:37:08.000Z</time>
      </trkpt>
      <trkpt lat="47.87249" lon="2.07254">
        <ele>158</ele>
        <time>2013-09-29T10:37:09.000Z</time>
      </trkpt>
      <trkpt lat="47.87253" lon="2.0727">
        <ele>158</ele>
        <time>2013-09-29T10:37:12.000Z</time>
      </trkpt>
      <trkpt lat="47.87256" lon="2.07287">
        <ele>158</ele>
        <time>2013-09-29T10:37:14.000Z</time>
      </trkpt>
      <trkpt lat="47.87259" lon="2.07302">
        <ele>158</ele>
        <time>2013-09-29T10:37:15.000Z</time>
      </trkpt>
      <trkpt lat="47.87262" lon="2.07317">
        <ele>158</ele>
        <time>2013-09-29T10:37:17.000Z</time>
      </trkpt>
      <trkpt lat="47.87264" lon="2.07332">
        <ele>158</ele>
        <time>2013-09-29T10:37:20.000Z</time>
      </trkpt>
      <trkpt lat="47.87264" lon="2.07332">
        <ele>158</ele>
        <time>2013-09-29T10:37:22.000Z</time>
      </trkpt>
      <trkpt lat="47.87264" lon="2.07332">
        <ele>158</ele>
        <time>2013-09-29T10:37:23.000Z</time>
      </trkpt>
      <trkpt lat="47.87264" lon="2.07332">
        <ele>158</ele>
        <time>2013-09-29T10:37:26.000Z</time>
      </trkpt>
      <trkpt lat="47.87264" lon="2.07332">
        <ele>158</ele>
        <time>2013-09-29T10:37:28.000Z</time>
      </trkpt>
      <trkpt lat="47.87264" lon="2.07332">
        <ele>158</ele>
        <time>2013-09-29T10:37:29.000Z</time>
      </trkpt>
      <trkpt lat="47.87264" lon="2.07332">
        <ele>158</ele>
        <time>2013-09-29T10:37:32.000Z</time>
      </trkpt>
      <trkpt lat="47.87264" lon="2.07332">
        <ele>158</ele>
        <time>2013-09-29T10:37:33.000Z</time>
      </trkpt>
      <trkpt lat="47.87264" lon="2.07332">
        <ele>158</ele>
        <time>2013-09-29T10:37:36.000Z</time>
      </trkpt>
      <trkpt lat="47.87264" lon="2.07332">
        <ele>158</ele>
        <time>2013-09-29T10:37:37.000Z</time>
      </trkpt>
      <trkpt lat="47.87264" lon="2.07332">
        <ele>158</ele>
        <time>2013-09-29T10:37:40.000Z</time>
      </trkpt>
      <trkpt lat="47.87264" lon="2.07332">
        <ele>158</ele>
        <time>2013-09-29T10:37:42.000Z</time>
      </trkpt>
      <trkpt lat="47.87264" lon="2.07332">
        <ele>158</ele>
        <time>2013-09-29T10:37:43.000Z</time>
      </trkpt>
      <trkpt lat="47.87285" lon="2.07455">
        <ele>156</ele>
        <time>2013-09-29T10:38:22.000Z</time>
      </trkpt>
      <trkpt lat="47.87288" lon="2.07472">
        <ele>155</ele>
        <time>2013-09-29T10:38:25.000Z</time>
      </trkpt>
      <trkpt lat="47.87288" lon="2.07499">
        <ele>154</ele>
        <time>2013-09-29T10:38:29.000Z</time>
      </trkpt>
      <trkpt lat="47.87289" lon="2.07512">
        <ele>155</ele>
        <time>2013-09-29T10:38:30.000Z</time>
      </trkpt>
      <trkpt lat="47.87289" lon="2.07526">
        <ele>155</ele>
        <time>2013-09-29T10:38:33.000Z</time>
      </trkpt>
      <trkpt lat="47.87291" lon="2.0754">
        <ele>155</ele>
        <time>2013-09-29T10:38:34.000Z</time>
      </trkpt>
      <trkpt lat="47.87291" lon="2.0754">
        <ele>155</ele>
        <time>2013-09-29T10:38:36.000Z</time>
      </trkpt>
      <trkpt lat="47.87291" lon="2.0754">
        <ele>155</ele>
        <time>2013-09-29T10:38:39.000Z</time>
      </trkpt>
      <trkpt lat="47.87291" lon="2.0754">
        <ele>155</ele>
        <time>2013-09-29T10:38:40.000Z</time>
      </trkpt>
      <trkpt lat="47.87291" lon="2.0754">
        <ele>155</ele>
        <time>2013-09-29T10:38:43.000Z</time>
      </trkpt>
      <trkpt lat="47.87291" lon="2.0754">
        <ele>155</ele>
        <time>2013-09-29T10:38:44.000Z</time>
      </trkpt>
      <trkpt lat="47.87291" lon="2.0754">
        <ele>155</ele>
        <time>2013-09-29T10:38:47.000Z</time>
      </trkpt>
      <trkpt lat="47.87291" lon="2.0754">
        <ele>155</ele>
        <time>2013-09-29T10:38:49.000Z</time>
      </trkpt>
      <trkpt lat="47.87291" lon="2.0754">
        <ele>155</ele>
        <time>2013-09-29T10:38:50.000Z</time>
      </trkpt>
      <trkpt lat="47.87291" lon="2.0754">
        <ele>155</ele>
        <time>2013-09-29T10:38:52.000Z</time>
      </trkpt>
      <trkpt lat="47.87291" lon="2.0754">
        <ele>155</ele>
        <time>2013-09-29T10:38:55.000Z</time>
      </trkpt>
      <trkpt lat="47.873" lon="2.07592">
        <ele>155</ele>
        <time>2013-09-29T10:38:59.000Z</time>
      </trkpt>
      <trkpt lat="47.873" lon="2.07592">
        <ele>155</ele>
        <time>2013-09-29T10:39:09.000Z</time>
      </trkpt>
      <trkpt lat="47.873" lon="2.07592">
        <ele>155</ele>
        <time>2013-09-29T10:39:10.000Z</time>
      </trkpt>
      <trkpt lat="47.873" lon="2.07592">
        <ele>155</ele>
        <time>2013-09-29T10:39:13.000Z</time>
      </trkpt>
      <trkpt lat="47.87301" lon="2.07632">
        <ele>152</ele>
        <time>2013-09-29T10:41:49.000Z</time>
      </trkpt>
      <trkpt lat="47.87315" lon="2.07668">
        <ele>152</ele>
        <time>2013-09-29T10:41:54.000Z</time>
      </trkpt>
      <trkpt lat="47.8732" lon="2.07682">
        <ele>152</ele>
        <time>2013-09-29T10:41:55.000Z</time>
      </trkpt>
      <trkpt lat="47.87323" lon="2.07698">
        <ele>152</ele>
        <time>2013-09-29T10:41:57.000Z</time>
      </trkpt>
      <trkpt lat="47.87325" lon="2.07713">
        <ele>151</ele>
        <time>2013-09-29T10:42:00.000Z</time>
      </trkpt>
      <trkpt lat="47.87327" lon="2.0773">
        <ele>151</ele>
        <time>2013-09-29T10:42:01.000Z</time>
      </trkpt>
      <trkpt lat="47.87329" lon="2.07748">
        <ele>150</ele>
        <time>2013-09-29T10:42:04.000Z</time>
      </trkpt>
      <trkpt lat="47.87332" lon="2.07764">
        <ele>150</ele>
        <time>2013-09-29T10:42:06.000Z</time>
      </trkpt>
      <trkpt lat="47.87333" lon="2.07781">
        <ele>149</ele>
        <time>2013-09-29T10:42:08.000Z</time>
      </trkpt>
      <trkpt lat="47.87333" lon="2.07799">
        <ele>150</ele>
        <time>2013-09-29T10:42:09.000Z</time>
      </trkpt>
      <trkpt lat="47.87333" lon="2.07816">
        <ele>149</ele>
        <time>2013-09-29T10:42:12.000Z</time>
      </trkpt>
      <trkpt lat="47.87333" lon="2.07835">
        <ele>149</ele>
        <time>2013-09-29T10:42:13.000Z</time>
      </trkpt>
      <trkpt lat="47.87334" lon="2.07852">
        <ele>149</ele>
        <time>2013-09-29T10:42:16.000Z</time>
      </trkpt>
      <trkpt lat="47.87336" lon="2.0787">
        <ele>149</ele>
        <time>2013-09-29T10:42:17.000Z</time>
      </trkpt>
      <trkpt lat="47.87338" lon="2.07888">
        <ele>149</ele>
        <time>2013-09-29T10:42:19.000Z</time>
      </trkpt>
      <trkpt lat="47.87339" lon="2.07905">
        <ele>149</ele>
        <time>2013-09-29T10:42:21.000Z</time>
      </trkpt>
      <trkpt lat="47.87338" lon="2.07919">
        <ele>149</ele>
        <time>2013-09-29T10:42:24.000Z</time>
      </trkpt>
      <trkpt lat="47.87338" lon="2.07919">
        <ele>149</ele>
        <time>2013-09-29T10:42:26.000Z</time>
      </trkpt>
      <trkpt lat="47.87338" lon="2.07919">
        <ele>149</ele>
        <time>2013-09-29T10:42:27.000Z</time>
      </trkpt>
      <trkpt lat="47.87338" lon="2.07919">
        <ele>149</ele>
        <time>2013-09-29T10:42:30.000Z</time>
      </trkpt>
      <trkpt lat="47.87338" lon="2.07919">
        <ele>149</ele>
        <time>2013-09-29T10:42:31.000Z</time>
      </trkpt>
      <trkpt lat="47.87291" lon="2.07984">
        <ele>148</ele>
        <time>2013-09-29T10:42:38.000Z</time>
      </trkpt>
      <trkpt lat="47.87291" lon="2.07984">
        <ele>148</ele>
        <time>2013-09-29T10:42:39.000Z</time>
      </trkpt>
      <trkpt lat="47.87283" lon="2.08001">
        <ele>152</ele>
        <time>2013-09-29T10:42:42.000Z</time>
      </trkpt>
      <trkpt lat="47.87283" lon="2.08001">
        <ele>152</ele>
        <time>2013-09-29T10:42:44.000Z</time>
      </trkpt>
      <trkpt lat="47.87283" lon="2.08001">
        <ele>152</ele>
        <time>2013-09-29T10:42:45.000Z</time>
      </trkpt>
      <trkpt lat="47.87283" lon="2.08001">
        <ele>152</ele>
        <time>2013-09-29T10:42:48.000Z</time>
      </trkpt>
      <trkpt lat="47.87283" lon="2.08001">
        <ele>152</ele>
        <time>2013-09-29T10:42:54.000Z</time>
      </trkpt>
      <trkpt lat="47.87283" lon="2.08001">
        <ele>152</ele>
        <time>2013-09-29T10:42:56.000Z</time>
      </trkpt>
      <trkpt lat="47.87283" lon="2.08001">
        <ele>152</ele>
        <time>2013-09-29T10:42:57.000Z</time>
      </trkpt>
      <trkpt lat="47.87283" lon="2.08001">
        <ele>152</ele>
        <time>2013-09-29T10:43:00.000Z</time>
      </trkpt>
      <trkpt lat="47.87283" lon="2.08001">
        <ele>152</ele>
        <time>2013-09-29T10:43:01.000Z</time>
      </trkpt>
      <trkpt lat="47.87269" lon="2.08039">
        <ele>151</ele>
        <time>2013-09-29T10:43:08.000Z</time>
      </trkpt>
      <trkpt lat="47.87269" lon="2.08039">
        <ele>151</ele>
        <time>2013-09-29T10:43:09.000Z</time>
      </trkpt>
      <trkpt lat="47.87269" lon="2.08039">
        <ele>151</ele>
        <time>2013-09-29T10:43:11.000Z</time>
      </trkpt>
      <trkpt lat="47.87269" lon="2.08039">
        <ele>151</ele>
        <time>2013-09-29T10:43:14.000Z</time>
      </trkpt>
      <trkpt lat="47.87269" lon="2.08039">
        <ele>151</ele>
        <time>2013-09-29T10:43:15.000Z</time>
      </trkpt>
      <trkpt lat="47.87269" lon="2.08039">
        <ele>151</ele>
        <time>2013-09-29T10:43:17.000Z</time>
      </trkpt>
      <trkpt lat="47.87269" lon="2.08039">
        <ele>151</ele>
        <time>2013-09-29T10:43:20.000Z</time>
      </trkpt>
      <trkpt lat="47.8727" lon="2.08054">
        <ele>151</ele>
        <time>2013-09-29T10:43:30.000Z</time>
      </trkpt>
      <trkpt lat="47.87267" lon="2.08059">
        <ele>151</ele>
        <time>2013-09-29T10:43:36.000Z</time>
      </trkpt>
      <trkpt lat="47.87267" lon="2.0807">
        <ele>151</ele>
        <time>2013-09-29T10:43:40.000Z</time>
      </trkpt>
      <trkpt lat="47.87268" lon="2.08079">
        <ele>150</ele>
        <time>2013-09-29T10:43:41.000Z</time>
      </trkpt>
      <trkpt lat="47.8727" lon="2.08085">
        <ele>151</ele>
        <time>2013-09-29T10:43:44.000Z</time>
      </trkpt>
      <trkpt lat="47.8727" lon="2.08085">
        <ele>151</ele>
        <time>2013-09-29T10:43:45.000Z</time>
      </trkpt>
      <trkpt lat="47.8727" lon="2.08085">
        <ele>151</ele>
        <time>2013-09-29T10:43:48.000Z</time>
      </trkpt>
      <trkpt lat="47.8727" lon="2.08085">
        <ele>151</ele>
        <time>2013-09-29T10:43:49.000Z</time>
      </trkpt>
      <trkpt lat="47.87269" lon="2.08106">
        <ele>151</ele>
        <time>2013-09-29T10:43:54.000Z</time>
      </trkpt>
      <trkpt lat="47.87268" lon="2.0812">
        <ele>152</ele>
        <time>2013-09-29T10:43:55.000Z</time>
      </trkpt>
      <trkpt lat="47.87267" lon="2.08132">
        <ele>152</ele>
        <time>2013-09-29T10:43:58.000Z</time>
      </trkpt>
      <trkpt lat="47.87268" lon="2.08142">
        <ele>152</ele>
        <time>2013-09-29T10:43:59.000Z</time>
      </trkpt>
      <trkpt lat="47.87268" lon="2.08152">
        <ele>153</ele>
        <time>2013-09-29T10:44:02.000Z</time>
      </trkpt>
      <trkpt lat="47.8727" lon="2.08171">
        <ele>153</ele>
        <time>2013-09-29T10:44:03.000Z</time>
      </trkpt>
      <trkpt lat="47.8727" lon="2.08171">
        <ele>153</ele>
        <time>2013-09-29T10:44:06.000Z</time>
      </trkpt>
      <trkpt lat="47.8727" lon="2.08171">
        <ele>153</ele>
        <time>2013-09-29T10:44:07.000Z</time>
      </trkpt>
      <trkpt lat="47.8727" lon="2.08171">
        <ele>153</ele>
        <time>2013-09-29T10:44:10.000Z</time>
      </trkpt>
      <trkpt lat="47.8727" lon="2.08171">
        <ele>153</ele>
        <time>2013-09-29T10:44:11.000Z</time>
      </trkpt>
      <trkpt lat="47.8727" lon="2.08171">
        <ele>153</ele>
        <time>2013-09-29T10:44:14.000Z</time>
      </trkpt>
      <trkpt lat="47.8727" lon="2.08171">
        <ele>153</ele>
        <time>2013-09-29T10:44:16.000Z</time>
      </trkpt>
      <trkpt lat="47.8727" lon="2.08171">
        <ele>153</ele>
        <time>2013-09-29T10:44:17.000Z</time>
      </trkpt>
      <trkpt lat="47.8727" lon="2.08171">
        <ele>153</ele>
        <time>2013-09-29T10:44:20.000Z</time>
      </trkpt>
      <trkpt lat="47.8727" lon="2.08171">
        <ele>153</ele>
        <time>2013-09-29T10:44:21.000Z</time>
      </trkpt>
      <trkpt lat="47.8727" lon="2.08171">
        <ele>153</ele>
        <time>2013-09-29T10:44:24.000Z</time>
      </trkpt>
      <trkpt lat="47.8727" lon="2.08171">
        <ele>153</ele>
        <time>2013-09-29T10:44:25.000Z</time>
      </trkpt>
      <trkpt lat="47.87277" lon="2.08243">
        <ele>152</ele>
        <time>2013-09-29T10:44:30.000Z</time>
      </trkpt>
      <trkpt lat="47.87278" lon="2.08257">
        <ele>151</ele>
        <time>2013-09-29T10:44:34.000Z</time>
      </trkpt>
      <trkpt lat="47.87279" lon="2.08276">
        <ele>150</ele>
        <time>2013-09-29T10:44:40.000Z</time>
      </trkpt>
      <trkpt lat="47.8728" lon="2.0829">
        <ele>150</ele>
        <time>2013-09-29T10:44:44.000Z</time>
      </trkpt>
      <trkpt lat="47.87281" lon="2.08304">
        <ele>150</ele>
        <time>2013-09-29T10:44:48.000Z</time>
      </trkpt>
      <trkpt lat="47.87283" lon="2.08321">
        <ele>150</ele>
        <time>2013-09-29T10:44:52.000Z</time>
      </trkpt>
      <trkpt lat="47.87284" lon="2.08338">
        <ele>150</ele>
        <time>2013-09-29T10:44:56.000Z</time>
      </trkpt>
      <trkpt lat="47.87284" lon="2.08357">
        <ele>150</ele>
        <time>2013-09-29T10:45:00.000Z</time>
      </trkpt>
      <trkpt lat="47.87286" lon="2.08375">
        <ele>150</ele>
        <time>2013-09-29T10:45:04.000Z</time>
      </trkpt>
      <trkpt lat="47.87287" lon="2.08395">
        <ele>150</ele>
        <time>2013-09-29T10:45:08.000Z</time>
      </trkpt>
      <trkpt lat="47.87285" lon="2.08413">
        <ele>150</ele>
        <time>2013-09-29T10:45:12.000Z</time>
      </trkpt>
      <trkpt lat="47.87285" lon="2.08413">
        <ele>150</ele>
        <time>2013-09-29T10:45:13.000Z</time>
      </trkpt>
      <trkpt lat="47.87278" lon="2.08431">
        <ele>150</ele>
        <time>2013-09-29T10:45:16.000Z</time>
      </trkpt>
      <trkpt lat="47.87281" lon="2.08453">
        <ele>149</ele>
        <time>2013-09-29T10:45:20.000Z</time>
      </trkpt>
      <trkpt lat="47.87283" lon="2.08472">
        <ele>148</ele>
        <time>2013-09-29T10:45:24.000Z</time>
      </trkpt>
      <trkpt lat="47.87283" lon="2.08472">
        <ele>148</ele>
        <time>2013-09-29T10:45:25.000Z</time>
      </trkpt>
      <trkpt lat="47.87283" lon="2.08472">
        <ele>148</ele>
        <time>2013-09-29T10:45:28.000Z</time>
      </trkpt>
      <trkpt lat="47.87286" lon="2.08513">
        <ele>149</ele>
        <time>2013-09-29T10:45:32.000Z</time>
      </trkpt>
      <trkpt lat="47.87285" lon="2.08524">
        <ele>148</ele>
        <time>2013-09-29T10:45:36.000Z</time>
      </trkpt>
      <trkpt lat="47.87285" lon="2.08535">
        <ele>148</ele>
        <time>2013-09-29T10:45:37.000Z</time>
      </trkpt>
      <trkpt lat="47.87286" lon="2.08545">
        <ele>148</ele>
        <time>2013-09-29T10:45:40.000Z</time>
      </trkpt>
      <trkpt lat="47.87286" lon="2.08557">
        <ele>146</ele>
        <time>2013-09-29T10:45:42.000Z</time>
      </trkpt>
      <trkpt lat="47.87286" lon="2.08557">
        <ele>146</ele>
        <time>2013-09-29T10:45:44.000Z</time>
      </trkpt>
      <trkpt lat="47.87288" lon="2.08574">
        <ele>147</ele>
        <time>2013-09-29T10:45:46.000Z</time>
      </trkpt>
      <trkpt lat="47.87288" lon="2.08574">
        <ele>147</ele>
        <time>2013-09-29T10:45:47.000Z</time>
      </trkpt>
      <trkpt lat="47.87288" lon="2.08574">
        <ele>147</ele>
        <time>2013-09-29T10:45:50.000Z</time>
      </trkpt>
      <trkpt lat="47.87288" lon="2.08574">
        <ele>147</ele>
        <time>2013-09-29T10:45:52.000Z</time>
      </trkpt>
      <trkpt lat="47.87288" lon="2.08574">
        <ele>147</ele>
        <time>2013-09-29T10:45:53.000Z</time>
      </trkpt>
      <trkpt lat="47.87288" lon="2.08574">
        <ele>147</ele>
        <time>2013-09-29T10:45:56.000Z</time>
      </trkpt>
      <trkpt lat="47.87289" lon="2.08614">
        <ele>149</ele>
        <time>2013-09-29T10:45:57.000Z</time>
      </trkpt>
      <trkpt lat="47.8729" lon="2.0864">
        <ele>149</ele>
        <time>2013-09-29T10:46:00.000Z</time>
      </trkpt>
      <trkpt lat="47.87292" lon="2.08658">
        <ele>149</ele>
        <time>2013-09-29T10:46:01.000Z</time>
      </trkpt>
      <trkpt lat="47.87294" lon="2.08672">
        <ele>149</ele>
        <time>2013-09-29T10:46:04.000Z</time>
      </trkpt>
      <trkpt lat="47.87296" lon="2.08685">
        <ele>149</ele>
        <time>2013-09-29T10:46:05.000Z</time>
      </trkpt>
      <trkpt lat="47.873" lon="2.08709">
        <ele>149</ele>
        <time>2013-09-29T10:46:08.000Z</time>
      </trkpt>
      <trkpt lat="47.873" lon="2.08709">
        <ele>149</ele>
        <time>2013-09-29T10:46:09.000Z</time>
      </trkpt>
      <trkpt lat="47.873" lon="2.08709">
        <ele>149</ele>
        <time>2013-09-29T10:46:12.000Z</time>
      </trkpt>
      <trkpt lat="47.873" lon="2.08709">
        <ele>149</ele>
        <time>2013-09-29T10:46:13.000Z</time>
      </trkpt>
      <trkpt lat="47.873" lon="2.08709">
        <ele>149</ele>
        <time>2013-09-29T10:46:16.000Z</time>
      </trkpt>
      <trkpt lat="47.873" lon="2.08709">
        <ele>149</ele>
        <time>2013-09-29T10:46:17.000Z</time>
      </trkpt>
      <trkpt lat="47.873" lon="2.08709">
        <ele>149</ele>
        <time>2013-09-29T10:46:20.000Z</time>
      </trkpt>
      <trkpt lat="47.873" lon="2.08709">
        <ele>149</ele>
        <time>2013-09-29T10:46:21.000Z</time>
      </trkpt>
      <trkpt lat="47.873" lon="2.08709">
        <ele>149</ele>
        <time>2013-09-29T10:46:24.000Z</time>
      </trkpt>
      <trkpt lat="47.87325" lon="2.08803">
        <ele>150</ele>
        <time>2013-09-29T10:46:28.000Z</time>
      </trkpt>
      <trkpt lat="47.87325" lon="2.0883">
        <ele>149</ele>
        <time>2013-09-29T10:46:32.000Z</time>
      </trkpt>
      <trkpt lat="47.87325" lon="2.08844">
        <ele>148</ele>
        <time>2013-09-29T10:46:33.000Z</time>
      </trkpt>
      <trkpt lat="47.87323" lon="2.08858">
        <ele>148</ele>
        <time>2013-09-29T10:46:36.000Z</time>
      </trkpt>
      <trkpt lat="47.87323" lon="2.08885">
        <ele>148</ele>
        <time>2013-09-29T10:46:40.000Z</time>
      </trkpt>
      <trkpt lat="47.87323" lon="2.08911">
        <ele>149</ele>
        <time>2013-09-29T10:46:44.000Z</time>
      </trkpt>
      <trkpt lat="47.87323" lon="2.08911">
        <ele>149</ele>
        <time>2013-09-29T10:46:45.000Z</time>
      </trkpt>
      <trkpt lat="47.87323" lon="2.08911">
        <ele>149</ele>
        <time>2013-09-29T10:46:48.000Z</time>
      </trkpt>
      <trkpt lat="47.87323" lon="2.08911">
        <ele>149</ele>
        <time>2013-09-29T10:46:49.000Z</time>
      </trkpt>
      <trkpt lat="47.87323" lon="2.08911">
        <ele>149</ele>
        <time>2013-09-29T10:46:52.000Z</time>
      </trkpt>
      <trkpt lat="47.87323" lon="2.08911">
        <ele>149</ele>
        <time>2013-09-29T10:46:53.000Z</time>
      </trkpt>
      <trkpt lat="47.87323" lon="2.08911">
        <ele>149</ele>
        <time>2013-09-29T10:46:56.000Z</time>
      </trkpt>
      <trkpt lat="47.87323" lon="2.08911">
        <ele>149</ele>
        <time>2013-09-29T10:46:57.000Z</time>
      </trkpt>
      <trkpt lat="47.87323" lon="2.09">
        <ele>159</ele>
        <time>2013-09-29T10:47:00.000Z</time>
      </trkpt>
      <trkpt lat="47.87324" lon="2.09017">
        <ele>162</ele>
        <time>2013-09-29T10:47:01.000Z</time>
      </trkpt>
      <trkpt lat="47.87328" lon="2.09036">
        <ele>160</ele>
        <time>2013-09-29T10:47:04.000Z</time>
      </trkpt>
      <trkpt lat="47.87331" lon="2.09055">
        <ele>160</ele>
        <time>2013-09-29T10:47:05.000Z</time>
      </trkpt>
      <trkpt lat="47.87334" lon="2.09073">
        <ele>159</ele>
        <time>2013-09-29T10:47:08.000Z</time>
      </trkpt>
      <trkpt lat="47.87336" lon="2.09087">
        <ele>159</ele>
        <time>2013-09-29T10:47:09.000Z</time>
      </trkpt>
      <trkpt lat="47.8733" lon="2.0911">
        <ele>162</ele>
        <time>2013-09-29T10:47:13.000Z</time>
      </trkpt>
      <trkpt lat="47.87328" lon="2.09124">
        <ele>162</ele>
        <time>2013-09-29T10:47:15.000Z</time>
      </trkpt>
      <trkpt lat="47.87328" lon="2.09124">
        <ele>162</ele>
        <time>2013-09-29T10:47:17.000Z</time>
      </trkpt>
      <trkpt lat="47.87328" lon="2.09124">
        <ele>162</ele>
        <time>2013-09-29T10:47:20.000Z</time>
      </trkpt>
      <trkpt lat="47.87328" lon="2.09124">
        <ele>162</ele>
        <time>2013-09-29T10:47:23.000Z</time>
      </trkpt>
      <trkpt lat="47.87328" lon="2.09124">
        <ele>162</ele>
        <time>2013-09-29T10:47:30.000Z</time>
      </trkpt>
      <trkpt lat="47.87337" lon="2.09261">
        <ele>151</ele>
        <time>2013-09-29T10:47:36.000Z</time>
      </trkpt>
      <trkpt lat="47.87337" lon="2.09275">
        <ele>153</ele>
        <time>2013-09-29T10:47:37.000Z</time>
      </trkpt>
      <trkpt lat="47.87337" lon="2.09275">
        <ele>153</ele>
        <time>2013-09-29T10:47:40.000Z</time>
      </trkpt>
      <trkpt lat="47.87337" lon="2.09275">
        <ele>153</ele>
        <time>2013-09-29T10:47:42.000Z</time>
      </trkpt>
      <trkpt lat="47.87337" lon="2.09275">
        <ele>153</ele>
        <time>2013-09-29T10:47:44.000Z</time>
      </trkpt>
      <trkpt lat="47.87339" lon="2.09312">
        <ele>152</ele>
        <time>2013-09-29T10:47:48.000Z</time>
      </trkpt>
      <trkpt lat="47.87341" lon="2.09337">
        <ele>152</ele>
        <time>2013-09-29T10:47:49.000Z</time>
      </trkpt>
      <trkpt lat="47.87342" lon="2.09357">
        <ele>152</ele>
        <time>2013-09-29T10:47:52.000Z</time>
      </trkpt>
      <trkpt lat="47.87343" lon="2.09372">
        <ele>154</ele>
        <time>2013-09-29T10:47:53.000Z</time>
      </trkpt>
      <trkpt lat="47.87343" lon="2.09386">
        <ele>155</ele>
        <time>2013-09-29T10:47:56.000Z</time>
      </trkpt>
      <trkpt lat="47.87343" lon="2.09386">
        <ele>155</ele>
        <time>2013-09-29T10:47:57.000Z</time>
      </trkpt>
      <trkpt lat="47.87343" lon="2.09386">
        <ele>155</ele>
        <time>2013-09-29T10:48:00.000Z</time>
      </trkpt>
      <trkpt lat="47.87353" lon="2.09475">
        <ele>151</ele>
        <time>2013-09-29T10:48:06.000Z</time>
      </trkpt>
      <trkpt lat="47.87356" lon="2.09489">
        <ele>149</ele>
        <time>2013-09-29T10:48:07.000Z</time>
      </trkpt>
      <trkpt lat="47.87355" lon="2.09505">
        <ele>147</ele>
        <time>2013-09-29T10:48:10.000Z</time>
      </trkpt>
      <trkpt lat="47.87354" lon="2.09518">
        <ele>148</ele>
        <time>2013-09-29T10:48:11.000Z</time>
      </trkpt>
      <trkpt lat="47.87354" lon="2.09518">
        <ele>148</ele>
        <time>2013-09-29T10:48:14.000Z</time>
      </trkpt>
      <trkpt lat="47.87354" lon="2.09518">
        <ele>148</ele>
        <time>2013-09-29T10:48:15.000Z</time>
      </trkpt>
      <trkpt lat="47.87354" lon="2.09518">
        <ele>148</ele>
        <time>2013-09-29T10:48:18.000Z</time>
      </trkpt>
      <trkpt lat="47.87354" lon="2.09518">
        <ele>148</ele>
        <time>2013-09-29T10:48:19.000Z</time>
      </trkpt>
      <trkpt lat="47.87354" lon="2.09518">
        <ele>148</ele>
        <time>2013-09-29T10:48:21.000Z</time>
      </trkpt>
      <trkpt lat="47.87354" lon="2.09608">
        <ele>145</ele>
        <time>2013-09-29T10:48:26.000Z</time>
      </trkpt>
      <trkpt lat="47.87353" lon="2.09622">
        <ele>144</ele>
        <time>2013-09-29T10:48:27.000Z</time>
      </trkpt>
      <trkpt lat="47.87353" lon="2.09622">
        <ele>144</ele>
        <time>2013-09-29T10:48:30.000Z</time>
      </trkpt>
      <trkpt lat="47.87353" lon="2.09622">
        <ele>144</ele>
        <time>2013-09-29T10:48:31.000Z</time>
      </trkpt>
      <trkpt lat="47.87353" lon="2.09622">
        <ele>144</ele>
        <time>2013-09-29T10:48:34.000Z</time>
      </trkpt>
      <trkpt lat="47.87353" lon="2.09622">
        <ele>144</ele>
        <time>2013-09-29T10:48:36.000Z</time>
      </trkpt>
      <trkpt lat="47.87353" lon="2.09622">
        <ele>144</ele>
        <time>2013-09-29T10:48:37.000Z</time>
      </trkpt>
      <trkpt lat="47.87353" lon="2.09622">
        <ele>144</ele>
        <time>2013-09-29T10:48:40.000Z</time>
      </trkpt>
      <trkpt lat="47.87353" lon="2.09622">
        <ele>144</ele>
        <time>2013-09-29T10:48:41.000Z</time>
      </trkpt>
      <trkpt lat="47.87353" lon="2.09622">
        <ele>144</ele>
        <time>2013-09-29T10:48:43.000Z</time>
      </trkpt>
      <trkpt lat="47.87353" lon="2.09622">
        <ele>144</ele>
        <time>2013-09-29T10:48:46.000Z</time>
      </trkpt>
      <trkpt lat="47.87353" lon="2.09701">
        <ele>154</ele>
        <time>2013-09-29T10:49:37.000Z</time>
      </trkpt>
      <trkpt lat="47.87352" lon="2.09716">
        <ele>155</ele>
        <time>2013-09-29T10:49:40.000Z</time>
      </trkpt>
      <trkpt lat="47.87353" lon="2.09731">
        <ele>157</ele>
        <time>2013-09-29T10:49:41.000Z</time>
      </trkpt>
      <trkpt lat="47.87355" lon="2.09751">
        <ele>156</ele>
        <time>2013-09-29T10:49:46.000Z</time>
      </trkpt>
      <trkpt lat="47.87355" lon="2.09751">
        <ele>156</ele>
        <time>2013-09-29T10:49:47.000Z</time>
      </trkpt>
      <trkpt lat="47.87355" lon="2.09751">
        <ele>156</ele>
        <time>2013-09-29T10:49:49.000Z</time>
      </trkpt>
      <trkpt lat="47.87361" lon="2.09796">
        <ele>148</ele>
        <time>2013-09-29T10:49:53.000Z</time>
      </trkpt>
      <trkpt lat="47.87363" lon="2.09818">
        <ele>148</ele>
        <time>2013-09-29T10:49:57.000Z</time>
      </trkpt>
      <trkpt lat="47.87363" lon="2.09818">
        <ele>148</ele>
        <time>2013-09-29T10:49:58.000Z</time>
      </trkpt>
      <trkpt lat="47.87363" lon="2.09818">
        <ele>148</ele>
        <time>2013-09-29T10:50:00.000Z</time>
      </trkpt>
      <trkpt lat="47.87363" lon="2.09818">
        <ele>148</ele>
        <time>2013-09-29T10:50:02.000Z</time>
      </trkpt>
      <trkpt lat="47.87363" lon="2.09818">
        <ele>148</ele>
        <time>2013-09-29T10:50:05.000Z</time>
      </trkpt>
      <trkpt lat="47.87363" lon="2.09818">
        <ele>148</ele>
        <time>2013-09-29T10:50:07.000Z</time>
      </trkpt>
      <trkpt lat="47.87363" lon="2.09818">
        <ele>148</ele>
        <time>2013-09-29T10:50:08.000Z</time>
      </trkpt>
      <trkpt lat="47.87361" lon="2.09904">
        <ele>150</ele>
        <time>2013-09-29T10:50:13.000Z</time>
      </trkpt>
      <trkpt lat="47.87364" lon="2.09918">
        <ele>150</ele>
        <time>2013-09-29T10:50:17.000Z</time>
      </trkpt>
      <trkpt lat="47.87364" lon="2.09918">
        <ele>150</ele>
        <time>2013-09-29T10:50:18.000Z</time>
      </trkpt>
      <trkpt lat="47.87364" lon="2.09918">
        <ele>150</ele>
        <time>2013-09-29T10:50:21.000Z</time>
      </trkpt>
      <trkpt lat="47.87364" lon="2.09918">
        <ele>150</ele>
        <time>2013-09-29T10:50:22.000Z</time>
      </trkpt>
      <trkpt lat="47.87364" lon="2.09918">
        <ele>150</ele>
        <time>2013-09-29T10:50:24.000Z</time>
      </trkpt>
      <trkpt lat="47.87364" lon="2.09918">
        <ele>150</ele>
        <time>2013-09-29T10:50:27.000Z</time>
      </trkpt>
      <trkpt lat="47.87364" lon="2.09918">
        <ele>150</ele>
        <time>2013-09-29T10:50:28.000Z</time>
      </trkpt>
      <trkpt lat="47.87364" lon="2.09991">
        <ele>153</ele>
        <time>2013-09-29T10:50:35.000Z</time>
      </trkpt>
      <trkpt lat="47.87368" lon="2.10005">
        <ele>152</ele>
        <time>2013-09-29T10:50:39.000Z</time>
      </trkpt>
      <trkpt lat="47.87365" lon="2.10021">
        <ele>157</ele>
        <time>2013-09-29T10:50:43.000Z</time>
      </trkpt>
      <trkpt lat="47.87362" lon="2.1004">
        <ele>159</ele>
        <time>2013-09-29T10:50:47.000Z</time>
      </trkpt>
      <trkpt lat="47.8736" lon="2.10064">
        <ele>159</ele>
        <time>2013-09-29T10:50:51.000Z</time>
      </trkpt>
      <trkpt lat="47.87359" lon="2.10084">
        <ele>158</ele>
        <time>2013-09-29T10:50:55.000Z</time>
      </trkpt>
      <trkpt lat="47.87362" lon="2.10106">
        <ele>155</ele>
        <time>2013-09-29T10:50:59.000Z</time>
      </trkpt>
      <trkpt lat="47.87362" lon="2.10106">
        <ele>155</ele>
        <time>2013-09-29T10:51:03.000Z</time>
      </trkpt>
      <trkpt lat="47.87362" lon="2.10106">
        <ele>155</ele>
        <time>2013-09-29T10:51:04.000Z</time>
      </trkpt>
      <trkpt lat="47.87362" lon="2.10106">
        <ele>155</ele>
        <time>2013-09-29T10:51:07.000Z</time>
      </trkpt>
      <trkpt lat="47.87362" lon="2.10106">
        <ele>155</ele>
        <time>2013-09-29T10:51:08.000Z</time>
      </trkpt>
      <trkpt lat="47.87362" lon="2.10106">
        <ele>155</ele>
        <time>2013-09-29T10:51:13.000Z</time>
      </trkpt>
      <trkpt lat="47.87362" lon="2.10106">
        <ele>155</ele>
        <time>2013-09-29T10:51:17.000Z</time>
      </trkpt>
      <trkpt lat="47.87362" lon="2.10106">
        <ele>155</ele>
        <time>2013-09-29T10:51:18.000Z</time>
      </trkpt>
      <trkpt lat="47.87362" lon="2.10106">
        <ele>155</ele>
        <time>2013-09-29T10:51:20.000Z</time>
      </trkpt>
      <trkpt lat="47.87362" lon="2.10106">
        <ele>155</ele>
        <time>2013-09-29T10:51:22.000Z</time>
      </trkpt>
      <trkpt lat="47.87365" lon="2.10161">
        <ele>160</ele>
        <time>2013-09-29T10:51:25.000Z</time>
      </trkpt>
      <trkpt lat="47.87366" lon="2.10193">
        <ele>161</ele>
        <time>2013-09-29T10:51:27.000Z</time>
      </trkpt>
      <trkpt lat="47.87366" lon="2.10193">
        <ele>161</ele>
        <time>2013-09-29T10:51:28.000Z</time>
      </trkpt>
      <trkpt lat="47.87366" lon="2.10193">
        <ele>161</ele>
        <time>2013-09-29T10:51:31.000Z</time>
      </trkpt>
      <trkpt lat="47.87366" lon="2.10193">
        <ele>161</ele>
        <time>2013-09-29T10:51:32.000Z</time>
      </trkpt>
      <trkpt lat="47.87366" lon="2.10193">
        <ele>161</ele>
        <time>2013-09-29T10:51:35.000Z</time>
      </trkpt>
      <trkpt lat="47.87366" lon="2.10193">
        <ele>161</ele>
        <time>2013-09-29T10:51:36.000Z</time>
      </trkpt>
      <trkpt lat="47.87368" lon="2.10251">
        <ele>159</ele>
        <time>2013-09-29T10:52:36.000Z</time>
      </trkpt>
      <trkpt lat="47.87368" lon="2.10251">
        <ele>159</ele>
        <time>2013-09-29T10:52:39.000Z</time>
      </trkpt>
      <trkpt lat="47.87369" lon="2.10281">
        <ele>164</ele>
        <time>2013-09-29T10:52:43.000Z</time>
      </trkpt>
      <trkpt lat="47.87369" lon="2.10281">
        <ele>164</ele>
        <time>2013-09-29T10:52:44.000Z</time>
      </trkpt>
      <trkpt lat="47.87369" lon="2.10281">
        <ele>164</ele>
        <time>2013-09-29T10:52:47.000Z</time>
      </trkpt>
      <trkpt lat="47.87369" lon="2.10281">
        <ele>164</ele>
        <time>2013-09-29T10:52:48.000Z</time>
      </trkpt>
      <trkpt lat="47.87369" lon="2.10281">
        <ele>164</ele>
        <time>2013-09-29T10:52:50.000Z</time>
      </trkpt>
      <trkpt lat="47.87369" lon="2.10281">
        <ele>164</ele>
        <time>2013-09-29T10:52:52.000Z</time>
      </trkpt>
      <trkpt lat="47.87369" lon="2.10281">
        <ele>164</ele>
        <time>2013-09-29T10:52:55.000Z</time>
      </trkpt>
      <trkpt lat="47.87369" lon="2.10281">
        <ele>164</ele>
        <time>2013-09-29T10:52:56.000Z</time>
      </trkpt>
      <trkpt lat="47.8736" lon="2.10349">
        <ele>171</ele>
        <time>2013-09-29T10:52:58.000Z</time>
      </trkpt>
      <trkpt lat="47.87362" lon="2.10378">
        <ele>170</ele>
        <time>2013-09-29T10:53:03.000Z</time>
      </trkpt>
      <trkpt lat="47.87362" lon="2.104">
        <ele>170</ele>
        <time>2013-09-29T10:53:07.000Z</time>
      </trkpt>
      <trkpt lat="47.87362" lon="2.104">
        <ele>170</ele>
        <time>2013-09-29T10:53:08.000Z</time>
      </trkpt>
      <trkpt lat="47.87363" lon="2.1042">
        <ele>169</ele>
        <time>2013-09-29T10:53:11.000Z</time>
      </trkpt>
      <trkpt lat="47.87363" lon="2.1042">
        <ele>169</ele>
        <time>2013-09-29T10:53:12.000Z</time>
      </trkpt>
      <trkpt lat="47.87363" lon="2.1042">
        <ele>169</ele>
        <time>2013-09-29T10:53:15.000Z</time>
      </trkpt>
      <trkpt lat="47.87363" lon="2.1042">
        <ele>169</ele>
        <time>2013-09-29T10:53:18.000Z</time>
      </trkpt>
      <trkpt lat="47.8737" lon="2.10477">
        <ele>162</ele>
        <time>2013-09-29T10:53:21.000Z</time>
      </trkpt>
      <trkpt lat="47.87372" lon="2.10496">
        <ele>161</ele>
        <time>2013-09-29T10:53:25.000Z</time>
      </trkpt>
      <trkpt lat="47.87372" lon="2.10496">
        <ele>161</ele>
        <time>2013-09-29T10:53:26.000Z</time>
      </trkpt>
      <trkpt lat="47.87372" lon="2.10496">
        <ele>161</ele>
        <time>2013-09-29T10:53:29.000Z</time>
      </trkpt>
      <trkpt lat="47.87372" lon="2.10496">
        <ele>161</ele>
        <time>2013-09-29T10:53:30.000Z</time>
      </trkpt>
      <trkpt lat="47.87369" lon="2.10558">
        <ele>156</ele>
        <time>2013-09-29T10:53:37.000Z</time>
      </trkpt>
      <trkpt lat="47.87365" lon="2.10575">
        <ele>156</ele>
        <time>2013-09-29T10:53:41.000Z</time>
      </trkpt>
      <trkpt lat="47.87365" lon="2.10575">
        <ele>156</ele>
        <time>2013-09-29T10:53:43.000Z</time>
      </trkpt>
      <trkpt lat="47.87362" lon="2.10599">
        <ele>155</ele>
        <time>2013-09-29T10:53:45.000Z</time>
      </trkpt>
      <trkpt lat="47.87358" lon="2.1062">
        <ele>156</ele>
        <time>2013-09-29T10:53:49.000Z</time>
      </trkpt>
      <trkpt lat="47.87356" lon="2.10644">
        <ele>156</ele>
        <time>2013-09-29T10:53:53.000Z</time>
      </trkpt>
      <trkpt lat="47.87356" lon="2.10644">
        <ele>156</ele>
        <time>2013-09-29T10:53:54.000Z</time>
      </trkpt>
      <trkpt lat="47.87356" lon="2.10644">
        <ele>156</ele>
        <time>2013-09-29T10:53:57.000Z</time>
      </trkpt>
      <trkpt lat="47.87356" lon="2.10644">
        <ele>156</ele>
        <time>2013-09-29T10:53:58.000Z</time>
      </trkpt>
      <trkpt lat="47.87356" lon="2.10644">
        <ele>156</ele>
        <time>2013-09-29T10:54:00.000Z</time>
      </trkpt>
      <trkpt lat="47.87356" lon="2.10644">
        <ele>156</ele>
        <time>2013-09-29T10:54:02.000Z</time>
      </trkpt>
      <trkpt lat="47.87356" lon="2.10644">
        <ele>156</ele>
        <time>2013-09-29T10:54:05.000Z</time>
      </trkpt>
      <trkpt lat="47.87356" lon="2.10644">
        <ele>156</ele>
        <time>2013-09-29T10:54:06.000Z</time>
      </trkpt>
      <trkpt lat="47.87356" lon="2.10644">
        <ele>156</ele>
        <time>2013-09-29T10:54:08.000Z</time>
      </trkpt>
      <trkpt lat="47.87356" lon="2.10644">
        <ele>156</ele>
        <time>2013-09-29T10:54:10.000Z</time>
      </trkpt>
      <trkpt lat="47.87356" lon="2.10644">
        <ele>156</ele>
        <time>2013-09-29T10:54:12.000Z</time>
      </trkpt>
      <trkpt lat="47.87365" lon="2.10691">
        <ele>161</ele>
        <time>2013-09-29T10:54:17.000Z</time>
      </trkpt>
      <trkpt lat="47.87373" lon="2.10717">
        <ele>161</ele>
        <time>2013-09-29T10:54:18.000Z</time>
      </trkpt>
      <trkpt lat="47.87379" lon="2.10732">
        <ele>162</ele>
        <time>2013-09-29T10:54:22.000Z</time>
      </trkpt>
      <trkpt lat="47.87379" lon="2.10732">
        <ele>162</ele>
        <time>2013-09-29T10:54:23.000Z</time>
      </trkpt>
      <trkpt lat="47.87379" lon="2.10732">
        <ele>162</ele>
        <time>2013-09-29T10:54:26.000Z</time>
      </trkpt>
      <trkpt lat="47.87379" lon="2.10732">
        <ele>162</ele>
        <time>2013-09-29T10:54:27.000Z</time>
      </trkpt>
      <trkpt lat="47.87379" lon="2.10732">
        <ele>162</ele>
        <time>2013-09-29T10:54:30.000Z</time>
      </trkpt>
      <trkpt lat="47.87379" lon="2.10732">
        <ele>162</ele>
        <time>2013-09-29T10:54:31.000Z</time>
      </trkpt>
      <trkpt lat="47.87379" lon="2.10732">
        <ele>162</ele>
        <time>2013-09-29T10:54:34.000Z</time>
      </trkpt>
      <trkpt lat="47.87407" lon="2.10762">
        <ele>170</ele>
        <time>2013-09-29T10:55:19.000Z</time>
      </trkpt>
      <trkpt lat="47.87407" lon="2.10762">
        <ele>170</ele>
        <time>2013-09-29T10:55:23.000Z</time>
      </trkpt>
      <trkpt lat="47.87421" lon="2.10774">
        <ele>174</ele>
        <time>2013-09-29T10:55:24.000Z</time>
      </trkpt>
      <trkpt lat="47.8743" lon="2.1078">
        <ele>176</ele>
        <time>2013-09-29T10:55:29.000Z</time>
      </trkpt>
      <trkpt lat="47.8743" lon="2.1078">
        <ele>176</ele>
        <time>2013-09-29T10:55:30.000Z</time>
      </trkpt>
      <trkpt lat="47.8743" lon="2.1078">
        <ele>176</ele>
        <time>2013-09-29T10:55:32.000Z</time>
      </trkpt>
      <trkpt lat="47.8743" lon="2.1078">
        <ele>176</ele>
        <time>2013-09-29T10:55:35.000Z</time>
      </trkpt>
      <trkpt lat="47.8743" lon="2.1078">
        <ele>176</ele>
        <time>2013-09-29T10:55:36.000Z</time>
      </trkpt>
      <trkpt lat="47.87461" lon="2.10799">
        <ele>175</ele>
        <time>2013-09-29T10:55:41.000Z</time>
      </trkpt>
      <trkpt lat="47.87468" lon="2.10806">
        <ele>175</ele>
        <time>2013-09-29T10:55:42.000Z</time>
      </trkpt>
      <trkpt lat="47.87482" lon="2.10815">
        <ele>174</ele>
        <time>2013-09-29T10:55:47.000Z</time>
      </trkpt>
      <trkpt lat="47.87493" lon="2.10823">
        <ele>174</ele>
        <time>2013-09-29T10:55:51.000Z</time>
      </trkpt>
      <trkpt lat="47.87493" lon="2.10823">
        <ele>174</ele>
        <time>2013-09-29T10:55:52.000Z</time>
      </trkpt>
      <trkpt lat="47.87493" lon="2.10823">
        <ele>174</ele>
        <time>2013-09-29T10:55:54.000Z</time>
      </trkpt>
      <trkpt lat="47.87493" lon="2.10823">
        <ele>174</ele>
        <time>2013-09-29T10:55:56.000Z</time>
      </trkpt>
      <trkpt lat="47.8752" lon="2.10845">
        <ele>176</ele>
        <time>2013-09-29T10:55:58.000Z</time>
      </trkpt>
      <trkpt lat="47.87529" lon="2.10851">
        <ele>173</ele>
        <time>2013-09-29T10:56:00.000Z</time>
      </trkpt>
      <trkpt lat="47.87544" lon="2.10865">
        <ele>173</ele>
        <time>2013-09-29T10:56:05.000Z</time>
      </trkpt>
      <trkpt lat="47.87552" lon="2.10873">
        <ele>173</ele>
        <time>2013-09-29T10:56:07.000Z</time>
      </trkpt>
      <trkpt lat="47.87561" lon="2.1088">
        <ele>171</ele>
        <time>2013-09-29T10:56:09.000Z</time>
      </trkpt>
      <trkpt lat="47.8757" lon="2.10888">
        <ele>167</ele>
        <time>2013-09-29T10:56:10.000Z</time>
      </trkpt>
      <trkpt lat="47.87585" lon="2.10898">
        <ele>165</ele>
        <time>2013-09-29T10:56:15.000Z</time>
      </trkpt>
      <trkpt lat="47.87595" lon="2.10906">
        <ele>164</ele>
        <time>2013-09-29T10:56:16.000Z</time>
      </trkpt>
      <trkpt lat="47.87595" lon="2.10906">
        <ele>164</ele>
        <time>2013-09-29T10:56:19.000Z</time>
      </trkpt>
      <trkpt lat="47.87595" lon="2.10906">
        <ele>164</ele>
        <time>2013-09-29T10:56:20.000Z</time>
      </trkpt>
      <trkpt lat="47.87595" lon="2.10906">
        <ele>164</ele>
        <time>2013-09-29T10:56:23.000Z</time>
      </trkpt>
      <trkpt lat="47.87595" lon="2.10906">
        <ele>164</ele>
        <time>2013-09-29T10:56:24.000Z</time>
      </trkpt>
      <trkpt lat="47.87595" lon="2.10906">
        <ele>164</ele>
        <time>2013-09-29T10:56:27.000Z</time>
      </trkpt>
      <trkpt lat="47.87595" lon="2.10906">
        <ele>164</ele>
        <time>2013-09-29T10:56:28.000Z</time>
      </trkpt>
      <trkpt lat="47.87595" lon="2.10906">
        <ele>164</ele>
        <time>2013-09-29T10:56:31.000Z</time>
      </trkpt>
      <trkpt lat="47.87595" lon="2.10906">
        <ele>164</ele>
        <time>2013-09-29T10:56:32.000Z</time>
      </trkpt>
      <trkpt lat="47.87595" lon="2.10906">
        <ele>164</ele>
        <time>2013-09-29T10:56:35.000Z</time>
      </trkpt>
      <trkpt lat="47.87595" lon="2.10906">
        <ele>164</ele>
        <time>2013-09-29T10:56:36.000Z</time>
      </trkpt>
      <trkpt lat="47.87595" lon="2.10906">
        <ele>164</ele>
        <time>2013-09-29T10:56:38.000Z</time>
      </trkpt>
      <trkpt lat="47.87595" lon="2.10906">
        <ele>164</ele>
        <time>2013-09-29T10:56:41.000Z</time>
      </trkpt>
      <trkpt lat="47.87595" lon="2.10906">
        <ele>164</ele>
        <time>2013-09-29T10:56:42.000Z</time>
      </trkpt>
      <trkpt lat="47.87595" lon="2.10906">
        <ele>164</ele>
        <time>2013-09-29T10:56:44.000Z</time>
      </trkpt>
      <trkpt lat="47.87616" lon="2.10942">
        <ele>163</ele>
        <time>2013-09-29T10:56:51.000Z</time>
      </trkpt>
      <trkpt lat="47.87627" lon="2.10963">
        <ele>162</ele>
        <time>2013-09-29T10:56:52.000Z</time>
      </trkpt>
      <trkpt lat="47.87633" lon="2.10976">
        <ele>162</ele>
        <time>2013-09-29T10:56:54.000Z</time>
      </trkpt>
      <trkpt lat="47.87635" lon="2.10985">
        <ele>162</ele>
        <time>2013-09-29T10:56:56.000Z</time>
      </trkpt>
      <trkpt lat="47.87635" lon="2.10985">
        <ele>162</ele>
        <time>2013-09-29T10:56:58.000Z</time>
      </trkpt>
      <trkpt lat="47.87635" lon="2.10985">
        <ele>162</ele>
        <time>2013-09-29T10:57:00.000Z</time>
      </trkpt>
      <trkpt lat="47.87634" lon="2.10998">
        <ele>164</ele>
        <time>2013-09-29T10:57:05.000Z</time>
      </trkpt>
      <trkpt lat="47.87632" lon="2.11008">
        <ele>165</ele>
        <time>2013-09-29T10:57:06.000Z</time>
      </trkpt>
      <trkpt lat="47.8763" lon="2.11015">
        <ele>166</ele>
        <time>2013-09-29T10:57:09.000Z</time>
      </trkpt>
      <trkpt lat="47.87629" lon="2.11022">
        <ele>168</ele>
        <time>2013-09-29T10:57:10.000Z</time>
      </trkpt>
      <trkpt lat="47.87627" lon="2.11029">
        <ele>168</ele>
        <time>2013-09-29T10:57:13.000Z</time>
      </trkpt>
      <trkpt lat="47.87624" lon="2.11043">
        <ele>168</ele>
        <time>2013-09-29T10:57:14.000Z</time>
      </trkpt>
      <trkpt lat="47.87623" lon="2.11058">
        <ele>168</ele>
        <time>2013-09-29T10:57:19.000Z</time>
      </trkpt>
      <trkpt lat="47.8762" lon="2.11072">
        <ele>169</ele>
        <time>2013-09-29T10:57:23.000Z</time>
      </trkpt>
      <trkpt lat="47.87615" lon="2.11093">
        <ele>169</ele>
        <time>2013-09-29T10:57:27.000Z</time>
      </trkpt>
      <trkpt lat="47.87611" lon="2.11115">
        <ele>167</ele>
        <time>2013-09-29T10:57:31.000Z</time>
      </trkpt>
      <trkpt lat="47.87608" lon="2.11134">
        <ele>166</ele>
        <time>2013-09-29T10:57:35.000Z</time>
      </trkpt>
      <trkpt lat="47.87608" lon="2.11134">
        <ele>166</ele>
        <time>2013-09-29T10:57:36.000Z</time>
      </trkpt>
      <trkpt lat="47.87608" lon="2.11134">
        <ele>166</ele>
        <time>2013-09-29T10:57:39.000Z</time>
      </trkpt>
      <trkpt lat="47.87599" lon="2.11179">
        <ele>166</ele>
        <time>2013-09-29T10:57:43.000Z</time>
      </trkpt>
      <trkpt lat="47.87595" lon="2.11204">
        <ele>166</ele>
        <time>2013-09-29T10:57:47.000Z</time>
      </trkpt>
      <trkpt lat="47.87591" lon="2.11228">
        <ele>165</ele>
        <time>2013-09-29T10:57:51.000Z</time>
      </trkpt>
      <trkpt lat="47.87588" lon="2.11249">
        <ele>166</ele>
        <time>2013-09-29T10:57:55.000Z</time>
      </trkpt>
      <trkpt lat="47.87588" lon="2.11249">
        <ele>166</ele>
        <time>2013-09-29T10:57:56.000Z</time>
      </trkpt>
      <trkpt lat="47.87588" lon="2.11249">
        <ele>166</ele>
        <time>2013-09-29T10:57:58.000Z</time>
      </trkpt>
      <trkpt lat="47.87588" lon="2.11249">
        <ele>166</ele>
        <time>2013-09-29T10:58:00.000Z</time>
      </trkpt>
      <trkpt lat="47.87588" lon="2.11249">
        <ele>166</ele>
        <time>2013-09-29T10:58:02.000Z</time>
      </trkpt>
      <trkpt lat="47.87574" lon="2.11321">
        <ele>162</ele>
        <time>2013-09-29T10:58:07.000Z</time>
      </trkpt>
      <trkpt lat="47.87572" lon="2.11347">
        <ele>159</ele>
        <time>2013-09-29T10:58:11.000Z</time>
      </trkpt>
      <trkpt lat="47.87568" lon="2.1137">
        <ele>159</ele>
        <time>2013-09-29T10:58:15.000Z</time>
      </trkpt>
      <trkpt lat="47.87568" lon="2.1137">
        <ele>159</ele>
        <time>2013-09-29T10:58:16.000Z</time>
      </trkpt>
      <trkpt lat="47.87568" lon="2.1137">
        <ele>159</ele>
        <time>2013-09-29T10:58:18.000Z</time>
      </trkpt>
      <trkpt lat="47.87568" lon="2.1137">
        <ele>159</ele>
        <time>2013-09-29T10:58:21.000Z</time>
      </trkpt>
      <trkpt lat="47.87568" lon="2.1137">
        <ele>159</ele>
        <time>2013-09-29T10:58:22.000Z</time>
      </trkpt>
      <trkpt lat="47.87568" lon="2.1137">
        <ele>159</ele>
        <time>2013-09-29T10:58:25.000Z</time>
      </trkpt>
      <trkpt lat="47.87549" lon="2.11453">
        <ele>167</ele>
        <time>2013-09-29T10:58:31.000Z</time>
      </trkpt>
      <trkpt lat="47.87548" lon="2.11469">
        <ele>166</ele>
        <time>2013-09-29T10:58:35.000Z</time>
      </trkpt>
      <trkpt lat="47.87548" lon="2.11469">
        <ele>166</ele>
        <time>2013-09-29T10:58:36.000Z</time>
      </trkpt>
      <trkpt lat="47.87548" lon="2.11469">
        <ele>166</ele>
        <time>2013-09-29T10:58:39.000Z</time>
      </trkpt>
      <trkpt lat="47.87548" lon="2.11469">
        <ele>166</ele>
        <time>2013-09-29T10:58:41.000Z</time>
      </trkpt>
      <trkpt lat="47.87548" lon="2.11469">
        <ele>166</ele>
        <time>2013-09-29T10:58:42.000Z</time>
      </trkpt>
      <trkpt lat="47.87548" lon="2.11469">
        <ele>166</ele>
        <time>2013-09-29T10:58:45.000Z</time>
      </trkpt>
      <trkpt lat="47.87543" lon="2.11484">
        <ele>169</ele>
        <time>2013-09-29T10:59:35.000Z</time>
      </trkpt>
      <trkpt lat="47.87537" lon="2.11498">
        <ele>170</ele>
        <time>2013-09-29T10:59:39.000Z</time>
      </trkpt>
      <trkpt lat="47.87539" lon="2.11512">
        <ele>169</ele>
        <time>2013-09-29T10:59:40.000Z</time>
      </trkpt>
      <trkpt lat="47.87531" lon="2.1153">
        <ele>171</ele>
        <time>2013-09-29T10:59:45.000Z</time>
      </trkpt>
      <trkpt lat="47.87525" lon="2.11559">
        <ele>169</ele>
        <time>2013-09-29T10:59:48.000Z</time>
      </trkpt>
      <trkpt lat="47.87522" lon="2.11579">
        <ele>168</ele>
        <time>2013-09-29T10:59:49.000Z</time>
      </trkpt>
      <trkpt lat="47.87518" lon="2.11598">
        <ele>166</ele>
        <time>2013-09-29T10:59:52.000Z</time>
      </trkpt>
      <trkpt lat="47.87513" lon="2.11619">
        <ele>165</ele>
        <time>2013-09-29T10:59:53.000Z</time>
      </trkpt>
      <trkpt lat="47.87508" lon="2.11638">
        <ele>165</ele>
        <time>2013-09-29T10:59:56.000Z</time>
      </trkpt>
      <trkpt lat="47.87504" lon="2.11662">
        <ele>165</ele>
        <time>2013-09-29T10:59:57.000Z</time>
      </trkpt>
      <trkpt lat="47.875" lon="2.1168">
        <ele>165</ele>
        <time>2013-09-29T11:00:00.000Z</time>
      </trkpt>
      <trkpt lat="47.87495" lon="2.11702">
        <ele>163</ele>
        <time>2013-09-29T11:00:01.000Z</time>
      </trkpt>
      <trkpt lat="47.8749" lon="2.11728">
        <ele>163</ele>
        <time>2013-09-29T11:00:04.000Z</time>
      </trkpt>
      <trkpt lat="47.87487" lon="2.11751">
        <ele>163</ele>
        <time>2013-09-29T11:00:05.000Z</time>
      </trkpt>
      <trkpt lat="47.87481" lon="2.11772">
        <ele>163</ele>
        <time>2013-09-29T11:00:07.000Z</time>
      </trkpt>
      <trkpt lat="47.87473" lon="2.11794">
        <ele>163</ele>
        <time>2013-09-29T11:00:10.000Z</time>
      </trkpt>
      <trkpt lat="47.87469" lon="2.11815">
        <ele>163</ele>
        <time>2013-09-29T11:00:12.000Z</time>
      </trkpt>
      <trkpt lat="47.87463" lon="2.11838">
        <ele>162</ele>
        <time>2013-09-29T11:00:14.000Z</time>
      </trkpt>
      <trkpt lat="47.8746" lon="2.11861">
        <ele>161</ele>
        <time>2013-09-29T11:00:15.000Z</time>
      </trkpt>
      <trkpt lat="47.87456" lon="2.11885">
        <ele>159</ele>
        <time>2013-09-29T11:00:17.000Z</time>
      </trkpt>
      <trkpt lat="47.87452" lon="2.11906">
        <ele>159</ele>
        <time>2013-09-29T11:00:20.000Z</time>
      </trkpt>
      <trkpt lat="47.87446" lon="2.11924">
        <ele>159</ele>
        <time>2013-09-29T11:00:21.000Z</time>
      </trkpt>
      <trkpt lat="47.87442" lon="2.11941">
        <ele>159</ele>
        <time>2013-09-29T11:00:24.000Z</time>
      </trkpt>
      <trkpt lat="47.87436" lon="2.11963">
        <ele>160</ele>
        <time>2013-09-29T11:00:25.000Z</time>
      </trkpt>
      <trkpt lat="47.87432" lon="2.11983">
        <ele>160</ele>
        <time>2013-09-29T11:00:28.000Z</time>
      </trkpt>
      <trkpt lat="47.87427" lon="2.12003">
        <ele>159</ele>
        <time>2013-09-29T11:00:29.000Z</time>
      </trkpt>
      <trkpt lat="47.8742" lon="2.12023">
        <ele>160</ele>
        <time>2013-09-29T11:00:32.000Z</time>
      </trkpt>
      <trkpt lat="47.87417" lon="2.12039">
        <ele>160</ele>
        <time>2013-09-29T11:00:33.000Z</time>
      </trkpt>
      <trkpt lat="47.87414" lon="2.12054">
        <ele>161</ele>
        <time>2013-09-29T11:00:36.000Z</time>
      </trkpt>
      <trkpt lat="47.87414" lon="2.12054">
        <ele>161</ele>
        <time>2013-09-29T11:00:38.000Z</time>
      </trkpt>
      <trkpt lat="47.87414" lon="2.12054">
        <ele>161</ele>
        <time>2013-09-29T11:00:41.000Z</time>
      </trkpt>
      <trkpt lat="47.87414" lon="2.12054">
        <ele>161</ele>
        <time>2013-09-29T11:00:42.000Z</time>
      </trkpt>
      <trkpt lat="47.87414" lon="2.12054">
        <ele>161</ele>
        <time>2013-09-29T11:00:45.000Z</time>
      </trkpt>
      <trkpt lat="47.87414" lon="2.12054">
        <ele>161</ele>
        <time>2013-09-29T11:00:46.000Z</time>
      </trkpt>
      <trkpt lat="47.87414" lon="2.12054">
        <ele>161</ele>
        <time>2013-09-29T11:00:48.000Z</time>
      </trkpt>
      <trkpt lat="47.87405" lon="2.12084">
        <ele>161</ele>
        <time>2013-09-29T11:01:20.000Z</time>
      </trkpt>
      <trkpt lat="47.87405" lon="2.12084">
        <ele>161</ele>
        <time>2013-09-29T11:01:22.000Z</time>
      </trkpt>
      <trkpt lat="47.87405" lon="2.12084">
        <ele>161</ele>
        <time>2013-09-29T11:01:24.000Z</time>
      </trkpt>
      <trkpt lat="47.87405" lon="2.12084">
        <ele>161</ele>
        <time>2013-09-29T11:01:25.000Z</time>
      </trkpt>
      <trkpt lat="47.87395" lon="2.12128">
        <ele>161</ele>
        <time>2013-09-29T11:01:30.000Z</time>
      </trkpt>
      <trkpt lat="47.87389" lon="2.12155">
        <ele>158</ele>
        <time>2013-09-29T11:01:34.000Z</time>
      </trkpt>
      <trkpt lat="47.87385" lon="2.12172">
        <ele>159</ele>
        <time>2013-09-29T11:01:35.000Z</time>
      </trkpt>
      <trkpt lat="47.87379" lon="2.12186">
        <ele>159</ele>
        <time>2013-09-29T11:01:37.000Z</time>
      </trkpt>
      <trkpt lat="47.87374" lon="2.122">
        <ele>160</ele>
        <time>2013-09-29T11:01:39.000Z</time>
      </trkpt>
      <trkpt lat="47.87368" lon="2.12231">
        <ele>160</ele>
        <time>2013-09-29T11:01:43.000Z</time>
      </trkpt>
      <trkpt lat="47.87365" lon="2.12251">
        <ele>160</ele>
        <time>2013-09-29T11:01:44.000Z</time>
      </trkpt>
      <trkpt lat="47.8736" lon="2.12272">
        <ele>161</ele>
        <time>2013-09-29T11:01:47.000Z</time>
      </trkpt>
      <trkpt lat="47.87356" lon="2.1229">
        <ele>161</ele>
        <time>2013-09-29T11:01:48.000Z</time>
      </trkpt>
      <trkpt lat="47.87344" lon="2.12325">
        <ele>160</ele>
        <time>2013-09-29T11:01:53.000Z</time>
      </trkpt>
      <trkpt lat="47.8734" lon="2.12349">
        <ele>160</ele>
        <time>2013-09-29T11:01:54.000Z</time>
      </trkpt>
      <trkpt lat="47.87333" lon="2.12387">
        <ele>160</ele>
        <time>2013-09-29T11:01:59.000Z</time>
      </trkpt>
      <trkpt lat="47.87328" lon="2.12409">
        <ele>160</ele>
        <time>2013-09-29T11:02:00.000Z</time>
      </trkpt>
      <trkpt lat="47.87323" lon="2.12429">
        <ele>159</ele>
        <time>2013-09-29T11:02:03.000Z</time>
      </trkpt>
      <trkpt lat="47.87318" lon="2.12446">
        <ele>160</ele>
        <time>2013-09-29T11:02:04.000Z</time>
      </trkpt>
      <trkpt lat="47.87316" lon="2.12466">
        <ele>160</ele>
        <time>2013-09-29T11:02:06.000Z</time>
      </trkpt>
      <trkpt lat="47.87313" lon="2.12486">
        <ele>161</ele>
        <time>2013-09-29T11:02:08.000Z</time>
      </trkpt>
      <trkpt lat="47.87311" lon="2.12504">
        <ele>160</ele>
        <time>2013-09-29T11:02:10.000Z</time>
      </trkpt>
      <trkpt lat="47.87307" lon="2.12524">
        <ele>161</ele>
        <time>2013-09-29T11:02:12.000Z</time>
      </trkpt>
      <trkpt lat="47.87304" lon="2.12546">
        <ele>161</ele>
        <time>2013-09-29T11:02:15.000Z</time>
      </trkpt>
      <trkpt lat="47.873" lon="2.12564">
        <ele>161</ele>
        <time>2013-09-29T11:02:16.000Z</time>
      </trkpt>
      <trkpt lat="47.87299" lon="2.12579">
        <ele>161</ele>
        <time>2013-09-29T11:02:19.000Z</time>
      </trkpt>
      <trkpt lat="47.87294" lon="2.12593">
        <ele>161</ele>
        <time>2013-09-29T11:02:20.000Z</time>
      </trkpt>
      <trkpt lat="47.87291" lon="2.1261">
        <ele>161</ele>
        <time>2013-09-29T11:02:23.000Z</time>
      </trkpt>
      <trkpt lat="47.87288" lon="2.12628">
        <ele>162</ele>
        <time>2013-09-29T11:02:24.000Z</time>
      </trkpt>
      <trkpt lat="47.87283" lon="2.12642">
        <ele>162</ele>
        <time>2013-09-29T11:02:26.000Z</time>
      </trkpt>
      <trkpt lat="47.87283" lon="2.12642">
        <ele>162</ele>
        <time>2013-09-29T11:02:29.000Z</time>
      </trkpt>
      <trkpt lat="47.87283" lon="2.12642">
        <ele>162</ele>
        <time>2013-09-29T11:02:30.000Z</time>
      </trkpt>
      <trkpt lat="47.87283" lon="2.12642">
        <ele>162</ele>
        <time>2013-09-29T11:02:33.000Z</time>
      </trkpt>
      <trkpt lat="47.87283" lon="2.12642">
        <ele>162</ele>
        <time>2013-09-29T11:02:34.000Z</time>
      </trkpt>
      <trkpt lat="47.87283" lon="2.12642">
        <ele>162</ele>
        <time>2013-09-29T11:02:37.000Z</time>
      </trkpt>
      <trkpt lat="47.87283" lon="2.12642">
        <ele>162</ele>
        <time>2013-09-29T11:02:38.000Z</time>
      </trkpt>
      <trkpt lat="47.87283" lon="2.12642">
        <ele>162</ele>
        <time>2013-09-29T11:02:49.000Z</time>
      </trkpt>
      <trkpt lat="47.87283" lon="2.12642">
        <ele>162</ele>
        <time>2013-09-29T11:02:50.000Z</time>
      </trkpt>
      <trkpt lat="47.87189" lon="2.12655">
        <ele>165</ele>
        <time>2013-09-29T11:02:52.000Z</time>
      </trkpt>
      <trkpt lat="47.87172" lon="2.1265">
        <ele>165</ele>
        <time>2013-09-29T11:02:57.000Z</time>
      </trkpt>
      <trkpt lat="47.87163" lon="2.12646">
        <ele>165</ele>
        <time>2013-09-29T11:02:58.000Z</time>
      </trkpt>
      <trkpt lat="47.87153" lon="2.12643">
        <ele>164</ele>
        <time>2013-09-29T11:03:01.000Z</time>
      </trkpt>
      <trkpt lat="47.87143" lon="2.1264">
        <ele>164</ele>
        <time>2013-09-29T11:03:02.000Z</time>
      </trkpt>
      <trkpt lat="47.87134" lon="2.12636">
        <ele>164</ele>
        <time>2013-09-29T11:03:04.000Z</time>
      </trkpt>
      <trkpt lat="47.87125" lon="2.12631">
        <ele>163</ele>
        <time>2013-09-29T11:03:06.000Z</time>
      </trkpt>
      <trkpt lat="47.87115" lon="2.12627">
        <ele>163</ele>
        <time>2013-09-29T11:03:09.000Z</time>
      </trkpt>
      <trkpt lat="47.87106" lon="2.12622">
        <ele>162</ele>
        <time>2013-09-29T11:03:10.000Z</time>
      </trkpt>
      <trkpt lat="47.87095" lon="2.12617">
        <ele>162</ele>
        <time>2013-09-29T11:03:13.000Z</time>
      </trkpt>
      <trkpt lat="47.87083" lon="2.12611">
        <ele>161</ele>
        <time>2013-09-29T11:03:14.000Z</time>
      </trkpt>
      <trkpt lat="47.8707" lon="2.12603">
        <ele>160</ele>
        <time>2013-09-29T11:03:17.000Z</time>
      </trkpt>
      <trkpt lat="47.87055" lon="2.12597">
        <ele>161</ele>
        <time>2013-09-29T11:03:18.000Z</time>
      </trkpt>
      <trkpt lat="47.8704" lon="2.12591">
        <ele>160</ele>
        <time>2013-09-29T11:03:20.000Z</time>
      </trkpt>
      <trkpt lat="47.87029" lon="2.1258">
        <ele>160</ele>
        <time>2013-09-29T11:03:22.000Z</time>
      </trkpt>
      <trkpt lat="47.87017" lon="2.12572">
        <ele>159</ele>
        <time>2013-09-29T11:03:24.000Z</time>
      </trkpt>
      <trkpt lat="47.87004" lon="2.12564">
        <ele>159</ele>
        <time>2013-09-29T11:03:27.000Z</time>
      </trkpt>
      <trkpt lat="47.86992" lon="2.12557">
        <ele>158</ele>
        <time>2013-09-29T11:03:29.000Z</time>
      </trkpt>
      <trkpt lat="47.86979" lon="2.1255">
        <ele>158</ele>
        <time>2013-09-29T11:03:30.000Z</time>
      </trkpt>
      <trkpt lat="47.86966" lon="2.12542">
        <ele>157</ele>
        <time>2013-09-29T11:03:33.000Z</time>
      </trkpt>
      <trkpt lat="47.86952" lon="2.12534">
        <ele>158</ele>
        <time>2013-09-29T11:03:34.000Z</time>
      </trkpt>
      <trkpt lat="47.86938" lon="2.12527">
        <ele>158</ele>
        <time>2013-09-29T11:03:36.000Z</time>
      </trkpt>
      <trkpt lat="47.86924" lon="2.12519">
        <ele>157</ele>
        <time>2013-09-29T11:03:39.000Z</time>
      </trkpt>
      <trkpt lat="47.86911" lon="2.12511">
        <ele>157</ele>
        <time>2013-09-29T11:03:40.000Z</time>
      </trkpt>
      <trkpt lat="47.86897" lon="2.12503">
        <ele>156</ele>
        <time>2013-09-29T11:03:42.000Z</time>
      </trkpt>
      <trkpt lat="47.86882" lon="2.12495">
        <ele>157</ele>
        <time>2013-09-29T11:03:44.000Z</time>
      </trkpt>
      <trkpt lat="47.86868" lon="2.12487">
        <ele>156</ele>
        <time>2013-09-29T11:03:46.000Z</time>
      </trkpt>
      <trkpt lat="47.86854" lon="2.12479">
        <ele>156</ele>
        <time>2013-09-29T11:03:48.000Z</time>
      </trkpt>
      <trkpt lat="47.8684" lon="2.12471">
        <ele>157</ele>
        <time>2013-09-29T11:03:50.000Z</time>
      </trkpt>
      <trkpt lat="47.86826" lon="2.12463">
        <ele>156</ele>
        <time>2013-09-29T11:03:52.000Z</time>
      </trkpt>
      <trkpt lat="47.86811" lon="2.12455">
        <ele>156</ele>
        <time>2013-09-29T11:03:55.000Z</time>
      </trkpt>
      <trkpt lat="47.86797" lon="2.12447">
        <ele>156</ele>
        <time>2013-09-29T11:03:57.000Z</time>
      </trkpt>
      <trkpt lat="47.86784" lon="2.12439">
        <ele>156</ele>
        <time>2013-09-29T11:03:58.000Z</time>
      </trkpt>
      <trkpt lat="47.86771" lon="2.12432">
        <ele>155</ele>
        <time>2013-09-29T11:04:00.000Z</time>
      </trkpt>
      <trkpt lat="47.8676" lon="2.12425">
        <ele>155</ele>
        <time>2013-09-29T11:04:02.000Z</time>
      </trkpt>
      <trkpt lat="47.8676" lon="2.12425">
        <ele>155</ele>
        <time>2013-09-29T11:04:04.000Z</time>
      </trkpt>
      <trkpt lat="47.8676" lon="2.12425">
        <ele>155</ele>
        <time>2013-09-29T11:04:06.000Z</time>
      </trkpt>
      <trkpt lat="47.8676" lon="2.12425">
        <ele>155</ele>
        <time>2013-09-29T11:04:09.000Z</time>
      </trkpt>
      <trkpt lat="47.8676" lon="2.12425">
        <ele>155</ele>
        <time>2013-09-29T11:04:10.000Z</time>
      </trkpt>
      <trkpt lat="47.8676" lon="2.12425">
        <ele>155</ele>
        <time>2013-09-29T11:04:12.000Z</time>
      </trkpt>
      <trkpt lat="47.8676" lon="2.12425">
        <ele>155</ele>
        <time>2013-09-29T11:04:14.000Z</time>
      </trkpt>
      <trkpt lat="47.8676" lon="2.12425">
        <ele>155</ele>
        <time>2013-09-29T11:04:16.000Z</time>
      </trkpt>
      <trkpt lat="47.8676" lon="2.12425">
        <ele>155</ele>
        <time>2013-09-29T11:04:19.000Z</time>
      </trkpt>
      <trkpt lat="47.8676" lon="2.12425">
        <ele>155</ele>
        <time>2013-09-29T11:04:20.000Z</time>
      </trkpt>
      <trkpt lat="47.8676" lon="2.12425">
        <ele>155</ele>
        <time>2013-09-29T11:04:22.000Z</time>
      </trkpt>
      <trkpt lat="47.86743" lon="2.12446">
        <ele>156</ele>
        <time>2013-09-29T11:04:29.000Z</time>
      </trkpt>
      <trkpt lat="47.86734" lon="2.1246">
        <ele>156</ele>
        <time>2013-09-29T11:04:30.000Z</time>
      </trkpt>
      <trkpt lat="47.86729" lon="2.12471">
        <ele>156</ele>
        <time>2013-09-29T11:04:33.000Z</time>
      </trkpt>
      <trkpt lat="47.86727" lon="2.1248">
        <ele>157</ele>
        <time>2013-09-29T11:04:34.000Z</time>
      </trkpt>
      <trkpt lat="47.86724" lon="2.1249">
        <ele>157</ele>
        <time>2013-09-29T11:04:36.000Z</time>
      </trkpt>
      <trkpt lat="47.86721" lon="2.12509">
        <ele>157</ele>
        <time>2013-09-29T11:04:38.000Z</time>
      </trkpt>
      <trkpt lat="47.86718" lon="2.12528">
        <ele>157</ele>
        <time>2013-09-29T11:04:43.000Z</time>
      </trkpt>
      <trkpt lat="47.86717" lon="2.12552">
        <ele>154</ele>
        <time>2013-09-29T11:04:47.000Z</time>
      </trkpt>
      <trkpt lat="47.86717" lon="2.12552">
        <ele>154</ele>
        <time>2013-09-29T11:04:51.000Z</time>
      </trkpt>
      <trkpt lat="47.86717" lon="2.12552">
        <ele>154</ele>
        <time>2013-09-29T11:04:52.000Z</time>
      </trkpt>
      <trkpt lat="47.86703" lon="2.12597">
        <ele>158</ele>
        <time>2013-09-29T11:04:57.000Z</time>
      </trkpt>
      <trkpt lat="47.86701" lon="2.12613">
        <ele>157</ele>
        <time>2013-09-29T11:04:58.000Z</time>
      </trkpt>
      <trkpt lat="47.86698" lon="2.12629">
        <ele>157</ele>
        <time>2013-09-29T11:05:00.000Z</time>
      </trkpt>
      <trkpt lat="47.86697" lon="2.12644">
        <ele>157</ele>
        <time>2013-09-29T11:05:02.000Z</time>
      </trkpt>
      <trkpt lat="47.86695" lon="2.12658">
        <ele>157</ele>
        <time>2013-09-29T11:05:05.000Z</time>
      </trkpt>
      <trkpt lat="47.86693" lon="2.12672">
        <ele>157</ele>
        <time>2013-09-29T11:05:06.000Z</time>
      </trkpt>
      <trkpt lat="47.86693" lon="2.12672">
        <ele>157</ele>
        <time>2013-09-29T11:05:08.000Z</time>
      </trkpt>
      <trkpt lat="47.86693" lon="2.12672">
        <ele>157</ele>
        <time>2013-09-29T11:05:10.000Z</time>
      </trkpt>
      <trkpt lat="47.86693" lon="2.12672">
        <ele>157</ele>
        <time>2013-09-29T11:05:12.000Z</time>
      </trkpt>
      <trkpt lat="47.86693" lon="2.12672">
        <ele>157</ele>
        <time>2013-09-29T11:05:14.000Z</time>
      </trkpt>
      <trkpt lat="47.86693" lon="2.12672">
        <ele>157</ele>
        <time>2013-09-29T11:05:16.000Z</time>
      </trkpt>
      <trkpt lat="47.86693" lon="2.12672">
        <ele>157</ele>
        <time>2013-09-29T11:05:18.000Z</time>
      </trkpt>
      <trkpt lat="47.86693" lon="2.12672">
        <ele>157</ele>
        <time>2013-09-29T11:05:20.000Z</time>
      </trkpt>
      <trkpt lat="47.86693" lon="2.12672">
        <ele>157</ele>
        <time>2013-09-29T11:05:23.000Z</time>
      </trkpt>
      <trkpt lat="47.86693" lon="2.12672">
        <ele>157</ele>
        <time>2013-09-29T11:05:24.000Z</time>
      </trkpt>
      <trkpt lat="47.86641" lon="2.12802">
        <ele>158</ele>
        <time>2013-09-29T11:05:29.000Z</time>
      </trkpt>
      <trkpt lat="47.86636" lon="2.12814">
        <ele>158</ele>
        <time>2013-09-29T11:05:30.000Z</time>
      </trkpt>
      <trkpt lat="47.86629" lon="2.12825">
        <ele>157</ele>
        <time>2013-09-29T11:05:33.000Z</time>
      </trkpt>
      <trkpt lat="47.86623" lon="2.12837">
        <ele>157</ele>
        <time>2013-09-29T11:05:34.000Z</time>
      </trkpt>
      <trkpt lat="47.86615" lon="2.12848">
        <ele>157</ele>
        <time>2013-09-29T11:05:37.000Z</time>
      </trkpt>
      <trkpt lat="47.86607" lon="2.12859">
        <ele>157</ele>
        <time>2013-09-29T11:05:38.000Z</time>
      </trkpt>
      <trkpt lat="47.86599" lon="2.12871">
        <ele>157</ele>
        <time>2013-09-29T11:05:40.000Z</time>
      </trkpt>
      <trkpt lat="47.86591" lon="2.12882">
        <ele>157</ele>
        <time>2013-09-29T11:05:42.000Z</time>
      </trkpt>
      <trkpt lat="47.86582" lon="2.12893">
        <ele>156</ele>
        <time>2013-09-29T11:05:44.000Z</time>
      </trkpt>
      <trkpt lat="47.86574" lon="2.12904">
        <ele>157</ele>
        <time>2013-09-29T11:05:47.000Z</time>
      </trkpt>
      <trkpt lat="47.86566" lon="2.12914">
        <ele>157</ele>
        <time>2013-09-29T11:05:48.000Z</time>
      </trkpt>
      <trkpt lat="47.86566" lon="2.12914">
        <ele>157</ele>
        <time>2013-09-29T11:05:50.000Z</time>
      </trkpt>
      <trkpt lat="47.86566" lon="2.12914">
        <ele>157</ele>
        <time>2013-09-29T11:05:53.000Z</time>
      </trkpt>
      <trkpt lat="47.86566" lon="2.12914">
        <ele>157</ele>
        <time>2013-09-29T11:05:59.000Z</time>
      </trkpt>
      <trkpt lat="47.86566" lon="2.12914">
        <ele>157</ele>
        <time>2013-09-29T11:06:00.000Z</time>
      </trkpt>
      <trkpt lat="47.86566" lon="2.12914">
        <ele>157</ele>
        <time>2013-09-29T11:06:02.000Z</time>
      </trkpt>
      <trkpt lat="47.86566" lon="2.12914">
        <ele>157</ele>
        <time>2013-09-29T11:06:04.000Z</time>
      </trkpt>
      <trkpt lat="47.86566" lon="2.12914">
        <ele>157</ele>
        <time>2013-09-29T11:06:06.000Z</time>
      </trkpt>
      <trkpt lat="47.86566" lon="2.12914">
        <ele>157</ele>
        <time>2013-09-29T11:06:08.000Z</time>
      </trkpt>
      <trkpt lat="47.86566" lon="2.12914">
        <ele>157</ele>
        <time>2013-09-29T11:06:10.000Z</time>
      </trkpt>
      <trkpt lat="47.86566" lon="2.12914">
        <ele>157</ele>
        <time>2013-09-29T11:06:12.000Z</time>
      </trkpt>
      <trkpt lat="47.86566" lon="2.12914">
        <ele>157</ele>
        <time>2013-09-29T11:06:14.000Z</time>
      </trkpt>
      <trkpt lat="47.86566" lon="2.12914">
        <ele>157</ele>
        <time>2013-09-29T11:06:16.000Z</time>
      </trkpt>
      <trkpt lat="47.86566" lon="2.12914">
        <ele>157</ele>
        <time>2013-09-29T11:06:19.000Z</time>
      </trkpt>
      <trkpt lat="47.86566" lon="2.12914">
        <ele>157</ele>
        <time>2013-09-29T11:06:20.000Z</time>
      </trkpt>
      <trkpt lat="47.86566" lon="2.12914">
        <ele>157</ele>
        <time>2013-09-29T11:06:22.000Z</time>
      </trkpt>
      <trkpt lat="47.86566" lon="2.12914">
        <ele>157</ele>
        <time>2013-09-29T11:06:24.000Z</time>
      </trkpt>
      <trkpt lat="47.86566" lon="2.12914">
        <ele>157</ele>
        <time>2013-09-29T11:06:26.000Z</time>
      </trkpt>
      <trkpt lat="47.86566" lon="2.12914">
        <ele>157</ele>
        <time>2013-09-29T11:06:29.000Z</time>
      </trkpt>
      <trkpt lat="47.86566" lon="2.12914">
        <ele>157</ele>
        <time>2013-09-29T11:06:31.000Z</time>
      </trkpt>
      <trkpt lat="47.86566" lon="2.12914">
        <ele>157</ele>
        <time>2013-09-29T11:06:32.000Z</time>
      </trkpt>
      <trkpt lat="47.86566" lon="2.12914">
        <ele>157</ele>
        <time>2013-09-29T11:06:35.000Z</time>
      </trkpt>
      <trkpt lat="47.86566" lon="2.12914">
        <ele>157</ele>
        <time>2013-09-29T11:06:36.000Z</time>
      </trkpt>
      <trkpt lat="47.86481" lon="2.13033">
        <ele>157</ele>
        <time>2013-09-29T11:06:38.000Z</time>
      </trkpt>
      <trkpt lat="47.86435" lon="2.13098">
        <ele>157</ele>
        <time>2013-09-29T11:06:41.000Z</time>
      </trkpt>
      <trkpt lat="47.86406" lon="2.13134">
        <ele>155</ele>
        <time>2013-09-29T11:06:43.000Z</time>
      </trkpt>
      <trkpt lat="47.86387" lon="2.13157">
        <ele>155</ele>
        <time>2013-09-29T11:06:44.000Z</time>
      </trkpt>
      <trkpt lat="47.86372" lon="2.13173">
        <ele>154</ele>
        <time>2013-09-29T11:06:47.000Z</time>
      </trkpt>
      <trkpt lat="47.86348" lon="2.13198">
        <ele>154</ele>
        <time>2013-09-29T11:06:48.000Z</time>
      </trkpt>
      <trkpt lat="47.8634" lon="2.13207">
        <ele>155</ele>
        <time>2013-09-29T11:06:51.000Z</time>
      </trkpt>
      <trkpt lat="47.86331" lon="2.13215">
        <ele>155</ele>
        <time>2013-09-29T11:06:52.000Z</time>
      </trkpt>
      <trkpt lat="47.86331" lon="2.13215">
        <ele>155</ele>
        <time>2013-09-29T11:06:55.000Z</time>
      </trkpt>
      <trkpt lat="47.86311" lon="2.13229">
        <ele>155</ele>
        <time>2013-09-29T11:06:56.000Z</time>
      </trkpt>
      <trkpt lat="47.863" lon="2.13234">
        <ele>155</ele>
        <time>2013-09-29T11:06:59.000Z</time>
      </trkpt>
      <trkpt lat="47.86288" lon="2.13239">
        <ele>155</ele>
        <time>2013-09-29T11:07:00.000Z</time>
      </trkpt>
      <trkpt lat="47.86277" lon="2.13246">
        <ele>154</ele>
        <time>2013-09-29T11:07:03.000Z</time>
      </trkpt>
      <trkpt lat="47.86266" lon="2.1325">
        <ele>154</ele>
        <time>2013-09-29T11:07:04.000Z</time>
      </trkpt>
      <trkpt lat="47.86254" lon="2.13253">
        <ele>154</ele>
        <time>2013-09-29T11:07:06.000Z</time>
      </trkpt>
      <trkpt lat="47.86242" lon="2.13257">
        <ele>153</ele>
        <time>2013-09-29T11:07:08.000Z</time>
      </trkpt>
      <trkpt lat="47.8623" lon="2.13262">
        <ele>153</ele>
        <time>2013-09-29T11:07:11.000Z</time>
      </trkpt>
      <trkpt lat="47.86219" lon="2.13267">
        <ele>152</ele>
        <time>2013-09-29T11:07:12.000Z</time>
      </trkpt>
      <trkpt lat="47.86206" lon="2.13272">
        <ele>152</ele>
        <time>2013-09-29T11:07:14.000Z</time>
      </trkpt>
      <trkpt lat="47.86195" lon="2.13277">
        <ele>152</ele>
        <time>2013-09-29T11:07:17.000Z</time>
      </trkpt>
      <trkpt lat="47.86184" lon="2.13283">
        <ele>152</ele>
        <time>2013-09-29T11:07:18.000Z</time>
      </trkpt>
      <trkpt lat="47.86173" lon="2.13287">
        <ele>153</ele>
        <time>2013-09-29T11:07:20.000Z</time>
      </trkpt>
      <trkpt lat="47.86163" lon="2.13288">
        <ele>153</ele>
        <time>2013-09-29T11:07:22.000Z</time>
      </trkpt>
      <trkpt lat="47.86151" lon="2.13292">
        <ele>152</ele>
        <time>2013-09-29T11:07:24.000Z</time>
      </trkpt>
      <trkpt lat="47.86139" lon="2.13295">
        <ele>152</ele>
        <time>2013-09-29T11:07:26.000Z</time>
      </trkpt>
      <trkpt lat="47.86126" lon="2.13299">
        <ele>152</ele>
        <time>2013-09-29T11:07:28.000Z</time>
      </trkpt>
      <trkpt lat="47.86113" lon="2.13302">
        <ele>152</ele>
        <time>2013-09-29T11:07:30.000Z</time>
      </trkpt>
      <trkpt lat="47.861" lon="2.13303">
        <ele>151</ele>
        <time>2013-09-29T11:07:32.000Z</time>
      </trkpt>
      <trkpt lat="47.8609" lon="2.13304">
        <ele>152</ele>
        <time>2013-09-29T11:07:35.000Z</time>
      </trkpt>
      <trkpt lat="47.86078" lon="2.13306">
        <ele>152</ele>
        <time>2013-09-29T11:07:36.000Z</time>
      </trkpt>
      <trkpt lat="47.86078" lon="2.13306">
        <ele>152</ele>
        <time>2013-09-29T11:07:40.000Z</time>
      </trkpt>
      <trkpt lat="47.86078" lon="2.13306">
        <ele>152</ele>
        <time>2013-09-29T11:07:41.000Z</time>
      </trkpt>
      <trkpt lat="47.86078" lon="2.13306">
        <ele>152</ele>
        <time>2013-09-29T11:07:44.000Z</time>
      </trkpt>
      <trkpt lat="47.86078" lon="2.13306">
        <ele>152</ele>
        <time>2013-09-29T11:07:45.000Z</time>
      </trkpt>
      <trkpt lat="47.86078" lon="2.13306">
        <ele>152</ele>
        <time>2013-09-29T11:07:48.000Z</time>
      </trkpt>
      <trkpt lat="47.86078" lon="2.13306">
        <ele>152</ele>
        <time>2013-09-29T11:07:49.000Z</time>
      </trkpt>
      <trkpt lat="47.86078" lon="2.13306">
        <ele>152</ele>
        <time>2013-09-29T11:07:52.000Z</time>
      </trkpt>
      <trkpt lat="47.86078" lon="2.13306">
        <ele>152</ele>
        <time>2013-09-29T11:07:53.000Z</time>
      </trkpt>
      <trkpt lat="47.8606" lon="2.13309">
        <ele>151</ele>
        <time>2013-09-29T11:08:10.000Z</time>
      </trkpt>
      <trkpt lat="47.8604" lon="2.13313">
        <ele>153</ele>
        <time>2013-09-29T11:08:55.000Z</time>
      </trkpt>
      <trkpt lat="47.86021" lon="2.13318">
        <ele>153</ele>
        <time>2013-09-29T11:09:00.000Z</time>
      </trkpt>
      <trkpt lat="47.8601" lon="2.13322">
        <ele>152</ele>
        <time>2013-09-29T11:09:01.000Z</time>
      </trkpt>
      <trkpt lat="47.86" lon="2.13324">
        <ele>153</ele>
        <time>2013-09-29T11:09:04.000Z</time>
      </trkpt>
      <trkpt lat="47.86" lon="2.13324">
        <ele>153</ele>
        <time>2013-09-29T11:09:05.000Z</time>
      </trkpt>
      <trkpt lat="47.86" lon="2.13324">
        <ele>153</ele>
        <time>2013-09-29T11:09:08.000Z</time>
      </trkpt>
      <trkpt lat="47.86" lon="2.13324">
        <ele>153</ele>
        <time>2013-09-29T11:09:09.000Z</time>
      </trkpt>
      <trkpt lat="47.86" lon="2.13324">
        <ele>153</ele>
        <time>2013-09-29T11:09:12.000Z</time>
      </trkpt>
      <trkpt lat="47.86" lon="2.13324">
        <ele>153</ele>
        <time>2013-09-29T11:09:15.000Z</time>
      </trkpt>
      <trkpt lat="47.86" lon="2.13324">
        <ele>153</ele>
        <time>2013-09-29T11:09:17.000Z</time>
      </trkpt>
      <trkpt lat="47.85985" lon="2.1331">
        <ele>152</ele>
        <time>2013-09-29T11:11:51.000Z</time>
      </trkpt>
      <trkpt lat="47.85976" lon="2.13302">
        <ele>151</ele>
        <time>2013-09-29T11:11:54.000Z</time>
      </trkpt>
      <trkpt lat="47.85963" lon="2.13294">
        <ele>152</ele>
        <time>2013-09-29T11:11:58.000Z</time>
      </trkpt>
      <trkpt lat="47.85952" lon="2.13282">
        <ele>153</ele>
        <time>2013-09-29T11:12:02.000Z</time>
      </trkpt>
      <trkpt lat="47.85939" lon="2.13265">
        <ele>152</ele>
        <time>2013-09-29T11:12:06.000Z</time>
      </trkpt>
      <trkpt lat="47.85925" lon="2.13247">
        <ele>152</ele>
        <time>2013-09-29T11:12:10.000Z</time>
      </trkpt>
      <trkpt lat="47.85917" lon="2.13239">
        <ele>152</ele>
        <time>2013-09-29T11:12:11.000Z</time>
      </trkpt>
      <trkpt lat="47.85908" lon="2.13231">
        <ele>152</ele>
        <time>2013-09-29T11:12:14.000Z</time>
      </trkpt>
      <trkpt lat="47.859" lon="2.13223">
        <ele>152</ele>
        <time>2013-09-29T11:12:15.000Z</time>
      </trkpt>
      <trkpt lat="47.85893" lon="2.13214">
        <ele>153</ele>
        <time>2013-09-29T11:12:17.000Z</time>
      </trkpt>
      <trkpt lat="47.85884" lon="2.13206">
        <ele>153</ele>
        <time>2013-09-29T11:12:20.000Z</time>
      </trkpt>
      <trkpt lat="47.85876" lon="2.13194">
        <ele>153</ele>
        <time>2013-09-29T11:12:21.000Z</time>
      </trkpt>
      <trkpt lat="47.85868" lon="2.13188">
        <ele>153</ele>
        <time>2013-09-29T11:12:24.000Z</time>
      </trkpt>
      <trkpt lat="47.85859" lon="2.13178">
        <ele>153</ele>
        <time>2013-09-29T11:12:25.000Z</time>
      </trkpt>
      <trkpt lat="47.85851" lon="2.13169">
        <ele>152</ele>
        <time>2013-09-29T11:12:28.000Z</time>
      </trkpt>
      <trkpt lat="47.85843" lon="2.1316">
        <ele>153</ele>
        <time>2013-09-29T11:12:29.000Z</time>
      </trkpt>
      <trkpt lat="47.85834" lon="2.1315">
        <ele>153</ele>
        <time>2013-09-29T11:12:31.000Z</time>
      </trkpt>
      <trkpt lat="47.85826" lon="2.13142">
        <ele>153</ele>
        <time>2013-09-29T11:12:33.000Z</time>
      </trkpt>
      <trkpt lat="47.85819" lon="2.13132">
        <ele>153</ele>
        <time>2013-09-29T11:12:36.000Z</time>
      </trkpt>
      <trkpt lat="47.8581" lon="2.13123">
        <ele>153</ele>
        <time>2013-09-29T11:12:37.000Z</time>
      </trkpt>
      <trkpt lat="47.858" lon="2.13115">
        <ele>152</ele>
        <time>2013-09-29T11:12:39.000Z</time>
      </trkpt>
      <trkpt lat="47.85792" lon="2.13105">
        <ele>152</ele>
        <time>2013-09-29T11:12:41.000Z</time>
      </trkpt>
      <trkpt lat="47.85784" lon="2.13097">
        <ele>153</ele>
        <time>2013-09-29T11:12:44.000Z</time>
      </trkpt>
      <trkpt lat="47.85776" lon="2.13087">
        <ele>153</ele>
        <time>2013-09-29T11:12:45.000Z</time>
      </trkpt>
      <trkpt lat="47.85768" lon="2.13078">
        <ele>152</ele>
        <time>2013-09-29T11:12:48.000Z</time>
      </trkpt>
      <trkpt lat="47.8576" lon="2.13068">
        <ele>152</ele>
        <time>2013-09-29T11:12:49.000Z</time>
      </trkpt>
      <trkpt lat="47.85752" lon="2.13061">
        <ele>152</ele>
        <time>2013-09-29T11:12:52.000Z</time>
      </trkpt>
      <trkpt lat="47.85752" lon="2.13061">
        <ele>152</ele>
        <time>2013-09-29T11:12:53.000Z</time>
      </trkpt>
      <trkpt lat="47.85752" lon="2.13061">
        <ele>152</ele>
        <time>2013-09-29T11:12:56.000Z</time>
      </trkpt>
      <trkpt lat="47.85718" lon="2.13025">
        <ele>152</ele>
        <time>2013-09-29T11:13:00.000Z</time>
      </trkpt>
      <trkpt lat="47.85711" lon="2.13016">
        <ele>151</ele>
        <time>2013-09-29T11:13:01.000Z</time>
      </trkpt>
      <trkpt lat="47.857" lon="2.1301">
        <ele>153</ele>
        <time>2013-09-29T11:13:04.000Z</time>
      </trkpt>
      <trkpt lat="47.857" lon="2.1301">
        <ele>153</ele>
        <time>2013-09-29T11:13:05.000Z</time>
      </trkpt>
      <trkpt lat="47.857" lon="2.1301">
        <ele>153</ele>
        <time>2013-09-29T11:13:08.000Z</time>
      </trkpt>
      <trkpt lat="47.857" lon="2.1301">
        <ele>153</ele>
        <time>2013-09-29T11:13:10.000Z</time>
      </trkpt>
      <trkpt lat="47.857" lon="2.1301">
        <ele>153</ele>
        <time>2013-09-29T11:13:12.000Z</time>
      </trkpt>
      <trkpt lat="47.857" lon="2.1301">
        <ele>153</ele>
        <time>2013-09-29T11:13:13.000Z</time>
      </trkpt>
      <trkpt lat="47.857" lon="2.1301">
        <ele>153</ele>
        <time>2013-09-29T11:13:16.000Z</time>
      </trkpt>
      <trkpt lat="47.857" lon="2.1301">
        <ele>153</ele>
        <time>2013-09-29T11:13:17.000Z</time>
      </trkpt>
      <trkpt lat="47.857" lon="2.1301">
        <ele>153</ele>
        <time>2013-09-29T11:13:20.000Z</time>
      </trkpt>
      <trkpt lat="47.857" lon="2.1301">
        <ele>153</ele>
        <time>2013-09-29T11:13:21.000Z</time>
      </trkpt>
      <trkpt lat="47.857" lon="2.1301">
        <ele>153</ele>
        <time>2013-09-29T11:13:24.000Z</time>
      </trkpt>
      <trkpt lat="47.857" lon="2.1301">
        <ele>153</ele>
        <time>2013-09-29T11:13:25.000Z</time>
      </trkpt>
      <trkpt lat="47.857" lon="2.1301">
        <ele>153</ele>
        <time>2013-09-29T11:13:27.000Z</time>
      </trkpt>
      <trkpt lat="47.85631" lon="2.12936">
        <ele>151</ele>
        <time>2013-09-29T11:13:36.000Z</time>
      </trkpt>
      <trkpt lat="47.85617" lon="2.12948">
        <ele>151</ele>
        <time>2013-09-29T11:13:41.000Z</time>
      </trkpt>
      <trkpt lat="47.85585" lon="2.12965">
        <ele>152</ele>
        <time>2013-09-29T11:13:45.000Z</time>
      </trkpt>
      <trkpt lat="47.85569" lon="2.12978">
        <ele>153</ele>
        <time>2013-09-29T11:13:48.000Z</time>
      </trkpt>
      <trkpt lat="47.85558" lon="2.12987">
        <ele>153</ele>
        <time>2013-09-29T11:13:49.000Z</time>
      </trkpt>
      <trkpt lat="47.85547" lon="2.12995">
        <ele>153</ele>
        <time>2013-09-29T11:13:52.000Z</time>
      </trkpt>
      <trkpt lat="47.85536" lon="2.13005">
        <ele>152</ele>
        <time>2013-09-29T11:13:53.000Z</time>
      </trkpt>
      <trkpt lat="47.85527" lon="2.13012">
        <ele>152</ele>
        <time>2013-09-29T11:13:56.000Z</time>
      </trkpt>
      <trkpt lat="47.85518" lon="2.13019">
        <ele>152</ele>
        <time>2013-09-29T11:13:57.000Z</time>
      </trkpt>
      <trkpt lat="47.85509" lon="2.13024">
        <ele>152</ele>
        <time>2013-09-29T11:14:00.000Z</time>
      </trkpt>
      <trkpt lat="47.85509" lon="2.13024">
        <ele>152</ele>
        <time>2013-09-29T11:14:01.000Z</time>
      </trkpt>
      <trkpt lat="47.85509" lon="2.13024">
        <ele>152</ele>
        <time>2013-09-29T11:14:04.000Z</time>
      </trkpt>
      <trkpt lat="47.85509" lon="2.13024">
        <ele>152</ele>
        <time>2013-09-29T11:14:05.000Z</time>
      </trkpt>
      <trkpt lat="47.85466" lon="2.1306">
        <ele>152</ele>
        <time>2013-09-29T11:14:10.000Z</time>
      </trkpt>
      <trkpt lat="47.85466" lon="2.1306">
        <ele>152</ele>
        <time>2013-09-29T11:14:14.000Z</time>
      </trkpt>
      <trkpt lat="47.85466" lon="2.1306">
        <ele>152</ele>
        <time>2013-09-29T11:14:15.000Z</time>
      </trkpt>
      <trkpt lat="47.85466" lon="2.1306">
        <ele>152</ele>
        <time>2013-09-29T11:14:17.000Z</time>
      </trkpt>
      <trkpt lat="47.85466" lon="2.1306">
        <ele>152</ele>
        <time>2013-09-29T11:14:20.000Z</time>
      </trkpt>
      <trkpt lat="47.85466" lon="2.1306">
        <ele>152</ele>
        <time>2013-09-29T11:14:21.000Z</time>
      </trkpt>
      <trkpt lat="47.85432" lon="2.12974">
        <ele>152</ele>
        <time>2013-09-29T11:14:28.000Z</time>
      </trkpt>
      <trkpt lat="47.85425" lon="2.12953">
        <ele>152</ele>
        <time>2013-09-29T11:14:32.000Z</time>
      </trkpt>
      <trkpt lat="47.85425" lon="2.12953">
        <ele>152</ele>
        <time>2013-09-29T11:14:33.000Z</time>
      </trkpt>
      <trkpt lat="47.85425" lon="2.12953">
        <ele>152</ele>
        <time>2013-09-29T11:14:35.000Z</time>
      </trkpt>
      <trkpt lat="47.85408" lon="2.12885">
        <ele>151</ele>
        <time>2013-09-29T11:14:41.000Z</time>
      </trkpt>
      <trkpt lat="47.85406" lon="2.12863">
        <ele>150</ele>
        <time>2013-09-29T11:14:42.000Z</time>
      </trkpt>
      <trkpt lat="47.85393" lon="2.12856">
        <ele>149</ele>
        <time>2013-09-29T11:14:45.000Z</time>
      </trkpt>
      <trkpt lat="47.85381" lon="2.1285">
        <ele>150</ele>
        <time>2013-09-29T11:14:46.000Z</time>
      </trkpt>
      <trkpt lat="47.85366" lon="2.12851">
        <ele>150</ele>
        <time>2013-09-29T11:14:49.000Z</time>
      </trkpt>
      <trkpt lat="47.85353" lon="2.12852">
        <ele>150</ele>
        <time>2013-09-29T11:14:50.000Z</time>
      </trkpt>
      <trkpt lat="47.85339" lon="2.12852">
        <ele>150</ele>
        <time>2013-09-29T11:14:53.000Z</time>
      </trkpt>
      <trkpt lat="47.85326" lon="2.12852">
        <ele>150</ele>
        <time>2013-09-29T11:14:54.000Z</time>
      </trkpt>
      <trkpt lat="47.85314" lon="2.1285">
        <ele>150</ele>
        <time>2013-09-29T11:14:57.000Z</time>
      </trkpt>
      <trkpt lat="47.85314" lon="2.1285">
        <ele>150</ele>
        <time>2013-09-29T11:15:01.000Z</time>
      </trkpt>
      <trkpt lat="47.85314" lon="2.1285">
        <ele>150</ele>
        <time>2013-09-29T11:15:02.000Z</time>
      </trkpt>
      <trkpt lat="47.85268" lon="2.12848">
        <ele>153</ele>
        <time>2013-09-29T11:15:09.000Z</time>
      </trkpt>
      <trkpt lat="47.85255" lon="2.12845">
        <ele>153</ele>
        <time>2013-09-29T11:15:11.000Z</time>
      </trkpt>
      <trkpt lat="47.85243" lon="2.12841">
        <ele>154</ele>
        <time>2013-09-29T11:15:12.000Z</time>
      </trkpt>
      <trkpt lat="47.8522" lon="2.12834">
        <ele>153</ele>
        <time>2013-09-29T11:15:16.000Z</time>
      </trkpt>
      <trkpt lat="47.85206" lon="2.1283">
        <ele>153</ele>
        <time>2013-09-29T11:15:17.000Z</time>
      </trkpt>
      <trkpt lat="47.85193" lon="2.12826">
        <ele>154</ele>
        <time>2013-09-29T11:15:20.000Z</time>
      </trkpt>
      <trkpt lat="47.8518" lon="2.12823">
        <ele>154</ele>
        <time>2013-09-29T11:15:23.000Z</time>
      </trkpt>
      <trkpt lat="47.85165" lon="2.12826">
        <ele>154</ele>
        <time>2013-09-29T11:15:24.000Z</time>
      </trkpt>
      <trkpt lat="47.85165" lon="2.12826">
        <ele>154</ele>
        <time>2013-09-29T11:15:28.000Z</time>
      </trkpt>
      <trkpt lat="47.85165" lon="2.12826">
        <ele>154</ele>
        <time>2013-09-29T11:15:29.000Z</time>
      </trkpt>
      <trkpt lat="47.85165" lon="2.12826">
        <ele>154</ele>
        <time>2013-09-29T11:15:34.000Z</time>
      </trkpt>
      <trkpt lat="47.85165" lon="2.12826">
        <ele>154</ele>
        <time>2013-09-29T11:15:35.000Z</time>
      </trkpt>
      <trkpt lat="47.85086" lon="2.12833">
        <ele>153</ele>
        <time>2013-09-29T11:15:41.000Z</time>
      </trkpt>
      <trkpt lat="47.85074" lon="2.12835">
        <ele>153</ele>
        <time>2013-09-29T11:15:42.000Z</time>
      </trkpt>
      <trkpt lat="47.8504" lon="2.12833">
        <ele>153</ele>
        <time>2013-09-29T11:15:48.000Z</time>
      </trkpt>
      <trkpt lat="47.85009" lon="2.12826">
        <ele>156</ele>
        <time>2013-09-29T11:15:51.000Z</time>
      </trkpt>
      <trkpt lat="47.84988" lon="2.12827">
        <ele>155</ele>
        <time>2013-09-29T11:15:54.000Z</time>
      </trkpt>
      <trkpt lat="47.84975" lon="2.12832">
        <ele>155</ele>
        <time>2013-09-29T11:15:55.000Z</time>
      </trkpt>
      <trkpt lat="47.84961" lon="2.12832">
        <ele>154</ele>
        <time>2013-09-29T11:15:57.000Z</time>
      </trkpt>
      <trkpt lat="47.84948" lon="2.12833">
        <ele>154</ele>
        <time>2013-09-29T11:15:59.000Z</time>
      </trkpt>
      <trkpt lat="47.84936" lon="2.12836">
        <ele>153</ele>
        <time>2013-09-29T11:16:01.000Z</time>
      </trkpt>
      <trkpt lat="47.84926" lon="2.12843">
        <ele>153</ele>
        <time>2013-09-29T11:16:04.000Z</time>
      </trkpt>
      <trkpt lat="47.84916" lon="2.12844">
        <ele>152</ele>
        <time>2013-09-29T11:16:05.000Z</time>
      </trkpt>
      <trkpt lat="47.84906" lon="2.12847">
        <ele>152</ele>
        <time>2013-09-29T11:16:08.000Z</time>
      </trkpt>
      <trkpt lat="47.84895" lon="2.12849">
        <ele>152</ele>
        <time>2013-09-29T11:16:09.000Z</time>
      </trkpt>
      <trkpt lat="47.84884" lon="2.1285">
        <ele>152</ele>
        <time>2013-09-29T11:16:12.000Z</time>
      </trkpt>
      <trkpt lat="47.84871" lon="2.12851">
        <ele>152</ele>
        <time>2013-09-29T11:16:13.000Z</time>
      </trkpt>
      <trkpt lat="47.84861" lon="2.12856">
        <ele>152</ele>
        <time>2013-09-29T11:16:15.000Z</time>
      </trkpt>
      <trkpt lat="47.84848" lon="2.12855">
        <ele>152</ele>
        <time>2013-09-29T11:16:17.000Z</time>
      </trkpt>
      <trkpt lat="47.84838" lon="2.12861">
        <ele>152</ele>
        <time>2013-09-29T11:16:20.000Z</time>
      </trkpt>
      <trkpt lat="47.84829" lon="2.12866">
        <ele>152</ele>
        <time>2013-09-29T11:16:21.000Z</time>
      </trkpt>
      <trkpt lat="47.84829" lon="2.12866">
        <ele>152</ele>
        <time>2013-09-29T11:16:23.000Z</time>
      </trkpt>
      <trkpt lat="47.84814" lon="2.12885">
        <ele>152</ele>
        <time>2013-09-29T11:16:26.000Z</time>
      </trkpt>
      <trkpt lat="47.84807" lon="2.12898">
        <ele>152</ele>
        <time>2013-09-29T11:16:28.000Z</time>
      </trkpt>
      <trkpt lat="47.848" lon="2.12912">
        <ele>152</ele>
        <time>2013-09-29T11:16:29.000Z</time>
      </trkpt>
      <trkpt lat="47.84792" lon="2.12925">
        <ele>153</ele>
        <time>2013-09-29T11:16:32.000Z</time>
      </trkpt>
      <trkpt lat="47.84785" lon="2.12938">
        <ele>153</ele>
        <time>2013-09-29T11:16:33.000Z</time>
      </trkpt>
      <trkpt lat="47.84777" lon="2.12951">
        <ele>153</ele>
        <time>2013-09-29T11:16:36.000Z</time>
      </trkpt>
      <trkpt lat="47.84769" lon="2.12965">
        <ele>153</ele>
        <time>2013-09-29T11:16:37.000Z</time>
      </trkpt>
      <trkpt lat="47.84761" lon="2.12977">
        <ele>153</ele>
        <time>2013-09-29T11:16:40.000Z</time>
      </trkpt>
      <trkpt lat="47.84752" lon="2.12989">
        <ele>153</ele>
        <time>2013-09-29T11:16:41.000Z</time>
      </trkpt>
      <trkpt lat="47.84743" lon="2.13002">
        <ele>153</ele>
        <time>2013-09-29T11:16:44.000Z</time>
      </trkpt>
      <trkpt lat="47.84734" lon="2.13012">
        <ele>153</ele>
        <time>2013-09-29T11:16:45.000Z</time>
      </trkpt>
      <trkpt lat="47.84724" lon="2.13023">
        <ele>152</ele>
        <time>2013-09-29T11:16:48.000Z</time>
      </trkpt>
      <trkpt lat="47.84715" lon="2.13031">
        <ele>152</ele>
        <time>2013-09-29T11:16:49.000Z</time>
      </trkpt>
      <trkpt lat="47.84702" lon="2.13036">
        <ele>152</ele>
        <time>2013-09-29T11:16:51.000Z</time>
      </trkpt>
      <trkpt lat="47.84692" lon="2.13041">
        <ele>153</ele>
        <time>2013-09-29T11:16:54.000Z</time>
      </trkpt>
      <trkpt lat="47.84684" lon="2.13047">
        <ele>153</ele>
        <time>2013-09-29T11:16:55.000Z</time>
      </trkpt>
      <trkpt lat="47.84673" lon="2.13052">
        <ele>153</ele>
        <time>2013-09-29T11:16:57.000Z</time>
      </trkpt>
      <trkpt lat="47.84673" lon="2.13052">
        <ele>153</ele>
        <time>2013-09-29T11:17:00.000Z</time>
      </trkpt>
      <trkpt lat="47.84656" lon="2.1306">
        <ele>153</ele>
        <time>2013-09-29T11:17:04.000Z</time>
      </trkpt>
      <trkpt lat="47.84641" lon="2.13065">
        <ele>153</ele>
        <time>2013-09-29T11:17:05.000Z</time>
      </trkpt>
      <trkpt lat="47.84628" lon="2.1307">
        <ele>152</ele>
        <time>2013-09-29T11:17:07.000Z</time>
      </trkpt>
      <trkpt lat="47.84616" lon="2.13074">
        <ele>153</ele>
        <time>2013-09-29T11:17:10.000Z</time>
      </trkpt>
      <trkpt lat="47.84604" lon="2.13077">
        <ele>153</ele>
        <time>2013-09-29T11:17:11.000Z</time>
      </trkpt>
      <trkpt lat="47.8458" lon="2.13082">
        <ele>153</ele>
        <time>2013-09-29T11:17:13.000Z</time>
      </trkpt>
      <trkpt lat="47.8457" lon="2.13083">
        <ele>151</ele>
        <time>2013-09-29T11:17:16.000Z</time>
      </trkpt>
      <trkpt lat="47.84558" lon="2.13083">
        <ele>151</ele>
        <time>2013-09-29T11:17:17.000Z</time>
      </trkpt>
      <trkpt lat="47.84546" lon="2.13084">
        <ele>151</ele>
        <time>2013-09-29T11:17:20.000Z</time>
      </trkpt>
      <trkpt lat="47.84534" lon="2.13086">
        <ele>151</ele>
        <time>2013-09-29T11:17:21.000Z</time>
      </trkpt>
      <trkpt lat="47.84524" lon="2.13087">
        <ele>151</ele>
        <time>2013-09-29T11:17:24.000Z</time>
      </trkpt>
      <trkpt lat="47.84524" lon="2.13087">
        <ele>151</ele>
        <time>2013-09-29T11:17:25.000Z</time>
      </trkpt>
      <trkpt lat="47.84504" lon="2.13088">
        <ele>151</ele>
        <time>2013-09-29T11:17:27.000Z</time>
      </trkpt>
      <trkpt lat="47.84494" lon="2.13088">
        <ele>151</ele>
        <time>2013-09-29T11:17:29.000Z</time>
      </trkpt>
      <trkpt lat="47.84483" lon="2.13087">
        <ele>151</ele>
        <time>2013-09-29T11:17:32.000Z</time>
      </trkpt>
      <trkpt lat="47.8447" lon="2.13088">
        <ele>150</ele>
        <time>2013-09-29T11:17:33.000Z</time>
      </trkpt>
      <trkpt lat="47.84457" lon="2.13087">
        <ele>151</ele>
        <time>2013-09-29T11:17:36.000Z</time>
      </trkpt>
      <trkpt lat="47.84443" lon="2.13086">
        <ele>150</ele>
        <time>2013-09-29T11:17:37.000Z</time>
      </trkpt>
      <trkpt lat="47.84431" lon="2.13086">
        <ele>150</ele>
        <time>2013-09-29T11:17:40.000Z</time>
      </trkpt>
      <trkpt lat="47.84418" lon="2.13088">
        <ele>151</ele>
        <time>2013-09-29T11:17:41.000Z</time>
      </trkpt>
      <trkpt lat="47.84406" lon="2.13089">
        <ele>151</ele>
        <time>2013-09-29T11:17:44.000Z</time>
      </trkpt>
      <trkpt lat="47.84393" lon="2.13088">
        <ele>152</ele>
        <time>2013-09-29T11:17:45.000Z</time>
      </trkpt>
      <trkpt lat="47.8438" lon="2.13085">
        <ele>152</ele>
        <time>2013-09-29T11:17:48.000Z</time>
      </trkpt>
      <trkpt lat="47.84369" lon="2.13084">
        <ele>153</ele>
        <time>2013-09-29T11:17:49.000Z</time>
      </trkpt>
      <trkpt lat="47.84357" lon="2.13083">
        <ele>153</ele>
        <time>2013-09-29T11:17:52.000Z</time>
      </trkpt>
      <trkpt lat="47.84346" lon="2.13082">
        <ele>153</ele>
        <time>2013-09-29T11:17:53.000Z</time>
      </trkpt>
      <trkpt lat="47.84334" lon="2.13079">
        <ele>152</ele>
        <time>2013-09-29T11:17:56.000Z</time>
      </trkpt>
      <trkpt lat="47.84319" lon="2.13079">
        <ele>153</ele>
        <time>2013-09-29T11:17:57.000Z</time>
      </trkpt>
      <trkpt lat="47.84304" lon="2.13077">
        <ele>153</ele>
        <time>2013-09-29T11:18:01.000Z</time>
      </trkpt>
      <trkpt lat="47.84293" lon="2.13074">
        <ele>152</ele>
        <time>2013-09-29T11:18:02.000Z</time>
      </trkpt>
      <trkpt lat="47.84281" lon="2.13073">
        <ele>153</ele>
        <time>2013-09-29T11:18:04.000Z</time>
      </trkpt>
      <trkpt lat="47.84271" lon="2.1307">
        <ele>153</ele>
        <time>2013-09-29T11:18:06.000Z</time>
      </trkpt>
      <trkpt lat="47.84271" lon="2.1307">
        <ele>153</ele>
        <time>2013-09-29T11:18:08.000Z</time>
      </trkpt>
      <trkpt lat="47.84252" lon="2.13069">
        <ele>153</ele>
        <time>2013-09-29T11:18:11.000Z</time>
      </trkpt>
      <trkpt lat="47.84252" lon="2.13069">
        <ele>153</ele>
        <time>2013-09-29T11:18:12.000Z</time>
      </trkpt>
      <trkpt lat="47.84208" lon="2.13053">
        <ele>150</ele>
        <time>2013-09-29T11:18:19.000Z</time>
      </trkpt>
      <trkpt lat="47.84208" lon="2.13053">
        <ele>150</ele>
        <time>2013-09-29T11:18:20.000Z</time>
      </trkpt>
      <trkpt lat="47.84208" lon="2.13053">
        <ele>150</ele>
        <time>2013-09-29T11:18:23.000Z</time>
      </trkpt>
      <trkpt lat="47.84208" lon="2.13053">
        <ele>150</ele>
        <time>2013-09-29T11:18:24.000Z</time>
      </trkpt>
      <trkpt lat="47.84208" lon="2.13053">
        <ele>150</ele>
        <time>2013-09-29T11:18:26.000Z</time>
      </trkpt>
      <trkpt lat="47.84208" lon="2.13053">
        <ele>150</ele>
        <time>2013-09-29T11:18:28.000Z</time>
      </trkpt>
      <trkpt lat="47.84208" lon="2.13053">
        <ele>150</ele>
        <time>2013-09-29T11:18:30.000Z</time>
      </trkpt>
      <trkpt lat="47.84208" lon="2.13053">
        <ele>150</ele>
        <time>2013-09-29T11:18:33.000Z</time>
      </trkpt>
      <trkpt lat="47.84208" lon="2.13053">
        <ele>150</ele>
        <time>2013-09-29T11:18:34.000Z</time>
      </trkpt>
      <trkpt lat="47.84106" lon="2.13042">
        <ele>148</ele>
        <time>2013-09-29T11:18:39.000Z</time>
      </trkpt>
      <trkpt lat="47.84095" lon="2.1304">
        <ele>149</ele>
        <time>2013-09-29T11:18:41.000Z</time>
      </trkpt>
      <trkpt lat="47.84082" lon="2.13038">
        <ele>149</ele>
        <time>2013-09-29T11:18:42.000Z</time>
      </trkpt>
      <trkpt lat="47.84071" lon="2.1304">
        <ele>150</ele>
        <time>2013-09-29T11:18:45.000Z</time>
      </trkpt>
      <trkpt lat="47.84059" lon="2.1304">
        <ele>150</ele>
        <time>2013-09-29T11:18:46.000Z</time>
      </trkpt>
      <trkpt lat="47.84045" lon="2.13042">
        <ele>150</ele>
        <time>2013-09-29T11:18:49.000Z</time>
      </trkpt>
      <trkpt lat="47.84032" lon="2.13046">
        <ele>151</ele>
        <time>2013-09-29T11:18:50.000Z</time>
      </trkpt>
      <trkpt lat="47.84019" lon="2.13051">
        <ele>150</ele>
        <time>2013-09-29T11:18:53.000Z</time>
      </trkpt>
      <trkpt lat="47.84005" lon="2.13055">
        <ele>150</ele>
        <time>2013-09-29T11:18:54.000Z</time>
      </trkpt>
      <trkpt lat="47.83995" lon="2.13059">
        <ele>151</ele>
        <time>2013-09-29T11:18:57.000Z</time>
      </trkpt>
      <trkpt lat="47.83983" lon="2.13062">
        <ele>150</ele>
        <time>2013-09-29T11:18:58.000Z</time>
      </trkpt>
      <trkpt lat="47.83971" lon="2.13066">
        <ele>151</ele>
        <time>2013-09-29T11:19:00.000Z</time>
      </trkpt>
      <trkpt lat="47.8396" lon="2.13068">
        <ele>151</ele>
        <time>2013-09-29T11:19:02.000Z</time>
      </trkpt>
      <trkpt lat="47.83949" lon="2.1307">
        <ele>151</ele>
        <time>2013-09-29T11:19:04.000Z</time>
      </trkpt>
      <trkpt lat="47.83938" lon="2.13072">
        <ele>151</ele>
        <time>2013-09-29T11:19:06.000Z</time>
      </trkpt>
      <trkpt lat="47.83926" lon="2.13073">
        <ele>151</ele>
        <time>2013-09-29T11:19:08.000Z</time>
      </trkpt>
      <trkpt lat="47.83915" lon="2.13075">
        <ele>151</ele>
        <time>2013-09-29T11:19:10.000Z</time>
      </trkpt>
      <trkpt lat="47.83901" lon="2.13079">
        <ele>152</ele>
        <time>2013-09-29T11:19:12.000Z</time>
      </trkpt>
      <trkpt lat="47.83889" lon="2.13082">
        <ele>151</ele>
        <time>2013-09-29T11:19:15.000Z</time>
      </trkpt>
      <trkpt lat="47.83878" lon="2.13083">
        <ele>150</ele>
        <time>2013-09-29T11:19:16.000Z</time>
      </trkpt>
      <trkpt lat="47.83865" lon="2.13086">
        <ele>150</ele>
        <time>2013-09-29T11:19:18.000Z</time>
      </trkpt>
      <trkpt lat="47.83852" lon="2.13088">
        <ele>151</ele>
        <time>2013-09-29T11:19:21.000Z</time>
      </trkpt>
      <trkpt lat="47.83839" lon="2.1309">
        <ele>151</ele>
        <time>2013-09-29T11:19:22.000Z</time>
      </trkpt>
      <trkpt lat="47.83828" lon="2.13094">
        <ele>151</ele>
        <time>2013-09-29T11:19:25.000Z</time>
      </trkpt>
      <trkpt lat="47.83816" lon="2.13096">
        <ele>152</ele>
        <time>2013-09-29T11:19:26.000Z</time>
      </trkpt>
      <trkpt lat="47.83804" lon="2.13099">
        <ele>151</ele>
        <time>2013-09-29T11:19:28.000Z</time>
      </trkpt>
      <trkpt lat="47.83793" lon="2.13102">
        <ele>151</ele>
        <time>2013-09-29T11:19:30.000Z</time>
      </trkpt>
      <trkpt lat="47.83782" lon="2.13106">
        <ele>151</ele>
        <time>2013-09-29T11:19:32.000Z</time>
      </trkpt>
      <trkpt lat="47.8377" lon="2.1311">
        <ele>151</ele>
        <time>2013-09-29T11:19:34.000Z</time>
      </trkpt>
      <trkpt lat="47.83759" lon="2.13115">
        <ele>151</ele>
        <time>2013-09-29T11:19:37.000Z</time>
      </trkpt>
      <trkpt lat="47.83747" lon="2.13119">
        <ele>151</ele>
        <time>2013-09-29T11:19:39.000Z</time>
      </trkpt>
      <trkpt lat="47.83736" lon="2.13125">
        <ele>152</ele>
        <time>2013-09-29T11:19:40.000Z</time>
      </trkpt>
      <trkpt lat="47.83724" lon="2.13127">
        <ele>151</ele>
        <time>2013-09-29T11:19:42.000Z</time>
      </trkpt>
      <trkpt lat="47.83712" lon="2.13133">
        <ele>151</ele>
        <time>2013-09-29T11:19:44.000Z</time>
      </trkpt>
      <trkpt lat="47.837" lon="2.13136">
        <ele>151</ele>
        <time>2013-09-29T11:19:46.000Z</time>
      </trkpt>
      <trkpt lat="47.83688" lon="2.13141">
        <ele>151</ele>
        <time>2013-09-29T11:19:48.000Z</time>
      </trkpt>
      <trkpt lat="47.83677" lon="2.13144">
        <ele>150</ele>
        <time>2013-09-29T11:19:50.000Z</time>
      </trkpt>
      <trkpt lat="47.83665" lon="2.13144">
        <ele>150</ele>
        <time>2013-09-29T11:19:53.000Z</time>
      </trkpt>
      <trkpt lat="47.83652" lon="2.13143">
        <ele>150</ele>
        <time>2013-09-29T11:19:54.000Z</time>
      </trkpt>
      <trkpt lat="47.83642" lon="2.1314">
        <ele>150</ele>
        <time>2013-09-29T11:19:57.000Z</time>
      </trkpt>
      <trkpt lat="47.8363" lon="2.13136">
        <ele>150</ele>
        <time>2013-09-29T11:19:58.000Z</time>
      </trkpt>
      <trkpt lat="47.83619" lon="2.1313">
        <ele>150</ele>
        <time>2013-09-29T11:20:00.000Z</time>
      </trkpt>
      <trkpt lat="47.83607" lon="2.13124">
        <ele>150</ele>
        <time>2013-09-29T11:20:02.000Z</time>
      </trkpt>
      <trkpt lat="47.83596" lon="2.13118">
        <ele>150</ele>
        <time>2013-09-29T11:20:05.000Z</time>
      </trkpt>
      <trkpt lat="47.83585" lon="2.13111">
        <ele>151</ele>
        <time>2013-09-29T11:20:06.000Z</time>
      </trkpt>
      <trkpt lat="47.83573" lon="2.13104">
        <ele>150</ele>
        <time>2013-09-29T11:20:09.000Z</time>
      </trkpt>
      <trkpt lat="47.83562" lon="2.13095">
        <ele>150</ele>
        <time>2013-09-29T11:20:10.000Z</time>
      </trkpt>
      <trkpt lat="47.8355" lon="2.1309">
        <ele>149</ele>
        <time>2013-09-29T11:20:13.000Z</time>
      </trkpt>
      <trkpt lat="47.83539" lon="2.13085">
        <ele>150</ele>
        <time>2013-09-29T11:20:14.000Z</time>
      </trkpt>
      <trkpt lat="47.83527" lon="2.13078">
        <ele>149</ele>
        <time>2013-09-29T11:20:16.000Z</time>
      </trkpt>
      <trkpt lat="47.83518" lon="2.13071">
        <ele>149</ele>
        <time>2013-09-29T11:20:20.000Z</time>
      </trkpt>
      <trkpt lat="47.83508" lon="2.13066">
        <ele>150</ele>
        <time>2013-09-29T11:20:21.000Z</time>
      </trkpt>
      <trkpt lat="47.83496" lon="2.13062">
        <ele>152</ele>
        <time>2013-09-29T11:20:23.000Z</time>
      </trkpt>
      <trkpt lat="47.83486" lon="2.13056">
        <ele>151</ele>
        <time>2013-09-29T11:20:24.000Z</time>
      </trkpt>
      <trkpt lat="47.83474" lon="2.1305">
        <ele>151</ele>
        <time>2013-09-29T11:20:27.000Z</time>
      </trkpt>
      <trkpt lat="47.83464" lon="2.13042">
        <ele>151</ele>
        <time>2013-09-29T11:20:28.000Z</time>
      </trkpt>
      <trkpt lat="47.83454" lon="2.13034">
        <ele>150</ele>
        <time>2013-09-29T11:20:31.000Z</time>
      </trkpt>
      <trkpt lat="47.83442" lon="2.13029">
        <ele>149</ele>
        <time>2013-09-29T11:20:32.000Z</time>
      </trkpt>
      <trkpt lat="47.8343" lon="2.13024">
        <ele>149</ele>
        <time>2013-09-29T11:20:35.000Z</time>
      </trkpt>
      <trkpt lat="47.8342" lon="2.1302">
        <ele>149</ele>
        <time>2013-09-29T11:20:36.000Z</time>
      </trkpt>
      <trkpt lat="47.83409" lon="2.13015">
        <ele>148</ele>
        <time>2013-09-29T11:20:39.000Z</time>
      </trkpt>
      <trkpt lat="47.83398" lon="2.1301">
        <ele>149</ele>
        <time>2013-09-29T11:20:40.000Z</time>
      </trkpt>
      <trkpt lat="47.83385" lon="2.13006">
        <ele>150</ele>
        <time>2013-09-29T11:20:43.000Z</time>
      </trkpt>
      <trkpt lat="47.83373" lon="2.13003">
        <ele>150</ele>
        <time>2013-09-29T11:20:44.000Z</time>
      </trkpt>
      <trkpt lat="47.83363" lon="2.13">
        <ele>151</ele>
        <time>2013-09-29T11:20:47.000Z</time>
      </trkpt>
      <trkpt lat="47.8335" lon="2.12996">
        <ele>150</ele>
        <time>2013-09-29T11:20:49.000Z</time>
      </trkpt>
      <trkpt lat="47.8334" lon="2.12992">
        <ele>149</ele>
        <time>2013-09-29T11:20:50.000Z</time>
      </trkpt>
      <trkpt lat="47.83331" lon="2.1299">
        <ele>149</ele>
        <time>2013-09-29T11:20:53.000Z</time>
      </trkpt>
      <trkpt lat="47.83318" lon="2.12987">
        <ele>149</ele>
        <time>2013-09-29T11:20:54.000Z</time>
      </trkpt>
      <trkpt lat="47.83308" lon="2.12985">
        <ele>147</ele>
        <time>2013-09-29T11:20:57.000Z</time>
      </trkpt>
      <trkpt lat="47.83297" lon="2.12984">
        <ele>148</ele>
        <time>2013-09-29T11:20:58.000Z</time>
      </trkpt>
      <trkpt lat="47.83287" lon="2.12984">
        <ele>149</ele>
        <time>2013-09-29T11:21:00.000Z</time>
      </trkpt>
      <trkpt lat="47.83276" lon="2.12983">
        <ele>149</ele>
        <time>2013-09-29T11:21:02.000Z</time>
      </trkpt>
      <trkpt lat="47.83264" lon="2.12981">
        <ele>149</ele>
        <time>2013-09-29T11:21:05.000Z</time>
      </trkpt>
      <trkpt lat="47.83251" lon="2.12981">
        <ele>150</ele>
        <time>2013-09-29T11:21:06.000Z</time>
      </trkpt>
      <trkpt lat="47.83242" lon="2.1298">
        <ele>149</ele>
        <time>2013-09-29T11:21:09.000Z</time>
      </trkpt>
      <trkpt lat="47.83228" lon="2.12977">
        <ele>149</ele>
        <time>2013-09-29T11:21:10.000Z</time>
      </trkpt>
      <trkpt lat="47.83228" lon="2.12977">
        <ele>149</ele>
        <time>2013-09-29T11:21:13.000Z</time>
      </trkpt>
      <trkpt lat="47.83207" lon="2.12979">
        <ele>151</ele>
        <time>2013-09-29T11:21:14.000Z</time>
      </trkpt>
      <trkpt lat="47.83207" lon="2.12979">
        <ele>151</ele>
        <time>2013-09-29T11:21:17.000Z</time>
      </trkpt>
      <trkpt lat="47.83184" lon="2.12978">
        <ele>151</ele>
        <time>2013-09-29T11:21:18.000Z</time>
      </trkpt>
      <trkpt lat="47.83172" lon="2.12978">
        <ele>150</ele>
        <time>2013-09-29T11:21:20.000Z</time>
      </trkpt>
      <trkpt lat="47.8316" lon="2.12978">
        <ele>150</ele>
        <time>2013-09-29T11:21:22.000Z</time>
      </trkpt>
      <trkpt lat="47.83147" lon="2.12977">
        <ele>149</ele>
        <time>2013-09-29T11:21:24.000Z</time>
      </trkpt>
      <trkpt lat="47.83137" lon="2.12978">
        <ele>150</ele>
        <time>2013-09-29T11:21:26.000Z</time>
      </trkpt>
      <trkpt lat="47.83127" lon="2.12978">
        <ele>150</ele>
        <time>2013-09-29T11:21:28.000Z</time>
      </trkpt>
      <trkpt lat="47.83116" lon="2.12978">
        <ele>151</ele>
        <time>2013-09-29T11:21:31.000Z</time>
      </trkpt>
      <trkpt lat="47.83103" lon="2.12974">
        <ele>150</ele>
        <time>2013-09-29T11:21:33.000Z</time>
      </trkpt>
      <trkpt lat="47.83093" lon="2.12971">
        <ele>150</ele>
        <time>2013-09-29T11:21:34.000Z</time>
      </trkpt>
      <trkpt lat="47.83082" lon="2.12969">
        <ele>150</ele>
        <time>2013-09-29T11:21:36.000Z</time>
      </trkpt>
      <trkpt lat="47.83082" lon="2.12969">
        <ele>150</ele>
        <time>2013-09-29T11:21:39.000Z</time>
      </trkpt>
      <trkpt lat="47.83062" lon="2.12964">
        <ele>150</ele>
        <time>2013-09-29T11:21:40.000Z</time>
      </trkpt>
      <trkpt lat="47.83051" lon="2.1296">
        <ele>150</ele>
        <time>2013-09-29T11:21:43.000Z</time>
      </trkpt>
      <trkpt lat="47.83042" lon="2.12957">
        <ele>150</ele>
        <time>2013-09-29T11:21:44.000Z</time>
      </trkpt>
      <trkpt lat="47.83031" lon="2.12954">
        <ele>150</ele>
        <time>2013-09-29T11:21:47.000Z</time>
      </trkpt>
      <trkpt lat="47.83017" lon="2.12951">
        <ele>150</ele>
        <time>2013-09-29T11:21:48.000Z</time>
      </trkpt>
      <trkpt lat="47.83004" lon="2.1295">
        <ele>150</ele>
        <time>2013-09-29T11:21:50.000Z</time>
      </trkpt>
      <trkpt lat="47.82991" lon="2.12946">
        <ele>150</ele>
        <time>2013-09-29T11:21:52.000Z</time>
      </trkpt>
      <trkpt lat="47.82969" lon="2.12938">
        <ele>151</ele>
        <time>2013-09-29T11:21:58.000Z</time>
      </trkpt>
      <trkpt lat="47.82969" lon="2.12938">
        <ele>151</ele>
        <time>2013-09-29T11:21:59.000Z</time>
      </trkpt>
      <trkpt lat="47.82969" lon="2.12938">
        <ele>151</ele>
        <time>2013-09-29T11:22:01.000Z</time>
      </trkpt>
      <trkpt lat="47.82969" lon="2.12938">
        <ele>151</ele>
        <time>2013-09-29T11:22:04.000Z</time>
      </trkpt>
      <trkpt lat="47.82969" lon="2.12938">
        <ele>151</ele>
        <time>2013-09-29T11:22:05.000Z</time>
      </trkpt>
      <trkpt lat="47.82969" lon="2.12938">
        <ele>151</ele>
        <time>2013-09-29T11:22:07.000Z</time>
      </trkpt>
      <trkpt lat="47.82969" lon="2.12938">
        <ele>151</ele>
        <time>2013-09-29T11:22:10.000Z</time>
      </trkpt>
      <trkpt lat="47.82897" lon="2.12935">
        <ele>151</ele>
        <time>2013-09-29T11:22:14.000Z</time>
      </trkpt>
      <trkpt lat="47.82882" lon="2.12935">
        <ele>151</ele>
        <time>2013-09-29T11:22:16.000Z</time>
      </trkpt>
      <trkpt lat="47.8287" lon="2.12935">
        <ele>151</ele>
        <time>2013-09-29T11:22:18.000Z</time>
      </trkpt>
      <trkpt lat="47.82859" lon="2.12941">
        <ele>151</ele>
        <time>2013-09-29T11:22:19.000Z</time>
      </trkpt>
      <trkpt lat="47.82846" lon="2.12938">
        <ele>151</ele>
        <time>2013-09-29T11:22:21.000Z</time>
      </trkpt>
      <trkpt lat="47.82834" lon="2.12942">
        <ele>152</ele>
        <time>2013-09-29T11:22:23.000Z</time>
      </trkpt>
      <trkpt lat="47.82823" lon="2.12942">
        <ele>153</ele>
        <time>2013-09-29T11:22:25.000Z</time>
      </trkpt>
      <trkpt lat="47.82823" lon="2.12942">
        <ele>153</ele>
        <time>2013-09-29T11:22:27.000Z</time>
      </trkpt>
      <trkpt lat="47.82791" lon="2.12939">
        <ele>152</ele>
        <time>2013-09-29T11:22:32.000Z</time>
      </trkpt>
      <trkpt lat="47.82781" lon="2.12943">
        <ele>154</ele>
        <time>2013-09-29T11:22:33.000Z</time>
      </trkpt>
      <trkpt lat="47.8277" lon="2.12942">
        <ele>155</ele>
        <time>2013-09-29T11:22:36.000Z</time>
      </trkpt>
      <trkpt lat="47.82758" lon="2.12942">
        <ele>156</ele>
        <time>2013-09-29T11:22:38.000Z</time>
      </trkpt>
      <trkpt lat="47.82748" lon="2.12941">
        <ele>155</ele>
        <time>2013-09-29T11:22:39.000Z</time>
      </trkpt>
      <trkpt lat="47.82748" lon="2.12941">
        <ele>155</ele>
        <time>2013-09-29T11:22:41.000Z</time>
      </trkpt>
      <trkpt lat="47.82748" lon="2.12941">
        <ele>155</ele>
        <time>2013-09-29T11:22:44.000Z</time>
      </trkpt>
      <trkpt lat="47.82748" lon="2.12941">
        <ele>155</ele>
        <time>2013-09-29T11:22:45.000Z</time>
      </trkpt>
      <trkpt lat="47.82748" lon="2.12941">
        <ele>155</ele>
        <time>2013-09-29T11:22:47.000Z</time>
      </trkpt>
      <trkpt lat="47.82748" lon="2.12941">
        <ele>155</ele>
        <time>2013-09-29T11:22:49.000Z</time>
      </trkpt>
      <trkpt lat="47.82748" lon="2.12941">
        <ele>155</ele>
        <time>2013-09-29T11:22:52.000Z</time>
      </trkpt>
      <trkpt lat="47.82712" lon="2.12927">
        <ele>153</ele>
        <time>2013-09-29T11:22:56.000Z</time>
      </trkpt>
      <trkpt lat="47.82689" lon="2.12917">
        <ele>152</ele>
        <time>2013-09-29T11:22:57.000Z</time>
      </trkpt>
      <trkpt lat="47.82673" lon="2.1291">
        <ele>150</ele>
        <time>2013-09-29T11:23:00.000Z</time>
      </trkpt>
      <trkpt lat="47.8266" lon="2.12907">
        <ele>150</ele>
        <time>2013-09-29T11:23:01.000Z</time>
      </trkpt>
      <trkpt lat="47.82648" lon="2.12905">
        <ele>150</ele>
        <time>2013-09-29T11:23:04.000Z</time>
      </trkpt>
      <trkpt lat="47.82628" lon="2.129">
        <ele>149</ele>
        <time>2013-09-29T11:23:05.000Z</time>
      </trkpt>
      <trkpt lat="47.82618" lon="2.12898">
        <ele>148</ele>
        <time>2013-09-29T11:23:08.000Z</time>
      </trkpt>
      <trkpt lat="47.82607" lon="2.12896">
        <ele>148</ele>
        <time>2013-09-29T11:23:09.000Z</time>
      </trkpt>
      <trkpt lat="47.82592" lon="2.12896">
        <ele>149</ele>
        <time>2013-09-29T11:23:12.000Z</time>
      </trkpt>
      <trkpt lat="47.82579" lon="2.12896">
        <ele>150</ele>
        <time>2013-09-29T11:23:13.000Z</time>
      </trkpt>
      <trkpt lat="47.82567" lon="2.12895">
        <ele>150</ele>
        <time>2013-09-29T11:23:16.000Z</time>
      </trkpt>
      <trkpt lat="47.82556" lon="2.12896">
        <ele>151</ele>
        <time>2013-09-29T11:23:17.000Z</time>
      </trkpt>
      <trkpt lat="47.82534" lon="2.12897">
        <ele>150</ele>
        <time>2013-09-29T11:23:22.000Z</time>
      </trkpt>
      <trkpt lat="47.82509" lon="2.12897">
        <ele>150</ele>
        <time>2013-09-29T11:23:26.000Z</time>
      </trkpt>
      <trkpt lat="47.82498" lon="2.12902">
        <ele>151</ele>
        <time>2013-09-29T11:23:27.000Z</time>
      </trkpt>
      <trkpt lat="47.82487" lon="2.12906">
        <ele>152</ele>
        <time>2013-09-29T11:23:30.000Z</time>
      </trkpt>
      <trkpt lat="47.82477" lon="2.12908">
        <ele>152</ele>
        <time>2013-09-29T11:23:31.000Z</time>
      </trkpt>
      <trkpt lat="47.82467" lon="2.12912">
        <ele>151</ele>
        <time>2013-09-29T11:23:33.000Z</time>
      </trkpt>
      <trkpt lat="47.82457" lon="2.12917">
        <ele>150</ele>
        <time>2013-09-29T11:23:35.000Z</time>
      </trkpt>
      <trkpt lat="47.82447" lon="2.12919">
        <ele>150</ele>
        <time>2013-09-29T11:23:37.000Z</time>
      </trkpt>
      <trkpt lat="47.82433" lon="2.12922">
        <ele>149</ele>
        <time>2013-09-29T11:23:39.000Z</time>
      </trkpt>
      <trkpt lat="47.82419" lon="2.12925">
        <ele>149</ele>
        <time>2013-09-29T11:23:41.000Z</time>
      </trkpt>
      <trkpt lat="47.82404" lon="2.12933">
        <ele>149</ele>
        <time>2013-09-29T11:23:43.000Z</time>
      </trkpt>
      <trkpt lat="47.82389" lon="2.1294">
        <ele>149</ele>
        <time>2013-09-29T11:23:45.000Z</time>
      </trkpt>
      <trkpt lat="47.82374" lon="2.12948">
        <ele>149</ele>
        <time>2013-09-29T11:23:48.000Z</time>
      </trkpt>
      <trkpt lat="47.82359" lon="2.12956">
        <ele>149</ele>
        <time>2013-09-29T11:23:49.000Z</time>
      </trkpt>
      <trkpt lat="47.82345" lon="2.12964">
        <ele>150</ele>
        <time>2013-09-29T11:23:52.000Z</time>
      </trkpt>
      <trkpt lat="47.82327" lon="2.12978">
        <ele>150</ele>
        <time>2013-09-29T11:23:56.000Z</time>
      </trkpt>
      <trkpt lat="47.82307" lon="2.12992">
        <ele>152</ele>
        <time>2013-09-29T11:23:59.000Z</time>
      </trkpt>
      <trkpt lat="47.82294" lon="2.13">
        <ele>152</ele>
        <time>2013-09-29T11:24:00.000Z</time>
      </trkpt>
      <trkpt lat="47.8228" lon="2.13008">
        <ele>153</ele>
        <time>2013-09-29T11:24:02.000Z</time>
      </trkpt>
      <trkpt lat="47.82267" lon="2.13015">
        <ele>153</ele>
        <time>2013-09-29T11:24:04.000Z</time>
      </trkpt>
      <trkpt lat="47.82253" lon="2.13021">
        <ele>154</ele>
        <time>2013-09-29T11:24:06.000Z</time>
      </trkpt>
      <trkpt lat="47.82238" lon="2.13024">
        <ele>154</ele>
        <time>2013-09-29T11:24:08.000Z</time>
      </trkpt>
      <trkpt lat="47.82222" lon="2.13027">
        <ele>153</ele>
        <time>2013-09-29T11:24:11.000Z</time>
      </trkpt>
      <trkpt lat="47.82209" lon="2.1303">
        <ele>152</ele>
        <time>2013-09-29T11:24:12.000Z</time>
      </trkpt>
      <trkpt lat="47.82196" lon="2.13031">
        <ele>153</ele>
        <time>2013-09-29T11:24:14.000Z</time>
      </trkpt>
      <trkpt lat="47.82182" lon="2.13033">
        <ele>152</ele>
        <time>2013-09-29T11:24:17.000Z</time>
      </trkpt>
      <trkpt lat="47.82167" lon="2.13035">
        <ele>152</ele>
        <time>2013-09-29T11:24:18.000Z</time>
      </trkpt>
      <trkpt lat="47.82153" lon="2.13038">
        <ele>152</ele>
        <time>2013-09-29T11:24:21.000Z</time>
      </trkpt>
      <trkpt lat="47.8214" lon="2.1304">
        <ele>152</ele>
        <time>2013-09-29T11:24:22.000Z</time>
      </trkpt>
      <trkpt lat="47.82126" lon="2.13044">
        <ele>152</ele>
        <time>2013-09-29T11:24:25.000Z</time>
      </trkpt>
      <trkpt lat="47.82111" lon="2.13047">
        <ele>151</ele>
        <time>2013-09-29T11:24:26.000Z</time>
      </trkpt>
      <trkpt lat="47.82096" lon="2.13047">
        <ele>151</ele>
        <time>2013-09-29T11:24:28.000Z</time>
      </trkpt>
      <trkpt lat="47.82084" lon="2.13048">
        <ele>151</ele>
        <time>2013-09-29T11:24:30.000Z</time>
      </trkpt>
      <trkpt lat="47.8207" lon="2.13046">
        <ele>151</ele>
        <time>2013-09-29T11:24:33.000Z</time>
      </trkpt>
      <trkpt lat="47.82056" lon="2.13042">
        <ele>151</ele>
        <time>2013-09-29T11:24:34.000Z</time>
      </trkpt>
      <trkpt lat="47.82046" lon="2.13036">
        <ele>152</ele>
        <time>2013-09-29T11:24:37.000Z</time>
      </trkpt>
      <trkpt lat="47.82032" lon="2.13032">
        <ele>152</ele>
        <time>2013-09-29T11:24:38.000Z</time>
      </trkpt>
      <trkpt lat="47.82018" lon="2.13027">
        <ele>152</ele>
        <time>2013-09-29T11:24:40.000Z</time>
      </trkpt>
      <trkpt lat="47.82005" lon="2.13021">
        <ele>152</ele>
        <time>2013-09-29T11:24:42.000Z</time>
      </trkpt>
      <trkpt lat="47.81991" lon="2.13016">
        <ele>153</ele>
        <time>2013-09-29T11:24:44.000Z</time>
      </trkpt>
      <trkpt lat="47.81976" lon="2.13012">
        <ele>153</ele>
        <time>2013-09-29T11:24:46.000Z</time>
      </trkpt>
      <trkpt lat="47.81963" lon="2.13003">
        <ele>152</ele>
        <time>2013-09-29T11:24:48.000Z</time>
      </trkpt>
      <trkpt lat="47.8195" lon="2.12995">
        <ele>151</ele>
        <time>2013-09-29T11:24:50.000Z</time>
      </trkpt>
      <trkpt lat="47.81938" lon="2.12988">
        <ele>152</ele>
        <time>2013-09-29T11:24:53.000Z</time>
      </trkpt>
      <trkpt lat="47.81926" lon="2.12982">
        <ele>152</ele>
        <time>2013-09-29T11:24:54.000Z</time>
      </trkpt>
      <trkpt lat="47.81914" lon="2.12977">
        <ele>152</ele>
        <time>2013-09-29T11:24:56.000Z</time>
      </trkpt>
      <trkpt lat="47.81901" lon="2.1297">
        <ele>152</ele>
        <time>2013-09-29T11:24:58.000Z</time>
      </trkpt>
      <trkpt lat="47.81889" lon="2.12964">
        <ele>152</ele>
        <time>2013-09-29T11:25:00.000Z</time>
      </trkpt>
      <trkpt lat="47.81877" lon="2.12957">
        <ele>152</ele>
        <time>2013-09-29T11:25:02.000Z</time>
      </trkpt>
      <trkpt lat="47.81864" lon="2.12951">
        <ele>151</ele>
        <time>2013-09-29T11:25:04.000Z</time>
      </trkpt>
      <trkpt lat="47.81853" lon="2.12945">
        <ele>151</ele>
        <time>2013-09-29T11:25:06.000Z</time>
      </trkpt>
      <trkpt lat="47.81842" lon="2.12941">
        <ele>151</ele>
        <time>2013-09-29T11:25:08.000Z</time>
      </trkpt>
      <trkpt lat="47.8183" lon="2.12938">
        <ele>152</ele>
        <time>2013-09-29T11:25:10.000Z</time>
      </trkpt>
      <trkpt lat="47.81818" lon="2.12936">
        <ele>151</ele>
        <time>2013-09-29T11:25:13.000Z</time>
      </trkpt>
      <trkpt lat="47.81805" lon="2.12935">
        <ele>150</ele>
        <time>2013-09-29T11:25:14.000Z</time>
      </trkpt>
      <trkpt lat="47.81792" lon="2.12936">
        <ele>150</ele>
        <time>2013-09-29T11:25:16.000Z</time>
      </trkpt>
      <trkpt lat="47.8178" lon="2.12937">
        <ele>149</ele>
        <time>2013-09-29T11:25:18.000Z</time>
      </trkpt>
      <trkpt lat="47.81768" lon="2.12939">
        <ele>149</ele>
        <time>2013-09-29T11:25:21.000Z</time>
      </trkpt>
      <trkpt lat="47.81757" lon="2.12941">
        <ele>149</ele>
        <time>2013-09-29T11:25:22.000Z</time>
      </trkpt>
      <trkpt lat="47.81745" lon="2.12942">
        <ele>149</ele>
        <time>2013-09-29T11:25:24.000Z</time>
      </trkpt>
      <trkpt lat="47.81734" lon="2.12943">
        <ele>149</ele>
        <time>2013-09-29T11:25:26.000Z</time>
      </trkpt>
      <trkpt lat="47.81734" lon="2.12943">
        <ele>149</ele>
        <time>2013-09-29T11:25:28.000Z</time>
      </trkpt>
      <trkpt lat="47.81713" lon="2.1295">
        <ele>149</ele>
        <time>2013-09-29T11:25:30.000Z</time>
      </trkpt>
      <trkpt lat="47.81713" lon="2.1295">
        <ele>149</ele>
        <time>2013-09-29T11:25:33.000Z</time>
      </trkpt>
      <trkpt lat="47.81713" lon="2.1295">
        <ele>149</ele>
        <time>2013-09-29T11:25:35.000Z</time>
      </trkpt>
      <trkpt lat="47.81713" lon="2.1295">
        <ele>149</ele>
        <time>2013-09-29T11:25:36.000Z</time>
      </trkpt>
      <trkpt lat="47.81713" lon="2.1295">
        <ele>149</ele>
        <time>2013-09-29T11:25:38.000Z</time>
      </trkpt>
      <trkpt lat="47.81713" lon="2.1295">
        <ele>149</ele>
        <time>2013-09-29T11:25:40.000Z</time>
      </trkpt>
      <trkpt lat="47.81713" lon="2.1295">
        <ele>149</ele>
        <time>2013-09-29T11:25:43.000Z</time>
      </trkpt>
      <trkpt lat="47.81713" lon="2.1295">
        <ele>149</ele>
        <time>2013-09-29T11:25:44.000Z</time>
      </trkpt>
      <trkpt lat="47.81713" lon="2.1295">
        <ele>149</ele>
        <time>2013-09-29T11:25:47.000Z</time>
      </trkpt>
      <trkpt lat="47.81713" lon="2.1295">
        <ele>149</ele>
        <time>2013-09-29T11:25:48.000Z</time>
      </trkpt>
      <trkpt lat="47.81713" lon="2.1295">
        <ele>149</ele>
        <time>2013-09-29T11:25:51.000Z</time>
      </trkpt>
      <trkpt lat="47.81713" lon="2.1295">
        <ele>149</ele>
        <time>2013-09-29T11:25:54.000Z</time>
      </trkpt>
      <trkpt lat="47.81713" lon="2.1295">
        <ele>149</ele>
        <time>2013-09-29T11:25:55.000Z</time>
      </trkpt>
      <trkpt lat="47.81713" lon="2.1295">
        <ele>149</ele>
        <time>2013-09-29T11:25:57.000Z</time>
      </trkpt>
      <trkpt lat="47.81611" lon="2.12968">
        <ele>151</ele>
        <time>2013-09-29T11:26:34.000Z</time>
      </trkpt>
      <trkpt lat="47.81584" lon="2.12968">
        <ele>149</ele>
        <time>2013-09-29T11:26:40.000Z</time>
      </trkpt>
      <trkpt lat="47.81572" lon="2.12967">
        <ele>147</ele>
        <time>2013-09-29T11:26:41.000Z</time>
      </trkpt>
      <trkpt lat="47.81559" lon="2.1297">
        <ele>148</ele>
        <time>2013-09-29T11:26:43.000Z</time>
      </trkpt>
      <trkpt lat="47.81548" lon="2.12977">
        <ele>148</ele>
        <time>2013-09-29T11:26:46.000Z</time>
      </trkpt>
      <trkpt lat="47.81535" lon="2.12979">
        <ele>148</ele>
        <time>2013-09-29T11:26:47.000Z</time>
      </trkpt>
      <trkpt lat="47.81509" lon="2.1298">
        <ele>149</ele>
        <time>2013-09-29T11:26:52.000Z</time>
      </trkpt>
      <trkpt lat="47.81509" lon="2.1298">
        <ele>149</ele>
        <time>2013-09-29T11:26:53.000Z</time>
      </trkpt>
      <trkpt lat="47.8149" lon="2.12981">
        <ele>148</ele>
        <time>2013-09-29T11:26:55.000Z</time>
      </trkpt>
      <trkpt lat="47.8149" lon="2.12981">
        <ele>148</ele>
        <time>2013-09-29T11:26:57.000Z</time>
      </trkpt>
      <trkpt lat="47.81466" lon="2.12983">
        <ele>148</ele>
        <time>2013-09-29T11:27:00.000Z</time>
      </trkpt>
      <trkpt lat="47.81466" lon="2.12983">
        <ele>148</ele>
        <time>2013-09-29T11:27:01.000Z</time>
      </trkpt>
      <trkpt lat="47.81446" lon="2.1299">
        <ele>147</ele>
        <time>2013-09-29T11:27:04.000Z</time>
      </trkpt>
      <trkpt lat="47.81446" lon="2.1299">
        <ele>147</ele>
        <time>2013-09-29T11:27:05.000Z</time>
      </trkpt>
      <trkpt lat="47.81397" lon="2.12995">
        <ele>148</ele>
        <time>2013-09-29T11:27:14.000Z</time>
      </trkpt>
      <trkpt lat="47.81376" lon="2.12998">
        <ele>148</ele>
        <time>2013-09-29T11:27:18.000Z</time>
      </trkpt>
      <trkpt lat="47.81376" lon="2.12998">
        <ele>148</ele>
        <time>2013-09-29T11:27:22.000Z</time>
      </trkpt>
      <trkpt lat="47.81326" lon="2.13004">
        <ele>147</ele>
        <time>2013-09-29T11:27:28.000Z</time>
      </trkpt>
      <trkpt lat="47.81326" lon="2.13004">
        <ele>147</ele>
        <time>2013-09-29T11:27:29.000Z</time>
      </trkpt>
      <trkpt lat="47.81306" lon="2.1301">
        <ele>147</ele>
        <time>2013-09-29T11:27:31.000Z</time>
      </trkpt>
      <trkpt lat="47.81292" lon="2.13015">
        <ele>149</ele>
        <time>2013-09-29T11:27:33.000Z</time>
      </trkpt>
      <trkpt lat="47.81273" lon="2.13019">
        <ele>149</ele>
        <time>2013-09-29T11:27:38.000Z</time>
      </trkpt>
      <trkpt lat="47.81273" lon="2.13019">
        <ele>149</ele>
        <time>2013-09-29T11:27:39.000Z</time>
      </trkpt>
      <trkpt lat="47.81229" lon="2.13023">
        <ele>149</ele>
        <time>2013-09-29T11:27:46.000Z</time>
      </trkpt>
      <trkpt lat="47.81209" lon="2.13034">
        <ele>152</ele>
        <time>2013-09-29T11:27:50.000Z</time>
      </trkpt>
      <trkpt lat="47.81199" lon="2.13033">
        <ele>152</ele>
        <time>2013-09-29T11:27:51.000Z</time>
      </trkpt>
      <trkpt lat="47.81189" lon="2.13038">
        <ele>152</ele>
        <time>2013-09-29T11:27:54.000Z</time>
      </trkpt>
      <trkpt lat="47.81179" lon="2.13041">
        <ele>153</ele>
        <time>2013-09-29T11:27:55.000Z</time>
      </trkpt>
      <trkpt lat="47.81179" lon="2.13041">
        <ele>153</ele>
        <time>2013-09-29T11:27:57.000Z</time>
      </trkpt>
      <trkpt lat="47.81179" lon="2.13041">
        <ele>153</ele>
        <time>2013-09-29T11:27:59.000Z</time>
      </trkpt>
      <trkpt lat="47.81179" lon="2.13041">
        <ele>153</ele>
        <time>2013-09-29T11:28:01.000Z</time>
      </trkpt>
      <trkpt lat="47.81133" lon="2.13043">
        <ele>152</ele>
        <time>2013-09-29T11:28:03.000Z</time>
      </trkpt>
      <trkpt lat="47.8112" lon="2.13046">
        <ele>152</ele>
        <time>2013-09-29T11:28:05.000Z</time>
      </trkpt>
      <trkpt lat="47.81098" lon="2.13045">
        <ele>152</ele>
        <time>2013-09-29T11:28:11.000Z</time>
      </trkpt>
      <trkpt lat="47.81085" lon="2.13044">
        <ele>152</ele>
        <time>2013-09-29T11:28:12.000Z</time>
      </trkpt>
      <trkpt lat="47.81068" lon="2.13042">
        <ele>152</ele>
        <time>2013-09-29T11:28:15.000Z</time>
      </trkpt>
      <trkpt lat="47.8105" lon="2.13042">
        <ele>151</ele>
        <time>2013-09-29T11:28:18.000Z</time>
      </trkpt>
      <trkpt lat="47.81027" lon="2.13041">
        <ele>151</ele>
        <time>2013-09-29T11:28:22.000Z</time>
      </trkpt>
      <trkpt lat="47.81002" lon="2.1304">
        <ele>150</ele>
        <time>2013-09-29T11:28:26.000Z</time>
      </trkpt>
      <trkpt lat="47.8098" lon="2.13041">
        <ele>149</ele>
        <time>2013-09-29T11:28:30.000Z</time>
      </trkpt>
      <trkpt lat="47.80957" lon="2.13042">
        <ele>150</ele>
        <time>2013-09-29T11:28:34.000Z</time>
      </trkpt>
      <trkpt lat="47.80934" lon="2.13044">
        <ele>150</ele>
        <time>2013-09-29T11:28:38.000Z</time>
      </trkpt>
      <trkpt lat="47.80934" lon="2.13044">
        <ele>150</ele>
        <time>2013-09-29T11:28:39.000Z</time>
      </trkpt>
      <trkpt lat="47.80911" lon="2.13045">
        <ele>151</ele>
        <time>2013-09-29T11:28:42.000Z</time>
      </trkpt>
      <trkpt lat="47.80911" lon="2.13045">
        <ele>151</ele>
        <time>2013-09-29T11:28:43.000Z</time>
      </trkpt>
      <trkpt lat="47.80891" lon="2.13041">
        <ele>150</ele>
        <time>2013-09-29T11:28:45.000Z</time>
      </trkpt>
      <trkpt lat="47.80891" lon="2.13041">
        <ele>150</ele>
        <time>2013-09-29T11:28:48.000Z</time>
      </trkpt>
      <trkpt lat="47.80891" lon="2.13041">
        <ele>150</ele>
        <time>2013-09-29T11:28:49.000Z</time>
      </trkpt>
      <trkpt lat="47.80891" lon="2.13041">
        <ele>150</ele>
        <time>2013-09-29T11:28:54.000Z</time>
      </trkpt>
      <trkpt lat="47.80891" lon="2.13041">
        <ele>150</ele>
        <time>2013-09-29T11:28:55.000Z</time>
      </trkpt>
      <trkpt lat="47.80891" lon="2.13041">
        <ele>150</ele>
        <time>2013-09-29T11:28:57.000Z</time>
      </trkpt>
      <trkpt lat="47.80855" lon="2.1305">
        <ele>151</ele>
        <time>2013-09-29T11:28:59.000Z</time>
      </trkpt>
      <trkpt lat="47.80833" lon="2.13058">
        <ele>151</ele>
        <time>2013-09-29T11:29:01.000Z</time>
      </trkpt>
      <trkpt lat="47.80816" lon="2.13064">
        <ele>152</ele>
        <time>2013-09-29T11:29:04.000Z</time>
      </trkpt>
      <trkpt lat="47.80804" lon="2.1307">
        <ele>151</ele>
        <time>2013-09-29T11:29:05.000Z</time>
      </trkpt>
      <trkpt lat="47.80804" lon="2.1307">
        <ele>151</ele>
        <time>2013-09-29T11:29:07.000Z</time>
      </trkpt>
      <trkpt lat="47.80804" lon="2.1307">
        <ele>151</ele>
        <time>2013-09-29T11:29:10.000Z</time>
      </trkpt>
      <trkpt lat="47.80804" lon="2.1307">
        <ele>151</ele>
        <time>2013-09-29T11:29:11.000Z</time>
      </trkpt>
      <trkpt lat="47.80804" lon="2.1307">
        <ele>151</ele>
        <time>2013-09-29T11:29:14.000Z</time>
      </trkpt>
      <trkpt lat="47.80804" lon="2.1307">
        <ele>151</ele>
        <time>2013-09-29T11:29:15.000Z</time>
      </trkpt>
      <trkpt lat="47.80804" lon="2.1307">
        <ele>151</ele>
        <time>2013-09-29T11:29:17.000Z</time>
      </trkpt>
      <trkpt lat="47.80804" lon="2.1307">
        <ele>151</ele>
        <time>2013-09-29T11:29:19.000Z</time>
      </trkpt>
      <trkpt lat="47.80754" lon="2.13094">
        <ele>151</ele>
        <time>2013-09-29T11:29:24.000Z</time>
      </trkpt>
      <trkpt lat="47.80754" lon="2.13094">
        <ele>151</ele>
        <time>2013-09-29T11:29:25.000Z</time>
      </trkpt>
      <trkpt lat="47.80754" lon="2.13094">
        <ele>151</ele>
        <time>2013-09-29T11:29:27.000Z</time>
      </trkpt>
      <trkpt lat="47.80754" lon="2.13094">
        <ele>151</ele>
        <time>2013-09-29T11:29:29.000Z</time>
      </trkpt>
      <trkpt lat="47.8069" lon="2.13127">
        <ele>149</ele>
        <time>2013-09-29T11:29:41.000Z</time>
      </trkpt>
      <trkpt lat="47.80651" lon="2.13147">
        <ele>148</ele>
        <time>2013-09-29T11:29:44.000Z</time>
      </trkpt>
      <trkpt lat="47.80627" lon="2.1316">
        <ele>148</ele>
        <time>2013-09-29T11:29:46.000Z</time>
      </trkpt>
      <trkpt lat="47.8061" lon="2.13166">
        <ele>148</ele>
        <time>2013-09-29T11:29:47.000Z</time>
      </trkpt>
      <trkpt lat="47.80598" lon="2.13171">
        <ele>150</ele>
        <time>2013-09-29T11:29:49.000Z</time>
      </trkpt>
      <trkpt lat="47.80598" lon="2.13171">
        <ele>150</ele>
        <time>2013-09-29T11:29:51.000Z</time>
      </trkpt>
      <trkpt lat="47.80598" lon="2.13171">
        <ele>150</ele>
        <time>2013-09-29T11:29:53.000Z</time>
      </trkpt>
      <trkpt lat="47.80598" lon="2.13171">
        <ele>150</ele>
        <time>2013-09-29T11:29:55.000Z</time>
      </trkpt>
      <trkpt lat="47.80598" lon="2.13171">
        <ele>150</ele>
        <time>2013-09-29T11:29:57.000Z</time>
      </trkpt>
      <trkpt lat="47.80598" lon="2.13171">
        <ele>150</ele>
        <time>2013-09-29T11:29:59.000Z</time>
      </trkpt>
      <trkpt lat="47.80598" lon="2.13171">
        <ele>150</ele>
        <time>2013-09-29T11:30:04.000Z</time>
      </trkpt>
      <trkpt lat="47.80598" lon="2.13171">
        <ele>150</ele>
        <time>2013-09-29T11:30:05.000Z</time>
      </trkpt>
      <trkpt lat="47.80598" lon="2.13171">
        <ele>150</ele>
        <time>2013-09-29T11:30:08.000Z</time>
      </trkpt>
      <trkpt lat="47.80598" lon="2.13171">
        <ele>150</ele>
        <time>2013-09-29T11:30:09.000Z</time>
      </trkpt>
      <trkpt lat="47.80485" lon="2.13195">
        <ele>153</ele>
        <time>2013-09-29T11:30:14.000Z</time>
      </trkpt>
      <trkpt lat="47.8047" lon="2.13197">
        <ele>153</ele>
        <time>2013-09-29T11:30:18.000Z</time>
      </trkpt>
      <trkpt lat="47.8047" lon="2.13197">
        <ele>153</ele>
        <time>2013-09-29T11:30:19.000Z</time>
      </trkpt>
      <trkpt lat="47.8047" lon="2.13197">
        <ele>153</ele>
        <time>2013-09-29T11:30:22.000Z</time>
      </trkpt>
      <trkpt lat="47.8047" lon="2.13197">
        <ele>153</ele>
        <time>2013-09-29T11:30:23.000Z</time>
      </trkpt>
      <trkpt lat="47.8047" lon="2.13197">
        <ele>153</ele>
        <time>2013-09-29T11:30:26.000Z</time>
      </trkpt>
      <trkpt lat="47.8047" lon="2.13197">
        <ele>153</ele>
        <time>2013-09-29T11:30:27.000Z</time>
      </trkpt>
      <trkpt lat="47.8047" lon="2.13197">
        <ele>153</ele>
        <time>2013-09-29T11:30:29.000Z</time>
      </trkpt>
      <trkpt lat="47.8047" lon="2.13197">
        <ele>153</ele>
        <time>2013-09-29T11:30:31.000Z</time>
      </trkpt>
      <trkpt lat="47.80452" lon="2.13243">
        <ele>154</ele>
        <time>2013-09-29T11:30:38.000Z</time>
      </trkpt>
      <trkpt lat="47.80453" lon="2.13258">
        <ele>154</ele>
        <time>2013-09-29T11:30:42.000Z</time>
      </trkpt>
      <trkpt lat="47.80455" lon="2.13273">
        <ele>156</ele>
        <time>2013-09-29T11:30:46.000Z</time>
      </trkpt>
      <trkpt lat="47.80459" lon="2.13288">
        <ele>158</ele>
        <time>2013-09-29T11:30:50.000Z</time>
      </trkpt>
      <trkpt lat="47.80469" lon="2.13306">
        <ele>157</ele>
        <time>2013-09-29T11:30:54.000Z</time>
      </trkpt>
      <trkpt lat="47.80475" lon="2.13324">
        <ele>159</ele>
        <time>2013-09-29T11:30:58.000Z</time>
      </trkpt>
      <trkpt lat="47.80475" lon="2.13324">
        <ele>159</ele>
        <time>2013-09-29T11:30:59.000Z</time>
      </trkpt>
      <trkpt lat="47.80483" lon="2.13342">
        <ele>159</ele>
        <time>2013-09-29T11:31:01.000Z</time>
      </trkpt>
      <trkpt lat="47.80489" lon="2.13372">
        <ele>162</ele>
        <time>2013-09-29T11:31:08.000Z</time>
      </trkpt>
      <trkpt lat="47.80492" lon="2.13383">
        <ele>161</ele>
        <time>2013-09-29T11:31:12.000Z</time>
      </trkpt>
      <trkpt lat="47.80495" lon="2.13395">
        <ele>161</ele>
        <time>2013-09-29T11:31:13.000Z</time>
      </trkpt>
      <trkpt lat="47.80497" lon="2.13408">
        <ele>161</ele>
        <time>2013-09-29T11:31:15.000Z</time>
      </trkpt>
      <trkpt lat="47.80497" lon="2.13423">
        <ele>160</ele>
        <time>2013-09-29T11:31:17.000Z</time>
      </trkpt>
      <trkpt lat="47.80497" lon="2.13438">
        <ele>160</ele>
        <time>2013-09-29T11:31:19.000Z</time>
      </trkpt>
      <trkpt lat="47.80494" lon="2.13467">
        <ele>160</ele>
        <time>2013-09-29T11:31:22.000Z</time>
      </trkpt>
      <trkpt lat="47.80492" lon="2.13481">
        <ele>161</ele>
        <time>2013-09-29T11:31:23.000Z</time>
      </trkpt>
      <trkpt lat="47.80492" lon="2.13481">
        <ele>161</ele>
        <time>2013-09-29T11:31:26.000Z</time>
      </trkpt>
      <trkpt lat="47.80492" lon="2.13481">
        <ele>161</ele>
        <time>2013-09-29T11:31:27.000Z</time>
      </trkpt>
      <trkpt lat="47.80492" lon="2.13481">
        <ele>161</ele>
        <time>2013-09-29T11:31:30.000Z</time>
      </trkpt>
      <trkpt lat="47.80492" lon="2.13481">
        <ele>161</ele>
        <time>2013-09-29T11:31:31.000Z</time>
      </trkpt>
      <trkpt lat="47.80492" lon="2.13481">
        <ele>161</ele>
        <time>2013-09-29T11:31:33.000Z</time>
      </trkpt>
      <trkpt lat="47.80492" lon="2.13481">
        <ele>161</ele>
        <time>2013-09-29T11:31:35.000Z</time>
      </trkpt>
      <trkpt lat="47.80492" lon="2.13481">
        <ele>161</ele>
        <time>2013-09-29T11:31:37.000Z</time>
      </trkpt>
      <trkpt lat="47.80492" lon="2.13481">
        <ele>161</ele>
        <time>2013-09-29T11:31:39.000Z</time>
      </trkpt>
      <trkpt lat="47.80481" lon="2.13598">
        <ele>162</ele>
        <time>2013-09-29T11:31:41.000Z</time>
      </trkpt>
      <trkpt lat="47.80481" lon="2.13611">
        <ele>162</ele>
        <time>2013-09-29T11:31:44.000Z</time>
      </trkpt>
      <trkpt lat="47.80481" lon="2.13626">
        <ele>162</ele>
        <time>2013-09-29T11:31:46.000Z</time>
      </trkpt>
      <trkpt lat="47.80481" lon="2.1364">
        <ele>162</ele>
        <time>2013-09-29T11:31:47.000Z</time>
      </trkpt>
      <trkpt lat="47.80479" lon="2.13655">
        <ele>162</ele>
        <time>2013-09-29T11:31:49.000Z</time>
      </trkpt>
      <trkpt lat="47.80478" lon="2.13669">
        <ele>162</ele>
        <time>2013-09-29T11:31:51.000Z</time>
      </trkpt>
      <trkpt lat="47.80478" lon="2.13669">
        <ele>162</ele>
        <time>2013-09-29T11:31:53.000Z</time>
      </trkpt>
      <trkpt lat="47.80478" lon="2.13669">
        <ele>162</ele>
        <time>2013-09-29T11:31:55.000Z</time>
      </trkpt>
      <trkpt lat="47.80478" lon="2.13669">
        <ele>162</ele>
        <time>2013-09-29T11:31:57.000Z</time>
      </trkpt>
      <trkpt lat="47.80465" lon="2.13734">
        <ele>162</ele>
        <time>2013-09-29T11:32:02.000Z</time>
      </trkpt>
      <trkpt lat="47.80462" lon="2.13748">
        <ele>162</ele>
        <time>2013-09-29T11:32:03.000Z</time>
      </trkpt>
      <trkpt lat="47.80459" lon="2.13761">
        <ele>162</ele>
        <time>2013-09-29T11:32:06.000Z</time>
      </trkpt>
      <trkpt lat="47.80459" lon="2.13761">
        <ele>162</ele>
        <time>2013-09-29T11:32:07.000Z</time>
      </trkpt>
      <trkpt lat="47.80459" lon="2.13761">
        <ele>162</ele>
        <time>2013-09-29T11:32:10.000Z</time>
      </trkpt>
      <trkpt lat="47.80459" lon="2.13761">
        <ele>162</ele>
        <time>2013-09-29T11:32:11.000Z</time>
      </trkpt>
      <trkpt lat="47.80446" lon="2.1383">
        <ele>160</ele>
        <time>2013-09-29T11:32:16.000Z</time>
      </trkpt>
      <trkpt lat="47.80441" lon="2.13847">
        <ele>160</ele>
        <time>2013-09-29T11:32:17.000Z</time>
      </trkpt>
      <trkpt lat="47.80436" lon="2.13864">
        <ele>160</ele>
        <time>2013-09-29T11:32:20.000Z</time>
      </trkpt>
      <trkpt lat="47.80431" lon="2.13882">
        <ele>160</ele>
        <time>2013-09-29T11:32:21.000Z</time>
      </trkpt>
      <trkpt lat="47.80425" lon="2.139">
        <ele>160</ele>
        <time>2013-09-29T11:32:24.000Z</time>
      </trkpt>
      <trkpt lat="47.80419" lon="2.13917">
        <ele>160</ele>
        <time>2013-09-29T11:32:25.000Z</time>
      </trkpt>
      <trkpt lat="47.80413" lon="2.13934">
        <ele>160</ele>
        <time>2013-09-29T11:32:28.000Z</time>
      </trkpt>
      <trkpt lat="47.80407" lon="2.1395">
        <ele>160</ele>
        <time>2013-09-29T11:32:29.000Z</time>
      </trkpt>
      <trkpt lat="47.80402" lon="2.13968">
        <ele>160</ele>
        <time>2013-09-29T11:32:32.000Z</time>
      </trkpt>
      <trkpt lat="47.80396" lon="2.13985">
        <ele>160</ele>
        <time>2013-09-29T11:32:33.000Z</time>
      </trkpt>
      <trkpt lat="47.80393" lon="2.14004">
        <ele>160</ele>
        <time>2013-09-29T11:32:36.000Z</time>
      </trkpt>
      <trkpt lat="47.80391" lon="2.14022">
        <ele>160</ele>
        <time>2013-09-29T11:32:38.000Z</time>
      </trkpt>
      <trkpt lat="47.8039" lon="2.1404">
        <ele>158</ele>
        <time>2013-09-29T11:32:39.000Z</time>
      </trkpt>
      <trkpt lat="47.80385" lon="2.14057">
        <ele>159</ele>
        <time>2013-09-29T11:32:42.000Z</time>
      </trkpt>
      <trkpt lat="47.80378" lon="2.14071">
        <ele>159</ele>
        <time>2013-09-29T11:32:43.000Z</time>
      </trkpt>
      <trkpt lat="47.80371" lon="2.14082">
        <ele>159</ele>
        <time>2013-09-29T11:32:46.000Z</time>
      </trkpt>
      <trkpt lat="47.80371" lon="2.14082">
        <ele>159</ele>
        <time>2013-09-29T11:32:47.000Z</time>
      </trkpt>
      <trkpt lat="47.80371" lon="2.14082">
        <ele>159</ele>
        <time>2013-09-29T11:32:50.000Z</time>
      </trkpt>
      <trkpt lat="47.80371" lon="2.14082">
        <ele>159</ele>
        <time>2013-09-29T11:32:51.000Z</time>
      </trkpt>
      <trkpt lat="47.80302" lon="2.14088">
        <ele>159</ele>
        <time>2013-09-29T11:32:58.000Z</time>
      </trkpt>
      <trkpt lat="47.80302" lon="2.14088">
        <ele>159</ele>
        <time>2013-09-29T11:33:00.000Z</time>
      </trkpt>
      <trkpt lat="47.80302" lon="2.14088">
        <ele>159</ele>
        <time>2013-09-29T11:33:02.000Z</time>
      </trkpt>
      <trkpt lat="47.80302" lon="2.14088">
        <ele>159</ele>
        <time>2013-09-29T11:33:07.000Z</time>
      </trkpt>
      <trkpt lat="47.80302" lon="2.14088">
        <ele>159</ele>
        <time>2013-09-29T11:33:11.000Z</time>
      </trkpt>
      <trkpt lat="47.80302" lon="2.14088">
        <ele>159</ele>
        <time>2013-09-29T11:33:12.000Z</time>
      </trkpt>
      <trkpt lat="47.80302" lon="2.14088">
        <ele>159</ele>
        <time>2013-09-29T11:33:15.000Z</time>
      </trkpt>
      <trkpt lat="47.80302" lon="2.14088">
        <ele>159</ele>
        <time>2013-09-29T11:33:16.000Z</time>
      </trkpt>
      <trkpt lat="47.80293" lon="2.14066">
        <ele>160</ele>
        <time>2013-09-29T11:33:24.000Z</time>
      </trkpt>
      <trkpt lat="47.80293" lon="2.14066">
        <ele>160</ele>
        <time>2013-09-29T11:33:26.000Z</time>
      </trkpt>
      <trkpt lat="47.80293" lon="2.14066">
        <ele>160</ele>
        <time>2013-09-29T11:33:27.000Z</time>
      </trkpt>
      <trkpt lat="47.80293" lon="2.14066">
        <ele>160</ele>
        <time>2013-09-29T11:33:34.000Z</time>
      </trkpt>
      <trkpt lat="47.80293" lon="2.14066">
        <ele>160</ele>
        <time>2013-09-29T11:33:35.000Z</time>
      </trkpt>
    </trkseg>
  </trk>
</gpx>